<?xml version="1.0" encoding="UTF-8" standalone="no" ?>
<gpx xmlns="http://www.topografix.com/GPX/1/1" xmlns:xsi="http://www.w3.org/2001/XMLSchema-instance" xsi:schemaLocation="http://www.topografix.com/GPX/1/1 http://www.topografix.com/GPX/1/1/gpx.xsd" version="1.1" creator="VisuGPX - https://www.visugpx.com">
  <metadata>
    <name>83 - D+  Seillans</name>
    <desc><![CDATA[83 - D+  Seillans : la Pigne  
2023-11-26]]></desc>
  </metadata>
  <trk>
    <name><![CDATA[Seillans - la Pigne 2023-11-26-01]]></name>
    <trkseg>
      <trkpt lat="43.63627" lon="6.64539">
        <ele>395.2</ele>
        <time>2023-11-26T08:08:22Z</time>
      </trkpt>
      <trkpt lat="43.63627" lon="6.64539">
        <ele>395.2</ele>
        <time>2023-11-26T08:08:23Z</time>
      </trkpt>
      <trkpt lat="43.63627" lon="6.64539">
        <ele>395.2</ele>
        <time>2023-11-26T08:08:24Z</time>
      </trkpt>
      <trkpt lat="43.63627" lon="6.6454">
        <ele>395.1</ele>
        <time>2023-11-26T08:08:25Z</time>
      </trkpt>
      <trkpt lat="43.63626" lon="6.6454">
        <ele>395.2</ele>
        <time>2023-11-26T08:08:26Z</time>
      </trkpt>
      <trkpt lat="43.63626" lon="6.6454">
        <ele>395.2</ele>
        <time>2023-11-26T08:08:27Z</time>
      </trkpt>
      <trkpt lat="43.63626" lon="6.6454">
        <ele>395.1</ele>
        <time>2023-11-26T08:08:28Z</time>
      </trkpt>
      <trkpt lat="43.63626" lon="6.6454">
        <ele>395.1</ele>
        <time>2023-11-26T08:08:29Z</time>
      </trkpt>
      <trkpt lat="43.63626" lon="6.6454">
        <ele>395.1</ele>
        <time>2023-11-26T08:08:30Z</time>
      </trkpt>
      <trkpt lat="43.63626" lon="6.64541">
        <ele>395.2</ele>
        <time>2023-11-26T08:08:31Z</time>
      </trkpt>
      <trkpt lat="43.63627" lon="6.64541">
        <ele>395.2</ele>
        <time>2023-11-26T08:08:32Z</time>
      </trkpt>
      <trkpt lat="43.63627" lon="6.64542">
        <ele>395.2</ele>
        <time>2023-11-26T08:08:33Z</time>
      </trkpt>
      <trkpt lat="43.63627" lon="6.64542">
        <ele>395.1</ele>
        <time>2023-11-26T08:08:34Z</time>
      </trkpt>
      <trkpt lat="43.63626" lon="6.64541">
        <ele>395.3</ele>
        <time>2023-11-26T08:08:35Z</time>
      </trkpt>
      <trkpt lat="43.63626" lon="6.64541">
        <ele>395.3</ele>
        <time>2023-11-26T08:08:36Z</time>
      </trkpt>
      <trkpt lat="43.63626" lon="6.64541">
        <ele>395.4</ele>
        <time>2023-11-26T08:08:37Z</time>
      </trkpt>
      <trkpt lat="43.63626" lon="6.64541">
        <ele>395.3</ele>
        <time>2023-11-26T08:08:38Z</time>
      </trkpt>
      <trkpt lat="43.63626" lon="6.64541">
        <ele>395.2</ele>
        <time>2023-11-26T08:08:39Z</time>
      </trkpt>
      <trkpt lat="43.63626" lon="6.64541">
        <ele>395.2</ele>
        <time>2023-11-26T08:08:40Z</time>
      </trkpt>
      <trkpt lat="43.63626" lon="6.64541">
        <ele>395.3</ele>
        <time>2023-11-26T08:08:41Z</time>
      </trkpt>
      <trkpt lat="43.63626" lon="6.64541">
        <ele>395.4</ele>
        <time>2023-11-26T08:08:42Z</time>
      </trkpt>
      <trkpt lat="43.63626" lon="6.64541">
        <ele>395.5</ele>
        <time>2023-11-26T08:08:43Z</time>
      </trkpt>
      <trkpt lat="43.63626" lon="6.64541">
        <ele>395.5</ele>
        <time>2023-11-26T08:08:44Z</time>
      </trkpt>
      <trkpt lat="43.63626" lon="6.64541">
        <ele>395.4</ele>
        <time>2023-11-26T08:08:45Z</time>
      </trkpt>
      <trkpt lat="43.63626" lon="6.64541">
        <ele>395.4</ele>
        <time>2023-11-26T08:08:46Z</time>
      </trkpt>
      <trkpt lat="43.63626" lon="6.64541">
        <ele>395.4</ele>
        <time>2023-11-26T08:08:47Z</time>
      </trkpt>
      <trkpt lat="43.63626" lon="6.64541">
        <ele>395.4</ele>
        <time>2023-11-26T08:08:48Z</time>
      </trkpt>
      <trkpt lat="43.63626" lon="6.64541">
        <ele>395.4</ele>
        <time>2023-11-26T08:08:49Z</time>
      </trkpt>
      <trkpt lat="43.63626" lon="6.64541">
        <ele>395.4</ele>
        <time>2023-11-26T08:08:50Z</time>
      </trkpt>
      <trkpt lat="43.63626" lon="6.64542">
        <ele>395.4</ele>
        <time>2023-11-26T08:08:51Z</time>
      </trkpt>
      <trkpt lat="43.63626" lon="6.64542">
        <ele>395.4</ele>
        <time>2023-11-26T08:08:52Z</time>
      </trkpt>
      <trkpt lat="43.63626" lon="6.64542">
        <ele>395.4</ele>
        <time>2023-11-26T08:08:53Z</time>
      </trkpt>
      <trkpt lat="43.63626" lon="6.64542">
        <ele>395.4</ele>
        <time>2023-11-26T08:08:54Z</time>
      </trkpt>
      <trkpt lat="43.63626" lon="6.64542">
        <ele>395.4</ele>
        <time>2023-11-26T08:08:55Z</time>
      </trkpt>
      <trkpt lat="43.63626" lon="6.64542">
        <ele>395.5</ele>
        <time>2023-11-26T08:08:56Z</time>
      </trkpt>
      <trkpt lat="43.63626" lon="6.64542">
        <ele>395.5</ele>
        <time>2023-11-26T08:08:57Z</time>
      </trkpt>
      <trkpt lat="43.63626" lon="6.64542">
        <ele>395.6</ele>
        <time>2023-11-26T08:08:58Z</time>
      </trkpt>
      <trkpt lat="43.63626" lon="6.64541">
        <ele>395.5</ele>
        <time>2023-11-26T08:08:59Z</time>
      </trkpt>
      <trkpt lat="43.63626" lon="6.64541">
        <ele>395.5</ele>
        <time>2023-11-26T08:09:00Z</time>
      </trkpt>
      <trkpt lat="43.63626" lon="6.64541">
        <ele>395.5</ele>
        <time>2023-11-26T08:09:01Z</time>
      </trkpt>
      <trkpt lat="43.63626" lon="6.64541">
        <ele>395.6</ele>
        <time>2023-11-26T08:09:02Z</time>
      </trkpt>
      <trkpt lat="43.63626" lon="6.64541">
        <ele>395.6</ele>
        <time>2023-11-26T08:09:03Z</time>
      </trkpt>
      <trkpt lat="43.63625" lon="6.64541">
        <ele>395.7</ele>
        <time>2023-11-26T08:09:04Z</time>
      </trkpt>
      <trkpt lat="43.63625" lon="6.64541">
        <ele>395.7</ele>
        <time>2023-11-26T08:09:05Z</time>
      </trkpt>
      <trkpt lat="43.63625" lon="6.64541">
        <ele>395.7</ele>
        <time>2023-11-26T08:09:06Z</time>
      </trkpt>
      <trkpt lat="43.63625" lon="6.64541">
        <ele>395.7</ele>
        <time>2023-11-26T08:09:07Z</time>
      </trkpt>
      <trkpt lat="43.63625" lon="6.64541">
        <ele>395.5</ele>
        <time>2023-11-26T08:09:08Z</time>
      </trkpt>
      <trkpt lat="43.63625" lon="6.64541">
        <ele>395.5</ele>
        <time>2023-11-26T08:09:09Z</time>
      </trkpt>
      <trkpt lat="43.63625" lon="6.64541">
        <ele>395.5</ele>
        <time>2023-11-26T08:09:10Z</time>
      </trkpt>
      <trkpt lat="43.63625" lon="6.64541">
        <ele>395.4</ele>
        <time>2023-11-26T08:09:11Z</time>
      </trkpt>
      <trkpt lat="43.63625" lon="6.64541">
        <ele>395.2</ele>
        <time>2023-11-26T08:09:12Z</time>
      </trkpt>
      <trkpt lat="43.63624" lon="6.64541">
        <ele>395.1</ele>
        <time>2023-11-26T08:09:13Z</time>
      </trkpt>
      <trkpt lat="43.63624" lon="6.64541">
        <ele>395.1</ele>
        <time>2023-11-26T08:09:14Z</time>
      </trkpt>
      <trkpt lat="43.63624" lon="6.64541">
        <ele>395</ele>
        <time>2023-11-26T08:09:15Z</time>
      </trkpt>
      <trkpt lat="43.63624" lon="6.64541">
        <ele>395</ele>
        <time>2023-11-26T08:09:16Z</time>
      </trkpt>
      <trkpt lat="43.63624" lon="6.6454">
        <ele>395</ele>
        <time>2023-11-26T08:09:17Z</time>
      </trkpt>
      <trkpt lat="43.63625" lon="6.6454">
        <ele>394.9</ele>
        <time>2023-11-26T08:09:18Z</time>
      </trkpt>
      <trkpt lat="43.63624" lon="6.6454">
        <ele>394.9</ele>
        <time>2023-11-26T08:09:19Z</time>
      </trkpt>
      <trkpt lat="43.63624" lon="6.64539">
        <ele>394.9</ele>
        <time>2023-11-26T08:09:20Z</time>
      </trkpt>
      <trkpt lat="43.63623" lon="6.64538">
        <ele>394.9</ele>
        <time>2023-11-26T08:09:21Z</time>
      </trkpt>
      <trkpt lat="43.63623" lon="6.64538">
        <ele>394.9</ele>
        <time>2023-11-26T08:09:22Z</time>
      </trkpt>
      <trkpt lat="43.63623" lon="6.64538">
        <ele>394.8</ele>
        <time>2023-11-26T08:09:23Z</time>
      </trkpt>
      <trkpt lat="43.63624" lon="6.64538">
        <ele>394.8</ele>
        <time>2023-11-26T08:09:24Z</time>
      </trkpt>
      <trkpt lat="43.63624" lon="6.64538">
        <ele>394.9</ele>
        <time>2023-11-26T08:09:25Z</time>
      </trkpt>
      <trkpt lat="43.63624" lon="6.64538">
        <ele>394.8</ele>
        <time>2023-11-26T08:09:26Z</time>
      </trkpt>
      <trkpt lat="43.63624" lon="6.64538">
        <ele>394.7</ele>
        <time>2023-11-26T08:09:27Z</time>
      </trkpt>
      <trkpt lat="43.63624" lon="6.64538">
        <ele>394.7</ele>
        <time>2023-11-26T08:09:28Z</time>
      </trkpt>
      <trkpt lat="43.63624" lon="6.64538">
        <ele>394.6</ele>
        <time>2023-11-26T08:09:29Z</time>
      </trkpt>
      <trkpt lat="43.63624" lon="6.64538">
        <ele>394.6</ele>
        <time>2023-11-26T08:09:30Z</time>
      </trkpt>
      <trkpt lat="43.63624" lon="6.64538">
        <ele>394.6</ele>
        <time>2023-11-26T08:09:31Z</time>
      </trkpt>
      <trkpt lat="43.63623" lon="6.64539">
        <ele>394.6</ele>
        <time>2023-11-26T08:09:32Z</time>
      </trkpt>
      <trkpt lat="43.63623" lon="6.64539">
        <ele>394.6</ele>
        <time>2023-11-26T08:09:33Z</time>
      </trkpt>
      <trkpt lat="43.63623" lon="6.64539">
        <ele>394.7</ele>
        <time>2023-11-26T08:09:34Z</time>
      </trkpt>
      <trkpt lat="43.63623" lon="6.64539">
        <ele>394.7</ele>
        <time>2023-11-26T08:09:35Z</time>
      </trkpt>
      <trkpt lat="43.63623" lon="6.64539">
        <ele>394.8</ele>
        <time>2023-11-26T08:09:36Z</time>
      </trkpt>
      <trkpt lat="43.63624" lon="6.64539">
        <ele>394.8</ele>
        <time>2023-11-26T08:09:37Z</time>
      </trkpt>
      <trkpt lat="43.63624" lon="6.6454">
        <ele>394.7</ele>
        <time>2023-11-26T08:09:38Z</time>
      </trkpt>
      <trkpt lat="43.63624" lon="6.6454">
        <ele>394.8</ele>
        <time>2023-11-26T08:09:39Z</time>
      </trkpt>
      <trkpt lat="43.63624" lon="6.6454">
        <ele>394.8</ele>
        <time>2023-11-26T08:09:40Z</time>
      </trkpt>
      <trkpt lat="43.63624" lon="6.6454">
        <ele>394.8</ele>
        <time>2023-11-26T08:09:41Z</time>
      </trkpt>
      <trkpt lat="43.63624" lon="6.64541">
        <ele>394.8</ele>
        <time>2023-11-26T08:09:42Z</time>
      </trkpt>
      <trkpt lat="43.63624" lon="6.64541">
        <ele>394.8</ele>
        <time>2023-11-26T08:09:43Z</time>
      </trkpt>
      <trkpt lat="43.63624" lon="6.64541">
        <ele>394.9</ele>
        <time>2023-11-26T08:09:44Z</time>
      </trkpt>
      <trkpt lat="43.63624" lon="6.64541">
        <ele>395</ele>
        <time>2023-11-26T08:09:45Z</time>
      </trkpt>
      <trkpt lat="43.63624" lon="6.64541">
        <ele>395</ele>
        <time>2023-11-26T08:09:46Z</time>
      </trkpt>
      <trkpt lat="43.63624" lon="6.64541">
        <ele>395</ele>
        <time>2023-11-26T08:09:47Z</time>
      </trkpt>
      <trkpt lat="43.63624" lon="6.64542">
        <ele>395</ele>
        <time>2023-11-26T08:09:48Z</time>
      </trkpt>
      <trkpt lat="43.63624" lon="6.64542">
        <ele>395.1</ele>
        <time>2023-11-26T08:09:49Z</time>
      </trkpt>
      <trkpt lat="43.63624" lon="6.64542">
        <ele>395.1</ele>
        <time>2023-11-26T08:09:50Z</time>
      </trkpt>
      <trkpt lat="43.63624" lon="6.64542">
        <ele>395.1</ele>
        <time>2023-11-26T08:09:51Z</time>
      </trkpt>
      <trkpt lat="43.63625" lon="6.64542">
        <ele>395.2</ele>
        <time>2023-11-26T08:09:52Z</time>
      </trkpt>
      <trkpt lat="43.63625" lon="6.64541">
        <ele>395.1</ele>
        <time>2023-11-26T08:09:53Z</time>
      </trkpt>
      <trkpt lat="43.63625" lon="6.64542">
        <ele>395.2</ele>
        <time>2023-11-26T08:09:54Z</time>
      </trkpt>
      <trkpt lat="43.63626" lon="6.64542">
        <ele>395.2</ele>
        <time>2023-11-26T08:09:55Z</time>
      </trkpt>
      <trkpt lat="43.63626" lon="6.64542">
        <ele>395.1</ele>
        <time>2023-11-26T08:09:56Z</time>
      </trkpt>
      <trkpt lat="43.63626" lon="6.64542">
        <ele>395</ele>
        <time>2023-11-26T08:09:57Z</time>
      </trkpt>
      <trkpt lat="43.63626" lon="6.64542">
        <ele>395</ele>
        <time>2023-11-26T08:09:58Z</time>
      </trkpt>
      <trkpt lat="43.63626" lon="6.64542">
        <ele>395</ele>
        <time>2023-11-26T08:09:59Z</time>
      </trkpt>
      <trkpt lat="43.63626" lon="6.64543">
        <ele>395</ele>
        <time>2023-11-26T08:10:00Z</time>
      </trkpt>
      <trkpt lat="43.63626" lon="6.64543">
        <ele>395</ele>
        <time>2023-11-26T08:10:01Z</time>
      </trkpt>
      <trkpt lat="43.63626" lon="6.64543">
        <ele>395.1</ele>
        <time>2023-11-26T08:10:02Z</time>
      </trkpt>
      <trkpt lat="43.63626" lon="6.64543">
        <ele>395.1</ele>
        <time>2023-11-26T08:10:03Z</time>
      </trkpt>
      <trkpt lat="43.63626" lon="6.64543">
        <ele>395.1</ele>
        <time>2023-11-26T08:10:04Z</time>
      </trkpt>
      <trkpt lat="43.63626" lon="6.64543">
        <ele>395.1</ele>
        <time>2023-11-26T08:10:05Z</time>
      </trkpt>
      <trkpt lat="43.63626" lon="6.64543">
        <ele>395.1</ele>
        <time>2023-11-26T08:10:06Z</time>
      </trkpt>
      <trkpt lat="43.63626" lon="6.64543">
        <ele>395.1</ele>
        <time>2023-11-26T08:10:07Z</time>
      </trkpt>
      <trkpt lat="43.63626" lon="6.64543">
        <ele>395.1</ele>
        <time>2023-11-26T08:10:08Z</time>
      </trkpt>
      <trkpt lat="43.63626" lon="6.64543">
        <ele>395.2</ele>
        <time>2023-11-26T08:10:09Z</time>
      </trkpt>
      <trkpt lat="43.63626" lon="6.64543">
        <ele>395.2</ele>
        <time>2023-11-26T08:10:10Z</time>
      </trkpt>
      <trkpt lat="43.63626" lon="6.64544">
        <ele>395.2</ele>
        <time>2023-11-26T08:10:11Z</time>
      </trkpt>
      <trkpt lat="43.63626" lon="6.64544">
        <ele>395.2</ele>
        <time>2023-11-26T08:10:12Z</time>
      </trkpt>
      <trkpt lat="43.63626" lon="6.64544">
        <ele>395.1</ele>
        <time>2023-11-26T08:10:13Z</time>
      </trkpt>
      <trkpt lat="43.63626" lon="6.64544">
        <ele>395</ele>
        <time>2023-11-26T08:10:14Z</time>
      </trkpt>
      <trkpt lat="43.63625" lon="6.64544">
        <ele>395</ele>
        <time>2023-11-26T08:10:15Z</time>
      </trkpt>
      <trkpt lat="43.63625" lon="6.64545">
        <ele>395</ele>
        <time>2023-11-26T08:10:16Z</time>
      </trkpt>
      <trkpt lat="43.63625" lon="6.64545">
        <ele>395</ele>
        <time>2023-11-26T08:10:17Z</time>
      </trkpt>
      <trkpt lat="43.63625" lon="6.64546">
        <ele>395</ele>
        <time>2023-11-26T08:10:18Z</time>
      </trkpt>
      <trkpt lat="43.63625" lon="6.64546">
        <ele>395</ele>
        <time>2023-11-26T08:10:19Z</time>
      </trkpt>
      <trkpt lat="43.63625" lon="6.64546">
        <ele>395.1</ele>
        <time>2023-11-26T08:10:20Z</time>
      </trkpt>
      <trkpt lat="43.63625" lon="6.64546">
        <ele>395.1</ele>
        <time>2023-11-26T08:10:21Z</time>
      </trkpt>
      <trkpt lat="43.63624" lon="6.64547">
        <ele>395.1</ele>
        <time>2023-11-26T08:10:22Z</time>
      </trkpt>
      <trkpt lat="43.63624" lon="6.64548">
        <ele>395.1</ele>
        <time>2023-11-26T08:10:23Z</time>
      </trkpt>
      <trkpt lat="43.63624" lon="6.64548">
        <ele>395.2</ele>
        <time>2023-11-26T08:10:24Z</time>
      </trkpt>
      <trkpt lat="43.63624" lon="6.64548">
        <ele>395.3</ele>
        <time>2023-11-26T08:10:25Z</time>
      </trkpt>
      <trkpt lat="43.63624" lon="6.64548">
        <ele>395.4</ele>
        <time>2023-11-26T08:10:26Z</time>
      </trkpt>
      <trkpt lat="43.63624" lon="6.64548">
        <ele>395.4</ele>
        <time>2023-11-26T08:10:27Z</time>
      </trkpt>
      <trkpt lat="43.63624" lon="6.64548">
        <ele>395.4</ele>
        <time>2023-11-26T08:10:28Z</time>
      </trkpt>
      <trkpt lat="43.63624" lon="6.64549">
        <ele>395.4</ele>
        <time>2023-11-26T08:10:29Z</time>
      </trkpt>
      <trkpt lat="43.63624" lon="6.64549">
        <ele>395.4</ele>
        <time>2023-11-26T08:10:30Z</time>
      </trkpt>
      <trkpt lat="43.63623" lon="6.64549">
        <ele>395.3</ele>
        <time>2023-11-26T08:10:31Z</time>
      </trkpt>
      <trkpt lat="43.63623" lon="6.64549">
        <ele>395.3</ele>
        <time>2023-11-26T08:10:32Z</time>
      </trkpt>
      <trkpt lat="43.63623" lon="6.64549">
        <ele>395.3</ele>
        <time>2023-11-26T08:10:33Z</time>
      </trkpt>
      <trkpt lat="43.63623" lon="6.6455">
        <ele>395.2</ele>
        <time>2023-11-26T08:10:34Z</time>
      </trkpt>
      <trkpt lat="43.63623" lon="6.6455">
        <ele>395.2</ele>
        <time>2023-11-26T08:10:35Z</time>
      </trkpt>
      <trkpt lat="43.63623" lon="6.64549">
        <ele>395.2</ele>
        <time>2023-11-26T08:10:36Z</time>
      </trkpt>
      <trkpt lat="43.63623" lon="6.64549">
        <ele>395.2</ele>
        <time>2023-11-26T08:10:37Z</time>
      </trkpt>
      <trkpt lat="43.63623" lon="6.64549">
        <ele>395.2</ele>
        <time>2023-11-26T08:10:38Z</time>
      </trkpt>
      <trkpt lat="43.63623" lon="6.64549">
        <ele>395.1</ele>
        <time>2023-11-26T08:10:39Z</time>
      </trkpt>
      <trkpt lat="43.63623" lon="6.64549">
        <ele>395.2</ele>
        <time>2023-11-26T08:10:40Z</time>
      </trkpt>
      <trkpt lat="43.63623" lon="6.64549">
        <ele>395.3</ele>
        <time>2023-11-26T08:10:41Z</time>
      </trkpt>
      <trkpt lat="43.63623" lon="6.64549">
        <ele>395.3</ele>
        <time>2023-11-26T08:10:42Z</time>
      </trkpt>
      <trkpt lat="43.63623" lon="6.64549">
        <ele>395.3</ele>
        <time>2023-11-26T08:10:43Z</time>
      </trkpt>
      <trkpt lat="43.63623" lon="6.64549">
        <ele>395.3</ele>
        <time>2023-11-26T08:10:44Z</time>
      </trkpt>
      <trkpt lat="43.63623" lon="6.64549">
        <ele>395.3</ele>
        <time>2023-11-26T08:10:45Z</time>
      </trkpt>
      <trkpt lat="43.63623" lon="6.64549">
        <ele>395.2</ele>
        <time>2023-11-26T08:10:46Z</time>
      </trkpt>
      <trkpt lat="43.63623" lon="6.64549">
        <ele>395.2</ele>
        <time>2023-11-26T08:10:47Z</time>
      </trkpt>
      <trkpt lat="43.63623" lon="6.64549">
        <ele>395.2</ele>
        <time>2023-11-26T08:10:48Z</time>
      </trkpt>
      <trkpt lat="43.63623" lon="6.64549">
        <ele>395.3</ele>
        <time>2023-11-26T08:10:49Z</time>
      </trkpt>
      <trkpt lat="43.63623" lon="6.64549">
        <ele>395.3</ele>
        <time>2023-11-26T08:10:50Z</time>
      </trkpt>
      <trkpt lat="43.63623" lon="6.64549">
        <ele>395.3</ele>
        <time>2023-11-26T08:10:51Z</time>
      </trkpt>
      <trkpt lat="43.63623" lon="6.64549">
        <ele>395.3</ele>
        <time>2023-11-26T08:10:52Z</time>
      </trkpt>
      <trkpt lat="43.63623" lon="6.64549">
        <ele>395.3</ele>
        <time>2023-11-26T08:10:53Z</time>
      </trkpt>
      <trkpt lat="43.63623" lon="6.64549">
        <ele>395.3</ele>
        <time>2023-11-26T08:10:54Z</time>
      </trkpt>
      <trkpt lat="43.63623" lon="6.64549">
        <ele>395.4</ele>
        <time>2023-11-26T08:10:55Z</time>
      </trkpt>
      <trkpt lat="43.63623" lon="6.6455">
        <ele>395.4</ele>
        <time>2023-11-26T08:10:56Z</time>
      </trkpt>
      <trkpt lat="43.63623" lon="6.6455">
        <ele>395.4</ele>
        <time>2023-11-26T08:10:57Z</time>
      </trkpt>
      <trkpt lat="43.63623" lon="6.6455">
        <ele>395.4</ele>
        <time>2023-11-26T08:10:58Z</time>
      </trkpt>
      <trkpt lat="43.63623" lon="6.6455">
        <ele>395.4</ele>
        <time>2023-11-26T08:10:59Z</time>
      </trkpt>
      <trkpt lat="43.63623" lon="6.6455">
        <ele>395.4</ele>
        <time>2023-11-26T08:11:00Z</time>
      </trkpt>
      <trkpt lat="43.63623" lon="6.6455">
        <ele>395.4</ele>
        <time>2023-11-26T08:11:01Z</time>
      </trkpt>
      <trkpt lat="43.63623" lon="6.6455">
        <ele>395.4</ele>
        <time>2023-11-26T08:11:02Z</time>
      </trkpt>
      <trkpt lat="43.63623" lon="6.6455">
        <ele>395.4</ele>
        <time>2023-11-26T08:11:03Z</time>
      </trkpt>
      <trkpt lat="43.63623" lon="6.6455">
        <ele>395.4</ele>
        <time>2023-11-26T08:11:04Z</time>
      </trkpt>
      <trkpt lat="43.63622" lon="6.64549">
        <ele>395.4</ele>
        <time>2023-11-26T08:11:05Z</time>
      </trkpt>
      <trkpt lat="43.63622" lon="6.64549">
        <ele>395.3</ele>
        <time>2023-11-26T08:11:06Z</time>
      </trkpt>
      <trkpt lat="43.63622" lon="6.64549">
        <ele>395.3</ele>
        <time>2023-11-26T08:11:07Z</time>
      </trkpt>
      <trkpt lat="43.63622" lon="6.64549">
        <ele>395.2</ele>
        <time>2023-11-26T08:11:08Z</time>
      </trkpt>
      <trkpt lat="43.63622" lon="6.64548">
        <ele>395.2</ele>
        <time>2023-11-26T08:11:09Z</time>
      </trkpt>
      <trkpt lat="43.63622" lon="6.64548">
        <ele>395.2</ele>
        <time>2023-11-26T08:11:10Z</time>
      </trkpt>
      <trkpt lat="43.63622" lon="6.64548">
        <ele>395.3</ele>
        <time>2023-11-26T08:11:11Z</time>
      </trkpt>
      <trkpt lat="43.63623" lon="6.64548">
        <ele>395.3</ele>
        <time>2023-11-26T08:11:12Z</time>
      </trkpt>
      <trkpt lat="43.63623" lon="6.64548">
        <ele>395.3</ele>
        <time>2023-11-26T08:11:13Z</time>
      </trkpt>
      <trkpt lat="43.63622" lon="6.64548">
        <ele>395.4</ele>
        <time>2023-11-26T08:11:14Z</time>
      </trkpt>
      <trkpt lat="43.63622" lon="6.64549">
        <ele>395.4</ele>
        <time>2023-11-26T08:11:15Z</time>
      </trkpt>
      <trkpt lat="43.63622" lon="6.64548">
        <ele>395.5</ele>
        <time>2023-11-26T08:11:16Z</time>
      </trkpt>
      <trkpt lat="43.63622" lon="6.64548">
        <ele>395.5</ele>
        <time>2023-11-26T08:11:17Z</time>
      </trkpt>
      <trkpt lat="43.63622" lon="6.64548">
        <ele>395.5</ele>
        <time>2023-11-26T08:11:18Z</time>
      </trkpt>
      <trkpt lat="43.63622" lon="6.64548">
        <ele>395.5</ele>
        <time>2023-11-26T08:11:19Z</time>
      </trkpt>
      <trkpt lat="43.63621" lon="6.64548">
        <ele>395.5</ele>
        <time>2023-11-26T08:11:20Z</time>
      </trkpt>
      <trkpt lat="43.63621" lon="6.64547">
        <ele>395.5</ele>
        <time>2023-11-26T08:11:21Z</time>
      </trkpt>
      <trkpt lat="43.63621" lon="6.64548">
        <ele>395.4</ele>
        <time>2023-11-26T08:11:22Z</time>
      </trkpt>
      <trkpt lat="43.63621" lon="6.64548">
        <ele>395.4</ele>
        <time>2023-11-26T08:11:23Z</time>
      </trkpt>
      <trkpt lat="43.63621" lon="6.64548">
        <ele>395.4</ele>
        <time>2023-11-26T08:11:24Z</time>
      </trkpt>
      <trkpt lat="43.63621" lon="6.64548">
        <ele>395.3</ele>
        <time>2023-11-26T08:11:25Z</time>
      </trkpt>
      <trkpt lat="43.63621" lon="6.64548">
        <ele>395.3</ele>
        <time>2023-11-26T08:11:26Z</time>
      </trkpt>
      <trkpt lat="43.63621" lon="6.64548">
        <ele>395.3</ele>
        <time>2023-11-26T08:11:27Z</time>
      </trkpt>
      <trkpt lat="43.63621" lon="6.64548">
        <ele>395.2</ele>
        <time>2023-11-26T08:11:28Z</time>
      </trkpt>
      <trkpt lat="43.63621" lon="6.64548">
        <ele>395.2</ele>
        <time>2023-11-26T08:11:29Z</time>
      </trkpt>
      <trkpt lat="43.6362" lon="6.64548">
        <ele>395.1</ele>
        <time>2023-11-26T08:11:30Z</time>
      </trkpt>
      <trkpt lat="43.6362" lon="6.64547">
        <ele>395.2</ele>
        <time>2023-11-26T08:11:31Z</time>
      </trkpt>
      <trkpt lat="43.6362" lon="6.64547">
        <ele>395.1</ele>
        <time>2023-11-26T08:11:32Z</time>
      </trkpt>
      <trkpt lat="43.6362" lon="6.64548">
        <ele>395</ele>
        <time>2023-11-26T08:11:33Z</time>
      </trkpt>
      <trkpt lat="43.6362" lon="6.64547">
        <ele>395</ele>
        <time>2023-11-26T08:11:34Z</time>
      </trkpt>
      <trkpt lat="43.63619" lon="6.64547">
        <ele>394.9</ele>
        <time>2023-11-26T08:11:35Z</time>
      </trkpt>
      <trkpt lat="43.6362" lon="6.64547">
        <ele>395</ele>
        <time>2023-11-26T08:11:36Z</time>
      </trkpt>
      <trkpt lat="43.6362" lon="6.64547">
        <ele>395</ele>
        <time>2023-11-26T08:11:37Z</time>
      </trkpt>
      <trkpt lat="43.6362" lon="6.64547">
        <ele>395.1</ele>
        <time>2023-11-26T08:11:38Z</time>
      </trkpt>
      <trkpt lat="43.63621" lon="6.64547">
        <ele>395.2</ele>
        <time>2023-11-26T08:11:39Z</time>
      </trkpt>
      <trkpt lat="43.63621" lon="6.64547">
        <ele>395.2</ele>
        <time>2023-11-26T08:11:40Z</time>
      </trkpt>
      <trkpt lat="43.63621" lon="6.64548">
        <ele>395.2</ele>
        <time>2023-11-26T08:11:41Z</time>
      </trkpt>
      <trkpt lat="43.63621" lon="6.64547">
        <ele>395.1</ele>
        <time>2023-11-26T08:11:42Z</time>
      </trkpt>
      <trkpt lat="43.63621" lon="6.64546">
        <ele>395.1</ele>
        <time>2023-11-26T08:11:43Z</time>
      </trkpt>
      <trkpt lat="43.6362" lon="6.64546">
        <ele>395</ele>
        <time>2023-11-26T08:11:44Z</time>
      </trkpt>
      <trkpt lat="43.6362" lon="6.64546">
        <ele>395</ele>
        <time>2023-11-26T08:11:45Z</time>
      </trkpt>
      <trkpt lat="43.6362" lon="6.64546">
        <ele>395</ele>
        <time>2023-11-26T08:11:46Z</time>
      </trkpt>
      <trkpt lat="43.6362" lon="6.64546">
        <ele>395</ele>
        <time>2023-11-26T08:11:47Z</time>
      </trkpt>
      <trkpt lat="43.6362" lon="6.64546">
        <ele>395</ele>
        <time>2023-11-26T08:11:48Z</time>
      </trkpt>
      <trkpt lat="43.6362" lon="6.64546">
        <ele>395</ele>
        <time>2023-11-26T08:11:49Z</time>
      </trkpt>
      <trkpt lat="43.6362" lon="6.64546">
        <ele>395</ele>
        <time>2023-11-26T08:11:50Z</time>
      </trkpt>
      <trkpt lat="43.63621" lon="6.64546">
        <ele>394.9</ele>
        <time>2023-11-26T08:11:51Z</time>
      </trkpt>
      <trkpt lat="43.63621" lon="6.64547">
        <ele>394.9</ele>
        <time>2023-11-26T08:11:52Z</time>
      </trkpt>
      <trkpt lat="43.63621" lon="6.64547">
        <ele>394.9</ele>
        <time>2023-11-26T08:11:53Z</time>
      </trkpt>
      <trkpt lat="43.63623" lon="6.64546">
        <ele>395</ele>
        <time>2023-11-26T08:11:54Z</time>
      </trkpt>
      <trkpt lat="43.63624" lon="6.64547">
        <ele>395.1</ele>
        <time>2023-11-26T08:11:55Z</time>
      </trkpt>
      <trkpt lat="43.63624" lon="6.64548">
        <ele>395</ele>
        <time>2023-11-26T08:11:56Z</time>
      </trkpt>
      <trkpt lat="43.63625" lon="6.64548">
        <ele>395</ele>
        <time>2023-11-26T08:11:57Z</time>
      </trkpt>
      <trkpt lat="43.63625" lon="6.64549">
        <ele>395.1</ele>
        <time>2023-11-26T08:11:58Z</time>
      </trkpt>
      <trkpt lat="43.63625" lon="6.6455">
        <ele>395.2</ele>
        <time>2023-11-26T08:11:59Z</time>
      </trkpt>
      <trkpt lat="43.63626" lon="6.6455">
        <ele>395.2</ele>
        <time>2023-11-26T08:12:00Z</time>
      </trkpt>
      <trkpt lat="43.63626" lon="6.64551">
        <ele>395.2</ele>
        <time>2023-11-26T08:12:01Z</time>
      </trkpt>
      <trkpt lat="43.63627" lon="6.64551">
        <ele>395.2</ele>
        <time>2023-11-26T08:12:02Z</time>
      </trkpt>
      <trkpt lat="43.63628" lon="6.64552">
        <ele>395.2</ele>
        <time>2023-11-26T08:12:03Z</time>
      </trkpt>
      <trkpt lat="43.63628" lon="6.64553">
        <ele>395.3</ele>
        <time>2023-11-26T08:12:04Z</time>
      </trkpt>
      <trkpt lat="43.63629" lon="6.64553">
        <ele>395.3</ele>
        <time>2023-11-26T08:12:05Z</time>
      </trkpt>
      <trkpt lat="43.6363" lon="6.64554">
        <ele>395.4</ele>
        <time>2023-11-26T08:12:06Z</time>
      </trkpt>
      <trkpt lat="43.6363" lon="6.64555">
        <ele>395.4</ele>
        <time>2023-11-26T08:12:07Z</time>
      </trkpt>
      <trkpt lat="43.63631" lon="6.64555">
        <ele>395.5</ele>
        <time>2023-11-26T08:12:08Z</time>
      </trkpt>
      <trkpt lat="43.63632" lon="6.64556">
        <ele>395.6</ele>
        <time>2023-11-26T08:12:09Z</time>
      </trkpt>
      <trkpt lat="43.63633" lon="6.64557">
        <ele>395.6</ele>
        <time>2023-11-26T08:12:10Z</time>
      </trkpt>
      <trkpt lat="43.63634" lon="6.64557">
        <ele>395.6</ele>
        <time>2023-11-26T08:12:11Z</time>
      </trkpt>
      <trkpt lat="43.63634" lon="6.64558">
        <ele>395.7</ele>
        <time>2023-11-26T08:12:12Z</time>
      </trkpt>
      <trkpt lat="43.63635" lon="6.64559">
        <ele>395.8</ele>
        <time>2023-11-26T08:12:13Z</time>
      </trkpt>
      <trkpt lat="43.63636" lon="6.64559">
        <ele>395.9</ele>
        <time>2023-11-26T08:12:14Z</time>
      </trkpt>
      <trkpt lat="43.63637" lon="6.64559">
        <ele>396</ele>
        <time>2023-11-26T08:12:15Z</time>
      </trkpt>
      <trkpt lat="43.63638" lon="6.64558">
        <ele>396</ele>
        <time>2023-11-26T08:12:16Z</time>
      </trkpt>
      <trkpt lat="43.63639" lon="6.64557">
        <ele>396</ele>
        <time>2023-11-26T08:12:17Z</time>
      </trkpt>
      <trkpt lat="43.6364" lon="6.64556">
        <ele>396.1</ele>
        <time>2023-11-26T08:12:18Z</time>
      </trkpt>
      <trkpt lat="43.63641" lon="6.64555">
        <ele>396.2</ele>
        <time>2023-11-26T08:12:19Z</time>
      </trkpt>
      <trkpt lat="43.63641" lon="6.64554">
        <ele>396.2</ele>
        <time>2023-11-26T08:12:20Z</time>
      </trkpt>
      <trkpt lat="43.63641" lon="6.64553">
        <ele>396.2</ele>
        <time>2023-11-26T08:12:21Z</time>
      </trkpt>
      <trkpt lat="43.63641" lon="6.64552">
        <ele>396.3</ele>
        <time>2023-11-26T08:12:22Z</time>
      </trkpt>
      <trkpt lat="43.63641" lon="6.64552">
        <ele>396.4</ele>
        <time>2023-11-26T08:12:23Z</time>
      </trkpt>
      <trkpt lat="43.63642" lon="6.64551">
        <ele>396.5</ele>
        <time>2023-11-26T08:12:24Z</time>
      </trkpt>
      <trkpt lat="43.63642" lon="6.64551">
        <ele>396.6</ele>
        <time>2023-11-26T08:12:25Z</time>
      </trkpt>
      <trkpt lat="43.63643" lon="6.64551">
        <ele>396.6</ele>
        <time>2023-11-26T08:12:26Z</time>
      </trkpt>
      <trkpt lat="43.63643" lon="6.6455">
        <ele>396.8</ele>
        <time>2023-11-26T08:12:27Z</time>
      </trkpt>
      <trkpt lat="43.63644" lon="6.64549">
        <ele>396.9</ele>
        <time>2023-11-26T08:12:28Z</time>
      </trkpt>
      <trkpt lat="43.63645" lon="6.64548">
        <ele>397</ele>
        <time>2023-11-26T08:12:29Z</time>
      </trkpt>
      <trkpt lat="43.63645" lon="6.64548">
        <ele>397</ele>
        <time>2023-11-26T08:12:30Z</time>
      </trkpt>
      <trkpt lat="43.63646" lon="6.64548">
        <ele>397</ele>
        <time>2023-11-26T08:12:31Z</time>
      </trkpt>
      <trkpt lat="43.63646" lon="6.64547">
        <ele>397</ele>
        <time>2023-11-26T08:12:32Z</time>
      </trkpt>
      <trkpt lat="43.63646" lon="6.64547">
        <ele>397</ele>
        <time>2023-11-26T08:12:33Z</time>
      </trkpt>
      <trkpt lat="43.63647" lon="6.64547">
        <ele>397</ele>
        <time>2023-11-26T08:12:34Z</time>
      </trkpt>
      <trkpt lat="43.63647" lon="6.64547">
        <ele>397</ele>
        <time>2023-11-26T08:12:35Z</time>
      </trkpt>
      <trkpt lat="43.63648" lon="6.64547">
        <ele>396.9</ele>
        <time>2023-11-26T08:12:36Z</time>
      </trkpt>
      <trkpt lat="43.63648" lon="6.64547">
        <ele>396.8</ele>
        <time>2023-11-26T08:12:37Z</time>
      </trkpt>
      <trkpt lat="43.63649" lon="6.64546">
        <ele>397</ele>
        <time>2023-11-26T08:12:38Z</time>
      </trkpt>
      <trkpt lat="43.6365" lon="6.64546">
        <ele>397.1</ele>
        <time>2023-11-26T08:12:39Z</time>
      </trkpt>
      <trkpt lat="43.63651" lon="6.64545">
        <ele>397.1</ele>
        <time>2023-11-26T08:12:40Z</time>
      </trkpt>
      <trkpt lat="43.63652" lon="6.64545">
        <ele>397.2</ele>
        <time>2023-11-26T08:12:41Z</time>
      </trkpt>
      <trkpt lat="43.63653" lon="6.64544">
        <ele>397.2</ele>
        <time>2023-11-26T08:12:42Z</time>
      </trkpt>
      <trkpt lat="43.63653" lon="6.64543">
        <ele>397.3</ele>
        <time>2023-11-26T08:12:43Z</time>
      </trkpt>
      <trkpt lat="43.63655" lon="6.64542">
        <ele>397.4</ele>
        <time>2023-11-26T08:12:44Z</time>
      </trkpt>
      <trkpt lat="43.63656" lon="6.64541">
        <ele>397.4</ele>
        <time>2023-11-26T08:12:45Z</time>
      </trkpt>
      <trkpt lat="43.63656" lon="6.64541">
        <ele>397.6</ele>
        <time>2023-11-26T08:12:46Z</time>
      </trkpt>
      <trkpt lat="43.63657" lon="6.64539">
        <ele>397.7</ele>
        <time>2023-11-26T08:12:47Z</time>
      </trkpt>
      <trkpt lat="43.63657" lon="6.64538">
        <ele>397.8</ele>
        <time>2023-11-26T08:12:48Z</time>
      </trkpt>
      <trkpt lat="43.63658" lon="6.64537">
        <ele>397.9</ele>
        <time>2023-11-26T08:12:49Z</time>
      </trkpt>
      <trkpt lat="43.63658" lon="6.64536">
        <ele>398</ele>
        <time>2023-11-26T08:12:50Z</time>
      </trkpt>
      <trkpt lat="43.63659" lon="6.64535">
        <ele>398</ele>
        <time>2023-11-26T08:12:51Z</time>
      </trkpt>
      <trkpt lat="43.63659" lon="6.64534">
        <ele>398.2</ele>
        <time>2023-11-26T08:12:52Z</time>
      </trkpt>
      <trkpt lat="43.6366" lon="6.64533">
        <ele>398.3</ele>
        <time>2023-11-26T08:12:53Z</time>
      </trkpt>
      <trkpt lat="43.63661" lon="6.64532">
        <ele>398.5</ele>
        <time>2023-11-26T08:12:54Z</time>
      </trkpt>
      <trkpt lat="43.63661" lon="6.64531">
        <ele>398.6</ele>
        <time>2023-11-26T08:12:55Z</time>
      </trkpt>
      <trkpt lat="43.63662" lon="6.6453">
        <ele>398.7</ele>
        <time>2023-11-26T08:12:56Z</time>
      </trkpt>
      <trkpt lat="43.63662" lon="6.64529">
        <ele>398.8</ele>
        <time>2023-11-26T08:12:57Z</time>
      </trkpt>
      <trkpt lat="43.63662" lon="6.64528">
        <ele>398.9</ele>
        <time>2023-11-26T08:12:58Z</time>
      </trkpt>
      <trkpt lat="43.63663" lon="6.64526">
        <ele>399</ele>
        <time>2023-11-26T08:12:59Z</time>
      </trkpt>
      <trkpt lat="43.63663" lon="6.64525">
        <ele>399.1</ele>
        <time>2023-11-26T08:13:00Z</time>
      </trkpt>
      <trkpt lat="43.63664" lon="6.64525">
        <ele>399.3</ele>
        <time>2023-11-26T08:13:01Z</time>
      </trkpt>
      <trkpt lat="43.63665" lon="6.64524">
        <ele>399.3</ele>
        <time>2023-11-26T08:13:02Z</time>
      </trkpt>
      <trkpt lat="43.63665" lon="6.64523">
        <ele>399.4</ele>
        <time>2023-11-26T08:13:03Z</time>
      </trkpt>
      <trkpt lat="43.63665" lon="6.64521">
        <ele>399.5</ele>
        <time>2023-11-26T08:13:04Z</time>
      </trkpt>
      <trkpt lat="43.63666" lon="6.6452">
        <ele>399.6</ele>
        <time>2023-11-26T08:13:05Z</time>
      </trkpt>
      <trkpt lat="43.63666" lon="6.64519">
        <ele>399.8</ele>
        <time>2023-11-26T08:13:06Z</time>
      </trkpt>
      <trkpt lat="43.63666" lon="6.64518">
        <ele>399.9</ele>
        <time>2023-11-26T08:13:07Z</time>
      </trkpt>
      <trkpt lat="43.63667" lon="6.64517">
        <ele>400</ele>
        <time>2023-11-26T08:13:08Z</time>
      </trkpt>
      <trkpt lat="43.63668" lon="6.64516">
        <ele>400.1</ele>
        <time>2023-11-26T08:13:09Z</time>
      </trkpt>
      <trkpt lat="43.63669" lon="6.64514">
        <ele>400.3</ele>
        <time>2023-11-26T08:13:10Z</time>
      </trkpt>
      <trkpt lat="43.63669" lon="6.64513">
        <ele>400.4</ele>
        <time>2023-11-26T08:13:11Z</time>
      </trkpt>
      <trkpt lat="43.6367" lon="6.64512">
        <ele>400.4</ele>
        <time>2023-11-26T08:13:12Z</time>
      </trkpt>
      <trkpt lat="43.63671" lon="6.64511">
        <ele>400.6</ele>
        <time>2023-11-26T08:13:13Z</time>
      </trkpt>
      <trkpt lat="43.63672" lon="6.64509">
        <ele>400.7</ele>
        <time>2023-11-26T08:13:14Z</time>
      </trkpt>
      <trkpt lat="43.63672" lon="6.64508">
        <ele>400.8</ele>
        <time>2023-11-26T08:13:15Z</time>
      </trkpt>
      <trkpt lat="43.63672" lon="6.64508">
        <ele>400.9</ele>
        <time>2023-11-26T08:13:16Z</time>
      </trkpt>
      <trkpt lat="43.63673" lon="6.64507">
        <ele>401</ele>
        <time>2023-11-26T08:13:17Z</time>
      </trkpt>
      <trkpt lat="43.63674" lon="6.64506">
        <ele>401.2</ele>
        <time>2023-11-26T08:13:18Z</time>
      </trkpt>
      <trkpt lat="43.63674" lon="6.64505">
        <ele>401.4</ele>
        <time>2023-11-26T08:13:19Z</time>
      </trkpt>
      <trkpt lat="43.63674" lon="6.64505">
        <ele>401.5</ele>
        <time>2023-11-26T08:13:20Z</time>
      </trkpt>
      <trkpt lat="43.63675" lon="6.64503">
        <ele>401.5</ele>
        <time>2023-11-26T08:13:21Z</time>
      </trkpt>
      <trkpt lat="43.63675" lon="6.64502">
        <ele>401.6</ele>
        <time>2023-11-26T08:13:22Z</time>
      </trkpt>
      <trkpt lat="43.63675" lon="6.64502">
        <ele>401.7</ele>
        <time>2023-11-26T08:13:23Z</time>
      </trkpt>
      <trkpt lat="43.63676" lon="6.64502">
        <ele>401.7</ele>
        <time>2023-11-26T08:13:24Z</time>
      </trkpt>
      <trkpt lat="43.63676" lon="6.64502">
        <ele>401.8</ele>
        <time>2023-11-26T08:13:25Z</time>
      </trkpt>
      <trkpt lat="43.63676" lon="6.64501">
        <ele>401.9</ele>
        <time>2023-11-26T08:13:26Z</time>
      </trkpt>
      <trkpt lat="43.63677" lon="6.645">
        <ele>402.1</ele>
        <time>2023-11-26T08:13:27Z</time>
      </trkpt>
      <trkpt lat="43.63678" lon="6.64499">
        <ele>402.2</ele>
        <time>2023-11-26T08:13:28Z</time>
      </trkpt>
      <trkpt lat="43.63678" lon="6.64499">
        <ele>402.4</ele>
        <time>2023-11-26T08:13:29Z</time>
      </trkpt>
      <trkpt lat="43.63679" lon="6.64498">
        <ele>402.6</ele>
        <time>2023-11-26T08:13:30Z</time>
      </trkpt>
      <trkpt lat="43.6368" lon="6.64497">
        <ele>402.7</ele>
        <time>2023-11-26T08:13:31Z</time>
      </trkpt>
      <trkpt lat="43.63681" lon="6.64495">
        <ele>402.9</ele>
        <time>2023-11-26T08:13:32Z</time>
      </trkpt>
      <trkpt lat="43.63682" lon="6.64495">
        <ele>403.1</ele>
        <time>2023-11-26T08:13:33Z</time>
      </trkpt>
      <trkpt lat="43.63683" lon="6.64493">
        <ele>403.4</ele>
        <time>2023-11-26T08:13:34Z</time>
      </trkpt>
      <trkpt lat="43.63684" lon="6.64492">
        <ele>403.4</ele>
        <time>2023-11-26T08:13:35Z</time>
      </trkpt>
      <trkpt lat="43.63685" lon="6.6449">
        <ele>403.6</ele>
        <time>2023-11-26T08:13:36Z</time>
      </trkpt>
      <trkpt lat="43.63686" lon="6.64489">
        <ele>403.8</ele>
        <time>2023-11-26T08:13:37Z</time>
      </trkpt>
      <trkpt lat="43.63687" lon="6.64488">
        <ele>404</ele>
        <time>2023-11-26T08:13:38Z</time>
      </trkpt>
      <trkpt lat="43.63688" lon="6.64487">
        <ele>404.1</ele>
        <time>2023-11-26T08:13:39Z</time>
      </trkpt>
      <trkpt lat="43.63689" lon="6.64486">
        <ele>404.3</ele>
        <time>2023-11-26T08:13:40Z</time>
      </trkpt>
      <trkpt lat="43.63689" lon="6.64485">
        <ele>404.4</ele>
        <time>2023-11-26T08:13:41Z</time>
      </trkpt>
      <trkpt lat="43.6369" lon="6.64483">
        <ele>404.6</ele>
        <time>2023-11-26T08:13:42Z</time>
      </trkpt>
      <trkpt lat="43.6369" lon="6.64483">
        <ele>404.7</ele>
        <time>2023-11-26T08:13:43Z</time>
      </trkpt>
      <trkpt lat="43.63691" lon="6.64482">
        <ele>404.9</ele>
        <time>2023-11-26T08:13:44Z</time>
      </trkpt>
      <trkpt lat="43.63691" lon="6.64481">
        <ele>405</ele>
        <time>2023-11-26T08:13:45Z</time>
      </trkpt>
      <trkpt lat="43.63692" lon="6.6448">
        <ele>405.1</ele>
        <time>2023-11-26T08:13:46Z</time>
      </trkpt>
      <trkpt lat="43.63693" lon="6.64479">
        <ele>405.3</ele>
        <time>2023-11-26T08:13:47Z</time>
      </trkpt>
      <trkpt lat="43.63693" lon="6.64478">
        <ele>405.4</ele>
        <time>2023-11-26T08:13:48Z</time>
      </trkpt>
      <trkpt lat="43.63694" lon="6.64478">
        <ele>405.5</ele>
        <time>2023-11-26T08:13:49Z</time>
      </trkpt>
      <trkpt lat="43.63695" lon="6.64477">
        <ele>405.6</ele>
        <time>2023-11-26T08:13:50Z</time>
      </trkpt>
      <trkpt lat="43.63696" lon="6.64476">
        <ele>405.8</ele>
        <time>2023-11-26T08:13:51Z</time>
      </trkpt>
      <trkpt lat="43.63697" lon="6.64474">
        <ele>406</ele>
        <time>2023-11-26T08:13:52Z</time>
      </trkpt>
      <trkpt lat="43.63698" lon="6.64472">
        <ele>406.1</ele>
        <time>2023-11-26T08:13:53Z</time>
      </trkpt>
      <trkpt lat="43.63699" lon="6.6447">
        <ele>406.2</ele>
        <time>2023-11-26T08:13:54Z</time>
      </trkpt>
      <trkpt lat="43.63699" lon="6.64469">
        <ele>406.4</ele>
        <time>2023-11-26T08:13:55Z</time>
      </trkpt>
      <trkpt lat="43.637" lon="6.64467">
        <ele>406.5</ele>
        <time>2023-11-26T08:13:56Z</time>
      </trkpt>
      <trkpt lat="43.63701" lon="6.64465">
        <ele>406.7</ele>
        <time>2023-11-26T08:13:57Z</time>
      </trkpt>
      <trkpt lat="43.63702" lon="6.64463">
        <ele>406.7</ele>
        <time>2023-11-26T08:13:58Z</time>
      </trkpt>
      <trkpt lat="43.63703" lon="6.64462">
        <ele>406.9</ele>
        <time>2023-11-26T08:13:59Z</time>
      </trkpt>
      <trkpt lat="43.63703" lon="6.64462">
        <ele>407</ele>
        <time>2023-11-26T08:14:00Z</time>
      </trkpt>
      <trkpt lat="43.63704" lon="6.6446">
        <ele>407.1</ele>
        <time>2023-11-26T08:14:01Z</time>
      </trkpt>
      <trkpt lat="43.63704" lon="6.64459">
        <ele>407.2</ele>
        <time>2023-11-26T08:14:02Z</time>
      </trkpt>
      <trkpt lat="43.63704" lon="6.64458">
        <ele>407.2</ele>
        <time>2023-11-26T08:14:03Z</time>
      </trkpt>
      <trkpt lat="43.63704" lon="6.64456">
        <ele>407.2</ele>
        <time>2023-11-26T08:14:04Z</time>
      </trkpt>
      <trkpt lat="43.63705" lon="6.64455">
        <ele>407.2</ele>
        <time>2023-11-26T08:14:05Z</time>
      </trkpt>
      <trkpt lat="43.63705" lon="6.64453">
        <ele>407.2</ele>
        <time>2023-11-26T08:14:06Z</time>
      </trkpt>
      <trkpt lat="43.63705" lon="6.64452">
        <ele>407.2</ele>
        <time>2023-11-26T08:14:07Z</time>
      </trkpt>
      <trkpt lat="43.63705" lon="6.6445">
        <ele>407.2</ele>
        <time>2023-11-26T08:14:08Z</time>
      </trkpt>
      <trkpt lat="43.63706" lon="6.64449">
        <ele>407.1</ele>
        <time>2023-11-26T08:14:09Z</time>
      </trkpt>
      <trkpt lat="43.63706" lon="6.64447">
        <ele>407.1</ele>
        <time>2023-11-26T08:14:10Z</time>
      </trkpt>
      <trkpt lat="43.63707" lon="6.64445">
        <ele>407</ele>
        <time>2023-11-26T08:14:11Z</time>
      </trkpt>
      <trkpt lat="43.63707" lon="6.64443">
        <ele>407</ele>
        <time>2023-11-26T08:14:12Z</time>
      </trkpt>
      <trkpt lat="43.63707" lon="6.64441">
        <ele>406.9</ele>
        <time>2023-11-26T08:14:13Z</time>
      </trkpt>
      <trkpt lat="43.63708" lon="6.6444">
        <ele>406.8</ele>
        <time>2023-11-26T08:14:14Z</time>
      </trkpt>
      <trkpt lat="43.63708" lon="6.64438">
        <ele>406.7</ele>
        <time>2023-11-26T08:14:15Z</time>
      </trkpt>
      <trkpt lat="43.63709" lon="6.64437">
        <ele>406.6</ele>
        <time>2023-11-26T08:14:16Z</time>
      </trkpt>
      <trkpt lat="43.63709" lon="6.64435">
        <ele>406.5</ele>
        <time>2023-11-26T08:14:17Z</time>
      </trkpt>
      <trkpt lat="43.63709" lon="6.64434">
        <ele>406.4</ele>
        <time>2023-11-26T08:14:18Z</time>
      </trkpt>
      <trkpt lat="43.63709" lon="6.64432">
        <ele>406.3</ele>
        <time>2023-11-26T08:14:19Z</time>
      </trkpt>
      <trkpt lat="43.6371" lon="6.6443">
        <ele>406.3</ele>
        <time>2023-11-26T08:14:20Z</time>
      </trkpt>
      <trkpt lat="43.6371" lon="6.64429">
        <ele>406.1</ele>
        <time>2023-11-26T08:14:21Z</time>
      </trkpt>
      <trkpt lat="43.63711" lon="6.64427">
        <ele>406</ele>
        <time>2023-11-26T08:14:22Z</time>
      </trkpt>
      <trkpt lat="43.63711" lon="6.64426">
        <ele>405.9</ele>
        <time>2023-11-26T08:14:23Z</time>
      </trkpt>
      <trkpt lat="43.63712" lon="6.64425">
        <ele>405.8</ele>
        <time>2023-11-26T08:14:24Z</time>
      </trkpt>
      <trkpt lat="43.63713" lon="6.64423">
        <ele>405.7</ele>
        <time>2023-11-26T08:14:25Z</time>
      </trkpt>
      <trkpt lat="43.63713" lon="6.64423">
        <ele>405.7</ele>
        <time>2023-11-26T08:14:26Z</time>
      </trkpt>
      <trkpt lat="43.63714" lon="6.64421">
        <ele>405.7</ele>
        <time>2023-11-26T08:14:27Z</time>
      </trkpt>
      <trkpt lat="43.63714" lon="6.64419">
        <ele>405.6</ele>
        <time>2023-11-26T08:14:28Z</time>
      </trkpt>
      <trkpt lat="43.63715" lon="6.64417">
        <ele>405.5</ele>
        <time>2023-11-26T08:14:29Z</time>
      </trkpt>
      <trkpt lat="43.63715" lon="6.64416">
        <ele>405.6</ele>
        <time>2023-11-26T08:14:30Z</time>
      </trkpt>
      <trkpt lat="43.63716" lon="6.64415">
        <ele>405.5</ele>
        <time>2023-11-26T08:14:31Z</time>
      </trkpt>
      <trkpt lat="43.63716" lon="6.64413">
        <ele>405.4</ele>
        <time>2023-11-26T08:14:32Z</time>
      </trkpt>
      <trkpt lat="43.63717" lon="6.64412">
        <ele>405.4</ele>
        <time>2023-11-26T08:14:33Z</time>
      </trkpt>
      <trkpt lat="43.63718" lon="6.64411">
        <ele>405.4</ele>
        <time>2023-11-26T08:14:34Z</time>
      </trkpt>
      <trkpt lat="43.63718" lon="6.64409">
        <ele>405.3</ele>
        <time>2023-11-26T08:14:35Z</time>
      </trkpt>
      <trkpt lat="43.63719" lon="6.64409">
        <ele>405.3</ele>
        <time>2023-11-26T08:14:36Z</time>
      </trkpt>
      <trkpt lat="43.63719" lon="6.64408">
        <ele>405.2</ele>
        <time>2023-11-26T08:14:37Z</time>
      </trkpt>
      <trkpt lat="43.6372" lon="6.64406">
        <ele>405.2</ele>
        <time>2023-11-26T08:14:38Z</time>
      </trkpt>
      <trkpt lat="43.63721" lon="6.64405">
        <ele>405.2</ele>
        <time>2023-11-26T08:14:39Z</time>
      </trkpt>
      <trkpt lat="43.63721" lon="6.64404">
        <ele>405.3</ele>
        <time>2023-11-26T08:14:40Z</time>
      </trkpt>
      <trkpt lat="43.63722" lon="6.64403">
        <ele>405.3</ele>
        <time>2023-11-26T08:14:41Z</time>
      </trkpt>
      <trkpt lat="43.63723" lon="6.64401">
        <ele>405.4</ele>
        <time>2023-11-26T08:14:42Z</time>
      </trkpt>
      <trkpt lat="43.63724" lon="6.64399">
        <ele>405.5</ele>
        <time>2023-11-26T08:14:43Z</time>
      </trkpt>
      <trkpt lat="43.63724" lon="6.64398">
        <ele>405.7</ele>
        <time>2023-11-26T08:14:44Z</time>
      </trkpt>
      <trkpt lat="43.63725" lon="6.64397">
        <ele>405.8</ele>
        <time>2023-11-26T08:14:45Z</time>
      </trkpt>
      <trkpt lat="43.63725" lon="6.64395">
        <ele>405.8</ele>
        <time>2023-11-26T08:14:46Z</time>
      </trkpt>
      <trkpt lat="43.63726" lon="6.64394">
        <ele>405.9</ele>
        <time>2023-11-26T08:14:47Z</time>
      </trkpt>
      <trkpt lat="43.63726" lon="6.64393">
        <ele>406</ele>
        <time>2023-11-26T08:14:48Z</time>
      </trkpt>
      <trkpt lat="43.63727" lon="6.64392">
        <ele>406.1</ele>
        <time>2023-11-26T08:14:49Z</time>
      </trkpt>
      <trkpt lat="43.63728" lon="6.64391">
        <ele>406.1</ele>
        <time>2023-11-26T08:14:50Z</time>
      </trkpt>
      <trkpt lat="43.63728" lon="6.64391">
        <ele>406.2</ele>
        <time>2023-11-26T08:14:51Z</time>
      </trkpt>
      <trkpt lat="43.63729" lon="6.64391">
        <ele>406.4</ele>
        <time>2023-11-26T08:14:52Z</time>
      </trkpt>
      <trkpt lat="43.63729" lon="6.64391">
        <ele>406.5</ele>
        <time>2023-11-26T08:14:53Z</time>
      </trkpt>
      <trkpt lat="43.63729" lon="6.64391">
        <ele>406.7</ele>
        <time>2023-11-26T08:14:54Z</time>
      </trkpt>
      <trkpt lat="43.63729" lon="6.64392">
        <ele>406.8</ele>
        <time>2023-11-26T08:14:55Z</time>
      </trkpt>
      <trkpt lat="43.6373" lon="6.64392">
        <ele>407</ele>
        <time>2023-11-26T08:14:56Z</time>
      </trkpt>
      <trkpt lat="43.63731" lon="6.64392">
        <ele>407.1</ele>
        <time>2023-11-26T08:14:57Z</time>
      </trkpt>
      <trkpt lat="43.63731" lon="6.64393">
        <ele>407.3</ele>
        <time>2023-11-26T08:14:58Z</time>
      </trkpt>
      <trkpt lat="43.63732" lon="6.64394">
        <ele>407.4</ele>
        <time>2023-11-26T08:14:59Z</time>
      </trkpt>
      <trkpt lat="43.63731" lon="6.64396">
        <ele>407.6</ele>
        <time>2023-11-26T08:15:00Z</time>
      </trkpt>
      <trkpt lat="43.63732" lon="6.64397">
        <ele>407.8</ele>
        <time>2023-11-26T08:15:01Z</time>
      </trkpt>
      <trkpt lat="43.63732" lon="6.64397">
        <ele>408</ele>
        <time>2023-11-26T08:15:02Z</time>
      </trkpt>
      <trkpt lat="43.63733" lon="6.64398">
        <ele>408.1</ele>
        <time>2023-11-26T08:15:03Z</time>
      </trkpt>
      <trkpt lat="43.63733" lon="6.64399">
        <ele>408.3</ele>
        <time>2023-11-26T08:15:04Z</time>
      </trkpt>
      <trkpt lat="43.63734" lon="6.64399">
        <ele>408.5</ele>
        <time>2023-11-26T08:15:05Z</time>
      </trkpt>
      <trkpt lat="43.63735" lon="6.64399">
        <ele>408.7</ele>
        <time>2023-11-26T08:15:06Z</time>
      </trkpt>
      <trkpt lat="43.63736" lon="6.64399">
        <ele>408.8</ele>
        <time>2023-11-26T08:15:07Z</time>
      </trkpt>
      <trkpt lat="43.63737" lon="6.64399">
        <ele>408.8</ele>
        <time>2023-11-26T08:15:08Z</time>
      </trkpt>
      <trkpt lat="43.63738" lon="6.64397">
        <ele>408.9</ele>
        <time>2023-11-26T08:15:09Z</time>
      </trkpt>
      <trkpt lat="43.63738" lon="6.64396">
        <ele>408.9</ele>
        <time>2023-11-26T08:15:10Z</time>
      </trkpt>
      <trkpt lat="43.63739" lon="6.64395">
        <ele>409</ele>
        <time>2023-11-26T08:15:11Z</time>
      </trkpt>
      <trkpt lat="43.6374" lon="6.64394">
        <ele>409</ele>
        <time>2023-11-26T08:15:12Z</time>
      </trkpt>
      <trkpt lat="43.63741" lon="6.64392">
        <ele>409</ele>
        <time>2023-11-26T08:15:13Z</time>
      </trkpt>
      <trkpt lat="43.63742" lon="6.64391">
        <ele>409.1</ele>
        <time>2023-11-26T08:15:14Z</time>
      </trkpt>
      <trkpt lat="43.63743" lon="6.6439">
        <ele>409.1</ele>
        <time>2023-11-26T08:15:15Z</time>
      </trkpt>
      <trkpt lat="43.63743" lon="6.64389">
        <ele>409.2</ele>
        <time>2023-11-26T08:15:16Z</time>
      </trkpt>
      <trkpt lat="43.63744" lon="6.64388">
        <ele>409.3</ele>
        <time>2023-11-26T08:15:17Z</time>
      </trkpt>
      <trkpt lat="43.63745" lon="6.64387">
        <ele>409.3</ele>
        <time>2023-11-26T08:15:18Z</time>
      </trkpt>
      <trkpt lat="43.63745" lon="6.64386">
        <ele>409.4</ele>
        <time>2023-11-26T08:15:19Z</time>
      </trkpt>
      <trkpt lat="43.63745" lon="6.64386">
        <ele>409.4</ele>
        <time>2023-11-26T08:15:20Z</time>
      </trkpt>
      <trkpt lat="43.63745" lon="6.64386">
        <ele>409.4</ele>
        <time>2023-11-26T08:15:21Z</time>
      </trkpt>
      <trkpt lat="43.63745" lon="6.64387">
        <ele>409.4</ele>
        <time>2023-11-26T08:15:22Z</time>
      </trkpt>
      <trkpt lat="43.63745" lon="6.64387">
        <ele>409.4</ele>
        <time>2023-11-26T08:15:23Z</time>
      </trkpt>
      <trkpt lat="43.63745" lon="6.64387">
        <ele>409.3</ele>
        <time>2023-11-26T08:15:24Z</time>
      </trkpt>
      <trkpt lat="43.63745" lon="6.64387">
        <ele>409.3</ele>
        <time>2023-11-26T08:15:25Z</time>
      </trkpt>
      <trkpt lat="43.63745" lon="6.64388">
        <ele>409.3</ele>
        <time>2023-11-26T08:15:26Z</time>
      </trkpt>
      <trkpt lat="43.63744" lon="6.64388">
        <ele>409.3</ele>
        <time>2023-11-26T08:15:27Z</time>
      </trkpt>
      <trkpt lat="43.63744" lon="6.64388">
        <ele>409.3</ele>
        <time>2023-11-26T08:15:28Z</time>
      </trkpt>
      <trkpt lat="43.63745" lon="6.64388">
        <ele>409.2</ele>
        <time>2023-11-26T08:15:29Z</time>
      </trkpt>
      <trkpt lat="43.63746" lon="6.64388">
        <ele>409.2</ele>
        <time>2023-11-26T08:15:30Z</time>
      </trkpt>
      <trkpt lat="43.63746" lon="6.64388">
        <ele>409.1</ele>
        <time>2023-11-26T08:15:31Z</time>
      </trkpt>
      <trkpt lat="43.63747" lon="6.64385">
        <ele>409.2</ele>
        <time>2023-11-26T08:15:32Z</time>
      </trkpt>
      <trkpt lat="43.63748" lon="6.64385">
        <ele>409.3</ele>
        <time>2023-11-26T08:15:33Z</time>
      </trkpt>
      <trkpt lat="43.63748" lon="6.64385">
        <ele>409.3</ele>
        <time>2023-11-26T08:15:34Z</time>
      </trkpt>
      <trkpt lat="43.63747" lon="6.64385">
        <ele>409.3</ele>
        <time>2023-11-26T08:15:35Z</time>
      </trkpt>
      <trkpt lat="43.63747" lon="6.64386">
        <ele>409.3</ele>
        <time>2023-11-26T08:15:36Z</time>
      </trkpt>
      <trkpt lat="43.63746" lon="6.64386">
        <ele>409.3</ele>
        <time>2023-11-26T08:15:37Z</time>
      </trkpt>
      <trkpt lat="43.63746" lon="6.64386">
        <ele>409.2</ele>
        <time>2023-11-26T08:15:38Z</time>
      </trkpt>
      <trkpt lat="43.63745" lon="6.64387">
        <ele>409.2</ele>
        <time>2023-11-26T08:15:39Z</time>
      </trkpt>
      <trkpt lat="43.63745" lon="6.64387">
        <ele>409.2</ele>
        <time>2023-11-26T08:15:40Z</time>
      </trkpt>
      <trkpt lat="43.63745" lon="6.64388">
        <ele>409.2</ele>
        <time>2023-11-26T08:15:41Z</time>
      </trkpt>
      <trkpt lat="43.63744" lon="6.64389">
        <ele>409.2</ele>
        <time>2023-11-26T08:15:42Z</time>
      </trkpt>
      <trkpt lat="43.63743" lon="6.6439">
        <ele>409.2</ele>
        <time>2023-11-26T08:15:43Z</time>
      </trkpt>
      <trkpt lat="43.63742" lon="6.64391">
        <ele>409.2</ele>
        <time>2023-11-26T08:15:44Z</time>
      </trkpt>
      <trkpt lat="43.63742" lon="6.64395">
        <ele>409.2</ele>
        <time>2023-11-26T08:15:45Z</time>
      </trkpt>
      <trkpt lat="43.63741" lon="6.64394">
        <ele>409.3</ele>
        <time>2023-11-26T08:15:46Z</time>
      </trkpt>
      <trkpt lat="43.63741" lon="6.64396">
        <ele>409.4</ele>
        <time>2023-11-26T08:15:47Z</time>
      </trkpt>
      <trkpt lat="43.6374" lon="6.64397">
        <ele>409.7</ele>
        <time>2023-11-26T08:15:48Z</time>
      </trkpt>
      <trkpt lat="43.6374" lon="6.64399">
        <ele>409.9</ele>
        <time>2023-11-26T08:15:49Z</time>
      </trkpt>
      <trkpt lat="43.6374" lon="6.644">
        <ele>410.1</ele>
        <time>2023-11-26T08:15:50Z</time>
      </trkpt>
      <trkpt lat="43.6374" lon="6.64402">
        <ele>410.3</ele>
        <time>2023-11-26T08:15:51Z</time>
      </trkpt>
      <trkpt lat="43.6374" lon="6.64404">
        <ele>410.4</ele>
        <time>2023-11-26T08:15:52Z</time>
      </trkpt>
      <trkpt lat="43.6374" lon="6.64405">
        <ele>410.6</ele>
        <time>2023-11-26T08:15:53Z</time>
      </trkpt>
      <trkpt lat="43.6374" lon="6.64406">
        <ele>410.7</ele>
        <time>2023-11-26T08:15:54Z</time>
      </trkpt>
      <trkpt lat="43.6374" lon="6.64408">
        <ele>411</ele>
        <time>2023-11-26T08:15:55Z</time>
      </trkpt>
      <trkpt lat="43.63741" lon="6.64409">
        <ele>411.1</ele>
        <time>2023-11-26T08:15:56Z</time>
      </trkpt>
      <trkpt lat="43.63741" lon="6.6441">
        <ele>411.4</ele>
        <time>2023-11-26T08:15:57Z</time>
      </trkpt>
      <trkpt lat="43.63742" lon="6.64411">
        <ele>411.5</ele>
        <time>2023-11-26T08:15:58Z</time>
      </trkpt>
      <trkpt lat="43.63743" lon="6.64411">
        <ele>411.8</ele>
        <time>2023-11-26T08:15:59Z</time>
      </trkpt>
      <trkpt lat="43.63743" lon="6.64413">
        <ele>412.1</ele>
        <time>2023-11-26T08:16:00Z</time>
      </trkpt>
      <trkpt lat="43.63744" lon="6.64413">
        <ele>412.4</ele>
        <time>2023-11-26T08:16:01Z</time>
      </trkpt>
      <trkpt lat="43.63746" lon="6.64413">
        <ele>412.6</ele>
        <time>2023-11-26T08:16:02Z</time>
      </trkpt>
      <trkpt lat="43.63747" lon="6.64414">
        <ele>412.8</ele>
        <time>2023-11-26T08:16:03Z</time>
      </trkpt>
      <trkpt lat="43.63749" lon="6.64415">
        <ele>413.1</ele>
        <time>2023-11-26T08:16:04Z</time>
      </trkpt>
      <trkpt lat="43.6375" lon="6.64416">
        <ele>413.2</ele>
        <time>2023-11-26T08:16:05Z</time>
      </trkpt>
      <trkpt lat="43.6375" lon="6.64417">
        <ele>413.4</ele>
        <time>2023-11-26T08:16:06Z</time>
      </trkpt>
      <trkpt lat="43.63751" lon="6.64417">
        <ele>413.6</ele>
        <time>2023-11-26T08:16:07Z</time>
      </trkpt>
      <trkpt lat="43.63751" lon="6.64418">
        <ele>413.9</ele>
        <time>2023-11-26T08:16:08Z</time>
      </trkpt>
      <trkpt lat="43.63752" lon="6.64419">
        <ele>414.1</ele>
        <time>2023-11-26T08:16:09Z</time>
      </trkpt>
      <trkpt lat="43.63753" lon="6.6442">
        <ele>414.3</ele>
        <time>2023-11-26T08:16:10Z</time>
      </trkpt>
      <trkpt lat="43.63754" lon="6.64421">
        <ele>414.5</ele>
        <time>2023-11-26T08:16:11Z</time>
      </trkpt>
      <trkpt lat="43.63755" lon="6.64422">
        <ele>414.7</ele>
        <time>2023-11-26T08:16:12Z</time>
      </trkpt>
      <trkpt lat="43.63756" lon="6.64423">
        <ele>414.9</ele>
        <time>2023-11-26T08:16:13Z</time>
      </trkpt>
      <trkpt lat="43.63757" lon="6.64424">
        <ele>415.1</ele>
        <time>2023-11-26T08:16:14Z</time>
      </trkpt>
      <trkpt lat="43.63758" lon="6.64425">
        <ele>415.3</ele>
        <time>2023-11-26T08:16:15Z</time>
      </trkpt>
      <trkpt lat="43.63758" lon="6.64426">
        <ele>415.5</ele>
        <time>2023-11-26T08:16:16Z</time>
      </trkpt>
      <trkpt lat="43.63759" lon="6.64428">
        <ele>415.6</ele>
        <time>2023-11-26T08:16:17Z</time>
      </trkpt>
      <trkpt lat="43.63761" lon="6.64429">
        <ele>415.7</ele>
        <time>2023-11-26T08:16:18Z</time>
      </trkpt>
      <trkpt lat="43.63762" lon="6.64431">
        <ele>415.9</ele>
        <time>2023-11-26T08:16:19Z</time>
      </trkpt>
      <trkpt lat="43.63763" lon="6.64432">
        <ele>416.1</ele>
        <time>2023-11-26T08:16:20Z</time>
      </trkpt>
      <trkpt lat="43.63764" lon="6.64433">
        <ele>416.2</ele>
        <time>2023-11-26T08:16:21Z</time>
      </trkpt>
      <trkpt lat="43.63764" lon="6.64434">
        <ele>416.3</ele>
        <time>2023-11-26T08:16:22Z</time>
      </trkpt>
      <trkpt lat="43.63766" lon="6.64435">
        <ele>416.4</ele>
        <time>2023-11-26T08:16:23Z</time>
      </trkpt>
      <trkpt lat="43.63767" lon="6.64436">
        <ele>416.5</ele>
        <time>2023-11-26T08:16:24Z</time>
      </trkpt>
      <trkpt lat="43.63767" lon="6.64437">
        <ele>416.7</ele>
        <time>2023-11-26T08:16:25Z</time>
      </trkpt>
      <trkpt lat="43.63767" lon="6.64438">
        <ele>416.9</ele>
        <time>2023-11-26T08:16:26Z</time>
      </trkpt>
      <trkpt lat="43.63768" lon="6.64438">
        <ele>416.9</ele>
        <time>2023-11-26T08:16:27Z</time>
      </trkpt>
      <trkpt lat="43.63768" lon="6.64438">
        <ele>417</ele>
        <time>2023-11-26T08:16:28Z</time>
      </trkpt>
      <trkpt lat="43.63768" lon="6.64438">
        <ele>417.1</ele>
        <time>2023-11-26T08:16:29Z</time>
      </trkpt>
      <trkpt lat="43.63768" lon="6.64439">
        <ele>417.2</ele>
        <time>2023-11-26T08:16:30Z</time>
      </trkpt>
      <trkpt lat="43.63769" lon="6.64439">
        <ele>417.3</ele>
        <time>2023-11-26T08:16:31Z</time>
      </trkpt>
      <trkpt lat="43.6377" lon="6.6444">
        <ele>417.3</ele>
        <time>2023-11-26T08:16:32Z</time>
      </trkpt>
      <trkpt lat="43.63771" lon="6.64441">
        <ele>417.3</ele>
        <time>2023-11-26T08:16:33Z</time>
      </trkpt>
      <trkpt lat="43.63771" lon="6.64442">
        <ele>417.3</ele>
        <time>2023-11-26T08:16:34Z</time>
      </trkpt>
      <trkpt lat="43.63772" lon="6.64443">
        <ele>417.2</ele>
        <time>2023-11-26T08:16:35Z</time>
      </trkpt>
      <trkpt lat="43.63773" lon="6.64445">
        <ele>417.2</ele>
        <time>2023-11-26T08:16:36Z</time>
      </trkpt>
      <trkpt lat="43.63774" lon="6.64446">
        <ele>417.3</ele>
        <time>2023-11-26T08:16:37Z</time>
      </trkpt>
      <trkpt lat="43.63774" lon="6.64447">
        <ele>417.3</ele>
        <time>2023-11-26T08:16:38Z</time>
      </trkpt>
      <trkpt lat="43.63775" lon="6.64448">
        <ele>417.3</ele>
        <time>2023-11-26T08:16:39Z</time>
      </trkpt>
      <trkpt lat="43.63776" lon="6.64449">
        <ele>417.2</ele>
        <time>2023-11-26T08:16:40Z</time>
      </trkpt>
      <trkpt lat="43.63777" lon="6.6445">
        <ele>417.2</ele>
        <time>2023-11-26T08:16:41Z</time>
      </trkpt>
      <trkpt lat="43.63777" lon="6.64452">
        <ele>417.1</ele>
        <time>2023-11-26T08:16:42Z</time>
      </trkpt>
      <trkpt lat="43.63778" lon="6.64453">
        <ele>416.9</ele>
        <time>2023-11-26T08:16:43Z</time>
      </trkpt>
      <trkpt lat="43.63779" lon="6.64454">
        <ele>416.9</ele>
        <time>2023-11-26T08:16:44Z</time>
      </trkpt>
      <trkpt lat="43.6378" lon="6.64456">
        <ele>416.8</ele>
        <time>2023-11-26T08:16:45Z</time>
      </trkpt>
      <trkpt lat="43.63781" lon="6.64457">
        <ele>416.8</ele>
        <time>2023-11-26T08:16:46Z</time>
      </trkpt>
      <trkpt lat="43.63782" lon="6.64458">
        <ele>416.7</ele>
        <time>2023-11-26T08:16:47Z</time>
      </trkpt>
      <trkpt lat="43.63783" lon="6.64459">
        <ele>416.7</ele>
        <time>2023-11-26T08:16:48Z</time>
      </trkpt>
      <trkpt lat="43.63784" lon="6.6446">
        <ele>416.7</ele>
        <time>2023-11-26T08:16:49Z</time>
      </trkpt>
      <trkpt lat="43.63785" lon="6.64461">
        <ele>416.7</ele>
        <time>2023-11-26T08:16:50Z</time>
      </trkpt>
      <trkpt lat="43.63786" lon="6.64462">
        <ele>416.7</ele>
        <time>2023-11-26T08:16:51Z</time>
      </trkpt>
      <trkpt lat="43.63787" lon="6.64463">
        <ele>416.6</ele>
        <time>2023-11-26T08:16:52Z</time>
      </trkpt>
      <trkpt lat="43.63789" lon="6.64464">
        <ele>416.5</ele>
        <time>2023-11-26T08:16:53Z</time>
      </trkpt>
      <trkpt lat="43.6379" lon="6.64464">
        <ele>416.5</ele>
        <time>2023-11-26T08:16:54Z</time>
      </trkpt>
      <trkpt lat="43.63791" lon="6.64465">
        <ele>416.5</ele>
        <time>2023-11-26T08:16:55Z</time>
      </trkpt>
      <trkpt lat="43.63792" lon="6.64466">
        <ele>416.4</ele>
        <time>2023-11-26T08:16:56Z</time>
      </trkpt>
      <trkpt lat="43.63793" lon="6.64467">
        <ele>416.3</ele>
        <time>2023-11-26T08:16:57Z</time>
      </trkpt>
      <trkpt lat="43.63794" lon="6.64468">
        <ele>416.3</ele>
        <time>2023-11-26T08:16:58Z</time>
      </trkpt>
      <trkpt lat="43.63795" lon="6.64469">
        <ele>416.2</ele>
        <time>2023-11-26T08:16:59Z</time>
      </trkpt>
      <trkpt lat="43.63796" lon="6.64469">
        <ele>416.1</ele>
        <time>2023-11-26T08:17:00Z</time>
      </trkpt>
      <trkpt lat="43.63797" lon="6.6447">
        <ele>416.1</ele>
        <time>2023-11-26T08:17:01Z</time>
      </trkpt>
      <trkpt lat="43.63798" lon="6.64471">
        <ele>416.1</ele>
        <time>2023-11-26T08:17:02Z</time>
      </trkpt>
      <trkpt lat="43.63798" lon="6.64471">
        <ele>416</ele>
        <time>2023-11-26T08:17:03Z</time>
      </trkpt>
      <trkpt lat="43.63799" lon="6.64472">
        <ele>415.9</ele>
        <time>2023-11-26T08:17:04Z</time>
      </trkpt>
      <trkpt lat="43.638" lon="6.64474">
        <ele>415.9</ele>
        <time>2023-11-26T08:17:05Z</time>
      </trkpt>
      <trkpt lat="43.63801" lon="6.64475">
        <ele>415.8</ele>
        <time>2023-11-26T08:17:06Z</time>
      </trkpt>
      <trkpt lat="43.63802" lon="6.64475">
        <ele>415.8</ele>
        <time>2023-11-26T08:17:07Z</time>
      </trkpt>
      <trkpt lat="43.63803" lon="6.64475">
        <ele>415.8</ele>
        <time>2023-11-26T08:17:08Z</time>
      </trkpt>
      <trkpt lat="43.63803" lon="6.64475">
        <ele>415.6</ele>
        <time>2023-11-26T08:17:09Z</time>
      </trkpt>
      <trkpt lat="43.63803" lon="6.64474">
        <ele>415.7</ele>
        <time>2023-11-26T08:17:10Z</time>
      </trkpt>
      <trkpt lat="43.63803" lon="6.64474">
        <ele>415.6</ele>
        <time>2023-11-26T08:17:11Z</time>
      </trkpt>
      <trkpt lat="43.63804" lon="6.64474">
        <ele>415.6</ele>
        <time>2023-11-26T08:17:12Z</time>
      </trkpt>
      <trkpt lat="43.63804" lon="6.64475">
        <ele>415.7</ele>
        <time>2023-11-26T08:17:13Z</time>
      </trkpt>
      <trkpt lat="43.63805" lon="6.64475">
        <ele>415.7</ele>
        <time>2023-11-26T08:17:14Z</time>
      </trkpt>
      <trkpt lat="43.63806" lon="6.64475">
        <ele>415.6</ele>
        <time>2023-11-26T08:17:15Z</time>
      </trkpt>
      <trkpt lat="43.63807" lon="6.64476">
        <ele>415.5</ele>
        <time>2023-11-26T08:17:16Z</time>
      </trkpt>
      <trkpt lat="43.63808" lon="6.64477">
        <ele>415.5</ele>
        <time>2023-11-26T08:17:17Z</time>
      </trkpt>
      <trkpt lat="43.63809" lon="6.64477">
        <ele>415.5</ele>
        <time>2023-11-26T08:17:18Z</time>
      </trkpt>
      <trkpt lat="43.6381" lon="6.64478">
        <ele>415.4</ele>
        <time>2023-11-26T08:17:19Z</time>
      </trkpt>
      <trkpt lat="43.63812" lon="6.64479">
        <ele>415.3</ele>
        <time>2023-11-26T08:17:20Z</time>
      </trkpt>
      <trkpt lat="43.63813" lon="6.6448">
        <ele>415.3</ele>
        <time>2023-11-26T08:17:21Z</time>
      </trkpt>
      <trkpt lat="43.63814" lon="6.64481">
        <ele>415.1</ele>
        <time>2023-11-26T08:17:22Z</time>
      </trkpt>
      <trkpt lat="43.63816" lon="6.64481">
        <ele>415</ele>
        <time>2023-11-26T08:17:23Z</time>
      </trkpt>
      <trkpt lat="43.63816" lon="6.64483">
        <ele>415</ele>
        <time>2023-11-26T08:17:24Z</time>
      </trkpt>
      <trkpt lat="43.63817" lon="6.64483">
        <ele>414.9</ele>
        <time>2023-11-26T08:17:25Z</time>
      </trkpt>
      <trkpt lat="43.63819" lon="6.64484">
        <ele>415</ele>
        <time>2023-11-26T08:17:26Z</time>
      </trkpt>
      <trkpt lat="43.6382" lon="6.64484">
        <ele>414.9</ele>
        <time>2023-11-26T08:17:27Z</time>
      </trkpt>
      <trkpt lat="43.63821" lon="6.64484">
        <ele>414.9</ele>
        <time>2023-11-26T08:17:28Z</time>
      </trkpt>
      <trkpt lat="43.63822" lon="6.64485">
        <ele>414.8</ele>
        <time>2023-11-26T08:17:29Z</time>
      </trkpt>
      <trkpt lat="43.63823" lon="6.64486">
        <ele>414.8</ele>
        <time>2023-11-26T08:17:30Z</time>
      </trkpt>
      <trkpt lat="43.63825" lon="6.64487">
        <ele>414.8</ele>
        <time>2023-11-26T08:17:31Z</time>
      </trkpt>
      <trkpt lat="43.63826" lon="6.64488">
        <ele>414.8</ele>
        <time>2023-11-26T08:17:32Z</time>
      </trkpt>
      <trkpt lat="43.63827" lon="6.64489">
        <ele>414.8</ele>
        <time>2023-11-26T08:17:33Z</time>
      </trkpt>
      <trkpt lat="43.63828" lon="6.6449">
        <ele>414.8</ele>
        <time>2023-11-26T08:17:34Z</time>
      </trkpt>
      <trkpt lat="43.63829" lon="6.64491">
        <ele>414.7</ele>
        <time>2023-11-26T08:17:35Z</time>
      </trkpt>
      <trkpt lat="43.6383" lon="6.64492">
        <ele>414.7</ele>
        <time>2023-11-26T08:17:36Z</time>
      </trkpt>
      <trkpt lat="43.63831" lon="6.64493">
        <ele>414.7</ele>
        <time>2023-11-26T08:17:37Z</time>
      </trkpt>
      <trkpt lat="43.63832" lon="6.64493">
        <ele>414.8</ele>
        <time>2023-11-26T08:17:38Z</time>
      </trkpt>
      <trkpt lat="43.63833" lon="6.64494">
        <ele>414.9</ele>
        <time>2023-11-26T08:17:39Z</time>
      </trkpt>
      <trkpt lat="43.63834" lon="6.64495">
        <ele>414.9</ele>
        <time>2023-11-26T08:17:40Z</time>
      </trkpt>
      <trkpt lat="43.63836" lon="6.64496">
        <ele>415</ele>
        <time>2023-11-26T08:17:41Z</time>
      </trkpt>
      <trkpt lat="43.63837" lon="6.64497">
        <ele>415.1</ele>
        <time>2023-11-26T08:17:42Z</time>
      </trkpt>
      <trkpt lat="43.63838" lon="6.64498">
        <ele>415.3</ele>
        <time>2023-11-26T08:17:43Z</time>
      </trkpt>
      <trkpt lat="43.6384" lon="6.64498">
        <ele>415.4</ele>
        <time>2023-11-26T08:17:44Z</time>
      </trkpt>
      <trkpt lat="43.63841" lon="6.64499">
        <ele>415.6</ele>
        <time>2023-11-26T08:17:45Z</time>
      </trkpt>
      <trkpt lat="43.63842" lon="6.645">
        <ele>415.7</ele>
        <time>2023-11-26T08:17:46Z</time>
      </trkpt>
      <trkpt lat="43.63843" lon="6.64501">
        <ele>415.8</ele>
        <time>2023-11-26T08:17:47Z</time>
      </trkpt>
      <trkpt lat="43.63845" lon="6.64502">
        <ele>415.9</ele>
        <time>2023-11-26T08:17:48Z</time>
      </trkpt>
      <trkpt lat="43.63846" lon="6.64502">
        <ele>416</ele>
        <time>2023-11-26T08:17:49Z</time>
      </trkpt>
      <trkpt lat="43.63847" lon="6.64503">
        <ele>416</ele>
        <time>2023-11-26T08:17:50Z</time>
      </trkpt>
      <trkpt lat="43.63848" lon="6.64503">
        <ele>416.1</ele>
        <time>2023-11-26T08:17:51Z</time>
      </trkpt>
      <trkpt lat="43.6385" lon="6.64504">
        <ele>416.2</ele>
        <time>2023-11-26T08:17:52Z</time>
      </trkpt>
      <trkpt lat="43.63851" lon="6.64504">
        <ele>416.2</ele>
        <time>2023-11-26T08:17:53Z</time>
      </trkpt>
      <trkpt lat="43.63852" lon="6.64504">
        <ele>416.1</ele>
        <time>2023-11-26T08:17:54Z</time>
      </trkpt>
      <trkpt lat="43.63853" lon="6.64505">
        <ele>416.2</ele>
        <time>2023-11-26T08:17:55Z</time>
      </trkpt>
      <trkpt lat="43.63854" lon="6.64506">
        <ele>416.2</ele>
        <time>2023-11-26T08:17:56Z</time>
      </trkpt>
      <trkpt lat="43.63855" lon="6.64506">
        <ele>416.3</ele>
        <time>2023-11-26T08:17:57Z</time>
      </trkpt>
      <trkpt lat="43.63856" lon="6.64507">
        <ele>416.3</ele>
        <time>2023-11-26T08:17:58Z</time>
      </trkpt>
      <trkpt lat="43.63857" lon="6.64508">
        <ele>416.4</ele>
        <time>2023-11-26T08:17:59Z</time>
      </trkpt>
      <trkpt lat="43.63858" lon="6.64509">
        <ele>416.4</ele>
        <time>2023-11-26T08:18:00Z</time>
      </trkpt>
      <trkpt lat="43.63859" lon="6.6451">
        <ele>416.6</ele>
        <time>2023-11-26T08:18:01Z</time>
      </trkpt>
      <trkpt lat="43.6386" lon="6.64511">
        <ele>416.7</ele>
        <time>2023-11-26T08:18:02Z</time>
      </trkpt>
      <trkpt lat="43.63861" lon="6.64512">
        <ele>416.9</ele>
        <time>2023-11-26T08:18:03Z</time>
      </trkpt>
      <trkpt lat="43.63862" lon="6.64514">
        <ele>417</ele>
        <time>2023-11-26T08:18:04Z</time>
      </trkpt>
      <trkpt lat="43.63862" lon="6.64515">
        <ele>417.1</ele>
        <time>2023-11-26T08:18:05Z</time>
      </trkpt>
      <trkpt lat="43.63864" lon="6.64516">
        <ele>417.2</ele>
        <time>2023-11-26T08:18:06Z</time>
      </trkpt>
      <trkpt lat="43.63865" lon="6.64517">
        <ele>417.3</ele>
        <time>2023-11-26T08:18:07Z</time>
      </trkpt>
      <trkpt lat="43.63866" lon="6.64517">
        <ele>417.4</ele>
        <time>2023-11-26T08:18:08Z</time>
      </trkpt>
      <trkpt lat="43.63867" lon="6.64518">
        <ele>417.5</ele>
        <time>2023-11-26T08:18:09Z</time>
      </trkpt>
      <trkpt lat="43.63868" lon="6.64519">
        <ele>417.8</ele>
        <time>2023-11-26T08:18:10Z</time>
      </trkpt>
      <trkpt lat="43.63869" lon="6.64519">
        <ele>418</ele>
        <time>2023-11-26T08:18:11Z</time>
      </trkpt>
      <trkpt lat="43.63869" lon="6.6452">
        <ele>418.3</ele>
        <time>2023-11-26T08:18:12Z</time>
      </trkpt>
      <trkpt lat="43.6387" lon="6.64521">
        <ele>418.4</ele>
        <time>2023-11-26T08:18:13Z</time>
      </trkpt>
      <trkpt lat="43.63871" lon="6.64522">
        <ele>418.7</ele>
        <time>2023-11-26T08:18:14Z</time>
      </trkpt>
      <trkpt lat="43.63872" lon="6.64523">
        <ele>418.8</ele>
        <time>2023-11-26T08:18:15Z</time>
      </trkpt>
      <trkpt lat="43.63873" lon="6.64524">
        <ele>418.9</ele>
        <time>2023-11-26T08:18:16Z</time>
      </trkpt>
      <trkpt lat="43.63874" lon="6.64524">
        <ele>419</ele>
        <time>2023-11-26T08:18:17Z</time>
      </trkpt>
      <trkpt lat="43.63875" lon="6.64525">
        <ele>419.2</ele>
        <time>2023-11-26T08:18:18Z</time>
      </trkpt>
      <trkpt lat="43.63876" lon="6.64527">
        <ele>419.4</ele>
        <time>2023-11-26T08:18:19Z</time>
      </trkpt>
      <trkpt lat="43.63877" lon="6.64528">
        <ele>419.5</ele>
        <time>2023-11-26T08:18:20Z</time>
      </trkpt>
      <trkpt lat="43.63879" lon="6.64529">
        <ele>419.7</ele>
        <time>2023-11-26T08:18:21Z</time>
      </trkpt>
      <trkpt lat="43.63879" lon="6.6453">
        <ele>419.8</ele>
        <time>2023-11-26T08:18:22Z</time>
      </trkpt>
      <trkpt lat="43.6388" lon="6.64531">
        <ele>420</ele>
        <time>2023-11-26T08:18:23Z</time>
      </trkpt>
      <trkpt lat="43.63881" lon="6.64532">
        <ele>420.2</ele>
        <time>2023-11-26T08:18:24Z</time>
      </trkpt>
      <trkpt lat="43.63882" lon="6.64533">
        <ele>420.4</ele>
        <time>2023-11-26T08:18:25Z</time>
      </trkpt>
      <trkpt lat="43.63882" lon="6.64534">
        <ele>420.5</ele>
        <time>2023-11-26T08:18:26Z</time>
      </trkpt>
      <trkpt lat="43.63884" lon="6.64535">
        <ele>420.6</ele>
        <time>2023-11-26T08:18:27Z</time>
      </trkpt>
      <trkpt lat="43.63885" lon="6.64536">
        <ele>420.7</ele>
        <time>2023-11-26T08:18:28Z</time>
      </trkpt>
      <trkpt lat="43.63886" lon="6.64537">
        <ele>420.8</ele>
        <time>2023-11-26T08:18:29Z</time>
      </trkpt>
      <trkpt lat="43.63886" lon="6.64538">
        <ele>420.9</ele>
        <time>2023-11-26T08:18:30Z</time>
      </trkpt>
      <trkpt lat="43.63887" lon="6.6454">
        <ele>421</ele>
        <time>2023-11-26T08:18:31Z</time>
      </trkpt>
      <trkpt lat="43.63888" lon="6.6454">
        <ele>421.1</ele>
        <time>2023-11-26T08:18:32Z</time>
      </trkpt>
      <trkpt lat="43.63889" lon="6.64542">
        <ele>421.2</ele>
        <time>2023-11-26T08:18:33Z</time>
      </trkpt>
      <trkpt lat="43.63889" lon="6.64544">
        <ele>421.2</ele>
        <time>2023-11-26T08:18:34Z</time>
      </trkpt>
      <trkpt lat="43.6389" lon="6.64545">
        <ele>421.4</ele>
        <time>2023-11-26T08:18:35Z</time>
      </trkpt>
      <trkpt lat="43.63891" lon="6.64547">
        <ele>421.5</ele>
        <time>2023-11-26T08:18:36Z</time>
      </trkpt>
      <trkpt lat="43.63891" lon="6.64548">
        <ele>421.6</ele>
        <time>2023-11-26T08:18:37Z</time>
      </trkpt>
      <trkpt lat="43.63892" lon="6.6455">
        <ele>421.7</ele>
        <time>2023-11-26T08:18:38Z</time>
      </trkpt>
      <trkpt lat="43.63892" lon="6.64551">
        <ele>421.8</ele>
        <time>2023-11-26T08:18:39Z</time>
      </trkpt>
      <trkpt lat="43.63893" lon="6.64552">
        <ele>421.7</ele>
        <time>2023-11-26T08:18:40Z</time>
      </trkpt>
      <trkpt lat="43.63894" lon="6.64554">
        <ele>421.7</ele>
        <time>2023-11-26T08:18:41Z</time>
      </trkpt>
      <trkpt lat="43.63895" lon="6.64555">
        <ele>421.7</ele>
        <time>2023-11-26T08:18:42Z</time>
      </trkpt>
      <trkpt lat="43.63895" lon="6.64556">
        <ele>421.9</ele>
        <time>2023-11-26T08:18:43Z</time>
      </trkpt>
      <trkpt lat="43.63896" lon="6.64558">
        <ele>422</ele>
        <time>2023-11-26T08:18:44Z</time>
      </trkpt>
      <trkpt lat="43.63897" lon="6.64559">
        <ele>422</ele>
        <time>2023-11-26T08:18:45Z</time>
      </trkpt>
      <trkpt lat="43.63898" lon="6.64561">
        <ele>422.1</ele>
        <time>2023-11-26T08:18:46Z</time>
      </trkpt>
      <trkpt lat="43.63899" lon="6.64562">
        <ele>422.2</ele>
        <time>2023-11-26T08:18:47Z</time>
      </trkpt>
      <trkpt lat="43.63899" lon="6.64564">
        <ele>422.2</ele>
        <time>2023-11-26T08:18:48Z</time>
      </trkpt>
      <trkpt lat="43.639" lon="6.64565">
        <ele>422.2</ele>
        <time>2023-11-26T08:18:49Z</time>
      </trkpt>
      <trkpt lat="43.63901" lon="6.64566">
        <ele>422.2</ele>
        <time>2023-11-26T08:18:50Z</time>
      </trkpt>
      <trkpt lat="43.63902" lon="6.64567">
        <ele>422.2</ele>
        <time>2023-11-26T08:18:51Z</time>
      </trkpt>
      <trkpt lat="43.63903" lon="6.64568">
        <ele>422.3</ele>
        <time>2023-11-26T08:18:52Z</time>
      </trkpt>
      <trkpt lat="43.63904" lon="6.64569">
        <ele>422.3</ele>
        <time>2023-11-26T08:18:53Z</time>
      </trkpt>
      <trkpt lat="43.63905" lon="6.6457">
        <ele>422.3</ele>
        <time>2023-11-26T08:18:54Z</time>
      </trkpt>
      <trkpt lat="43.63906" lon="6.64571">
        <ele>422.2</ele>
        <time>2023-11-26T08:18:55Z</time>
      </trkpt>
      <trkpt lat="43.63907" lon="6.64573">
        <ele>422.3</ele>
        <time>2023-11-26T08:18:56Z</time>
      </trkpt>
      <trkpt lat="43.63908" lon="6.64574">
        <ele>422.3</ele>
        <time>2023-11-26T08:18:57Z</time>
      </trkpt>
      <trkpt lat="43.63908" lon="6.64575">
        <ele>422.3</ele>
        <time>2023-11-26T08:18:58Z</time>
      </trkpt>
      <trkpt lat="43.6391" lon="6.64576">
        <ele>422.3</ele>
        <time>2023-11-26T08:18:59Z</time>
      </trkpt>
      <trkpt lat="43.63911" lon="6.64576">
        <ele>422.4</ele>
        <time>2023-11-26T08:19:00Z</time>
      </trkpt>
      <trkpt lat="43.63912" lon="6.64577">
        <ele>422.5</ele>
        <time>2023-11-26T08:19:01Z</time>
      </trkpt>
      <trkpt lat="43.63913" lon="6.64578">
        <ele>422.5</ele>
        <time>2023-11-26T08:19:02Z</time>
      </trkpt>
      <trkpt lat="43.63914" lon="6.64578">
        <ele>422.5</ele>
        <time>2023-11-26T08:19:03Z</time>
      </trkpt>
      <trkpt lat="43.63915" lon="6.64579">
        <ele>422.6</ele>
        <time>2023-11-26T08:19:04Z</time>
      </trkpt>
      <trkpt lat="43.63916" lon="6.6458">
        <ele>422.5</ele>
        <time>2023-11-26T08:19:05Z</time>
      </trkpt>
      <trkpt lat="43.63917" lon="6.64581">
        <ele>422.5</ele>
        <time>2023-11-26T08:19:06Z</time>
      </trkpt>
      <trkpt lat="43.63919" lon="6.64582">
        <ele>422.6</ele>
        <time>2023-11-26T08:19:07Z</time>
      </trkpt>
      <trkpt lat="43.63919" lon="6.64583">
        <ele>422.6</ele>
        <time>2023-11-26T08:19:08Z</time>
      </trkpt>
      <trkpt lat="43.6392" lon="6.64584">
        <ele>422.7</ele>
        <time>2023-11-26T08:19:09Z</time>
      </trkpt>
      <trkpt lat="43.63922" lon="6.64584">
        <ele>422.7</ele>
        <time>2023-11-26T08:19:10Z</time>
      </trkpt>
      <trkpt lat="43.63923" lon="6.64585">
        <ele>422.7</ele>
        <time>2023-11-26T08:19:11Z</time>
      </trkpt>
      <trkpt lat="43.63924" lon="6.64585">
        <ele>422.7</ele>
        <time>2023-11-26T08:19:12Z</time>
      </trkpt>
      <trkpt lat="43.63925" lon="6.64585">
        <ele>422.7</ele>
        <time>2023-11-26T08:19:13Z</time>
      </trkpt>
      <trkpt lat="43.63925" lon="6.64586">
        <ele>422.7</ele>
        <time>2023-11-26T08:19:14Z</time>
      </trkpt>
      <trkpt lat="43.63926" lon="6.64586">
        <ele>422.7</ele>
        <time>2023-11-26T08:19:15Z</time>
      </trkpt>
      <trkpt lat="43.63927" lon="6.64586">
        <ele>422.7</ele>
        <time>2023-11-26T08:19:16Z</time>
      </trkpt>
      <trkpt lat="43.63928" lon="6.64587">
        <ele>422.7</ele>
        <time>2023-11-26T08:19:17Z</time>
      </trkpt>
      <trkpt lat="43.63929" lon="6.64587">
        <ele>422.8</ele>
        <time>2023-11-26T08:19:18Z</time>
      </trkpt>
      <trkpt lat="43.6393" lon="6.64587">
        <ele>422.7</ele>
        <time>2023-11-26T08:19:19Z</time>
      </trkpt>
      <trkpt lat="43.63931" lon="6.64587">
        <ele>422.7</ele>
        <time>2023-11-26T08:19:20Z</time>
      </trkpt>
      <trkpt lat="43.63932" lon="6.64586">
        <ele>422.8</ele>
        <time>2023-11-26T08:19:21Z</time>
      </trkpt>
      <trkpt lat="43.63933" lon="6.64586">
        <ele>422.9</ele>
        <time>2023-11-26T08:19:22Z</time>
      </trkpt>
      <trkpt lat="43.63934" lon="6.64587">
        <ele>422.9</ele>
        <time>2023-11-26T08:19:23Z</time>
      </trkpt>
      <trkpt lat="43.63935" lon="6.64587">
        <ele>423</ele>
        <time>2023-11-26T08:19:24Z</time>
      </trkpt>
      <trkpt lat="43.63936" lon="6.64588">
        <ele>423.5</ele>
        <time>2023-11-26T08:19:25Z</time>
      </trkpt>
      <trkpt lat="43.63937" lon="6.64588">
        <ele>423.5</ele>
        <time>2023-11-26T08:19:26Z</time>
      </trkpt>
      <trkpt lat="43.63937" lon="6.64588">
        <ele>423.5</ele>
        <time>2023-11-26T08:19:27Z</time>
      </trkpt>
      <trkpt lat="43.63939" lon="6.64587">
        <ele>423.5</ele>
        <time>2023-11-26T08:19:28Z</time>
      </trkpt>
      <trkpt lat="43.6394" lon="6.64587">
        <ele>423.5</ele>
        <time>2023-11-26T08:19:29Z</time>
      </trkpt>
      <trkpt lat="43.63941" lon="6.64587">
        <ele>423.6</ele>
        <time>2023-11-26T08:19:30Z</time>
      </trkpt>
      <trkpt lat="43.63942" lon="6.64586">
        <ele>423.6</ele>
        <time>2023-11-26T08:19:31Z</time>
      </trkpt>
      <trkpt lat="43.63943" lon="6.64586">
        <ele>423.7</ele>
        <time>2023-11-26T08:19:32Z</time>
      </trkpt>
      <trkpt lat="43.63944" lon="6.64588">
        <ele>423.6</ele>
        <time>2023-11-26T08:19:33Z</time>
      </trkpt>
      <trkpt lat="43.63945" lon="6.64589">
        <ele>423.6</ele>
        <time>2023-11-26T08:19:34Z</time>
      </trkpt>
      <trkpt lat="43.63946" lon="6.64589">
        <ele>423.6</ele>
        <time>2023-11-26T08:19:35Z</time>
      </trkpt>
      <trkpt lat="43.63947" lon="6.6459">
        <ele>423.6</ele>
        <time>2023-11-26T08:19:36Z</time>
      </trkpt>
      <trkpt lat="43.63948" lon="6.64591">
        <ele>423.6</ele>
        <time>2023-11-26T08:19:37Z</time>
      </trkpt>
      <trkpt lat="43.63949" lon="6.64592">
        <ele>423.6</ele>
        <time>2023-11-26T08:19:38Z</time>
      </trkpt>
      <trkpt lat="43.63949" lon="6.64593">
        <ele>423.8</ele>
        <time>2023-11-26T08:19:39Z</time>
      </trkpt>
      <trkpt lat="43.6395" lon="6.64594">
        <ele>423.9</ele>
        <time>2023-11-26T08:19:40Z</time>
      </trkpt>
      <trkpt lat="43.63951" lon="6.64595">
        <ele>424</ele>
        <time>2023-11-26T08:19:41Z</time>
      </trkpt>
      <trkpt lat="43.63952" lon="6.64596">
        <ele>424</ele>
        <time>2023-11-26T08:19:42Z</time>
      </trkpt>
      <trkpt lat="43.63953" lon="6.64597">
        <ele>424</ele>
        <time>2023-11-26T08:19:43Z</time>
      </trkpt>
      <trkpt lat="43.63954" lon="6.64598">
        <ele>424.1</ele>
        <time>2023-11-26T08:19:44Z</time>
      </trkpt>
      <trkpt lat="43.63954" lon="6.64598">
        <ele>424.1</ele>
        <time>2023-11-26T08:19:45Z</time>
      </trkpt>
      <trkpt lat="43.63955" lon="6.646">
        <ele>424.2</ele>
        <time>2023-11-26T08:19:46Z</time>
      </trkpt>
      <trkpt lat="43.63956" lon="6.64601">
        <ele>424.2</ele>
        <time>2023-11-26T08:19:47Z</time>
      </trkpt>
      <trkpt lat="43.63956" lon="6.64601">
        <ele>424.3</ele>
        <time>2023-11-26T08:19:48Z</time>
      </trkpt>
      <trkpt lat="43.63956" lon="6.64601">
        <ele>424.3</ele>
        <time>2023-11-26T08:19:49Z</time>
      </trkpt>
      <trkpt lat="43.63956" lon="6.64602">
        <ele>424.3</ele>
        <time>2023-11-26T08:19:50Z</time>
      </trkpt>
      <trkpt lat="43.63957" lon="6.64603">
        <ele>424.4</ele>
        <time>2023-11-26T08:19:51Z</time>
      </trkpt>
      <trkpt lat="43.63958" lon="6.64604">
        <ele>424.5</ele>
        <time>2023-11-26T08:19:52Z</time>
      </trkpt>
      <trkpt lat="43.63959" lon="6.64605">
        <ele>424.5</ele>
        <time>2023-11-26T08:19:53Z</time>
      </trkpt>
      <trkpt lat="43.63959" lon="6.64607">
        <ele>424.6</ele>
        <time>2023-11-26T08:19:54Z</time>
      </trkpt>
      <trkpt lat="43.6396" lon="6.64609">
        <ele>424.6</ele>
        <time>2023-11-26T08:19:55Z</time>
      </trkpt>
      <trkpt lat="43.63961" lon="6.64609">
        <ele>424.7</ele>
        <time>2023-11-26T08:19:56Z</time>
      </trkpt>
      <trkpt lat="43.63961" lon="6.6461">
        <ele>424.7</ele>
        <time>2023-11-26T08:19:57Z</time>
      </trkpt>
      <trkpt lat="43.63961" lon="6.64611">
        <ele>424.7</ele>
        <time>2023-11-26T08:19:58Z</time>
      </trkpt>
      <trkpt lat="43.63962" lon="6.64612">
        <ele>424.8</ele>
        <time>2023-11-26T08:19:59Z</time>
      </trkpt>
      <trkpt lat="43.63963" lon="6.64613">
        <ele>424.8</ele>
        <time>2023-11-26T08:20:00Z</time>
      </trkpt>
      <trkpt lat="43.63963" lon="6.64613">
        <ele>425</ele>
        <time>2023-11-26T08:20:01Z</time>
      </trkpt>
      <trkpt lat="43.63963" lon="6.64613">
        <ele>425</ele>
        <time>2023-11-26T08:20:02Z</time>
      </trkpt>
      <trkpt lat="43.63963" lon="6.64614">
        <ele>425.1</ele>
        <time>2023-11-26T08:20:03Z</time>
      </trkpt>
      <trkpt lat="43.63964" lon="6.64615">
        <ele>425.2</ele>
        <time>2023-11-26T08:20:04Z</time>
      </trkpt>
      <trkpt lat="43.63965" lon="6.64616">
        <ele>425.2</ele>
        <time>2023-11-26T08:20:05Z</time>
      </trkpt>
      <trkpt lat="43.63966" lon="6.64616">
        <ele>425.3</ele>
        <time>2023-11-26T08:20:06Z</time>
      </trkpt>
      <trkpt lat="43.63966" lon="6.64617">
        <ele>425.4</ele>
        <time>2023-11-26T08:20:07Z</time>
      </trkpt>
      <trkpt lat="43.63966" lon="6.64618">
        <ele>425.4</ele>
        <time>2023-11-26T08:20:08Z</time>
      </trkpt>
      <trkpt lat="43.63967" lon="6.64619">
        <ele>425.5</ele>
        <time>2023-11-26T08:20:09Z</time>
      </trkpt>
      <trkpt lat="43.63967" lon="6.6462">
        <ele>425.6</ele>
        <time>2023-11-26T08:20:10Z</time>
      </trkpt>
      <trkpt lat="43.63968" lon="6.64621">
        <ele>425.7</ele>
        <time>2023-11-26T08:20:11Z</time>
      </trkpt>
      <trkpt lat="43.63969" lon="6.64622">
        <ele>425.8</ele>
        <time>2023-11-26T08:20:12Z</time>
      </trkpt>
      <trkpt lat="43.63969" lon="6.64623">
        <ele>425.8</ele>
        <time>2023-11-26T08:20:13Z</time>
      </trkpt>
      <trkpt lat="43.6397" lon="6.64624">
        <ele>425.9</ele>
        <time>2023-11-26T08:20:14Z</time>
      </trkpt>
      <trkpt lat="43.6397" lon="6.64626">
        <ele>426</ele>
        <time>2023-11-26T08:20:15Z</time>
      </trkpt>
      <trkpt lat="43.63971" lon="6.64627">
        <ele>426.1</ele>
        <time>2023-11-26T08:20:16Z</time>
      </trkpt>
      <trkpt lat="43.63971" lon="6.64628">
        <ele>426.3</ele>
        <time>2023-11-26T08:20:17Z</time>
      </trkpt>
      <trkpt lat="43.63972" lon="6.6463">
        <ele>426.5</ele>
        <time>2023-11-26T08:20:18Z</time>
      </trkpt>
      <trkpt lat="43.63972" lon="6.64631">
        <ele>426.6</ele>
        <time>2023-11-26T08:20:19Z</time>
      </trkpt>
      <trkpt lat="43.63973" lon="6.64632">
        <ele>426.7</ele>
        <time>2023-11-26T08:20:20Z</time>
      </trkpt>
      <trkpt lat="43.63974" lon="6.64633">
        <ele>426.8</ele>
        <time>2023-11-26T08:20:21Z</time>
      </trkpt>
      <trkpt lat="43.63975" lon="6.64634">
        <ele>426.9</ele>
        <time>2023-11-26T08:20:22Z</time>
      </trkpt>
      <trkpt lat="43.63975" lon="6.64635">
        <ele>427</ele>
        <time>2023-11-26T08:20:23Z</time>
      </trkpt>
      <trkpt lat="43.63976" lon="6.64636">
        <ele>427.1</ele>
        <time>2023-11-26T08:20:24Z</time>
      </trkpt>
      <trkpt lat="43.63977" lon="6.64638">
        <ele>427.1</ele>
        <time>2023-11-26T08:20:25Z</time>
      </trkpt>
      <trkpt lat="43.63978" lon="6.64639">
        <ele>427.2</ele>
        <time>2023-11-26T08:20:26Z</time>
      </trkpt>
      <trkpt lat="43.63979" lon="6.6464">
        <ele>427.3</ele>
        <time>2023-11-26T08:20:27Z</time>
      </trkpt>
      <trkpt lat="43.6398" lon="6.64641">
        <ele>427.5</ele>
        <time>2023-11-26T08:20:28Z</time>
      </trkpt>
      <trkpt lat="43.6398" lon="6.64642">
        <ele>427.4</ele>
        <time>2023-11-26T08:20:29Z</time>
      </trkpt>
      <trkpt lat="43.63981" lon="6.64643">
        <ele>427.4</ele>
        <time>2023-11-26T08:20:30Z</time>
      </trkpt>
      <trkpt lat="43.63982" lon="6.64644">
        <ele>427.6</ele>
        <time>2023-11-26T08:20:31Z</time>
      </trkpt>
      <trkpt lat="43.63983" lon="6.64645">
        <ele>427.6</ele>
        <time>2023-11-26T08:20:32Z</time>
      </trkpt>
      <trkpt lat="43.63984" lon="6.64646">
        <ele>427.7</ele>
        <time>2023-11-26T08:20:33Z</time>
      </trkpt>
      <trkpt lat="43.63985" lon="6.64647">
        <ele>427.8</ele>
        <time>2023-11-26T08:20:34Z</time>
      </trkpt>
      <trkpt lat="43.63986" lon="6.64648">
        <ele>427.9</ele>
        <time>2023-11-26T08:20:35Z</time>
      </trkpt>
      <trkpt lat="43.63987" lon="6.64649">
        <ele>428</ele>
        <time>2023-11-26T08:20:36Z</time>
      </trkpt>
      <trkpt lat="43.63987" lon="6.6465">
        <ele>428.3</ele>
        <time>2023-11-26T08:20:37Z</time>
      </trkpt>
      <trkpt lat="43.63988" lon="6.64651">
        <ele>428.5</ele>
        <time>2023-11-26T08:20:38Z</time>
      </trkpt>
      <trkpt lat="43.63989" lon="6.64652">
        <ele>428.6</ele>
        <time>2023-11-26T08:20:39Z</time>
      </trkpt>
      <trkpt lat="43.6399" lon="6.64653">
        <ele>428.8</ele>
        <time>2023-11-26T08:20:40Z</time>
      </trkpt>
      <trkpt lat="43.6399" lon="6.64654">
        <ele>429</ele>
        <time>2023-11-26T08:20:41Z</time>
      </trkpt>
      <trkpt lat="43.63991" lon="6.64655">
        <ele>429.1</ele>
        <time>2023-11-26T08:20:42Z</time>
      </trkpt>
      <trkpt lat="43.63992" lon="6.64656">
        <ele>429.1</ele>
        <time>2023-11-26T08:20:43Z</time>
      </trkpt>
      <trkpt lat="43.63992" lon="6.64657">
        <ele>429.1</ele>
        <time>2023-11-26T08:20:44Z</time>
      </trkpt>
      <trkpt lat="43.63993" lon="6.64659">
        <ele>429.3</ele>
        <time>2023-11-26T08:20:45Z</time>
      </trkpt>
      <trkpt lat="43.63993" lon="6.6466">
        <ele>429.3</ele>
        <time>2023-11-26T08:20:46Z</time>
      </trkpt>
      <trkpt lat="43.63994" lon="6.64661">
        <ele>429.5</ele>
        <time>2023-11-26T08:20:47Z</time>
      </trkpt>
      <trkpt lat="43.63995" lon="6.64662">
        <ele>429.6</ele>
        <time>2023-11-26T08:20:48Z</time>
      </trkpt>
      <trkpt lat="43.63996" lon="6.64663">
        <ele>429.7</ele>
        <time>2023-11-26T08:20:49Z</time>
      </trkpt>
      <trkpt lat="43.63997" lon="6.64664">
        <ele>429.9</ele>
        <time>2023-11-26T08:20:50Z</time>
      </trkpt>
      <trkpt lat="43.63997" lon="6.64665">
        <ele>430</ele>
        <time>2023-11-26T08:20:51Z</time>
      </trkpt>
      <trkpt lat="43.63998" lon="6.64666">
        <ele>430.1</ele>
        <time>2023-11-26T08:20:52Z</time>
      </trkpt>
      <trkpt lat="43.63999" lon="6.64667">
        <ele>430.2</ele>
        <time>2023-11-26T08:20:53Z</time>
      </trkpt>
      <trkpt lat="43.64" lon="6.64668">
        <ele>430.3</ele>
        <time>2023-11-26T08:20:54Z</time>
      </trkpt>
      <trkpt lat="43.64001" lon="6.64669">
        <ele>430.5</ele>
        <time>2023-11-26T08:20:55Z</time>
      </trkpt>
      <trkpt lat="43.64002" lon="6.6467">
        <ele>430.7</ele>
        <time>2023-11-26T08:20:56Z</time>
      </trkpt>
      <trkpt lat="43.64003" lon="6.64671">
        <ele>430.8</ele>
        <time>2023-11-26T08:20:57Z</time>
      </trkpt>
      <trkpt lat="43.64003" lon="6.64673">
        <ele>430.9</ele>
        <time>2023-11-26T08:20:58Z</time>
      </trkpt>
      <trkpt lat="43.64005" lon="6.64674">
        <ele>431</ele>
        <time>2023-11-26T08:20:59Z</time>
      </trkpt>
      <trkpt lat="43.64005" lon="6.64675">
        <ele>431.1</ele>
        <time>2023-11-26T08:21:00Z</time>
      </trkpt>
      <trkpt lat="43.64006" lon="6.64677">
        <ele>431.2</ele>
        <time>2023-11-26T08:21:01Z</time>
      </trkpt>
      <trkpt lat="43.64007" lon="6.64679">
        <ele>431.3</ele>
        <time>2023-11-26T08:21:02Z</time>
      </trkpt>
      <trkpt lat="43.64008" lon="6.6468">
        <ele>431.4</ele>
        <time>2023-11-26T08:21:03Z</time>
      </trkpt>
      <trkpt lat="43.64009" lon="6.64681">
        <ele>431.6</ele>
        <time>2023-11-26T08:21:04Z</time>
      </trkpt>
      <trkpt lat="43.6401" lon="6.64682">
        <ele>431.7</ele>
        <time>2023-11-26T08:21:05Z</time>
      </trkpt>
      <trkpt lat="43.64011" lon="6.64683">
        <ele>431.7</ele>
        <time>2023-11-26T08:21:06Z</time>
      </trkpt>
      <trkpt lat="43.64012" lon="6.64683">
        <ele>431.8</ele>
        <time>2023-11-26T08:21:07Z</time>
      </trkpt>
      <trkpt lat="43.64012" lon="6.64685">
        <ele>432</ele>
        <time>2023-11-26T08:21:08Z</time>
      </trkpt>
      <trkpt lat="43.64013" lon="6.64686">
        <ele>432.2</ele>
        <time>2023-11-26T08:21:09Z</time>
      </trkpt>
      <trkpt lat="43.64014" lon="6.64687">
        <ele>432.2</ele>
        <time>2023-11-26T08:21:10Z</time>
      </trkpt>
      <trkpt lat="43.64015" lon="6.64688">
        <ele>432.3</ele>
        <time>2023-11-26T08:21:11Z</time>
      </trkpt>
      <trkpt lat="43.64016" lon="6.64689">
        <ele>432.3</ele>
        <time>2023-11-26T08:21:12Z</time>
      </trkpt>
      <trkpt lat="43.64017" lon="6.6469">
        <ele>432.3</ele>
        <time>2023-11-26T08:21:13Z</time>
      </trkpt>
      <trkpt lat="43.64018" lon="6.64691">
        <ele>432.5</ele>
        <time>2023-11-26T08:21:14Z</time>
      </trkpt>
      <trkpt lat="43.64019" lon="6.64692">
        <ele>432.7</ele>
        <time>2023-11-26T08:21:15Z</time>
      </trkpt>
      <trkpt lat="43.6402" lon="6.64693">
        <ele>432.7</ele>
        <time>2023-11-26T08:21:16Z</time>
      </trkpt>
      <trkpt lat="43.64021" lon="6.64695">
        <ele>432.8</ele>
        <time>2023-11-26T08:21:17Z</time>
      </trkpt>
      <trkpt lat="43.64021" lon="6.64696">
        <ele>432.8</ele>
        <time>2023-11-26T08:21:18Z</time>
      </trkpt>
      <trkpt lat="43.64022" lon="6.64697">
        <ele>432.9</ele>
        <time>2023-11-26T08:21:19Z</time>
      </trkpt>
      <trkpt lat="43.64023" lon="6.64698">
        <ele>432.9</ele>
        <time>2023-11-26T08:21:20Z</time>
      </trkpt>
      <trkpt lat="43.64025" lon="6.647">
        <ele>432.9</ele>
        <time>2023-11-26T08:21:21Z</time>
      </trkpt>
      <trkpt lat="43.64026" lon="6.64701">
        <ele>432.9</ele>
        <time>2023-11-26T08:21:22Z</time>
      </trkpt>
      <trkpt lat="43.64027" lon="6.64702">
        <ele>432.8</ele>
        <time>2023-11-26T08:21:23Z</time>
      </trkpt>
      <trkpt lat="43.64027" lon="6.64703">
        <ele>432.8</ele>
        <time>2023-11-26T08:21:24Z</time>
      </trkpt>
      <trkpt lat="43.64028" lon="6.64704">
        <ele>432.8</ele>
        <time>2023-11-26T08:21:25Z</time>
      </trkpt>
      <trkpt lat="43.64029" lon="6.64705">
        <ele>432.7</ele>
        <time>2023-11-26T08:21:26Z</time>
      </trkpt>
      <trkpt lat="43.6403" lon="6.64706">
        <ele>432.7</ele>
        <time>2023-11-26T08:21:27Z</time>
      </trkpt>
      <trkpt lat="43.64031" lon="6.64707">
        <ele>432.7</ele>
        <time>2023-11-26T08:21:28Z</time>
      </trkpt>
      <trkpt lat="43.64032" lon="6.64708">
        <ele>432.7</ele>
        <time>2023-11-26T08:21:29Z</time>
      </trkpt>
      <trkpt lat="43.64033" lon="6.64709">
        <ele>432.6</ele>
        <time>2023-11-26T08:21:30Z</time>
      </trkpt>
      <trkpt lat="43.64034" lon="6.6471">
        <ele>432.5</ele>
        <time>2023-11-26T08:21:31Z</time>
      </trkpt>
      <trkpt lat="43.64035" lon="6.64712">
        <ele>432.5</ele>
        <time>2023-11-26T08:21:32Z</time>
      </trkpt>
      <trkpt lat="43.64036" lon="6.64713">
        <ele>432.5</ele>
        <time>2023-11-26T08:21:33Z</time>
      </trkpt>
      <trkpt lat="43.64037" lon="6.64713">
        <ele>432.5</ele>
        <time>2023-11-26T08:21:34Z</time>
      </trkpt>
      <trkpt lat="43.64038" lon="6.64714">
        <ele>432.4</ele>
        <time>2023-11-26T08:21:35Z</time>
      </trkpt>
      <trkpt lat="43.64039" lon="6.64715">
        <ele>432.4</ele>
        <time>2023-11-26T08:21:36Z</time>
      </trkpt>
      <trkpt lat="43.6404" lon="6.64716">
        <ele>432.4</ele>
        <time>2023-11-26T08:21:37Z</time>
      </trkpt>
      <trkpt lat="43.64041" lon="6.64717">
        <ele>432.4</ele>
        <time>2023-11-26T08:21:38Z</time>
      </trkpt>
      <trkpt lat="43.64042" lon="6.64718">
        <ele>432.4</ele>
        <time>2023-11-26T08:21:39Z</time>
      </trkpt>
      <trkpt lat="43.64043" lon="6.64718">
        <ele>432.4</ele>
        <time>2023-11-26T08:21:40Z</time>
      </trkpt>
      <trkpt lat="43.64045" lon="6.64719">
        <ele>432.4</ele>
        <time>2023-11-26T08:21:41Z</time>
      </trkpt>
      <trkpt lat="43.64046" lon="6.6472">
        <ele>432.4</ele>
        <time>2023-11-26T08:21:42Z</time>
      </trkpt>
      <trkpt lat="43.64048" lon="6.6472">
        <ele>432.3</ele>
        <time>2023-11-26T08:21:43Z</time>
      </trkpt>
      <trkpt lat="43.6405" lon="6.64719">
        <ele>432.3</ele>
        <time>2023-11-26T08:21:44Z</time>
      </trkpt>
      <trkpt lat="43.64051" lon="6.6472">
        <ele>432.3</ele>
        <time>2023-11-26T08:21:45Z</time>
      </trkpt>
      <trkpt lat="43.64052" lon="6.6472">
        <ele>432.4</ele>
        <time>2023-11-26T08:21:46Z</time>
      </trkpt>
      <trkpt lat="43.64053" lon="6.64721">
        <ele>432.4</ele>
        <time>2023-11-26T08:21:47Z</time>
      </trkpt>
      <trkpt lat="43.64055" lon="6.64721">
        <ele>432.5</ele>
        <time>2023-11-26T08:21:48Z</time>
      </trkpt>
      <trkpt lat="43.64056" lon="6.64721">
        <ele>432.4</ele>
        <time>2023-11-26T08:21:49Z</time>
      </trkpt>
      <trkpt lat="43.64057" lon="6.64722">
        <ele>432.4</ele>
        <time>2023-11-26T08:21:50Z</time>
      </trkpt>
      <trkpt lat="43.64058" lon="6.64723">
        <ele>432.4</ele>
        <time>2023-11-26T08:21:51Z</time>
      </trkpt>
      <trkpt lat="43.6406" lon="6.64723">
        <ele>432.4</ele>
        <time>2023-11-26T08:21:52Z</time>
      </trkpt>
      <trkpt lat="43.64061" lon="6.64724">
        <ele>432.4</ele>
        <time>2023-11-26T08:21:53Z</time>
      </trkpt>
      <trkpt lat="43.64062" lon="6.64725">
        <ele>432.4</ele>
        <time>2023-11-26T08:21:54Z</time>
      </trkpt>
      <trkpt lat="43.64063" lon="6.64725">
        <ele>432.4</ele>
        <time>2023-11-26T08:21:55Z</time>
      </trkpt>
      <trkpt lat="43.64064" lon="6.64725">
        <ele>432.4</ele>
        <time>2023-11-26T08:21:56Z</time>
      </trkpt>
      <trkpt lat="43.64064" lon="6.64725">
        <ele>432.5</ele>
        <time>2023-11-26T08:21:57Z</time>
      </trkpt>
      <trkpt lat="43.64066" lon="6.64726">
        <ele>432.6</ele>
        <time>2023-11-26T08:21:58Z</time>
      </trkpt>
      <trkpt lat="43.64067" lon="6.64727">
        <ele>432.7</ele>
        <time>2023-11-26T08:21:59Z</time>
      </trkpt>
      <trkpt lat="43.64068" lon="6.64727">
        <ele>432.7</ele>
        <time>2023-11-26T08:22:00Z</time>
      </trkpt>
      <trkpt lat="43.64069" lon="6.64729">
        <ele>432.8</ele>
        <time>2023-11-26T08:22:01Z</time>
      </trkpt>
      <trkpt lat="43.6407" lon="6.64729">
        <ele>432.8</ele>
        <time>2023-11-26T08:22:02Z</time>
      </trkpt>
      <trkpt lat="43.64072" lon="6.64732">
        <ele>432.8</ele>
        <time>2023-11-26T08:22:03Z</time>
      </trkpt>
      <trkpt lat="43.64073" lon="6.64733">
        <ele>432.9</ele>
        <time>2023-11-26T08:22:04Z</time>
      </trkpt>
      <trkpt lat="43.64074" lon="6.64735">
        <ele>432.9</ele>
        <time>2023-11-26T08:22:05Z</time>
      </trkpt>
      <trkpt lat="43.64075" lon="6.64735">
        <ele>432.9</ele>
        <time>2023-11-26T08:22:06Z</time>
      </trkpt>
      <trkpt lat="43.64076" lon="6.64736">
        <ele>433</ele>
        <time>2023-11-26T08:22:07Z</time>
      </trkpt>
      <trkpt lat="43.64077" lon="6.64738">
        <ele>433</ele>
        <time>2023-11-26T08:22:08Z</time>
      </trkpt>
      <trkpt lat="43.64078" lon="6.64739">
        <ele>433</ele>
        <time>2023-11-26T08:22:09Z</time>
      </trkpt>
      <trkpt lat="43.64079" lon="6.64741">
        <ele>433</ele>
        <time>2023-11-26T08:22:10Z</time>
      </trkpt>
      <trkpt lat="43.6408" lon="6.64742">
        <ele>433</ele>
        <time>2023-11-26T08:22:11Z</time>
      </trkpt>
      <trkpt lat="43.64081" lon="6.64742">
        <ele>433</ele>
        <time>2023-11-26T08:22:12Z</time>
      </trkpt>
      <trkpt lat="43.64082" lon="6.64744">
        <ele>433.1</ele>
        <time>2023-11-26T08:22:13Z</time>
      </trkpt>
      <trkpt lat="43.64083" lon="6.64745">
        <ele>433.1</ele>
        <time>2023-11-26T08:22:14Z</time>
      </trkpt>
      <trkpt lat="43.64084" lon="6.64746">
        <ele>433.2</ele>
        <time>2023-11-26T08:22:15Z</time>
      </trkpt>
      <trkpt lat="43.64085" lon="6.64747">
        <ele>433.2</ele>
        <time>2023-11-26T08:22:16Z</time>
      </trkpt>
      <trkpt lat="43.64085" lon="6.64748">
        <ele>433.2</ele>
        <time>2023-11-26T08:22:17Z</time>
      </trkpt>
      <trkpt lat="43.64086" lon="6.64748">
        <ele>433.3</ele>
        <time>2023-11-26T08:22:18Z</time>
      </trkpt>
      <trkpt lat="43.64087" lon="6.64749">
        <ele>433.3</ele>
        <time>2023-11-26T08:22:19Z</time>
      </trkpt>
      <trkpt lat="43.64089" lon="6.64749">
        <ele>433.4</ele>
        <time>2023-11-26T08:22:20Z</time>
      </trkpt>
      <trkpt lat="43.6409" lon="6.6475">
        <ele>433.5</ele>
        <time>2023-11-26T08:22:21Z</time>
      </trkpt>
      <trkpt lat="43.6409" lon="6.64751">
        <ele>433.5</ele>
        <time>2023-11-26T08:22:22Z</time>
      </trkpt>
      <trkpt lat="43.64091" lon="6.64752">
        <ele>433.7</ele>
        <time>2023-11-26T08:22:23Z</time>
      </trkpt>
      <trkpt lat="43.64092" lon="6.64753">
        <ele>433.9</ele>
        <time>2023-11-26T08:22:24Z</time>
      </trkpt>
      <trkpt lat="43.64093" lon="6.64754">
        <ele>434</ele>
        <time>2023-11-26T08:22:25Z</time>
      </trkpt>
      <trkpt lat="43.64094" lon="6.64755">
        <ele>434.1</ele>
        <time>2023-11-26T08:22:26Z</time>
      </trkpt>
      <trkpt lat="43.64095" lon="6.64756">
        <ele>434.1</ele>
        <time>2023-11-26T08:22:27Z</time>
      </trkpt>
      <trkpt lat="43.64096" lon="6.64757">
        <ele>434.2</ele>
        <time>2023-11-26T08:22:28Z</time>
      </trkpt>
      <trkpt lat="43.64097" lon="6.64758">
        <ele>434.2</ele>
        <time>2023-11-26T08:22:29Z</time>
      </trkpt>
      <trkpt lat="43.64098" lon="6.64758">
        <ele>434.3</ele>
        <time>2023-11-26T08:22:30Z</time>
      </trkpt>
      <trkpt lat="43.64099" lon="6.64759">
        <ele>434.3</ele>
        <time>2023-11-26T08:22:31Z</time>
      </trkpt>
      <trkpt lat="43.64101" lon="6.64758">
        <ele>434.4</ele>
        <time>2023-11-26T08:22:32Z</time>
      </trkpt>
      <trkpt lat="43.64102" lon="6.64759">
        <ele>434.4</ele>
        <time>2023-11-26T08:22:33Z</time>
      </trkpt>
      <trkpt lat="43.64102" lon="6.64761">
        <ele>434.5</ele>
        <time>2023-11-26T08:22:34Z</time>
      </trkpt>
      <trkpt lat="43.64103" lon="6.64762">
        <ele>434.5</ele>
        <time>2023-11-26T08:22:35Z</time>
      </trkpt>
      <trkpt lat="43.64104" lon="6.64763">
        <ele>434.6</ele>
        <time>2023-11-26T08:22:36Z</time>
      </trkpt>
      <trkpt lat="43.64106" lon="6.64764">
        <ele>434.7</ele>
        <time>2023-11-26T08:22:37Z</time>
      </trkpt>
      <trkpt lat="43.64106" lon="6.64766">
        <ele>434.8</ele>
        <time>2023-11-26T08:22:38Z</time>
      </trkpt>
      <trkpt lat="43.64107" lon="6.64767">
        <ele>434.9</ele>
        <time>2023-11-26T08:22:39Z</time>
      </trkpt>
      <trkpt lat="43.64108" lon="6.64767">
        <ele>435</ele>
        <time>2023-11-26T08:22:40Z</time>
      </trkpt>
      <trkpt lat="43.64109" lon="6.64768">
        <ele>435.1</ele>
        <time>2023-11-26T08:22:41Z</time>
      </trkpt>
      <trkpt lat="43.6411" lon="6.6477">
        <ele>435.3</ele>
        <time>2023-11-26T08:22:42Z</time>
      </trkpt>
      <trkpt lat="43.64111" lon="6.6477">
        <ele>435.3</ele>
        <time>2023-11-26T08:22:43Z</time>
      </trkpt>
      <trkpt lat="43.64113" lon="6.6477">
        <ele>435.5</ele>
        <time>2023-11-26T08:22:44Z</time>
      </trkpt>
      <trkpt lat="43.64113" lon="6.64769">
        <ele>435.6</ele>
        <time>2023-11-26T08:22:45Z</time>
      </trkpt>
      <trkpt lat="43.64114" lon="6.64769">
        <ele>435.7</ele>
        <time>2023-11-26T08:22:46Z</time>
      </trkpt>
      <trkpt lat="43.64115" lon="6.64768">
        <ele>435.8</ele>
        <time>2023-11-26T08:22:47Z</time>
      </trkpt>
      <trkpt lat="43.64115" lon="6.64769">
        <ele>435.9</ele>
        <time>2023-11-26T08:22:48Z</time>
      </trkpt>
      <trkpt lat="43.64115" lon="6.64769">
        <ele>435.9</ele>
        <time>2023-11-26T08:22:49Z</time>
      </trkpt>
      <trkpt lat="43.64115" lon="6.64768">
        <ele>436</ele>
        <time>2023-11-26T08:22:50Z</time>
      </trkpt>
      <trkpt lat="43.64116" lon="6.64769">
        <ele>436.1</ele>
        <time>2023-11-26T08:22:51Z</time>
      </trkpt>
      <trkpt lat="43.64117" lon="6.64769">
        <ele>436.1</ele>
        <time>2023-11-26T08:22:52Z</time>
      </trkpt>
      <trkpt lat="43.64118" lon="6.6477">
        <ele>436.2</ele>
        <time>2023-11-26T08:22:53Z</time>
      </trkpt>
      <trkpt lat="43.64119" lon="6.64771">
        <ele>436.3</ele>
        <time>2023-11-26T08:22:54Z</time>
      </trkpt>
      <trkpt lat="43.6412" lon="6.64772">
        <ele>436.3</ele>
        <time>2023-11-26T08:22:55Z</time>
      </trkpt>
      <trkpt lat="43.64121" lon="6.64773">
        <ele>436.4</ele>
        <time>2023-11-26T08:22:56Z</time>
      </trkpt>
      <trkpt lat="43.64122" lon="6.64774">
        <ele>436.5</ele>
        <time>2023-11-26T08:22:57Z</time>
      </trkpt>
      <trkpt lat="43.64123" lon="6.64774">
        <ele>436.7</ele>
        <time>2023-11-26T08:22:58Z</time>
      </trkpt>
      <trkpt lat="43.64124" lon="6.64775">
        <ele>436.9</ele>
        <time>2023-11-26T08:22:59Z</time>
      </trkpt>
      <trkpt lat="43.64125" lon="6.64775">
        <ele>436.8</ele>
        <time>2023-11-26T08:23:00Z</time>
      </trkpt>
      <trkpt lat="43.64125" lon="6.64775">
        <ele>436.9</ele>
        <time>2023-11-26T08:23:01Z</time>
      </trkpt>
      <trkpt lat="43.64126" lon="6.64776">
        <ele>436.8</ele>
        <time>2023-11-26T08:23:02Z</time>
      </trkpt>
      <trkpt lat="43.64127" lon="6.64776">
        <ele>436.8</ele>
        <time>2023-11-26T08:23:03Z</time>
      </trkpt>
      <trkpt lat="43.64128" lon="6.64776">
        <ele>436.9</ele>
        <time>2023-11-26T08:23:04Z</time>
      </trkpt>
      <trkpt lat="43.64129" lon="6.64776">
        <ele>436.9</ele>
        <time>2023-11-26T08:23:05Z</time>
      </trkpt>
      <trkpt lat="43.64129" lon="6.64777">
        <ele>437.1</ele>
        <time>2023-11-26T08:23:06Z</time>
      </trkpt>
      <trkpt lat="43.6413" lon="6.64777">
        <ele>437.2</ele>
        <time>2023-11-26T08:23:07Z</time>
      </trkpt>
      <trkpt lat="43.64131" lon="6.64779">
        <ele>437.3</ele>
        <time>2023-11-26T08:23:08Z</time>
      </trkpt>
      <trkpt lat="43.64132" lon="6.6478">
        <ele>437.4</ele>
        <time>2023-11-26T08:23:09Z</time>
      </trkpt>
      <trkpt lat="43.64133" lon="6.64781">
        <ele>437.5</ele>
        <time>2023-11-26T08:23:10Z</time>
      </trkpt>
      <trkpt lat="43.64133" lon="6.64782">
        <ele>437.7</ele>
        <time>2023-11-26T08:23:11Z</time>
      </trkpt>
      <trkpt lat="43.64134" lon="6.64782">
        <ele>437.8</ele>
        <time>2023-11-26T08:23:12Z</time>
      </trkpt>
      <trkpt lat="43.64135" lon="6.64783">
        <ele>438.1</ele>
        <time>2023-11-26T08:23:13Z</time>
      </trkpt>
      <trkpt lat="43.64136" lon="6.64784">
        <ele>438.2</ele>
        <time>2023-11-26T08:23:14Z</time>
      </trkpt>
      <trkpt lat="43.64137" lon="6.64785">
        <ele>438.4</ele>
        <time>2023-11-26T08:23:15Z</time>
      </trkpt>
      <trkpt lat="43.64138" lon="6.64785">
        <ele>438.5</ele>
        <time>2023-11-26T08:23:16Z</time>
      </trkpt>
      <trkpt lat="43.64138" lon="6.64786">
        <ele>438.6</ele>
        <time>2023-11-26T08:23:17Z</time>
      </trkpt>
      <trkpt lat="43.64139" lon="6.64787">
        <ele>438.6</ele>
        <time>2023-11-26T08:23:18Z</time>
      </trkpt>
      <trkpt lat="43.64141" lon="6.64788">
        <ele>438.7</ele>
        <time>2023-11-26T08:23:19Z</time>
      </trkpt>
      <trkpt lat="43.64142" lon="6.64788">
        <ele>438.8</ele>
        <time>2023-11-26T08:23:20Z</time>
      </trkpt>
      <trkpt lat="43.64143" lon="6.64789">
        <ele>438.9</ele>
        <time>2023-11-26T08:23:21Z</time>
      </trkpt>
      <trkpt lat="43.64144" lon="6.64789">
        <ele>439</ele>
        <time>2023-11-26T08:23:22Z</time>
      </trkpt>
      <trkpt lat="43.64145" lon="6.64791">
        <ele>439</ele>
        <time>2023-11-26T08:23:23Z</time>
      </trkpt>
      <trkpt lat="43.64146" lon="6.64792">
        <ele>439.1</ele>
        <time>2023-11-26T08:23:24Z</time>
      </trkpt>
      <trkpt lat="43.64147" lon="6.64793">
        <ele>439.2</ele>
        <time>2023-11-26T08:23:25Z</time>
      </trkpt>
      <trkpt lat="43.64148" lon="6.64794">
        <ele>439.4</ele>
        <time>2023-11-26T08:23:26Z</time>
      </trkpt>
      <trkpt lat="43.64149" lon="6.64793">
        <ele>439.5</ele>
        <time>2023-11-26T08:23:27Z</time>
      </trkpt>
      <trkpt lat="43.64151" lon="6.64794">
        <ele>439.5</ele>
        <time>2023-11-26T08:23:28Z</time>
      </trkpt>
      <trkpt lat="43.64152" lon="6.64794">
        <ele>439.6</ele>
        <time>2023-11-26T08:23:29Z</time>
      </trkpt>
      <trkpt lat="43.64153" lon="6.64794">
        <ele>439.7</ele>
        <time>2023-11-26T08:23:30Z</time>
      </trkpt>
      <trkpt lat="43.64154" lon="6.64795">
        <ele>439.7</ele>
        <time>2023-11-26T08:23:31Z</time>
      </trkpt>
      <trkpt lat="43.64156" lon="6.64795">
        <ele>439.8</ele>
        <time>2023-11-26T08:23:32Z</time>
      </trkpt>
      <trkpt lat="43.64157" lon="6.64795">
        <ele>439.9</ele>
        <time>2023-11-26T08:23:33Z</time>
      </trkpt>
      <trkpt lat="43.64158" lon="6.64795">
        <ele>440</ele>
        <time>2023-11-26T08:23:34Z</time>
      </trkpt>
      <trkpt lat="43.6416" lon="6.64795">
        <ele>440</ele>
        <time>2023-11-26T08:23:35Z</time>
      </trkpt>
      <trkpt lat="43.64161" lon="6.64795">
        <ele>440.1</ele>
        <time>2023-11-26T08:23:36Z</time>
      </trkpt>
      <trkpt lat="43.64162" lon="6.64796">
        <ele>440.2</ele>
        <time>2023-11-26T08:23:37Z</time>
      </trkpt>
      <trkpt lat="43.64162" lon="6.64796">
        <ele>440.2</ele>
        <time>2023-11-26T08:23:38Z</time>
      </trkpt>
      <trkpt lat="43.64163" lon="6.64796">
        <ele>440.4</ele>
        <time>2023-11-26T08:23:39Z</time>
      </trkpt>
      <trkpt lat="43.64164" lon="6.64797">
        <ele>440.4</ele>
        <time>2023-11-26T08:23:40Z</time>
      </trkpt>
      <trkpt lat="43.64164" lon="6.64797">
        <ele>440.6</ele>
        <time>2023-11-26T08:23:41Z</time>
      </trkpt>
      <trkpt lat="43.64165" lon="6.64798">
        <ele>440.7</ele>
        <time>2023-11-26T08:23:42Z</time>
      </trkpt>
      <trkpt lat="43.64167" lon="6.64799">
        <ele>440.8</ele>
        <time>2023-11-26T08:23:43Z</time>
      </trkpt>
      <trkpt lat="43.64168" lon="6.64799">
        <ele>440.9</ele>
        <time>2023-11-26T08:23:44Z</time>
      </trkpt>
      <trkpt lat="43.64169" lon="6.648">
        <ele>440.8</ele>
        <time>2023-11-26T08:23:45Z</time>
      </trkpt>
      <trkpt lat="43.64169" lon="6.64802">
        <ele>440.8</ele>
        <time>2023-11-26T08:23:46Z</time>
      </trkpt>
      <trkpt lat="43.6417" lon="6.64803">
        <ele>440.9</ele>
        <time>2023-11-26T08:23:47Z</time>
      </trkpt>
      <trkpt lat="43.64171" lon="6.64803">
        <ele>441.1</ele>
        <time>2023-11-26T08:23:48Z</time>
      </trkpt>
      <trkpt lat="43.64172" lon="6.64803">
        <ele>441.2</ele>
        <time>2023-11-26T08:23:49Z</time>
      </trkpt>
      <trkpt lat="43.64173" lon="6.64803">
        <ele>441.4</ele>
        <time>2023-11-26T08:23:50Z</time>
      </trkpt>
      <trkpt lat="43.64174" lon="6.64804">
        <ele>441.5</ele>
        <time>2023-11-26T08:23:51Z</time>
      </trkpt>
      <trkpt lat="43.64175" lon="6.64805">
        <ele>441.6</ele>
        <time>2023-11-26T08:23:52Z</time>
      </trkpt>
      <trkpt lat="43.64176" lon="6.64806">
        <ele>441.8</ele>
        <time>2023-11-26T08:23:53Z</time>
      </trkpt>
      <trkpt lat="43.64177" lon="6.64808">
        <ele>442</ele>
        <time>2023-11-26T08:23:54Z</time>
      </trkpt>
      <trkpt lat="43.64178" lon="6.64808">
        <ele>442.1</ele>
        <time>2023-11-26T08:23:55Z</time>
      </trkpt>
      <trkpt lat="43.64178" lon="6.64809">
        <ele>442.3</ele>
        <time>2023-11-26T08:23:56Z</time>
      </trkpt>
      <trkpt lat="43.6418" lon="6.6481">
        <ele>442.4</ele>
        <time>2023-11-26T08:23:57Z</time>
      </trkpt>
      <trkpt lat="43.64181" lon="6.6481">
        <ele>442.5</ele>
        <time>2023-11-26T08:23:58Z</time>
      </trkpt>
      <trkpt lat="43.64182" lon="6.64811">
        <ele>442.5</ele>
        <time>2023-11-26T08:23:59Z</time>
      </trkpt>
      <trkpt lat="43.64183" lon="6.64812">
        <ele>442.6</ele>
        <time>2023-11-26T08:24:00Z</time>
      </trkpt>
      <trkpt lat="43.64184" lon="6.64814">
        <ele>442.7</ele>
        <time>2023-11-26T08:24:01Z</time>
      </trkpt>
      <trkpt lat="43.64185" lon="6.64815">
        <ele>442.7</ele>
        <time>2023-11-26T08:24:02Z</time>
      </trkpt>
      <trkpt lat="43.64186" lon="6.64816">
        <ele>442.8</ele>
        <time>2023-11-26T08:24:03Z</time>
      </trkpt>
      <trkpt lat="43.64187" lon="6.64817">
        <ele>443</ele>
        <time>2023-11-26T08:24:04Z</time>
      </trkpt>
      <trkpt lat="43.64188" lon="6.64817">
        <ele>443.2</ele>
        <time>2023-11-26T08:24:05Z</time>
      </trkpt>
      <trkpt lat="43.64189" lon="6.64819">
        <ele>443.3</ele>
        <time>2023-11-26T08:24:06Z</time>
      </trkpt>
      <trkpt lat="43.6419" lon="6.6482">
        <ele>443.5</ele>
        <time>2023-11-26T08:24:07Z</time>
      </trkpt>
      <trkpt lat="43.64191" lon="6.64822">
        <ele>443.8</ele>
        <time>2023-11-26T08:24:08Z</time>
      </trkpt>
      <trkpt lat="43.64192" lon="6.64823">
        <ele>443.9</ele>
        <time>2023-11-26T08:24:09Z</time>
      </trkpt>
      <trkpt lat="43.64193" lon="6.64824">
        <ele>444</ele>
        <time>2023-11-26T08:24:10Z</time>
      </trkpt>
      <trkpt lat="43.64194" lon="6.64825">
        <ele>444</ele>
        <time>2023-11-26T08:24:11Z</time>
      </trkpt>
      <trkpt lat="43.64195" lon="6.64826">
        <ele>444.1</ele>
        <time>2023-11-26T08:24:12Z</time>
      </trkpt>
      <trkpt lat="43.64196" lon="6.64826">
        <ele>444.2</ele>
        <time>2023-11-26T08:24:13Z</time>
      </trkpt>
      <trkpt lat="43.64198" lon="6.64826">
        <ele>444.3</ele>
        <time>2023-11-26T08:24:14Z</time>
      </trkpt>
      <trkpt lat="43.64199" lon="6.64827">
        <ele>444.6</ele>
        <time>2023-11-26T08:24:15Z</time>
      </trkpt>
      <trkpt lat="43.642" lon="6.64827">
        <ele>444.8</ele>
        <time>2023-11-26T08:24:16Z</time>
      </trkpt>
      <trkpt lat="43.64201" lon="6.64827">
        <ele>444.9</ele>
        <time>2023-11-26T08:24:17Z</time>
      </trkpt>
      <trkpt lat="43.64202" lon="6.64826">
        <ele>445.1</ele>
        <time>2023-11-26T08:24:18Z</time>
      </trkpt>
      <trkpt lat="43.64203" lon="6.64827">
        <ele>445.2</ele>
        <time>2023-11-26T08:24:19Z</time>
      </trkpt>
      <trkpt lat="43.64204" lon="6.64828">
        <ele>445.4</ele>
        <time>2023-11-26T08:24:20Z</time>
      </trkpt>
      <trkpt lat="43.64205" lon="6.64828">
        <ele>445.6</ele>
        <time>2023-11-26T08:24:21Z</time>
      </trkpt>
      <trkpt lat="43.64207" lon="6.64828">
        <ele>445.8</ele>
        <time>2023-11-26T08:24:22Z</time>
      </trkpt>
      <trkpt lat="43.64208" lon="6.64829">
        <ele>446</ele>
        <time>2023-11-26T08:24:23Z</time>
      </trkpt>
      <trkpt lat="43.64209" lon="6.64829">
        <ele>446.1</ele>
        <time>2023-11-26T08:24:24Z</time>
      </trkpt>
      <trkpt lat="43.6421" lon="6.6483">
        <ele>446.3</ele>
        <time>2023-11-26T08:24:25Z</time>
      </trkpt>
      <trkpt lat="43.6421" lon="6.6483">
        <ele>446.5</ele>
        <time>2023-11-26T08:24:26Z</time>
      </trkpt>
      <trkpt lat="43.64211" lon="6.64831">
        <ele>446.6</ele>
        <time>2023-11-26T08:24:27Z</time>
      </trkpt>
      <trkpt lat="43.64212" lon="6.64831">
        <ele>446.8</ele>
        <time>2023-11-26T08:24:28Z</time>
      </trkpt>
      <trkpt lat="43.64213" lon="6.64832">
        <ele>447</ele>
        <time>2023-11-26T08:24:29Z</time>
      </trkpt>
      <trkpt lat="43.64214" lon="6.64832">
        <ele>447.2</ele>
        <time>2023-11-26T08:24:30Z</time>
      </trkpt>
      <trkpt lat="43.64215" lon="6.64832">
        <ele>447.4</ele>
        <time>2023-11-26T08:24:31Z</time>
      </trkpt>
      <trkpt lat="43.64215" lon="6.64833">
        <ele>447.7</ele>
        <time>2023-11-26T08:24:32Z</time>
      </trkpt>
      <trkpt lat="43.64216" lon="6.64833">
        <ele>447.9</ele>
        <time>2023-11-26T08:24:33Z</time>
      </trkpt>
      <trkpt lat="43.64217" lon="6.64833">
        <ele>448.1</ele>
        <time>2023-11-26T08:24:34Z</time>
      </trkpt>
      <trkpt lat="43.64218" lon="6.64833">
        <ele>448.2</ele>
        <time>2023-11-26T08:24:35Z</time>
      </trkpt>
      <trkpt lat="43.64219" lon="6.64834">
        <ele>448.4</ele>
        <time>2023-11-26T08:24:36Z</time>
      </trkpt>
      <trkpt lat="43.64219" lon="6.64835">
        <ele>448.6</ele>
        <time>2023-11-26T08:24:37Z</time>
      </trkpt>
      <trkpt lat="43.64219" lon="6.64835">
        <ele>449</ele>
        <time>2023-11-26T08:24:38Z</time>
      </trkpt>
      <trkpt lat="43.6422" lon="6.64835">
        <ele>449.2</ele>
        <time>2023-11-26T08:24:39Z</time>
      </trkpt>
      <trkpt lat="43.6422" lon="6.64836">
        <ele>449.5</ele>
        <time>2023-11-26T08:24:40Z</time>
      </trkpt>
      <trkpt lat="43.64221" lon="6.64836">
        <ele>449.7</ele>
        <time>2023-11-26T08:24:41Z</time>
      </trkpt>
      <trkpt lat="43.64221" lon="6.64837">
        <ele>449.9</ele>
        <time>2023-11-26T08:24:42Z</time>
      </trkpt>
      <trkpt lat="43.64222" lon="6.64837">
        <ele>450.1</ele>
        <time>2023-11-26T08:24:43Z</time>
      </trkpt>
      <trkpt lat="43.64222" lon="6.64838">
        <ele>450.2</ele>
        <time>2023-11-26T08:24:44Z</time>
      </trkpt>
      <trkpt lat="43.64223" lon="6.64838">
        <ele>450.4</ele>
        <time>2023-11-26T08:24:45Z</time>
      </trkpt>
      <trkpt lat="43.64223" lon="6.64839">
        <ele>450.5</ele>
        <time>2023-11-26T08:24:46Z</time>
      </trkpt>
      <trkpt lat="43.64224" lon="6.64838">
        <ele>450.7</ele>
        <time>2023-11-26T08:24:47Z</time>
      </trkpt>
      <trkpt lat="43.64225" lon="6.64839">
        <ele>450.9</ele>
        <time>2023-11-26T08:24:48Z</time>
      </trkpt>
      <trkpt lat="43.64225" lon="6.6484">
        <ele>451.1</ele>
        <time>2023-11-26T08:24:49Z</time>
      </trkpt>
      <trkpt lat="43.64226" lon="6.6484">
        <ele>451.2</ele>
        <time>2023-11-26T08:24:50Z</time>
      </trkpt>
      <trkpt lat="43.64227" lon="6.64841">
        <ele>451.4</ele>
        <time>2023-11-26T08:24:51Z</time>
      </trkpt>
      <trkpt lat="43.64228" lon="6.64841">
        <ele>451.6</ele>
        <time>2023-11-26T08:24:52Z</time>
      </trkpt>
      <trkpt lat="43.64229" lon="6.6484">
        <ele>451.9</ele>
        <time>2023-11-26T08:24:53Z</time>
      </trkpt>
      <trkpt lat="43.6423" lon="6.64841">
        <ele>452.1</ele>
        <time>2023-11-26T08:24:54Z</time>
      </trkpt>
      <trkpt lat="43.6423" lon="6.6484">
        <ele>452.3</ele>
        <time>2023-11-26T08:24:55Z</time>
      </trkpt>
      <trkpt lat="43.64231" lon="6.64841">
        <ele>452.4</ele>
        <time>2023-11-26T08:24:56Z</time>
      </trkpt>
      <trkpt lat="43.64232" lon="6.64841">
        <ele>452.6</ele>
        <time>2023-11-26T08:24:57Z</time>
      </trkpt>
      <trkpt lat="43.64233" lon="6.64841">
        <ele>452.7</ele>
        <time>2023-11-26T08:24:58Z</time>
      </trkpt>
      <trkpt lat="43.64234" lon="6.64841">
        <ele>452.9</ele>
        <time>2023-11-26T08:24:59Z</time>
      </trkpt>
      <trkpt lat="43.64234" lon="6.64841">
        <ele>453.1</ele>
        <time>2023-11-26T08:25:00Z</time>
      </trkpt>
      <trkpt lat="43.64235" lon="6.64842">
        <ele>453.2</ele>
        <time>2023-11-26T08:25:01Z</time>
      </trkpt>
      <trkpt lat="43.64236" lon="6.64842">
        <ele>453.3</ele>
        <time>2023-11-26T08:25:02Z</time>
      </trkpt>
      <trkpt lat="43.64237" lon="6.64843">
        <ele>453.4</ele>
        <time>2023-11-26T08:25:03Z</time>
      </trkpt>
      <trkpt lat="43.64237" lon="6.64844">
        <ele>453.5</ele>
        <time>2023-11-26T08:25:04Z</time>
      </trkpt>
      <trkpt lat="43.64238" lon="6.64845">
        <ele>453.5</ele>
        <time>2023-11-26T08:25:05Z</time>
      </trkpt>
      <trkpt lat="43.64239" lon="6.64845">
        <ele>453.6</ele>
        <time>2023-11-26T08:25:06Z</time>
      </trkpt>
      <trkpt lat="43.6424" lon="6.64846">
        <ele>453.6</ele>
        <time>2023-11-26T08:25:07Z</time>
      </trkpt>
      <trkpt lat="43.64241" lon="6.64846">
        <ele>453.6</ele>
        <time>2023-11-26T08:25:08Z</time>
      </trkpt>
      <trkpt lat="43.64242" lon="6.64847">
        <ele>453.5</ele>
        <time>2023-11-26T08:25:09Z</time>
      </trkpt>
      <trkpt lat="43.64243" lon="6.64847">
        <ele>453.5</ele>
        <time>2023-11-26T08:25:10Z</time>
      </trkpt>
      <trkpt lat="43.64244" lon="6.64848">
        <ele>453.6</ele>
        <time>2023-11-26T08:25:11Z</time>
      </trkpt>
      <trkpt lat="43.64245" lon="6.64848">
        <ele>453.6</ele>
        <time>2023-11-26T08:25:12Z</time>
      </trkpt>
      <trkpt lat="43.64245" lon="6.64849">
        <ele>453.6</ele>
        <time>2023-11-26T08:25:13Z</time>
      </trkpt>
      <trkpt lat="43.64246" lon="6.64849">
        <ele>453.7</ele>
        <time>2023-11-26T08:25:14Z</time>
      </trkpt>
      <trkpt lat="43.64247" lon="6.6485">
        <ele>453.8</ele>
        <time>2023-11-26T08:25:15Z</time>
      </trkpt>
      <trkpt lat="43.64248" lon="6.6485">
        <ele>454</ele>
        <time>2023-11-26T08:25:16Z</time>
      </trkpt>
      <trkpt lat="43.64249" lon="6.64851">
        <ele>454</ele>
        <time>2023-11-26T08:25:17Z</time>
      </trkpt>
      <trkpt lat="43.6425" lon="6.64852">
        <ele>454</ele>
        <time>2023-11-26T08:25:18Z</time>
      </trkpt>
      <trkpt lat="43.64251" lon="6.64852">
        <ele>454</ele>
        <time>2023-11-26T08:25:19Z</time>
      </trkpt>
      <trkpt lat="43.64252" lon="6.64852">
        <ele>454.1</ele>
        <time>2023-11-26T08:25:20Z</time>
      </trkpt>
      <trkpt lat="43.64253" lon="6.64853">
        <ele>454.2</ele>
        <time>2023-11-26T08:25:21Z</time>
      </trkpt>
      <trkpt lat="43.64253" lon="6.64853">
        <ele>454.3</ele>
        <time>2023-11-26T08:25:22Z</time>
      </trkpt>
      <trkpt lat="43.64254" lon="6.64853">
        <ele>454.4</ele>
        <time>2023-11-26T08:25:23Z</time>
      </trkpt>
      <trkpt lat="43.64254" lon="6.64853">
        <ele>454.5</ele>
        <time>2023-11-26T08:25:24Z</time>
      </trkpt>
      <trkpt lat="43.64255" lon="6.64853">
        <ele>454.7</ele>
        <time>2023-11-26T08:25:25Z</time>
      </trkpt>
      <trkpt lat="43.64256" lon="6.64853">
        <ele>454.9</ele>
        <time>2023-11-26T08:25:26Z</time>
      </trkpt>
      <trkpt lat="43.64256" lon="6.64854">
        <ele>455</ele>
        <time>2023-11-26T08:25:27Z</time>
      </trkpt>
      <trkpt lat="43.64257" lon="6.64855">
        <ele>455.1</ele>
        <time>2023-11-26T08:25:28Z</time>
      </trkpt>
      <trkpt lat="43.64258" lon="6.64855">
        <ele>455.2</ele>
        <time>2023-11-26T08:25:29Z</time>
      </trkpt>
      <trkpt lat="43.64259" lon="6.64856">
        <ele>455.3</ele>
        <time>2023-11-26T08:25:30Z</time>
      </trkpt>
      <trkpt lat="43.6426" lon="6.64856">
        <ele>455.4</ele>
        <time>2023-11-26T08:25:31Z</time>
      </trkpt>
      <trkpt lat="43.64261" lon="6.64857">
        <ele>455.6</ele>
        <time>2023-11-26T08:25:32Z</time>
      </trkpt>
      <trkpt lat="43.64262" lon="6.64858">
        <ele>455.8</ele>
        <time>2023-11-26T08:25:33Z</time>
      </trkpt>
      <trkpt lat="43.64262" lon="6.64858">
        <ele>455.9</ele>
        <time>2023-11-26T08:25:34Z</time>
      </trkpt>
      <trkpt lat="43.64263" lon="6.64858">
        <ele>456.1</ele>
        <time>2023-11-26T08:25:35Z</time>
      </trkpt>
      <trkpt lat="43.64264" lon="6.64859">
        <ele>456.3</ele>
        <time>2023-11-26T08:25:36Z</time>
      </trkpt>
      <trkpt lat="43.64264" lon="6.64859">
        <ele>456.4</ele>
        <time>2023-11-26T08:25:37Z</time>
      </trkpt>
      <trkpt lat="43.64265" lon="6.64858">
        <ele>456.6</ele>
        <time>2023-11-26T08:25:38Z</time>
      </trkpt>
      <trkpt lat="43.64266" lon="6.64858">
        <ele>456.7</ele>
        <time>2023-11-26T08:25:39Z</time>
      </trkpt>
      <trkpt lat="43.64266" lon="6.64858">
        <ele>456.8</ele>
        <time>2023-11-26T08:25:40Z</time>
      </trkpt>
      <trkpt lat="43.64267" lon="6.64858">
        <ele>457</ele>
        <time>2023-11-26T08:25:41Z</time>
      </trkpt>
      <trkpt lat="43.64269" lon="6.64857">
        <ele>457.2</ele>
        <time>2023-11-26T08:25:42Z</time>
      </trkpt>
      <trkpt lat="43.6427" lon="6.64857">
        <ele>457.4</ele>
        <time>2023-11-26T08:25:43Z</time>
      </trkpt>
      <trkpt lat="43.6427" lon="6.64857">
        <ele>457.6</ele>
        <time>2023-11-26T08:25:44Z</time>
      </trkpt>
      <trkpt lat="43.64271" lon="6.64857">
        <ele>457.8</ele>
        <time>2023-11-26T08:25:45Z</time>
      </trkpt>
      <trkpt lat="43.64271" lon="6.64858">
        <ele>458</ele>
        <time>2023-11-26T08:25:46Z</time>
      </trkpt>
      <trkpt lat="43.64272" lon="6.64858">
        <ele>458</ele>
        <time>2023-11-26T08:25:47Z</time>
      </trkpt>
      <trkpt lat="43.64273" lon="6.64858">
        <ele>458.3</ele>
        <time>2023-11-26T08:25:48Z</time>
      </trkpt>
      <trkpt lat="43.64273" lon="6.64859">
        <ele>458.5</ele>
        <time>2023-11-26T08:25:49Z</time>
      </trkpt>
      <trkpt lat="43.64274" lon="6.64859">
        <ele>458.7</ele>
        <time>2023-11-26T08:25:50Z</time>
      </trkpt>
      <trkpt lat="43.64274" lon="6.64859">
        <ele>458.8</ele>
        <time>2023-11-26T08:25:51Z</time>
      </trkpt>
      <trkpt lat="43.64274" lon="6.64859">
        <ele>458.9</ele>
        <time>2023-11-26T08:25:52Z</time>
      </trkpt>
      <trkpt lat="43.64275" lon="6.64859">
        <ele>459.1</ele>
        <time>2023-11-26T08:25:53Z</time>
      </trkpt>
      <trkpt lat="43.64276" lon="6.64858">
        <ele>459.3</ele>
        <time>2023-11-26T08:25:54Z</time>
      </trkpt>
      <trkpt lat="43.64277" lon="6.64858">
        <ele>459.4</ele>
        <time>2023-11-26T08:25:55Z</time>
      </trkpt>
      <trkpt lat="43.64278" lon="6.64858">
        <ele>459.7</ele>
        <time>2023-11-26T08:25:56Z</time>
      </trkpt>
      <trkpt lat="43.64278" lon="6.64859">
        <ele>459.9</ele>
        <time>2023-11-26T08:25:57Z</time>
      </trkpt>
      <trkpt lat="43.64279" lon="6.64857">
        <ele>460</ele>
        <time>2023-11-26T08:25:58Z</time>
      </trkpt>
      <trkpt lat="43.6428" lon="6.64857">
        <ele>460.2</ele>
        <time>2023-11-26T08:25:59Z</time>
      </trkpt>
      <trkpt lat="43.64281" lon="6.64856">
        <ele>460.2</ele>
        <time>2023-11-26T08:26:00Z</time>
      </trkpt>
      <trkpt lat="43.64282" lon="6.64855">
        <ele>460.3</ele>
        <time>2023-11-26T08:26:01Z</time>
      </trkpt>
      <trkpt lat="43.64282" lon="6.64854">
        <ele>460.5</ele>
        <time>2023-11-26T08:26:02Z</time>
      </trkpt>
      <trkpt lat="43.64283" lon="6.64853">
        <ele>460.8</ele>
        <time>2023-11-26T08:26:03Z</time>
      </trkpt>
      <trkpt lat="43.64283" lon="6.64853">
        <ele>461</ele>
        <time>2023-11-26T08:26:04Z</time>
      </trkpt>
      <trkpt lat="43.64284" lon="6.64852">
        <ele>461.2</ele>
        <time>2023-11-26T08:26:05Z</time>
      </trkpt>
      <trkpt lat="43.64285" lon="6.64852">
        <ele>461.4</ele>
        <time>2023-11-26T08:26:06Z</time>
      </trkpt>
      <trkpt lat="43.64285" lon="6.64852">
        <ele>461.6</ele>
        <time>2023-11-26T08:26:07Z</time>
      </trkpt>
      <trkpt lat="43.64286" lon="6.64851">
        <ele>461.8</ele>
        <time>2023-11-26T08:26:08Z</time>
      </trkpt>
      <trkpt lat="43.64286" lon="6.64851">
        <ele>461.9</ele>
        <time>2023-11-26T08:26:09Z</time>
      </trkpt>
      <trkpt lat="43.64287" lon="6.64851">
        <ele>462.1</ele>
        <time>2023-11-26T08:26:10Z</time>
      </trkpt>
      <trkpt lat="43.64289" lon="6.64848">
        <ele>462.3</ele>
        <time>2023-11-26T08:26:11Z</time>
      </trkpt>
      <trkpt lat="43.6429" lon="6.64848">
        <ele>462.5</ele>
        <time>2023-11-26T08:26:12Z</time>
      </trkpt>
      <trkpt lat="43.64291" lon="6.64847">
        <ele>462.6</ele>
        <time>2023-11-26T08:26:13Z</time>
      </trkpt>
      <trkpt lat="43.64292" lon="6.64846">
        <ele>462.7</ele>
        <time>2023-11-26T08:26:14Z</time>
      </trkpt>
      <trkpt lat="43.64293" lon="6.64846">
        <ele>462.9</ele>
        <time>2023-11-26T08:26:15Z</time>
      </trkpt>
      <trkpt lat="43.64294" lon="6.64846">
        <ele>463</ele>
        <time>2023-11-26T08:26:16Z</time>
      </trkpt>
      <trkpt lat="43.64295" lon="6.64846">
        <ele>463.2</ele>
        <time>2023-11-26T08:26:17Z</time>
      </trkpt>
      <trkpt lat="43.64295" lon="6.64846">
        <ele>463.2</ele>
        <time>2023-11-26T08:26:18Z</time>
      </trkpt>
      <trkpt lat="43.64296" lon="6.64846">
        <ele>463.5</ele>
        <time>2023-11-26T08:26:19Z</time>
      </trkpt>
      <trkpt lat="43.64296" lon="6.64846">
        <ele>463.8</ele>
        <time>2023-11-26T08:26:20Z</time>
      </trkpt>
      <trkpt lat="43.64297" lon="6.64846">
        <ele>463.9</ele>
        <time>2023-11-26T08:26:21Z</time>
      </trkpt>
      <trkpt lat="43.64299" lon="6.64846">
        <ele>464</ele>
        <time>2023-11-26T08:26:22Z</time>
      </trkpt>
      <trkpt lat="43.64299" lon="6.64846">
        <ele>464.1</ele>
        <time>2023-11-26T08:26:23Z</time>
      </trkpt>
      <trkpt lat="43.64301" lon="6.64844">
        <ele>464.2</ele>
        <time>2023-11-26T08:26:24Z</time>
      </trkpt>
      <trkpt lat="43.64301" lon="6.64843">
        <ele>464.4</ele>
        <time>2023-11-26T08:26:25Z</time>
      </trkpt>
      <trkpt lat="43.64302" lon="6.64842">
        <ele>464.5</ele>
        <time>2023-11-26T08:26:26Z</time>
      </trkpt>
      <trkpt lat="43.64303" lon="6.6484">
        <ele>464.7</ele>
        <time>2023-11-26T08:26:27Z</time>
      </trkpt>
      <trkpt lat="43.64303" lon="6.6484">
        <ele>464.9</ele>
        <time>2023-11-26T08:26:28Z</time>
      </trkpt>
      <trkpt lat="43.64304" lon="6.64838">
        <ele>465.1</ele>
        <time>2023-11-26T08:26:29Z</time>
      </trkpt>
      <trkpt lat="43.64304" lon="6.64837">
        <ele>465.3</ele>
        <time>2023-11-26T08:26:30Z</time>
      </trkpt>
      <trkpt lat="43.64305" lon="6.64836">
        <ele>465.5</ele>
        <time>2023-11-26T08:26:31Z</time>
      </trkpt>
      <trkpt lat="43.64305" lon="6.64836">
        <ele>465.7</ele>
        <time>2023-11-26T08:26:32Z</time>
      </trkpt>
      <trkpt lat="43.64307" lon="6.64833">
        <ele>465.8</ele>
        <time>2023-11-26T08:26:33Z</time>
      </trkpt>
      <trkpt lat="43.64308" lon="6.64831">
        <ele>465.9</ele>
        <time>2023-11-26T08:26:34Z</time>
      </trkpt>
      <trkpt lat="43.64308" lon="6.6483">
        <ele>466.1</ele>
        <time>2023-11-26T08:26:35Z</time>
      </trkpt>
      <trkpt lat="43.64309" lon="6.6483">
        <ele>466.2</ele>
        <time>2023-11-26T08:26:36Z</time>
      </trkpt>
      <trkpt lat="43.6431" lon="6.64828">
        <ele>466.4</ele>
        <time>2023-11-26T08:26:37Z</time>
      </trkpt>
      <trkpt lat="43.64311" lon="6.64828">
        <ele>466.5</ele>
        <time>2023-11-26T08:26:38Z</time>
      </trkpt>
      <trkpt lat="43.64311" lon="6.64827">
        <ele>466.7</ele>
        <time>2023-11-26T08:26:39Z</time>
      </trkpt>
      <trkpt lat="43.64309" lon="6.64828">
        <ele>466.9</ele>
        <time>2023-11-26T08:26:40Z</time>
      </trkpt>
      <trkpt lat="43.64311" lon="6.64828">
        <ele>467.1</ele>
        <time>2023-11-26T08:26:41Z</time>
      </trkpt>
      <trkpt lat="43.64311" lon="6.64829">
        <ele>467.2</ele>
        <time>2023-11-26T08:26:42Z</time>
      </trkpt>
      <trkpt lat="43.64311" lon="6.64829">
        <ele>467.4</ele>
        <time>2023-11-26T08:26:43Z</time>
      </trkpt>
      <trkpt lat="43.64312" lon="6.64828">
        <ele>467.5</ele>
        <time>2023-11-26T08:26:44Z</time>
      </trkpt>
      <trkpt lat="43.64312" lon="6.64827">
        <ele>467.6</ele>
        <time>2023-11-26T08:26:45Z</time>
      </trkpt>
      <trkpt lat="43.64313" lon="6.64827">
        <ele>467.9</ele>
        <time>2023-11-26T08:26:46Z</time>
      </trkpt>
      <trkpt lat="43.64314" lon="6.64826">
        <ele>468.1</ele>
        <time>2023-11-26T08:26:47Z</time>
      </trkpt>
      <trkpt lat="43.64315" lon="6.64826">
        <ele>468.2</ele>
        <time>2023-11-26T08:26:48Z</time>
      </trkpt>
      <trkpt lat="43.64315" lon="6.64826">
        <ele>468.3</ele>
        <time>2023-11-26T08:26:49Z</time>
      </trkpt>
      <trkpt lat="43.64316" lon="6.64825">
        <ele>468.5</ele>
        <time>2023-11-26T08:26:50Z</time>
      </trkpt>
      <trkpt lat="43.64316" lon="6.64825">
        <ele>468.6</ele>
        <time>2023-11-26T08:26:51Z</time>
      </trkpt>
      <trkpt lat="43.64316" lon="6.64825">
        <ele>468.8</ele>
        <time>2023-11-26T08:26:52Z</time>
      </trkpt>
      <trkpt lat="43.64316" lon="6.64824">
        <ele>468.9</ele>
        <time>2023-11-26T08:26:53Z</time>
      </trkpt>
      <trkpt lat="43.64316" lon="6.64824">
        <ele>469</ele>
        <time>2023-11-26T08:26:54Z</time>
      </trkpt>
      <trkpt lat="43.64316" lon="6.64823">
        <ele>469.1</ele>
        <time>2023-11-26T08:26:55Z</time>
      </trkpt>
      <trkpt lat="43.64317" lon="6.64823">
        <ele>469.3</ele>
        <time>2023-11-26T08:26:56Z</time>
      </trkpt>
      <trkpt lat="43.64316" lon="6.64823">
        <ele>469.4</ele>
        <time>2023-11-26T08:26:57Z</time>
      </trkpt>
      <trkpt lat="43.64316" lon="6.64823">
        <ele>469.5</ele>
        <time>2023-11-26T08:26:58Z</time>
      </trkpt>
      <trkpt lat="43.64316" lon="6.64824">
        <ele>469.7</ele>
        <time>2023-11-26T08:26:59Z</time>
      </trkpt>
      <trkpt lat="43.64317" lon="6.64823">
        <ele>469.9</ele>
        <time>2023-11-26T08:27:00Z</time>
      </trkpt>
      <trkpt lat="43.64318" lon="6.64823">
        <ele>470</ele>
        <time>2023-11-26T08:27:01Z</time>
      </trkpt>
      <trkpt lat="43.64318" lon="6.64822">
        <ele>470.1</ele>
        <time>2023-11-26T08:27:02Z</time>
      </trkpt>
      <trkpt lat="43.64318" lon="6.64823">
        <ele>470.3</ele>
        <time>2023-11-26T08:27:03Z</time>
      </trkpt>
      <trkpt lat="43.64318" lon="6.64823">
        <ele>470.5</ele>
        <time>2023-11-26T08:27:04Z</time>
      </trkpt>
      <trkpt lat="43.64319" lon="6.64822">
        <ele>470.7</ele>
        <time>2023-11-26T08:27:05Z</time>
      </trkpt>
      <trkpt lat="43.6432" lon="6.64821">
        <ele>470.8</ele>
        <time>2023-11-26T08:27:06Z</time>
      </trkpt>
      <trkpt lat="43.64321" lon="6.64821">
        <ele>471</ele>
        <time>2023-11-26T08:27:07Z</time>
      </trkpt>
      <trkpt lat="43.64321" lon="6.64821">
        <ele>471.1</ele>
        <time>2023-11-26T08:27:08Z</time>
      </trkpt>
      <trkpt lat="43.64322" lon="6.6482">
        <ele>471.3</ele>
        <time>2023-11-26T08:27:09Z</time>
      </trkpt>
      <trkpt lat="43.64322" lon="6.64821">
        <ele>471.4</ele>
        <time>2023-11-26T08:27:10Z</time>
      </trkpt>
      <trkpt lat="43.64322" lon="6.6482">
        <ele>471.5</ele>
        <time>2023-11-26T08:27:11Z</time>
      </trkpt>
      <trkpt lat="43.64323" lon="6.64819">
        <ele>471.7</ele>
        <time>2023-11-26T08:27:12Z</time>
      </trkpt>
      <trkpt lat="43.64323" lon="6.64819">
        <ele>471.9</ele>
        <time>2023-11-26T08:27:13Z</time>
      </trkpt>
      <trkpt lat="43.64323" lon="6.64819">
        <ele>472.1</ele>
        <time>2023-11-26T08:27:14Z</time>
      </trkpt>
      <trkpt lat="43.64323" lon="6.64819">
        <ele>472.1</ele>
        <time>2023-11-26T08:27:15Z</time>
      </trkpt>
      <trkpt lat="43.64323" lon="6.64818">
        <ele>472.2</ele>
        <time>2023-11-26T08:27:16Z</time>
      </trkpt>
      <trkpt lat="43.64323" lon="6.64818">
        <ele>472.3</ele>
        <time>2023-11-26T08:27:17Z</time>
      </trkpt>
      <trkpt lat="43.64324" lon="6.64817">
        <ele>472.5</ele>
        <time>2023-11-26T08:27:18Z</time>
      </trkpt>
      <trkpt lat="43.64324" lon="6.64817">
        <ele>472.6</ele>
        <time>2023-11-26T08:27:19Z</time>
      </trkpt>
      <trkpt lat="43.64325" lon="6.64817">
        <ele>472.6</ele>
        <time>2023-11-26T08:27:20Z</time>
      </trkpt>
      <trkpt lat="43.64324" lon="6.64815">
        <ele>472.7</ele>
        <time>2023-11-26T08:27:21Z</time>
      </trkpt>
      <trkpt lat="43.64324" lon="6.64811">
        <ele>472.8</ele>
        <time>2023-11-26T08:27:22Z</time>
      </trkpt>
      <trkpt lat="43.64324" lon="6.64809">
        <ele>472.9</ele>
        <time>2023-11-26T08:27:23Z</time>
      </trkpt>
      <trkpt lat="43.64324" lon="6.64809">
        <ele>472.9</ele>
        <time>2023-11-26T08:27:24Z</time>
      </trkpt>
      <trkpt lat="43.64325" lon="6.64808">
        <ele>473</ele>
        <time>2023-11-26T08:27:25Z</time>
      </trkpt>
      <trkpt lat="43.64325" lon="6.64806">
        <ele>473</ele>
        <time>2023-11-26T08:27:26Z</time>
      </trkpt>
      <trkpt lat="43.64325" lon="6.64806">
        <ele>473</ele>
        <time>2023-11-26T08:27:27Z</time>
      </trkpt>
      <trkpt lat="43.64325" lon="6.64805">
        <ele>473</ele>
        <time>2023-11-26T08:27:28Z</time>
      </trkpt>
      <trkpt lat="43.64326" lon="6.64804">
        <ele>473</ele>
        <time>2023-11-26T08:27:29Z</time>
      </trkpt>
      <trkpt lat="43.64326" lon="6.64803">
        <ele>473</ele>
        <time>2023-11-26T08:27:30Z</time>
      </trkpt>
      <trkpt lat="43.64326" lon="6.64802">
        <ele>473.1</ele>
        <time>2023-11-26T08:27:31Z</time>
      </trkpt>
      <trkpt lat="43.64327" lon="6.64802">
        <ele>473.1</ele>
        <time>2023-11-26T08:27:32Z</time>
      </trkpt>
      <trkpt lat="43.64327" lon="6.64802">
        <ele>473.1</ele>
        <time>2023-11-26T08:27:33Z</time>
      </trkpt>
      <trkpt lat="43.64327" lon="6.64802">
        <ele>473.2</ele>
        <time>2023-11-26T08:27:34Z</time>
      </trkpt>
      <trkpt lat="43.64327" lon="6.64802">
        <ele>473.2</ele>
        <time>2023-11-26T08:27:35Z</time>
      </trkpt>
      <trkpt lat="43.64327" lon="6.648">
        <ele>473.3</ele>
        <time>2023-11-26T08:27:36Z</time>
      </trkpt>
      <trkpt lat="43.64326" lon="6.64801">
        <ele>473.3</ele>
        <time>2023-11-26T08:27:37Z</time>
      </trkpt>
      <trkpt lat="43.64326" lon="6.64801">
        <ele>473.3</ele>
        <time>2023-11-26T08:27:38Z</time>
      </trkpt>
      <trkpt lat="43.64326" lon="6.64802">
        <ele>473.3</ele>
        <time>2023-11-26T08:27:39Z</time>
      </trkpt>
      <trkpt lat="43.64326" lon="6.64802">
        <ele>473.2</ele>
        <time>2023-11-26T08:27:40Z</time>
      </trkpt>
      <trkpt lat="43.64325" lon="6.64802">
        <ele>473.1</ele>
        <time>2023-11-26T08:27:41Z</time>
      </trkpt>
      <trkpt lat="43.64325" lon="6.64803">
        <ele>472.9</ele>
        <time>2023-11-26T08:27:42Z</time>
      </trkpt>
      <trkpt lat="43.64325" lon="6.64803">
        <ele>472.9</ele>
        <time>2023-11-26T08:27:43Z</time>
      </trkpt>
      <trkpt lat="43.64325" lon="6.64804">
        <ele>473</ele>
        <time>2023-11-26T08:27:44Z</time>
      </trkpt>
      <trkpt lat="43.64324" lon="6.64804">
        <ele>473</ele>
        <time>2023-11-26T08:27:45Z</time>
      </trkpt>
      <trkpt lat="43.64324" lon="6.64804">
        <ele>473.1</ele>
        <time>2023-11-26T08:27:46Z</time>
      </trkpt>
      <trkpt lat="43.64324" lon="6.64804">
        <ele>472.9</ele>
        <time>2023-11-26T08:27:47Z</time>
      </trkpt>
      <trkpt lat="43.64324" lon="6.64804">
        <ele>472.8</ele>
        <time>2023-11-26T08:27:48Z</time>
      </trkpt>
      <trkpt lat="43.64324" lon="6.64804">
        <ele>472.9</ele>
        <time>2023-11-26T08:27:49Z</time>
      </trkpt>
      <trkpt lat="43.64324" lon="6.64804">
        <ele>472.9</ele>
        <time>2023-11-26T08:27:50Z</time>
      </trkpt>
      <trkpt lat="43.64325" lon="6.64805">
        <ele>472.9</ele>
        <time>2023-11-26T08:27:51Z</time>
      </trkpt>
      <trkpt lat="43.64326" lon="6.64805">
        <ele>473</ele>
        <time>2023-11-26T08:27:52Z</time>
      </trkpt>
      <trkpt lat="43.64326" lon="6.64806">
        <ele>473</ele>
        <time>2023-11-26T08:27:53Z</time>
      </trkpt>
      <trkpt lat="43.64327" lon="6.64806">
        <ele>473.2</ele>
        <time>2023-11-26T08:27:54Z</time>
      </trkpt>
      <trkpt lat="43.64327" lon="6.64805">
        <ele>473.4</ele>
        <time>2023-11-26T08:27:55Z</time>
      </trkpt>
      <trkpt lat="43.64328" lon="6.64805">
        <ele>473.5</ele>
        <time>2023-11-26T08:27:56Z</time>
      </trkpt>
      <trkpt lat="43.64329" lon="6.64805">
        <ele>473.7</ele>
        <time>2023-11-26T08:27:57Z</time>
      </trkpt>
      <trkpt lat="43.64329" lon="6.64805">
        <ele>473.7</ele>
        <time>2023-11-26T08:27:58Z</time>
      </trkpt>
      <trkpt lat="43.6433" lon="6.64805">
        <ele>473.8</ele>
        <time>2023-11-26T08:27:59Z</time>
      </trkpt>
      <trkpt lat="43.6433" lon="6.64804">
        <ele>473.9</ele>
        <time>2023-11-26T08:28:00Z</time>
      </trkpt>
      <trkpt lat="43.64331" lon="6.64804">
        <ele>473.9</ele>
        <time>2023-11-26T08:28:01Z</time>
      </trkpt>
      <trkpt lat="43.64331" lon="6.64804">
        <ele>474</ele>
        <time>2023-11-26T08:28:02Z</time>
      </trkpt>
      <trkpt lat="43.64332" lon="6.64804">
        <ele>474</ele>
        <time>2023-11-26T08:28:03Z</time>
      </trkpt>
      <trkpt lat="43.64332" lon="6.64804">
        <ele>474.1</ele>
        <time>2023-11-26T08:28:04Z</time>
      </trkpt>
      <trkpt lat="43.64332" lon="6.64804">
        <ele>474.1</ele>
        <time>2023-11-26T08:28:05Z</time>
      </trkpt>
      <trkpt lat="43.64332" lon="6.64804">
        <ele>474.1</ele>
        <time>2023-11-26T08:28:06Z</time>
      </trkpt>
      <trkpt lat="43.64333" lon="6.64804">
        <ele>474.1</ele>
        <time>2023-11-26T08:28:07Z</time>
      </trkpt>
      <trkpt lat="43.64333" lon="6.64804">
        <ele>474.1</ele>
        <time>2023-11-26T08:28:08Z</time>
      </trkpt>
      <trkpt lat="43.64333" lon="6.64804">
        <ele>474.1</ele>
        <time>2023-11-26T08:28:09Z</time>
      </trkpt>
      <trkpt lat="43.64334" lon="6.64804">
        <ele>474.1</ele>
        <time>2023-11-26T08:28:10Z</time>
      </trkpt>
      <trkpt lat="43.64335" lon="6.64804">
        <ele>474</ele>
        <time>2023-11-26T08:28:11Z</time>
      </trkpt>
      <trkpt lat="43.64335" lon="6.64803">
        <ele>474</ele>
        <time>2023-11-26T08:28:12Z</time>
      </trkpt>
      <trkpt lat="43.64335" lon="6.64803">
        <ele>473.9</ele>
        <time>2023-11-26T08:28:13Z</time>
      </trkpt>
      <trkpt lat="43.64336" lon="6.64803">
        <ele>474</ele>
        <time>2023-11-26T08:28:14Z</time>
      </trkpt>
      <trkpt lat="43.64336" lon="6.64803">
        <ele>474</ele>
        <time>2023-11-26T08:28:15Z</time>
      </trkpt>
      <trkpt lat="43.64336" lon="6.64803">
        <ele>474</ele>
        <time>2023-11-26T08:28:16Z</time>
      </trkpt>
      <trkpt lat="43.64337" lon="6.64803">
        <ele>474.1</ele>
        <time>2023-11-26T08:28:17Z</time>
      </trkpt>
      <trkpt lat="43.64338" lon="6.64801">
        <ele>474.1</ele>
        <time>2023-11-26T08:28:18Z</time>
      </trkpt>
      <trkpt lat="43.64338" lon="6.648">
        <ele>474.1</ele>
        <time>2023-11-26T08:28:19Z</time>
      </trkpt>
      <trkpt lat="43.64337" lon="6.648">
        <ele>474.1</ele>
        <time>2023-11-26T08:28:20Z</time>
      </trkpt>
      <trkpt lat="43.64337" lon="6.648">
        <ele>474.1</ele>
        <time>2023-11-26T08:28:21Z</time>
      </trkpt>
      <trkpt lat="43.64337" lon="6.648">
        <ele>474.1</ele>
        <time>2023-11-26T08:28:22Z</time>
      </trkpt>
      <trkpt lat="43.64337" lon="6.64799">
        <ele>474.1</ele>
        <time>2023-11-26T08:28:23Z</time>
      </trkpt>
      <trkpt lat="43.64337" lon="6.64799">
        <ele>474.1</ele>
        <time>2023-11-26T08:28:24Z</time>
      </trkpt>
      <trkpt lat="43.64338" lon="6.64799">
        <ele>474.2</ele>
        <time>2023-11-26T08:28:25Z</time>
      </trkpt>
      <trkpt lat="43.64338" lon="6.64798">
        <ele>474.2</ele>
        <time>2023-11-26T08:28:26Z</time>
      </trkpt>
      <trkpt lat="43.64339" lon="6.64797">
        <ele>474.2</ele>
        <time>2023-11-26T08:28:27Z</time>
      </trkpt>
      <trkpt lat="43.64339" lon="6.64797">
        <ele>474.2</ele>
        <time>2023-11-26T08:28:28Z</time>
      </trkpt>
      <trkpt lat="43.64339" lon="6.64796">
        <ele>474.2</ele>
        <time>2023-11-26T08:28:29Z</time>
      </trkpt>
      <trkpt lat="43.64339" lon="6.64795">
        <ele>474.2</ele>
        <time>2023-11-26T08:28:30Z</time>
      </trkpt>
      <trkpt lat="43.64339" lon="6.64795">
        <ele>474.2</ele>
        <time>2023-11-26T08:28:31Z</time>
      </trkpt>
      <trkpt lat="43.64339" lon="6.64795">
        <ele>474.2</ele>
        <time>2023-11-26T08:28:32Z</time>
      </trkpt>
      <trkpt lat="43.64339" lon="6.64794">
        <ele>474.2</ele>
        <time>2023-11-26T08:28:33Z</time>
      </trkpt>
      <trkpt lat="43.6434" lon="6.64794">
        <ele>474.2</ele>
        <time>2023-11-26T08:28:34Z</time>
      </trkpt>
      <trkpt lat="43.6434" lon="6.64794">
        <ele>474.2</ele>
        <time>2023-11-26T08:28:35Z</time>
      </trkpt>
      <trkpt lat="43.6434" lon="6.64794">
        <ele>474.1</ele>
        <time>2023-11-26T08:28:36Z</time>
      </trkpt>
      <trkpt lat="43.6434" lon="6.64793">
        <ele>474.1</ele>
        <time>2023-11-26T08:28:37Z</time>
      </trkpt>
      <trkpt lat="43.6434" lon="6.64793">
        <ele>474.1</ele>
        <time>2023-11-26T08:28:38Z</time>
      </trkpt>
      <trkpt lat="43.6434" lon="6.64793">
        <ele>474.1</ele>
        <time>2023-11-26T08:28:39Z</time>
      </trkpt>
      <trkpt lat="43.6434" lon="6.64793">
        <ele>474.1</ele>
        <time>2023-11-26T08:28:40Z</time>
      </trkpt>
      <trkpt lat="43.6434" lon="6.64793">
        <ele>474.1</ele>
        <time>2023-11-26T08:28:41Z</time>
      </trkpt>
      <trkpt lat="43.6434" lon="6.64793">
        <ele>474.1</ele>
        <time>2023-11-26T08:28:42Z</time>
      </trkpt>
      <trkpt lat="43.6434" lon="6.64794">
        <ele>474.1</ele>
        <time>2023-11-26T08:28:43Z</time>
      </trkpt>
      <trkpt lat="43.6434" lon="6.64795">
        <ele>474.1</ele>
        <time>2023-11-26T08:28:44Z</time>
      </trkpt>
      <trkpt lat="43.64341" lon="6.64795">
        <ele>474.1</ele>
        <time>2023-11-26T08:28:45Z</time>
      </trkpt>
      <trkpt lat="43.64341" lon="6.64796">
        <ele>474</ele>
        <time>2023-11-26T08:28:46Z</time>
      </trkpt>
      <trkpt lat="43.64341" lon="6.64796">
        <ele>474</ele>
        <time>2023-11-26T08:28:47Z</time>
      </trkpt>
      <trkpt lat="43.64341" lon="6.64796">
        <ele>473.9</ele>
        <time>2023-11-26T08:28:48Z</time>
      </trkpt>
      <trkpt lat="43.64341" lon="6.64796">
        <ele>473.9</ele>
        <time>2023-11-26T08:28:49Z</time>
      </trkpt>
      <trkpt lat="43.64341" lon="6.64796">
        <ele>473.9</ele>
        <time>2023-11-26T08:28:50Z</time>
      </trkpt>
      <trkpt lat="43.64341" lon="6.64796">
        <ele>473.9</ele>
        <time>2023-11-26T08:28:51Z</time>
      </trkpt>
      <trkpt lat="43.64341" lon="6.64796">
        <ele>473.7</ele>
        <time>2023-11-26T08:28:52Z</time>
      </trkpt>
      <trkpt lat="43.64341" lon="6.64796">
        <ele>473.6</ele>
        <time>2023-11-26T08:28:53Z</time>
      </trkpt>
      <trkpt lat="43.64341" lon="6.64796">
        <ele>473.6</ele>
        <time>2023-11-26T08:28:54Z</time>
      </trkpt>
      <trkpt lat="43.64341" lon="6.64797">
        <ele>473.5</ele>
        <time>2023-11-26T08:28:55Z</time>
      </trkpt>
      <trkpt lat="43.64341" lon="6.64797">
        <ele>473.4</ele>
        <time>2023-11-26T08:28:56Z</time>
      </trkpt>
      <trkpt lat="43.64342" lon="6.64797">
        <ele>473.5</ele>
        <time>2023-11-26T08:28:57Z</time>
      </trkpt>
      <trkpt lat="43.64342" lon="6.64797">
        <ele>473.6</ele>
        <time>2023-11-26T08:28:58Z</time>
      </trkpt>
      <trkpt lat="43.64342" lon="6.64797">
        <ele>473.6</ele>
        <time>2023-11-26T08:28:59Z</time>
      </trkpt>
      <trkpt lat="43.64341" lon="6.64797">
        <ele>473.6</ele>
        <time>2023-11-26T08:29:00Z</time>
      </trkpt>
      <trkpt lat="43.64341" lon="6.64797">
        <ele>473.7</ele>
        <time>2023-11-26T08:29:01Z</time>
      </trkpt>
      <trkpt lat="43.64341" lon="6.64797">
        <ele>473.7</ele>
        <time>2023-11-26T08:29:02Z</time>
      </trkpt>
      <trkpt lat="43.64341" lon="6.64797">
        <ele>473.7</ele>
        <time>2023-11-26T08:29:03Z</time>
      </trkpt>
      <trkpt lat="43.64341" lon="6.64797">
        <ele>473.7</ele>
        <time>2023-11-26T08:29:04Z</time>
      </trkpt>
      <trkpt lat="43.64341" lon="6.64798">
        <ele>473.7</ele>
        <time>2023-11-26T08:29:05Z</time>
      </trkpt>
      <trkpt lat="43.64341" lon="6.64798">
        <ele>473.7</ele>
        <time>2023-11-26T08:29:06Z</time>
      </trkpt>
      <trkpt lat="43.64341" lon="6.64799">
        <ele>473.7</ele>
        <time>2023-11-26T08:29:07Z</time>
      </trkpt>
      <trkpt lat="43.64342" lon="6.64799">
        <ele>473.6</ele>
        <time>2023-11-26T08:29:08Z</time>
      </trkpt>
      <trkpt lat="43.64342" lon="6.64799">
        <ele>473.7</ele>
        <time>2023-11-26T08:29:09Z</time>
      </trkpt>
      <trkpt lat="43.64342" lon="6.64799">
        <ele>473.7</ele>
        <time>2023-11-26T08:29:10Z</time>
      </trkpt>
      <trkpt lat="43.64342" lon="6.64799">
        <ele>473.7</ele>
        <time>2023-11-26T08:29:11Z</time>
      </trkpt>
      <trkpt lat="43.64342" lon="6.64799">
        <ele>473.7</ele>
        <time>2023-11-26T08:29:12Z</time>
      </trkpt>
      <trkpt lat="43.64342" lon="6.64799">
        <ele>473.8</ele>
        <time>2023-11-26T08:29:13Z</time>
      </trkpt>
      <trkpt lat="43.64342" lon="6.64799">
        <ele>473.8</ele>
        <time>2023-11-26T08:29:14Z</time>
      </trkpt>
      <trkpt lat="43.64342" lon="6.64799">
        <ele>473.8</ele>
        <time>2023-11-26T08:29:15Z</time>
      </trkpt>
      <trkpt lat="43.64343" lon="6.64799">
        <ele>473.8</ele>
        <time>2023-11-26T08:29:16Z</time>
      </trkpt>
      <trkpt lat="43.64342" lon="6.64799">
        <ele>473.8</ele>
        <time>2023-11-26T08:29:17Z</time>
      </trkpt>
      <trkpt lat="43.64342" lon="6.64799">
        <ele>473.8</ele>
        <time>2023-11-26T08:29:18Z</time>
      </trkpt>
      <trkpt lat="43.64342" lon="6.64799">
        <ele>473.8</ele>
        <time>2023-11-26T08:29:19Z</time>
      </trkpt>
      <trkpt lat="43.64341" lon="6.64798">
        <ele>473.8</ele>
        <time>2023-11-26T08:29:20Z</time>
      </trkpt>
      <trkpt lat="43.64341" lon="6.64799">
        <ele>473.9</ele>
        <time>2023-11-26T08:29:21Z</time>
      </trkpt>
      <trkpt lat="43.64341" lon="6.64798">
        <ele>474</ele>
        <time>2023-11-26T08:29:22Z</time>
      </trkpt>
      <trkpt lat="43.6434" lon="6.64798">
        <ele>474</ele>
        <time>2023-11-26T08:29:23Z</time>
      </trkpt>
      <trkpt lat="43.6434" lon="6.64798">
        <ele>474</ele>
        <time>2023-11-26T08:29:24Z</time>
      </trkpt>
      <trkpt lat="43.6434" lon="6.64798">
        <ele>474</ele>
        <time>2023-11-26T08:29:25Z</time>
      </trkpt>
      <trkpt lat="43.6434" lon="6.64798">
        <ele>474</ele>
        <time>2023-11-26T08:29:26Z</time>
      </trkpt>
      <trkpt lat="43.64341" lon="6.64797">
        <ele>474</ele>
        <time>2023-11-26T08:29:27Z</time>
      </trkpt>
      <trkpt lat="43.64341" lon="6.64797">
        <ele>474</ele>
        <time>2023-11-26T08:29:28Z</time>
      </trkpt>
      <trkpt lat="43.64341" lon="6.64796">
        <ele>474</ele>
        <time>2023-11-26T08:29:29Z</time>
      </trkpt>
      <trkpt lat="43.64341" lon="6.64796">
        <ele>474</ele>
        <time>2023-11-26T08:29:30Z</time>
      </trkpt>
      <trkpt lat="43.64341" lon="6.64796">
        <ele>473.9</ele>
        <time>2023-11-26T08:29:31Z</time>
      </trkpt>
      <trkpt lat="43.64341" lon="6.64795">
        <ele>473.9</ele>
        <time>2023-11-26T08:29:32Z</time>
      </trkpt>
      <trkpt lat="43.64341" lon="6.64795">
        <ele>473.9</ele>
        <time>2023-11-26T08:29:33Z</time>
      </trkpt>
      <trkpt lat="43.64341" lon="6.64795">
        <ele>473.9</ele>
        <time>2023-11-26T08:29:34Z</time>
      </trkpt>
      <trkpt lat="43.6434" lon="6.64795">
        <ele>473.9</ele>
        <time>2023-11-26T08:29:35Z</time>
      </trkpt>
      <trkpt lat="43.6434" lon="6.64796">
        <ele>473.9</ele>
        <time>2023-11-26T08:29:36Z</time>
      </trkpt>
      <trkpt lat="43.6434" lon="6.64796">
        <ele>473.9</ele>
        <time>2023-11-26T08:29:37Z</time>
      </trkpt>
      <trkpt lat="43.6434" lon="6.64796">
        <ele>473.9</ele>
        <time>2023-11-26T08:29:38Z</time>
      </trkpt>
      <trkpt lat="43.64339" lon="6.64797">
        <ele>474</ele>
        <time>2023-11-26T08:29:39Z</time>
      </trkpt>
      <trkpt lat="43.64339" lon="6.64797">
        <ele>474</ele>
        <time>2023-11-26T08:29:40Z</time>
      </trkpt>
      <trkpt lat="43.64339" lon="6.64797">
        <ele>474.1</ele>
        <time>2023-11-26T08:29:41Z</time>
      </trkpt>
      <trkpt lat="43.64339" lon="6.64798">
        <ele>474.1</ele>
        <time>2023-11-26T08:29:42Z</time>
      </trkpt>
      <trkpt lat="43.64339" lon="6.64798">
        <ele>474.1</ele>
        <time>2023-11-26T08:29:43Z</time>
      </trkpt>
      <trkpt lat="43.64339" lon="6.64798">
        <ele>474.2</ele>
        <time>2023-11-26T08:29:44Z</time>
      </trkpt>
      <trkpt lat="43.64339" lon="6.64799">
        <ele>474.2</ele>
        <time>2023-11-26T08:29:45Z</time>
      </trkpt>
      <trkpt lat="43.64339" lon="6.64799">
        <ele>474.3</ele>
        <time>2023-11-26T08:29:46Z</time>
      </trkpt>
      <trkpt lat="43.64339" lon="6.64799">
        <ele>474.3</ele>
        <time>2023-11-26T08:29:47Z</time>
      </trkpt>
      <trkpt lat="43.64339" lon="6.64799">
        <ele>474.4</ele>
        <time>2023-11-26T08:29:48Z</time>
      </trkpt>
      <trkpt lat="43.64338" lon="6.64799">
        <ele>474.4</ele>
        <time>2023-11-26T08:29:49Z</time>
      </trkpt>
      <trkpt lat="43.64338" lon="6.64799">
        <ele>474.3</ele>
        <time>2023-11-26T08:29:50Z</time>
      </trkpt>
      <trkpt lat="43.64338" lon="6.64799">
        <ele>474.3</ele>
        <time>2023-11-26T08:29:51Z</time>
      </trkpt>
      <trkpt lat="43.64338" lon="6.648">
        <ele>474.3</ele>
        <time>2023-11-26T08:29:52Z</time>
      </trkpt>
      <trkpt lat="43.64338" lon="6.648">
        <ele>474.3</ele>
        <time>2023-11-26T08:29:53Z</time>
      </trkpt>
      <trkpt lat="43.64338" lon="6.648">
        <ele>474.2</ele>
        <time>2023-11-26T08:29:54Z</time>
      </trkpt>
      <trkpt lat="43.64338" lon="6.648">
        <ele>474.2</ele>
        <time>2023-11-26T08:29:55Z</time>
      </trkpt>
      <trkpt lat="43.64338" lon="6.648">
        <ele>474.2</ele>
        <time>2023-11-26T08:29:56Z</time>
      </trkpt>
      <trkpt lat="43.64337" lon="6.64799">
        <ele>474.2</ele>
        <time>2023-11-26T08:29:57Z</time>
      </trkpt>
      <trkpt lat="43.64338" lon="6.64799">
        <ele>474.2</ele>
        <time>2023-11-26T08:29:58Z</time>
      </trkpt>
      <trkpt lat="43.64338" lon="6.64799">
        <ele>474.1</ele>
        <time>2023-11-26T08:29:59Z</time>
      </trkpt>
      <trkpt lat="43.64338" lon="6.64799">
        <ele>474.1</ele>
        <time>2023-11-26T08:30:00Z</time>
      </trkpt>
      <trkpt lat="43.64337" lon="6.64799">
        <ele>474.2</ele>
        <time>2023-11-26T08:30:01Z</time>
      </trkpt>
      <trkpt lat="43.64337" lon="6.64799">
        <ele>474.2</ele>
        <time>2023-11-26T08:30:02Z</time>
      </trkpt>
      <trkpt lat="43.64337" lon="6.64799">
        <ele>474.2</ele>
        <time>2023-11-26T08:30:03Z</time>
      </trkpt>
      <trkpt lat="43.64337" lon="6.64799">
        <ele>474.2</ele>
        <time>2023-11-26T08:30:04Z</time>
      </trkpt>
      <trkpt lat="43.64337" lon="6.64799">
        <ele>474.2</ele>
        <time>2023-11-26T08:30:05Z</time>
      </trkpt>
      <trkpt lat="43.64337" lon="6.64799">
        <ele>474.3</ele>
        <time>2023-11-26T08:30:06Z</time>
      </trkpt>
      <trkpt lat="43.64337" lon="6.64799">
        <ele>474.4</ele>
        <time>2023-11-26T08:30:07Z</time>
      </trkpt>
      <trkpt lat="43.64337" lon="6.648">
        <ele>474.3</ele>
        <time>2023-11-26T08:30:08Z</time>
      </trkpt>
      <trkpt lat="43.64336" lon="6.648">
        <ele>474.4</ele>
        <time>2023-11-26T08:30:09Z</time>
      </trkpt>
      <trkpt lat="43.64336" lon="6.64799">
        <ele>474.4</ele>
        <time>2023-11-26T08:30:10Z</time>
      </trkpt>
      <trkpt lat="43.64336" lon="6.648">
        <ele>474.4</ele>
        <time>2023-11-26T08:30:11Z</time>
      </trkpt>
      <trkpt lat="43.64336" lon="6.648">
        <ele>474.4</ele>
        <time>2023-11-26T08:30:12Z</time>
      </trkpt>
      <trkpt lat="43.64336" lon="6.648">
        <ele>474.4</ele>
        <time>2023-11-26T08:30:13Z</time>
      </trkpt>
      <trkpt lat="43.64335" lon="6.648">
        <ele>474.4</ele>
        <time>2023-11-26T08:30:14Z</time>
      </trkpt>
      <trkpt lat="43.64335" lon="6.64801">
        <ele>474.4</ele>
        <time>2023-11-26T08:30:15Z</time>
      </trkpt>
      <trkpt lat="43.64335" lon="6.64801">
        <ele>474.4</ele>
        <time>2023-11-26T08:30:16Z</time>
      </trkpt>
      <trkpt lat="43.64334" lon="6.64801">
        <ele>474.4</ele>
        <time>2023-11-26T08:30:17Z</time>
      </trkpt>
      <trkpt lat="43.64334" lon="6.64801">
        <ele>474.4</ele>
        <time>2023-11-26T08:30:18Z</time>
      </trkpt>
      <trkpt lat="43.64334" lon="6.64802">
        <ele>474.4</ele>
        <time>2023-11-26T08:30:19Z</time>
      </trkpt>
      <trkpt lat="43.64333" lon="6.64802">
        <ele>474.4</ele>
        <time>2023-11-26T08:30:20Z</time>
      </trkpt>
      <trkpt lat="43.64333" lon="6.64802">
        <ele>474.4</ele>
        <time>2023-11-26T08:30:21Z</time>
      </trkpt>
      <trkpt lat="43.64333" lon="6.64803">
        <ele>474.4</ele>
        <time>2023-11-26T08:30:22Z</time>
      </trkpt>
      <trkpt lat="43.64333" lon="6.64803">
        <ele>474.3</ele>
        <time>2023-11-26T08:30:23Z</time>
      </trkpt>
      <trkpt lat="43.64333" lon="6.64803">
        <ele>474.3</ele>
        <time>2023-11-26T08:30:24Z</time>
      </trkpt>
      <trkpt lat="43.64333" lon="6.64803">
        <ele>474.3</ele>
        <time>2023-11-26T08:30:25Z</time>
      </trkpt>
      <trkpt lat="43.64333" lon="6.64804">
        <ele>474.3</ele>
        <time>2023-11-26T08:30:26Z</time>
      </trkpt>
      <trkpt lat="43.64333" lon="6.64804">
        <ele>474.4</ele>
        <time>2023-11-26T08:30:27Z</time>
      </trkpt>
      <trkpt lat="43.64333" lon="6.64805">
        <ele>474.3</ele>
        <time>2023-11-26T08:30:28Z</time>
      </trkpt>
      <trkpt lat="43.64332" lon="6.64805">
        <ele>474.3</ele>
        <time>2023-11-26T08:30:29Z</time>
      </trkpt>
      <trkpt lat="43.64333" lon="6.64804">
        <ele>474.3</ele>
        <time>2023-11-26T08:30:30Z</time>
      </trkpt>
      <trkpt lat="43.64333" lon="6.64804">
        <ele>474.3</ele>
        <time>2023-11-26T08:30:31Z</time>
      </trkpt>
      <trkpt lat="43.64333" lon="6.64804">
        <ele>474.3</ele>
        <time>2023-11-26T08:30:32Z</time>
      </trkpt>
      <trkpt lat="43.64333" lon="6.64803">
        <ele>474.4</ele>
        <time>2023-11-26T08:30:33Z</time>
      </trkpt>
      <trkpt lat="43.64333" lon="6.64802">
        <ele>474.4</ele>
        <time>2023-11-26T08:30:34Z</time>
      </trkpt>
      <trkpt lat="43.64333" lon="6.64802">
        <ele>474.4</ele>
        <time>2023-11-26T08:30:35Z</time>
      </trkpt>
      <trkpt lat="43.64333" lon="6.64802">
        <ele>474.4</ele>
        <time>2023-11-26T08:30:36Z</time>
      </trkpt>
      <trkpt lat="43.64333" lon="6.64802">
        <ele>474.5</ele>
        <time>2023-11-26T08:30:37Z</time>
      </trkpt>
      <trkpt lat="43.64333" lon="6.64801">
        <ele>474.4</ele>
        <time>2023-11-26T08:30:38Z</time>
      </trkpt>
      <trkpt lat="43.64333" lon="6.64801">
        <ele>474.4</ele>
        <time>2023-11-26T08:30:39Z</time>
      </trkpt>
      <trkpt lat="43.64333" lon="6.64801">
        <ele>474.4</ele>
        <time>2023-11-26T08:30:40Z</time>
      </trkpt>
      <trkpt lat="43.64332" lon="6.64801">
        <ele>474.4</ele>
        <time>2023-11-26T08:30:41Z</time>
      </trkpt>
      <trkpt lat="43.64332" lon="6.64801">
        <ele>474.5</ele>
        <time>2023-11-26T08:30:42Z</time>
      </trkpt>
      <trkpt lat="43.64332" lon="6.648">
        <ele>474.5</ele>
        <time>2023-11-26T08:30:43Z</time>
      </trkpt>
      <trkpt lat="43.64333" lon="6.648">
        <ele>474.4</ele>
        <time>2023-11-26T08:30:44Z</time>
      </trkpt>
      <trkpt lat="43.64333" lon="6.64799">
        <ele>474.4</ele>
        <time>2023-11-26T08:30:45Z</time>
      </trkpt>
      <trkpt lat="43.64333" lon="6.648">
        <ele>474.3</ele>
        <time>2023-11-26T08:30:46Z</time>
      </trkpt>
      <trkpt lat="43.64333" lon="6.648">
        <ele>474.4</ele>
        <time>2023-11-26T08:30:47Z</time>
      </trkpt>
      <trkpt lat="43.64333" lon="6.648">
        <ele>474.5</ele>
        <time>2023-11-26T08:30:48Z</time>
      </trkpt>
      <trkpt lat="43.64333" lon="6.64801">
        <ele>474.5</ele>
        <time>2023-11-26T08:30:49Z</time>
      </trkpt>
      <trkpt lat="43.64333" lon="6.64801">
        <ele>474.5</ele>
        <time>2023-11-26T08:30:50Z</time>
      </trkpt>
      <trkpt lat="43.64333" lon="6.64801">
        <ele>474.4</ele>
        <time>2023-11-26T08:30:51Z</time>
      </trkpt>
      <trkpt lat="43.64333" lon="6.64802">
        <ele>474.3</ele>
        <time>2023-11-26T08:30:52Z</time>
      </trkpt>
      <trkpt lat="43.64333" lon="6.64802">
        <ele>474.3</ele>
        <time>2023-11-26T08:30:53Z</time>
      </trkpt>
      <trkpt lat="43.64333" lon="6.64801">
        <ele>474.2</ele>
        <time>2023-11-26T08:30:54Z</time>
      </trkpt>
      <trkpt lat="43.64332" lon="6.64802">
        <ele>474.2</ele>
        <time>2023-11-26T08:30:55Z</time>
      </trkpt>
      <trkpt lat="43.64333" lon="6.64802">
        <ele>474.2</ele>
        <time>2023-11-26T08:30:56Z</time>
      </trkpt>
      <trkpt lat="43.64332" lon="6.64802">
        <ele>474.1</ele>
        <time>2023-11-26T08:30:57Z</time>
      </trkpt>
      <trkpt lat="43.64332" lon="6.64802">
        <ele>474.1</ele>
        <time>2023-11-26T08:30:58Z</time>
      </trkpt>
      <trkpt lat="43.64332" lon="6.64802">
        <ele>474.1</ele>
        <time>2023-11-26T08:30:59Z</time>
      </trkpt>
      <trkpt lat="43.64332" lon="6.64802">
        <ele>474.1</ele>
        <time>2023-11-26T08:31:00Z</time>
      </trkpt>
      <trkpt lat="43.64331" lon="6.64802">
        <ele>474.1</ele>
        <time>2023-11-26T08:31:01Z</time>
      </trkpt>
      <trkpt lat="43.64332" lon="6.64802">
        <ele>474.1</ele>
        <time>2023-11-26T08:31:02Z</time>
      </trkpt>
      <trkpt lat="43.64332" lon="6.64801">
        <ele>474.3</ele>
        <time>2023-11-26T08:31:03Z</time>
      </trkpt>
      <trkpt lat="43.64331" lon="6.64801">
        <ele>474.4</ele>
        <time>2023-11-26T08:31:04Z</time>
      </trkpt>
      <trkpt lat="43.64332" lon="6.64801">
        <ele>474.4</ele>
        <time>2023-11-26T08:31:05Z</time>
      </trkpt>
      <trkpt lat="43.64332" lon="6.64801">
        <ele>474.3</ele>
        <time>2023-11-26T08:31:06Z</time>
      </trkpt>
      <trkpt lat="43.64332" lon="6.64801">
        <ele>474.3</ele>
        <time>2023-11-26T08:31:07Z</time>
      </trkpt>
      <trkpt lat="43.64331" lon="6.64801">
        <ele>474.2</ele>
        <time>2023-11-26T08:31:08Z</time>
      </trkpt>
      <trkpt lat="43.64331" lon="6.64801">
        <ele>474.2</ele>
        <time>2023-11-26T08:31:09Z</time>
      </trkpt>
      <trkpt lat="43.64331" lon="6.64802">
        <ele>474.1</ele>
        <time>2023-11-26T08:31:10Z</time>
      </trkpt>
      <trkpt lat="43.64331" lon="6.64802">
        <ele>474.2</ele>
        <time>2023-11-26T08:31:11Z</time>
      </trkpt>
      <trkpt lat="43.64331" lon="6.64802">
        <ele>474.2</ele>
        <time>2023-11-26T08:31:12Z</time>
      </trkpt>
      <trkpt lat="43.64331" lon="6.64802">
        <ele>474.3</ele>
        <time>2023-11-26T08:31:13Z</time>
      </trkpt>
      <trkpt lat="43.64331" lon="6.64802">
        <ele>474.3</ele>
        <time>2023-11-26T08:31:14Z</time>
      </trkpt>
      <trkpt lat="43.64331" lon="6.64802">
        <ele>474.3</ele>
        <time>2023-11-26T08:31:15Z</time>
      </trkpt>
      <trkpt lat="43.64331" lon="6.64802">
        <ele>474.3</ele>
        <time>2023-11-26T08:31:16Z</time>
      </trkpt>
      <trkpt lat="43.64331" lon="6.64802">
        <ele>474.2</ele>
        <time>2023-11-26T08:31:17Z</time>
      </trkpt>
      <trkpt lat="43.64332" lon="6.64802">
        <ele>474.2</ele>
        <time>2023-11-26T08:31:18Z</time>
      </trkpt>
      <trkpt lat="43.64332" lon="6.64802">
        <ele>474.2</ele>
        <time>2023-11-26T08:31:19Z</time>
      </trkpt>
      <trkpt lat="43.64332" lon="6.64801">
        <ele>474.2</ele>
        <time>2023-11-26T08:31:20Z</time>
      </trkpt>
      <trkpt lat="43.64332" lon="6.64801">
        <ele>474.1</ele>
        <time>2023-11-26T08:31:21Z</time>
      </trkpt>
      <trkpt lat="43.64332" lon="6.64801">
        <ele>474</ele>
        <time>2023-11-26T08:31:22Z</time>
      </trkpt>
      <trkpt lat="43.64332" lon="6.64802">
        <ele>474</ele>
        <time>2023-11-26T08:31:23Z</time>
      </trkpt>
      <trkpt lat="43.64332" lon="6.64802">
        <ele>474</ele>
        <time>2023-11-26T08:31:24Z</time>
      </trkpt>
      <trkpt lat="43.64332" lon="6.64802">
        <ele>474</ele>
        <time>2023-11-26T08:31:25Z</time>
      </trkpt>
      <trkpt lat="43.64332" lon="6.64802">
        <ele>474</ele>
        <time>2023-11-26T08:31:26Z</time>
      </trkpt>
      <trkpt lat="43.64332" lon="6.64802">
        <ele>474</ele>
        <time>2023-11-26T08:31:27Z</time>
      </trkpt>
      <trkpt lat="43.64332" lon="6.64802">
        <ele>474</ele>
        <time>2023-11-26T08:31:28Z</time>
      </trkpt>
      <trkpt lat="43.64332" lon="6.64802">
        <ele>473.9</ele>
        <time>2023-11-26T08:31:29Z</time>
      </trkpt>
      <trkpt lat="43.64332" lon="6.64802">
        <ele>473.9</ele>
        <time>2023-11-26T08:31:30Z</time>
      </trkpt>
      <trkpt lat="43.64332" lon="6.64802">
        <ele>473.9</ele>
        <time>2023-11-26T08:31:31Z</time>
      </trkpt>
      <trkpt lat="43.64332" lon="6.64801">
        <ele>473.9</ele>
        <time>2023-11-26T08:31:32Z</time>
      </trkpt>
      <trkpt lat="43.64333" lon="6.648">
        <ele>473.9</ele>
        <time>2023-11-26T08:31:33Z</time>
      </trkpt>
      <trkpt lat="43.64333" lon="6.648">
        <ele>473.8</ele>
        <time>2023-11-26T08:31:34Z</time>
      </trkpt>
      <trkpt lat="43.64332" lon="6.64799">
        <ele>473.8</ele>
        <time>2023-11-26T08:31:35Z</time>
      </trkpt>
      <trkpt lat="43.64332" lon="6.64799">
        <ele>473.9</ele>
        <time>2023-11-26T08:31:36Z</time>
      </trkpt>
      <trkpt lat="43.64332" lon="6.64799">
        <ele>473.9</ele>
        <time>2023-11-26T08:31:37Z</time>
      </trkpt>
      <trkpt lat="43.64332" lon="6.64799">
        <ele>473.9</ele>
        <time>2023-11-26T08:31:38Z</time>
      </trkpt>
      <trkpt lat="43.64332" lon="6.64798">
        <ele>473.9</ele>
        <time>2023-11-26T08:31:39Z</time>
      </trkpt>
      <trkpt lat="43.64333" lon="6.64798">
        <ele>473.9</ele>
        <time>2023-11-26T08:31:40Z</time>
      </trkpt>
      <trkpt lat="43.64333" lon="6.64797">
        <ele>473.8</ele>
        <time>2023-11-26T08:31:41Z</time>
      </trkpt>
      <trkpt lat="43.64333" lon="6.64797">
        <ele>473.9</ele>
        <time>2023-11-26T08:31:42Z</time>
      </trkpt>
      <trkpt lat="43.64333" lon="6.64798">
        <ele>473.9</ele>
        <time>2023-11-26T08:31:43Z</time>
      </trkpt>
      <trkpt lat="43.64333" lon="6.64797">
        <ele>473.9</ele>
        <time>2023-11-26T08:31:44Z</time>
      </trkpt>
      <trkpt lat="43.64333" lon="6.64797">
        <ele>473.9</ele>
        <time>2023-11-26T08:31:45Z</time>
      </trkpt>
      <trkpt lat="43.64333" lon="6.64797">
        <ele>473.9</ele>
        <time>2023-11-26T08:31:46Z</time>
      </trkpt>
      <trkpt lat="43.64333" lon="6.64796">
        <ele>473.9</ele>
        <time>2023-11-26T08:31:47Z</time>
      </trkpt>
      <trkpt lat="43.64333" lon="6.64796">
        <ele>473.9</ele>
        <time>2023-11-26T08:31:48Z</time>
      </trkpt>
      <trkpt lat="43.64334" lon="6.64795">
        <ele>473.9</ele>
        <time>2023-11-26T08:31:49Z</time>
      </trkpt>
      <trkpt lat="43.64334" lon="6.64795">
        <ele>473.9</ele>
        <time>2023-11-26T08:31:50Z</time>
      </trkpt>
      <trkpt lat="43.64334" lon="6.64795">
        <ele>473.9</ele>
        <time>2023-11-26T08:31:51Z</time>
      </trkpt>
      <trkpt lat="43.64335" lon="6.64796">
        <ele>473.9</ele>
        <time>2023-11-26T08:31:52Z</time>
      </trkpt>
      <trkpt lat="43.64335" lon="6.64795">
        <ele>473.9</ele>
        <time>2023-11-26T08:31:53Z</time>
      </trkpt>
      <trkpt lat="43.64336" lon="6.64795">
        <ele>473.9</ele>
        <time>2023-11-26T08:31:54Z</time>
      </trkpt>
      <trkpt lat="43.64336" lon="6.64795">
        <ele>474</ele>
        <time>2023-11-26T08:31:55Z</time>
      </trkpt>
      <trkpt lat="43.64337" lon="6.64795">
        <ele>474.2</ele>
        <time>2023-11-26T08:31:56Z</time>
      </trkpt>
      <trkpt lat="43.64337" lon="6.64795">
        <ele>474.3</ele>
        <time>2023-11-26T08:31:57Z</time>
      </trkpt>
      <trkpt lat="43.64338" lon="6.64795">
        <ele>474.4</ele>
        <time>2023-11-26T08:31:58Z</time>
      </trkpt>
      <trkpt lat="43.64339" lon="6.64794">
        <ele>474.5</ele>
        <time>2023-11-26T08:31:59Z</time>
      </trkpt>
      <trkpt lat="43.64339" lon="6.64795">
        <ele>474.6</ele>
        <time>2023-11-26T08:32:00Z</time>
      </trkpt>
      <trkpt lat="43.6434" lon="6.64795">
        <ele>474.7</ele>
        <time>2023-11-26T08:32:01Z</time>
      </trkpt>
      <trkpt lat="43.6434" lon="6.64795">
        <ele>474.8</ele>
        <time>2023-11-26T08:32:02Z</time>
      </trkpt>
      <trkpt lat="43.6434" lon="6.64795">
        <ele>475</ele>
        <time>2023-11-26T08:32:03Z</time>
      </trkpt>
      <trkpt lat="43.6434" lon="6.64796">
        <ele>475.2</ele>
        <time>2023-11-26T08:32:04Z</time>
      </trkpt>
      <trkpt lat="43.64341" lon="6.64796">
        <ele>475.4</ele>
        <time>2023-11-26T08:32:05Z</time>
      </trkpt>
      <trkpt lat="43.64341" lon="6.64796">
        <ele>475.6</ele>
        <time>2023-11-26T08:32:06Z</time>
      </trkpt>
      <trkpt lat="43.64341" lon="6.64797">
        <ele>475.8</ele>
        <time>2023-11-26T08:32:07Z</time>
      </trkpt>
      <trkpt lat="43.64342" lon="6.64796">
        <ele>476</ele>
        <time>2023-11-26T08:32:08Z</time>
      </trkpt>
      <trkpt lat="43.64342" lon="6.64796">
        <ele>476.2</ele>
        <time>2023-11-26T08:32:09Z</time>
      </trkpt>
      <trkpt lat="43.64343" lon="6.64796">
        <ele>476.3</ele>
        <time>2023-11-26T08:32:10Z</time>
      </trkpt>
      <trkpt lat="43.64343" lon="6.64796">
        <ele>476.5</ele>
        <time>2023-11-26T08:32:11Z</time>
      </trkpt>
      <trkpt lat="43.64344" lon="6.64796">
        <ele>476.7</ele>
        <time>2023-11-26T08:32:12Z</time>
      </trkpt>
      <trkpt lat="43.64344" lon="6.64795">
        <ele>476.7</ele>
        <time>2023-11-26T08:32:13Z</time>
      </trkpt>
      <trkpt lat="43.64345" lon="6.64794">
        <ele>476.9</ele>
        <time>2023-11-26T08:32:14Z</time>
      </trkpt>
      <trkpt lat="43.64345" lon="6.64794">
        <ele>477</ele>
        <time>2023-11-26T08:32:15Z</time>
      </trkpt>
      <trkpt lat="43.64346" lon="6.64794">
        <ele>477.2</ele>
        <time>2023-11-26T08:32:16Z</time>
      </trkpt>
      <trkpt lat="43.64346" lon="6.64792">
        <ele>477.3</ele>
        <time>2023-11-26T08:32:17Z</time>
      </trkpt>
      <trkpt lat="43.64347" lon="6.64792">
        <ele>477.5</ele>
        <time>2023-11-26T08:32:18Z</time>
      </trkpt>
      <trkpt lat="43.64347" lon="6.64792">
        <ele>477.8</ele>
        <time>2023-11-26T08:32:19Z</time>
      </trkpt>
      <trkpt lat="43.64348" lon="6.64791">
        <ele>477.9</ele>
        <time>2023-11-26T08:32:20Z</time>
      </trkpt>
      <trkpt lat="43.64348" lon="6.64791">
        <ele>478</ele>
        <time>2023-11-26T08:32:21Z</time>
      </trkpt>
      <trkpt lat="43.64348" lon="6.6479">
        <ele>478.1</ele>
        <time>2023-11-26T08:32:22Z</time>
      </trkpt>
      <trkpt lat="43.64349" lon="6.6479">
        <ele>478.3</ele>
        <time>2023-11-26T08:32:23Z</time>
      </trkpt>
      <trkpt lat="43.64349" lon="6.64789">
        <ele>478.4</ele>
        <time>2023-11-26T08:32:24Z</time>
      </trkpt>
      <trkpt lat="43.6435" lon="6.64788">
        <ele>478.6</ele>
        <time>2023-11-26T08:32:25Z</time>
      </trkpt>
      <trkpt lat="43.6435" lon="6.64788">
        <ele>478.9</ele>
        <time>2023-11-26T08:32:26Z</time>
      </trkpt>
      <trkpt lat="43.64351" lon="6.64786">
        <ele>479.2</ele>
        <time>2023-11-26T08:32:27Z</time>
      </trkpt>
      <trkpt lat="43.64352" lon="6.64785">
        <ele>479.4</ele>
        <time>2023-11-26T08:32:28Z</time>
      </trkpt>
      <trkpt lat="43.64352" lon="6.64784">
        <ele>479.6</ele>
        <time>2023-11-26T08:32:29Z</time>
      </trkpt>
      <trkpt lat="43.64352" lon="6.64783">
        <ele>479.9</ele>
        <time>2023-11-26T08:32:30Z</time>
      </trkpt>
      <trkpt lat="43.64352" lon="6.64783">
        <ele>480.1</ele>
        <time>2023-11-26T08:32:31Z</time>
      </trkpt>
      <trkpt lat="43.64353" lon="6.64782">
        <ele>480.3</ele>
        <time>2023-11-26T08:32:32Z</time>
      </trkpt>
      <trkpt lat="43.64353" lon="6.64781">
        <ele>480.4</ele>
        <time>2023-11-26T08:32:33Z</time>
      </trkpt>
      <trkpt lat="43.64354" lon="6.64781">
        <ele>480.6</ele>
        <time>2023-11-26T08:32:34Z</time>
      </trkpt>
      <trkpt lat="43.64354" lon="6.64781">
        <ele>480.8</ele>
        <time>2023-11-26T08:32:35Z</time>
      </trkpt>
      <trkpt lat="43.64354" lon="6.64781">
        <ele>480.9</ele>
        <time>2023-11-26T08:32:36Z</time>
      </trkpt>
      <trkpt lat="43.64355" lon="6.64781">
        <ele>481</ele>
        <time>2023-11-26T08:32:37Z</time>
      </trkpt>
      <trkpt lat="43.64355" lon="6.64781">
        <ele>481.2</ele>
        <time>2023-11-26T08:32:38Z</time>
      </trkpt>
      <trkpt lat="43.64355" lon="6.6478">
        <ele>481.4</ele>
        <time>2023-11-26T08:32:39Z</time>
      </trkpt>
      <trkpt lat="43.64356" lon="6.6478">
        <ele>481.5</ele>
        <time>2023-11-26T08:32:40Z</time>
      </trkpt>
      <trkpt lat="43.64357" lon="6.64778">
        <ele>481.8</ele>
        <time>2023-11-26T08:32:41Z</time>
      </trkpt>
      <trkpt lat="43.64358" lon="6.64778">
        <ele>481.9</ele>
        <time>2023-11-26T08:32:42Z</time>
      </trkpt>
      <trkpt lat="43.64358" lon="6.64778">
        <ele>482.2</ele>
        <time>2023-11-26T08:32:43Z</time>
      </trkpt>
      <trkpt lat="43.64358" lon="6.64778">
        <ele>482.3</ele>
        <time>2023-11-26T08:32:44Z</time>
      </trkpt>
      <trkpt lat="43.64358" lon="6.64778">
        <ele>482.5</ele>
        <time>2023-11-26T08:32:45Z</time>
      </trkpt>
      <trkpt lat="43.64359" lon="6.64778">
        <ele>482.8</ele>
        <time>2023-11-26T08:32:46Z</time>
      </trkpt>
      <trkpt lat="43.64359" lon="6.64777">
        <ele>482.9</ele>
        <time>2023-11-26T08:32:47Z</time>
      </trkpt>
      <trkpt lat="43.64359" lon="6.64777">
        <ele>483.1</ele>
        <time>2023-11-26T08:32:48Z</time>
      </trkpt>
      <trkpt lat="43.64359" lon="6.64778">
        <ele>483.3</ele>
        <time>2023-11-26T08:32:49Z</time>
      </trkpt>
      <trkpt lat="43.64359" lon="6.64777">
        <ele>483.5</ele>
        <time>2023-11-26T08:32:50Z</time>
      </trkpt>
      <trkpt lat="43.64358" lon="6.64778">
        <ele>483.7</ele>
        <time>2023-11-26T08:32:51Z</time>
      </trkpt>
      <trkpt lat="43.64358" lon="6.64778">
        <ele>483.9</ele>
        <time>2023-11-26T08:32:52Z</time>
      </trkpt>
      <trkpt lat="43.64358" lon="6.64778">
        <ele>484.2</ele>
        <time>2023-11-26T08:32:53Z</time>
      </trkpt>
      <trkpt lat="43.64358" lon="6.64779">
        <ele>484.4</ele>
        <time>2023-11-26T08:32:54Z</time>
      </trkpt>
      <trkpt lat="43.64359" lon="6.64779">
        <ele>484.5</ele>
        <time>2023-11-26T08:32:55Z</time>
      </trkpt>
      <trkpt lat="43.64359" lon="6.6478">
        <ele>484.7</ele>
        <time>2023-11-26T08:32:56Z</time>
      </trkpt>
      <trkpt lat="43.64359" lon="6.6478">
        <ele>484.8</ele>
        <time>2023-11-26T08:32:57Z</time>
      </trkpt>
      <trkpt lat="43.64359" lon="6.6478">
        <ele>484.9</ele>
        <time>2023-11-26T08:32:58Z</time>
      </trkpt>
      <trkpt lat="43.6436" lon="6.64781">
        <ele>485.2</ele>
        <time>2023-11-26T08:32:59Z</time>
      </trkpt>
      <trkpt lat="43.6436" lon="6.64781">
        <ele>485.5</ele>
        <time>2023-11-26T08:33:00Z</time>
      </trkpt>
      <trkpt lat="43.64361" lon="6.64781">
        <ele>485.7</ele>
        <time>2023-11-26T08:33:01Z</time>
      </trkpt>
      <trkpt lat="43.64362" lon="6.64782">
        <ele>485.9</ele>
        <time>2023-11-26T08:33:02Z</time>
      </trkpt>
      <trkpt lat="43.64363" lon="6.64783">
        <ele>486.1</ele>
        <time>2023-11-26T08:33:03Z</time>
      </trkpt>
      <trkpt lat="43.64363" lon="6.64783">
        <ele>486.3</ele>
        <time>2023-11-26T08:33:04Z</time>
      </trkpt>
      <trkpt lat="43.64364" lon="6.64783">
        <ele>486.5</ele>
        <time>2023-11-26T08:33:05Z</time>
      </trkpt>
      <trkpt lat="43.64365" lon="6.64783">
        <ele>486.6</ele>
        <time>2023-11-26T08:33:06Z</time>
      </trkpt>
      <trkpt lat="43.64366" lon="6.64781">
        <ele>486.9</ele>
        <time>2023-11-26T08:33:07Z</time>
      </trkpt>
      <trkpt lat="43.64366" lon="6.64781">
        <ele>486.9</ele>
        <time>2023-11-26T08:33:08Z</time>
      </trkpt>
      <trkpt lat="43.64368" lon="6.64781">
        <ele>486.9</ele>
        <time>2023-11-26T08:33:09Z</time>
      </trkpt>
      <trkpt lat="43.6437" lon="6.6478">
        <ele>486.9</ele>
        <time>2023-11-26T08:33:10Z</time>
      </trkpt>
      <trkpt lat="43.64371" lon="6.64779">
        <ele>486.9</ele>
        <time>2023-11-26T08:33:11Z</time>
      </trkpt>
      <trkpt lat="43.64371" lon="6.64779">
        <ele>487.1</ele>
        <time>2023-11-26T08:33:12Z</time>
      </trkpt>
      <trkpt lat="43.64373" lon="6.64778">
        <ele>487.2</ele>
        <time>2023-11-26T08:33:13Z</time>
      </trkpt>
      <trkpt lat="43.64374" lon="6.64777">
        <ele>487.3</ele>
        <time>2023-11-26T08:33:14Z</time>
      </trkpt>
      <trkpt lat="43.64375" lon="6.64777">
        <ele>487.4</ele>
        <time>2023-11-26T08:33:15Z</time>
      </trkpt>
      <trkpt lat="43.64375" lon="6.64777">
        <ele>487.7</ele>
        <time>2023-11-26T08:33:16Z</time>
      </trkpt>
      <trkpt lat="43.64376" lon="6.64776">
        <ele>487.8</ele>
        <time>2023-11-26T08:33:17Z</time>
      </trkpt>
      <trkpt lat="43.64377" lon="6.64775">
        <ele>488.1</ele>
        <time>2023-11-26T08:33:18Z</time>
      </trkpt>
      <trkpt lat="43.64378" lon="6.64775">
        <ele>488.3</ele>
        <time>2023-11-26T08:33:19Z</time>
      </trkpt>
      <trkpt lat="43.64379" lon="6.64775">
        <ele>488.4</ele>
        <time>2023-11-26T08:33:20Z</time>
      </trkpt>
      <trkpt lat="43.64379" lon="6.64775">
        <ele>488.6</ele>
        <time>2023-11-26T08:33:21Z</time>
      </trkpt>
      <trkpt lat="43.6438" lon="6.64775">
        <ele>488.7</ele>
        <time>2023-11-26T08:33:22Z</time>
      </trkpt>
      <trkpt lat="43.64381" lon="6.64775">
        <ele>488.9</ele>
        <time>2023-11-26T08:33:23Z</time>
      </trkpt>
      <trkpt lat="43.64382" lon="6.64775">
        <ele>489.1</ele>
        <time>2023-11-26T08:33:24Z</time>
      </trkpt>
      <trkpt lat="43.64382" lon="6.64775">
        <ele>489.3</ele>
        <time>2023-11-26T08:33:25Z</time>
      </trkpt>
      <trkpt lat="43.64384" lon="6.64775">
        <ele>489.4</ele>
        <time>2023-11-26T08:33:26Z</time>
      </trkpt>
      <trkpt lat="43.64385" lon="6.64774">
        <ele>489.5</ele>
        <time>2023-11-26T08:33:27Z</time>
      </trkpt>
      <trkpt lat="43.64385" lon="6.64774">
        <ele>489.6</ele>
        <time>2023-11-26T08:33:28Z</time>
      </trkpt>
      <trkpt lat="43.64387" lon="6.64774">
        <ele>489.6</ele>
        <time>2023-11-26T08:33:29Z</time>
      </trkpt>
      <trkpt lat="43.64387" lon="6.64774">
        <ele>489.7</ele>
        <time>2023-11-26T08:33:30Z</time>
      </trkpt>
      <trkpt lat="43.64388" lon="6.64773">
        <ele>489.8</ele>
        <time>2023-11-26T08:33:31Z</time>
      </trkpt>
      <trkpt lat="43.6439" lon="6.64773">
        <ele>489.9</ele>
        <time>2023-11-26T08:33:32Z</time>
      </trkpt>
      <trkpt lat="43.6439" lon="6.64773">
        <ele>490</ele>
        <time>2023-11-26T08:33:33Z</time>
      </trkpt>
      <trkpt lat="43.64391" lon="6.64774">
        <ele>490</ele>
        <time>2023-11-26T08:33:34Z</time>
      </trkpt>
      <trkpt lat="43.64392" lon="6.64773">
        <ele>490</ele>
        <time>2023-11-26T08:33:35Z</time>
      </trkpt>
      <trkpt lat="43.64393" lon="6.64773">
        <ele>490</ele>
        <time>2023-11-26T08:33:36Z</time>
      </trkpt>
      <trkpt lat="43.64394" lon="6.64773">
        <ele>490.1</ele>
        <time>2023-11-26T08:33:37Z</time>
      </trkpt>
      <trkpt lat="43.64395" lon="6.64774">
        <ele>490.1</ele>
        <time>2023-11-26T08:33:38Z</time>
      </trkpt>
      <trkpt lat="43.64396" lon="6.64774">
        <ele>490.1</ele>
        <time>2023-11-26T08:33:39Z</time>
      </trkpt>
      <trkpt lat="43.64397" lon="6.64774">
        <ele>490.2</ele>
        <time>2023-11-26T08:33:40Z</time>
      </trkpt>
      <trkpt lat="43.64398" lon="6.64774">
        <ele>490.2</ele>
        <time>2023-11-26T08:33:41Z</time>
      </trkpt>
      <trkpt lat="43.64399" lon="6.64774">
        <ele>490.3</ele>
        <time>2023-11-26T08:33:42Z</time>
      </trkpt>
      <trkpt lat="43.644" lon="6.64774">
        <ele>490.3</ele>
        <time>2023-11-26T08:33:43Z</time>
      </trkpt>
      <trkpt lat="43.644" lon="6.64774">
        <ele>490.3</ele>
        <time>2023-11-26T08:33:44Z</time>
      </trkpt>
      <trkpt lat="43.64401" lon="6.64775">
        <ele>490.5</ele>
        <time>2023-11-26T08:33:45Z</time>
      </trkpt>
      <trkpt lat="43.64402" lon="6.64775">
        <ele>490.7</ele>
        <time>2023-11-26T08:33:46Z</time>
      </trkpt>
      <trkpt lat="43.64404" lon="6.64774">
        <ele>490.7</ele>
        <time>2023-11-26T08:33:47Z</time>
      </trkpt>
      <trkpt lat="43.64405" lon="6.64773">
        <ele>490.7</ele>
        <time>2023-11-26T08:33:48Z</time>
      </trkpt>
      <trkpt lat="43.64406" lon="6.64773">
        <ele>490.8</ele>
        <time>2023-11-26T08:33:49Z</time>
      </trkpt>
      <trkpt lat="43.64407" lon="6.64771">
        <ele>490.8</ele>
        <time>2023-11-26T08:33:50Z</time>
      </trkpt>
      <trkpt lat="43.6441" lon="6.6477">
        <ele>491.1</ele>
        <time>2023-11-26T08:33:51Z</time>
      </trkpt>
      <trkpt lat="43.64411" lon="6.64769">
        <ele>491.1</ele>
        <time>2023-11-26T08:33:52Z</time>
      </trkpt>
      <trkpt lat="43.64412" lon="6.64768">
        <ele>491.4</ele>
        <time>2023-11-26T08:33:53Z</time>
      </trkpt>
      <trkpt lat="43.64412" lon="6.64768">
        <ele>491.5</ele>
        <time>2023-11-26T08:33:54Z</time>
      </trkpt>
      <trkpt lat="43.64412" lon="6.64769">
        <ele>491.6</ele>
        <time>2023-11-26T08:33:55Z</time>
      </trkpt>
      <trkpt lat="43.64413" lon="6.64769">
        <ele>491.8</ele>
        <time>2023-11-26T08:33:56Z</time>
      </trkpt>
      <trkpt lat="43.64413" lon="6.64769">
        <ele>492</ele>
        <time>2023-11-26T08:33:57Z</time>
      </trkpt>
      <trkpt lat="43.64414" lon="6.64769">
        <ele>492.1</ele>
        <time>2023-11-26T08:33:58Z</time>
      </trkpt>
      <trkpt lat="43.64415" lon="6.64769">
        <ele>492.2</ele>
        <time>2023-11-26T08:33:59Z</time>
      </trkpt>
      <trkpt lat="43.64416" lon="6.64768">
        <ele>492.4</ele>
        <time>2023-11-26T08:34:00Z</time>
      </trkpt>
      <trkpt lat="43.64416" lon="6.64767">
        <ele>492.6</ele>
        <time>2023-11-26T08:34:01Z</time>
      </trkpt>
      <trkpt lat="43.64417" lon="6.64767">
        <ele>492.7</ele>
        <time>2023-11-26T08:34:02Z</time>
      </trkpt>
      <trkpt lat="43.64417" lon="6.64766">
        <ele>492.8</ele>
        <time>2023-11-26T08:34:03Z</time>
      </trkpt>
      <trkpt lat="43.64418" lon="6.64766">
        <ele>492.9</ele>
        <time>2023-11-26T08:34:04Z</time>
      </trkpt>
      <trkpt lat="43.64419" lon="6.64765">
        <ele>493</ele>
        <time>2023-11-26T08:34:05Z</time>
      </trkpt>
      <trkpt lat="43.64421" lon="6.64765">
        <ele>493.2</ele>
        <time>2023-11-26T08:34:06Z</time>
      </trkpt>
      <trkpt lat="43.64422" lon="6.64763">
        <ele>493.4</ele>
        <time>2023-11-26T08:34:07Z</time>
      </trkpt>
      <trkpt lat="43.64423" lon="6.64763">
        <ele>493.6</ele>
        <time>2023-11-26T08:34:08Z</time>
      </trkpt>
      <trkpt lat="43.64424" lon="6.64763">
        <ele>493.7</ele>
        <time>2023-11-26T08:34:09Z</time>
      </trkpt>
      <trkpt lat="43.64425" lon="6.64762">
        <ele>493.8</ele>
        <time>2023-11-26T08:34:10Z</time>
      </trkpt>
      <trkpt lat="43.64426" lon="6.64762">
        <ele>494</ele>
        <time>2023-11-26T08:34:11Z</time>
      </trkpt>
      <trkpt lat="43.64428" lon="6.64759">
        <ele>494.1</ele>
        <time>2023-11-26T08:34:12Z</time>
      </trkpt>
      <trkpt lat="43.64429" lon="6.64758">
        <ele>494.4</ele>
        <time>2023-11-26T08:34:13Z</time>
      </trkpt>
      <trkpt lat="43.64429" lon="6.64758">
        <ele>494.5</ele>
        <time>2023-11-26T08:34:14Z</time>
      </trkpt>
      <trkpt lat="43.64431" lon="6.64756">
        <ele>494.6</ele>
        <time>2023-11-26T08:34:15Z</time>
      </trkpt>
      <trkpt lat="43.64432" lon="6.64756">
        <ele>494.7</ele>
        <time>2023-11-26T08:34:16Z</time>
      </trkpt>
      <trkpt lat="43.64433" lon="6.64756">
        <ele>495</ele>
        <time>2023-11-26T08:34:17Z</time>
      </trkpt>
      <trkpt lat="43.64433" lon="6.64756">
        <ele>495.2</ele>
        <time>2023-11-26T08:34:18Z</time>
      </trkpt>
      <trkpt lat="43.64434" lon="6.64756">
        <ele>495.5</ele>
        <time>2023-11-26T08:34:19Z</time>
      </trkpt>
      <trkpt lat="43.64434" lon="6.64755">
        <ele>495.6</ele>
        <time>2023-11-26T08:34:20Z</time>
      </trkpt>
      <trkpt lat="43.64435" lon="6.64756">
        <ele>495.7</ele>
        <time>2023-11-26T08:34:21Z</time>
      </trkpt>
      <trkpt lat="43.64436" lon="6.64757">
        <ele>495.9</ele>
        <time>2023-11-26T08:34:22Z</time>
      </trkpt>
      <trkpt lat="43.64437" lon="6.64757">
        <ele>496</ele>
        <time>2023-11-26T08:34:23Z</time>
      </trkpt>
      <trkpt lat="43.64438" lon="6.64756">
        <ele>496.1</ele>
        <time>2023-11-26T08:34:24Z</time>
      </trkpt>
      <trkpt lat="43.6444" lon="6.64755">
        <ele>496.2</ele>
        <time>2023-11-26T08:34:25Z</time>
      </trkpt>
      <trkpt lat="43.64441" lon="6.64754">
        <ele>496.3</ele>
        <time>2023-11-26T08:34:26Z</time>
      </trkpt>
      <trkpt lat="43.64442" lon="6.64753">
        <ele>496.5</ele>
        <time>2023-11-26T08:34:27Z</time>
      </trkpt>
      <trkpt lat="43.64443" lon="6.64753">
        <ele>496.6</ele>
        <time>2023-11-26T08:34:28Z</time>
      </trkpt>
      <trkpt lat="43.64444" lon="6.64751">
        <ele>496.7</ele>
        <time>2023-11-26T08:34:29Z</time>
      </trkpt>
      <trkpt lat="43.64445" lon="6.64751">
        <ele>496.8</ele>
        <time>2023-11-26T08:34:30Z</time>
      </trkpt>
      <trkpt lat="43.64445" lon="6.64751">
        <ele>496.9</ele>
        <time>2023-11-26T08:34:31Z</time>
      </trkpt>
      <trkpt lat="43.64445" lon="6.64751">
        <ele>497</ele>
        <time>2023-11-26T08:34:32Z</time>
      </trkpt>
      <trkpt lat="43.64447" lon="6.64751">
        <ele>497.1</ele>
        <time>2023-11-26T08:34:33Z</time>
      </trkpt>
      <trkpt lat="43.64448" lon="6.6475">
        <ele>497.2</ele>
        <time>2023-11-26T08:34:34Z</time>
      </trkpt>
      <trkpt lat="43.64449" lon="6.64749">
        <ele>497.3</ele>
        <time>2023-11-26T08:34:35Z</time>
      </trkpt>
      <trkpt lat="43.6445" lon="6.64748">
        <ele>497.4</ele>
        <time>2023-11-26T08:34:36Z</time>
      </trkpt>
      <trkpt lat="43.64451" lon="6.64748">
        <ele>497.5</ele>
        <time>2023-11-26T08:34:37Z</time>
      </trkpt>
      <trkpt lat="43.64452" lon="6.64747">
        <ele>497.5</ele>
        <time>2023-11-26T08:34:38Z</time>
      </trkpt>
      <trkpt lat="43.64452" lon="6.64747">
        <ele>497.6</ele>
        <time>2023-11-26T08:34:39Z</time>
      </trkpt>
      <trkpt lat="43.64452" lon="6.64746">
        <ele>497.6</ele>
        <time>2023-11-26T08:34:40Z</time>
      </trkpt>
      <trkpt lat="43.64454" lon="6.64746">
        <ele>497.8</ele>
        <time>2023-11-26T08:34:41Z</time>
      </trkpt>
      <trkpt lat="43.64455" lon="6.64746">
        <ele>497.9</ele>
        <time>2023-11-26T08:34:42Z</time>
      </trkpt>
      <trkpt lat="43.64456" lon="6.64746">
        <ele>498</ele>
        <time>2023-11-26T08:34:43Z</time>
      </trkpt>
      <trkpt lat="43.64457" lon="6.64745">
        <ele>498.2</ele>
        <time>2023-11-26T08:34:44Z</time>
      </trkpt>
      <trkpt lat="43.64458" lon="6.64745">
        <ele>498.2</ele>
        <time>2023-11-26T08:34:45Z</time>
      </trkpt>
      <trkpt lat="43.64459" lon="6.64745">
        <ele>498.3</ele>
        <time>2023-11-26T08:34:46Z</time>
      </trkpt>
      <trkpt lat="43.64459" lon="6.64745">
        <ele>498.4</ele>
        <time>2023-11-26T08:34:47Z</time>
      </trkpt>
      <trkpt lat="43.6446" lon="6.64745">
        <ele>498.4</ele>
        <time>2023-11-26T08:34:48Z</time>
      </trkpt>
      <trkpt lat="43.6446" lon="6.64746">
        <ele>498.4</ele>
        <time>2023-11-26T08:34:49Z</time>
      </trkpt>
      <trkpt lat="43.64461" lon="6.64745">
        <ele>498.5</ele>
        <time>2023-11-26T08:34:50Z</time>
      </trkpt>
      <trkpt lat="43.64461" lon="6.64744">
        <ele>498.5</ele>
        <time>2023-11-26T08:34:51Z</time>
      </trkpt>
      <trkpt lat="43.64462" lon="6.64745">
        <ele>498.6</ele>
        <time>2023-11-26T08:34:52Z</time>
      </trkpt>
      <trkpt lat="43.64462" lon="6.64744">
        <ele>498.7</ele>
        <time>2023-11-26T08:34:53Z</time>
      </trkpt>
      <trkpt lat="43.64462" lon="6.64744">
        <ele>498.8</ele>
        <time>2023-11-26T08:34:54Z</time>
      </trkpt>
      <trkpt lat="43.64463" lon="6.64743">
        <ele>498.8</ele>
        <time>2023-11-26T08:34:55Z</time>
      </trkpt>
      <trkpt lat="43.64463" lon="6.64744">
        <ele>499</ele>
        <time>2023-11-26T08:34:56Z</time>
      </trkpt>
      <trkpt lat="43.64464" lon="6.64742">
        <ele>499.1</ele>
        <time>2023-11-26T08:34:57Z</time>
      </trkpt>
      <trkpt lat="43.64465" lon="6.64741">
        <ele>499.2</ele>
        <time>2023-11-26T08:34:58Z</time>
      </trkpt>
      <trkpt lat="43.64466" lon="6.6474">
        <ele>499.3</ele>
        <time>2023-11-26T08:34:59Z</time>
      </trkpt>
      <trkpt lat="43.64466" lon="6.64739">
        <ele>499.3</ele>
        <time>2023-11-26T08:35:00Z</time>
      </trkpt>
      <trkpt lat="43.64468" lon="6.64738">
        <ele>499.5</ele>
        <time>2023-11-26T08:35:01Z</time>
      </trkpt>
      <trkpt lat="43.64469" lon="6.64738">
        <ele>499.7</ele>
        <time>2023-11-26T08:35:02Z</time>
      </trkpt>
      <trkpt lat="43.64472" lon="6.64734">
        <ele>499.8</ele>
        <time>2023-11-26T08:35:03Z</time>
      </trkpt>
      <trkpt lat="43.64472" lon="6.64733">
        <ele>499.9</ele>
        <time>2023-11-26T08:35:04Z</time>
      </trkpt>
      <trkpt lat="43.64472" lon="6.64732">
        <ele>500.1</ele>
        <time>2023-11-26T08:35:05Z</time>
      </trkpt>
      <trkpt lat="43.64473" lon="6.64732">
        <ele>500.2</ele>
        <time>2023-11-26T08:35:06Z</time>
      </trkpt>
      <trkpt lat="43.64473" lon="6.64732">
        <ele>500.4</ele>
        <time>2023-11-26T08:35:07Z</time>
      </trkpt>
      <trkpt lat="43.64473" lon="6.64732">
        <ele>500.5</ele>
        <time>2023-11-26T08:35:08Z</time>
      </trkpt>
      <trkpt lat="43.64473" lon="6.64731">
        <ele>500.6</ele>
        <time>2023-11-26T08:35:09Z</time>
      </trkpt>
      <trkpt lat="43.64473" lon="6.64731">
        <ele>500.7</ele>
        <time>2023-11-26T08:35:10Z</time>
      </trkpt>
      <trkpt lat="43.64474" lon="6.6473">
        <ele>500.9</ele>
        <time>2023-11-26T08:35:11Z</time>
      </trkpt>
      <trkpt lat="43.64474" lon="6.64729">
        <ele>501.1</ele>
        <time>2023-11-26T08:35:12Z</time>
      </trkpt>
      <trkpt lat="43.64475" lon="6.64728">
        <ele>501.2</ele>
        <time>2023-11-26T08:35:13Z</time>
      </trkpt>
      <trkpt lat="43.64475" lon="6.64727">
        <ele>501.5</ele>
        <time>2023-11-26T08:35:14Z</time>
      </trkpt>
      <trkpt lat="43.64476" lon="6.64726">
        <ele>501.7</ele>
        <time>2023-11-26T08:35:15Z</time>
      </trkpt>
      <trkpt lat="43.64477" lon="6.64725">
        <ele>501.9</ele>
        <time>2023-11-26T08:35:16Z</time>
      </trkpt>
      <trkpt lat="43.64477" lon="6.64725">
        <ele>502</ele>
        <time>2023-11-26T08:35:17Z</time>
      </trkpt>
      <trkpt lat="43.64477" lon="6.64725">
        <ele>502.2</ele>
        <time>2023-11-26T08:35:18Z</time>
      </trkpt>
      <trkpt lat="43.64478" lon="6.64725">
        <ele>502.4</ele>
        <time>2023-11-26T08:35:19Z</time>
      </trkpt>
      <trkpt lat="43.64478" lon="6.64724">
        <ele>502.6</ele>
        <time>2023-11-26T08:35:20Z</time>
      </trkpt>
      <trkpt lat="43.64479" lon="6.64724">
        <ele>502.8</ele>
        <time>2023-11-26T08:35:21Z</time>
      </trkpt>
      <trkpt lat="43.64479" lon="6.64724">
        <ele>502.9</ele>
        <time>2023-11-26T08:35:22Z</time>
      </trkpt>
      <trkpt lat="43.6448" lon="6.64725">
        <ele>503.1</ele>
        <time>2023-11-26T08:35:23Z</time>
      </trkpt>
      <trkpt lat="43.64479" lon="6.64724">
        <ele>503.2</ele>
        <time>2023-11-26T08:35:24Z</time>
      </trkpt>
      <trkpt lat="43.64479" lon="6.64724">
        <ele>503.2</ele>
        <time>2023-11-26T08:35:25Z</time>
      </trkpt>
      <trkpt lat="43.64479" lon="6.64724">
        <ele>503.4</ele>
        <time>2023-11-26T08:35:26Z</time>
      </trkpt>
      <trkpt lat="43.64479" lon="6.64723">
        <ele>503.6</ele>
        <time>2023-11-26T08:35:27Z</time>
      </trkpt>
      <trkpt lat="43.64479" lon="6.64723">
        <ele>503.8</ele>
        <time>2023-11-26T08:35:28Z</time>
      </trkpt>
      <trkpt lat="43.6448" lon="6.64723">
        <ele>504</ele>
        <time>2023-11-26T08:35:29Z</time>
      </trkpt>
      <trkpt lat="43.6448" lon="6.64723">
        <ele>504.1</ele>
        <time>2023-11-26T08:35:30Z</time>
      </trkpt>
      <trkpt lat="43.6448" lon="6.64723">
        <ele>504.2</ele>
        <time>2023-11-26T08:35:31Z</time>
      </trkpt>
      <trkpt lat="43.6448" lon="6.64723">
        <ele>504.3</ele>
        <time>2023-11-26T08:35:32Z</time>
      </trkpt>
      <trkpt lat="43.6448" lon="6.64723">
        <ele>504.4</ele>
        <time>2023-11-26T08:35:33Z</time>
      </trkpt>
      <trkpt lat="43.6448" lon="6.64722">
        <ele>504.6</ele>
        <time>2023-11-26T08:35:34Z</time>
      </trkpt>
      <trkpt lat="43.6448" lon="6.64722">
        <ele>504.6</ele>
        <time>2023-11-26T08:35:35Z</time>
      </trkpt>
      <trkpt lat="43.6448" lon="6.64722">
        <ele>504.7</ele>
        <time>2023-11-26T08:35:36Z</time>
      </trkpt>
      <trkpt lat="43.6448" lon="6.64722">
        <ele>504.8</ele>
        <time>2023-11-26T08:35:37Z</time>
      </trkpt>
      <trkpt lat="43.6448" lon="6.64722">
        <ele>504.7</ele>
        <time>2023-11-26T08:35:38Z</time>
      </trkpt>
      <trkpt lat="43.6448" lon="6.64722">
        <ele>504.7</ele>
        <time>2023-11-26T08:35:39Z</time>
      </trkpt>
      <trkpt lat="43.6448" lon="6.64722">
        <ele>504.7</ele>
        <time>2023-11-26T08:35:40Z</time>
      </trkpt>
      <trkpt lat="43.64481" lon="6.64721">
        <ele>504.8</ele>
        <time>2023-11-26T08:35:41Z</time>
      </trkpt>
      <trkpt lat="43.64481" lon="6.64721">
        <ele>504.8</ele>
        <time>2023-11-26T08:35:42Z</time>
      </trkpt>
      <trkpt lat="43.64482" lon="6.64722">
        <ele>504.9</ele>
        <time>2023-11-26T08:35:43Z</time>
      </trkpt>
      <trkpt lat="43.64482" lon="6.64722">
        <ele>504.9</ele>
        <time>2023-11-26T08:35:44Z</time>
      </trkpt>
      <trkpt lat="43.64483" lon="6.64722">
        <ele>505.1</ele>
        <time>2023-11-26T08:35:45Z</time>
      </trkpt>
      <trkpt lat="43.64483" lon="6.64721">
        <ele>505.2</ele>
        <time>2023-11-26T08:35:46Z</time>
      </trkpt>
      <trkpt lat="43.64484" lon="6.64722">
        <ele>505.3</ele>
        <time>2023-11-26T08:35:47Z</time>
      </trkpt>
      <trkpt lat="43.64484" lon="6.64722">
        <ele>505.4</ele>
        <time>2023-11-26T08:35:48Z</time>
      </trkpt>
      <trkpt lat="43.64484" lon="6.64723">
        <ele>505.5</ele>
        <time>2023-11-26T08:35:49Z</time>
      </trkpt>
      <trkpt lat="43.64485" lon="6.64724">
        <ele>505.6</ele>
        <time>2023-11-26T08:35:50Z</time>
      </trkpt>
      <trkpt lat="43.64486" lon="6.64724">
        <ele>505.8</ele>
        <time>2023-11-26T08:35:51Z</time>
      </trkpt>
      <trkpt lat="43.64486" lon="6.64724">
        <ele>505.9</ele>
        <time>2023-11-26T08:35:52Z</time>
      </trkpt>
      <trkpt lat="43.64487" lon="6.64724">
        <ele>506</ele>
        <time>2023-11-26T08:35:53Z</time>
      </trkpt>
      <trkpt lat="43.64488" lon="6.64724">
        <ele>506.1</ele>
        <time>2023-11-26T08:35:54Z</time>
      </trkpt>
      <trkpt lat="43.64488" lon="6.64724">
        <ele>506.2</ele>
        <time>2023-11-26T08:35:55Z</time>
      </trkpt>
      <trkpt lat="43.64489" lon="6.64725">
        <ele>506.3</ele>
        <time>2023-11-26T08:35:56Z</time>
      </trkpt>
      <trkpt lat="43.6449" lon="6.64725">
        <ele>506.5</ele>
        <time>2023-11-26T08:35:57Z</time>
      </trkpt>
      <trkpt lat="43.6449" lon="6.64725">
        <ele>506.7</ele>
        <time>2023-11-26T08:35:58Z</time>
      </trkpt>
      <trkpt lat="43.64491" lon="6.64724">
        <ele>506.9</ele>
        <time>2023-11-26T08:35:59Z</time>
      </trkpt>
      <trkpt lat="43.64492" lon="6.64725">
        <ele>507</ele>
        <time>2023-11-26T08:36:00Z</time>
      </trkpt>
      <trkpt lat="43.64493" lon="6.64725">
        <ele>507.2</ele>
        <time>2023-11-26T08:36:01Z</time>
      </trkpt>
      <trkpt lat="43.64493" lon="6.64725">
        <ele>507.3</ele>
        <time>2023-11-26T08:36:02Z</time>
      </trkpt>
      <trkpt lat="43.64494" lon="6.64725">
        <ele>507.5</ele>
        <time>2023-11-26T08:36:03Z</time>
      </trkpt>
      <trkpt lat="43.64494" lon="6.64726">
        <ele>507.6</ele>
        <time>2023-11-26T08:36:04Z</time>
      </trkpt>
      <trkpt lat="43.64495" lon="6.64726">
        <ele>507.9</ele>
        <time>2023-11-26T08:36:05Z</time>
      </trkpt>
      <trkpt lat="43.64495" lon="6.64726">
        <ele>508.1</ele>
        <time>2023-11-26T08:36:06Z</time>
      </trkpt>
      <trkpt lat="43.64496" lon="6.64727">
        <ele>508.2</ele>
        <time>2023-11-26T08:36:07Z</time>
      </trkpt>
      <trkpt lat="43.64496" lon="6.64727">
        <ele>508.4</ele>
        <time>2023-11-26T08:36:08Z</time>
      </trkpt>
      <trkpt lat="43.64497" lon="6.64727">
        <ele>508.5</ele>
        <time>2023-11-26T08:36:09Z</time>
      </trkpt>
      <trkpt lat="43.64498" lon="6.64727">
        <ele>508.6</ele>
        <time>2023-11-26T08:36:10Z</time>
      </trkpt>
      <trkpt lat="43.64499" lon="6.64727">
        <ele>508.9</ele>
        <time>2023-11-26T08:36:11Z</time>
      </trkpt>
      <trkpt lat="43.645" lon="6.64727">
        <ele>509.1</ele>
        <time>2023-11-26T08:36:12Z</time>
      </trkpt>
      <trkpt lat="43.64501" lon="6.64727">
        <ele>509.3</ele>
        <time>2023-11-26T08:36:13Z</time>
      </trkpt>
      <trkpt lat="43.64502" lon="6.64727">
        <ele>509.4</ele>
        <time>2023-11-26T08:36:14Z</time>
      </trkpt>
      <trkpt lat="43.64502" lon="6.64727">
        <ele>509.6</ele>
        <time>2023-11-26T08:36:15Z</time>
      </trkpt>
      <trkpt lat="43.64503" lon="6.64727">
        <ele>509.6</ele>
        <time>2023-11-26T08:36:16Z</time>
      </trkpt>
      <trkpt lat="43.64505" lon="6.64726">
        <ele>509.8</ele>
        <time>2023-11-26T08:36:17Z</time>
      </trkpt>
      <trkpt lat="43.64505" lon="6.64727">
        <ele>509.9</ele>
        <time>2023-11-26T08:36:18Z</time>
      </trkpt>
      <trkpt lat="43.64505" lon="6.64728">
        <ele>510</ele>
        <time>2023-11-26T08:36:19Z</time>
      </trkpt>
      <trkpt lat="43.64505" lon="6.64727">
        <ele>510.2</ele>
        <time>2023-11-26T08:36:20Z</time>
      </trkpt>
      <trkpt lat="43.64507" lon="6.64726">
        <ele>510.4</ele>
        <time>2023-11-26T08:36:21Z</time>
      </trkpt>
      <trkpt lat="43.64507" lon="6.64726">
        <ele>510.6</ele>
        <time>2023-11-26T08:36:22Z</time>
      </trkpt>
      <trkpt lat="43.64507" lon="6.64726">
        <ele>510.8</ele>
        <time>2023-11-26T08:36:23Z</time>
      </trkpt>
      <trkpt lat="43.64508" lon="6.64726">
        <ele>510.9</ele>
        <time>2023-11-26T08:36:24Z</time>
      </trkpt>
      <trkpt lat="43.6451" lon="6.64725">
        <ele>511.2</ele>
        <time>2023-11-26T08:36:25Z</time>
      </trkpt>
      <trkpt lat="43.64511" lon="6.64725">
        <ele>511.4</ele>
        <time>2023-11-26T08:36:26Z</time>
      </trkpt>
      <trkpt lat="43.64512" lon="6.64724">
        <ele>511.6</ele>
        <time>2023-11-26T08:36:27Z</time>
      </trkpt>
      <trkpt lat="43.64513" lon="6.64724">
        <ele>511.7</ele>
        <time>2023-11-26T08:36:28Z</time>
      </trkpt>
      <trkpt lat="43.64514" lon="6.64724">
        <ele>511.8</ele>
        <time>2023-11-26T08:36:29Z</time>
      </trkpt>
      <trkpt lat="43.64514" lon="6.64725">
        <ele>512</ele>
        <time>2023-11-26T08:36:30Z</time>
      </trkpt>
      <trkpt lat="43.64515" lon="6.64724">
        <ele>512</ele>
        <time>2023-11-26T08:36:31Z</time>
      </trkpt>
      <trkpt lat="43.64515" lon="6.64724">
        <ele>512.3</ele>
        <time>2023-11-26T08:36:32Z</time>
      </trkpt>
      <trkpt lat="43.64516" lon="6.64724">
        <ele>512.4</ele>
        <time>2023-11-26T08:36:33Z</time>
      </trkpt>
      <trkpt lat="43.64517" lon="6.64724">
        <ele>512.6</ele>
        <time>2023-11-26T08:36:34Z</time>
      </trkpt>
      <trkpt lat="43.64517" lon="6.64723">
        <ele>512.8</ele>
        <time>2023-11-26T08:36:35Z</time>
      </trkpt>
      <trkpt lat="43.64517" lon="6.64723">
        <ele>512.9</ele>
        <time>2023-11-26T08:36:36Z</time>
      </trkpt>
      <trkpt lat="43.64518" lon="6.64722">
        <ele>512.9</ele>
        <time>2023-11-26T08:36:37Z</time>
      </trkpt>
      <trkpt lat="43.64519" lon="6.64721">
        <ele>513</ele>
        <time>2023-11-26T08:36:38Z</time>
      </trkpt>
      <trkpt lat="43.64519" lon="6.64721">
        <ele>513.1</ele>
        <time>2023-11-26T08:36:39Z</time>
      </trkpt>
      <trkpt lat="43.6452" lon="6.6472">
        <ele>513.3</ele>
        <time>2023-11-26T08:36:40Z</time>
      </trkpt>
      <trkpt lat="43.6452" lon="6.64721">
        <ele>513.5</ele>
        <time>2023-11-26T08:36:41Z</time>
      </trkpt>
      <trkpt lat="43.64521" lon="6.6472">
        <ele>513.7</ele>
        <time>2023-11-26T08:36:42Z</time>
      </trkpt>
      <trkpt lat="43.64522" lon="6.64719">
        <ele>513.8</ele>
        <time>2023-11-26T08:36:43Z</time>
      </trkpt>
      <trkpt lat="43.64522" lon="6.64719">
        <ele>514.1</ele>
        <time>2023-11-26T08:36:44Z</time>
      </trkpt>
      <trkpt lat="43.64523" lon="6.64718">
        <ele>514.3</ele>
        <time>2023-11-26T08:36:45Z</time>
      </trkpt>
      <trkpt lat="43.64523" lon="6.64719">
        <ele>514.5</ele>
        <time>2023-11-26T08:36:46Z</time>
      </trkpt>
      <trkpt lat="43.64524" lon="6.64719">
        <ele>514.6</ele>
        <time>2023-11-26T08:36:47Z</time>
      </trkpt>
      <trkpt lat="43.64524" lon="6.64719">
        <ele>514.8</ele>
        <time>2023-11-26T08:36:48Z</time>
      </trkpt>
      <trkpt lat="43.64525" lon="6.64719">
        <ele>515</ele>
        <time>2023-11-26T08:36:49Z</time>
      </trkpt>
      <trkpt lat="43.64526" lon="6.64719">
        <ele>515.2</ele>
        <time>2023-11-26T08:36:50Z</time>
      </trkpt>
      <trkpt lat="43.64526" lon="6.6472">
        <ele>515.4</ele>
        <time>2023-11-26T08:36:51Z</time>
      </trkpt>
      <trkpt lat="43.64527" lon="6.64719">
        <ele>515.5</ele>
        <time>2023-11-26T08:36:52Z</time>
      </trkpt>
      <trkpt lat="43.64528" lon="6.64719">
        <ele>515.8</ele>
        <time>2023-11-26T08:36:53Z</time>
      </trkpt>
      <trkpt lat="43.64529" lon="6.64719">
        <ele>515.9</ele>
        <time>2023-11-26T08:36:54Z</time>
      </trkpt>
      <trkpt lat="43.6453" lon="6.64719">
        <ele>516.1</ele>
        <time>2023-11-26T08:36:55Z</time>
      </trkpt>
      <trkpt lat="43.6453" lon="6.64719">
        <ele>516.2</ele>
        <time>2023-11-26T08:36:56Z</time>
      </trkpt>
      <trkpt lat="43.64531" lon="6.64719">
        <ele>516.2</ele>
        <time>2023-11-26T08:36:57Z</time>
      </trkpt>
      <trkpt lat="43.64532" lon="6.64719">
        <ele>516.3</ele>
        <time>2023-11-26T08:36:58Z</time>
      </trkpt>
      <trkpt lat="43.64533" lon="6.64719">
        <ele>516.4</ele>
        <time>2023-11-26T08:36:59Z</time>
      </trkpt>
      <trkpt lat="43.64534" lon="6.64719">
        <ele>516.6</ele>
        <time>2023-11-26T08:37:00Z</time>
      </trkpt>
      <trkpt lat="43.64535" lon="6.64718">
        <ele>516.8</ele>
        <time>2023-11-26T08:37:01Z</time>
      </trkpt>
      <trkpt lat="43.64535" lon="6.64719">
        <ele>517.1</ele>
        <time>2023-11-26T08:37:02Z</time>
      </trkpt>
      <trkpt lat="43.64536" lon="6.64719">
        <ele>517.2</ele>
        <time>2023-11-26T08:37:03Z</time>
      </trkpt>
      <trkpt lat="43.64536" lon="6.64719">
        <ele>517.4</ele>
        <time>2023-11-26T08:37:04Z</time>
      </trkpt>
      <trkpt lat="43.64536" lon="6.6472">
        <ele>517.6</ele>
        <time>2023-11-26T08:37:05Z</time>
      </trkpt>
      <trkpt lat="43.64538" lon="6.6472">
        <ele>517.8</ele>
        <time>2023-11-26T08:37:06Z</time>
      </trkpt>
      <trkpt lat="43.64538" lon="6.6472">
        <ele>517.9</ele>
        <time>2023-11-26T08:37:07Z</time>
      </trkpt>
      <trkpt lat="43.64539" lon="6.6472">
        <ele>518.1</ele>
        <time>2023-11-26T08:37:08Z</time>
      </trkpt>
      <trkpt lat="43.6454" lon="6.6472">
        <ele>518.2</ele>
        <time>2023-11-26T08:37:09Z</time>
      </trkpt>
      <trkpt lat="43.64541" lon="6.6472">
        <ele>518.3</ele>
        <time>2023-11-26T08:37:10Z</time>
      </trkpt>
      <trkpt lat="43.64542" lon="6.64719">
        <ele>518.5</ele>
        <time>2023-11-26T08:37:11Z</time>
      </trkpt>
      <trkpt lat="43.64543" lon="6.64718">
        <ele>518.7</ele>
        <time>2023-11-26T08:37:12Z</time>
      </trkpt>
      <trkpt lat="43.64544" lon="6.64717">
        <ele>518.8</ele>
        <time>2023-11-26T08:37:13Z</time>
      </trkpt>
      <trkpt lat="43.64545" lon="6.64715">
        <ele>519</ele>
        <time>2023-11-26T08:37:14Z</time>
      </trkpt>
      <trkpt lat="43.64546" lon="6.64714">
        <ele>519.2</ele>
        <time>2023-11-26T08:37:15Z</time>
      </trkpt>
      <trkpt lat="43.64547" lon="6.64714">
        <ele>519.4</ele>
        <time>2023-11-26T08:37:16Z</time>
      </trkpt>
      <trkpt lat="43.64547" lon="6.64713">
        <ele>519.5</ele>
        <time>2023-11-26T08:37:17Z</time>
      </trkpt>
      <trkpt lat="43.64549" lon="6.64712">
        <ele>519.6</ele>
        <time>2023-11-26T08:37:18Z</time>
      </trkpt>
      <trkpt lat="43.6455" lon="6.64712">
        <ele>519.7</ele>
        <time>2023-11-26T08:37:19Z</time>
      </trkpt>
      <trkpt lat="43.64551" lon="6.64713">
        <ele>519.7</ele>
        <time>2023-11-26T08:37:20Z</time>
      </trkpt>
      <trkpt lat="43.64552" lon="6.64713">
        <ele>519.6</ele>
        <time>2023-11-26T08:37:21Z</time>
      </trkpt>
      <trkpt lat="43.64554" lon="6.64713">
        <ele>519.6</ele>
        <time>2023-11-26T08:37:22Z</time>
      </trkpt>
      <trkpt lat="43.64555" lon="6.64712">
        <ele>519.6</ele>
        <time>2023-11-26T08:37:23Z</time>
      </trkpt>
      <trkpt lat="43.64555" lon="6.64712">
        <ele>519.6</ele>
        <time>2023-11-26T08:37:24Z</time>
      </trkpt>
      <trkpt lat="43.64556" lon="6.64713">
        <ele>519.6</ele>
        <time>2023-11-26T08:37:25Z</time>
      </trkpt>
      <trkpt lat="43.64557" lon="6.64713">
        <ele>519.6</ele>
        <time>2023-11-26T08:37:26Z</time>
      </trkpt>
      <trkpt lat="43.64558" lon="6.64713">
        <ele>519.5</ele>
        <time>2023-11-26T08:37:27Z</time>
      </trkpt>
      <trkpt lat="43.64559" lon="6.64714">
        <ele>519.4</ele>
        <time>2023-11-26T08:37:28Z</time>
      </trkpt>
      <trkpt lat="43.64561" lon="6.64714">
        <ele>519.4</ele>
        <time>2023-11-26T08:37:29Z</time>
      </trkpt>
      <trkpt lat="43.64561" lon="6.64715">
        <ele>519.5</ele>
        <time>2023-11-26T08:37:30Z</time>
      </trkpt>
      <trkpt lat="43.64562" lon="6.64715">
        <ele>519.5</ele>
        <time>2023-11-26T08:37:31Z</time>
      </trkpt>
      <trkpt lat="43.64563" lon="6.64716">
        <ele>519.5</ele>
        <time>2023-11-26T08:37:32Z</time>
      </trkpt>
      <trkpt lat="43.64563" lon="6.64716">
        <ele>519.7</ele>
        <time>2023-11-26T08:37:33Z</time>
      </trkpt>
      <trkpt lat="43.64564" lon="6.64717">
        <ele>519.7</ele>
        <time>2023-11-26T08:37:34Z</time>
      </trkpt>
      <trkpt lat="43.64563" lon="6.64718">
        <ele>519.8</ele>
        <time>2023-11-26T08:37:35Z</time>
      </trkpt>
      <trkpt lat="43.64563" lon="6.64718">
        <ele>519.8</ele>
        <time>2023-11-26T08:37:36Z</time>
      </trkpt>
      <trkpt lat="43.64563" lon="6.64719">
        <ele>520</ele>
        <time>2023-11-26T08:37:37Z</time>
      </trkpt>
      <trkpt lat="43.64563" lon="6.64719">
        <ele>520.2</ele>
        <time>2023-11-26T08:37:38Z</time>
      </trkpt>
      <trkpt lat="43.64564" lon="6.64719">
        <ele>520.3</ele>
        <time>2023-11-26T08:37:39Z</time>
      </trkpt>
      <trkpt lat="43.64565" lon="6.64719">
        <ele>520.4</ele>
        <time>2023-11-26T08:37:40Z</time>
      </trkpt>
      <trkpt lat="43.64565" lon="6.6472">
        <ele>520.7</ele>
        <time>2023-11-26T08:37:41Z</time>
      </trkpt>
      <trkpt lat="43.64566" lon="6.6472">
        <ele>520.9</ele>
        <time>2023-11-26T08:37:42Z</time>
      </trkpt>
      <trkpt lat="43.64567" lon="6.64719">
        <ele>521</ele>
        <time>2023-11-26T08:37:43Z</time>
      </trkpt>
      <trkpt lat="43.64568" lon="6.64719">
        <ele>521.1</ele>
        <time>2023-11-26T08:37:44Z</time>
      </trkpt>
      <trkpt lat="43.64569" lon="6.64719">
        <ele>521.1</ele>
        <time>2023-11-26T08:37:45Z</time>
      </trkpt>
      <trkpt lat="43.64569" lon="6.6472">
        <ele>521.2</ele>
        <time>2023-11-26T08:37:46Z</time>
      </trkpt>
      <trkpt lat="43.6457" lon="6.6472">
        <ele>521.3</ele>
        <time>2023-11-26T08:37:47Z</time>
      </trkpt>
      <trkpt lat="43.64572" lon="6.6472">
        <ele>521.5</ele>
        <time>2023-11-26T08:37:48Z</time>
      </trkpt>
      <trkpt lat="43.64573" lon="6.6472">
        <ele>521.6</ele>
        <time>2023-11-26T08:37:49Z</time>
      </trkpt>
      <trkpt lat="43.64574" lon="6.6472">
        <ele>521.7</ele>
        <time>2023-11-26T08:37:50Z</time>
      </trkpt>
      <trkpt lat="43.64575" lon="6.64719">
        <ele>521.8</ele>
        <time>2023-11-26T08:37:51Z</time>
      </trkpt>
      <trkpt lat="43.64576" lon="6.6472">
        <ele>521.9</ele>
        <time>2023-11-26T08:37:52Z</time>
      </trkpt>
      <trkpt lat="43.64577" lon="6.6472">
        <ele>522</ele>
        <time>2023-11-26T08:37:53Z</time>
      </trkpt>
      <trkpt lat="43.64578" lon="6.6472">
        <ele>522.1</ele>
        <time>2023-11-26T08:37:54Z</time>
      </trkpt>
      <trkpt lat="43.64579" lon="6.64721">
        <ele>522.1</ele>
        <time>2023-11-26T08:37:55Z</time>
      </trkpt>
      <trkpt lat="43.64579" lon="6.64722">
        <ele>522.1</ele>
        <time>2023-11-26T08:37:56Z</time>
      </trkpt>
      <trkpt lat="43.64578" lon="6.64722">
        <ele>522.1</ele>
        <time>2023-11-26T08:37:57Z</time>
      </trkpt>
      <trkpt lat="43.64578" lon="6.64722">
        <ele>522.2</ele>
        <time>2023-11-26T08:37:58Z</time>
      </trkpt>
      <trkpt lat="43.6458" lon="6.64723">
        <ele>522.2</ele>
        <time>2023-11-26T08:37:59Z</time>
      </trkpt>
      <trkpt lat="43.64581" lon="6.64724">
        <ele>522.3</ele>
        <time>2023-11-26T08:38:00Z</time>
      </trkpt>
      <trkpt lat="43.64581" lon="6.64724">
        <ele>522.4</ele>
        <time>2023-11-26T08:38:01Z</time>
      </trkpt>
      <trkpt lat="43.64581" lon="6.64726">
        <ele>522.5</ele>
        <time>2023-11-26T08:38:02Z</time>
      </trkpt>
      <trkpt lat="43.64582" lon="6.64727">
        <ele>522.6</ele>
        <time>2023-11-26T08:38:03Z</time>
      </trkpt>
      <trkpt lat="43.64583" lon="6.64726">
        <ele>522.6</ele>
        <time>2023-11-26T08:38:04Z</time>
      </trkpt>
      <trkpt lat="43.64585" lon="6.64726">
        <ele>522.8</ele>
        <time>2023-11-26T08:38:05Z</time>
      </trkpt>
      <trkpt lat="43.64585" lon="6.64727">
        <ele>523</ele>
        <time>2023-11-26T08:38:06Z</time>
      </trkpt>
      <trkpt lat="43.64586" lon="6.64727">
        <ele>523.1</ele>
        <time>2023-11-26T08:38:07Z</time>
      </trkpt>
      <trkpt lat="43.64586" lon="6.64728">
        <ele>523.3</ele>
        <time>2023-11-26T08:38:08Z</time>
      </trkpt>
      <trkpt lat="43.64587" lon="6.64729">
        <ele>523.4</ele>
        <time>2023-11-26T08:38:09Z</time>
      </trkpt>
      <trkpt lat="43.64589" lon="6.64729">
        <ele>523.5</ele>
        <time>2023-11-26T08:38:10Z</time>
      </trkpt>
      <trkpt lat="43.64589" lon="6.64729">
        <ele>523.6</ele>
        <time>2023-11-26T08:38:11Z</time>
      </trkpt>
      <trkpt lat="43.6459" lon="6.6473">
        <ele>523.7</ele>
        <time>2023-11-26T08:38:12Z</time>
      </trkpt>
      <trkpt lat="43.64591" lon="6.6473">
        <ele>523.7</ele>
        <time>2023-11-26T08:38:13Z</time>
      </trkpt>
      <trkpt lat="43.64592" lon="6.6473">
        <ele>523.8</ele>
        <time>2023-11-26T08:38:14Z</time>
      </trkpt>
      <trkpt lat="43.64593" lon="6.6473">
        <ele>523.8</ele>
        <time>2023-11-26T08:38:15Z</time>
      </trkpt>
      <trkpt lat="43.64594" lon="6.64731">
        <ele>523.9</ele>
        <time>2023-11-26T08:38:16Z</time>
      </trkpt>
      <trkpt lat="43.64596" lon="6.64731">
        <ele>523.9</ele>
        <time>2023-11-26T08:38:17Z</time>
      </trkpt>
      <trkpt lat="43.64597" lon="6.64731">
        <ele>524</ele>
        <time>2023-11-26T08:38:18Z</time>
      </trkpt>
      <trkpt lat="43.64598" lon="6.6473">
        <ele>524.1</ele>
        <time>2023-11-26T08:38:19Z</time>
      </trkpt>
      <trkpt lat="43.64599" lon="6.6473">
        <ele>524.2</ele>
        <time>2023-11-26T08:38:20Z</time>
      </trkpt>
      <trkpt lat="43.646" lon="6.6473">
        <ele>524.3</ele>
        <time>2023-11-26T08:38:21Z</time>
      </trkpt>
      <trkpt lat="43.64601" lon="6.6473">
        <ele>524.4</ele>
        <time>2023-11-26T08:38:22Z</time>
      </trkpt>
      <trkpt lat="43.64602" lon="6.64731">
        <ele>524.4</ele>
        <time>2023-11-26T08:38:23Z</time>
      </trkpt>
      <trkpt lat="43.64603" lon="6.64732">
        <ele>524.4</ele>
        <time>2023-11-26T08:38:24Z</time>
      </trkpt>
      <trkpt lat="43.64603" lon="6.64732">
        <ele>524.4</ele>
        <time>2023-11-26T08:38:25Z</time>
      </trkpt>
      <trkpt lat="43.64604" lon="6.64732">
        <ele>524.3</ele>
        <time>2023-11-26T08:38:26Z</time>
      </trkpt>
      <trkpt lat="43.64605" lon="6.64734">
        <ele>524.3</ele>
        <time>2023-11-26T08:38:27Z</time>
      </trkpt>
      <trkpt lat="43.64605" lon="6.64735">
        <ele>524.3</ele>
        <time>2023-11-26T08:38:28Z</time>
      </trkpt>
      <trkpt lat="43.64606" lon="6.64735">
        <ele>524.2</ele>
        <time>2023-11-26T08:38:29Z</time>
      </trkpt>
      <trkpt lat="43.64607" lon="6.64734">
        <ele>524.2</ele>
        <time>2023-11-26T08:38:30Z</time>
      </trkpt>
      <trkpt lat="43.64608" lon="6.64735">
        <ele>524.1</ele>
        <time>2023-11-26T08:38:31Z</time>
      </trkpt>
      <trkpt lat="43.64609" lon="6.64735">
        <ele>524.1</ele>
        <time>2023-11-26T08:38:32Z</time>
      </trkpt>
      <trkpt lat="43.64609" lon="6.64736">
        <ele>524.1</ele>
        <time>2023-11-26T08:38:33Z</time>
      </trkpt>
      <trkpt lat="43.64611" lon="6.64737">
        <ele>524.1</ele>
        <time>2023-11-26T08:38:34Z</time>
      </trkpt>
      <trkpt lat="43.64612" lon="6.64737">
        <ele>524</ele>
        <time>2023-11-26T08:38:35Z</time>
      </trkpt>
      <trkpt lat="43.64613" lon="6.64737">
        <ele>523.9</ele>
        <time>2023-11-26T08:38:36Z</time>
      </trkpt>
      <trkpt lat="43.64614" lon="6.64737">
        <ele>523.8</ele>
        <time>2023-11-26T08:38:37Z</time>
      </trkpt>
      <trkpt lat="43.64614" lon="6.64738">
        <ele>523.7</ele>
        <time>2023-11-26T08:38:38Z</time>
      </trkpt>
      <trkpt lat="43.64614" lon="6.64739">
        <ele>523.7</ele>
        <time>2023-11-26T08:38:39Z</time>
      </trkpt>
      <trkpt lat="43.64615" lon="6.64739">
        <ele>523.6</ele>
        <time>2023-11-26T08:38:40Z</time>
      </trkpt>
      <trkpt lat="43.64616" lon="6.6474">
        <ele>523.6</ele>
        <time>2023-11-26T08:38:41Z</time>
      </trkpt>
      <trkpt lat="43.64616" lon="6.6474">
        <ele>523.4</ele>
        <time>2023-11-26T08:38:42Z</time>
      </trkpt>
      <trkpt lat="43.64617" lon="6.6474">
        <ele>523.3</ele>
        <time>2023-11-26T08:38:43Z</time>
      </trkpt>
      <trkpt lat="43.64618" lon="6.64739">
        <ele>523.1</ele>
        <time>2023-11-26T08:38:44Z</time>
      </trkpt>
      <trkpt lat="43.64619" lon="6.6474">
        <ele>522.9</ele>
        <time>2023-11-26T08:38:45Z</time>
      </trkpt>
      <trkpt lat="43.64619" lon="6.6474">
        <ele>522.7</ele>
        <time>2023-11-26T08:38:46Z</time>
      </trkpt>
      <trkpt lat="43.64619" lon="6.6474">
        <ele>522.6</ele>
        <time>2023-11-26T08:38:47Z</time>
      </trkpt>
      <trkpt lat="43.64621" lon="6.64739">
        <ele>522.5</ele>
        <time>2023-11-26T08:38:48Z</time>
      </trkpt>
      <trkpt lat="43.64622" lon="6.64739">
        <ele>522.6</ele>
        <time>2023-11-26T08:38:49Z</time>
      </trkpt>
      <trkpt lat="43.64623" lon="6.64739">
        <ele>522.6</ele>
        <time>2023-11-26T08:38:50Z</time>
      </trkpt>
      <trkpt lat="43.64623" lon="6.64739">
        <ele>522.7</ele>
        <time>2023-11-26T08:38:51Z</time>
      </trkpt>
      <trkpt lat="43.64624" lon="6.6474">
        <ele>522.7</ele>
        <time>2023-11-26T08:38:52Z</time>
      </trkpt>
      <trkpt lat="43.64625" lon="6.64739">
        <ele>522.7</ele>
        <time>2023-11-26T08:38:53Z</time>
      </trkpt>
      <trkpt lat="43.64626" lon="6.64739">
        <ele>522.7</ele>
        <time>2023-11-26T08:38:54Z</time>
      </trkpt>
      <trkpt lat="43.64627" lon="6.64739">
        <ele>522.7</ele>
        <time>2023-11-26T08:38:55Z</time>
      </trkpt>
      <trkpt lat="43.64628" lon="6.64739">
        <ele>522.8</ele>
        <time>2023-11-26T08:38:56Z</time>
      </trkpt>
      <trkpt lat="43.64629" lon="6.64739">
        <ele>522.8</ele>
        <time>2023-11-26T08:38:57Z</time>
      </trkpt>
      <trkpt lat="43.64631" lon="6.64738">
        <ele>523</ele>
        <time>2023-11-26T08:38:58Z</time>
      </trkpt>
      <trkpt lat="43.64631" lon="6.64738">
        <ele>523.1</ele>
        <time>2023-11-26T08:38:59Z</time>
      </trkpt>
      <trkpt lat="43.64633" lon="6.64737">
        <ele>523.1</ele>
        <time>2023-11-26T08:39:00Z</time>
      </trkpt>
      <trkpt lat="43.64634" lon="6.64735">
        <ele>523.2</ele>
        <time>2023-11-26T08:39:01Z</time>
      </trkpt>
      <trkpt lat="43.64635" lon="6.64734">
        <ele>523.3</ele>
        <time>2023-11-26T08:39:02Z</time>
      </trkpt>
      <trkpt lat="43.64635" lon="6.64734">
        <ele>523.5</ele>
        <time>2023-11-26T08:39:03Z</time>
      </trkpt>
      <trkpt lat="43.64636" lon="6.64734">
        <ele>523.6</ele>
        <time>2023-11-26T08:39:04Z</time>
      </trkpt>
      <trkpt lat="43.64636" lon="6.64733">
        <ele>523.8</ele>
        <time>2023-11-26T08:39:05Z</time>
      </trkpt>
      <trkpt lat="43.64636" lon="6.64733">
        <ele>524</ele>
        <time>2023-11-26T08:39:06Z</time>
      </trkpt>
      <trkpt lat="43.64636" lon="6.64733">
        <ele>524.3</ele>
        <time>2023-11-26T08:39:07Z</time>
      </trkpt>
      <trkpt lat="43.64637" lon="6.64732">
        <ele>524.5</ele>
        <time>2023-11-26T08:39:08Z</time>
      </trkpt>
      <trkpt lat="43.64638" lon="6.64731">
        <ele>524.7</ele>
        <time>2023-11-26T08:39:09Z</time>
      </trkpt>
      <trkpt lat="43.64639" lon="6.6473">
        <ele>524.8</ele>
        <time>2023-11-26T08:39:10Z</time>
      </trkpt>
      <trkpt lat="43.64642" lon="6.64728">
        <ele>525</ele>
        <time>2023-11-26T08:39:11Z</time>
      </trkpt>
      <trkpt lat="43.64642" lon="6.64727">
        <ele>525.1</ele>
        <time>2023-11-26T08:39:12Z</time>
      </trkpt>
      <trkpt lat="43.64643" lon="6.64726">
        <ele>525.2</ele>
        <time>2023-11-26T08:39:13Z</time>
      </trkpt>
      <trkpt lat="43.64644" lon="6.64726">
        <ele>525.3</ele>
        <time>2023-11-26T08:39:14Z</time>
      </trkpt>
      <trkpt lat="43.64645" lon="6.64725">
        <ele>525.5</ele>
        <time>2023-11-26T08:39:15Z</time>
      </trkpt>
      <trkpt lat="43.64645" lon="6.64725">
        <ele>525.6</ele>
        <time>2023-11-26T08:39:16Z</time>
      </trkpt>
      <trkpt lat="43.64647" lon="6.64724">
        <ele>525.7</ele>
        <time>2023-11-26T08:39:17Z</time>
      </trkpt>
      <trkpt lat="43.64648" lon="6.64723">
        <ele>525.9</ele>
        <time>2023-11-26T08:39:18Z</time>
      </trkpt>
      <trkpt lat="43.64649" lon="6.64723">
        <ele>526.1</ele>
        <time>2023-11-26T08:39:19Z</time>
      </trkpt>
      <trkpt lat="43.6465" lon="6.64722">
        <ele>526.2</ele>
        <time>2023-11-26T08:39:20Z</time>
      </trkpt>
      <trkpt lat="43.6465" lon="6.64723">
        <ele>526.5</ele>
        <time>2023-11-26T08:39:21Z</time>
      </trkpt>
      <trkpt lat="43.64649" lon="6.64725">
        <ele>526.7</ele>
        <time>2023-11-26T08:39:22Z</time>
      </trkpt>
      <trkpt lat="43.64649" lon="6.64725">
        <ele>526.9</ele>
        <time>2023-11-26T08:39:23Z</time>
      </trkpt>
      <trkpt lat="43.64651" lon="6.64724">
        <ele>527.1</ele>
        <time>2023-11-26T08:39:24Z</time>
      </trkpt>
      <trkpt lat="43.64652" lon="6.64723">
        <ele>527.3</ele>
        <time>2023-11-26T08:39:25Z</time>
      </trkpt>
      <trkpt lat="43.64653" lon="6.64723">
        <ele>527.4</ele>
        <time>2023-11-26T08:39:26Z</time>
      </trkpt>
      <trkpt lat="43.64653" lon="6.64723">
        <ele>527.5</ele>
        <time>2023-11-26T08:39:27Z</time>
      </trkpt>
      <trkpt lat="43.64655" lon="6.64721">
        <ele>527.7</ele>
        <time>2023-11-26T08:39:28Z</time>
      </trkpt>
      <trkpt lat="43.64656" lon="6.64719">
        <ele>527.9</ele>
        <time>2023-11-26T08:39:29Z</time>
      </trkpt>
      <trkpt lat="43.64657" lon="6.64719">
        <ele>528.1</ele>
        <time>2023-11-26T08:39:30Z</time>
      </trkpt>
      <trkpt lat="43.64658" lon="6.64719">
        <ele>528.3</ele>
        <time>2023-11-26T08:39:31Z</time>
      </trkpt>
      <trkpt lat="43.64659" lon="6.64717">
        <ele>528.5</ele>
        <time>2023-11-26T08:39:32Z</time>
      </trkpt>
      <trkpt lat="43.6466" lon="6.64715">
        <ele>528.7</ele>
        <time>2023-11-26T08:39:33Z</time>
      </trkpt>
      <trkpt lat="43.6466" lon="6.64714">
        <ele>528.9</ele>
        <time>2023-11-26T08:39:34Z</time>
      </trkpt>
      <trkpt lat="43.64661" lon="6.64712">
        <ele>529.1</ele>
        <time>2023-11-26T08:39:35Z</time>
      </trkpt>
      <trkpt lat="43.64662" lon="6.64711">
        <ele>529.2</ele>
        <time>2023-11-26T08:39:36Z</time>
      </trkpt>
      <trkpt lat="43.64663" lon="6.6471">
        <ele>529.3</ele>
        <time>2023-11-26T08:39:37Z</time>
      </trkpt>
      <trkpt lat="43.64663" lon="6.64709">
        <ele>529.5</ele>
        <time>2023-11-26T08:39:38Z</time>
      </trkpt>
      <trkpt lat="43.64663" lon="6.64708">
        <ele>529.6</ele>
        <time>2023-11-26T08:39:39Z</time>
      </trkpt>
      <trkpt lat="43.64663" lon="6.64708">
        <ele>529.7</ele>
        <time>2023-11-26T08:39:40Z</time>
      </trkpt>
      <trkpt lat="43.64664" lon="6.64707">
        <ele>529.9</ele>
        <time>2023-11-26T08:39:41Z</time>
      </trkpt>
      <trkpt lat="43.64664" lon="6.64706">
        <ele>530.3</ele>
        <time>2023-11-26T08:39:42Z</time>
      </trkpt>
      <trkpt lat="43.64665" lon="6.64706">
        <ele>530.7</ele>
        <time>2023-11-26T08:39:43Z</time>
      </trkpt>
      <trkpt lat="43.64666" lon="6.64705">
        <ele>530.9</ele>
        <time>2023-11-26T08:39:44Z</time>
      </trkpt>
      <trkpt lat="43.64667" lon="6.64704">
        <ele>531.1</ele>
        <time>2023-11-26T08:39:45Z</time>
      </trkpt>
      <trkpt lat="43.64668" lon="6.64704">
        <ele>531.3</ele>
        <time>2023-11-26T08:39:46Z</time>
      </trkpt>
      <trkpt lat="43.64669" lon="6.64703">
        <ele>531.5</ele>
        <time>2023-11-26T08:39:47Z</time>
      </trkpt>
      <trkpt lat="43.6467" lon="6.64702">
        <ele>531.6</ele>
        <time>2023-11-26T08:39:48Z</time>
      </trkpt>
      <trkpt lat="43.6467" lon="6.64702">
        <ele>531.7</ele>
        <time>2023-11-26T08:39:49Z</time>
      </trkpt>
      <trkpt lat="43.64673" lon="6.64699">
        <ele>532</ele>
        <time>2023-11-26T08:39:50Z</time>
      </trkpt>
      <trkpt lat="43.64674" lon="6.64698">
        <ele>532.2</ele>
        <time>2023-11-26T08:39:51Z</time>
      </trkpt>
      <trkpt lat="43.64675" lon="6.64697">
        <ele>532.4</ele>
        <time>2023-11-26T08:39:52Z</time>
      </trkpt>
      <trkpt lat="43.64676" lon="6.64696">
        <ele>532.5</ele>
        <time>2023-11-26T08:39:53Z</time>
      </trkpt>
      <trkpt lat="43.64676" lon="6.64696">
        <ele>532.7</ele>
        <time>2023-11-26T08:39:54Z</time>
      </trkpt>
      <trkpt lat="43.64677" lon="6.64695">
        <ele>532.9</ele>
        <time>2023-11-26T08:39:55Z</time>
      </trkpt>
      <trkpt lat="43.64678" lon="6.64695">
        <ele>533.3</ele>
        <time>2023-11-26T08:39:56Z</time>
      </trkpt>
      <trkpt lat="43.64678" lon="6.64694">
        <ele>533.4</ele>
        <time>2023-11-26T08:39:57Z</time>
      </trkpt>
      <trkpt lat="43.64679" lon="6.64693">
        <ele>533.7</ele>
        <time>2023-11-26T08:39:58Z</time>
      </trkpt>
      <trkpt lat="43.6468" lon="6.64693">
        <ele>533.9</ele>
        <time>2023-11-26T08:39:59Z</time>
      </trkpt>
      <trkpt lat="43.6468" lon="6.64692">
        <ele>534.1</ele>
        <time>2023-11-26T08:40:00Z</time>
      </trkpt>
      <trkpt lat="43.64681" lon="6.64692">
        <ele>534.3</ele>
        <time>2023-11-26T08:40:01Z</time>
      </trkpt>
      <trkpt lat="43.64681" lon="6.64691">
        <ele>534.5</ele>
        <time>2023-11-26T08:40:02Z</time>
      </trkpt>
      <trkpt lat="43.64682" lon="6.6469">
        <ele>534.7</ele>
        <time>2023-11-26T08:40:03Z</time>
      </trkpt>
      <trkpt lat="43.64682" lon="6.6469">
        <ele>534.7</ele>
        <time>2023-11-26T08:40:04Z</time>
      </trkpt>
      <trkpt lat="43.64682" lon="6.6469">
        <ele>535</ele>
        <time>2023-11-26T08:40:05Z</time>
      </trkpt>
      <trkpt lat="43.64681" lon="6.6469">
        <ele>535.3</ele>
        <time>2023-11-26T08:40:06Z</time>
      </trkpt>
      <trkpt lat="43.64681" lon="6.6469">
        <ele>535.5</ele>
        <time>2023-11-26T08:40:07Z</time>
      </trkpt>
      <trkpt lat="43.64681" lon="6.6469">
        <ele>535.7</ele>
        <time>2023-11-26T08:40:08Z</time>
      </trkpt>
      <trkpt lat="43.64681" lon="6.64689">
        <ele>535.9</ele>
        <time>2023-11-26T08:40:09Z</time>
      </trkpt>
      <trkpt lat="43.64681" lon="6.64689">
        <ele>536</ele>
        <time>2023-11-26T08:40:10Z</time>
      </trkpt>
      <trkpt lat="43.64681" lon="6.64688">
        <ele>536.2</ele>
        <time>2023-11-26T08:40:11Z</time>
      </trkpt>
      <trkpt lat="43.64682" lon="6.64688">
        <ele>536.4</ele>
        <time>2023-11-26T08:40:12Z</time>
      </trkpt>
      <trkpt lat="43.64682" lon="6.64688">
        <ele>536.6</ele>
        <time>2023-11-26T08:40:13Z</time>
      </trkpt>
      <trkpt lat="43.64682" lon="6.64688">
        <ele>536.8</ele>
        <time>2023-11-26T08:40:14Z</time>
      </trkpt>
      <trkpt lat="43.64682" lon="6.64688">
        <ele>537</ele>
        <time>2023-11-26T08:40:15Z</time>
      </trkpt>
      <trkpt lat="43.64682" lon="6.64688">
        <ele>537.1</ele>
        <time>2023-11-26T08:40:16Z</time>
      </trkpt>
      <trkpt lat="43.64682" lon="6.64689">
        <ele>537.3</ele>
        <time>2023-11-26T08:40:17Z</time>
      </trkpt>
      <trkpt lat="43.64683" lon="6.64689">
        <ele>537.6</ele>
        <time>2023-11-26T08:40:18Z</time>
      </trkpt>
      <trkpt lat="43.64683" lon="6.64689">
        <ele>537.8</ele>
        <time>2023-11-26T08:40:19Z</time>
      </trkpt>
      <trkpt lat="43.64683" lon="6.64689">
        <ele>537.9</ele>
        <time>2023-11-26T08:40:20Z</time>
      </trkpt>
      <trkpt lat="43.64684" lon="6.64688">
        <ele>538</ele>
        <time>2023-11-26T08:40:21Z</time>
      </trkpt>
      <trkpt lat="43.64685" lon="6.64686">
        <ele>538.2</ele>
        <time>2023-11-26T08:40:22Z</time>
      </trkpt>
      <trkpt lat="43.64685" lon="6.64686">
        <ele>538.4</ele>
        <time>2023-11-26T08:40:23Z</time>
      </trkpt>
      <trkpt lat="43.64685" lon="6.64686">
        <ele>538.6</ele>
        <time>2023-11-26T08:40:24Z</time>
      </trkpt>
      <trkpt lat="43.64685" lon="6.64685">
        <ele>538.8</ele>
        <time>2023-11-26T08:40:25Z</time>
      </trkpt>
      <trkpt lat="43.64686" lon="6.64685">
        <ele>538.9</ele>
        <time>2023-11-26T08:40:26Z</time>
      </trkpt>
      <trkpt lat="43.64687" lon="6.64684">
        <ele>539.1</ele>
        <time>2023-11-26T08:40:27Z</time>
      </trkpt>
      <trkpt lat="43.64687" lon="6.64684">
        <ele>539.3</ele>
        <time>2023-11-26T08:40:28Z</time>
      </trkpt>
      <trkpt lat="43.6469" lon="6.64681">
        <ele>539.5</ele>
        <time>2023-11-26T08:40:29Z</time>
      </trkpt>
      <trkpt lat="43.6469" lon="6.64681">
        <ele>539.8</ele>
        <time>2023-11-26T08:40:30Z</time>
      </trkpt>
      <trkpt lat="43.64692" lon="6.6468">
        <ele>540</ele>
        <time>2023-11-26T08:40:31Z</time>
      </trkpt>
      <trkpt lat="43.64692" lon="6.64679">
        <ele>540.1</ele>
        <time>2023-11-26T08:40:32Z</time>
      </trkpt>
      <trkpt lat="43.64693" lon="6.64679">
        <ele>540.4</ele>
        <time>2023-11-26T08:40:33Z</time>
      </trkpt>
      <trkpt lat="43.64693" lon="6.64679">
        <ele>540.6</ele>
        <time>2023-11-26T08:40:34Z</time>
      </trkpt>
      <trkpt lat="43.64693" lon="6.64678">
        <ele>540.8</ele>
        <time>2023-11-26T08:40:35Z</time>
      </trkpt>
      <trkpt lat="43.64694" lon="6.64678">
        <ele>540.9</ele>
        <time>2023-11-26T08:40:36Z</time>
      </trkpt>
      <trkpt lat="43.64695" lon="6.64679">
        <ele>541</ele>
        <time>2023-11-26T08:40:37Z</time>
      </trkpt>
      <trkpt lat="43.64695" lon="6.64677">
        <ele>541</ele>
        <time>2023-11-26T08:40:38Z</time>
      </trkpt>
      <trkpt lat="43.64696" lon="6.64677">
        <ele>541.2</ele>
        <time>2023-11-26T08:40:39Z</time>
      </trkpt>
      <trkpt lat="43.64695" lon="6.64677">
        <ele>541.4</ele>
        <time>2023-11-26T08:40:40Z</time>
      </trkpt>
      <trkpt lat="43.64695" lon="6.64678">
        <ele>541.5</ele>
        <time>2023-11-26T08:40:41Z</time>
      </trkpt>
      <trkpt lat="43.64696" lon="6.64678">
        <ele>541.7</ele>
        <time>2023-11-26T08:40:42Z</time>
      </trkpt>
      <trkpt lat="43.64696" lon="6.64678">
        <ele>541.9</ele>
        <time>2023-11-26T08:40:43Z</time>
      </trkpt>
      <trkpt lat="43.64697" lon="6.64678">
        <ele>542.1</ele>
        <time>2023-11-26T08:40:44Z</time>
      </trkpt>
      <trkpt lat="43.64698" lon="6.64677">
        <ele>542.2</ele>
        <time>2023-11-26T08:40:45Z</time>
      </trkpt>
      <trkpt lat="43.64698" lon="6.64677">
        <ele>542.3</ele>
        <time>2023-11-26T08:40:46Z</time>
      </trkpt>
      <trkpt lat="43.64698" lon="6.64677">
        <ele>542.4</ele>
        <time>2023-11-26T08:40:47Z</time>
      </trkpt>
      <trkpt lat="43.64699" lon="6.64677">
        <ele>542.5</ele>
        <time>2023-11-26T08:40:48Z</time>
      </trkpt>
      <trkpt lat="43.64699" lon="6.64676">
        <ele>542.7</ele>
        <time>2023-11-26T08:40:49Z</time>
      </trkpt>
      <trkpt lat="43.647" lon="6.64675">
        <ele>542.9</ele>
        <time>2023-11-26T08:40:50Z</time>
      </trkpt>
      <trkpt lat="43.647" lon="6.64676">
        <ele>543.1</ele>
        <time>2023-11-26T08:40:51Z</time>
      </trkpt>
      <trkpt lat="43.647" lon="6.64675">
        <ele>543.3</ele>
        <time>2023-11-26T08:40:52Z</time>
      </trkpt>
      <trkpt lat="43.64701" lon="6.64674">
        <ele>543.5</ele>
        <time>2023-11-26T08:40:53Z</time>
      </trkpt>
      <trkpt lat="43.64701" lon="6.64673">
        <ele>543.7</ele>
        <time>2023-11-26T08:40:54Z</time>
      </trkpt>
      <trkpt lat="43.64702" lon="6.64672">
        <ele>544</ele>
        <time>2023-11-26T08:40:55Z</time>
      </trkpt>
      <trkpt lat="43.64703" lon="6.64671">
        <ele>544.1</ele>
        <time>2023-11-26T08:40:56Z</time>
      </trkpt>
      <trkpt lat="43.64703" lon="6.6467">
        <ele>544.4</ele>
        <time>2023-11-26T08:40:57Z</time>
      </trkpt>
      <trkpt lat="43.64704" lon="6.6467">
        <ele>544.5</ele>
        <time>2023-11-26T08:40:58Z</time>
      </trkpt>
      <trkpt lat="43.64705" lon="6.64669">
        <ele>544.7</ele>
        <time>2023-11-26T08:40:59Z</time>
      </trkpt>
      <trkpt lat="43.64705" lon="6.64668">
        <ele>544.8</ele>
        <time>2023-11-26T08:41:00Z</time>
      </trkpt>
      <trkpt lat="43.64706" lon="6.64666">
        <ele>544.9</ele>
        <time>2023-11-26T08:41:01Z</time>
      </trkpt>
      <trkpt lat="43.64706" lon="6.64664">
        <ele>545.1</ele>
        <time>2023-11-26T08:41:02Z</time>
      </trkpt>
      <trkpt lat="43.64706" lon="6.64664">
        <ele>545.3</ele>
        <time>2023-11-26T08:41:03Z</time>
      </trkpt>
      <trkpt lat="43.64706" lon="6.64664">
        <ele>545.5</ele>
        <time>2023-11-26T08:41:04Z</time>
      </trkpt>
      <trkpt lat="43.64706" lon="6.64664">
        <ele>545.7</ele>
        <time>2023-11-26T08:41:05Z</time>
      </trkpt>
      <trkpt lat="43.64706" lon="6.64663">
        <ele>545.8</ele>
        <time>2023-11-26T08:41:06Z</time>
      </trkpt>
      <trkpt lat="43.64707" lon="6.64662">
        <ele>546</ele>
        <time>2023-11-26T08:41:07Z</time>
      </trkpt>
      <trkpt lat="43.64707" lon="6.64661">
        <ele>546.1</ele>
        <time>2023-11-26T08:41:08Z</time>
      </trkpt>
      <trkpt lat="43.64708" lon="6.6466">
        <ele>546.3</ele>
        <time>2023-11-26T08:41:09Z</time>
      </trkpt>
      <trkpt lat="43.64709" lon="6.64659">
        <ele>546.4</ele>
        <time>2023-11-26T08:41:10Z</time>
      </trkpt>
      <trkpt lat="43.6471" lon="6.64658">
        <ele>546.6</ele>
        <time>2023-11-26T08:41:11Z</time>
      </trkpt>
      <trkpt lat="43.6471" lon="6.64656">
        <ele>546.8</ele>
        <time>2023-11-26T08:41:12Z</time>
      </trkpt>
      <trkpt lat="43.64711" lon="6.64655">
        <ele>546.9</ele>
        <time>2023-11-26T08:41:13Z</time>
      </trkpt>
      <trkpt lat="43.64712" lon="6.64655">
        <ele>547.1</ele>
        <time>2023-11-26T08:41:14Z</time>
      </trkpt>
      <trkpt lat="43.64712" lon="6.64654">
        <ele>547.2</ele>
        <time>2023-11-26T08:41:15Z</time>
      </trkpt>
      <trkpt lat="43.64713" lon="6.64653">
        <ele>547.2</ele>
        <time>2023-11-26T08:41:16Z</time>
      </trkpt>
      <trkpt lat="43.64714" lon="6.64652">
        <ele>547.4</ele>
        <time>2023-11-26T08:41:17Z</time>
      </trkpt>
      <trkpt lat="43.64715" lon="6.64651">
        <ele>547.6</ele>
        <time>2023-11-26T08:41:18Z</time>
      </trkpt>
      <trkpt lat="43.64716" lon="6.64651">
        <ele>547.7</ele>
        <time>2023-11-26T08:41:19Z</time>
      </trkpt>
      <trkpt lat="43.64716" lon="6.64649">
        <ele>547.8</ele>
        <time>2023-11-26T08:41:20Z</time>
      </trkpt>
      <trkpt lat="43.64717" lon="6.64648">
        <ele>547.9</ele>
        <time>2023-11-26T08:41:21Z</time>
      </trkpt>
      <trkpt lat="43.64717" lon="6.64648">
        <ele>548</ele>
        <time>2023-11-26T08:41:22Z</time>
      </trkpt>
      <trkpt lat="43.64718" lon="6.64646">
        <ele>548.2</ele>
        <time>2023-11-26T08:41:23Z</time>
      </trkpt>
      <trkpt lat="43.64718" lon="6.64645">
        <ele>548.4</ele>
        <time>2023-11-26T08:41:24Z</time>
      </trkpt>
      <trkpt lat="43.64718" lon="6.64645">
        <ele>548.5</ele>
        <time>2023-11-26T08:41:25Z</time>
      </trkpt>
      <trkpt lat="43.64718" lon="6.64644">
        <ele>548.7</ele>
        <time>2023-11-26T08:41:26Z</time>
      </trkpt>
      <trkpt lat="43.64718" lon="6.64643">
        <ele>548.9</ele>
        <time>2023-11-26T08:41:27Z</time>
      </trkpt>
      <trkpt lat="43.64717" lon="6.64642">
        <ele>549.2</ele>
        <time>2023-11-26T08:41:28Z</time>
      </trkpt>
      <trkpt lat="43.64716" lon="6.64642">
        <ele>549.4</ele>
        <time>2023-11-26T08:41:29Z</time>
      </trkpt>
      <trkpt lat="43.64715" lon="6.64642">
        <ele>549.5</ele>
        <time>2023-11-26T08:41:30Z</time>
      </trkpt>
      <trkpt lat="43.64715" lon="6.64641">
        <ele>549.7</ele>
        <time>2023-11-26T08:41:31Z</time>
      </trkpt>
      <trkpt lat="43.64713" lon="6.64641">
        <ele>549.9</ele>
        <time>2023-11-26T08:41:32Z</time>
      </trkpt>
      <trkpt lat="43.64713" lon="6.6464">
        <ele>550.1</ele>
        <time>2023-11-26T08:41:33Z</time>
      </trkpt>
      <trkpt lat="43.64711" lon="6.64639">
        <ele>550.2</ele>
        <time>2023-11-26T08:41:34Z</time>
      </trkpt>
      <trkpt lat="43.64711" lon="6.64638">
        <ele>550.3</ele>
        <time>2023-11-26T08:41:35Z</time>
      </trkpt>
      <trkpt lat="43.6471" lon="6.64637">
        <ele>550.6</ele>
        <time>2023-11-26T08:41:36Z</time>
      </trkpt>
      <trkpt lat="43.6471" lon="6.64637">
        <ele>550.8</ele>
        <time>2023-11-26T08:41:37Z</time>
      </trkpt>
      <trkpt lat="43.6471" lon="6.64636">
        <ele>550.9</ele>
        <time>2023-11-26T08:41:38Z</time>
      </trkpt>
      <trkpt lat="43.6471" lon="6.64635">
        <ele>551.1</ele>
        <time>2023-11-26T08:41:39Z</time>
      </trkpt>
      <trkpt lat="43.6471" lon="6.64634">
        <ele>551.2</ele>
        <time>2023-11-26T08:41:40Z</time>
      </trkpt>
      <trkpt lat="43.6471" lon="6.64633">
        <ele>551.5</ele>
        <time>2023-11-26T08:41:41Z</time>
      </trkpt>
      <trkpt lat="43.64709" lon="6.64632">
        <ele>551.7</ele>
        <time>2023-11-26T08:41:42Z</time>
      </trkpt>
      <trkpt lat="43.64708" lon="6.64632">
        <ele>551.9</ele>
        <time>2023-11-26T08:41:43Z</time>
      </trkpt>
      <trkpt lat="43.64708" lon="6.64631">
        <ele>552.1</ele>
        <time>2023-11-26T08:41:44Z</time>
      </trkpt>
      <trkpt lat="43.64707" lon="6.6463">
        <ele>552.3</ele>
        <time>2023-11-26T08:41:45Z</time>
      </trkpt>
      <trkpt lat="43.64706" lon="6.6463">
        <ele>552.4</ele>
        <time>2023-11-26T08:41:46Z</time>
      </trkpt>
      <trkpt lat="43.64705" lon="6.64631">
        <ele>552.7</ele>
        <time>2023-11-26T08:41:47Z</time>
      </trkpt>
      <trkpt lat="43.64705" lon="6.6463">
        <ele>552.9</ele>
        <time>2023-11-26T08:41:48Z</time>
      </trkpt>
      <trkpt lat="43.64704" lon="6.6463">
        <ele>553.1</ele>
        <time>2023-11-26T08:41:49Z</time>
      </trkpt>
      <trkpt lat="43.64703" lon="6.6463">
        <ele>553.2</ele>
        <time>2023-11-26T08:41:50Z</time>
      </trkpt>
      <trkpt lat="43.64703" lon="6.64631">
        <ele>553.4</ele>
        <time>2023-11-26T08:41:51Z</time>
      </trkpt>
      <trkpt lat="43.64702" lon="6.6463">
        <ele>553.5</ele>
        <time>2023-11-26T08:41:52Z</time>
      </trkpt>
      <trkpt lat="43.64702" lon="6.6463">
        <ele>553.7</ele>
        <time>2023-11-26T08:41:53Z</time>
      </trkpt>
      <trkpt lat="43.64701" lon="6.6463">
        <ele>554</ele>
        <time>2023-11-26T08:41:54Z</time>
      </trkpt>
      <trkpt lat="43.64701" lon="6.6463">
        <ele>554.2</ele>
        <time>2023-11-26T08:41:55Z</time>
      </trkpt>
      <trkpt lat="43.647" lon="6.6463">
        <ele>554.4</ele>
        <time>2023-11-26T08:41:56Z</time>
      </trkpt>
      <trkpt lat="43.647" lon="6.64629">
        <ele>554.6</ele>
        <time>2023-11-26T08:41:57Z</time>
      </trkpt>
      <trkpt lat="43.647" lon="6.64628">
        <ele>554.8</ele>
        <time>2023-11-26T08:41:58Z</time>
      </trkpt>
      <trkpt lat="43.647" lon="6.64628">
        <ele>555</ele>
        <time>2023-11-26T08:41:59Z</time>
      </trkpt>
      <trkpt lat="43.647" lon="6.64627">
        <ele>555.1</ele>
        <time>2023-11-26T08:42:00Z</time>
      </trkpt>
      <trkpt lat="43.64699" lon="6.64627">
        <ele>555.3</ele>
        <time>2023-11-26T08:42:01Z</time>
      </trkpt>
      <trkpt lat="43.64699" lon="6.64627">
        <ele>555.4</ele>
        <time>2023-11-26T08:42:02Z</time>
      </trkpt>
      <trkpt lat="43.64697" lon="6.64626">
        <ele>555.6</ele>
        <time>2023-11-26T08:42:03Z</time>
      </trkpt>
      <trkpt lat="43.64696" lon="6.64627">
        <ele>555.7</ele>
        <time>2023-11-26T08:42:04Z</time>
      </trkpt>
      <trkpt lat="43.64695" lon="6.64626">
        <ele>555.9</ele>
        <time>2023-11-26T08:42:05Z</time>
      </trkpt>
      <trkpt lat="43.64695" lon="6.64626">
        <ele>556</ele>
        <time>2023-11-26T08:42:06Z</time>
      </trkpt>
      <trkpt lat="43.64694" lon="6.64626">
        <ele>556.1</ele>
        <time>2023-11-26T08:42:07Z</time>
      </trkpt>
      <trkpt lat="43.64693" lon="6.64626">
        <ele>556.2</ele>
        <time>2023-11-26T08:42:08Z</time>
      </trkpt>
      <trkpt lat="43.64692" lon="6.64627">
        <ele>556.4</ele>
        <time>2023-11-26T08:42:09Z</time>
      </trkpt>
      <trkpt lat="43.64692" lon="6.64626">
        <ele>556.5</ele>
        <time>2023-11-26T08:42:10Z</time>
      </trkpt>
      <trkpt lat="43.64691" lon="6.64626">
        <ele>556.6</ele>
        <time>2023-11-26T08:42:11Z</time>
      </trkpt>
      <trkpt lat="43.6469" lon="6.64626">
        <ele>556.6</ele>
        <time>2023-11-26T08:42:12Z</time>
      </trkpt>
      <trkpt lat="43.6469" lon="6.64626">
        <ele>556.7</ele>
        <time>2023-11-26T08:42:13Z</time>
      </trkpt>
      <trkpt lat="43.64689" lon="6.64626">
        <ele>556.7</ele>
        <time>2023-11-26T08:42:14Z</time>
      </trkpt>
      <trkpt lat="43.64688" lon="6.64626">
        <ele>556.8</ele>
        <time>2023-11-26T08:42:15Z</time>
      </trkpt>
      <trkpt lat="43.64688" lon="6.64627">
        <ele>556.9</ele>
        <time>2023-11-26T08:42:16Z</time>
      </trkpt>
      <trkpt lat="43.64687" lon="6.64628">
        <ele>557</ele>
        <time>2023-11-26T08:42:17Z</time>
      </trkpt>
      <trkpt lat="43.64686" lon="6.64628">
        <ele>557.2</ele>
        <time>2023-11-26T08:42:18Z</time>
      </trkpt>
      <trkpt lat="43.64686" lon="6.64628">
        <ele>557.3</ele>
        <time>2023-11-26T08:42:19Z</time>
      </trkpt>
      <trkpt lat="43.64685" lon="6.64629">
        <ele>557.6</ele>
        <time>2023-11-26T08:42:20Z</time>
      </trkpt>
      <trkpt lat="43.64684" lon="6.64628">
        <ele>557.7</ele>
        <time>2023-11-26T08:42:21Z</time>
      </trkpt>
      <trkpt lat="43.64683" lon="6.64628">
        <ele>557.9</ele>
        <time>2023-11-26T08:42:22Z</time>
      </trkpt>
      <trkpt lat="43.64683" lon="6.64628">
        <ele>558</ele>
        <time>2023-11-26T08:42:23Z</time>
      </trkpt>
      <trkpt lat="43.64682" lon="6.64628">
        <ele>558.3</ele>
        <time>2023-11-26T08:42:24Z</time>
      </trkpt>
      <trkpt lat="43.64682" lon="6.64627">
        <ele>558.5</ele>
        <time>2023-11-26T08:42:25Z</time>
      </trkpt>
      <trkpt lat="43.64682" lon="6.64628">
        <ele>558.7</ele>
        <time>2023-11-26T08:42:26Z</time>
      </trkpt>
      <trkpt lat="43.64681" lon="6.64627">
        <ele>558.9</ele>
        <time>2023-11-26T08:42:27Z</time>
      </trkpt>
      <trkpt lat="43.64681" lon="6.64627">
        <ele>559</ele>
        <time>2023-11-26T08:42:28Z</time>
      </trkpt>
      <trkpt lat="43.6468" lon="6.64626">
        <ele>559.1</ele>
        <time>2023-11-26T08:42:29Z</time>
      </trkpt>
      <trkpt lat="43.6468" lon="6.64626">
        <ele>559.2</ele>
        <time>2023-11-26T08:42:30Z</time>
      </trkpt>
      <trkpt lat="43.64679" lon="6.64626">
        <ele>559.3</ele>
        <time>2023-11-26T08:42:31Z</time>
      </trkpt>
      <trkpt lat="43.64679" lon="6.64626">
        <ele>559.4</ele>
        <time>2023-11-26T08:42:32Z</time>
      </trkpt>
      <trkpt lat="43.64678" lon="6.64626">
        <ele>559.4</ele>
        <time>2023-11-26T08:42:33Z</time>
      </trkpt>
      <trkpt lat="43.64677" lon="6.64625">
        <ele>559.5</ele>
        <time>2023-11-26T08:42:34Z</time>
      </trkpt>
      <trkpt lat="43.64677" lon="6.64625">
        <ele>559.6</ele>
        <time>2023-11-26T08:42:35Z</time>
      </trkpt>
      <trkpt lat="43.64676" lon="6.64625">
        <ele>559.8</ele>
        <time>2023-11-26T08:42:36Z</time>
      </trkpt>
      <trkpt lat="43.64676" lon="6.64625">
        <ele>560</ele>
        <time>2023-11-26T08:42:37Z</time>
      </trkpt>
      <trkpt lat="43.64675" lon="6.64625">
        <ele>560.1</ele>
        <time>2023-11-26T08:42:38Z</time>
      </trkpt>
      <trkpt lat="43.64675" lon="6.64625">
        <ele>560.1</ele>
        <time>2023-11-26T08:42:39Z</time>
      </trkpt>
      <trkpt lat="43.64675" lon="6.64625">
        <ele>560.2</ele>
        <time>2023-11-26T08:42:40Z</time>
      </trkpt>
      <trkpt lat="43.64675" lon="6.64624">
        <ele>560.3</ele>
        <time>2023-11-26T08:42:41Z</time>
      </trkpt>
      <trkpt lat="43.64674" lon="6.64625">
        <ele>560.5</ele>
        <time>2023-11-26T08:42:42Z</time>
      </trkpt>
      <trkpt lat="43.64674" lon="6.64625">
        <ele>560.6</ele>
        <time>2023-11-26T08:42:43Z</time>
      </trkpt>
      <trkpt lat="43.64675" lon="6.64625">
        <ele>560.8</ele>
        <time>2023-11-26T08:42:44Z</time>
      </trkpt>
      <trkpt lat="43.64675" lon="6.64625">
        <ele>561.1</ele>
        <time>2023-11-26T08:42:45Z</time>
      </trkpt>
      <trkpt lat="43.64675" lon="6.64625">
        <ele>561.2</ele>
        <time>2023-11-26T08:42:46Z</time>
      </trkpt>
      <trkpt lat="43.64676" lon="6.64625">
        <ele>561.5</ele>
        <time>2023-11-26T08:42:47Z</time>
      </trkpt>
      <trkpt lat="43.64676" lon="6.64625">
        <ele>561.7</ele>
        <time>2023-11-26T08:42:48Z</time>
      </trkpt>
      <trkpt lat="43.64677" lon="6.64624">
        <ele>561.9</ele>
        <time>2023-11-26T08:42:49Z</time>
      </trkpt>
      <trkpt lat="43.64677" lon="6.64624">
        <ele>562.1</ele>
        <time>2023-11-26T08:42:50Z</time>
      </trkpt>
      <trkpt lat="43.64678" lon="6.64624">
        <ele>562.3</ele>
        <time>2023-11-26T08:42:51Z</time>
      </trkpt>
      <trkpt lat="43.64677" lon="6.64625">
        <ele>562.5</ele>
        <time>2023-11-26T08:42:52Z</time>
      </trkpt>
      <trkpt lat="43.64678" lon="6.64624">
        <ele>562.7</ele>
        <time>2023-11-26T08:42:53Z</time>
      </trkpt>
      <trkpt lat="43.64679" lon="6.64624">
        <ele>562.9</ele>
        <time>2023-11-26T08:42:54Z</time>
      </trkpt>
      <trkpt lat="43.64679" lon="6.64624">
        <ele>563</ele>
        <time>2023-11-26T08:42:55Z</time>
      </trkpt>
      <trkpt lat="43.64679" lon="6.64624">
        <ele>563.2</ele>
        <time>2023-11-26T08:42:56Z</time>
      </trkpt>
      <trkpt lat="43.64679" lon="6.64623">
        <ele>563.4</ele>
        <time>2023-11-26T08:42:57Z</time>
      </trkpt>
      <trkpt lat="43.64679" lon="6.64621">
        <ele>563.7</ele>
        <time>2023-11-26T08:42:58Z</time>
      </trkpt>
      <trkpt lat="43.64677" lon="6.64621">
        <ele>563.9</ele>
        <time>2023-11-26T08:42:59Z</time>
      </trkpt>
      <trkpt lat="43.64677" lon="6.64621">
        <ele>564</ele>
        <time>2023-11-26T08:43:00Z</time>
      </trkpt>
      <trkpt lat="43.64677" lon="6.6462">
        <ele>564.2</ele>
        <time>2023-11-26T08:43:01Z</time>
      </trkpt>
      <trkpt lat="43.64675" lon="6.6462">
        <ele>564.3</ele>
        <time>2023-11-26T08:43:02Z</time>
      </trkpt>
      <trkpt lat="43.64675" lon="6.64619">
        <ele>564.6</ele>
        <time>2023-11-26T08:43:03Z</time>
      </trkpt>
      <trkpt lat="43.64675" lon="6.64618">
        <ele>564.8</ele>
        <time>2023-11-26T08:43:04Z</time>
      </trkpt>
      <trkpt lat="43.64675" lon="6.64619">
        <ele>564.9</ele>
        <time>2023-11-26T08:43:05Z</time>
      </trkpt>
      <trkpt lat="43.64675" lon="6.64618">
        <ele>565</ele>
        <time>2023-11-26T08:43:06Z</time>
      </trkpt>
      <trkpt lat="43.64674" lon="6.64618">
        <ele>565.1</ele>
        <time>2023-11-26T08:43:07Z</time>
      </trkpt>
      <trkpt lat="43.64674" lon="6.64618">
        <ele>565.1</ele>
        <time>2023-11-26T08:43:08Z</time>
      </trkpt>
      <trkpt lat="43.64673" lon="6.64616">
        <ele>565.2</ele>
        <time>2023-11-26T08:43:09Z</time>
      </trkpt>
      <trkpt lat="43.64672" lon="6.64616">
        <ele>565.4</ele>
        <time>2023-11-26T08:43:10Z</time>
      </trkpt>
      <trkpt lat="43.64672" lon="6.64615">
        <ele>565.5</ele>
        <time>2023-11-26T08:43:11Z</time>
      </trkpt>
      <trkpt lat="43.64672" lon="6.64616">
        <ele>565.8</ele>
        <time>2023-11-26T08:43:12Z</time>
      </trkpt>
      <trkpt lat="43.64671" lon="6.64615">
        <ele>565.9</ele>
        <time>2023-11-26T08:43:13Z</time>
      </trkpt>
      <trkpt lat="43.64671" lon="6.64616">
        <ele>566</ele>
        <time>2023-11-26T08:43:14Z</time>
      </trkpt>
      <trkpt lat="43.64671" lon="6.64616">
        <ele>566.1</ele>
        <time>2023-11-26T08:43:15Z</time>
      </trkpt>
      <trkpt lat="43.6467" lon="6.64616">
        <ele>566.4</ele>
        <time>2023-11-26T08:43:16Z</time>
      </trkpt>
      <trkpt lat="43.6467" lon="6.64616">
        <ele>566.5</ele>
        <time>2023-11-26T08:43:17Z</time>
      </trkpt>
      <trkpt lat="43.64671" lon="6.64616">
        <ele>566.6</ele>
        <time>2023-11-26T08:43:18Z</time>
      </trkpt>
      <trkpt lat="43.64671" lon="6.64616">
        <ele>566.8</ele>
        <time>2023-11-26T08:43:19Z</time>
      </trkpt>
      <trkpt lat="43.64671" lon="6.64616">
        <ele>567</ele>
        <time>2023-11-26T08:43:20Z</time>
      </trkpt>
      <trkpt lat="43.64671" lon="6.64616">
        <ele>567.1</ele>
        <time>2023-11-26T08:43:21Z</time>
      </trkpt>
      <trkpt lat="43.64672" lon="6.64616">
        <ele>567.3</ele>
        <time>2023-11-26T08:43:22Z</time>
      </trkpt>
      <trkpt lat="43.64671" lon="6.64616">
        <ele>567.4</ele>
        <time>2023-11-26T08:43:23Z</time>
      </trkpt>
      <trkpt lat="43.64672" lon="6.64616">
        <ele>567.5</ele>
        <time>2023-11-26T08:43:24Z</time>
      </trkpt>
      <trkpt lat="43.64673" lon="6.64615">
        <ele>567.7</ele>
        <time>2023-11-26T08:43:25Z</time>
      </trkpt>
      <trkpt lat="43.64672" lon="6.64615">
        <ele>567.9</ele>
        <time>2023-11-26T08:43:26Z</time>
      </trkpt>
      <trkpt lat="43.64672" lon="6.64615">
        <ele>568</ele>
        <time>2023-11-26T08:43:27Z</time>
      </trkpt>
      <trkpt lat="43.64672" lon="6.64615">
        <ele>568.2</ele>
        <time>2023-11-26T08:43:28Z</time>
      </trkpt>
      <trkpt lat="43.64672" lon="6.64615">
        <ele>568.3</ele>
        <time>2023-11-26T08:43:29Z</time>
      </trkpt>
      <trkpt lat="43.64673" lon="6.64615">
        <ele>568.5</ele>
        <time>2023-11-26T08:43:30Z</time>
      </trkpt>
      <trkpt lat="43.64673" lon="6.64615">
        <ele>568.6</ele>
        <time>2023-11-26T08:43:31Z</time>
      </trkpt>
      <trkpt lat="43.64674" lon="6.64614">
        <ele>568.9</ele>
        <time>2023-11-26T08:43:32Z</time>
      </trkpt>
      <trkpt lat="43.64674" lon="6.64614">
        <ele>569.1</ele>
        <time>2023-11-26T08:43:33Z</time>
      </trkpt>
      <trkpt lat="43.64674" lon="6.64614">
        <ele>569.3</ele>
        <time>2023-11-26T08:43:34Z</time>
      </trkpt>
      <trkpt lat="43.64674" lon="6.64614">
        <ele>569.4</ele>
        <time>2023-11-26T08:43:35Z</time>
      </trkpt>
      <trkpt lat="43.64674" lon="6.64614">
        <ele>569.6</ele>
        <time>2023-11-26T08:43:36Z</time>
      </trkpt>
      <trkpt lat="43.64674" lon="6.64614">
        <ele>569.8</ele>
        <time>2023-11-26T08:43:37Z</time>
      </trkpt>
      <trkpt lat="43.64675" lon="6.64613">
        <ele>569.9</ele>
        <time>2023-11-26T08:43:38Z</time>
      </trkpt>
      <trkpt lat="43.64675" lon="6.64613">
        <ele>570</ele>
        <time>2023-11-26T08:43:39Z</time>
      </trkpt>
      <trkpt lat="43.64675" lon="6.64614">
        <ele>570.2</ele>
        <time>2023-11-26T08:43:40Z</time>
      </trkpt>
      <trkpt lat="43.64675" lon="6.64612">
        <ele>570.4</ele>
        <time>2023-11-26T08:43:41Z</time>
      </trkpt>
      <trkpt lat="43.64674" lon="6.64612">
        <ele>570.6</ele>
        <time>2023-11-26T08:43:42Z</time>
      </trkpt>
      <trkpt lat="43.64674" lon="6.64611">
        <ele>570.7</ele>
        <time>2023-11-26T08:43:43Z</time>
      </trkpt>
      <trkpt lat="43.64673" lon="6.6461">
        <ele>570.8</ele>
        <time>2023-11-26T08:43:44Z</time>
      </trkpt>
      <trkpt lat="43.64672" lon="6.6461">
        <ele>571</ele>
        <time>2023-11-26T08:43:45Z</time>
      </trkpt>
      <trkpt lat="43.64672" lon="6.64609">
        <ele>571.2</ele>
        <time>2023-11-26T08:43:46Z</time>
      </trkpt>
      <trkpt lat="43.6467" lon="6.64609">
        <ele>571.4</ele>
        <time>2023-11-26T08:43:47Z</time>
      </trkpt>
      <trkpt lat="43.6467" lon="6.64608">
        <ele>571.5</ele>
        <time>2023-11-26T08:43:48Z</time>
      </trkpt>
      <trkpt lat="43.64669" lon="6.64607">
        <ele>571.7</ele>
        <time>2023-11-26T08:43:49Z</time>
      </trkpt>
      <trkpt lat="43.64669" lon="6.64607">
        <ele>571.8</ele>
        <time>2023-11-26T08:43:50Z</time>
      </trkpt>
      <trkpt lat="43.64669" lon="6.64606">
        <ele>571.9</ele>
        <time>2023-11-26T08:43:51Z</time>
      </trkpt>
      <trkpt lat="43.64668" lon="6.64605">
        <ele>572</ele>
        <time>2023-11-26T08:43:52Z</time>
      </trkpt>
      <trkpt lat="43.64668" lon="6.64604">
        <ele>572.1</ele>
        <time>2023-11-26T08:43:53Z</time>
      </trkpt>
      <trkpt lat="43.64668" lon="6.64604">
        <ele>572.2</ele>
        <time>2023-11-26T08:43:54Z</time>
      </trkpt>
      <trkpt lat="43.64668" lon="6.64603">
        <ele>572.3</ele>
        <time>2023-11-26T08:43:55Z</time>
      </trkpt>
      <trkpt lat="43.64668" lon="6.64604">
        <ele>572.5</ele>
        <time>2023-11-26T08:43:56Z</time>
      </trkpt>
      <trkpt lat="43.6467" lon="6.64603">
        <ele>572.6</ele>
        <time>2023-11-26T08:43:57Z</time>
      </trkpt>
      <trkpt lat="43.6467" lon="6.64603">
        <ele>572.7</ele>
        <time>2023-11-26T08:43:58Z</time>
      </trkpt>
      <trkpt lat="43.6467" lon="6.64603">
        <ele>572.8</ele>
        <time>2023-11-26T08:43:59Z</time>
      </trkpt>
      <trkpt lat="43.6467" lon="6.64604">
        <ele>573</ele>
        <time>2023-11-26T08:44:00Z</time>
      </trkpt>
      <trkpt lat="43.64671" lon="6.64603">
        <ele>573.2</ele>
        <time>2023-11-26T08:44:01Z</time>
      </trkpt>
      <trkpt lat="43.64671" lon="6.64602">
        <ele>573.6</ele>
        <time>2023-11-26T08:44:02Z</time>
      </trkpt>
      <trkpt lat="43.64671" lon="6.64601">
        <ele>573.8</ele>
        <time>2023-11-26T08:44:03Z</time>
      </trkpt>
      <trkpt lat="43.64671" lon="6.646">
        <ele>574</ele>
        <time>2023-11-26T08:44:04Z</time>
      </trkpt>
      <trkpt lat="43.64672" lon="6.64599">
        <ele>574.2</ele>
        <time>2023-11-26T08:44:05Z</time>
      </trkpt>
      <trkpt lat="43.64672" lon="6.64598">
        <ele>574.3</ele>
        <time>2023-11-26T08:44:06Z</time>
      </trkpt>
      <trkpt lat="43.64672" lon="6.64598">
        <ele>574.5</ele>
        <time>2023-11-26T08:44:07Z</time>
      </trkpt>
      <trkpt lat="43.64672" lon="6.64597">
        <ele>574.6</ele>
        <time>2023-11-26T08:44:08Z</time>
      </trkpt>
      <trkpt lat="43.64672" lon="6.64596">
        <ele>574.7</ele>
        <time>2023-11-26T08:44:09Z</time>
      </trkpt>
      <trkpt lat="43.64672" lon="6.64596">
        <ele>574.8</ele>
        <time>2023-11-26T08:44:10Z</time>
      </trkpt>
      <trkpt lat="43.64672" lon="6.64595">
        <ele>575</ele>
        <time>2023-11-26T08:44:11Z</time>
      </trkpt>
      <trkpt lat="43.64672" lon="6.64594">
        <ele>575.1</ele>
        <time>2023-11-26T08:44:12Z</time>
      </trkpt>
      <trkpt lat="43.64671" lon="6.64593">
        <ele>575.2</ele>
        <time>2023-11-26T08:44:13Z</time>
      </trkpt>
      <trkpt lat="43.64671" lon="6.64592">
        <ele>575.4</ele>
        <time>2023-11-26T08:44:14Z</time>
      </trkpt>
      <trkpt lat="43.64671" lon="6.64591">
        <ele>575.6</ele>
        <time>2023-11-26T08:44:15Z</time>
      </trkpt>
      <trkpt lat="43.64669" lon="6.64591">
        <ele>575.8</ele>
        <time>2023-11-26T08:44:16Z</time>
      </trkpt>
      <trkpt lat="43.64669" lon="6.64591">
        <ele>576</ele>
        <time>2023-11-26T08:44:17Z</time>
      </trkpt>
      <trkpt lat="43.64668" lon="6.6459">
        <ele>576.3</ele>
        <time>2023-11-26T08:44:18Z</time>
      </trkpt>
      <trkpt lat="43.64668" lon="6.64589">
        <ele>576.6</ele>
        <time>2023-11-26T08:44:19Z</time>
      </trkpt>
      <trkpt lat="43.64668" lon="6.64589">
        <ele>576.8</ele>
        <time>2023-11-26T08:44:20Z</time>
      </trkpt>
      <trkpt lat="43.64668" lon="6.64588">
        <ele>577</ele>
        <time>2023-11-26T08:44:21Z</time>
      </trkpt>
      <trkpt lat="43.64668" lon="6.64587">
        <ele>577.3</ele>
        <time>2023-11-26T08:44:22Z</time>
      </trkpt>
      <trkpt lat="43.64668" lon="6.64587">
        <ele>577.6</ele>
        <time>2023-11-26T08:44:23Z</time>
      </trkpt>
      <trkpt lat="43.64668" lon="6.64586">
        <ele>577.7</ele>
        <time>2023-11-26T08:44:24Z</time>
      </trkpt>
      <trkpt lat="43.64668" lon="6.64585">
        <ele>577.9</ele>
        <time>2023-11-26T08:44:25Z</time>
      </trkpt>
      <trkpt lat="43.64668" lon="6.64585">
        <ele>578</ele>
        <time>2023-11-26T08:44:26Z</time>
      </trkpt>
      <trkpt lat="43.64668" lon="6.64584">
        <ele>578.1</ele>
        <time>2023-11-26T08:44:27Z</time>
      </trkpt>
      <trkpt lat="43.64669" lon="6.64584">
        <ele>578.2</ele>
        <time>2023-11-26T08:44:28Z</time>
      </trkpt>
      <trkpt lat="43.64668" lon="6.64583">
        <ele>578.3</ele>
        <time>2023-11-26T08:44:29Z</time>
      </trkpt>
      <trkpt lat="43.64668" lon="6.64582">
        <ele>578.4</ele>
        <time>2023-11-26T08:44:30Z</time>
      </trkpt>
      <trkpt lat="43.64668" lon="6.64581">
        <ele>578.5</ele>
        <time>2023-11-26T08:44:31Z</time>
      </trkpt>
      <trkpt lat="43.64669" lon="6.6458">
        <ele>578.6</ele>
        <time>2023-11-26T08:44:32Z</time>
      </trkpt>
      <trkpt lat="43.64669" lon="6.6458">
        <ele>578.8</ele>
        <time>2023-11-26T08:44:33Z</time>
      </trkpt>
      <trkpt lat="43.64669" lon="6.64579">
        <ele>579</ele>
        <time>2023-11-26T08:44:34Z</time>
      </trkpt>
      <trkpt lat="43.64668" lon="6.64579">
        <ele>579.2</ele>
        <time>2023-11-26T08:44:35Z</time>
      </trkpt>
      <trkpt lat="43.64668" lon="6.64578">
        <ele>579.3</ele>
        <time>2023-11-26T08:44:36Z</time>
      </trkpt>
      <trkpt lat="43.64667" lon="6.64578">
        <ele>579.5</ele>
        <time>2023-11-26T08:44:37Z</time>
      </trkpt>
      <trkpt lat="43.64667" lon="6.64577">
        <ele>579.6</ele>
        <time>2023-11-26T08:44:38Z</time>
      </trkpt>
      <trkpt lat="43.64667" lon="6.64577">
        <ele>579.7</ele>
        <time>2023-11-26T08:44:39Z</time>
      </trkpt>
      <trkpt lat="43.64667" lon="6.64576">
        <ele>579.8</ele>
        <time>2023-11-26T08:44:40Z</time>
      </trkpt>
      <trkpt lat="43.64666" lon="6.64577">
        <ele>580</ele>
        <time>2023-11-26T08:44:41Z</time>
      </trkpt>
      <trkpt lat="43.64665" lon="6.64577">
        <ele>580.2</ele>
        <time>2023-11-26T08:44:42Z</time>
      </trkpt>
      <trkpt lat="43.64665" lon="6.64577">
        <ele>580.5</ele>
        <time>2023-11-26T08:44:43Z</time>
      </trkpt>
      <trkpt lat="43.64666" lon="6.64577">
        <ele>580.6</ele>
        <time>2023-11-26T08:44:44Z</time>
      </trkpt>
      <trkpt lat="43.64666" lon="6.64575">
        <ele>580.8</ele>
        <time>2023-11-26T08:44:45Z</time>
      </trkpt>
      <trkpt lat="43.64666" lon="6.64575">
        <ele>580.9</ele>
        <time>2023-11-26T08:44:46Z</time>
      </trkpt>
      <trkpt lat="43.64666" lon="6.64574">
        <ele>581.1</ele>
        <time>2023-11-26T08:44:47Z</time>
      </trkpt>
      <trkpt lat="43.64666" lon="6.64573">
        <ele>581.3</ele>
        <time>2023-11-26T08:44:48Z</time>
      </trkpt>
      <trkpt lat="43.64666" lon="6.64572">
        <ele>581.5</ele>
        <time>2023-11-26T08:44:49Z</time>
      </trkpt>
      <trkpt lat="43.64665" lon="6.64572">
        <ele>581.7</ele>
        <time>2023-11-26T08:44:50Z</time>
      </trkpt>
      <trkpt lat="43.64665" lon="6.6457">
        <ele>581.8</ele>
        <time>2023-11-26T08:44:51Z</time>
      </trkpt>
      <trkpt lat="43.64666" lon="6.64569">
        <ele>581.9</ele>
        <time>2023-11-26T08:44:52Z</time>
      </trkpt>
      <trkpt lat="43.64666" lon="6.64568">
        <ele>582</ele>
        <time>2023-11-26T08:44:53Z</time>
      </trkpt>
      <trkpt lat="43.64666" lon="6.64568">
        <ele>582.2</ele>
        <time>2023-11-26T08:44:54Z</time>
      </trkpt>
      <trkpt lat="43.64666" lon="6.64566">
        <ele>582.3</ele>
        <time>2023-11-26T08:44:55Z</time>
      </trkpt>
      <trkpt lat="43.64666" lon="6.64566">
        <ele>582.4</ele>
        <time>2023-11-26T08:44:56Z</time>
      </trkpt>
      <trkpt lat="43.64666" lon="6.64565">
        <ele>582.6</ele>
        <time>2023-11-26T08:44:57Z</time>
      </trkpt>
      <trkpt lat="43.64667" lon="6.64565">
        <ele>582.8</ele>
        <time>2023-11-26T08:44:58Z</time>
      </trkpt>
      <trkpt lat="43.64667" lon="6.64564">
        <ele>582.9</ele>
        <time>2023-11-26T08:44:59Z</time>
      </trkpt>
      <trkpt lat="43.64666" lon="6.64564">
        <ele>583</ele>
        <time>2023-11-26T08:45:00Z</time>
      </trkpt>
      <trkpt lat="43.64666" lon="6.64563">
        <ele>583.2</ele>
        <time>2023-11-26T08:45:01Z</time>
      </trkpt>
      <trkpt lat="43.64666" lon="6.64563">
        <ele>583.4</ele>
        <time>2023-11-26T08:45:02Z</time>
      </trkpt>
      <trkpt lat="43.64666" lon="6.64562">
        <ele>583.5</ele>
        <time>2023-11-26T08:45:03Z</time>
      </trkpt>
      <trkpt lat="43.64667" lon="6.64561">
        <ele>583.8</ele>
        <time>2023-11-26T08:45:04Z</time>
      </trkpt>
      <trkpt lat="43.64667" lon="6.6456">
        <ele>584</ele>
        <time>2023-11-26T08:45:05Z</time>
      </trkpt>
      <trkpt lat="43.64667" lon="6.64559">
        <ele>584.2</ele>
        <time>2023-11-26T08:45:06Z</time>
      </trkpt>
      <trkpt lat="43.64667" lon="6.64559">
        <ele>584.3</ele>
        <time>2023-11-26T08:45:07Z</time>
      </trkpt>
      <trkpt lat="43.64668" lon="6.64558">
        <ele>584.5</ele>
        <time>2023-11-26T08:45:08Z</time>
      </trkpt>
      <trkpt lat="43.64668" lon="6.64557">
        <ele>584.6</ele>
        <time>2023-11-26T08:45:09Z</time>
      </trkpt>
      <trkpt lat="43.64668" lon="6.64557">
        <ele>584.7</ele>
        <time>2023-11-26T08:45:10Z</time>
      </trkpt>
      <trkpt lat="43.64668" lon="6.64557">
        <ele>584.8</ele>
        <time>2023-11-26T08:45:11Z</time>
      </trkpt>
      <trkpt lat="43.64668" lon="6.64557">
        <ele>584.8</ele>
        <time>2023-11-26T08:45:12Z</time>
      </trkpt>
      <trkpt lat="43.64668" lon="6.64556">
        <ele>584.9</ele>
        <time>2023-11-26T08:45:13Z</time>
      </trkpt>
      <trkpt lat="43.64668" lon="6.64556">
        <ele>585.1</ele>
        <time>2023-11-26T08:45:14Z</time>
      </trkpt>
      <trkpt lat="43.64668" lon="6.64555">
        <ele>585.2</ele>
        <time>2023-11-26T08:45:15Z</time>
      </trkpt>
      <trkpt lat="43.64668" lon="6.64554">
        <ele>585.3</ele>
        <time>2023-11-26T08:45:16Z</time>
      </trkpt>
      <trkpt lat="43.64667" lon="6.64554">
        <ele>585.3</ele>
        <time>2023-11-26T08:45:17Z</time>
      </trkpt>
      <trkpt lat="43.64667" lon="6.64554">
        <ele>585.3</ele>
        <time>2023-11-26T08:45:18Z</time>
      </trkpt>
      <trkpt lat="43.64667" lon="6.64554">
        <ele>585.3</ele>
        <time>2023-11-26T08:45:19Z</time>
      </trkpt>
      <trkpt lat="43.64666" lon="6.64553">
        <ele>585.4</ele>
        <time>2023-11-26T08:45:20Z</time>
      </trkpt>
      <trkpt lat="43.64666" lon="6.64553">
        <ele>585.4</ele>
        <time>2023-11-26T08:45:21Z</time>
      </trkpt>
      <trkpt lat="43.64665" lon="6.64552">
        <ele>585.4</ele>
        <time>2023-11-26T08:45:22Z</time>
      </trkpt>
      <trkpt lat="43.64665" lon="6.64552">
        <ele>585.3</ele>
        <time>2023-11-26T08:45:23Z</time>
      </trkpt>
      <trkpt lat="43.64665" lon="6.64551">
        <ele>585.3</ele>
        <time>2023-11-26T08:45:24Z</time>
      </trkpt>
      <trkpt lat="43.64664" lon="6.64551">
        <ele>585.2</ele>
        <time>2023-11-26T08:45:25Z</time>
      </trkpt>
      <trkpt lat="43.64664" lon="6.64551">
        <ele>585.3</ele>
        <time>2023-11-26T08:45:26Z</time>
      </trkpt>
      <trkpt lat="43.64665" lon="6.64551">
        <ele>585.2</ele>
        <time>2023-11-26T08:45:27Z</time>
      </trkpt>
      <trkpt lat="43.64665" lon="6.64551">
        <ele>585.1</ele>
        <time>2023-11-26T08:45:28Z</time>
      </trkpt>
      <trkpt lat="43.64665" lon="6.6455">
        <ele>585.1</ele>
        <time>2023-11-26T08:45:29Z</time>
      </trkpt>
      <trkpt lat="43.64665" lon="6.6455">
        <ele>585</ele>
        <time>2023-11-26T08:45:30Z</time>
      </trkpt>
      <trkpt lat="43.64664" lon="6.6455">
        <ele>585</ele>
        <time>2023-11-26T08:45:31Z</time>
      </trkpt>
      <trkpt lat="43.64664" lon="6.6455">
        <ele>585</ele>
        <time>2023-11-26T08:45:32Z</time>
      </trkpt>
      <trkpt lat="43.64664" lon="6.6455">
        <ele>585</ele>
        <time>2023-11-26T08:45:33Z</time>
      </trkpt>
      <trkpt lat="43.64664" lon="6.64549">
        <ele>585</ele>
        <time>2023-11-26T08:45:34Z</time>
      </trkpt>
      <trkpt lat="43.64664" lon="6.64549">
        <ele>585</ele>
        <time>2023-11-26T08:45:35Z</time>
      </trkpt>
      <trkpt lat="43.64664" lon="6.64549">
        <ele>585</ele>
        <time>2023-11-26T08:45:36Z</time>
      </trkpt>
      <trkpt lat="43.64664" lon="6.64548">
        <ele>585</ele>
        <time>2023-11-26T08:45:37Z</time>
      </trkpt>
      <trkpt lat="43.64664" lon="6.64549">
        <ele>585</ele>
        <time>2023-11-26T08:45:38Z</time>
      </trkpt>
      <trkpt lat="43.64664" lon="6.64548">
        <ele>585.1</ele>
        <time>2023-11-26T08:45:39Z</time>
      </trkpt>
      <trkpt lat="43.64664" lon="6.64548">
        <ele>585.1</ele>
        <time>2023-11-26T08:45:40Z</time>
      </trkpt>
      <trkpt lat="43.64664" lon="6.64548">
        <ele>585.1</ele>
        <time>2023-11-26T08:45:41Z</time>
      </trkpt>
      <trkpt lat="43.64664" lon="6.64547">
        <ele>585.2</ele>
        <time>2023-11-26T08:45:42Z</time>
      </trkpt>
      <trkpt lat="43.64665" lon="6.64547">
        <ele>585.1</ele>
        <time>2023-11-26T08:45:43Z</time>
      </trkpt>
      <trkpt lat="43.64664" lon="6.64547">
        <ele>585.1</ele>
        <time>2023-11-26T08:45:44Z</time>
      </trkpt>
      <trkpt lat="43.64664" lon="6.64547">
        <ele>585.1</ele>
        <time>2023-11-26T08:45:45Z</time>
      </trkpt>
      <trkpt lat="43.64664" lon="6.64547">
        <ele>585.1</ele>
        <time>2023-11-26T08:45:46Z</time>
      </trkpt>
      <trkpt lat="43.64664" lon="6.64547">
        <ele>585.1</ele>
        <time>2023-11-26T08:45:47Z</time>
      </trkpt>
      <trkpt lat="43.64665" lon="6.64547">
        <ele>585.1</ele>
        <time>2023-11-26T08:45:48Z</time>
      </trkpt>
      <trkpt lat="43.64665" lon="6.64546">
        <ele>585.1</ele>
        <time>2023-11-26T08:45:49Z</time>
      </trkpt>
      <trkpt lat="43.64665" lon="6.64546">
        <ele>585.1</ele>
        <time>2023-11-26T08:45:50Z</time>
      </trkpt>
      <trkpt lat="43.64665" lon="6.64546">
        <ele>585.1</ele>
        <time>2023-11-26T08:45:51Z</time>
      </trkpt>
      <trkpt lat="43.64665" lon="6.64546">
        <ele>585.1</ele>
        <time>2023-11-26T08:45:52Z</time>
      </trkpt>
      <trkpt lat="43.64665" lon="6.64546">
        <ele>585.2</ele>
        <time>2023-11-26T08:45:53Z</time>
      </trkpt>
      <trkpt lat="43.64664" lon="6.64546">
        <ele>585.3</ele>
        <time>2023-11-26T08:45:54Z</time>
      </trkpt>
      <trkpt lat="43.64664" lon="6.64546">
        <ele>585.2</ele>
        <time>2023-11-26T08:45:55Z</time>
      </trkpt>
      <trkpt lat="43.64664" lon="6.64546">
        <ele>585.2</ele>
        <time>2023-11-26T08:45:56Z</time>
      </trkpt>
      <trkpt lat="43.64663" lon="6.64547">
        <ele>585.2</ele>
        <time>2023-11-26T08:45:57Z</time>
      </trkpt>
      <trkpt lat="43.64663" lon="6.64547">
        <ele>585.2</ele>
        <time>2023-11-26T08:45:58Z</time>
      </trkpt>
      <trkpt lat="43.64663" lon="6.64547">
        <ele>585.2</ele>
        <time>2023-11-26T08:45:59Z</time>
      </trkpt>
      <trkpt lat="43.64664" lon="6.64547">
        <ele>585.1</ele>
        <time>2023-11-26T08:46:00Z</time>
      </trkpt>
      <trkpt lat="43.64664" lon="6.64547">
        <ele>585.1</ele>
        <time>2023-11-26T08:46:01Z</time>
      </trkpt>
      <trkpt lat="43.64664" lon="6.64548">
        <ele>585.1</ele>
        <time>2023-11-26T08:46:02Z</time>
      </trkpt>
      <trkpt lat="43.64664" lon="6.64548">
        <ele>585.1</ele>
        <time>2023-11-26T08:46:03Z</time>
      </trkpt>
      <trkpt lat="43.64664" lon="6.64549">
        <ele>585.2</ele>
        <time>2023-11-26T08:46:04Z</time>
      </trkpt>
      <trkpt lat="43.64664" lon="6.64549">
        <ele>585.2</ele>
        <time>2023-11-26T08:46:05Z</time>
      </trkpt>
      <trkpt lat="43.64664" lon="6.6455">
        <ele>585.3</ele>
        <time>2023-11-26T08:46:06Z</time>
      </trkpt>
      <trkpt lat="43.64664" lon="6.6455">
        <ele>585.4</ele>
        <time>2023-11-26T08:46:07Z</time>
      </trkpt>
      <trkpt lat="43.64664" lon="6.6455">
        <ele>585.4</ele>
        <time>2023-11-26T08:46:08Z</time>
      </trkpt>
      <trkpt lat="43.64664" lon="6.6455">
        <ele>585.4</ele>
        <time>2023-11-26T08:46:09Z</time>
      </trkpt>
      <trkpt lat="43.64664" lon="6.6455">
        <ele>585.4</ele>
        <time>2023-11-26T08:46:10Z</time>
      </trkpt>
      <trkpt lat="43.64664" lon="6.6455">
        <ele>585.3</ele>
        <time>2023-11-26T08:46:11Z</time>
      </trkpt>
      <trkpt lat="43.64664" lon="6.64551">
        <ele>585.3</ele>
        <time>2023-11-26T08:46:12Z</time>
      </trkpt>
      <trkpt lat="43.64664" lon="6.64551">
        <ele>585.2</ele>
        <time>2023-11-26T08:46:13Z</time>
      </trkpt>
      <trkpt lat="43.64664" lon="6.64551">
        <ele>585.2</ele>
        <time>2023-11-26T08:46:14Z</time>
      </trkpt>
      <trkpt lat="43.64664" lon="6.64551">
        <ele>585.1</ele>
        <time>2023-11-26T08:46:15Z</time>
      </trkpt>
      <trkpt lat="43.64664" lon="6.64551">
        <ele>585.1</ele>
        <time>2023-11-26T08:46:16Z</time>
      </trkpt>
      <trkpt lat="43.64664" lon="6.64551">
        <ele>585.1</ele>
        <time>2023-11-26T08:46:17Z</time>
      </trkpt>
      <trkpt lat="43.64664" lon="6.64552">
        <ele>585.1</ele>
        <time>2023-11-26T08:46:18Z</time>
      </trkpt>
      <trkpt lat="43.64664" lon="6.64552">
        <ele>585</ele>
        <time>2023-11-26T08:46:19Z</time>
      </trkpt>
      <trkpt lat="43.64663" lon="6.64552">
        <ele>584.9</ele>
        <time>2023-11-26T08:46:20Z</time>
      </trkpt>
      <trkpt lat="43.64663" lon="6.64552">
        <ele>584.9</ele>
        <time>2023-11-26T08:46:21Z</time>
      </trkpt>
      <trkpt lat="43.64663" lon="6.64552">
        <ele>584.9</ele>
        <time>2023-11-26T08:46:22Z</time>
      </trkpt>
      <trkpt lat="43.64663" lon="6.64552">
        <ele>585</ele>
        <time>2023-11-26T08:46:23Z</time>
      </trkpt>
      <trkpt lat="43.64663" lon="6.64552">
        <ele>585.1</ele>
        <time>2023-11-26T08:46:24Z</time>
      </trkpt>
      <trkpt lat="43.64663" lon="6.64552">
        <ele>585.1</ele>
        <time>2023-11-26T08:46:25Z</time>
      </trkpt>
      <trkpt lat="43.64663" lon="6.64552">
        <ele>585.1</ele>
        <time>2023-11-26T08:46:26Z</time>
      </trkpt>
      <trkpt lat="43.64663" lon="6.64552">
        <ele>585.2</ele>
        <time>2023-11-26T08:46:27Z</time>
      </trkpt>
      <trkpt lat="43.64663" lon="6.64552">
        <ele>585.2</ele>
        <time>2023-11-26T08:46:28Z</time>
      </trkpt>
      <trkpt lat="43.64663" lon="6.64552">
        <ele>585.2</ele>
        <time>2023-11-26T08:46:29Z</time>
      </trkpt>
      <trkpt lat="43.64663" lon="6.64552">
        <ele>585.2</ele>
        <time>2023-11-26T08:46:30Z</time>
      </trkpt>
      <trkpt lat="43.64663" lon="6.64552">
        <ele>585.2</ele>
        <time>2023-11-26T08:46:31Z</time>
      </trkpt>
      <trkpt lat="43.64663" lon="6.64552">
        <ele>585.2</ele>
        <time>2023-11-26T08:46:32Z</time>
      </trkpt>
      <trkpt lat="43.64664" lon="6.64552">
        <ele>585.2</ele>
        <time>2023-11-26T08:46:33Z</time>
      </trkpt>
      <trkpt lat="43.64664" lon="6.64551">
        <ele>585.2</ele>
        <time>2023-11-26T08:46:34Z</time>
      </trkpt>
      <trkpt lat="43.64665" lon="6.64551">
        <ele>585.2</ele>
        <time>2023-11-26T08:46:35Z</time>
      </trkpt>
      <trkpt lat="43.64665" lon="6.6455">
        <ele>585.3</ele>
        <time>2023-11-26T08:46:36Z</time>
      </trkpt>
      <trkpt lat="43.64665" lon="6.6455">
        <ele>585.4</ele>
        <time>2023-11-26T08:46:37Z</time>
      </trkpt>
      <trkpt lat="43.64666" lon="6.6455">
        <ele>585.3</ele>
        <time>2023-11-26T08:46:38Z</time>
      </trkpt>
      <trkpt lat="43.64666" lon="6.6455">
        <ele>585.3</ele>
        <time>2023-11-26T08:46:39Z</time>
      </trkpt>
      <trkpt lat="43.64666" lon="6.6455">
        <ele>585.3</ele>
        <time>2023-11-26T08:46:40Z</time>
      </trkpt>
      <trkpt lat="43.64667" lon="6.6455">
        <ele>585.4</ele>
        <time>2023-11-26T08:46:41Z</time>
      </trkpt>
      <trkpt lat="43.64667" lon="6.6455">
        <ele>585.4</ele>
        <time>2023-11-26T08:46:42Z</time>
      </trkpt>
      <trkpt lat="43.64668" lon="6.6455">
        <ele>585.4</ele>
        <time>2023-11-26T08:46:43Z</time>
      </trkpt>
      <trkpt lat="43.64668" lon="6.6455">
        <ele>585.4</ele>
        <time>2023-11-26T08:46:44Z</time>
      </trkpt>
      <trkpt lat="43.64668" lon="6.6455">
        <ele>585.3</ele>
        <time>2023-11-26T08:46:45Z</time>
      </trkpt>
      <trkpt lat="43.64668" lon="6.6455">
        <ele>585.3</ele>
        <time>2023-11-26T08:46:46Z</time>
      </trkpt>
      <trkpt lat="43.64668" lon="6.64549">
        <ele>585.3</ele>
        <time>2023-11-26T08:46:47Z</time>
      </trkpt>
      <trkpt lat="43.64668" lon="6.64549">
        <ele>585.2</ele>
        <time>2023-11-26T08:46:48Z</time>
      </trkpt>
      <trkpt lat="43.64668" lon="6.64549">
        <ele>585.1</ele>
        <time>2023-11-26T08:46:49Z</time>
      </trkpt>
      <trkpt lat="43.64669" lon="6.64549">
        <ele>585.2</ele>
        <time>2023-11-26T08:46:50Z</time>
      </trkpt>
      <trkpt lat="43.64669" lon="6.64549">
        <ele>585.1</ele>
        <time>2023-11-26T08:46:51Z</time>
      </trkpt>
      <trkpt lat="43.6467" lon="6.64549">
        <ele>585.1</ele>
        <time>2023-11-26T08:46:52Z</time>
      </trkpt>
      <trkpt lat="43.6467" lon="6.64549">
        <ele>585.1</ele>
        <time>2023-11-26T08:46:53Z</time>
      </trkpt>
      <trkpt lat="43.64671" lon="6.64549">
        <ele>585.1</ele>
        <time>2023-11-26T08:46:54Z</time>
      </trkpt>
      <trkpt lat="43.64671" lon="6.64548">
        <ele>585</ele>
        <time>2023-11-26T08:46:55Z</time>
      </trkpt>
      <trkpt lat="43.64671" lon="6.64548">
        <ele>585</ele>
        <time>2023-11-26T08:46:56Z</time>
      </trkpt>
      <trkpt lat="43.64671" lon="6.64548">
        <ele>585</ele>
        <time>2023-11-26T08:46:57Z</time>
      </trkpt>
      <trkpt lat="43.64671" lon="6.64548">
        <ele>584.9</ele>
        <time>2023-11-26T08:46:58Z</time>
      </trkpt>
      <trkpt lat="43.64672" lon="6.64548">
        <ele>584.9</ele>
        <time>2023-11-26T08:46:59Z</time>
      </trkpt>
      <trkpt lat="43.64672" lon="6.64548">
        <ele>584.8</ele>
        <time>2023-11-26T08:47:00Z</time>
      </trkpt>
      <trkpt lat="43.64671" lon="6.64548">
        <ele>584.7</ele>
        <time>2023-11-26T08:47:01Z</time>
      </trkpt>
      <trkpt lat="43.64671" lon="6.64548">
        <ele>584.8</ele>
        <time>2023-11-26T08:47:02Z</time>
      </trkpt>
      <trkpt lat="43.64671" lon="6.64549">
        <ele>584.9</ele>
        <time>2023-11-26T08:47:03Z</time>
      </trkpt>
      <trkpt lat="43.64671" lon="6.64549">
        <ele>585</ele>
        <time>2023-11-26T08:47:04Z</time>
      </trkpt>
      <trkpt lat="43.64671" lon="6.64549">
        <ele>584.9</ele>
        <time>2023-11-26T08:47:05Z</time>
      </trkpt>
      <trkpt lat="43.64671" lon="6.64549">
        <ele>584.8</ele>
        <time>2023-11-26T08:47:06Z</time>
      </trkpt>
      <trkpt lat="43.64671" lon="6.6455">
        <ele>584.8</ele>
        <time>2023-11-26T08:47:07Z</time>
      </trkpt>
      <trkpt lat="43.64671" lon="6.6455">
        <ele>584.8</ele>
        <time>2023-11-26T08:47:08Z</time>
      </trkpt>
      <trkpt lat="43.64671" lon="6.6455">
        <ele>584.8</ele>
        <time>2023-11-26T08:47:09Z</time>
      </trkpt>
      <trkpt lat="43.64671" lon="6.6455">
        <ele>584.8</ele>
        <time>2023-11-26T08:47:10Z</time>
      </trkpt>
      <trkpt lat="43.64671" lon="6.6455">
        <ele>584.8</ele>
        <time>2023-11-26T08:47:11Z</time>
      </trkpt>
      <trkpt lat="43.64671" lon="6.6455">
        <ele>584.9</ele>
        <time>2023-11-26T08:47:12Z</time>
      </trkpt>
      <trkpt lat="43.64671" lon="6.6455">
        <ele>584.9</ele>
        <time>2023-11-26T08:47:13Z</time>
      </trkpt>
      <trkpt lat="43.64671" lon="6.6455">
        <ele>584.9</ele>
        <time>2023-11-26T08:47:14Z</time>
      </trkpt>
      <trkpt lat="43.64671" lon="6.6455">
        <ele>584.9</ele>
        <time>2023-11-26T08:47:15Z</time>
      </trkpt>
      <trkpt lat="43.64671" lon="6.6455">
        <ele>584.9</ele>
        <time>2023-11-26T08:47:16Z</time>
      </trkpt>
      <trkpt lat="43.64671" lon="6.6455">
        <ele>584.9</ele>
        <time>2023-11-26T08:47:17Z</time>
      </trkpt>
      <trkpt lat="43.64671" lon="6.6455">
        <ele>584.9</ele>
        <time>2023-11-26T08:47:18Z</time>
      </trkpt>
      <trkpt lat="43.6467" lon="6.6455">
        <ele>585</ele>
        <time>2023-11-26T08:47:19Z</time>
      </trkpt>
      <trkpt lat="43.6467" lon="6.6455">
        <ele>585</ele>
        <time>2023-11-26T08:47:20Z</time>
      </trkpt>
      <trkpt lat="43.6467" lon="6.6455">
        <ele>584.9</ele>
        <time>2023-11-26T08:47:21Z</time>
      </trkpt>
      <trkpt lat="43.6467" lon="6.64549">
        <ele>584.8</ele>
        <time>2023-11-26T08:47:22Z</time>
      </trkpt>
      <trkpt lat="43.6467" lon="6.64549">
        <ele>584.8</ele>
        <time>2023-11-26T08:47:23Z</time>
      </trkpt>
      <trkpt lat="43.6467" lon="6.64549">
        <ele>584.8</ele>
        <time>2023-11-26T08:47:24Z</time>
      </trkpt>
      <trkpt lat="43.6467" lon="6.64549">
        <ele>584.8</ele>
        <time>2023-11-26T08:47:25Z</time>
      </trkpt>
      <trkpt lat="43.6467" lon="6.64548">
        <ele>584.8</ele>
        <time>2023-11-26T08:47:26Z</time>
      </trkpt>
      <trkpt lat="43.6467" lon="6.64548">
        <ele>584.8</ele>
        <time>2023-11-26T08:47:27Z</time>
      </trkpt>
      <trkpt lat="43.6467" lon="6.64548">
        <ele>584.9</ele>
        <time>2023-11-26T08:47:28Z</time>
      </trkpt>
      <trkpt lat="43.6467" lon="6.64548">
        <ele>584.9</ele>
        <time>2023-11-26T08:47:29Z</time>
      </trkpt>
      <trkpt lat="43.6467" lon="6.64548">
        <ele>584.9</ele>
        <time>2023-11-26T08:47:30Z</time>
      </trkpt>
      <trkpt lat="43.6467" lon="6.64548">
        <ele>584.9</ele>
        <time>2023-11-26T08:47:31Z</time>
      </trkpt>
      <trkpt lat="43.6467" lon="6.64547">
        <ele>584.9</ele>
        <time>2023-11-26T08:47:32Z</time>
      </trkpt>
      <trkpt lat="43.6467" lon="6.64547">
        <ele>584.9</ele>
        <time>2023-11-26T08:47:33Z</time>
      </trkpt>
      <trkpt lat="43.6467" lon="6.64547">
        <ele>585</ele>
        <time>2023-11-26T08:47:34Z</time>
      </trkpt>
      <trkpt lat="43.6467" lon="6.64547">
        <ele>585</ele>
        <time>2023-11-26T08:47:35Z</time>
      </trkpt>
      <trkpt lat="43.6467" lon="6.64547">
        <ele>585</ele>
        <time>2023-11-26T08:47:36Z</time>
      </trkpt>
      <trkpt lat="43.6467" lon="6.64546">
        <ele>584.9</ele>
        <time>2023-11-26T08:47:37Z</time>
      </trkpt>
      <trkpt lat="43.6467" lon="6.64546">
        <ele>584.9</ele>
        <time>2023-11-26T08:47:38Z</time>
      </trkpt>
      <trkpt lat="43.6467" lon="6.64546">
        <ele>584.8</ele>
        <time>2023-11-26T08:47:39Z</time>
      </trkpt>
      <trkpt lat="43.64671" lon="6.64546">
        <ele>584.8</ele>
        <time>2023-11-26T08:47:40Z</time>
      </trkpt>
      <trkpt lat="43.64671" lon="6.64546">
        <ele>584.8</ele>
        <time>2023-11-26T08:47:41Z</time>
      </trkpt>
      <trkpt lat="43.64671" lon="6.64546">
        <ele>584.7</ele>
        <time>2023-11-26T08:47:42Z</time>
      </trkpt>
      <trkpt lat="43.64671" lon="6.64546">
        <ele>584.7</ele>
        <time>2023-11-26T08:47:43Z</time>
      </trkpt>
      <trkpt lat="43.64671" lon="6.64545">
        <ele>584.7</ele>
        <time>2023-11-26T08:47:44Z</time>
      </trkpt>
      <trkpt lat="43.64671" lon="6.64545">
        <ele>584.7</ele>
        <time>2023-11-26T08:47:45Z</time>
      </trkpt>
      <trkpt lat="43.64671" lon="6.64545">
        <ele>584.7</ele>
        <time>2023-11-26T08:47:46Z</time>
      </trkpt>
      <trkpt lat="43.64671" lon="6.64545">
        <ele>584.7</ele>
        <time>2023-11-26T08:47:47Z</time>
      </trkpt>
      <trkpt lat="43.64671" lon="6.64545">
        <ele>584.7</ele>
        <time>2023-11-26T08:47:48Z</time>
      </trkpt>
      <trkpt lat="43.64671" lon="6.64545">
        <ele>584.7</ele>
        <time>2023-11-26T08:47:49Z</time>
      </trkpt>
      <trkpt lat="43.64671" lon="6.64546">
        <ele>584.8</ele>
        <time>2023-11-26T08:47:50Z</time>
      </trkpt>
      <trkpt lat="43.64671" lon="6.64546">
        <ele>584.8</ele>
        <time>2023-11-26T08:47:51Z</time>
      </trkpt>
      <trkpt lat="43.64671" lon="6.64546">
        <ele>584.7</ele>
        <time>2023-11-26T08:47:52Z</time>
      </trkpt>
      <trkpt lat="43.64671" lon="6.64546">
        <ele>584.7</ele>
        <time>2023-11-26T08:47:53Z</time>
      </trkpt>
      <trkpt lat="43.64671" lon="6.64546">
        <ele>584.7</ele>
        <time>2023-11-26T08:47:54Z</time>
      </trkpt>
      <trkpt lat="43.6467" lon="6.64547">
        <ele>584.7</ele>
        <time>2023-11-26T08:47:55Z</time>
      </trkpt>
      <trkpt lat="43.64671" lon="6.64546">
        <ele>584.7</ele>
        <time>2023-11-26T08:47:56Z</time>
      </trkpt>
      <trkpt lat="43.64671" lon="6.64546">
        <ele>584.7</ele>
        <time>2023-11-26T08:47:57Z</time>
      </trkpt>
      <trkpt lat="43.64671" lon="6.64546">
        <ele>584.7</ele>
        <time>2023-11-26T08:47:58Z</time>
      </trkpt>
      <trkpt lat="43.64672" lon="6.64545">
        <ele>584.6</ele>
        <time>2023-11-26T08:47:59Z</time>
      </trkpt>
      <trkpt lat="43.64673" lon="6.64545">
        <ele>584.6</ele>
        <time>2023-11-26T08:48:00Z</time>
      </trkpt>
      <trkpt lat="43.64673" lon="6.64545">
        <ele>584.6</ele>
        <time>2023-11-26T08:48:01Z</time>
      </trkpt>
      <trkpt lat="43.64674" lon="6.64544">
        <ele>584.5</ele>
        <time>2023-11-26T08:48:02Z</time>
      </trkpt>
      <trkpt lat="43.64676" lon="6.64544">
        <ele>584.5</ele>
        <time>2023-11-26T08:48:03Z</time>
      </trkpt>
      <trkpt lat="43.64676" lon="6.64544">
        <ele>584.5</ele>
        <time>2023-11-26T08:48:04Z</time>
      </trkpt>
      <trkpt lat="43.64677" lon="6.64543">
        <ele>584.5</ele>
        <time>2023-11-26T08:48:05Z</time>
      </trkpt>
      <trkpt lat="43.64678" lon="6.64543">
        <ele>584.6</ele>
        <time>2023-11-26T08:48:06Z</time>
      </trkpt>
      <trkpt lat="43.64679" lon="6.64542">
        <ele>584.6</ele>
        <time>2023-11-26T08:48:07Z</time>
      </trkpt>
      <trkpt lat="43.6468" lon="6.64542">
        <ele>584.7</ele>
        <time>2023-11-26T08:48:08Z</time>
      </trkpt>
      <trkpt lat="43.64681" lon="6.64541">
        <ele>584.7</ele>
        <time>2023-11-26T08:48:09Z</time>
      </trkpt>
      <trkpt lat="43.64681" lon="6.64541">
        <ele>584.8</ele>
        <time>2023-11-26T08:48:10Z</time>
      </trkpt>
      <trkpt lat="43.64682" lon="6.6454">
        <ele>585</ele>
        <time>2023-11-26T08:48:11Z</time>
      </trkpt>
      <trkpt lat="43.64683" lon="6.64539">
        <ele>585.1</ele>
        <time>2023-11-26T08:48:12Z</time>
      </trkpt>
      <trkpt lat="43.64683" lon="6.64538">
        <ele>585.2</ele>
        <time>2023-11-26T08:48:13Z</time>
      </trkpt>
      <trkpt lat="43.64684" lon="6.64538">
        <ele>585.2</ele>
        <time>2023-11-26T08:48:14Z</time>
      </trkpt>
      <trkpt lat="43.64684" lon="6.64537">
        <ele>585.3</ele>
        <time>2023-11-26T08:48:15Z</time>
      </trkpt>
      <trkpt lat="43.64685" lon="6.64537">
        <ele>585.3</ele>
        <time>2023-11-26T08:48:16Z</time>
      </trkpt>
      <trkpt lat="43.64685" lon="6.64536">
        <ele>585.4</ele>
        <time>2023-11-26T08:48:17Z</time>
      </trkpt>
      <trkpt lat="43.64686" lon="6.64536">
        <ele>585.4</ele>
        <time>2023-11-26T08:48:18Z</time>
      </trkpt>
      <trkpt lat="43.64686" lon="6.64535">
        <ele>585.5</ele>
        <time>2023-11-26T08:48:19Z</time>
      </trkpt>
      <trkpt lat="43.64686" lon="6.64535">
        <ele>585.5</ele>
        <time>2023-11-26T08:48:20Z</time>
      </trkpt>
      <trkpt lat="43.64686" lon="6.64535">
        <ele>585.6</ele>
        <time>2023-11-26T08:48:21Z</time>
      </trkpt>
      <trkpt lat="43.64686" lon="6.64535">
        <ele>585.6</ele>
        <time>2023-11-26T08:48:22Z</time>
      </trkpt>
      <trkpt lat="43.64686" lon="6.64535">
        <ele>585.8</ele>
        <time>2023-11-26T08:48:23Z</time>
      </trkpt>
      <trkpt lat="43.64687" lon="6.64534">
        <ele>585.8</ele>
        <time>2023-11-26T08:48:24Z</time>
      </trkpt>
      <trkpt lat="43.64687" lon="6.64533">
        <ele>585.8</ele>
        <time>2023-11-26T08:48:25Z</time>
      </trkpt>
      <trkpt lat="43.64688" lon="6.64533">
        <ele>585.8</ele>
        <time>2023-11-26T08:48:26Z</time>
      </trkpt>
      <trkpt lat="43.64688" lon="6.64532">
        <ele>585.9</ele>
        <time>2023-11-26T08:48:27Z</time>
      </trkpt>
      <trkpt lat="43.64689" lon="6.64531">
        <ele>586</ele>
        <time>2023-11-26T08:48:28Z</time>
      </trkpt>
      <trkpt lat="43.64689" lon="6.64531">
        <ele>586.1</ele>
        <time>2023-11-26T08:48:29Z</time>
      </trkpt>
      <trkpt lat="43.64691" lon="6.6453">
        <ele>586.1</ele>
        <time>2023-11-26T08:48:30Z</time>
      </trkpt>
      <trkpt lat="43.64691" lon="6.64529">
        <ele>586</ele>
        <time>2023-11-26T08:48:31Z</time>
      </trkpt>
      <trkpt lat="43.64692" lon="6.64528">
        <ele>585.9</ele>
        <time>2023-11-26T08:48:32Z</time>
      </trkpt>
      <trkpt lat="43.64693" lon="6.64528">
        <ele>585.8</ele>
        <time>2023-11-26T08:48:33Z</time>
      </trkpt>
      <trkpt lat="43.64694" lon="6.64526">
        <ele>585.8</ele>
        <time>2023-11-26T08:48:34Z</time>
      </trkpt>
      <trkpt lat="43.64695" lon="6.64525">
        <ele>585.8</ele>
        <time>2023-11-26T08:48:35Z</time>
      </trkpt>
      <trkpt lat="43.64696" lon="6.64525">
        <ele>585.9</ele>
        <time>2023-11-26T08:48:36Z</time>
      </trkpt>
      <trkpt lat="43.64696" lon="6.64524">
        <ele>585.9</ele>
        <time>2023-11-26T08:48:37Z</time>
      </trkpt>
      <trkpt lat="43.64697" lon="6.64523">
        <ele>586</ele>
        <time>2023-11-26T08:48:38Z</time>
      </trkpt>
      <trkpt lat="43.64697" lon="6.64522">
        <ele>586</ele>
        <time>2023-11-26T08:48:39Z</time>
      </trkpt>
      <trkpt lat="43.64698" lon="6.64519">
        <ele>586</ele>
        <time>2023-11-26T08:48:40Z</time>
      </trkpt>
      <trkpt lat="43.647" lon="6.64518">
        <ele>586</ele>
        <time>2023-11-26T08:48:41Z</time>
      </trkpt>
      <trkpt lat="43.64701" lon="6.64517">
        <ele>585.9</ele>
        <time>2023-11-26T08:48:42Z</time>
      </trkpt>
      <trkpt lat="43.64701" lon="6.64516">
        <ele>585.9</ele>
        <time>2023-11-26T08:48:43Z</time>
      </trkpt>
      <trkpt lat="43.64702" lon="6.64515">
        <ele>585.8</ele>
        <time>2023-11-26T08:48:44Z</time>
      </trkpt>
      <trkpt lat="43.64703" lon="6.64513">
        <ele>585.8</ele>
        <time>2023-11-26T08:48:45Z</time>
      </trkpt>
      <trkpt lat="43.64704" lon="6.64513">
        <ele>585.7</ele>
        <time>2023-11-26T08:48:46Z</time>
      </trkpt>
      <trkpt lat="43.64704" lon="6.64512">
        <ele>585.6</ele>
        <time>2023-11-26T08:48:47Z</time>
      </trkpt>
      <trkpt lat="43.64705" lon="6.6451">
        <ele>585.6</ele>
        <time>2023-11-26T08:48:48Z</time>
      </trkpt>
      <trkpt lat="43.64706" lon="6.64509">
        <ele>585.5</ele>
        <time>2023-11-26T08:48:49Z</time>
      </trkpt>
      <trkpt lat="43.64707" lon="6.64509">
        <ele>585.4</ele>
        <time>2023-11-26T08:48:50Z</time>
      </trkpt>
      <trkpt lat="43.64708" lon="6.64507">
        <ele>585.2</ele>
        <time>2023-11-26T08:48:51Z</time>
      </trkpt>
      <trkpt lat="43.64709" lon="6.64506">
        <ele>585.1</ele>
        <time>2023-11-26T08:48:52Z</time>
      </trkpt>
      <trkpt lat="43.64709" lon="6.64505">
        <ele>585</ele>
        <time>2023-11-26T08:48:53Z</time>
      </trkpt>
      <trkpt lat="43.6471" lon="6.64504">
        <ele>584.9</ele>
        <time>2023-11-26T08:48:54Z</time>
      </trkpt>
      <trkpt lat="43.64712" lon="6.64502">
        <ele>584.9</ele>
        <time>2023-11-26T08:48:55Z</time>
      </trkpt>
      <trkpt lat="43.64713" lon="6.64501">
        <ele>584.9</ele>
        <time>2023-11-26T08:48:56Z</time>
      </trkpt>
      <trkpt lat="43.64713" lon="6.645">
        <ele>585</ele>
        <time>2023-11-26T08:48:57Z</time>
      </trkpt>
      <trkpt lat="43.64713" lon="6.64499">
        <ele>585</ele>
        <time>2023-11-26T08:48:58Z</time>
      </trkpt>
      <trkpt lat="43.64714" lon="6.64498">
        <ele>585</ele>
        <time>2023-11-26T08:48:59Z</time>
      </trkpt>
      <trkpt lat="43.64714" lon="6.64497">
        <ele>585</ele>
        <time>2023-11-26T08:49:00Z</time>
      </trkpt>
      <trkpt lat="43.64715" lon="6.64497">
        <ele>585</ele>
        <time>2023-11-26T08:49:01Z</time>
      </trkpt>
      <trkpt lat="43.64715" lon="6.64496">
        <ele>585</ele>
        <time>2023-11-26T08:49:02Z</time>
      </trkpt>
      <trkpt lat="43.64716" lon="6.64495">
        <ele>585</ele>
        <time>2023-11-26T08:49:03Z</time>
      </trkpt>
      <trkpt lat="43.64716" lon="6.64495">
        <ele>585</ele>
        <time>2023-11-26T08:49:04Z</time>
      </trkpt>
      <trkpt lat="43.64717" lon="6.64493">
        <ele>585</ele>
        <time>2023-11-26T08:49:05Z</time>
      </trkpt>
      <trkpt lat="43.64718" lon="6.64492">
        <ele>585</ele>
        <time>2023-11-26T08:49:06Z</time>
      </trkpt>
      <trkpt lat="43.64719" lon="6.64491">
        <ele>584.9</ele>
        <time>2023-11-26T08:49:07Z</time>
      </trkpt>
      <trkpt lat="43.6472" lon="6.64491">
        <ele>584.9</ele>
        <time>2023-11-26T08:49:08Z</time>
      </trkpt>
      <trkpt lat="43.6472" lon="6.6449">
        <ele>584.9</ele>
        <time>2023-11-26T08:49:09Z</time>
      </trkpt>
      <trkpt lat="43.64719" lon="6.6449">
        <ele>584.9</ele>
        <time>2023-11-26T08:49:10Z</time>
      </trkpt>
      <trkpt lat="43.6472" lon="6.64489">
        <ele>584.9</ele>
        <time>2023-11-26T08:49:11Z</time>
      </trkpt>
      <trkpt lat="43.6472" lon="6.64489">
        <ele>584.9</ele>
        <time>2023-11-26T08:49:12Z</time>
      </trkpt>
      <trkpt lat="43.64721" lon="6.64489">
        <ele>584.9</ele>
        <time>2023-11-26T08:49:13Z</time>
      </trkpt>
      <trkpt lat="43.64722" lon="6.64489">
        <ele>585</ele>
        <time>2023-11-26T08:49:14Z</time>
      </trkpt>
      <trkpt lat="43.64722" lon="6.64488">
        <ele>585</ele>
        <time>2023-11-26T08:49:15Z</time>
      </trkpt>
      <trkpt lat="43.64723" lon="6.64488">
        <ele>585.1</ele>
        <time>2023-11-26T08:49:16Z</time>
      </trkpt>
      <trkpt lat="43.64725" lon="6.64486">
        <ele>585.1</ele>
        <time>2023-11-26T08:49:17Z</time>
      </trkpt>
      <trkpt lat="43.64726" lon="6.64483">
        <ele>585.2</ele>
        <time>2023-11-26T08:49:18Z</time>
      </trkpt>
      <trkpt lat="43.64727" lon="6.64482">
        <ele>585.3</ele>
        <time>2023-11-26T08:49:19Z</time>
      </trkpt>
      <trkpt lat="43.64728" lon="6.64482">
        <ele>585.4</ele>
        <time>2023-11-26T08:49:20Z</time>
      </trkpt>
      <trkpt lat="43.64728" lon="6.64481">
        <ele>585.4</ele>
        <time>2023-11-26T08:49:21Z</time>
      </trkpt>
      <trkpt lat="43.64729" lon="6.64481">
        <ele>585.6</ele>
        <time>2023-11-26T08:49:22Z</time>
      </trkpt>
      <trkpt lat="43.6473" lon="6.6448">
        <ele>585.7</ele>
        <time>2023-11-26T08:49:23Z</time>
      </trkpt>
      <trkpt lat="43.64732" lon="6.64476">
        <ele>585.7</ele>
        <time>2023-11-26T08:49:24Z</time>
      </trkpt>
      <trkpt lat="43.64734" lon="6.64473">
        <ele>585.8</ele>
        <time>2023-11-26T08:49:25Z</time>
      </trkpt>
      <trkpt lat="43.64735" lon="6.64472">
        <ele>586</ele>
        <time>2023-11-26T08:49:26Z</time>
      </trkpt>
      <trkpt lat="43.64736" lon="6.64471">
        <ele>586</ele>
        <time>2023-11-26T08:49:27Z</time>
      </trkpt>
      <trkpt lat="43.64736" lon="6.64471">
        <ele>586.1</ele>
        <time>2023-11-26T08:49:28Z</time>
      </trkpt>
      <trkpt lat="43.64737" lon="6.64469">
        <ele>586.1</ele>
        <time>2023-11-26T08:49:29Z</time>
      </trkpt>
      <trkpt lat="43.64738" lon="6.64467">
        <ele>586.1</ele>
        <time>2023-11-26T08:49:30Z</time>
      </trkpt>
      <trkpt lat="43.64739" lon="6.64466">
        <ele>586.2</ele>
        <time>2023-11-26T08:49:31Z</time>
      </trkpt>
      <trkpt lat="43.6474" lon="6.64465">
        <ele>586.2</ele>
        <time>2023-11-26T08:49:32Z</time>
      </trkpt>
      <trkpt lat="43.64741" lon="6.64465">
        <ele>586.3</ele>
        <time>2023-11-26T08:49:33Z</time>
      </trkpt>
      <trkpt lat="43.64742" lon="6.64465">
        <ele>586.4</ele>
        <time>2023-11-26T08:49:34Z</time>
      </trkpt>
      <trkpt lat="43.64742" lon="6.64465">
        <ele>586.4</ele>
        <time>2023-11-26T08:49:35Z</time>
      </trkpt>
      <trkpt lat="43.64742" lon="6.64465">
        <ele>586.6</ele>
        <time>2023-11-26T08:49:36Z</time>
      </trkpt>
      <trkpt lat="43.64743" lon="6.64465">
        <ele>586.7</ele>
        <time>2023-11-26T08:49:37Z</time>
      </trkpt>
      <trkpt lat="43.64744" lon="6.64466">
        <ele>586.8</ele>
        <time>2023-11-26T08:49:38Z</time>
      </trkpt>
      <trkpt lat="43.64745" lon="6.64466">
        <ele>586.9</ele>
        <time>2023-11-26T08:49:39Z</time>
      </trkpt>
      <trkpt lat="43.64747" lon="6.64466">
        <ele>587</ele>
        <time>2023-11-26T08:49:40Z</time>
      </trkpt>
      <trkpt lat="43.64749" lon="6.64466">
        <ele>587.1</ele>
        <time>2023-11-26T08:49:41Z</time>
      </trkpt>
      <trkpt lat="43.6475" lon="6.64466">
        <ele>587.2</ele>
        <time>2023-11-26T08:49:42Z</time>
      </trkpt>
      <trkpt lat="43.64751" lon="6.64465">
        <ele>587.3</ele>
        <time>2023-11-26T08:49:43Z</time>
      </trkpt>
      <trkpt lat="43.64752" lon="6.64465">
        <ele>587.3</ele>
        <time>2023-11-26T08:49:44Z</time>
      </trkpt>
      <trkpt lat="43.64753" lon="6.64464">
        <ele>587.3</ele>
        <time>2023-11-26T08:49:45Z</time>
      </trkpt>
      <trkpt lat="43.64754" lon="6.64463">
        <ele>587.4</ele>
        <time>2023-11-26T08:49:46Z</time>
      </trkpt>
      <trkpt lat="43.64754" lon="6.64463">
        <ele>587.4</ele>
        <time>2023-11-26T08:49:47Z</time>
      </trkpt>
      <trkpt lat="43.64754" lon="6.64462">
        <ele>587.5</ele>
        <time>2023-11-26T08:49:48Z</time>
      </trkpt>
      <trkpt lat="43.64753" lon="6.64462">
        <ele>587.6</ele>
        <time>2023-11-26T08:49:49Z</time>
      </trkpt>
      <trkpt lat="43.64755" lon="6.6446">
        <ele>587.7</ele>
        <time>2023-11-26T08:49:50Z</time>
      </trkpt>
      <trkpt lat="43.64756" lon="6.64459">
        <ele>587.8</ele>
        <time>2023-11-26T08:49:51Z</time>
      </trkpt>
      <trkpt lat="43.64758" lon="6.64458">
        <ele>587.9</ele>
        <time>2023-11-26T08:49:52Z</time>
      </trkpt>
      <trkpt lat="43.64758" lon="6.64457">
        <ele>587.9</ele>
        <time>2023-11-26T08:49:53Z</time>
      </trkpt>
      <trkpt lat="43.64759" lon="6.64457">
        <ele>588</ele>
        <time>2023-11-26T08:49:54Z</time>
      </trkpt>
      <trkpt lat="43.6476" lon="6.64457">
        <ele>588.1</ele>
        <time>2023-11-26T08:49:55Z</time>
      </trkpt>
      <trkpt lat="43.64761" lon="6.64456">
        <ele>588.2</ele>
        <time>2023-11-26T08:49:56Z</time>
      </trkpt>
      <trkpt lat="43.64762" lon="6.64455">
        <ele>588.4</ele>
        <time>2023-11-26T08:49:57Z</time>
      </trkpt>
      <trkpt lat="43.64763" lon="6.64455">
        <ele>588.4</ele>
        <time>2023-11-26T08:49:58Z</time>
      </trkpt>
      <trkpt lat="43.64764" lon="6.64454">
        <ele>588.7</ele>
        <time>2023-11-26T08:49:59Z</time>
      </trkpt>
      <trkpt lat="43.64764" lon="6.64454">
        <ele>588.8</ele>
        <time>2023-11-26T08:50:00Z</time>
      </trkpt>
      <trkpt lat="43.64766" lon="6.64453">
        <ele>588.8</ele>
        <time>2023-11-26T08:50:01Z</time>
      </trkpt>
      <trkpt lat="43.64766" lon="6.64452">
        <ele>588.9</ele>
        <time>2023-11-26T08:50:02Z</time>
      </trkpt>
      <trkpt lat="43.64767" lon="6.64452">
        <ele>589</ele>
        <time>2023-11-26T08:50:03Z</time>
      </trkpt>
      <trkpt lat="43.64768" lon="6.64451">
        <ele>589.3</ele>
        <time>2023-11-26T08:50:04Z</time>
      </trkpt>
      <trkpt lat="43.64768" lon="6.64451">
        <ele>589.4</ele>
        <time>2023-11-26T08:50:05Z</time>
      </trkpt>
      <trkpt lat="43.6477" lon="6.6445">
        <ele>589.6</ele>
        <time>2023-11-26T08:50:06Z</time>
      </trkpt>
      <trkpt lat="43.64772" lon="6.64449">
        <ele>589.7</ele>
        <time>2023-11-26T08:50:07Z</time>
      </trkpt>
      <trkpt lat="43.64773" lon="6.64449">
        <ele>589.9</ele>
        <time>2023-11-26T08:50:08Z</time>
      </trkpt>
      <trkpt lat="43.64773" lon="6.64448">
        <ele>590.1</ele>
        <time>2023-11-26T08:50:09Z</time>
      </trkpt>
      <trkpt lat="43.64774" lon="6.64448">
        <ele>590.3</ele>
        <time>2023-11-26T08:50:10Z</time>
      </trkpt>
      <trkpt lat="43.64774" lon="6.64447">
        <ele>590.4</ele>
        <time>2023-11-26T08:50:11Z</time>
      </trkpt>
      <trkpt lat="43.64775" lon="6.64446">
        <ele>590.5</ele>
        <time>2023-11-26T08:50:12Z</time>
      </trkpt>
      <trkpt lat="43.64776" lon="6.64445">
        <ele>590.7</ele>
        <time>2023-11-26T08:50:13Z</time>
      </trkpt>
      <trkpt lat="43.64777" lon="6.64444">
        <ele>590.8</ele>
        <time>2023-11-26T08:50:14Z</time>
      </trkpt>
      <trkpt lat="43.64778" lon="6.64443">
        <ele>590.9</ele>
        <time>2023-11-26T08:50:15Z</time>
      </trkpt>
      <trkpt lat="43.64779" lon="6.64442">
        <ele>591</ele>
        <time>2023-11-26T08:50:16Z</time>
      </trkpt>
      <trkpt lat="43.64781" lon="6.6444">
        <ele>591.2</ele>
        <time>2023-11-26T08:50:17Z</time>
      </trkpt>
      <trkpt lat="43.64782" lon="6.64438">
        <ele>591.4</ele>
        <time>2023-11-26T08:50:18Z</time>
      </trkpt>
      <trkpt lat="43.64783" lon="6.64436">
        <ele>591.6</ele>
        <time>2023-11-26T08:50:19Z</time>
      </trkpt>
      <trkpt lat="43.64783" lon="6.64436">
        <ele>591.9</ele>
        <time>2023-11-26T08:50:20Z</time>
      </trkpt>
      <trkpt lat="43.64785" lon="6.64435">
        <ele>591.9</ele>
        <time>2023-11-26T08:50:21Z</time>
      </trkpt>
      <trkpt lat="43.64786" lon="6.64434">
        <ele>592</ele>
        <time>2023-11-26T08:50:22Z</time>
      </trkpt>
      <trkpt lat="43.64786" lon="6.64433">
        <ele>592.1</ele>
        <time>2023-11-26T08:50:23Z</time>
      </trkpt>
      <trkpt lat="43.64786" lon="6.64432">
        <ele>592.2</ele>
        <time>2023-11-26T08:50:24Z</time>
      </trkpt>
      <trkpt lat="43.64786" lon="6.64432">
        <ele>592.3</ele>
        <time>2023-11-26T08:50:25Z</time>
      </trkpt>
      <trkpt lat="43.64786" lon="6.64431">
        <ele>592.4</ele>
        <time>2023-11-26T08:50:26Z</time>
      </trkpt>
      <trkpt lat="43.64787" lon="6.6443">
        <ele>592.4</ele>
        <time>2023-11-26T08:50:27Z</time>
      </trkpt>
      <trkpt lat="43.64787" lon="6.6443">
        <ele>592.5</ele>
        <time>2023-11-26T08:50:28Z</time>
      </trkpt>
      <trkpt lat="43.64788" lon="6.64429">
        <ele>592.6</ele>
        <time>2023-11-26T08:50:29Z</time>
      </trkpt>
      <trkpt lat="43.64789" lon="6.64428">
        <ele>592.8</ele>
        <time>2023-11-26T08:50:30Z</time>
      </trkpt>
      <trkpt lat="43.6479" lon="6.64428">
        <ele>593.3</ele>
        <time>2023-11-26T08:50:31Z</time>
      </trkpt>
      <trkpt lat="43.64791" lon="6.64427">
        <ele>593.4</ele>
        <time>2023-11-26T08:50:32Z</time>
      </trkpt>
      <trkpt lat="43.6479" lon="6.64427">
        <ele>593.7</ele>
        <time>2023-11-26T08:50:33Z</time>
      </trkpt>
      <trkpt lat="43.64791" lon="6.64427">
        <ele>593.9</ele>
        <time>2023-11-26T08:50:34Z</time>
      </trkpt>
      <trkpt lat="43.64791" lon="6.64426">
        <ele>594.1</ele>
        <time>2023-11-26T08:50:35Z</time>
      </trkpt>
      <trkpt lat="43.64792" lon="6.64425">
        <ele>594.3</ele>
        <time>2023-11-26T08:50:36Z</time>
      </trkpt>
      <trkpt lat="43.64793" lon="6.64425">
        <ele>594.5</ele>
        <time>2023-11-26T08:50:37Z</time>
      </trkpt>
      <trkpt lat="43.64794" lon="6.64425">
        <ele>594.8</ele>
        <time>2023-11-26T08:50:38Z</time>
      </trkpt>
      <trkpt lat="43.64794" lon="6.64425">
        <ele>595</ele>
        <time>2023-11-26T08:50:39Z</time>
      </trkpt>
      <trkpt lat="43.64795" lon="6.64425">
        <ele>595.2</ele>
        <time>2023-11-26T08:50:40Z</time>
      </trkpt>
      <trkpt lat="43.64795" lon="6.64425">
        <ele>595.3</ele>
        <time>2023-11-26T08:50:41Z</time>
      </trkpt>
      <trkpt lat="43.64794" lon="6.64425">
        <ele>595.5</ele>
        <time>2023-11-26T08:50:42Z</time>
      </trkpt>
      <trkpt lat="43.64794" lon="6.64426">
        <ele>595.6</ele>
        <time>2023-11-26T08:50:43Z</time>
      </trkpt>
      <trkpt lat="43.64794" lon="6.64426">
        <ele>595.8</ele>
        <time>2023-11-26T08:50:44Z</time>
      </trkpt>
      <trkpt lat="43.64794" lon="6.64426">
        <ele>595.8</ele>
        <time>2023-11-26T08:50:45Z</time>
      </trkpt>
      <trkpt lat="43.64794" lon="6.64426">
        <ele>595.9</ele>
        <time>2023-11-26T08:50:46Z</time>
      </trkpt>
      <trkpt lat="43.64795" lon="6.64425">
        <ele>596</ele>
        <time>2023-11-26T08:50:47Z</time>
      </trkpt>
      <trkpt lat="43.64795" lon="6.64425">
        <ele>596.1</ele>
        <time>2023-11-26T08:50:48Z</time>
      </trkpt>
      <trkpt lat="43.64795" lon="6.64425">
        <ele>596</ele>
        <time>2023-11-26T08:50:49Z</time>
      </trkpt>
      <trkpt lat="43.64796" lon="6.64423">
        <ele>596</ele>
        <time>2023-11-26T08:50:50Z</time>
      </trkpt>
      <trkpt lat="43.64797" lon="6.64423">
        <ele>596.1</ele>
        <time>2023-11-26T08:50:51Z</time>
      </trkpt>
      <trkpt lat="43.64797" lon="6.64422">
        <ele>596.2</ele>
        <time>2023-11-26T08:50:52Z</time>
      </trkpt>
      <trkpt lat="43.64797" lon="6.64422">
        <ele>596.3</ele>
        <time>2023-11-26T08:50:53Z</time>
      </trkpt>
      <trkpt lat="43.64796" lon="6.64421">
        <ele>596.5</ele>
        <time>2023-11-26T08:50:54Z</time>
      </trkpt>
      <trkpt lat="43.64796" lon="6.64419">
        <ele>596.6</ele>
        <time>2023-11-26T08:50:55Z</time>
      </trkpt>
      <trkpt lat="43.64796" lon="6.64418">
        <ele>596.7</ele>
        <time>2023-11-26T08:50:56Z</time>
      </trkpt>
      <trkpt lat="43.64795" lon="6.64418">
        <ele>596.7</ele>
        <time>2023-11-26T08:50:57Z</time>
      </trkpt>
      <trkpt lat="43.64795" lon="6.64418">
        <ele>596.7</ele>
        <time>2023-11-26T08:50:58Z</time>
      </trkpt>
      <trkpt lat="43.64795" lon="6.64418">
        <ele>596.7</ele>
        <time>2023-11-26T08:50:59Z</time>
      </trkpt>
      <trkpt lat="43.64794" lon="6.64417">
        <ele>596.6</ele>
        <time>2023-11-26T08:51:00Z</time>
      </trkpt>
      <trkpt lat="43.64794" lon="6.64417">
        <ele>596.7</ele>
        <time>2023-11-26T08:51:01Z</time>
      </trkpt>
      <trkpt lat="43.64794" lon="6.64417">
        <ele>596.7</ele>
        <time>2023-11-26T08:51:02Z</time>
      </trkpt>
      <trkpt lat="43.64794" lon="6.64416">
        <ele>596.7</ele>
        <time>2023-11-26T08:51:03Z</time>
      </trkpt>
      <trkpt lat="43.64794" lon="6.64416">
        <ele>596.6</ele>
        <time>2023-11-26T08:51:04Z</time>
      </trkpt>
      <trkpt lat="43.64793" lon="6.64416">
        <ele>596.5</ele>
        <time>2023-11-26T08:51:05Z</time>
      </trkpt>
      <trkpt lat="43.64792" lon="6.64416">
        <ele>596.4</ele>
        <time>2023-11-26T08:51:06Z</time>
      </trkpt>
      <trkpt lat="43.64792" lon="6.64416">
        <ele>596.5</ele>
        <time>2023-11-26T08:51:07Z</time>
      </trkpt>
      <trkpt lat="43.64791" lon="6.64416">
        <ele>596.4</ele>
        <time>2023-11-26T08:51:08Z</time>
      </trkpt>
      <trkpt lat="43.6479" lon="6.64416">
        <ele>596.4</ele>
        <time>2023-11-26T08:51:09Z</time>
      </trkpt>
      <trkpt lat="43.6479" lon="6.64416">
        <ele>596.4</ele>
        <time>2023-11-26T08:51:10Z</time>
      </trkpt>
      <trkpt lat="43.64789" lon="6.64416">
        <ele>596.5</ele>
        <time>2023-11-26T08:51:11Z</time>
      </trkpt>
      <trkpt lat="43.64788" lon="6.64416">
        <ele>596.5</ele>
        <time>2023-11-26T08:51:12Z</time>
      </trkpt>
      <trkpt lat="43.64787" lon="6.64417">
        <ele>596.4</ele>
        <time>2023-11-26T08:51:13Z</time>
      </trkpt>
      <trkpt lat="43.64786" lon="6.64417">
        <ele>596.4</ele>
        <time>2023-11-26T08:51:14Z</time>
      </trkpt>
      <trkpt lat="43.64786" lon="6.64417">
        <ele>596.4</ele>
        <time>2023-11-26T08:51:15Z</time>
      </trkpt>
      <trkpt lat="43.64785" lon="6.64417">
        <ele>596.5</ele>
        <time>2023-11-26T08:51:16Z</time>
      </trkpt>
      <trkpt lat="43.64785" lon="6.64416">
        <ele>596.5</ele>
        <time>2023-11-26T08:51:17Z</time>
      </trkpt>
      <trkpt lat="43.64784" lon="6.64416">
        <ele>596.5</ele>
        <time>2023-11-26T08:51:18Z</time>
      </trkpt>
      <trkpt lat="43.64783" lon="6.64416">
        <ele>596.5</ele>
        <time>2023-11-26T08:51:19Z</time>
      </trkpt>
      <trkpt lat="43.64783" lon="6.64416">
        <ele>596.5</ele>
        <time>2023-11-26T08:51:20Z</time>
      </trkpt>
      <trkpt lat="43.64782" lon="6.64416">
        <ele>596.4</ele>
        <time>2023-11-26T08:51:21Z</time>
      </trkpt>
      <trkpt lat="43.64782" lon="6.64416">
        <ele>596.4</ele>
        <time>2023-11-26T08:51:22Z</time>
      </trkpt>
      <trkpt lat="43.64781" lon="6.64417">
        <ele>596.4</ele>
        <time>2023-11-26T08:51:23Z</time>
      </trkpt>
      <trkpt lat="43.6478" lon="6.64416">
        <ele>596.4</ele>
        <time>2023-11-26T08:51:24Z</time>
      </trkpt>
      <trkpt lat="43.6478" lon="6.64416">
        <ele>596.3</ele>
        <time>2023-11-26T08:51:25Z</time>
      </trkpt>
      <trkpt lat="43.64779" lon="6.64417">
        <ele>596.3</ele>
        <time>2023-11-26T08:51:26Z</time>
      </trkpt>
      <trkpt lat="43.64778" lon="6.64417">
        <ele>596.3</ele>
        <time>2023-11-26T08:51:27Z</time>
      </trkpt>
      <trkpt lat="43.64778" lon="6.64417">
        <ele>596.2</ele>
        <time>2023-11-26T08:51:28Z</time>
      </trkpt>
      <trkpt lat="43.64777" lon="6.64418">
        <ele>596.3</ele>
        <time>2023-11-26T08:51:29Z</time>
      </trkpt>
      <trkpt lat="43.64777" lon="6.64417">
        <ele>596.3</ele>
        <time>2023-11-26T08:51:30Z</time>
      </trkpt>
      <trkpt lat="43.64775" lon="6.64419">
        <ele>596.2</ele>
        <time>2023-11-26T08:51:31Z</time>
      </trkpt>
      <trkpt lat="43.64775" lon="6.64419">
        <ele>596.1</ele>
        <time>2023-11-26T08:51:32Z</time>
      </trkpt>
      <trkpt lat="43.64774" lon="6.64418">
        <ele>596</ele>
        <time>2023-11-26T08:51:33Z</time>
      </trkpt>
      <trkpt lat="43.64773" lon="6.64418">
        <ele>596</ele>
        <time>2023-11-26T08:51:34Z</time>
      </trkpt>
      <trkpt lat="43.64773" lon="6.64418">
        <ele>596</ele>
        <time>2023-11-26T08:51:35Z</time>
      </trkpt>
      <trkpt lat="43.64772" lon="6.64418">
        <ele>596</ele>
        <time>2023-11-26T08:51:36Z</time>
      </trkpt>
      <trkpt lat="43.64771" lon="6.64418">
        <ele>596</ele>
        <time>2023-11-26T08:51:37Z</time>
      </trkpt>
      <trkpt lat="43.6477" lon="6.64419">
        <ele>595.9</ele>
        <time>2023-11-26T08:51:38Z</time>
      </trkpt>
      <trkpt lat="43.64769" lon="6.64419">
        <ele>595.9</ele>
        <time>2023-11-26T08:51:39Z</time>
      </trkpt>
      <trkpt lat="43.64768" lon="6.64419">
        <ele>595.9</ele>
        <time>2023-11-26T08:51:40Z</time>
      </trkpt>
      <trkpt lat="43.64767" lon="6.64419">
        <ele>595.9</ele>
        <time>2023-11-26T08:51:41Z</time>
      </trkpt>
      <trkpt lat="43.64766" lon="6.64419">
        <ele>595.8</ele>
        <time>2023-11-26T08:51:42Z</time>
      </trkpt>
      <trkpt lat="43.64765" lon="6.64419">
        <ele>595.8</ele>
        <time>2023-11-26T08:51:43Z</time>
      </trkpt>
      <trkpt lat="43.64764" lon="6.64419">
        <ele>595.8</ele>
        <time>2023-11-26T08:51:44Z</time>
      </trkpt>
      <trkpt lat="43.64763" lon="6.64419">
        <ele>595.8</ele>
        <time>2023-11-26T08:51:45Z</time>
      </trkpt>
      <trkpt lat="43.64763" lon="6.64419">
        <ele>595.8</ele>
        <time>2023-11-26T08:51:46Z</time>
      </trkpt>
      <trkpt lat="43.64762" lon="6.64421">
        <ele>595.7</ele>
        <time>2023-11-26T08:51:47Z</time>
      </trkpt>
      <trkpt lat="43.64761" lon="6.64421">
        <ele>595.7</ele>
        <time>2023-11-26T08:51:48Z</time>
      </trkpt>
      <trkpt lat="43.64759" lon="6.6442">
        <ele>595.7</ele>
        <time>2023-11-26T08:51:49Z</time>
      </trkpt>
      <trkpt lat="43.64758" lon="6.6442">
        <ele>595.7</ele>
        <time>2023-11-26T08:51:50Z</time>
      </trkpt>
      <trkpt lat="43.64757" lon="6.6442">
        <ele>595.8</ele>
        <time>2023-11-26T08:51:51Z</time>
      </trkpt>
      <trkpt lat="43.64755" lon="6.64422">
        <ele>595.9</ele>
        <time>2023-11-26T08:51:52Z</time>
      </trkpt>
      <trkpt lat="43.64754" lon="6.64421">
        <ele>595.9</ele>
        <time>2023-11-26T08:51:53Z</time>
      </trkpt>
      <trkpt lat="43.64753" lon="6.64421">
        <ele>595.9</ele>
        <time>2023-11-26T08:51:54Z</time>
      </trkpt>
      <trkpt lat="43.64752" lon="6.6442">
        <ele>595.7</ele>
        <time>2023-11-26T08:51:55Z</time>
      </trkpt>
      <trkpt lat="43.64751" lon="6.6442">
        <ele>595.7</ele>
        <time>2023-11-26T08:51:56Z</time>
      </trkpt>
      <trkpt lat="43.6475" lon="6.64421">
        <ele>595.6</ele>
        <time>2023-11-26T08:51:57Z</time>
      </trkpt>
      <trkpt lat="43.64748" lon="6.6442">
        <ele>595.6</ele>
        <time>2023-11-26T08:51:58Z</time>
      </trkpt>
      <trkpt lat="43.64747" lon="6.6442">
        <ele>595.6</ele>
        <time>2023-11-26T08:51:59Z</time>
      </trkpt>
      <trkpt lat="43.64746" lon="6.6442">
        <ele>595.5</ele>
        <time>2023-11-26T08:52:00Z</time>
      </trkpt>
      <trkpt lat="43.64744" lon="6.6442">
        <ele>595.5</ele>
        <time>2023-11-26T08:52:01Z</time>
      </trkpt>
      <trkpt lat="43.64743" lon="6.6442">
        <ele>595.4</ele>
        <time>2023-11-26T08:52:02Z</time>
      </trkpt>
      <trkpt lat="43.64742" lon="6.64421">
        <ele>595.3</ele>
        <time>2023-11-26T08:52:03Z</time>
      </trkpt>
      <trkpt lat="43.6474" lon="6.64422">
        <ele>595.2</ele>
        <time>2023-11-26T08:52:04Z</time>
      </trkpt>
      <trkpt lat="43.64739" lon="6.64423">
        <ele>595</ele>
        <time>2023-11-26T08:52:05Z</time>
      </trkpt>
      <trkpt lat="43.64737" lon="6.64424">
        <ele>594.9</ele>
        <time>2023-11-26T08:52:06Z</time>
      </trkpt>
      <trkpt lat="43.64736" lon="6.64425">
        <ele>594.9</ele>
        <time>2023-11-26T08:52:07Z</time>
      </trkpt>
      <trkpt lat="43.64734" lon="6.64425">
        <ele>594.9</ele>
        <time>2023-11-26T08:52:08Z</time>
      </trkpt>
      <trkpt lat="43.64733" lon="6.64426">
        <ele>594.9</ele>
        <time>2023-11-26T08:52:09Z</time>
      </trkpt>
      <trkpt lat="43.64732" lon="6.64426">
        <ele>594.9</ele>
        <time>2023-11-26T08:52:10Z</time>
      </trkpt>
      <trkpt lat="43.64731" lon="6.64426">
        <ele>594.9</ele>
        <time>2023-11-26T08:52:11Z</time>
      </trkpt>
      <trkpt lat="43.6473" lon="6.64427">
        <ele>594.8</ele>
        <time>2023-11-26T08:52:12Z</time>
      </trkpt>
      <trkpt lat="43.64729" lon="6.64427">
        <ele>594.8</ele>
        <time>2023-11-26T08:52:13Z</time>
      </trkpt>
      <trkpt lat="43.64729" lon="6.64427">
        <ele>594.7</ele>
        <time>2023-11-26T08:52:14Z</time>
      </trkpt>
      <trkpt lat="43.64727" lon="6.64427">
        <ele>594.7</ele>
        <time>2023-11-26T08:52:15Z</time>
      </trkpt>
      <trkpt lat="43.64726" lon="6.64428">
        <ele>594.7</ele>
        <time>2023-11-26T08:52:16Z</time>
      </trkpt>
      <trkpt lat="43.64725" lon="6.64428">
        <ele>594.7</ele>
        <time>2023-11-26T08:52:17Z</time>
      </trkpt>
      <trkpt lat="43.64723" lon="6.64428">
        <ele>594.8</ele>
        <time>2023-11-26T08:52:18Z</time>
      </trkpt>
      <trkpt lat="43.64722" lon="6.64428">
        <ele>594.8</ele>
        <time>2023-11-26T08:52:19Z</time>
      </trkpt>
      <trkpt lat="43.64721" lon="6.64429">
        <ele>594.8</ele>
        <time>2023-11-26T08:52:20Z</time>
      </trkpt>
      <trkpt lat="43.6472" lon="6.6443">
        <ele>594.8</ele>
        <time>2023-11-26T08:52:21Z</time>
      </trkpt>
      <trkpt lat="43.64719" lon="6.6443">
        <ele>594.8</ele>
        <time>2023-11-26T08:52:22Z</time>
      </trkpt>
      <trkpt lat="43.64718" lon="6.6443">
        <ele>594.8</ele>
        <time>2023-11-26T08:52:23Z</time>
      </trkpt>
      <trkpt lat="43.64716" lon="6.6443">
        <ele>594.8</ele>
        <time>2023-11-26T08:52:24Z</time>
      </trkpt>
      <trkpt lat="43.64715" lon="6.64431">
        <ele>594.7</ele>
        <time>2023-11-26T08:52:25Z</time>
      </trkpt>
      <trkpt lat="43.64714" lon="6.64431">
        <ele>594.7</ele>
        <time>2023-11-26T08:52:26Z</time>
      </trkpt>
      <trkpt lat="43.64713" lon="6.64431">
        <ele>594.8</ele>
        <time>2023-11-26T08:52:27Z</time>
      </trkpt>
      <trkpt lat="43.64712" lon="6.64433">
        <ele>594.8</ele>
        <time>2023-11-26T08:52:28Z</time>
      </trkpt>
      <trkpt lat="43.64711" lon="6.64434">
        <ele>595</ele>
        <time>2023-11-26T08:52:29Z</time>
      </trkpt>
      <trkpt lat="43.6471" lon="6.64435">
        <ele>595</ele>
        <time>2023-11-26T08:52:30Z</time>
      </trkpt>
      <trkpt lat="43.64709" lon="6.64436">
        <ele>595.1</ele>
        <time>2023-11-26T08:52:31Z</time>
      </trkpt>
      <trkpt lat="43.64709" lon="6.64435">
        <ele>595.1</ele>
        <time>2023-11-26T08:52:32Z</time>
      </trkpt>
      <trkpt lat="43.64708" lon="6.64435">
        <ele>595.1</ele>
        <time>2023-11-26T08:52:33Z</time>
      </trkpt>
      <trkpt lat="43.64707" lon="6.64436">
        <ele>595.1</ele>
        <time>2023-11-26T08:52:34Z</time>
      </trkpt>
      <trkpt lat="43.64706" lon="6.64436">
        <ele>595.1</ele>
        <time>2023-11-26T08:52:35Z</time>
      </trkpt>
      <trkpt lat="43.64705" lon="6.64437">
        <ele>595.1</ele>
        <time>2023-11-26T08:52:36Z</time>
      </trkpt>
      <trkpt lat="43.64704" lon="6.64439">
        <ele>595.1</ele>
        <time>2023-11-26T08:52:37Z</time>
      </trkpt>
      <trkpt lat="43.64704" lon="6.6444">
        <ele>595.1</ele>
        <time>2023-11-26T08:52:38Z</time>
      </trkpt>
      <trkpt lat="43.64702" lon="6.64441">
        <ele>595.2</ele>
        <time>2023-11-26T08:52:39Z</time>
      </trkpt>
      <trkpt lat="43.64702" lon="6.64442">
        <ele>595.2</ele>
        <time>2023-11-26T08:52:40Z</time>
      </trkpt>
      <trkpt lat="43.64701" lon="6.64443">
        <ele>595.3</ele>
        <time>2023-11-26T08:52:41Z</time>
      </trkpt>
      <trkpt lat="43.647" lon="6.64444">
        <ele>595.4</ele>
        <time>2023-11-26T08:52:42Z</time>
      </trkpt>
      <trkpt lat="43.64699" lon="6.64445">
        <ele>595.4</ele>
        <time>2023-11-26T08:52:43Z</time>
      </trkpt>
      <trkpt lat="43.64698" lon="6.64447">
        <ele>595.5</ele>
        <time>2023-11-26T08:52:44Z</time>
      </trkpt>
      <trkpt lat="43.64697" lon="6.64448">
        <ele>595.7</ele>
        <time>2023-11-26T08:52:45Z</time>
      </trkpt>
      <trkpt lat="43.64697" lon="6.64449">
        <ele>595.8</ele>
        <time>2023-11-26T08:52:46Z</time>
      </trkpt>
      <trkpt lat="43.64696" lon="6.6445">
        <ele>595.9</ele>
        <time>2023-11-26T08:52:47Z</time>
      </trkpt>
      <trkpt lat="43.64695" lon="6.64451">
        <ele>595.9</ele>
        <time>2023-11-26T08:52:48Z</time>
      </trkpt>
      <trkpt lat="43.64694" lon="6.64453">
        <ele>596</ele>
        <time>2023-11-26T08:52:49Z</time>
      </trkpt>
      <trkpt lat="43.64693" lon="6.64454">
        <ele>596.1</ele>
        <time>2023-11-26T08:52:50Z</time>
      </trkpt>
      <trkpt lat="43.64692" lon="6.64455">
        <ele>596.1</ele>
        <time>2023-11-26T08:52:51Z</time>
      </trkpt>
      <trkpt lat="43.64691" lon="6.64457">
        <ele>596.2</ele>
        <time>2023-11-26T08:52:52Z</time>
      </trkpt>
      <trkpt lat="43.6469" lon="6.64458">
        <ele>596.4</ele>
        <time>2023-11-26T08:52:53Z</time>
      </trkpt>
      <trkpt lat="43.64689" lon="6.64459">
        <ele>596.5</ele>
        <time>2023-11-26T08:52:54Z</time>
      </trkpt>
      <trkpt lat="43.64688" lon="6.6446">
        <ele>596.6</ele>
        <time>2023-11-26T08:52:55Z</time>
      </trkpt>
      <trkpt lat="43.64687" lon="6.64462">
        <ele>596.8</ele>
        <time>2023-11-26T08:52:56Z</time>
      </trkpt>
      <trkpt lat="43.64687" lon="6.64463">
        <ele>596.9</ele>
        <time>2023-11-26T08:52:57Z</time>
      </trkpt>
      <trkpt lat="43.64685" lon="6.64465">
        <ele>597</ele>
        <time>2023-11-26T08:52:58Z</time>
      </trkpt>
      <trkpt lat="43.64684" lon="6.64466">
        <ele>597</ele>
        <time>2023-11-26T08:52:59Z</time>
      </trkpt>
      <trkpt lat="43.64684" lon="6.64467">
        <ele>597.2</ele>
        <time>2023-11-26T08:53:00Z</time>
      </trkpt>
      <trkpt lat="43.64682" lon="6.64467">
        <ele>597.3</ele>
        <time>2023-11-26T08:53:01Z</time>
      </trkpt>
      <trkpt lat="43.64681" lon="6.64469">
        <ele>597.4</ele>
        <time>2023-11-26T08:53:02Z</time>
      </trkpt>
      <trkpt lat="43.6468" lon="6.6447">
        <ele>597.4</ele>
        <time>2023-11-26T08:53:03Z</time>
      </trkpt>
      <trkpt lat="43.64679" lon="6.6447">
        <ele>597.4</ele>
        <time>2023-11-26T08:53:04Z</time>
      </trkpt>
      <trkpt lat="43.64678" lon="6.6447">
        <ele>597.4</ele>
        <time>2023-11-26T08:53:05Z</time>
      </trkpt>
      <trkpt lat="43.64677" lon="6.64471">
        <ele>597.4</ele>
        <time>2023-11-26T08:53:06Z</time>
      </trkpt>
      <trkpt lat="43.64676" lon="6.64472">
        <ele>597.5</ele>
        <time>2023-11-26T08:53:07Z</time>
      </trkpt>
      <trkpt lat="43.64674" lon="6.64473">
        <ele>597.8</ele>
        <time>2023-11-26T08:53:08Z</time>
      </trkpt>
      <trkpt lat="43.64673" lon="6.64474">
        <ele>597.9</ele>
        <time>2023-11-26T08:53:09Z</time>
      </trkpt>
      <trkpt lat="43.64672" lon="6.64474">
        <ele>598.1</ele>
        <time>2023-11-26T08:53:10Z</time>
      </trkpt>
      <trkpt lat="43.64671" lon="6.64474">
        <ele>598.2</ele>
        <time>2023-11-26T08:53:11Z</time>
      </trkpt>
      <trkpt lat="43.6467" lon="6.64474">
        <ele>598.5</ele>
        <time>2023-11-26T08:53:12Z</time>
      </trkpt>
      <trkpt lat="43.64669" lon="6.64475">
        <ele>598.7</ele>
        <time>2023-11-26T08:53:13Z</time>
      </trkpt>
      <trkpt lat="43.64668" lon="6.64475">
        <ele>598.8</ele>
        <time>2023-11-26T08:53:14Z</time>
      </trkpt>
      <trkpt lat="43.64667" lon="6.64474">
        <ele>598.9</ele>
        <time>2023-11-26T08:53:15Z</time>
      </trkpt>
      <trkpt lat="43.64665" lon="6.64474">
        <ele>599.1</ele>
        <time>2023-11-26T08:53:16Z</time>
      </trkpt>
      <trkpt lat="43.64664" lon="6.64475">
        <ele>599.2</ele>
        <time>2023-11-26T08:53:17Z</time>
      </trkpt>
      <trkpt lat="43.64663" lon="6.64474">
        <ele>599.3</ele>
        <time>2023-11-26T08:53:18Z</time>
      </trkpt>
      <trkpt lat="43.64662" lon="6.64474">
        <ele>599.4</ele>
        <time>2023-11-26T08:53:19Z</time>
      </trkpt>
      <trkpt lat="43.64661" lon="6.64473">
        <ele>599.5</ele>
        <time>2023-11-26T08:53:20Z</time>
      </trkpt>
      <trkpt lat="43.6466" lon="6.64473">
        <ele>599.6</ele>
        <time>2023-11-26T08:53:21Z</time>
      </trkpt>
      <trkpt lat="43.64659" lon="6.64472">
        <ele>599.8</ele>
        <time>2023-11-26T08:53:22Z</time>
      </trkpt>
      <trkpt lat="43.64658" lon="6.64472">
        <ele>599.9</ele>
        <time>2023-11-26T08:53:23Z</time>
      </trkpt>
      <trkpt lat="43.64657" lon="6.64471">
        <ele>600</ele>
        <time>2023-11-26T08:53:24Z</time>
      </trkpt>
      <trkpt lat="43.64656" lon="6.6447">
        <ele>600.1</ele>
        <time>2023-11-26T08:53:25Z</time>
      </trkpt>
      <trkpt lat="43.64654" lon="6.64469">
        <ele>600.2</ele>
        <time>2023-11-26T08:53:26Z</time>
      </trkpt>
      <trkpt lat="43.64653" lon="6.64469">
        <ele>600.3</ele>
        <time>2023-11-26T08:53:27Z</time>
      </trkpt>
      <trkpt lat="43.64652" lon="6.64468">
        <ele>600.3</ele>
        <time>2023-11-26T08:53:28Z</time>
      </trkpt>
      <trkpt lat="43.6465" lon="6.64468">
        <ele>600.4</ele>
        <time>2023-11-26T08:53:29Z</time>
      </trkpt>
      <trkpt lat="43.64649" lon="6.64468">
        <ele>600.4</ele>
        <time>2023-11-26T08:53:30Z</time>
      </trkpt>
      <trkpt lat="43.64648" lon="6.64467">
        <ele>600.4</ele>
        <time>2023-11-26T08:53:31Z</time>
      </trkpt>
      <trkpt lat="43.64647" lon="6.64466">
        <ele>600.4</ele>
        <time>2023-11-26T08:53:32Z</time>
      </trkpt>
      <trkpt lat="43.64646" lon="6.64466">
        <ele>600.4</ele>
        <time>2023-11-26T08:53:33Z</time>
      </trkpt>
      <trkpt lat="43.64645" lon="6.64465">
        <ele>600.4</ele>
        <time>2023-11-26T08:53:34Z</time>
      </trkpt>
      <trkpt lat="43.64643" lon="6.64465">
        <ele>600.4</ele>
        <time>2023-11-26T08:53:35Z</time>
      </trkpt>
      <trkpt lat="43.64641" lon="6.64464">
        <ele>600.4</ele>
        <time>2023-11-26T08:53:36Z</time>
      </trkpt>
      <trkpt lat="43.6464" lon="6.64463">
        <ele>600.3</ele>
        <time>2023-11-26T08:53:37Z</time>
      </trkpt>
      <trkpt lat="43.64639" lon="6.64463">
        <ele>600.3</ele>
        <time>2023-11-26T08:53:38Z</time>
      </trkpt>
      <trkpt lat="43.64637" lon="6.64462">
        <ele>600.3</ele>
        <time>2023-11-26T08:53:39Z</time>
      </trkpt>
      <trkpt lat="43.64636" lon="6.64461">
        <ele>600.3</ele>
        <time>2023-11-26T08:53:40Z</time>
      </trkpt>
      <trkpt lat="43.64635" lon="6.64461">
        <ele>600.3</ele>
        <time>2023-11-26T08:53:41Z</time>
      </trkpt>
      <trkpt lat="43.64633" lon="6.64461">
        <ele>600.4</ele>
        <time>2023-11-26T08:53:42Z</time>
      </trkpt>
      <trkpt lat="43.64632" lon="6.6446">
        <ele>600.4</ele>
        <time>2023-11-26T08:53:43Z</time>
      </trkpt>
      <trkpt lat="43.6463" lon="6.6446">
        <ele>600.4</ele>
        <time>2023-11-26T08:53:44Z</time>
      </trkpt>
      <trkpt lat="43.6463" lon="6.64459">
        <ele>600.4</ele>
        <time>2023-11-26T08:53:45Z</time>
      </trkpt>
      <trkpt lat="43.64629" lon="6.6446">
        <ele>600.3</ele>
        <time>2023-11-26T08:53:46Z</time>
      </trkpt>
      <trkpt lat="43.64628" lon="6.64459">
        <ele>600.2</ele>
        <time>2023-11-26T08:53:47Z</time>
      </trkpt>
      <trkpt lat="43.64627" lon="6.64459">
        <ele>600.2</ele>
        <time>2023-11-26T08:53:48Z</time>
      </trkpt>
      <trkpt lat="43.64626" lon="6.64459">
        <ele>600.3</ele>
        <time>2023-11-26T08:53:49Z</time>
      </trkpt>
      <trkpt lat="43.64625" lon="6.64458">
        <ele>600.3</ele>
        <time>2023-11-26T08:53:50Z</time>
      </trkpt>
      <trkpt lat="43.64624" lon="6.64458">
        <ele>600.2</ele>
        <time>2023-11-26T08:53:51Z</time>
      </trkpt>
      <trkpt lat="43.64622" lon="6.64457">
        <ele>600.2</ele>
        <time>2023-11-26T08:53:52Z</time>
      </trkpt>
      <trkpt lat="43.64621" lon="6.64457">
        <ele>600.1</ele>
        <time>2023-11-26T08:53:53Z</time>
      </trkpt>
      <trkpt lat="43.6462" lon="6.64456">
        <ele>600.2</ele>
        <time>2023-11-26T08:53:54Z</time>
      </trkpt>
      <trkpt lat="43.64619" lon="6.64456">
        <ele>600.2</ele>
        <time>2023-11-26T08:53:55Z</time>
      </trkpt>
      <trkpt lat="43.64618" lon="6.64455">
        <ele>600.2</ele>
        <time>2023-11-26T08:53:56Z</time>
      </trkpt>
      <trkpt lat="43.64616" lon="6.64454">
        <ele>600.3</ele>
        <time>2023-11-26T08:53:57Z</time>
      </trkpt>
      <trkpt lat="43.64615" lon="6.64454">
        <ele>600.3</ele>
        <time>2023-11-26T08:53:58Z</time>
      </trkpt>
      <trkpt lat="43.64614" lon="6.64453">
        <ele>600.3</ele>
        <time>2023-11-26T08:53:59Z</time>
      </trkpt>
      <trkpt lat="43.64613" lon="6.64452">
        <ele>600.3</ele>
        <time>2023-11-26T08:54:00Z</time>
      </trkpt>
      <trkpt lat="43.64612" lon="6.64452">
        <ele>600.3</ele>
        <time>2023-11-26T08:54:01Z</time>
      </trkpt>
      <trkpt lat="43.6461" lon="6.64451">
        <ele>600.2</ele>
        <time>2023-11-26T08:54:02Z</time>
      </trkpt>
      <trkpt lat="43.64609" lon="6.6445">
        <ele>600.2</ele>
        <time>2023-11-26T08:54:03Z</time>
      </trkpt>
      <trkpt lat="43.64608" lon="6.64449">
        <ele>600.1</ele>
        <time>2023-11-26T08:54:04Z</time>
      </trkpt>
      <trkpt lat="43.64607" lon="6.64449">
        <ele>600.1</ele>
        <time>2023-11-26T08:54:05Z</time>
      </trkpt>
      <trkpt lat="43.64606" lon="6.64448">
        <ele>600.1</ele>
        <time>2023-11-26T08:54:06Z</time>
      </trkpt>
      <trkpt lat="43.64605" lon="6.64447">
        <ele>600</ele>
        <time>2023-11-26T08:54:07Z</time>
      </trkpt>
      <trkpt lat="43.64604" lon="6.64447">
        <ele>599.9</ele>
        <time>2023-11-26T08:54:08Z</time>
      </trkpt>
      <trkpt lat="43.64604" lon="6.64446">
        <ele>599.8</ele>
        <time>2023-11-26T08:54:09Z</time>
      </trkpt>
      <trkpt lat="43.64603" lon="6.64445">
        <ele>599.8</ele>
        <time>2023-11-26T08:54:10Z</time>
      </trkpt>
      <trkpt lat="43.64602" lon="6.64444">
        <ele>599.8</ele>
        <time>2023-11-26T08:54:11Z</time>
      </trkpt>
      <trkpt lat="43.64601" lon="6.64444">
        <ele>599.7</ele>
        <time>2023-11-26T08:54:12Z</time>
      </trkpt>
      <trkpt lat="43.646" lon="6.64443">
        <ele>599.9</ele>
        <time>2023-11-26T08:54:13Z</time>
      </trkpt>
      <trkpt lat="43.64599" lon="6.64442">
        <ele>600</ele>
        <time>2023-11-26T08:54:14Z</time>
      </trkpt>
      <trkpt lat="43.64598" lon="6.64441">
        <ele>599.9</ele>
        <time>2023-11-26T08:54:15Z</time>
      </trkpt>
      <trkpt lat="43.64597" lon="6.6444">
        <ele>599.9</ele>
        <time>2023-11-26T08:54:16Z</time>
      </trkpt>
      <trkpt lat="43.64596" lon="6.64439">
        <ele>599.9</ele>
        <time>2023-11-26T08:54:17Z</time>
      </trkpt>
      <trkpt lat="43.64595" lon="6.64438">
        <ele>599.9</ele>
        <time>2023-11-26T08:54:18Z</time>
      </trkpt>
      <trkpt lat="43.64594" lon="6.64437">
        <ele>599.9</ele>
        <time>2023-11-26T08:54:19Z</time>
      </trkpt>
      <trkpt lat="43.64593" lon="6.64437">
        <ele>599.8</ele>
        <time>2023-11-26T08:54:20Z</time>
      </trkpt>
      <trkpt lat="43.64593" lon="6.64436">
        <ele>599.8</ele>
        <time>2023-11-26T08:54:21Z</time>
      </trkpt>
      <trkpt lat="43.64592" lon="6.64435">
        <ele>599.9</ele>
        <time>2023-11-26T08:54:22Z</time>
      </trkpt>
      <trkpt lat="43.64592" lon="6.64434">
        <ele>600</ele>
        <time>2023-11-26T08:54:23Z</time>
      </trkpt>
      <trkpt lat="43.64591" lon="6.64433">
        <ele>600.1</ele>
        <time>2023-11-26T08:54:24Z</time>
      </trkpt>
      <trkpt lat="43.6459" lon="6.64431">
        <ele>600.2</ele>
        <time>2023-11-26T08:54:25Z</time>
      </trkpt>
      <trkpt lat="43.64589" lon="6.6443">
        <ele>600.3</ele>
        <time>2023-11-26T08:54:26Z</time>
      </trkpt>
      <trkpt lat="43.64588" lon="6.64428">
        <ele>600.3</ele>
        <time>2023-11-26T08:54:27Z</time>
      </trkpt>
      <trkpt lat="43.64587" lon="6.64427">
        <ele>600.4</ele>
        <time>2023-11-26T08:54:28Z</time>
      </trkpt>
      <trkpt lat="43.64586" lon="6.64426">
        <ele>600.4</ele>
        <time>2023-11-26T08:54:29Z</time>
      </trkpt>
      <trkpt lat="43.64585" lon="6.64425">
        <ele>600.4</ele>
        <time>2023-11-26T08:54:30Z</time>
      </trkpt>
      <trkpt lat="43.64584" lon="6.64424">
        <ele>600.4</ele>
        <time>2023-11-26T08:54:31Z</time>
      </trkpt>
      <trkpt lat="43.64584" lon="6.64422">
        <ele>600.4</ele>
        <time>2023-11-26T08:54:32Z</time>
      </trkpt>
      <trkpt lat="43.64583" lon="6.64421">
        <ele>600.5</ele>
        <time>2023-11-26T08:54:33Z</time>
      </trkpt>
      <trkpt lat="43.64582" lon="6.6442">
        <ele>600.7</ele>
        <time>2023-11-26T08:54:34Z</time>
      </trkpt>
      <trkpt lat="43.64581" lon="6.64419">
        <ele>600.8</ele>
        <time>2023-11-26T08:54:35Z</time>
      </trkpt>
      <trkpt lat="43.6458" lon="6.64418">
        <ele>600.8</ele>
        <time>2023-11-26T08:54:36Z</time>
      </trkpt>
      <trkpt lat="43.64579" lon="6.64417">
        <ele>600.9</ele>
        <time>2023-11-26T08:54:37Z</time>
      </trkpt>
      <trkpt lat="43.64578" lon="6.64416">
        <ele>600.9</ele>
        <time>2023-11-26T08:54:38Z</time>
      </trkpt>
      <trkpt lat="43.64578" lon="6.64414">
        <ele>600.9</ele>
        <time>2023-11-26T08:54:39Z</time>
      </trkpt>
      <trkpt lat="43.64578" lon="6.64413">
        <ele>601</ele>
        <time>2023-11-26T08:54:40Z</time>
      </trkpt>
      <trkpt lat="43.64577" lon="6.64413">
        <ele>601</ele>
        <time>2023-11-26T08:54:41Z</time>
      </trkpt>
      <trkpt lat="43.64576" lon="6.64411">
        <ele>601.1</ele>
        <time>2023-11-26T08:54:42Z</time>
      </trkpt>
      <trkpt lat="43.64575" lon="6.64411">
        <ele>601.3</ele>
        <time>2023-11-26T08:54:43Z</time>
      </trkpt>
      <trkpt lat="43.64574" lon="6.6441">
        <ele>601.3</ele>
        <time>2023-11-26T08:54:44Z</time>
      </trkpt>
      <trkpt lat="43.64572" lon="6.64409">
        <ele>601.5</ele>
        <time>2023-11-26T08:54:45Z</time>
      </trkpt>
      <trkpt lat="43.64571" lon="6.64408">
        <ele>601.6</ele>
        <time>2023-11-26T08:54:46Z</time>
      </trkpt>
      <trkpt lat="43.6457" lon="6.64407">
        <ele>601.7</ele>
        <time>2023-11-26T08:54:47Z</time>
      </trkpt>
      <trkpt lat="43.64569" lon="6.64406">
        <ele>601.7</ele>
        <time>2023-11-26T08:54:48Z</time>
      </trkpt>
      <trkpt lat="43.64568" lon="6.64406">
        <ele>601.8</ele>
        <time>2023-11-26T08:54:49Z</time>
      </trkpt>
      <trkpt lat="43.64567" lon="6.64405">
        <ele>601.8</ele>
        <time>2023-11-26T08:54:50Z</time>
      </trkpt>
      <trkpt lat="43.64566" lon="6.64404">
        <ele>601.9</ele>
        <time>2023-11-26T08:54:51Z</time>
      </trkpt>
      <trkpt lat="43.64566" lon="6.64402">
        <ele>602</ele>
        <time>2023-11-26T08:54:52Z</time>
      </trkpt>
      <trkpt lat="43.64564" lon="6.64401">
        <ele>602.1</ele>
        <time>2023-11-26T08:54:53Z</time>
      </trkpt>
      <trkpt lat="43.64563" lon="6.644">
        <ele>602.2</ele>
        <time>2023-11-26T08:54:54Z</time>
      </trkpt>
      <trkpt lat="43.64563" lon="6.64398">
        <ele>602.3</ele>
        <time>2023-11-26T08:54:55Z</time>
      </trkpt>
      <trkpt lat="43.64562" lon="6.64397">
        <ele>602.5</ele>
        <time>2023-11-26T08:54:56Z</time>
      </trkpt>
      <trkpt lat="43.64561" lon="6.64397">
        <ele>602.7</ele>
        <time>2023-11-26T08:54:57Z</time>
      </trkpt>
      <trkpt lat="43.6456" lon="6.64396">
        <ele>602.8</ele>
        <time>2023-11-26T08:54:58Z</time>
      </trkpt>
      <trkpt lat="43.64558" lon="6.64395">
        <ele>602.8</ele>
        <time>2023-11-26T08:54:59Z</time>
      </trkpt>
      <trkpt lat="43.64558" lon="6.64394">
        <ele>602.9</ele>
        <time>2023-11-26T08:55:00Z</time>
      </trkpt>
      <trkpt lat="43.64557" lon="6.64393">
        <ele>603</ele>
        <time>2023-11-26T08:55:01Z</time>
      </trkpt>
      <trkpt lat="43.64556" lon="6.64392">
        <ele>603.2</ele>
        <time>2023-11-26T08:55:02Z</time>
      </trkpt>
      <trkpt lat="43.64555" lon="6.64392">
        <ele>603.4</ele>
        <time>2023-11-26T08:55:03Z</time>
      </trkpt>
      <trkpt lat="43.64554" lon="6.64391">
        <ele>603.6</ele>
        <time>2023-11-26T08:55:04Z</time>
      </trkpt>
      <trkpt lat="43.64553" lon="6.6439">
        <ele>603.6</ele>
        <time>2023-11-26T08:55:05Z</time>
      </trkpt>
      <trkpt lat="43.64552" lon="6.64389">
        <ele>603.6</ele>
        <time>2023-11-26T08:55:06Z</time>
      </trkpt>
      <trkpt lat="43.64551" lon="6.64389">
        <ele>603.6</ele>
        <time>2023-11-26T08:55:07Z</time>
      </trkpt>
      <trkpt lat="43.64549" lon="6.64388">
        <ele>603.7</ele>
        <time>2023-11-26T08:55:08Z</time>
      </trkpt>
      <trkpt lat="43.64548" lon="6.64387">
        <ele>603.8</ele>
        <time>2023-11-26T08:55:09Z</time>
      </trkpt>
      <trkpt lat="43.64547" lon="6.64387">
        <ele>603.9</ele>
        <time>2023-11-26T08:55:10Z</time>
      </trkpt>
      <trkpt lat="43.64546" lon="6.64386">
        <ele>603.9</ele>
        <time>2023-11-26T08:55:11Z</time>
      </trkpt>
      <trkpt lat="43.64545" lon="6.64385">
        <ele>604</ele>
        <time>2023-11-26T08:55:12Z</time>
      </trkpt>
      <trkpt lat="43.64544" lon="6.64384">
        <ele>604.1</ele>
        <time>2023-11-26T08:55:13Z</time>
      </trkpt>
      <trkpt lat="43.64543" lon="6.64383">
        <ele>604.1</ele>
        <time>2023-11-26T08:55:14Z</time>
      </trkpt>
      <trkpt lat="43.64543" lon="6.64383">
        <ele>604.3</ele>
        <time>2023-11-26T08:55:15Z</time>
      </trkpt>
      <trkpt lat="43.64541" lon="6.64382">
        <ele>604.4</ele>
        <time>2023-11-26T08:55:16Z</time>
      </trkpt>
      <trkpt lat="43.6454" lon="6.64381">
        <ele>604.6</ele>
        <time>2023-11-26T08:55:17Z</time>
      </trkpt>
      <trkpt lat="43.6454" lon="6.64381">
        <ele>604.6</ele>
        <time>2023-11-26T08:55:18Z</time>
      </trkpt>
      <trkpt lat="43.64539" lon="6.6438">
        <ele>604.8</ele>
        <time>2023-11-26T08:55:19Z</time>
      </trkpt>
      <trkpt lat="43.64538" lon="6.64379">
        <ele>604.8</ele>
        <time>2023-11-26T08:55:20Z</time>
      </trkpt>
      <trkpt lat="43.64537" lon="6.64378">
        <ele>604.9</ele>
        <time>2023-11-26T08:55:21Z</time>
      </trkpt>
      <trkpt lat="43.64536" lon="6.64377">
        <ele>605</ele>
        <time>2023-11-26T08:55:22Z</time>
      </trkpt>
      <trkpt lat="43.64535" lon="6.64376">
        <ele>605</ele>
        <time>2023-11-26T08:55:23Z</time>
      </trkpt>
      <trkpt lat="43.64534" lon="6.64376">
        <ele>605.1</ele>
        <time>2023-11-26T08:55:24Z</time>
      </trkpt>
      <trkpt lat="43.64533" lon="6.64375">
        <ele>605.2</ele>
        <time>2023-11-26T08:55:25Z</time>
      </trkpt>
      <trkpt lat="43.64532" lon="6.64374">
        <ele>605.2</ele>
        <time>2023-11-26T08:55:26Z</time>
      </trkpt>
      <trkpt lat="43.64531" lon="6.64373">
        <ele>605.3</ele>
        <time>2023-11-26T08:55:27Z</time>
      </trkpt>
      <trkpt lat="43.64531" lon="6.64372">
        <ele>605.4</ele>
        <time>2023-11-26T08:55:28Z</time>
      </trkpt>
      <trkpt lat="43.6453" lon="6.6437">
        <ele>605.5</ele>
        <time>2023-11-26T08:55:29Z</time>
      </trkpt>
      <trkpt lat="43.64529" lon="6.64369">
        <ele>605.7</ele>
        <time>2023-11-26T08:55:30Z</time>
      </trkpt>
      <trkpt lat="43.64528" lon="6.64369">
        <ele>605.8</ele>
        <time>2023-11-26T08:55:31Z</time>
      </trkpt>
      <trkpt lat="43.64528" lon="6.64367">
        <ele>605.9</ele>
        <time>2023-11-26T08:55:32Z</time>
      </trkpt>
      <trkpt lat="43.64527" lon="6.64366">
        <ele>606.1</ele>
        <time>2023-11-26T08:55:33Z</time>
      </trkpt>
      <trkpt lat="43.64526" lon="6.64365">
        <ele>606.2</ele>
        <time>2023-11-26T08:55:34Z</time>
      </trkpt>
      <trkpt lat="43.64525" lon="6.64364">
        <ele>606.2</ele>
        <time>2023-11-26T08:55:35Z</time>
      </trkpt>
      <trkpt lat="43.64524" lon="6.64363">
        <ele>606.3</ele>
        <time>2023-11-26T08:55:36Z</time>
      </trkpt>
      <trkpt lat="43.64523" lon="6.64362">
        <ele>606.5</ele>
        <time>2023-11-26T08:55:37Z</time>
      </trkpt>
      <trkpt lat="43.64522" lon="6.64361">
        <ele>606.6</ele>
        <time>2023-11-26T08:55:38Z</time>
      </trkpt>
      <trkpt lat="43.64521" lon="6.64359">
        <ele>606.7</ele>
        <time>2023-11-26T08:55:39Z</time>
      </trkpt>
      <trkpt lat="43.64521" lon="6.64358">
        <ele>606.9</ele>
        <time>2023-11-26T08:55:40Z</time>
      </trkpt>
      <trkpt lat="43.6452" lon="6.64357">
        <ele>607</ele>
        <time>2023-11-26T08:55:41Z</time>
      </trkpt>
      <trkpt lat="43.64519" lon="6.64356">
        <ele>607.1</ele>
        <time>2023-11-26T08:55:42Z</time>
      </trkpt>
      <trkpt lat="43.64519" lon="6.64355">
        <ele>607.2</ele>
        <time>2023-11-26T08:55:43Z</time>
      </trkpt>
      <trkpt lat="43.64518" lon="6.64353">
        <ele>607.2</ele>
        <time>2023-11-26T08:55:44Z</time>
      </trkpt>
      <trkpt lat="43.64518" lon="6.64352">
        <ele>607.3</ele>
        <time>2023-11-26T08:55:45Z</time>
      </trkpt>
      <trkpt lat="43.64517" lon="6.64351">
        <ele>607.5</ele>
        <time>2023-11-26T08:55:46Z</time>
      </trkpt>
      <trkpt lat="43.64516" lon="6.6435">
        <ele>607.7</ele>
        <time>2023-11-26T08:55:47Z</time>
      </trkpt>
      <trkpt lat="43.64515" lon="6.64349">
        <ele>607.9</ele>
        <time>2023-11-26T08:55:48Z</time>
      </trkpt>
      <trkpt lat="43.64514" lon="6.64348">
        <ele>608.1</ele>
        <time>2023-11-26T08:55:49Z</time>
      </trkpt>
      <trkpt lat="43.64514" lon="6.64346">
        <ele>608.2</ele>
        <time>2023-11-26T08:55:50Z</time>
      </trkpt>
      <trkpt lat="43.64513" lon="6.64346">
        <ele>608.3</ele>
        <time>2023-11-26T08:55:51Z</time>
      </trkpt>
      <trkpt lat="43.64512" lon="6.64345">
        <ele>608.4</ele>
        <time>2023-11-26T08:55:52Z</time>
      </trkpt>
      <trkpt lat="43.64511" lon="6.64344">
        <ele>608.5</ele>
        <time>2023-11-26T08:55:53Z</time>
      </trkpt>
      <trkpt lat="43.6451" lon="6.64342">
        <ele>608.5</ele>
        <time>2023-11-26T08:55:54Z</time>
      </trkpt>
      <trkpt lat="43.64509" lon="6.64341">
        <ele>608.6</ele>
        <time>2023-11-26T08:55:55Z</time>
      </trkpt>
      <trkpt lat="43.64508" lon="6.6434">
        <ele>608.7</ele>
        <time>2023-11-26T08:55:56Z</time>
      </trkpt>
      <trkpt lat="43.64508" lon="6.64339">
        <ele>608.7</ele>
        <time>2023-11-26T08:55:57Z</time>
      </trkpt>
      <trkpt lat="43.64506" lon="6.64338">
        <ele>608.8</ele>
        <time>2023-11-26T08:55:58Z</time>
      </trkpt>
      <trkpt lat="43.64505" lon="6.64337">
        <ele>608.8</ele>
        <time>2023-11-26T08:55:59Z</time>
      </trkpt>
      <trkpt lat="43.64505" lon="6.64336">
        <ele>608.8</ele>
        <time>2023-11-26T08:56:00Z</time>
      </trkpt>
      <trkpt lat="43.64504" lon="6.64334">
        <ele>608.9</ele>
        <time>2023-11-26T08:56:01Z</time>
      </trkpt>
      <trkpt lat="43.64504" lon="6.64333">
        <ele>608.9</ele>
        <time>2023-11-26T08:56:02Z</time>
      </trkpt>
      <trkpt lat="43.64503" lon="6.64331">
        <ele>609.1</ele>
        <time>2023-11-26T08:56:03Z</time>
      </trkpt>
      <trkpt lat="43.64503" lon="6.6433">
        <ele>609.2</ele>
        <time>2023-11-26T08:56:04Z</time>
      </trkpt>
      <trkpt lat="43.64502" lon="6.64329">
        <ele>609.3</ele>
        <time>2023-11-26T08:56:05Z</time>
      </trkpt>
      <trkpt lat="43.64501" lon="6.64328">
        <ele>609.2</ele>
        <time>2023-11-26T08:56:06Z</time>
      </trkpt>
      <trkpt lat="43.645" lon="6.64327">
        <ele>609.2</ele>
        <time>2023-11-26T08:56:07Z</time>
      </trkpt>
      <trkpt lat="43.64499" lon="6.64326">
        <ele>609.2</ele>
        <time>2023-11-26T08:56:08Z</time>
      </trkpt>
      <trkpt lat="43.64499" lon="6.64325">
        <ele>609.2</ele>
        <time>2023-11-26T08:56:09Z</time>
      </trkpt>
      <trkpt lat="43.64498" lon="6.64323">
        <ele>609.2</ele>
        <time>2023-11-26T08:56:10Z</time>
      </trkpt>
      <trkpt lat="43.64497" lon="6.64322">
        <ele>609.3</ele>
        <time>2023-11-26T08:56:11Z</time>
      </trkpt>
      <trkpt lat="43.64496" lon="6.64321">
        <ele>609.3</ele>
        <time>2023-11-26T08:56:12Z</time>
      </trkpt>
      <trkpt lat="43.64495" lon="6.6432">
        <ele>609.5</ele>
        <time>2023-11-26T08:56:13Z</time>
      </trkpt>
      <trkpt lat="43.64494" lon="6.64318">
        <ele>609.6</ele>
        <time>2023-11-26T08:56:14Z</time>
      </trkpt>
      <trkpt lat="43.64493" lon="6.64317">
        <ele>609.8</ele>
        <time>2023-11-26T08:56:15Z</time>
      </trkpt>
      <trkpt lat="43.64492" lon="6.64316">
        <ele>609.9</ele>
        <time>2023-11-26T08:56:16Z</time>
      </trkpt>
      <trkpt lat="43.64491" lon="6.64314">
        <ele>610.1</ele>
        <time>2023-11-26T08:56:17Z</time>
      </trkpt>
      <trkpt lat="43.64491" lon="6.64313">
        <ele>610.2</ele>
        <time>2023-11-26T08:56:18Z</time>
      </trkpt>
      <trkpt lat="43.64491" lon="6.64312">
        <ele>610.2</ele>
        <time>2023-11-26T08:56:19Z</time>
      </trkpt>
      <trkpt lat="43.6449" lon="6.6431">
        <ele>610.3</ele>
        <time>2023-11-26T08:56:20Z</time>
      </trkpt>
      <trkpt lat="43.64489" lon="6.64309">
        <ele>610.4</ele>
        <time>2023-11-26T08:56:21Z</time>
      </trkpt>
      <trkpt lat="43.64488" lon="6.64308">
        <ele>610.5</ele>
        <time>2023-11-26T08:56:22Z</time>
      </trkpt>
      <trkpt lat="43.64487" lon="6.64306">
        <ele>610.6</ele>
        <time>2023-11-26T08:56:23Z</time>
      </trkpt>
      <trkpt lat="43.64487" lon="6.64305">
        <ele>610.7</ele>
        <time>2023-11-26T08:56:24Z</time>
      </trkpt>
      <trkpt lat="43.64487" lon="6.64303">
        <ele>610.8</ele>
        <time>2023-11-26T08:56:25Z</time>
      </trkpt>
      <trkpt lat="43.64486" lon="6.64301">
        <ele>610.9</ele>
        <time>2023-11-26T08:56:26Z</time>
      </trkpt>
      <trkpt lat="43.64485" lon="6.643">
        <ele>610.9</ele>
        <time>2023-11-26T08:56:27Z</time>
      </trkpt>
      <trkpt lat="43.64484" lon="6.64298">
        <ele>611</ele>
        <time>2023-11-26T08:56:28Z</time>
      </trkpt>
      <trkpt lat="43.64483" lon="6.64297">
        <ele>611.1</ele>
        <time>2023-11-26T08:56:29Z</time>
      </trkpt>
      <trkpt lat="43.64483" lon="6.64296">
        <ele>611.2</ele>
        <time>2023-11-26T08:56:30Z</time>
      </trkpt>
      <trkpt lat="43.64482" lon="6.64294">
        <ele>611.3</ele>
        <time>2023-11-26T08:56:31Z</time>
      </trkpt>
      <trkpt lat="43.64481" lon="6.64293">
        <ele>611.4</ele>
        <time>2023-11-26T08:56:32Z</time>
      </trkpt>
      <trkpt lat="43.64481" lon="6.64292">
        <ele>611.6</ele>
        <time>2023-11-26T08:56:33Z</time>
      </trkpt>
      <trkpt lat="43.6448" lon="6.64291">
        <ele>611.8</ele>
        <time>2023-11-26T08:56:34Z</time>
      </trkpt>
      <trkpt lat="43.64479" lon="6.64289">
        <ele>611.9</ele>
        <time>2023-11-26T08:56:35Z</time>
      </trkpt>
      <trkpt lat="43.64478" lon="6.64289">
        <ele>612</ele>
        <time>2023-11-26T08:56:36Z</time>
      </trkpt>
      <trkpt lat="43.64477" lon="6.64288">
        <ele>612.1</ele>
        <time>2023-11-26T08:56:37Z</time>
      </trkpt>
      <trkpt lat="43.64476" lon="6.64287">
        <ele>612.1</ele>
        <time>2023-11-26T08:56:38Z</time>
      </trkpt>
      <trkpt lat="43.64475" lon="6.64286">
        <ele>612.2</ele>
        <time>2023-11-26T08:56:39Z</time>
      </trkpt>
      <trkpt lat="43.64474" lon="6.64285">
        <ele>612.4</ele>
        <time>2023-11-26T08:56:40Z</time>
      </trkpt>
      <trkpt lat="43.64473" lon="6.64284">
        <ele>612.5</ele>
        <time>2023-11-26T08:56:41Z</time>
      </trkpt>
      <trkpt lat="43.64472" lon="6.64283">
        <ele>612.6</ele>
        <time>2023-11-26T08:56:42Z</time>
      </trkpt>
      <trkpt lat="43.64471" lon="6.64282">
        <ele>612.8</ele>
        <time>2023-11-26T08:56:43Z</time>
      </trkpt>
      <trkpt lat="43.64471" lon="6.64281">
        <ele>612.9</ele>
        <time>2023-11-26T08:56:44Z</time>
      </trkpt>
      <trkpt lat="43.6447" lon="6.6428">
        <ele>613</ele>
        <time>2023-11-26T08:56:45Z</time>
      </trkpt>
      <trkpt lat="43.64469" lon="6.64278">
        <ele>613.1</ele>
        <time>2023-11-26T08:56:46Z</time>
      </trkpt>
      <trkpt lat="43.64468" lon="6.64277">
        <ele>613.2</ele>
        <time>2023-11-26T08:56:47Z</time>
      </trkpt>
      <trkpt lat="43.64467" lon="6.64276">
        <ele>613.2</ele>
        <time>2023-11-26T08:56:48Z</time>
      </trkpt>
      <trkpt lat="43.64466" lon="6.64276">
        <ele>613.4</ele>
        <time>2023-11-26T08:56:49Z</time>
      </trkpt>
      <trkpt lat="43.64465" lon="6.64275">
        <ele>613.5</ele>
        <time>2023-11-26T08:56:50Z</time>
      </trkpt>
      <trkpt lat="43.64464" lon="6.64274">
        <ele>613.6</ele>
        <time>2023-11-26T08:56:51Z</time>
      </trkpt>
      <trkpt lat="43.64464" lon="6.64272">
        <ele>613.6</ele>
        <time>2023-11-26T08:56:52Z</time>
      </trkpt>
      <trkpt lat="43.64463" lon="6.64272">
        <ele>613.7</ele>
        <time>2023-11-26T08:56:53Z</time>
      </trkpt>
      <trkpt lat="43.64462" lon="6.64271">
        <ele>613.8</ele>
        <time>2023-11-26T08:56:54Z</time>
      </trkpt>
      <trkpt lat="43.64461" lon="6.6427">
        <ele>613.9</ele>
        <time>2023-11-26T08:56:55Z</time>
      </trkpt>
      <trkpt lat="43.6446" lon="6.64268">
        <ele>613.9</ele>
        <time>2023-11-26T08:56:56Z</time>
      </trkpt>
      <trkpt lat="43.6446" lon="6.64266">
        <ele>614</ele>
        <time>2023-11-26T08:56:57Z</time>
      </trkpt>
      <trkpt lat="43.64459" lon="6.64264">
        <ele>614</ele>
        <time>2023-11-26T08:56:58Z</time>
      </trkpt>
      <trkpt lat="43.64458" lon="6.64263">
        <ele>614.1</ele>
        <time>2023-11-26T08:56:59Z</time>
      </trkpt>
      <trkpt lat="43.64457" lon="6.64261">
        <ele>614.2</ele>
        <time>2023-11-26T08:57:00Z</time>
      </trkpt>
      <trkpt lat="43.64455" lon="6.6426">
        <ele>614.2</ele>
        <time>2023-11-26T08:57:01Z</time>
      </trkpt>
      <trkpt lat="43.64454" lon="6.64259">
        <ele>614.4</ele>
        <time>2023-11-26T08:57:02Z</time>
      </trkpt>
      <trkpt lat="43.64454" lon="6.64258">
        <ele>614.6</ele>
        <time>2023-11-26T08:57:03Z</time>
      </trkpt>
      <trkpt lat="43.64453" lon="6.64256">
        <ele>614.6</ele>
        <time>2023-11-26T08:57:04Z</time>
      </trkpt>
      <trkpt lat="43.64452" lon="6.64255">
        <ele>614.9</ele>
        <time>2023-11-26T08:57:05Z</time>
      </trkpt>
      <trkpt lat="43.64452" lon="6.64253">
        <ele>615</ele>
        <time>2023-11-26T08:57:06Z</time>
      </trkpt>
      <trkpt lat="43.64451" lon="6.64252">
        <ele>615.1</ele>
        <time>2023-11-26T08:57:07Z</time>
      </trkpt>
      <trkpt lat="43.64451" lon="6.6425">
        <ele>615.1</ele>
        <time>2023-11-26T08:57:08Z</time>
      </trkpt>
      <trkpt lat="43.64451" lon="6.64248">
        <ele>615.2</ele>
        <time>2023-11-26T08:57:09Z</time>
      </trkpt>
      <trkpt lat="43.64451" lon="6.64247">
        <ele>615.2</ele>
        <time>2023-11-26T08:57:10Z</time>
      </trkpt>
      <trkpt lat="43.64451" lon="6.64245">
        <ele>615.2</ele>
        <time>2023-11-26T08:57:11Z</time>
      </trkpt>
      <trkpt lat="43.64451" lon="6.64244">
        <ele>615.2</ele>
        <time>2023-11-26T08:57:12Z</time>
      </trkpt>
      <trkpt lat="43.64451" lon="6.64242">
        <ele>615.2</ele>
        <time>2023-11-26T08:57:13Z</time>
      </trkpt>
      <trkpt lat="43.64451" lon="6.64241">
        <ele>615.2</ele>
        <time>2023-11-26T08:57:14Z</time>
      </trkpt>
      <trkpt lat="43.64451" lon="6.6424">
        <ele>615.2</ele>
        <time>2023-11-26T08:57:15Z</time>
      </trkpt>
      <trkpt lat="43.64451" lon="6.64239">
        <ele>615.2</ele>
        <time>2023-11-26T08:57:16Z</time>
      </trkpt>
      <trkpt lat="43.64451" lon="6.64237">
        <ele>615.3</ele>
        <time>2023-11-26T08:57:17Z</time>
      </trkpt>
      <trkpt lat="43.64451" lon="6.64236">
        <ele>615.4</ele>
        <time>2023-11-26T08:57:18Z</time>
      </trkpt>
      <trkpt lat="43.64452" lon="6.64234">
        <ele>615.4</ele>
        <time>2023-11-26T08:57:19Z</time>
      </trkpt>
      <trkpt lat="43.64451" lon="6.64233">
        <ele>615.4</ele>
        <time>2023-11-26T08:57:20Z</time>
      </trkpt>
      <trkpt lat="43.64451" lon="6.64232">
        <ele>615.5</ele>
        <time>2023-11-26T08:57:21Z</time>
      </trkpt>
      <trkpt lat="43.64451" lon="6.6423">
        <ele>615.5</ele>
        <time>2023-11-26T08:57:22Z</time>
      </trkpt>
      <trkpt lat="43.64451" lon="6.64229">
        <ele>615.5</ele>
        <time>2023-11-26T08:57:23Z</time>
      </trkpt>
      <trkpt lat="43.64451" lon="6.64227">
        <ele>615.5</ele>
        <time>2023-11-26T08:57:24Z</time>
      </trkpt>
      <trkpt lat="43.6445" lon="6.64225">
        <ele>615.5</ele>
        <time>2023-11-26T08:57:25Z</time>
      </trkpt>
      <trkpt lat="43.6445" lon="6.64224">
        <ele>615.7</ele>
        <time>2023-11-26T08:57:26Z</time>
      </trkpt>
      <trkpt lat="43.64449" lon="6.64222">
        <ele>615.7</ele>
        <time>2023-11-26T08:57:27Z</time>
      </trkpt>
      <trkpt lat="43.64449" lon="6.64221">
        <ele>615.8</ele>
        <time>2023-11-26T08:57:28Z</time>
      </trkpt>
      <trkpt lat="43.64449" lon="6.64219">
        <ele>615.9</ele>
        <time>2023-11-26T08:57:29Z</time>
      </trkpt>
      <trkpt lat="43.64449" lon="6.64217">
        <ele>615.9</ele>
        <time>2023-11-26T08:57:30Z</time>
      </trkpt>
      <trkpt lat="43.64449" lon="6.64216">
        <ele>616</ele>
        <time>2023-11-26T08:57:31Z</time>
      </trkpt>
      <trkpt lat="43.64449" lon="6.64214">
        <ele>616.2</ele>
        <time>2023-11-26T08:57:32Z</time>
      </trkpt>
      <trkpt lat="43.64449" lon="6.64213">
        <ele>616.2</ele>
        <time>2023-11-26T08:57:33Z</time>
      </trkpt>
      <trkpt lat="43.6445" lon="6.64212">
        <ele>616.3</ele>
        <time>2023-11-26T08:57:34Z</time>
      </trkpt>
      <trkpt lat="43.64451" lon="6.6421">
        <ele>616.5</ele>
        <time>2023-11-26T08:57:35Z</time>
      </trkpt>
      <trkpt lat="43.64451" lon="6.64209">
        <ele>616.7</ele>
        <time>2023-11-26T08:57:36Z</time>
      </trkpt>
      <trkpt lat="43.6445" lon="6.64207">
        <ele>616.9</ele>
        <time>2023-11-26T08:57:37Z</time>
      </trkpt>
      <trkpt lat="43.64451" lon="6.64206">
        <ele>617.1</ele>
        <time>2023-11-26T08:57:38Z</time>
      </trkpt>
      <trkpt lat="43.64451" lon="6.64204">
        <ele>617.1</ele>
        <time>2023-11-26T08:57:39Z</time>
      </trkpt>
      <trkpt lat="43.64452" lon="6.64203">
        <ele>617.2</ele>
        <time>2023-11-26T08:57:40Z</time>
      </trkpt>
      <trkpt lat="43.64451" lon="6.64202">
        <ele>617.3</ele>
        <time>2023-11-26T08:57:41Z</time>
      </trkpt>
      <trkpt lat="43.64452" lon="6.642">
        <ele>617.4</ele>
        <time>2023-11-26T08:57:42Z</time>
      </trkpt>
      <trkpt lat="43.64451" lon="6.64198">
        <ele>617.5</ele>
        <time>2023-11-26T08:57:43Z</time>
      </trkpt>
      <trkpt lat="43.64451" lon="6.64196">
        <ele>617.5</ele>
        <time>2023-11-26T08:57:44Z</time>
      </trkpt>
      <trkpt lat="43.64451" lon="6.64195">
        <ele>617.6</ele>
        <time>2023-11-26T08:57:45Z</time>
      </trkpt>
      <trkpt lat="43.64451" lon="6.64193">
        <ele>617.7</ele>
        <time>2023-11-26T08:57:46Z</time>
      </trkpt>
      <trkpt lat="43.64451" lon="6.64192">
        <ele>617.8</ele>
        <time>2023-11-26T08:57:47Z</time>
      </trkpt>
      <trkpt lat="43.64451" lon="6.6419">
        <ele>618</ele>
        <time>2023-11-26T08:57:48Z</time>
      </trkpt>
      <trkpt lat="43.64451" lon="6.64189">
        <ele>618.1</ele>
        <time>2023-11-26T08:57:49Z</time>
      </trkpt>
      <trkpt lat="43.64451" lon="6.64187">
        <ele>618.2</ele>
        <time>2023-11-26T08:57:50Z</time>
      </trkpt>
      <trkpt lat="43.64451" lon="6.64186">
        <ele>618.2</ele>
        <time>2023-11-26T08:57:51Z</time>
      </trkpt>
      <trkpt lat="43.64451" lon="6.64184">
        <ele>618.3</ele>
        <time>2023-11-26T08:57:52Z</time>
      </trkpt>
      <trkpt lat="43.6445" lon="6.64182">
        <ele>618.4</ele>
        <time>2023-11-26T08:57:53Z</time>
      </trkpt>
      <trkpt lat="43.6445" lon="6.64181">
        <ele>618.5</ele>
        <time>2023-11-26T08:57:54Z</time>
      </trkpt>
      <trkpt lat="43.64449" lon="6.6418">
        <ele>618.7</ele>
        <time>2023-11-26T08:57:55Z</time>
      </trkpt>
      <trkpt lat="43.64449" lon="6.64177">
        <ele>618.7</ele>
        <time>2023-11-26T08:57:56Z</time>
      </trkpt>
      <trkpt lat="43.64449" lon="6.64176">
        <ele>618.8</ele>
        <time>2023-11-26T08:57:57Z</time>
      </trkpt>
      <trkpt lat="43.64448" lon="6.64174">
        <ele>618.9</ele>
        <time>2023-11-26T08:57:58Z</time>
      </trkpt>
      <trkpt lat="43.64448" lon="6.64173">
        <ele>619</ele>
        <time>2023-11-26T08:57:59Z</time>
      </trkpt>
      <trkpt lat="43.64448" lon="6.64171">
        <ele>619.1</ele>
        <time>2023-11-26T08:58:00Z</time>
      </trkpt>
      <trkpt lat="43.64448" lon="6.64169">
        <ele>619.2</ele>
        <time>2023-11-26T08:58:01Z</time>
      </trkpt>
      <trkpt lat="43.64448" lon="6.64167">
        <ele>619.2</ele>
        <time>2023-11-26T08:58:02Z</time>
      </trkpt>
      <trkpt lat="43.64448" lon="6.64165">
        <ele>619.3</ele>
        <time>2023-11-26T08:58:03Z</time>
      </trkpt>
      <trkpt lat="43.64448" lon="6.64164">
        <ele>619.4</ele>
        <time>2023-11-26T08:58:04Z</time>
      </trkpt>
      <trkpt lat="43.64448" lon="6.64162">
        <ele>619.5</ele>
        <time>2023-11-26T08:58:05Z</time>
      </trkpt>
      <trkpt lat="43.64447" lon="6.64161">
        <ele>619.5</ele>
        <time>2023-11-26T08:58:06Z</time>
      </trkpt>
      <trkpt lat="43.64447" lon="6.64159">
        <ele>619.8</ele>
        <time>2023-11-26T08:58:07Z</time>
      </trkpt>
      <trkpt lat="43.64447" lon="6.64157">
        <ele>619.9</ele>
        <time>2023-11-26T08:58:08Z</time>
      </trkpt>
      <trkpt lat="43.64446" lon="6.64156">
        <ele>620</ele>
        <time>2023-11-26T08:58:09Z</time>
      </trkpt>
      <trkpt lat="43.64446" lon="6.64154">
        <ele>620.1</ele>
        <time>2023-11-26T08:58:10Z</time>
      </trkpt>
      <trkpt lat="43.64446" lon="6.64152">
        <ele>620.1</ele>
        <time>2023-11-26T08:58:11Z</time>
      </trkpt>
      <trkpt lat="43.64446" lon="6.6415">
        <ele>620.1</ele>
        <time>2023-11-26T08:58:12Z</time>
      </trkpt>
      <trkpt lat="43.64446" lon="6.64149">
        <ele>620.1</ele>
        <time>2023-11-26T08:58:13Z</time>
      </trkpt>
      <trkpt lat="43.64446" lon="6.64147">
        <ele>620.1</ele>
        <time>2023-11-26T08:58:14Z</time>
      </trkpt>
      <trkpt lat="43.64446" lon="6.64145">
        <ele>620.1</ele>
        <time>2023-11-26T08:58:15Z</time>
      </trkpt>
      <trkpt lat="43.64446" lon="6.64143">
        <ele>620.2</ele>
        <time>2023-11-26T08:58:16Z</time>
      </trkpt>
      <trkpt lat="43.64446" lon="6.64142">
        <ele>620.2</ele>
        <time>2023-11-26T08:58:17Z</time>
      </trkpt>
      <trkpt lat="43.64445" lon="6.6414">
        <ele>620.4</ele>
        <time>2023-11-26T08:58:18Z</time>
      </trkpt>
      <trkpt lat="43.64445" lon="6.64138">
        <ele>620.4</ele>
        <time>2023-11-26T08:58:19Z</time>
      </trkpt>
      <trkpt lat="43.64445" lon="6.64136">
        <ele>620.5</ele>
        <time>2023-11-26T08:58:20Z</time>
      </trkpt>
      <trkpt lat="43.64446" lon="6.64135">
        <ele>620.7</ele>
        <time>2023-11-26T08:58:21Z</time>
      </trkpt>
      <trkpt lat="43.64446" lon="6.64133">
        <ele>620.7</ele>
        <time>2023-11-26T08:58:22Z</time>
      </trkpt>
      <trkpt lat="43.64445" lon="6.64132">
        <ele>620.8</ele>
        <time>2023-11-26T08:58:23Z</time>
      </trkpt>
      <trkpt lat="43.64445" lon="6.6413">
        <ele>621</ele>
        <time>2023-11-26T08:58:24Z</time>
      </trkpt>
      <trkpt lat="43.64444" lon="6.64128">
        <ele>621.1</ele>
        <time>2023-11-26T08:58:25Z</time>
      </trkpt>
      <trkpt lat="43.64443" lon="6.64126">
        <ele>621.3</ele>
        <time>2023-11-26T08:58:26Z</time>
      </trkpt>
      <trkpt lat="43.64442" lon="6.64125">
        <ele>621.4</ele>
        <time>2023-11-26T08:58:27Z</time>
      </trkpt>
      <trkpt lat="43.64441" lon="6.64123">
        <ele>621.5</ele>
        <time>2023-11-26T08:58:28Z</time>
      </trkpt>
      <trkpt lat="43.6444" lon="6.64122">
        <ele>621.5</ele>
        <time>2023-11-26T08:58:29Z</time>
      </trkpt>
      <trkpt lat="43.6444" lon="6.6412">
        <ele>621.5</ele>
        <time>2023-11-26T08:58:30Z</time>
      </trkpt>
      <trkpt lat="43.64439" lon="6.6412">
        <ele>621.5</ele>
        <time>2023-11-26T08:58:31Z</time>
      </trkpt>
      <trkpt lat="43.64439" lon="6.64119">
        <ele>621.5</ele>
        <time>2023-11-26T08:58:32Z</time>
      </trkpt>
      <trkpt lat="43.64438" lon="6.64119">
        <ele>621.5</ele>
        <time>2023-11-26T08:58:33Z</time>
      </trkpt>
      <trkpt lat="43.64438" lon="6.64119">
        <ele>621.5</ele>
        <time>2023-11-26T08:58:34Z</time>
      </trkpt>
      <trkpt lat="43.64437" lon="6.64117">
        <ele>621.5</ele>
        <time>2023-11-26T08:58:35Z</time>
      </trkpt>
      <trkpt lat="43.64436" lon="6.64116">
        <ele>621.5</ele>
        <time>2023-11-26T08:58:36Z</time>
      </trkpt>
      <trkpt lat="43.64436" lon="6.64115">
        <ele>621.6</ele>
        <time>2023-11-26T08:58:37Z</time>
      </trkpt>
      <trkpt lat="43.64435" lon="6.64114">
        <ele>621.6</ele>
        <time>2023-11-26T08:58:38Z</time>
      </trkpt>
      <trkpt lat="43.64435" lon="6.64112">
        <ele>621.7</ele>
        <time>2023-11-26T08:58:39Z</time>
      </trkpt>
      <trkpt lat="43.64434" lon="6.64112">
        <ele>621.8</ele>
        <time>2023-11-26T08:58:40Z</time>
      </trkpt>
      <trkpt lat="43.64433" lon="6.64111">
        <ele>621.9</ele>
        <time>2023-11-26T08:58:41Z</time>
      </trkpt>
      <trkpt lat="43.64433" lon="6.6411">
        <ele>622</ele>
        <time>2023-11-26T08:58:42Z</time>
      </trkpt>
      <trkpt lat="43.64433" lon="6.64109">
        <ele>622</ele>
        <time>2023-11-26T08:58:43Z</time>
      </trkpt>
      <trkpt lat="43.64432" lon="6.64107">
        <ele>622.1</ele>
        <time>2023-11-26T08:58:44Z</time>
      </trkpt>
      <trkpt lat="43.64432" lon="6.64107">
        <ele>622</ele>
        <time>2023-11-26T08:58:45Z</time>
      </trkpt>
      <trkpt lat="43.64432" lon="6.64105">
        <ele>622</ele>
        <time>2023-11-26T08:58:46Z</time>
      </trkpt>
      <trkpt lat="43.64432" lon="6.64104">
        <ele>622</ele>
        <time>2023-11-26T08:58:47Z</time>
      </trkpt>
      <trkpt lat="43.64432" lon="6.64102">
        <ele>622.1</ele>
        <time>2023-11-26T08:58:48Z</time>
      </trkpt>
      <trkpt lat="43.64431" lon="6.64101">
        <ele>622.2</ele>
        <time>2023-11-26T08:58:49Z</time>
      </trkpt>
      <trkpt lat="43.64431" lon="6.641">
        <ele>622.2</ele>
        <time>2023-11-26T08:58:50Z</time>
      </trkpt>
      <trkpt lat="43.64429" lon="6.64101">
        <ele>622.2</ele>
        <time>2023-11-26T08:58:51Z</time>
      </trkpt>
      <trkpt lat="43.64429" lon="6.641">
        <ele>622.3</ele>
        <time>2023-11-26T08:58:52Z</time>
      </trkpt>
      <trkpt lat="43.64428" lon="6.64099">
        <ele>622.4</ele>
        <time>2023-11-26T08:58:53Z</time>
      </trkpt>
      <trkpt lat="43.64428" lon="6.64097">
        <ele>622.5</ele>
        <time>2023-11-26T08:58:54Z</time>
      </trkpt>
      <trkpt lat="43.64426" lon="6.64095">
        <ele>622.7</ele>
        <time>2023-11-26T08:58:55Z</time>
      </trkpt>
      <trkpt lat="43.64426" lon="6.64094">
        <ele>622.8</ele>
        <time>2023-11-26T08:58:56Z</time>
      </trkpt>
      <trkpt lat="43.64426" lon="6.64092">
        <ele>623</ele>
        <time>2023-11-26T08:58:57Z</time>
      </trkpt>
      <trkpt lat="43.64425" lon="6.64091">
        <ele>623.1</ele>
        <time>2023-11-26T08:58:58Z</time>
      </trkpt>
      <trkpt lat="43.64424" lon="6.6409">
        <ele>623.3</ele>
        <time>2023-11-26T08:58:59Z</time>
      </trkpt>
      <trkpt lat="43.64423" lon="6.64089">
        <ele>623.4</ele>
        <time>2023-11-26T08:59:00Z</time>
      </trkpt>
      <trkpt lat="43.64422" lon="6.64087">
        <ele>623.6</ele>
        <time>2023-11-26T08:59:01Z</time>
      </trkpt>
      <trkpt lat="43.64421" lon="6.64087">
        <ele>623.9</ele>
        <time>2023-11-26T08:59:02Z</time>
      </trkpt>
      <trkpt lat="43.6442" lon="6.64086">
        <ele>624</ele>
        <time>2023-11-26T08:59:03Z</time>
      </trkpt>
      <trkpt lat="43.64419" lon="6.64085">
        <ele>624.1</ele>
        <time>2023-11-26T08:59:04Z</time>
      </trkpt>
      <trkpt lat="43.64418" lon="6.64084">
        <ele>624.3</ele>
        <time>2023-11-26T08:59:05Z</time>
      </trkpt>
      <trkpt lat="43.64418" lon="6.64082">
        <ele>624.4</ele>
        <time>2023-11-26T08:59:06Z</time>
      </trkpt>
      <trkpt lat="43.64416" lon="6.64082">
        <ele>624.5</ele>
        <time>2023-11-26T08:59:07Z</time>
      </trkpt>
      <trkpt lat="43.64415" lon="6.64081">
        <ele>624.6</ele>
        <time>2023-11-26T08:59:08Z</time>
      </trkpt>
      <trkpt lat="43.64415" lon="6.6408">
        <ele>624.7</ele>
        <time>2023-11-26T08:59:09Z</time>
      </trkpt>
      <trkpt lat="43.64414" lon="6.64079">
        <ele>624.8</ele>
        <time>2023-11-26T08:59:10Z</time>
      </trkpt>
      <trkpt lat="43.64413" lon="6.64078">
        <ele>624.9</ele>
        <time>2023-11-26T08:59:11Z</time>
      </trkpt>
      <trkpt lat="43.64413" lon="6.64077">
        <ele>625</ele>
        <time>2023-11-26T08:59:12Z</time>
      </trkpt>
      <trkpt lat="43.64413" lon="6.64075">
        <ele>625.1</ele>
        <time>2023-11-26T08:59:13Z</time>
      </trkpt>
      <trkpt lat="43.64414" lon="6.64074">
        <ele>625.2</ele>
        <time>2023-11-26T08:59:14Z</time>
      </trkpt>
      <trkpt lat="43.64413" lon="6.64073">
        <ele>625.3</ele>
        <time>2023-11-26T08:59:15Z</time>
      </trkpt>
      <trkpt lat="43.64413" lon="6.64072">
        <ele>625.3</ele>
        <time>2023-11-26T08:59:16Z</time>
      </trkpt>
      <trkpt lat="43.64413" lon="6.64071">
        <ele>625.4</ele>
        <time>2023-11-26T08:59:17Z</time>
      </trkpt>
      <trkpt lat="43.64412" lon="6.6407">
        <ele>625.5</ele>
        <time>2023-11-26T08:59:18Z</time>
      </trkpt>
      <trkpt lat="43.64411" lon="6.64069">
        <ele>625.7</ele>
        <time>2023-11-26T08:59:19Z</time>
      </trkpt>
      <trkpt lat="43.64411" lon="6.64069">
        <ele>625.9</ele>
        <time>2023-11-26T08:59:20Z</time>
      </trkpt>
      <trkpt lat="43.6441" lon="6.64068">
        <ele>625.9</ele>
        <time>2023-11-26T08:59:21Z</time>
      </trkpt>
      <trkpt lat="43.64409" lon="6.64066">
        <ele>626</ele>
        <time>2023-11-26T08:59:22Z</time>
      </trkpt>
      <trkpt lat="43.64409" lon="6.64065">
        <ele>626.1</ele>
        <time>2023-11-26T08:59:23Z</time>
      </trkpt>
      <trkpt lat="43.64409" lon="6.64063">
        <ele>626.1</ele>
        <time>2023-11-26T08:59:24Z</time>
      </trkpt>
      <trkpt lat="43.6441" lon="6.64061">
        <ele>626.1</ele>
        <time>2023-11-26T08:59:25Z</time>
      </trkpt>
      <trkpt lat="43.6441" lon="6.64059">
        <ele>626.1</ele>
        <time>2023-11-26T08:59:26Z</time>
      </trkpt>
      <trkpt lat="43.6441" lon="6.64058">
        <ele>626.1</ele>
        <time>2023-11-26T08:59:27Z</time>
      </trkpt>
      <trkpt lat="43.6441" lon="6.64057">
        <ele>626.1</ele>
        <time>2023-11-26T08:59:28Z</time>
      </trkpt>
      <trkpt lat="43.64411" lon="6.64055">
        <ele>626.2</ele>
        <time>2023-11-26T08:59:29Z</time>
      </trkpt>
      <trkpt lat="43.64409" lon="6.64054">
        <ele>626.3</ele>
        <time>2023-11-26T08:59:30Z</time>
      </trkpt>
      <trkpt lat="43.64409" lon="6.64053">
        <ele>626.3</ele>
        <time>2023-11-26T08:59:31Z</time>
      </trkpt>
      <trkpt lat="43.64409" lon="6.64052">
        <ele>626.3</ele>
        <time>2023-11-26T08:59:32Z</time>
      </trkpt>
      <trkpt lat="43.64408" lon="6.64051">
        <ele>626.4</ele>
        <time>2023-11-26T08:59:33Z</time>
      </trkpt>
      <trkpt lat="43.64408" lon="6.64049">
        <ele>626.4</ele>
        <time>2023-11-26T08:59:34Z</time>
      </trkpt>
      <trkpt lat="43.64408" lon="6.64048">
        <ele>626.5</ele>
        <time>2023-11-26T08:59:35Z</time>
      </trkpt>
      <trkpt lat="43.64407" lon="6.64047">
        <ele>626.5</ele>
        <time>2023-11-26T08:59:36Z</time>
      </trkpt>
      <trkpt lat="43.64407" lon="6.64045">
        <ele>626.6</ele>
        <time>2023-11-26T08:59:37Z</time>
      </trkpt>
      <trkpt lat="43.64407" lon="6.64044">
        <ele>626.7</ele>
        <time>2023-11-26T08:59:38Z</time>
      </trkpt>
      <trkpt lat="43.64407" lon="6.64042">
        <ele>626.7</ele>
        <time>2023-11-26T08:59:39Z</time>
      </trkpt>
      <trkpt lat="43.64408" lon="6.6404">
        <ele>626.8</ele>
        <time>2023-11-26T08:59:40Z</time>
      </trkpt>
      <trkpt lat="43.64408" lon="6.64038">
        <ele>626.9</ele>
        <time>2023-11-26T08:59:41Z</time>
      </trkpt>
      <trkpt lat="43.64407" lon="6.64037">
        <ele>626.8</ele>
        <time>2023-11-26T08:59:42Z</time>
      </trkpt>
      <trkpt lat="43.64407" lon="6.64035">
        <ele>626.8</ele>
        <time>2023-11-26T08:59:43Z</time>
      </trkpt>
      <trkpt lat="43.64407" lon="6.64033">
        <ele>626.8</ele>
        <time>2023-11-26T08:59:44Z</time>
      </trkpt>
      <trkpt lat="43.64406" lon="6.64031">
        <ele>626.8</ele>
        <time>2023-11-26T08:59:45Z</time>
      </trkpt>
      <trkpt lat="43.64405" lon="6.64029">
        <ele>626.7</ele>
        <time>2023-11-26T08:59:46Z</time>
      </trkpt>
      <trkpt lat="43.64406" lon="6.64026">
        <ele>626.7</ele>
        <time>2023-11-26T08:59:47Z</time>
      </trkpt>
      <trkpt lat="43.64405" lon="6.64025">
        <ele>626.7</ele>
        <time>2023-11-26T08:59:48Z</time>
      </trkpt>
      <trkpt lat="43.64405" lon="6.64023">
        <ele>626.7</ele>
        <time>2023-11-26T08:59:49Z</time>
      </trkpt>
      <trkpt lat="43.64404" lon="6.64022">
        <ele>626.7</ele>
        <time>2023-11-26T08:59:50Z</time>
      </trkpt>
      <trkpt lat="43.64403" lon="6.6402">
        <ele>626.8</ele>
        <time>2023-11-26T08:59:51Z</time>
      </trkpt>
      <trkpt lat="43.64403" lon="6.64018">
        <ele>626.8</ele>
        <time>2023-11-26T08:59:52Z</time>
      </trkpt>
      <trkpt lat="43.64404" lon="6.64017">
        <ele>626.8</ele>
        <time>2023-11-26T08:59:53Z</time>
      </trkpt>
      <trkpt lat="43.64403" lon="6.64016">
        <ele>626.8</ele>
        <time>2023-11-26T08:59:54Z</time>
      </trkpt>
      <trkpt lat="43.64401" lon="6.64015">
        <ele>626.8</ele>
        <time>2023-11-26T08:59:55Z</time>
      </trkpt>
      <trkpt lat="43.644" lon="6.64014">
        <ele>626.8</ele>
        <time>2023-11-26T08:59:56Z</time>
      </trkpt>
      <trkpt lat="43.64399" lon="6.64013">
        <ele>626.9</ele>
        <time>2023-11-26T08:59:57Z</time>
      </trkpt>
      <trkpt lat="43.64398" lon="6.64012">
        <ele>626.9</ele>
        <time>2023-11-26T08:59:58Z</time>
      </trkpt>
      <trkpt lat="43.64397" lon="6.64011">
        <ele>626.9</ele>
        <time>2023-11-26T08:59:59Z</time>
      </trkpt>
      <trkpt lat="43.64397" lon="6.64009">
        <ele>626.9</ele>
        <time>2023-11-26T09:00:00Z</time>
      </trkpt>
      <trkpt lat="43.64396" lon="6.64008">
        <ele>626.7</ele>
        <time>2023-11-26T09:00:01Z</time>
      </trkpt>
      <trkpt lat="43.64395" lon="6.64007">
        <ele>626.6</ele>
        <time>2023-11-26T09:00:02Z</time>
      </trkpt>
      <trkpt lat="43.64394" lon="6.64005">
        <ele>626.5</ele>
        <time>2023-11-26T09:00:03Z</time>
      </trkpt>
      <trkpt lat="43.64393" lon="6.64003">
        <ele>626.5</ele>
        <time>2023-11-26T09:00:04Z</time>
      </trkpt>
      <trkpt lat="43.64391" lon="6.64002">
        <ele>626.4</ele>
        <time>2023-11-26T09:00:05Z</time>
      </trkpt>
      <trkpt lat="43.6439" lon="6.64001">
        <ele>626.3</ele>
        <time>2023-11-26T09:00:06Z</time>
      </trkpt>
      <trkpt lat="43.64389" lon="6.64">
        <ele>626.3</ele>
        <time>2023-11-26T09:00:07Z</time>
      </trkpt>
      <trkpt lat="43.64388" lon="6.63998">
        <ele>626.3</ele>
        <time>2023-11-26T09:00:08Z</time>
      </trkpt>
      <trkpt lat="43.64388" lon="6.63998">
        <ele>626.4</ele>
        <time>2023-11-26T09:00:09Z</time>
      </trkpt>
      <trkpt lat="43.64387" lon="6.63997">
        <ele>626.3</ele>
        <time>2023-11-26T09:00:10Z</time>
      </trkpt>
      <trkpt lat="43.64386" lon="6.63997">
        <ele>626.3</ele>
        <time>2023-11-26T09:00:11Z</time>
      </trkpt>
      <trkpt lat="43.64386" lon="6.63995">
        <ele>626.2</ele>
        <time>2023-11-26T09:00:12Z</time>
      </trkpt>
      <trkpt lat="43.64385" lon="6.63994">
        <ele>626.3</ele>
        <time>2023-11-26T09:00:13Z</time>
      </trkpt>
      <trkpt lat="43.64384" lon="6.63993">
        <ele>626.3</ele>
        <time>2023-11-26T09:00:14Z</time>
      </trkpt>
      <trkpt lat="43.64384" lon="6.6399">
        <ele>626.2</ele>
        <time>2023-11-26T09:00:15Z</time>
      </trkpt>
      <trkpt lat="43.64384" lon="6.6399">
        <ele>626.2</ele>
        <time>2023-11-26T09:00:16Z</time>
      </trkpt>
      <trkpt lat="43.64383" lon="6.63989">
        <ele>626.1</ele>
        <time>2023-11-26T09:00:17Z</time>
      </trkpt>
      <trkpt lat="43.64382" lon="6.63988">
        <ele>626.2</ele>
        <time>2023-11-26T09:00:18Z</time>
      </trkpt>
      <trkpt lat="43.64382" lon="6.63986">
        <ele>626.2</ele>
        <time>2023-11-26T09:00:19Z</time>
      </trkpt>
      <trkpt lat="43.64381" lon="6.63985">
        <ele>626.3</ele>
        <time>2023-11-26T09:00:20Z</time>
      </trkpt>
      <trkpt lat="43.6438" lon="6.63984">
        <ele>626.3</ele>
        <time>2023-11-26T09:00:21Z</time>
      </trkpt>
      <trkpt lat="43.64379" lon="6.63983">
        <ele>626.4</ele>
        <time>2023-11-26T09:00:22Z</time>
      </trkpt>
      <trkpt lat="43.64377" lon="6.63983">
        <ele>626.5</ele>
        <time>2023-11-26T09:00:23Z</time>
      </trkpt>
      <trkpt lat="43.64376" lon="6.63983">
        <ele>626.5</ele>
        <time>2023-11-26T09:00:24Z</time>
      </trkpt>
      <trkpt lat="43.64375" lon="6.63984">
        <ele>626.6</ele>
        <time>2023-11-26T09:00:25Z</time>
      </trkpt>
      <trkpt lat="43.64373" lon="6.63983">
        <ele>626.6</ele>
        <time>2023-11-26T09:00:26Z</time>
      </trkpt>
      <trkpt lat="43.64372" lon="6.63982">
        <ele>626.5</ele>
        <time>2023-11-26T09:00:27Z</time>
      </trkpt>
      <trkpt lat="43.64371" lon="6.63981">
        <ele>626.5</ele>
        <time>2023-11-26T09:00:28Z</time>
      </trkpt>
      <trkpt lat="43.6437" lon="6.6398">
        <ele>626.4</ele>
        <time>2023-11-26T09:00:29Z</time>
      </trkpt>
      <trkpt lat="43.64367" lon="6.63978">
        <ele>626.4</ele>
        <time>2023-11-26T09:00:30Z</time>
      </trkpt>
      <trkpt lat="43.64366" lon="6.63976">
        <ele>626.4</ele>
        <time>2023-11-26T09:00:31Z</time>
      </trkpt>
      <trkpt lat="43.64364" lon="6.63976">
        <ele>626.4</ele>
        <time>2023-11-26T09:00:32Z</time>
      </trkpt>
      <trkpt lat="43.64363" lon="6.63975">
        <ele>626.5</ele>
        <time>2023-11-26T09:00:33Z</time>
      </trkpt>
      <trkpt lat="43.64363" lon="6.63973">
        <ele>626.6</ele>
        <time>2023-11-26T09:00:34Z</time>
      </trkpt>
      <trkpt lat="43.64361" lon="6.63972">
        <ele>626.5</ele>
        <time>2023-11-26T09:00:35Z</time>
      </trkpt>
      <trkpt lat="43.6436" lon="6.63971">
        <ele>626.5</ele>
        <time>2023-11-26T09:00:36Z</time>
      </trkpt>
      <trkpt lat="43.64359" lon="6.6397">
        <ele>626.4</ele>
        <time>2023-11-26T09:00:37Z</time>
      </trkpt>
      <trkpt lat="43.64357" lon="6.63969">
        <ele>626.4</ele>
        <time>2023-11-26T09:00:38Z</time>
      </trkpt>
      <trkpt lat="43.64356" lon="6.63968">
        <ele>626.3</ele>
        <time>2023-11-26T09:00:39Z</time>
      </trkpt>
      <trkpt lat="43.64355" lon="6.63967">
        <ele>626.4</ele>
        <time>2023-11-26T09:00:40Z</time>
      </trkpt>
      <trkpt lat="43.64355" lon="6.63966">
        <ele>626.4</ele>
        <time>2023-11-26T09:00:41Z</time>
      </trkpt>
      <trkpt lat="43.64355" lon="6.63965">
        <ele>626.4</ele>
        <time>2023-11-26T09:00:42Z</time>
      </trkpt>
      <trkpt lat="43.64354" lon="6.63963">
        <ele>626.4</ele>
        <time>2023-11-26T09:00:43Z</time>
      </trkpt>
      <trkpt lat="43.64353" lon="6.63962">
        <ele>626.4</ele>
        <time>2023-11-26T09:00:44Z</time>
      </trkpt>
      <trkpt lat="43.64351" lon="6.63962">
        <ele>626.4</ele>
        <time>2023-11-26T09:00:45Z</time>
      </trkpt>
      <trkpt lat="43.6435" lon="6.63961">
        <ele>626.2</ele>
        <time>2023-11-26T09:00:46Z</time>
      </trkpt>
      <trkpt lat="43.64349" lon="6.63959">
        <ele>626.2</ele>
        <time>2023-11-26T09:00:47Z</time>
      </trkpt>
      <trkpt lat="43.64349" lon="6.63958">
        <ele>626.1</ele>
        <time>2023-11-26T09:00:48Z</time>
      </trkpt>
      <trkpt lat="43.64348" lon="6.63957">
        <ele>626</ele>
        <time>2023-11-26T09:00:49Z</time>
      </trkpt>
      <trkpt lat="43.64347" lon="6.63956">
        <ele>625.9</ele>
        <time>2023-11-26T09:00:50Z</time>
      </trkpt>
      <trkpt lat="43.64345" lon="6.63954">
        <ele>625.9</ele>
        <time>2023-11-26T09:00:51Z</time>
      </trkpt>
      <trkpt lat="43.64344" lon="6.63953">
        <ele>625.8</ele>
        <time>2023-11-26T09:00:52Z</time>
      </trkpt>
      <trkpt lat="43.64344" lon="6.63951">
        <ele>625.7</ele>
        <time>2023-11-26T09:00:53Z</time>
      </trkpt>
      <trkpt lat="43.64343" lon="6.6395">
        <ele>625.6</ele>
        <time>2023-11-26T09:00:54Z</time>
      </trkpt>
      <trkpt lat="43.64342" lon="6.63949">
        <ele>625.5</ele>
        <time>2023-11-26T09:00:55Z</time>
      </trkpt>
      <trkpt lat="43.64342" lon="6.63948">
        <ele>625.5</ele>
        <time>2023-11-26T09:00:56Z</time>
      </trkpt>
      <trkpt lat="43.64341" lon="6.63947">
        <ele>625.4</ele>
        <time>2023-11-26T09:00:57Z</time>
      </trkpt>
      <trkpt lat="43.6434" lon="6.63946">
        <ele>625.4</ele>
        <time>2023-11-26T09:00:58Z</time>
      </trkpt>
      <trkpt lat="43.64339" lon="6.63945">
        <ele>625.5</ele>
        <time>2023-11-26T09:00:59Z</time>
      </trkpt>
      <trkpt lat="43.64338" lon="6.63945">
        <ele>625.5</ele>
        <time>2023-11-26T09:01:00Z</time>
      </trkpt>
      <trkpt lat="43.64336" lon="6.63944">
        <ele>625.5</ele>
        <time>2023-11-26T09:01:01Z</time>
      </trkpt>
      <trkpt lat="43.64335" lon="6.63943">
        <ele>625.5</ele>
        <time>2023-11-26T09:01:02Z</time>
      </trkpt>
      <trkpt lat="43.64335" lon="6.63941">
        <ele>625.5</ele>
        <time>2023-11-26T09:01:03Z</time>
      </trkpt>
      <trkpt lat="43.64334" lon="6.6394">
        <ele>625.5</ele>
        <time>2023-11-26T09:01:04Z</time>
      </trkpt>
      <trkpt lat="43.64333" lon="6.63939">
        <ele>625.5</ele>
        <time>2023-11-26T09:01:05Z</time>
      </trkpt>
      <trkpt lat="43.64332" lon="6.63938">
        <ele>625.6</ele>
        <time>2023-11-26T09:01:06Z</time>
      </trkpt>
      <trkpt lat="43.64332" lon="6.63937">
        <ele>625.6</ele>
        <time>2023-11-26T09:01:07Z</time>
      </trkpt>
      <trkpt lat="43.6433" lon="6.63935">
        <ele>625.6</ele>
        <time>2023-11-26T09:01:08Z</time>
      </trkpt>
      <trkpt lat="43.64329" lon="6.63934">
        <ele>625.7</ele>
        <time>2023-11-26T09:01:09Z</time>
      </trkpt>
      <trkpt lat="43.64327" lon="6.63933">
        <ele>625.8</ele>
        <time>2023-11-26T09:01:10Z</time>
      </trkpt>
      <trkpt lat="43.64327" lon="6.63932">
        <ele>626</ele>
        <time>2023-11-26T09:01:11Z</time>
      </trkpt>
      <trkpt lat="43.64326" lon="6.63931">
        <ele>626.1</ele>
        <time>2023-11-26T09:01:12Z</time>
      </trkpt>
      <trkpt lat="43.64325" lon="6.63929">
        <ele>626.2</ele>
        <time>2023-11-26T09:01:13Z</time>
      </trkpt>
      <trkpt lat="43.64324" lon="6.63928">
        <ele>626.3</ele>
        <time>2023-11-26T09:01:14Z</time>
      </trkpt>
      <trkpt lat="43.64323" lon="6.63927">
        <ele>626.4</ele>
        <time>2023-11-26T09:01:15Z</time>
      </trkpt>
      <trkpt lat="43.64323" lon="6.63926">
        <ele>626.6</ele>
        <time>2023-11-26T09:01:16Z</time>
      </trkpt>
      <trkpt lat="43.64322" lon="6.63924">
        <ele>626.7</ele>
        <time>2023-11-26T09:01:17Z</time>
      </trkpt>
      <trkpt lat="43.64322" lon="6.63921">
        <ele>626.8</ele>
        <time>2023-11-26T09:01:18Z</time>
      </trkpt>
      <trkpt lat="43.64321" lon="6.63921">
        <ele>626.7</ele>
        <time>2023-11-26T09:01:19Z</time>
      </trkpt>
      <trkpt lat="43.6432" lon="6.6392">
        <ele>626.8</ele>
        <time>2023-11-26T09:01:20Z</time>
      </trkpt>
      <trkpt lat="43.64319" lon="6.63917">
        <ele>626.8</ele>
        <time>2023-11-26T09:01:21Z</time>
      </trkpt>
      <trkpt lat="43.64318" lon="6.63915">
        <ele>626.8</ele>
        <time>2023-11-26T09:01:22Z</time>
      </trkpt>
      <trkpt lat="43.64318" lon="6.63914">
        <ele>626.7</ele>
        <time>2023-11-26T09:01:23Z</time>
      </trkpt>
      <trkpt lat="43.64317" lon="6.63913">
        <ele>626.8</ele>
        <time>2023-11-26T09:01:24Z</time>
      </trkpt>
      <trkpt lat="43.64316" lon="6.63912">
        <ele>626.8</ele>
        <time>2023-11-26T09:01:25Z</time>
      </trkpt>
      <trkpt lat="43.64316" lon="6.6391">
        <ele>626.8</ele>
        <time>2023-11-26T09:01:26Z</time>
      </trkpt>
      <trkpt lat="43.64316" lon="6.63909">
        <ele>626.7</ele>
        <time>2023-11-26T09:01:27Z</time>
      </trkpt>
      <trkpt lat="43.64315" lon="6.63908">
        <ele>626.6</ele>
        <time>2023-11-26T09:01:28Z</time>
      </trkpt>
      <trkpt lat="43.64315" lon="6.63907">
        <ele>626.7</ele>
        <time>2023-11-26T09:01:29Z</time>
      </trkpt>
      <trkpt lat="43.64314" lon="6.63906">
        <ele>626.7</ele>
        <time>2023-11-26T09:01:30Z</time>
      </trkpt>
      <trkpt lat="43.64313" lon="6.63904">
        <ele>626.6</ele>
        <time>2023-11-26T09:01:31Z</time>
      </trkpt>
      <trkpt lat="43.64313" lon="6.63903">
        <ele>626.5</ele>
        <time>2023-11-26T09:01:32Z</time>
      </trkpt>
      <trkpt lat="43.64312" lon="6.63901">
        <ele>626.3</ele>
        <time>2023-11-26T09:01:33Z</time>
      </trkpt>
      <trkpt lat="43.64312" lon="6.639">
        <ele>626.2</ele>
        <time>2023-11-26T09:01:34Z</time>
      </trkpt>
      <trkpt lat="43.64311" lon="6.63899">
        <ele>626.2</ele>
        <time>2023-11-26T09:01:35Z</time>
      </trkpt>
      <trkpt lat="43.64311" lon="6.63896">
        <ele>626.2</ele>
        <time>2023-11-26T09:01:36Z</time>
      </trkpt>
      <trkpt lat="43.64311" lon="6.63895">
        <ele>626.2</ele>
        <time>2023-11-26T09:01:37Z</time>
      </trkpt>
      <trkpt lat="43.6431" lon="6.63894">
        <ele>626.1</ele>
        <time>2023-11-26T09:01:38Z</time>
      </trkpt>
      <trkpt lat="43.6431" lon="6.63892">
        <ele>626</ele>
        <time>2023-11-26T09:01:39Z</time>
      </trkpt>
      <trkpt lat="43.64309" lon="6.63891">
        <ele>625.9</ele>
        <time>2023-11-26T09:01:40Z</time>
      </trkpt>
      <trkpt lat="43.64309" lon="6.63889">
        <ele>625.8</ele>
        <time>2023-11-26T09:01:41Z</time>
      </trkpt>
      <trkpt lat="43.64309" lon="6.63887">
        <ele>625.7</ele>
        <time>2023-11-26T09:01:42Z</time>
      </trkpt>
      <trkpt lat="43.64308" lon="6.63886">
        <ele>625.7</ele>
        <time>2023-11-26T09:01:43Z</time>
      </trkpt>
      <trkpt lat="43.64308" lon="6.63885">
        <ele>625.7</ele>
        <time>2023-11-26T09:01:44Z</time>
      </trkpt>
      <trkpt lat="43.64308" lon="6.63883">
        <ele>625.7</ele>
        <time>2023-11-26T09:01:45Z</time>
      </trkpt>
      <trkpt lat="43.64307" lon="6.63881">
        <ele>625.6</ele>
        <time>2023-11-26T09:01:46Z</time>
      </trkpt>
      <trkpt lat="43.64307" lon="6.63879">
        <ele>625.7</ele>
        <time>2023-11-26T09:01:47Z</time>
      </trkpt>
      <trkpt lat="43.64307" lon="6.63877">
        <ele>625.8</ele>
        <time>2023-11-26T09:01:48Z</time>
      </trkpt>
      <trkpt lat="43.64307" lon="6.63876">
        <ele>625.8</ele>
        <time>2023-11-26T09:01:49Z</time>
      </trkpt>
      <trkpt lat="43.64307" lon="6.63874">
        <ele>625.8</ele>
        <time>2023-11-26T09:01:50Z</time>
      </trkpt>
      <trkpt lat="43.64306" lon="6.63872">
        <ele>625.9</ele>
        <time>2023-11-26T09:01:51Z</time>
      </trkpt>
      <trkpt lat="43.64305" lon="6.63871">
        <ele>625.9</ele>
        <time>2023-11-26T09:01:52Z</time>
      </trkpt>
      <trkpt lat="43.64305" lon="6.6387">
        <ele>625.8</ele>
        <time>2023-11-26T09:01:53Z</time>
      </trkpt>
      <trkpt lat="43.64305" lon="6.63869">
        <ele>625.7</ele>
        <time>2023-11-26T09:01:54Z</time>
      </trkpt>
      <trkpt lat="43.64304" lon="6.63868">
        <ele>625.7</ele>
        <time>2023-11-26T09:01:55Z</time>
      </trkpt>
      <trkpt lat="43.64303" lon="6.63867">
        <ele>625.7</ele>
        <time>2023-11-26T09:01:56Z</time>
      </trkpt>
      <trkpt lat="43.64302" lon="6.63865">
        <ele>625.6</ele>
        <time>2023-11-26T09:01:57Z</time>
      </trkpt>
      <trkpt lat="43.64301" lon="6.63865">
        <ele>625.5</ele>
        <time>2023-11-26T09:01:58Z</time>
      </trkpt>
      <trkpt lat="43.643" lon="6.63863">
        <ele>625.4</ele>
        <time>2023-11-26T09:01:59Z</time>
      </trkpt>
      <trkpt lat="43.64299" lon="6.63862">
        <ele>625.3</ele>
        <time>2023-11-26T09:02:00Z</time>
      </trkpt>
      <trkpt lat="43.64299" lon="6.6386">
        <ele>625.3</ele>
        <time>2023-11-26T09:02:01Z</time>
      </trkpt>
      <trkpt lat="43.64298" lon="6.63859">
        <ele>625.3</ele>
        <time>2023-11-26T09:02:02Z</time>
      </trkpt>
      <trkpt lat="43.64297" lon="6.63858">
        <ele>625.5</ele>
        <time>2023-11-26T09:02:03Z</time>
      </trkpt>
      <trkpt lat="43.64296" lon="6.63857">
        <ele>625.5</ele>
        <time>2023-11-26T09:02:04Z</time>
      </trkpt>
      <trkpt lat="43.64296" lon="6.63855">
        <ele>625.5</ele>
        <time>2023-11-26T09:02:05Z</time>
      </trkpt>
      <trkpt lat="43.64296" lon="6.63853">
        <ele>625.6</ele>
        <time>2023-11-26T09:02:06Z</time>
      </trkpt>
      <trkpt lat="43.64295" lon="6.63852">
        <ele>625.7</ele>
        <time>2023-11-26T09:02:07Z</time>
      </trkpt>
      <trkpt lat="43.64294" lon="6.6385">
        <ele>625.7</ele>
        <time>2023-11-26T09:02:08Z</time>
      </trkpt>
      <trkpt lat="43.64293" lon="6.63849">
        <ele>625.7</ele>
        <time>2023-11-26T09:02:09Z</time>
      </trkpt>
      <trkpt lat="43.64292" lon="6.63847">
        <ele>625.8</ele>
        <time>2023-11-26T09:02:10Z</time>
      </trkpt>
      <trkpt lat="43.64291" lon="6.63846">
        <ele>625.9</ele>
        <time>2023-11-26T09:02:11Z</time>
      </trkpt>
      <trkpt lat="43.64291" lon="6.63845">
        <ele>625.9</ele>
        <time>2023-11-26T09:02:12Z</time>
      </trkpt>
      <trkpt lat="43.6429" lon="6.63844">
        <ele>626</ele>
        <time>2023-11-26T09:02:13Z</time>
      </trkpt>
      <trkpt lat="43.6429" lon="6.63843">
        <ele>626.3</ele>
        <time>2023-11-26T09:02:14Z</time>
      </trkpt>
      <trkpt lat="43.64289" lon="6.63842">
        <ele>626.6</ele>
        <time>2023-11-26T09:02:15Z</time>
      </trkpt>
      <trkpt lat="43.64288" lon="6.63841">
        <ele>626.7</ele>
        <time>2023-11-26T09:02:16Z</time>
      </trkpt>
      <trkpt lat="43.64288" lon="6.6384">
        <ele>626.8</ele>
        <time>2023-11-26T09:02:17Z</time>
      </trkpt>
      <trkpt lat="43.64287" lon="6.63838">
        <ele>626.9</ele>
        <time>2023-11-26T09:02:18Z</time>
      </trkpt>
      <trkpt lat="43.64287" lon="6.63837">
        <ele>627</ele>
        <time>2023-11-26T09:02:19Z</time>
      </trkpt>
      <trkpt lat="43.64287" lon="6.63836">
        <ele>627</ele>
        <time>2023-11-26T09:02:20Z</time>
      </trkpt>
      <trkpt lat="43.64286" lon="6.63834">
        <ele>627.1</ele>
        <time>2023-11-26T09:02:21Z</time>
      </trkpt>
      <trkpt lat="43.64286" lon="6.63832">
        <ele>627.1</ele>
        <time>2023-11-26T09:02:22Z</time>
      </trkpt>
      <trkpt lat="43.64286" lon="6.63831">
        <ele>627.2</ele>
        <time>2023-11-26T09:02:23Z</time>
      </trkpt>
      <trkpt lat="43.64285" lon="6.6383">
        <ele>627.4</ele>
        <time>2023-11-26T09:02:24Z</time>
      </trkpt>
      <trkpt lat="43.64284" lon="6.63828">
        <ele>627.5</ele>
        <time>2023-11-26T09:02:25Z</time>
      </trkpt>
      <trkpt lat="43.64284" lon="6.63827">
        <ele>627.5</ele>
        <time>2023-11-26T09:02:26Z</time>
      </trkpt>
      <trkpt lat="43.64283" lon="6.63825">
        <ele>627.5</ele>
        <time>2023-11-26T09:02:27Z</time>
      </trkpt>
      <trkpt lat="43.64282" lon="6.63824">
        <ele>627.6</ele>
        <time>2023-11-26T09:02:28Z</time>
      </trkpt>
      <trkpt lat="43.64281" lon="6.63823">
        <ele>627.6</ele>
        <time>2023-11-26T09:02:29Z</time>
      </trkpt>
      <trkpt lat="43.64281" lon="6.63821">
        <ele>627.6</ele>
        <time>2023-11-26T09:02:30Z</time>
      </trkpt>
      <trkpt lat="43.6428" lon="6.6382">
        <ele>627.6</ele>
        <time>2023-11-26T09:02:31Z</time>
      </trkpt>
      <trkpt lat="43.64279" lon="6.63819">
        <ele>627.7</ele>
        <time>2023-11-26T09:02:32Z</time>
      </trkpt>
      <trkpt lat="43.64278" lon="6.63817">
        <ele>627.8</ele>
        <time>2023-11-26T09:02:33Z</time>
      </trkpt>
      <trkpt lat="43.64278" lon="6.63817">
        <ele>627.9</ele>
        <time>2023-11-26T09:02:34Z</time>
      </trkpt>
      <trkpt lat="43.64277" lon="6.63816">
        <ele>628</ele>
        <time>2023-11-26T09:02:35Z</time>
      </trkpt>
      <trkpt lat="43.64277" lon="6.63814">
        <ele>628.1</ele>
        <time>2023-11-26T09:02:36Z</time>
      </trkpt>
      <trkpt lat="43.64276" lon="6.63813">
        <ele>628.3</ele>
        <time>2023-11-26T09:02:37Z</time>
      </trkpt>
      <trkpt lat="43.64275" lon="6.63812">
        <ele>628.5</ele>
        <time>2023-11-26T09:02:38Z</time>
      </trkpt>
      <trkpt lat="43.64274" lon="6.63811">
        <ele>628.6</ele>
        <time>2023-11-26T09:02:39Z</time>
      </trkpt>
      <trkpt lat="43.64273" lon="6.6381">
        <ele>628.7</ele>
        <time>2023-11-26T09:02:40Z</time>
      </trkpt>
      <trkpt lat="43.64272" lon="6.63809">
        <ele>628.9</ele>
        <time>2023-11-26T09:02:41Z</time>
      </trkpt>
      <trkpt lat="43.64271" lon="6.63807">
        <ele>629.1</ele>
        <time>2023-11-26T09:02:42Z</time>
      </trkpt>
      <trkpt lat="43.64271" lon="6.63806">
        <ele>629.2</ele>
        <time>2023-11-26T09:02:43Z</time>
      </trkpt>
      <trkpt lat="43.6427" lon="6.63805">
        <ele>629.4</ele>
        <time>2023-11-26T09:02:44Z</time>
      </trkpt>
      <trkpt lat="43.64269" lon="6.63804">
        <ele>629.5</ele>
        <time>2023-11-26T09:02:45Z</time>
      </trkpt>
      <trkpt lat="43.64268" lon="6.63803">
        <ele>629.5</ele>
        <time>2023-11-26T09:02:46Z</time>
      </trkpt>
      <trkpt lat="43.64267" lon="6.63803">
        <ele>629.5</ele>
        <time>2023-11-26T09:02:47Z</time>
      </trkpt>
      <trkpt lat="43.64267" lon="6.63801">
        <ele>629.5</ele>
        <time>2023-11-26T09:02:48Z</time>
      </trkpt>
      <trkpt lat="43.64267" lon="6.638">
        <ele>629.5</ele>
        <time>2023-11-26T09:02:49Z</time>
      </trkpt>
      <trkpt lat="43.64266" lon="6.63799">
        <ele>629.5</ele>
        <time>2023-11-26T09:02:50Z</time>
      </trkpt>
      <trkpt lat="43.64265" lon="6.63797">
        <ele>629.5</ele>
        <time>2023-11-26T09:02:51Z</time>
      </trkpt>
      <trkpt lat="43.64265" lon="6.63796">
        <ele>629.6</ele>
        <time>2023-11-26T09:02:52Z</time>
      </trkpt>
      <trkpt lat="43.64265" lon="6.63794">
        <ele>629.7</ele>
        <time>2023-11-26T09:02:53Z</time>
      </trkpt>
      <trkpt lat="43.64264" lon="6.63792">
        <ele>629.8</ele>
        <time>2023-11-26T09:02:54Z</time>
      </trkpt>
      <trkpt lat="43.64263" lon="6.6379">
        <ele>629.8</ele>
        <time>2023-11-26T09:02:55Z</time>
      </trkpt>
      <trkpt lat="43.64262" lon="6.63789">
        <ele>629.9</ele>
        <time>2023-11-26T09:02:56Z</time>
      </trkpt>
      <trkpt lat="43.64261" lon="6.63787">
        <ele>630</ele>
        <time>2023-11-26T09:02:57Z</time>
      </trkpt>
      <trkpt lat="43.64261" lon="6.63786">
        <ele>630.1</ele>
        <time>2023-11-26T09:02:58Z</time>
      </trkpt>
      <trkpt lat="43.6426" lon="6.63785">
        <ele>630.2</ele>
        <time>2023-11-26T09:02:59Z</time>
      </trkpt>
      <trkpt lat="43.64259" lon="6.63783">
        <ele>630.3</ele>
        <time>2023-11-26T09:03:00Z</time>
      </trkpt>
      <trkpt lat="43.64258" lon="6.63782">
        <ele>630.3</ele>
        <time>2023-11-26T09:03:01Z</time>
      </trkpt>
      <trkpt lat="43.64257" lon="6.63781">
        <ele>630.3</ele>
        <time>2023-11-26T09:03:02Z</time>
      </trkpt>
      <trkpt lat="43.64256" lon="6.6378">
        <ele>630.3</ele>
        <time>2023-11-26T09:03:03Z</time>
      </trkpt>
      <trkpt lat="43.64256" lon="6.63778">
        <ele>630.4</ele>
        <time>2023-11-26T09:03:04Z</time>
      </trkpt>
      <trkpt lat="43.64255" lon="6.63776">
        <ele>630.4</ele>
        <time>2023-11-26T09:03:05Z</time>
      </trkpt>
      <trkpt lat="43.64254" lon="6.63775">
        <ele>630.4</ele>
        <time>2023-11-26T09:03:06Z</time>
      </trkpt>
      <trkpt lat="43.64253" lon="6.63774">
        <ele>630.4</ele>
        <time>2023-11-26T09:03:07Z</time>
      </trkpt>
      <trkpt lat="43.64253" lon="6.63773">
        <ele>630.4</ele>
        <time>2023-11-26T09:03:08Z</time>
      </trkpt>
      <trkpt lat="43.64252" lon="6.63772">
        <ele>630.3</ele>
        <time>2023-11-26T09:03:09Z</time>
      </trkpt>
      <trkpt lat="43.64251" lon="6.6377">
        <ele>630.3</ele>
        <time>2023-11-26T09:03:10Z</time>
      </trkpt>
      <trkpt lat="43.6425" lon="6.63769">
        <ele>630.2</ele>
        <time>2023-11-26T09:03:11Z</time>
      </trkpt>
      <trkpt lat="43.6425" lon="6.63767">
        <ele>630.1</ele>
        <time>2023-11-26T09:03:12Z</time>
      </trkpt>
      <trkpt lat="43.64249" lon="6.63765">
        <ele>630</ele>
        <time>2023-11-26T09:03:13Z</time>
      </trkpt>
      <trkpt lat="43.64248" lon="6.63763">
        <ele>630.1</ele>
        <time>2023-11-26T09:03:14Z</time>
      </trkpt>
      <trkpt lat="43.64248" lon="6.63762">
        <ele>630</ele>
        <time>2023-11-26T09:03:15Z</time>
      </trkpt>
      <trkpt lat="43.64247" lon="6.63761">
        <ele>629.9</ele>
        <time>2023-11-26T09:03:16Z</time>
      </trkpt>
      <trkpt lat="43.64246" lon="6.63759">
        <ele>629.9</ele>
        <time>2023-11-26T09:03:17Z</time>
      </trkpt>
      <trkpt lat="43.64245" lon="6.63758">
        <ele>629.8</ele>
        <time>2023-11-26T09:03:18Z</time>
      </trkpt>
      <trkpt lat="43.64245" lon="6.63756">
        <ele>629.9</ele>
        <time>2023-11-26T09:03:19Z</time>
      </trkpt>
      <trkpt lat="43.64244" lon="6.63754">
        <ele>629.8</ele>
        <time>2023-11-26T09:03:20Z</time>
      </trkpt>
      <trkpt lat="43.64243" lon="6.63753">
        <ele>629.7</ele>
        <time>2023-11-26T09:03:21Z</time>
      </trkpt>
      <trkpt lat="43.64243" lon="6.63751">
        <ele>629.6</ele>
        <time>2023-11-26T09:03:22Z</time>
      </trkpt>
      <trkpt lat="43.64242" lon="6.6375">
        <ele>629.5</ele>
        <time>2023-11-26T09:03:23Z</time>
      </trkpt>
      <trkpt lat="43.64242" lon="6.63748">
        <ele>629.4</ele>
        <time>2023-11-26T09:03:24Z</time>
      </trkpt>
      <trkpt lat="43.64241" lon="6.63747">
        <ele>629.4</ele>
        <time>2023-11-26T09:03:25Z</time>
      </trkpt>
      <trkpt lat="43.64241" lon="6.63745">
        <ele>629.2</ele>
        <time>2023-11-26T09:03:26Z</time>
      </trkpt>
      <trkpt lat="43.6424" lon="6.63744">
        <ele>629.2</ele>
        <time>2023-11-26T09:03:27Z</time>
      </trkpt>
      <trkpt lat="43.6424" lon="6.63742">
        <ele>629.1</ele>
        <time>2023-11-26T09:03:28Z</time>
      </trkpt>
      <trkpt lat="43.64239" lon="6.63741">
        <ele>629.1</ele>
        <time>2023-11-26T09:03:29Z</time>
      </trkpt>
      <trkpt lat="43.6424" lon="6.63739">
        <ele>629</ele>
        <time>2023-11-26T09:03:30Z</time>
      </trkpt>
      <trkpt lat="43.6424" lon="6.63737">
        <ele>629</ele>
        <time>2023-11-26T09:03:31Z</time>
      </trkpt>
      <trkpt lat="43.6424" lon="6.63736">
        <ele>629.1</ele>
        <time>2023-11-26T09:03:32Z</time>
      </trkpt>
      <trkpt lat="43.64239" lon="6.63735">
        <ele>629.2</ele>
        <time>2023-11-26T09:03:33Z</time>
      </trkpt>
      <trkpt lat="43.64239" lon="6.63733">
        <ele>629.3</ele>
        <time>2023-11-26T09:03:34Z</time>
      </trkpt>
      <trkpt lat="43.64239" lon="6.63732">
        <ele>629.3</ele>
        <time>2023-11-26T09:03:35Z</time>
      </trkpt>
      <trkpt lat="43.64238" lon="6.63731">
        <ele>629.3</ele>
        <time>2023-11-26T09:03:36Z</time>
      </trkpt>
      <trkpt lat="43.64237" lon="6.6373">
        <ele>629.2</ele>
        <time>2023-11-26T09:03:37Z</time>
      </trkpt>
      <trkpt lat="43.64237" lon="6.63728">
        <ele>629.2</ele>
        <time>2023-11-26T09:03:38Z</time>
      </trkpt>
      <trkpt lat="43.64236" lon="6.63727">
        <ele>629.1</ele>
        <time>2023-11-26T09:03:39Z</time>
      </trkpt>
      <trkpt lat="43.64236" lon="6.63725">
        <ele>629.2</ele>
        <time>2023-11-26T09:03:40Z</time>
      </trkpt>
      <trkpt lat="43.64235" lon="6.63723">
        <ele>629.2</ele>
        <time>2023-11-26T09:03:41Z</time>
      </trkpt>
      <trkpt lat="43.64235" lon="6.63722">
        <ele>629.3</ele>
        <time>2023-11-26T09:03:42Z</time>
      </trkpt>
      <trkpt lat="43.64234" lon="6.6372">
        <ele>629.2</ele>
        <time>2023-11-26T09:03:43Z</time>
      </trkpt>
      <trkpt lat="43.64234" lon="6.63718">
        <ele>629.2</ele>
        <time>2023-11-26T09:03:44Z</time>
      </trkpt>
      <trkpt lat="43.64234" lon="6.63717">
        <ele>629.1</ele>
        <time>2023-11-26T09:03:45Z</time>
      </trkpt>
      <trkpt lat="43.64233" lon="6.63716">
        <ele>629</ele>
        <time>2023-11-26T09:03:46Z</time>
      </trkpt>
      <trkpt lat="43.64233" lon="6.63714">
        <ele>629.1</ele>
        <time>2023-11-26T09:03:47Z</time>
      </trkpt>
      <trkpt lat="43.64232" lon="6.63713">
        <ele>629.2</ele>
        <time>2023-11-26T09:03:48Z</time>
      </trkpt>
      <trkpt lat="43.64232" lon="6.63711">
        <ele>629.3</ele>
        <time>2023-11-26T09:03:49Z</time>
      </trkpt>
      <trkpt lat="43.64231" lon="6.6371">
        <ele>629.3</ele>
        <time>2023-11-26T09:03:50Z</time>
      </trkpt>
      <trkpt lat="43.6423" lon="6.63709">
        <ele>629.3</ele>
        <time>2023-11-26T09:03:51Z</time>
      </trkpt>
      <trkpt lat="43.6423" lon="6.63707">
        <ele>629.3</ele>
        <time>2023-11-26T09:03:52Z</time>
      </trkpt>
      <trkpt lat="43.6423" lon="6.63706">
        <ele>629.3</ele>
        <time>2023-11-26T09:03:53Z</time>
      </trkpt>
      <trkpt lat="43.64229" lon="6.63704">
        <ele>629.2</ele>
        <time>2023-11-26T09:03:54Z</time>
      </trkpt>
      <trkpt lat="43.64228" lon="6.63703">
        <ele>629.2</ele>
        <time>2023-11-26T09:03:55Z</time>
      </trkpt>
      <trkpt lat="43.64228" lon="6.637">
        <ele>629.3</ele>
        <time>2023-11-26T09:03:56Z</time>
      </trkpt>
      <trkpt lat="43.64227" lon="6.63698">
        <ele>629.3</ele>
        <time>2023-11-26T09:03:57Z</time>
      </trkpt>
      <trkpt lat="43.64227" lon="6.63696">
        <ele>629.2</ele>
        <time>2023-11-26T09:03:58Z</time>
      </trkpt>
      <trkpt lat="43.64226" lon="6.63695">
        <ele>629.3</ele>
        <time>2023-11-26T09:03:59Z</time>
      </trkpt>
      <trkpt lat="43.64225" lon="6.63694">
        <ele>629.1</ele>
        <time>2023-11-26T09:04:00Z</time>
      </trkpt>
      <trkpt lat="43.64225" lon="6.63692">
        <ele>629.1</ele>
        <time>2023-11-26T09:04:01Z</time>
      </trkpt>
      <trkpt lat="43.64224" lon="6.63691">
        <ele>629</ele>
        <time>2023-11-26T09:04:02Z</time>
      </trkpt>
      <trkpt lat="43.64223" lon="6.6369">
        <ele>629.1</ele>
        <time>2023-11-26T09:04:03Z</time>
      </trkpt>
      <trkpt lat="43.64222" lon="6.63689">
        <ele>629.1</ele>
        <time>2023-11-26T09:04:04Z</time>
      </trkpt>
      <trkpt lat="43.64221" lon="6.63688">
        <ele>629.1</ele>
        <time>2023-11-26T09:04:05Z</time>
      </trkpt>
      <trkpt lat="43.64221" lon="6.63687">
        <ele>629</ele>
        <time>2023-11-26T09:04:06Z</time>
      </trkpt>
      <trkpt lat="43.6422" lon="6.63686">
        <ele>628.9</ele>
        <time>2023-11-26T09:04:07Z</time>
      </trkpt>
      <trkpt lat="43.6422" lon="6.63684">
        <ele>628.7</ele>
        <time>2023-11-26T09:04:08Z</time>
      </trkpt>
      <trkpt lat="43.6422" lon="6.63683">
        <ele>628.5</ele>
        <time>2023-11-26T09:04:09Z</time>
      </trkpt>
      <trkpt lat="43.64219" lon="6.63681">
        <ele>628.4</ele>
        <time>2023-11-26T09:04:10Z</time>
      </trkpt>
      <trkpt lat="43.64219" lon="6.63678">
        <ele>628.3</ele>
        <time>2023-11-26T09:04:11Z</time>
      </trkpt>
      <trkpt lat="43.64219" lon="6.63677">
        <ele>628.2</ele>
        <time>2023-11-26T09:04:12Z</time>
      </trkpt>
      <trkpt lat="43.64218" lon="6.63675">
        <ele>628</ele>
        <time>2023-11-26T09:04:13Z</time>
      </trkpt>
      <trkpt lat="43.64218" lon="6.63674">
        <ele>627.9</ele>
        <time>2023-11-26T09:04:14Z</time>
      </trkpt>
      <trkpt lat="43.64217" lon="6.63673">
        <ele>627.8</ele>
        <time>2023-11-26T09:04:15Z</time>
      </trkpt>
      <trkpt lat="43.64215" lon="6.63673">
        <ele>627.7</ele>
        <time>2023-11-26T09:04:16Z</time>
      </trkpt>
      <trkpt lat="43.64215" lon="6.63672">
        <ele>627.7</ele>
        <time>2023-11-26T09:04:17Z</time>
      </trkpt>
      <trkpt lat="43.64215" lon="6.63671">
        <ele>627.6</ele>
        <time>2023-11-26T09:04:18Z</time>
      </trkpt>
      <trkpt lat="43.64214" lon="6.6367">
        <ele>627.6</ele>
        <time>2023-11-26T09:04:19Z</time>
      </trkpt>
      <trkpt lat="43.64213" lon="6.63669">
        <ele>627.5</ele>
        <time>2023-11-26T09:04:20Z</time>
      </trkpt>
      <trkpt lat="43.64212" lon="6.63667">
        <ele>627.5</ele>
        <time>2023-11-26T09:04:21Z</time>
      </trkpt>
      <trkpt lat="43.64211" lon="6.63667">
        <ele>627.5</ele>
        <time>2023-11-26T09:04:22Z</time>
      </trkpt>
      <trkpt lat="43.6421" lon="6.63665">
        <ele>627.5</ele>
        <time>2023-11-26T09:04:23Z</time>
      </trkpt>
      <trkpt lat="43.6421" lon="6.63664">
        <ele>627.4</ele>
        <time>2023-11-26T09:04:24Z</time>
      </trkpt>
      <trkpt lat="43.6421" lon="6.63663">
        <ele>627.5</ele>
        <time>2023-11-26T09:04:25Z</time>
      </trkpt>
      <trkpt lat="43.6421" lon="6.63662">
        <ele>627.5</ele>
        <time>2023-11-26T09:04:26Z</time>
      </trkpt>
      <trkpt lat="43.64209" lon="6.63659">
        <ele>627.4</ele>
        <time>2023-11-26T09:04:27Z</time>
      </trkpt>
      <trkpt lat="43.64208" lon="6.63658">
        <ele>627.3</ele>
        <time>2023-11-26T09:04:28Z</time>
      </trkpt>
      <trkpt lat="43.64207" lon="6.63656">
        <ele>627.3</ele>
        <time>2023-11-26T09:04:29Z</time>
      </trkpt>
      <trkpt lat="43.64206" lon="6.63656">
        <ele>627.2</ele>
        <time>2023-11-26T09:04:30Z</time>
      </trkpt>
      <trkpt lat="43.64205" lon="6.63655">
        <ele>627.2</ele>
        <time>2023-11-26T09:04:31Z</time>
      </trkpt>
      <trkpt lat="43.64204" lon="6.63654">
        <ele>627.1</ele>
        <time>2023-11-26T09:04:32Z</time>
      </trkpt>
      <trkpt lat="43.64202" lon="6.63654">
        <ele>627.1</ele>
        <time>2023-11-26T09:04:33Z</time>
      </trkpt>
      <trkpt lat="43.642" lon="6.63655">
        <ele>627.1</ele>
        <time>2023-11-26T09:04:34Z</time>
      </trkpt>
      <trkpt lat="43.64198" lon="6.63655">
        <ele>627.1</ele>
        <time>2023-11-26T09:04:35Z</time>
      </trkpt>
      <trkpt lat="43.64197" lon="6.63655">
        <ele>627</ele>
        <time>2023-11-26T09:04:36Z</time>
      </trkpt>
      <trkpt lat="43.64196" lon="6.63653">
        <ele>627.1</ele>
        <time>2023-11-26T09:04:37Z</time>
      </trkpt>
      <trkpt lat="43.64194" lon="6.63652">
        <ele>627.1</ele>
        <time>2023-11-26T09:04:38Z</time>
      </trkpt>
      <trkpt lat="43.64193" lon="6.63651">
        <ele>627.1</ele>
        <time>2023-11-26T09:04:39Z</time>
      </trkpt>
      <trkpt lat="43.64191" lon="6.63649">
        <ele>627.2</ele>
        <time>2023-11-26T09:04:40Z</time>
      </trkpt>
      <trkpt lat="43.6419" lon="6.63648">
        <ele>627.2</ele>
        <time>2023-11-26T09:04:41Z</time>
      </trkpt>
      <trkpt lat="43.6419" lon="6.63646">
        <ele>627.2</ele>
        <time>2023-11-26T09:04:42Z</time>
      </trkpt>
      <trkpt lat="43.6419" lon="6.63644">
        <ele>627.3</ele>
        <time>2023-11-26T09:04:43Z</time>
      </trkpt>
      <trkpt lat="43.6419" lon="6.63642">
        <ele>627.2</ele>
        <time>2023-11-26T09:04:44Z</time>
      </trkpt>
      <trkpt lat="43.6419" lon="6.6364">
        <ele>627.3</ele>
        <time>2023-11-26T09:04:45Z</time>
      </trkpt>
      <trkpt lat="43.64189" lon="6.63638">
        <ele>627.3</ele>
        <time>2023-11-26T09:04:46Z</time>
      </trkpt>
      <trkpt lat="43.64189" lon="6.63637">
        <ele>627.3</ele>
        <time>2023-11-26T09:04:47Z</time>
      </trkpt>
      <trkpt lat="43.64188" lon="6.63636">
        <ele>627.3</ele>
        <time>2023-11-26T09:04:48Z</time>
      </trkpt>
      <trkpt lat="43.64189" lon="6.63633">
        <ele>627.3</ele>
        <time>2023-11-26T09:04:49Z</time>
      </trkpt>
      <trkpt lat="43.64191" lon="6.6363">
        <ele>627.3</ele>
        <time>2023-11-26T09:04:50Z</time>
      </trkpt>
      <trkpt lat="43.64191" lon="6.63627">
        <ele>627.3</ele>
        <time>2023-11-26T09:04:51Z</time>
      </trkpt>
      <trkpt lat="43.64191" lon="6.63625">
        <ele>627.3</ele>
        <time>2023-11-26T09:04:52Z</time>
      </trkpt>
      <trkpt lat="43.64191" lon="6.63623">
        <ele>627.2</ele>
        <time>2023-11-26T09:04:53Z</time>
      </trkpt>
      <trkpt lat="43.64191" lon="6.63622">
        <ele>627.1</ele>
        <time>2023-11-26T09:04:54Z</time>
      </trkpt>
      <trkpt lat="43.6419" lon="6.6362">
        <ele>627</ele>
        <time>2023-11-26T09:04:55Z</time>
      </trkpt>
      <trkpt lat="43.64191" lon="6.63618">
        <ele>627</ele>
        <time>2023-11-26T09:04:56Z</time>
      </trkpt>
      <trkpt lat="43.64191" lon="6.63617">
        <ele>626.9</ele>
        <time>2023-11-26T09:04:57Z</time>
      </trkpt>
      <trkpt lat="43.6419" lon="6.63616">
        <ele>626.9</ele>
        <time>2023-11-26T09:04:58Z</time>
      </trkpt>
      <trkpt lat="43.64191" lon="6.63614">
        <ele>626.9</ele>
        <time>2023-11-26T09:04:59Z</time>
      </trkpt>
      <trkpt lat="43.64191" lon="6.63611">
        <ele>626.9</ele>
        <time>2023-11-26T09:05:00Z</time>
      </trkpt>
      <trkpt lat="43.64191" lon="6.63608">
        <ele>626.9</ele>
        <time>2023-11-26T09:05:01Z</time>
      </trkpt>
      <trkpt lat="43.64191" lon="6.63606">
        <ele>626.9</ele>
        <time>2023-11-26T09:05:02Z</time>
      </trkpt>
      <trkpt lat="43.64191" lon="6.63604">
        <ele>626.9</ele>
        <time>2023-11-26T09:05:03Z</time>
      </trkpt>
      <trkpt lat="43.64192" lon="6.63601">
        <ele>627.1</ele>
        <time>2023-11-26T09:05:04Z</time>
      </trkpt>
      <trkpt lat="43.64192" lon="6.63599">
        <ele>627.1</ele>
        <time>2023-11-26T09:05:05Z</time>
      </trkpt>
      <trkpt lat="43.64191" lon="6.63598">
        <ele>627.1</ele>
        <time>2023-11-26T09:05:06Z</time>
      </trkpt>
      <trkpt lat="43.64191" lon="6.63596">
        <ele>627</ele>
        <time>2023-11-26T09:05:07Z</time>
      </trkpt>
      <trkpt lat="43.64191" lon="6.63594">
        <ele>627</ele>
        <time>2023-11-26T09:05:08Z</time>
      </trkpt>
      <trkpt lat="43.64191" lon="6.63592">
        <ele>626.9</ele>
        <time>2023-11-26T09:05:09Z</time>
      </trkpt>
      <trkpt lat="43.64192" lon="6.6359">
        <ele>626.9</ele>
        <time>2023-11-26T09:05:10Z</time>
      </trkpt>
      <trkpt lat="43.64192" lon="6.63588">
        <ele>626.7</ele>
        <time>2023-11-26T09:05:11Z</time>
      </trkpt>
      <trkpt lat="43.64192" lon="6.63586">
        <ele>626.7</ele>
        <time>2023-11-26T09:05:12Z</time>
      </trkpt>
      <trkpt lat="43.64192" lon="6.63584">
        <ele>626.8</ele>
        <time>2023-11-26T09:05:13Z</time>
      </trkpt>
      <trkpt lat="43.64192" lon="6.63582">
        <ele>627</ele>
        <time>2023-11-26T09:05:14Z</time>
      </trkpt>
      <trkpt lat="43.64192" lon="6.63581">
        <ele>627</ele>
        <time>2023-11-26T09:05:15Z</time>
      </trkpt>
      <trkpt lat="43.64193" lon="6.63578">
        <ele>627</ele>
        <time>2023-11-26T09:05:16Z</time>
      </trkpt>
      <trkpt lat="43.64192" lon="6.63576">
        <ele>627</ele>
        <time>2023-11-26T09:05:17Z</time>
      </trkpt>
      <trkpt lat="43.64192" lon="6.63574">
        <ele>627</ele>
        <time>2023-11-26T09:05:18Z</time>
      </trkpt>
      <trkpt lat="43.64191" lon="6.63573">
        <ele>627.1</ele>
        <time>2023-11-26T09:05:19Z</time>
      </trkpt>
      <trkpt lat="43.6419" lon="6.63571">
        <ele>627.1</ele>
        <time>2023-11-26T09:05:20Z</time>
      </trkpt>
      <trkpt lat="43.64189" lon="6.63569">
        <ele>627.1</ele>
        <time>2023-11-26T09:05:21Z</time>
      </trkpt>
      <trkpt lat="43.64189" lon="6.63567">
        <ele>627.1</ele>
        <time>2023-11-26T09:05:22Z</time>
      </trkpt>
      <trkpt lat="43.64188" lon="6.63564">
        <ele>627.1</ele>
        <time>2023-11-26T09:05:23Z</time>
      </trkpt>
      <trkpt lat="43.64188" lon="6.63562">
        <ele>627</ele>
        <time>2023-11-26T09:05:24Z</time>
      </trkpt>
      <trkpt lat="43.64187" lon="6.6356">
        <ele>627</ele>
        <time>2023-11-26T09:05:25Z</time>
      </trkpt>
      <trkpt lat="43.64187" lon="6.63557">
        <ele>627</ele>
        <time>2023-11-26T09:05:26Z</time>
      </trkpt>
      <trkpt lat="43.64187" lon="6.63555">
        <ele>627</ele>
        <time>2023-11-26T09:05:27Z</time>
      </trkpt>
      <trkpt lat="43.64187" lon="6.63554">
        <ele>627</ele>
        <time>2023-11-26T09:05:28Z</time>
      </trkpt>
      <trkpt lat="43.64187" lon="6.63552">
        <ele>627</ele>
        <time>2023-11-26T09:05:29Z</time>
      </trkpt>
      <trkpt lat="43.64187" lon="6.63549">
        <ele>627</ele>
        <time>2023-11-26T09:05:30Z</time>
      </trkpt>
      <trkpt lat="43.64187" lon="6.63548">
        <ele>627</ele>
        <time>2023-11-26T09:05:31Z</time>
      </trkpt>
      <trkpt lat="43.64186" lon="6.63546">
        <ele>627</ele>
        <time>2023-11-26T09:05:32Z</time>
      </trkpt>
      <trkpt lat="43.64185" lon="6.63544">
        <ele>627.1</ele>
        <time>2023-11-26T09:05:33Z</time>
      </trkpt>
      <trkpt lat="43.64184" lon="6.63543">
        <ele>627.1</ele>
        <time>2023-11-26T09:05:34Z</time>
      </trkpt>
      <trkpt lat="43.64184" lon="6.63542">
        <ele>627.1</ele>
        <time>2023-11-26T09:05:35Z</time>
      </trkpt>
      <trkpt lat="43.64183" lon="6.6354">
        <ele>627.2</ele>
        <time>2023-11-26T09:05:36Z</time>
      </trkpt>
      <trkpt lat="43.64183" lon="6.63538">
        <ele>627.1</ele>
        <time>2023-11-26T09:05:37Z</time>
      </trkpt>
      <trkpt lat="43.64182" lon="6.63536">
        <ele>627.2</ele>
        <time>2023-11-26T09:05:38Z</time>
      </trkpt>
      <trkpt lat="43.64181" lon="6.63534">
        <ele>627.3</ele>
        <time>2023-11-26T09:05:39Z</time>
      </trkpt>
      <trkpt lat="43.6418" lon="6.63533">
        <ele>627.3</ele>
        <time>2023-11-26T09:05:40Z</time>
      </trkpt>
      <trkpt lat="43.64179" lon="6.63531">
        <ele>627.4</ele>
        <time>2023-11-26T09:05:41Z</time>
      </trkpt>
      <trkpt lat="43.64178" lon="6.63529">
        <ele>627.5</ele>
        <time>2023-11-26T09:05:42Z</time>
      </trkpt>
      <trkpt lat="43.64177" lon="6.63527">
        <ele>627.5</ele>
        <time>2023-11-26T09:05:43Z</time>
      </trkpt>
      <trkpt lat="43.64177" lon="6.63525">
        <ele>627.5</ele>
        <time>2023-11-26T09:05:44Z</time>
      </trkpt>
      <trkpt lat="43.64176" lon="6.63524">
        <ele>627.7</ele>
        <time>2023-11-26T09:05:45Z</time>
      </trkpt>
      <trkpt lat="43.64176" lon="6.63522">
        <ele>627.8</ele>
        <time>2023-11-26T09:05:46Z</time>
      </trkpt>
      <trkpt lat="43.64175" lon="6.6352">
        <ele>627.8</ele>
        <time>2023-11-26T09:05:47Z</time>
      </trkpt>
      <trkpt lat="43.64174" lon="6.63519">
        <ele>627.8</ele>
        <time>2023-11-26T09:05:48Z</time>
      </trkpt>
      <trkpt lat="43.64174" lon="6.63518">
        <ele>627.8</ele>
        <time>2023-11-26T09:05:49Z</time>
      </trkpt>
      <trkpt lat="43.64173" lon="6.63516">
        <ele>627.9</ele>
        <time>2023-11-26T09:05:50Z</time>
      </trkpt>
      <trkpt lat="43.64172" lon="6.63514">
        <ele>627.9</ele>
        <time>2023-11-26T09:05:51Z</time>
      </trkpt>
      <trkpt lat="43.64172" lon="6.63513">
        <ele>627.8</ele>
        <time>2023-11-26T09:05:52Z</time>
      </trkpt>
      <trkpt lat="43.64171" lon="6.63511">
        <ele>627.8</ele>
        <time>2023-11-26T09:05:53Z</time>
      </trkpt>
      <trkpt lat="43.64172" lon="6.6351">
        <ele>627.8</ele>
        <time>2023-11-26T09:05:54Z</time>
      </trkpt>
      <trkpt lat="43.64172" lon="6.63509">
        <ele>627.8</ele>
        <time>2023-11-26T09:05:55Z</time>
      </trkpt>
      <trkpt lat="43.64171" lon="6.63506">
        <ele>627.8</ele>
        <time>2023-11-26T09:05:56Z</time>
      </trkpt>
      <trkpt lat="43.6417" lon="6.63505">
        <ele>627.8</ele>
        <time>2023-11-26T09:05:57Z</time>
      </trkpt>
      <trkpt lat="43.64169" lon="6.63503">
        <ele>627.7</ele>
        <time>2023-11-26T09:05:58Z</time>
      </trkpt>
      <trkpt lat="43.64168" lon="6.63501">
        <ele>627.7</ele>
        <time>2023-11-26T09:05:59Z</time>
      </trkpt>
      <trkpt lat="43.64168" lon="6.635">
        <ele>627.7</ele>
        <time>2023-11-26T09:06:00Z</time>
      </trkpt>
      <trkpt lat="43.64168" lon="6.63498">
        <ele>627.6</ele>
        <time>2023-11-26T09:06:01Z</time>
      </trkpt>
      <trkpt lat="43.64167" lon="6.63496">
        <ele>627.6</ele>
        <time>2023-11-26T09:06:02Z</time>
      </trkpt>
      <trkpt lat="43.64166" lon="6.63495">
        <ele>627.6</ele>
        <time>2023-11-26T09:06:03Z</time>
      </trkpt>
      <trkpt lat="43.64166" lon="6.63493">
        <ele>627.6</ele>
        <time>2023-11-26T09:06:04Z</time>
      </trkpt>
      <trkpt lat="43.64165" lon="6.63491">
        <ele>627.5</ele>
        <time>2023-11-26T09:06:05Z</time>
      </trkpt>
      <trkpt lat="43.64164" lon="6.6349">
        <ele>627.5</ele>
        <time>2023-11-26T09:06:06Z</time>
      </trkpt>
      <trkpt lat="43.64164" lon="6.63488">
        <ele>627.4</ele>
        <time>2023-11-26T09:06:07Z</time>
      </trkpt>
      <trkpt lat="43.64163" lon="6.63487">
        <ele>627.3</ele>
        <time>2023-11-26T09:06:08Z</time>
      </trkpt>
      <trkpt lat="43.64163" lon="6.63485">
        <ele>627.1</ele>
        <time>2023-11-26T09:06:09Z</time>
      </trkpt>
      <trkpt lat="43.64162" lon="6.63484">
        <ele>627.1</ele>
        <time>2023-11-26T09:06:10Z</time>
      </trkpt>
      <trkpt lat="43.64162" lon="6.63482">
        <ele>627</ele>
        <time>2023-11-26T09:06:11Z</time>
      </trkpt>
      <trkpt lat="43.64162" lon="6.6348">
        <ele>627</ele>
        <time>2023-11-26T09:06:12Z</time>
      </trkpt>
      <trkpt lat="43.64162" lon="6.63479">
        <ele>626.9</ele>
        <time>2023-11-26T09:06:13Z</time>
      </trkpt>
      <trkpt lat="43.64162" lon="6.63476">
        <ele>626.9</ele>
        <time>2023-11-26T09:06:14Z</time>
      </trkpt>
      <trkpt lat="43.64162" lon="6.63474">
        <ele>626.9</ele>
        <time>2023-11-26T09:06:15Z</time>
      </trkpt>
      <trkpt lat="43.64162" lon="6.63472">
        <ele>626.9</ele>
        <time>2023-11-26T09:06:16Z</time>
      </trkpt>
      <trkpt lat="43.64162" lon="6.6347">
        <ele>626.8</ele>
        <time>2023-11-26T09:06:17Z</time>
      </trkpt>
      <trkpt lat="43.64161" lon="6.63468">
        <ele>626.9</ele>
        <time>2023-11-26T09:06:18Z</time>
      </trkpt>
      <trkpt lat="43.6416" lon="6.63467">
        <ele>626.9</ele>
        <time>2023-11-26T09:06:19Z</time>
      </trkpt>
      <trkpt lat="43.6416" lon="6.63464">
        <ele>626.8</ele>
        <time>2023-11-26T09:06:20Z</time>
      </trkpt>
      <trkpt lat="43.6416" lon="6.63463">
        <ele>626.8</ele>
        <time>2023-11-26T09:06:21Z</time>
      </trkpt>
      <trkpt lat="43.6416" lon="6.63461">
        <ele>626.8</ele>
        <time>2023-11-26T09:06:22Z</time>
      </trkpt>
      <trkpt lat="43.64159" lon="6.63459">
        <ele>626.8</ele>
        <time>2023-11-26T09:06:23Z</time>
      </trkpt>
      <trkpt lat="43.64159" lon="6.63457">
        <ele>626.8</ele>
        <time>2023-11-26T09:06:24Z</time>
      </trkpt>
      <trkpt lat="43.64159" lon="6.63455">
        <ele>626.9</ele>
        <time>2023-11-26T09:06:25Z</time>
      </trkpt>
      <trkpt lat="43.64158" lon="6.63453">
        <ele>626.8</ele>
        <time>2023-11-26T09:06:26Z</time>
      </trkpt>
      <trkpt lat="43.64158" lon="6.63452">
        <ele>626.6</ele>
        <time>2023-11-26T09:06:27Z</time>
      </trkpt>
      <trkpt lat="43.64157" lon="6.6345">
        <ele>626.5</ele>
        <time>2023-11-26T09:06:28Z</time>
      </trkpt>
      <trkpt lat="43.64156" lon="6.63448">
        <ele>626.4</ele>
        <time>2023-11-26T09:06:29Z</time>
      </trkpt>
      <trkpt lat="43.64155" lon="6.63447">
        <ele>626.3</ele>
        <time>2023-11-26T09:06:30Z</time>
      </trkpt>
      <trkpt lat="43.64154" lon="6.63446">
        <ele>626.3</ele>
        <time>2023-11-26T09:06:31Z</time>
      </trkpt>
      <trkpt lat="43.64153" lon="6.63445">
        <ele>626.2</ele>
        <time>2023-11-26T09:06:32Z</time>
      </trkpt>
      <trkpt lat="43.64151" lon="6.63444">
        <ele>626.1</ele>
        <time>2023-11-26T09:06:33Z</time>
      </trkpt>
      <trkpt lat="43.6415" lon="6.63442">
        <ele>626</ele>
        <time>2023-11-26T09:06:34Z</time>
      </trkpt>
      <trkpt lat="43.64149" lon="6.63441">
        <ele>626</ele>
        <time>2023-11-26T09:06:35Z</time>
      </trkpt>
      <trkpt lat="43.64148" lon="6.6344">
        <ele>625.9</ele>
        <time>2023-11-26T09:06:36Z</time>
      </trkpt>
      <trkpt lat="43.64146" lon="6.63439">
        <ele>625.8</ele>
        <time>2023-11-26T09:06:37Z</time>
      </trkpt>
      <trkpt lat="43.64145" lon="6.63438">
        <ele>625.6</ele>
        <time>2023-11-26T09:06:38Z</time>
      </trkpt>
      <trkpt lat="43.64144" lon="6.63437">
        <ele>625.4</ele>
        <time>2023-11-26T09:06:39Z</time>
      </trkpt>
      <trkpt lat="43.64143" lon="6.63436">
        <ele>625.2</ele>
        <time>2023-11-26T09:06:40Z</time>
      </trkpt>
      <trkpt lat="43.64142" lon="6.63435">
        <ele>625</ele>
        <time>2023-11-26T09:06:41Z</time>
      </trkpt>
      <trkpt lat="43.6414" lon="6.63435">
        <ele>624.9</ele>
        <time>2023-11-26T09:06:42Z</time>
      </trkpt>
      <trkpt lat="43.64139" lon="6.63434">
        <ele>624.9</ele>
        <time>2023-11-26T09:06:43Z</time>
      </trkpt>
      <trkpt lat="43.64138" lon="6.63433">
        <ele>624.9</ele>
        <time>2023-11-26T09:06:44Z</time>
      </trkpt>
      <trkpt lat="43.64138" lon="6.63432">
        <ele>624.8</ele>
        <time>2023-11-26T09:06:45Z</time>
      </trkpt>
      <trkpt lat="43.64136" lon="6.63431">
        <ele>624.8</ele>
        <time>2023-11-26T09:06:46Z</time>
      </trkpt>
      <trkpt lat="43.64135" lon="6.63431">
        <ele>624.6</ele>
        <time>2023-11-26T09:06:47Z</time>
      </trkpt>
      <trkpt lat="43.64134" lon="6.63429">
        <ele>624.5</ele>
        <time>2023-11-26T09:06:48Z</time>
      </trkpt>
      <trkpt lat="43.64133" lon="6.63428">
        <ele>624.5</ele>
        <time>2023-11-26T09:06:49Z</time>
      </trkpt>
      <trkpt lat="43.64132" lon="6.63427">
        <ele>624.5</ele>
        <time>2023-11-26T09:06:50Z</time>
      </trkpt>
      <trkpt lat="43.64131" lon="6.63426">
        <ele>624.5</ele>
        <time>2023-11-26T09:06:51Z</time>
      </trkpt>
      <trkpt lat="43.64129" lon="6.63425">
        <ele>624.5</ele>
        <time>2023-11-26T09:06:52Z</time>
      </trkpt>
      <trkpt lat="43.64128" lon="6.63425">
        <ele>624.5</ele>
        <time>2023-11-26T09:06:53Z</time>
      </trkpt>
      <trkpt lat="43.64127" lon="6.63424">
        <ele>624.4</ele>
        <time>2023-11-26T09:06:54Z</time>
      </trkpt>
      <trkpt lat="43.64126" lon="6.63422">
        <ele>624.3</ele>
        <time>2023-11-26T09:06:55Z</time>
      </trkpt>
      <trkpt lat="43.64125" lon="6.63421">
        <ele>624.2</ele>
        <time>2023-11-26T09:06:56Z</time>
      </trkpt>
      <trkpt lat="43.64123" lon="6.6342">
        <ele>624.2</ele>
        <time>2023-11-26T09:06:57Z</time>
      </trkpt>
      <trkpt lat="43.64121" lon="6.63419">
        <ele>624.2</ele>
        <time>2023-11-26T09:06:58Z</time>
      </trkpt>
      <trkpt lat="43.6412" lon="6.63418">
        <ele>624.1</ele>
        <time>2023-11-26T09:06:59Z</time>
      </trkpt>
      <trkpt lat="43.6412" lon="6.63416">
        <ele>624</ele>
        <time>2023-11-26T09:07:00Z</time>
      </trkpt>
      <trkpt lat="43.64118" lon="6.63415">
        <ele>624</ele>
        <time>2023-11-26T09:07:01Z</time>
      </trkpt>
      <trkpt lat="43.64118" lon="6.63413">
        <ele>624</ele>
        <time>2023-11-26T09:07:02Z</time>
      </trkpt>
      <trkpt lat="43.64117" lon="6.63412">
        <ele>624</ele>
        <time>2023-11-26T09:07:03Z</time>
      </trkpt>
      <trkpt lat="43.64116" lon="6.63411">
        <ele>624</ele>
        <time>2023-11-26T09:07:04Z</time>
      </trkpt>
      <trkpt lat="43.64115" lon="6.63409">
        <ele>624</ele>
        <time>2023-11-26T09:07:05Z</time>
      </trkpt>
      <trkpt lat="43.64114" lon="6.63407">
        <ele>623.9</ele>
        <time>2023-11-26T09:07:06Z</time>
      </trkpt>
      <trkpt lat="43.64114" lon="6.63406">
        <ele>623.8</ele>
        <time>2023-11-26T09:07:07Z</time>
      </trkpt>
      <trkpt lat="43.64113" lon="6.63404">
        <ele>623.8</ele>
        <time>2023-11-26T09:07:08Z</time>
      </trkpt>
      <trkpt lat="43.64113" lon="6.63402">
        <ele>623.6</ele>
        <time>2023-11-26T09:07:09Z</time>
      </trkpt>
      <trkpt lat="43.64113" lon="6.634">
        <ele>623.5</ele>
        <time>2023-11-26T09:07:10Z</time>
      </trkpt>
      <trkpt lat="43.64112" lon="6.63398">
        <ele>623.4</ele>
        <time>2023-11-26T09:07:11Z</time>
      </trkpt>
      <trkpt lat="43.64112" lon="6.63396">
        <ele>623.3</ele>
        <time>2023-11-26T09:07:12Z</time>
      </trkpt>
      <trkpt lat="43.64113" lon="6.63394">
        <ele>623.3</ele>
        <time>2023-11-26T09:07:13Z</time>
      </trkpt>
      <trkpt lat="43.64113" lon="6.63392">
        <ele>623.2</ele>
        <time>2023-11-26T09:07:14Z</time>
      </trkpt>
      <trkpt lat="43.64112" lon="6.6339">
        <ele>623.2</ele>
        <time>2023-11-26T09:07:15Z</time>
      </trkpt>
      <trkpt lat="43.64112" lon="6.63388">
        <ele>623.2</ele>
        <time>2023-11-26T09:07:16Z</time>
      </trkpt>
      <trkpt lat="43.64112" lon="6.63387">
        <ele>623</ele>
        <time>2023-11-26T09:07:17Z</time>
      </trkpt>
      <trkpt lat="43.6411" lon="6.63385">
        <ele>622.9</ele>
        <time>2023-11-26T09:07:18Z</time>
      </trkpt>
      <trkpt lat="43.6411" lon="6.63383">
        <ele>622.8</ele>
        <time>2023-11-26T09:07:19Z</time>
      </trkpt>
      <trkpt lat="43.6411" lon="6.63381">
        <ele>622.7</ele>
        <time>2023-11-26T09:07:20Z</time>
      </trkpt>
      <trkpt lat="43.64109" lon="6.6338">
        <ele>622.6</ele>
        <time>2023-11-26T09:07:21Z</time>
      </trkpt>
      <trkpt lat="43.64109" lon="6.63378">
        <ele>622.5</ele>
        <time>2023-11-26T09:07:22Z</time>
      </trkpt>
      <trkpt lat="43.64108" lon="6.63376">
        <ele>622.4</ele>
        <time>2023-11-26T09:07:23Z</time>
      </trkpt>
      <trkpt lat="43.64106" lon="6.63375">
        <ele>622.3</ele>
        <time>2023-11-26T09:07:24Z</time>
      </trkpt>
      <trkpt lat="43.64105" lon="6.63374">
        <ele>622.2</ele>
        <time>2023-11-26T09:07:25Z</time>
      </trkpt>
      <trkpt lat="43.64104" lon="6.63373">
        <ele>622.2</ele>
        <time>2023-11-26T09:07:26Z</time>
      </trkpt>
      <trkpt lat="43.64104" lon="6.63373">
        <ele>622.1</ele>
        <time>2023-11-26T09:07:27Z</time>
      </trkpt>
      <trkpt lat="43.64104" lon="6.63373">
        <ele>622.2</ele>
        <time>2023-11-26T09:07:28Z</time>
      </trkpt>
      <trkpt lat="43.64104" lon="6.63373">
        <ele>622.3</ele>
        <time>2023-11-26T09:07:29Z</time>
      </trkpt>
      <trkpt lat="43.64102" lon="6.63374">
        <ele>622.4</ele>
        <time>2023-11-26T09:07:30Z</time>
      </trkpt>
      <trkpt lat="43.641" lon="6.63373">
        <ele>622.5</ele>
        <time>2023-11-26T09:07:31Z</time>
      </trkpt>
      <trkpt lat="43.64098" lon="6.63373">
        <ele>622.7</ele>
        <time>2023-11-26T09:07:32Z</time>
      </trkpt>
      <trkpt lat="43.64097" lon="6.63373">
        <ele>622.8</ele>
        <time>2023-11-26T09:07:33Z</time>
      </trkpt>
      <trkpt lat="43.64096" lon="6.63374">
        <ele>622.8</ele>
        <time>2023-11-26T09:07:34Z</time>
      </trkpt>
      <trkpt lat="43.64094" lon="6.63376">
        <ele>622.7</ele>
        <time>2023-11-26T09:07:35Z</time>
      </trkpt>
      <trkpt lat="43.64091" lon="6.63377">
        <ele>622.9</ele>
        <time>2023-11-26T09:07:36Z</time>
      </trkpt>
      <trkpt lat="43.6409" lon="6.63378">
        <ele>622.9</ele>
        <time>2023-11-26T09:07:37Z</time>
      </trkpt>
      <trkpt lat="43.64089" lon="6.63379">
        <ele>622.9</ele>
        <time>2023-11-26T09:07:38Z</time>
      </trkpt>
      <trkpt lat="43.64088" lon="6.6338">
        <ele>622.9</ele>
        <time>2023-11-26T09:07:39Z</time>
      </trkpt>
      <trkpt lat="43.64087" lon="6.6338">
        <ele>622.8</ele>
        <time>2023-11-26T09:07:40Z</time>
      </trkpt>
      <trkpt lat="43.64086" lon="6.6338">
        <ele>622.7</ele>
        <time>2023-11-26T09:07:41Z</time>
      </trkpt>
      <trkpt lat="43.64085" lon="6.6338">
        <ele>622.6</ele>
        <time>2023-11-26T09:07:42Z</time>
      </trkpt>
      <trkpt lat="43.64085" lon="6.6338">
        <ele>622.5</ele>
        <time>2023-11-26T09:07:43Z</time>
      </trkpt>
      <trkpt lat="43.64083" lon="6.63382">
        <ele>622.5</ele>
        <time>2023-11-26T09:07:44Z</time>
      </trkpt>
      <trkpt lat="43.64082" lon="6.63382">
        <ele>622.3</ele>
        <time>2023-11-26T09:07:45Z</time>
      </trkpt>
      <trkpt lat="43.6408" lon="6.63383">
        <ele>622.2</ele>
        <time>2023-11-26T09:07:46Z</time>
      </trkpt>
      <trkpt lat="43.64079" lon="6.63384">
        <ele>622</ele>
        <time>2023-11-26T09:07:47Z</time>
      </trkpt>
      <trkpt lat="43.64078" lon="6.63385">
        <ele>621.9</ele>
        <time>2023-11-26T09:07:48Z</time>
      </trkpt>
      <trkpt lat="43.64077" lon="6.63387">
        <ele>621.8</ele>
        <time>2023-11-26T09:07:49Z</time>
      </trkpt>
      <trkpt lat="43.64076" lon="6.63388">
        <ele>621.7</ele>
        <time>2023-11-26T09:07:50Z</time>
      </trkpt>
      <trkpt lat="43.64075" lon="6.6339">
        <ele>621.6</ele>
        <time>2023-11-26T09:07:51Z</time>
      </trkpt>
      <trkpt lat="43.64074" lon="6.63391">
        <ele>621.6</ele>
        <time>2023-11-26T09:07:52Z</time>
      </trkpt>
      <trkpt lat="43.64073" lon="6.63393">
        <ele>621.5</ele>
        <time>2023-11-26T09:07:53Z</time>
      </trkpt>
      <trkpt lat="43.64072" lon="6.63394">
        <ele>621.4</ele>
        <time>2023-11-26T09:07:54Z</time>
      </trkpt>
      <trkpt lat="43.6407" lon="6.63396">
        <ele>621.4</ele>
        <time>2023-11-26T09:07:55Z</time>
      </trkpt>
      <trkpt lat="43.64069" lon="6.63397">
        <ele>621.4</ele>
        <time>2023-11-26T09:07:56Z</time>
      </trkpt>
      <trkpt lat="43.64066" lon="6.63398">
        <ele>621.3</ele>
        <time>2023-11-26T09:07:57Z</time>
      </trkpt>
      <trkpt lat="43.64064" lon="6.63399">
        <ele>621.3</ele>
        <time>2023-11-26T09:07:58Z</time>
      </trkpt>
      <trkpt lat="43.64064" lon="6.63401">
        <ele>621.3</ele>
        <time>2023-11-26T09:07:59Z</time>
      </trkpt>
      <trkpt lat="43.64063" lon="6.63401">
        <ele>621.4</ele>
        <time>2023-11-26T09:08:00Z</time>
      </trkpt>
      <trkpt lat="43.64062" lon="6.63403">
        <ele>621.5</ele>
        <time>2023-11-26T09:08:01Z</time>
      </trkpt>
      <trkpt lat="43.64061" lon="6.63405">
        <ele>621.6</ele>
        <time>2023-11-26T09:08:02Z</time>
      </trkpt>
      <trkpt lat="43.64061" lon="6.63406">
        <ele>621.6</ele>
        <time>2023-11-26T09:08:03Z</time>
      </trkpt>
      <trkpt lat="43.64059" lon="6.63408">
        <ele>621.6</ele>
        <time>2023-11-26T09:08:04Z</time>
      </trkpt>
      <trkpt lat="43.64059" lon="6.63409">
        <ele>621.5</ele>
        <time>2023-11-26T09:08:05Z</time>
      </trkpt>
      <trkpt lat="43.64057" lon="6.63412">
        <ele>621.5</ele>
        <time>2023-11-26T09:08:06Z</time>
      </trkpt>
      <trkpt lat="43.64056" lon="6.63414">
        <ele>621.5</ele>
        <time>2023-11-26T09:08:07Z</time>
      </trkpt>
      <trkpt lat="43.64055" lon="6.63416">
        <ele>621.5</ele>
        <time>2023-11-26T09:08:08Z</time>
      </trkpt>
      <trkpt lat="43.64055" lon="6.63418">
        <ele>621.5</ele>
        <time>2023-11-26T09:08:09Z</time>
      </trkpt>
      <trkpt lat="43.64053" lon="6.6342">
        <ele>621.5</ele>
        <time>2023-11-26T09:08:10Z</time>
      </trkpt>
      <trkpt lat="43.64052" lon="6.63422">
        <ele>621.6</ele>
        <time>2023-11-26T09:08:11Z</time>
      </trkpt>
      <trkpt lat="43.64052" lon="6.63424">
        <ele>621.6</ele>
        <time>2023-11-26T09:08:12Z</time>
      </trkpt>
      <trkpt lat="43.6405" lon="6.63425">
        <ele>621.7</ele>
        <time>2023-11-26T09:08:13Z</time>
      </trkpt>
      <trkpt lat="43.64051" lon="6.63426">
        <ele>621.8</ele>
        <time>2023-11-26T09:08:14Z</time>
      </trkpt>
      <trkpt lat="43.64049" lon="6.63427">
        <ele>621.8</ele>
        <time>2023-11-26T09:08:15Z</time>
      </trkpt>
      <trkpt lat="43.64048" lon="6.63428">
        <ele>621.7</ele>
        <time>2023-11-26T09:08:16Z</time>
      </trkpt>
      <trkpt lat="43.64047" lon="6.63428">
        <ele>621.6</ele>
        <time>2023-11-26T09:08:17Z</time>
      </trkpt>
      <trkpt lat="43.64045" lon="6.63427">
        <ele>621.8</ele>
        <time>2023-11-26T09:08:18Z</time>
      </trkpt>
      <trkpt lat="43.64044" lon="6.63427">
        <ele>621.9</ele>
        <time>2023-11-26T09:08:19Z</time>
      </trkpt>
      <trkpt lat="43.64042" lon="6.63428">
        <ele>622</ele>
        <time>2023-11-26T09:08:20Z</time>
      </trkpt>
      <trkpt lat="43.64041" lon="6.63429">
        <ele>622</ele>
        <time>2023-11-26T09:08:21Z</time>
      </trkpt>
      <trkpt lat="43.6404" lon="6.63429">
        <ele>622.1</ele>
        <time>2023-11-26T09:08:22Z</time>
      </trkpt>
      <trkpt lat="43.64038" lon="6.63429">
        <ele>622.1</ele>
        <time>2023-11-26T09:08:23Z</time>
      </trkpt>
      <trkpt lat="43.64037" lon="6.63429">
        <ele>622.2</ele>
        <time>2023-11-26T09:08:24Z</time>
      </trkpt>
      <trkpt lat="43.64036" lon="6.63429">
        <ele>622.3</ele>
        <time>2023-11-26T09:08:25Z</time>
      </trkpt>
      <trkpt lat="43.64034" lon="6.63429">
        <ele>622.3</ele>
        <time>2023-11-26T09:08:26Z</time>
      </trkpt>
      <trkpt lat="43.64033" lon="6.63428">
        <ele>622.4</ele>
        <time>2023-11-26T09:08:27Z</time>
      </trkpt>
      <trkpt lat="43.64032" lon="6.63427">
        <ele>622.3</ele>
        <time>2023-11-26T09:08:28Z</time>
      </trkpt>
      <trkpt lat="43.64031" lon="6.63427">
        <ele>622.3</ele>
        <time>2023-11-26T09:08:29Z</time>
      </trkpt>
      <trkpt lat="43.64029" lon="6.63427">
        <ele>622.3</ele>
        <time>2023-11-26T09:08:30Z</time>
      </trkpt>
      <trkpt lat="43.64028" lon="6.63427">
        <ele>622.2</ele>
        <time>2023-11-26T09:08:31Z</time>
      </trkpt>
      <trkpt lat="43.64027" lon="6.63427">
        <ele>622.2</ele>
        <time>2023-11-26T09:08:32Z</time>
      </trkpt>
      <trkpt lat="43.64025" lon="6.63427">
        <ele>622.2</ele>
        <time>2023-11-26T09:08:33Z</time>
      </trkpt>
      <trkpt lat="43.64024" lon="6.63427">
        <ele>622.2</ele>
        <time>2023-11-26T09:08:34Z</time>
      </trkpt>
      <trkpt lat="43.64023" lon="6.63426">
        <ele>622.1</ele>
        <time>2023-11-26T09:08:35Z</time>
      </trkpt>
      <trkpt lat="43.6402" lon="6.63428">
        <ele>622.1</ele>
        <time>2023-11-26T09:08:36Z</time>
      </trkpt>
      <trkpt lat="43.64019" lon="6.63429">
        <ele>622.1</ele>
        <time>2023-11-26T09:08:37Z</time>
      </trkpt>
      <trkpt lat="43.64018" lon="6.63429">
        <ele>622.1</ele>
        <time>2023-11-26T09:08:38Z</time>
      </trkpt>
      <trkpt lat="43.64017" lon="6.63429">
        <ele>621.9</ele>
        <time>2023-11-26T09:08:39Z</time>
      </trkpt>
      <trkpt lat="43.64016" lon="6.63429">
        <ele>622</ele>
        <time>2023-11-26T09:08:40Z</time>
      </trkpt>
      <trkpt lat="43.64015" lon="6.6343">
        <ele>621.9</ele>
        <time>2023-11-26T09:08:41Z</time>
      </trkpt>
      <trkpt lat="43.64013" lon="6.6343">
        <ele>621.9</ele>
        <time>2023-11-26T09:08:42Z</time>
      </trkpt>
      <trkpt lat="43.64013" lon="6.63431">
        <ele>621.8</ele>
        <time>2023-11-26T09:08:43Z</time>
      </trkpt>
      <trkpt lat="43.64012" lon="6.63431">
        <ele>621.7</ele>
        <time>2023-11-26T09:08:44Z</time>
      </trkpt>
      <trkpt lat="43.64011" lon="6.63431">
        <ele>621.6</ele>
        <time>2023-11-26T09:08:45Z</time>
      </trkpt>
      <trkpt lat="43.64011" lon="6.63432">
        <ele>621.7</ele>
        <time>2023-11-26T09:08:46Z</time>
      </trkpt>
      <trkpt lat="43.6401" lon="6.63433">
        <ele>621.7</ele>
        <time>2023-11-26T09:08:47Z</time>
      </trkpt>
      <trkpt lat="43.6401" lon="6.63434">
        <ele>621.8</ele>
        <time>2023-11-26T09:08:48Z</time>
      </trkpt>
      <trkpt lat="43.64009" lon="6.63434">
        <ele>621.8</ele>
        <time>2023-11-26T09:08:49Z</time>
      </trkpt>
      <trkpt lat="43.64008" lon="6.63436">
        <ele>621.7</ele>
        <time>2023-11-26T09:08:50Z</time>
      </trkpt>
      <trkpt lat="43.64007" lon="6.63437">
        <ele>621.7</ele>
        <time>2023-11-26T09:08:51Z</time>
      </trkpt>
      <trkpt lat="43.64007" lon="6.63438">
        <ele>621.8</ele>
        <time>2023-11-26T09:08:52Z</time>
      </trkpt>
      <trkpt lat="43.64006" lon="6.63439">
        <ele>622</ele>
        <time>2023-11-26T09:08:53Z</time>
      </trkpt>
      <trkpt lat="43.64004" lon="6.63441">
        <ele>622</ele>
        <time>2023-11-26T09:08:54Z</time>
      </trkpt>
      <trkpt lat="43.64003" lon="6.63441">
        <ele>622.1</ele>
        <time>2023-11-26T09:08:55Z</time>
      </trkpt>
      <trkpt lat="43.64002" lon="6.63441">
        <ele>622.2</ele>
        <time>2023-11-26T09:08:56Z</time>
      </trkpt>
      <trkpt lat="43.64001" lon="6.63442">
        <ele>622.4</ele>
        <time>2023-11-26T09:08:57Z</time>
      </trkpt>
      <trkpt lat="43.64" lon="6.63443">
        <ele>622.5</ele>
        <time>2023-11-26T09:08:58Z</time>
      </trkpt>
      <trkpt lat="43.63999" lon="6.63444">
        <ele>622.6</ele>
        <time>2023-11-26T09:08:59Z</time>
      </trkpt>
      <trkpt lat="43.63998" lon="6.63444">
        <ele>622.6</ele>
        <time>2023-11-26T09:09:00Z</time>
      </trkpt>
      <trkpt lat="43.63996" lon="6.63445">
        <ele>622.7</ele>
        <time>2023-11-26T09:09:01Z</time>
      </trkpt>
      <trkpt lat="43.63995" lon="6.63446">
        <ele>622.8</ele>
        <time>2023-11-26T09:09:02Z</time>
      </trkpt>
      <trkpt lat="43.63993" lon="6.63446">
        <ele>622.9</ele>
        <time>2023-11-26T09:09:03Z</time>
      </trkpt>
      <trkpt lat="43.63992" lon="6.63446">
        <ele>623.1</ele>
        <time>2023-11-26T09:09:04Z</time>
      </trkpt>
      <trkpt lat="43.63991" lon="6.63446">
        <ele>623.3</ele>
        <time>2023-11-26T09:09:05Z</time>
      </trkpt>
      <trkpt lat="43.6399" lon="6.63446">
        <ele>623.4</ele>
        <time>2023-11-26T09:09:06Z</time>
      </trkpt>
      <trkpt lat="43.63989" lon="6.63447">
        <ele>623.5</ele>
        <time>2023-11-26T09:09:07Z</time>
      </trkpt>
      <trkpt lat="43.63988" lon="6.63446">
        <ele>623.6</ele>
        <time>2023-11-26T09:09:08Z</time>
      </trkpt>
      <trkpt lat="43.63987" lon="6.63446">
        <ele>623.7</ele>
        <time>2023-11-26T09:09:09Z</time>
      </trkpt>
      <trkpt lat="43.63986" lon="6.63446">
        <ele>623.8</ele>
        <time>2023-11-26T09:09:10Z</time>
      </trkpt>
      <trkpt lat="43.63985" lon="6.63446">
        <ele>624</ele>
        <time>2023-11-26T09:09:11Z</time>
      </trkpt>
      <trkpt lat="43.63983" lon="6.63446">
        <ele>624.1</ele>
        <time>2023-11-26T09:09:12Z</time>
      </trkpt>
      <trkpt lat="43.63982" lon="6.63445">
        <ele>624.2</ele>
        <time>2023-11-26T09:09:13Z</time>
      </trkpt>
      <trkpt lat="43.63981" lon="6.63445">
        <ele>624.2</ele>
        <time>2023-11-26T09:09:14Z</time>
      </trkpt>
      <trkpt lat="43.6398" lon="6.63445">
        <ele>624.3</ele>
        <time>2023-11-26T09:09:15Z</time>
      </trkpt>
      <trkpt lat="43.63979" lon="6.63445">
        <ele>624.3</ele>
        <time>2023-11-26T09:09:16Z</time>
      </trkpt>
      <trkpt lat="43.63978" lon="6.63444">
        <ele>624.4</ele>
        <time>2023-11-26T09:09:17Z</time>
      </trkpt>
      <trkpt lat="43.63977" lon="6.63443">
        <ele>624.4</ele>
        <time>2023-11-26T09:09:18Z</time>
      </trkpt>
      <trkpt lat="43.63976" lon="6.63442">
        <ele>624.6</ele>
        <time>2023-11-26T09:09:19Z</time>
      </trkpt>
      <trkpt lat="43.63975" lon="6.63443">
        <ele>624.7</ele>
        <time>2023-11-26T09:09:20Z</time>
      </trkpt>
      <trkpt lat="43.63973" lon="6.63442">
        <ele>624.7</ele>
        <time>2023-11-26T09:09:21Z</time>
      </trkpt>
      <trkpt lat="43.63972" lon="6.63442">
        <ele>624.8</ele>
        <time>2023-11-26T09:09:22Z</time>
      </trkpt>
      <trkpt lat="43.63971" lon="6.63441">
        <ele>624.8</ele>
        <time>2023-11-26T09:09:23Z</time>
      </trkpt>
      <trkpt lat="43.63969" lon="6.63441">
        <ele>624.9</ele>
        <time>2023-11-26T09:09:24Z</time>
      </trkpt>
      <trkpt lat="43.63968" lon="6.6344">
        <ele>625.1</ele>
        <time>2023-11-26T09:09:25Z</time>
      </trkpt>
      <trkpt lat="43.63966" lon="6.63439">
        <ele>625.1</ele>
        <time>2023-11-26T09:09:26Z</time>
      </trkpt>
      <trkpt lat="43.63965" lon="6.63439">
        <ele>625</ele>
        <time>2023-11-26T09:09:27Z</time>
      </trkpt>
      <trkpt lat="43.63964" lon="6.63438">
        <ele>625</ele>
        <time>2023-11-26T09:09:28Z</time>
      </trkpt>
      <trkpt lat="43.63963" lon="6.63437">
        <ele>625.2</ele>
        <time>2023-11-26T09:09:29Z</time>
      </trkpt>
      <trkpt lat="43.63963" lon="6.63437">
        <ele>625.2</ele>
        <time>2023-11-26T09:09:30Z</time>
      </trkpt>
      <trkpt lat="43.63962" lon="6.63436">
        <ele>625.3</ele>
        <time>2023-11-26T09:09:31Z</time>
      </trkpt>
      <trkpt lat="43.63961" lon="6.63436">
        <ele>625.4</ele>
        <time>2023-11-26T09:09:32Z</time>
      </trkpt>
      <trkpt lat="43.63959" lon="6.63435">
        <ele>625.5</ele>
        <time>2023-11-26T09:09:33Z</time>
      </trkpt>
      <trkpt lat="43.63957" lon="6.63434">
        <ele>625.6</ele>
        <time>2023-11-26T09:09:34Z</time>
      </trkpt>
      <trkpt lat="43.63956" lon="6.63434">
        <ele>625.7</ele>
        <time>2023-11-26T09:09:35Z</time>
      </trkpt>
      <trkpt lat="43.63955" lon="6.63434">
        <ele>625.8</ele>
        <time>2023-11-26T09:09:36Z</time>
      </trkpt>
      <trkpt lat="43.63954" lon="6.63433">
        <ele>625.8</ele>
        <time>2023-11-26T09:09:37Z</time>
      </trkpt>
      <trkpt lat="43.63953" lon="6.63432">
        <ele>625.6</ele>
        <time>2023-11-26T09:09:38Z</time>
      </trkpt>
      <trkpt lat="43.63952" lon="6.63432">
        <ele>625.6</ele>
        <time>2023-11-26T09:09:39Z</time>
      </trkpt>
      <trkpt lat="43.63951" lon="6.63433">
        <ele>625.5</ele>
        <time>2023-11-26T09:09:40Z</time>
      </trkpt>
      <trkpt lat="43.6395" lon="6.63433">
        <ele>625.6</ele>
        <time>2023-11-26T09:09:41Z</time>
      </trkpt>
      <trkpt lat="43.63948" lon="6.63432">
        <ele>625.6</ele>
        <time>2023-11-26T09:09:42Z</time>
      </trkpt>
      <trkpt lat="43.63946" lon="6.63431">
        <ele>625.5</ele>
        <time>2023-11-26T09:09:43Z</time>
      </trkpt>
      <trkpt lat="43.63945" lon="6.6343">
        <ele>625.4</ele>
        <time>2023-11-26T09:09:44Z</time>
      </trkpt>
      <trkpt lat="43.63943" lon="6.63429">
        <ele>625.4</ele>
        <time>2023-11-26T09:09:45Z</time>
      </trkpt>
      <trkpt lat="43.63941" lon="6.63428">
        <ele>625.3</ele>
        <time>2023-11-26T09:09:46Z</time>
      </trkpt>
      <trkpt lat="43.6394" lon="6.63429">
        <ele>625.3</ele>
        <time>2023-11-26T09:09:47Z</time>
      </trkpt>
      <trkpt lat="43.63937" lon="6.63428">
        <ele>625.2</ele>
        <time>2023-11-26T09:09:48Z</time>
      </trkpt>
      <trkpt lat="43.63936" lon="6.63427">
        <ele>625.1</ele>
        <time>2023-11-26T09:09:49Z</time>
      </trkpt>
      <trkpt lat="43.63934" lon="6.63427">
        <ele>625.1</ele>
        <time>2023-11-26T09:09:50Z</time>
      </trkpt>
      <trkpt lat="43.63934" lon="6.63426">
        <ele>625</ele>
        <time>2023-11-26T09:09:51Z</time>
      </trkpt>
      <trkpt lat="43.63933" lon="6.63426">
        <ele>624.9</ele>
        <time>2023-11-26T09:09:52Z</time>
      </trkpt>
      <trkpt lat="43.63931" lon="6.63426">
        <ele>624.7</ele>
        <time>2023-11-26T09:09:53Z</time>
      </trkpt>
      <trkpt lat="43.63929" lon="6.63426">
        <ele>624.6</ele>
        <time>2023-11-26T09:09:54Z</time>
      </trkpt>
      <trkpt lat="43.63928" lon="6.63427">
        <ele>624.5</ele>
        <time>2023-11-26T09:09:55Z</time>
      </trkpt>
      <trkpt lat="43.63926" lon="6.63427">
        <ele>624.4</ele>
        <time>2023-11-26T09:09:56Z</time>
      </trkpt>
      <trkpt lat="43.63926" lon="6.63427">
        <ele>624.4</ele>
        <time>2023-11-26T09:09:57Z</time>
      </trkpt>
      <trkpt lat="43.63925" lon="6.63427">
        <ele>624.4</ele>
        <time>2023-11-26T09:09:58Z</time>
      </trkpt>
      <trkpt lat="43.63924" lon="6.63427">
        <ele>624.3</ele>
        <time>2023-11-26T09:09:59Z</time>
      </trkpt>
      <trkpt lat="43.63924" lon="6.63426">
        <ele>624.3</ele>
        <time>2023-11-26T09:10:00Z</time>
      </trkpt>
      <trkpt lat="43.63923" lon="6.63426">
        <ele>624.2</ele>
        <time>2023-11-26T09:10:01Z</time>
      </trkpt>
      <trkpt lat="43.63922" lon="6.63426">
        <ele>624.2</ele>
        <time>2023-11-26T09:10:02Z</time>
      </trkpt>
      <trkpt lat="43.63921" lon="6.63425">
        <ele>624.1</ele>
        <time>2023-11-26T09:10:03Z</time>
      </trkpt>
      <trkpt lat="43.6392" lon="6.63425">
        <ele>624.1</ele>
        <time>2023-11-26T09:10:04Z</time>
      </trkpt>
      <trkpt lat="43.63917" lon="6.63424">
        <ele>623.9</ele>
        <time>2023-11-26T09:10:05Z</time>
      </trkpt>
      <trkpt lat="43.63914" lon="6.63425">
        <ele>623.8</ele>
        <time>2023-11-26T09:10:06Z</time>
      </trkpt>
      <trkpt lat="43.63912" lon="6.63424">
        <ele>623.7</ele>
        <time>2023-11-26T09:10:07Z</time>
      </trkpt>
      <trkpt lat="43.63912" lon="6.63423">
        <ele>623.6</ele>
        <time>2023-11-26T09:10:08Z</time>
      </trkpt>
      <trkpt lat="43.63911" lon="6.63422">
        <ele>623.5</ele>
        <time>2023-11-26T09:10:09Z</time>
      </trkpt>
      <trkpt lat="43.6391" lon="6.63422">
        <ele>623.5</ele>
        <time>2023-11-26T09:10:10Z</time>
      </trkpt>
      <trkpt lat="43.63909" lon="6.6342">
        <ele>623.4</ele>
        <time>2023-11-26T09:10:11Z</time>
      </trkpt>
      <trkpt lat="43.63907" lon="6.6342">
        <ele>623.4</ele>
        <time>2023-11-26T09:10:12Z</time>
      </trkpt>
      <trkpt lat="43.63906" lon="6.63419">
        <ele>623.3</ele>
        <time>2023-11-26T09:10:13Z</time>
      </trkpt>
      <trkpt lat="43.63904" lon="6.63419">
        <ele>623.3</ele>
        <time>2023-11-26T09:10:14Z</time>
      </trkpt>
      <trkpt lat="43.63903" lon="6.63419">
        <ele>623.3</ele>
        <time>2023-11-26T09:10:15Z</time>
      </trkpt>
      <trkpt lat="43.63902" lon="6.63417">
        <ele>623.4</ele>
        <time>2023-11-26T09:10:16Z</time>
      </trkpt>
      <trkpt lat="43.63901" lon="6.63416">
        <ele>623.5</ele>
        <time>2023-11-26T09:10:17Z</time>
      </trkpt>
      <trkpt lat="43.63899" lon="6.63415">
        <ele>623.5</ele>
        <time>2023-11-26T09:10:18Z</time>
      </trkpt>
      <trkpt lat="43.63898" lon="6.63415">
        <ele>623.6</ele>
        <time>2023-11-26T09:10:19Z</time>
      </trkpt>
      <trkpt lat="43.63896" lon="6.63414">
        <ele>623.6</ele>
        <time>2023-11-26T09:10:20Z</time>
      </trkpt>
      <trkpt lat="43.63896" lon="6.63414">
        <ele>623.7</ele>
        <time>2023-11-26T09:10:21Z</time>
      </trkpt>
      <trkpt lat="43.63894" lon="6.63414">
        <ele>623.7</ele>
        <time>2023-11-26T09:10:22Z</time>
      </trkpt>
      <trkpt lat="43.63893" lon="6.63414">
        <ele>623.6</ele>
        <time>2023-11-26T09:10:23Z</time>
      </trkpt>
      <trkpt lat="43.63892" lon="6.63415">
        <ele>623.6</ele>
        <time>2023-11-26T09:10:24Z</time>
      </trkpt>
      <trkpt lat="43.6389" lon="6.63415">
        <ele>623.5</ele>
        <time>2023-11-26T09:10:25Z</time>
      </trkpt>
      <trkpt lat="43.63889" lon="6.63415">
        <ele>623.4</ele>
        <time>2023-11-26T09:10:26Z</time>
      </trkpt>
      <trkpt lat="43.63887" lon="6.63415">
        <ele>623.4</ele>
        <time>2023-11-26T09:10:27Z</time>
      </trkpt>
      <trkpt lat="43.63887" lon="6.63415">
        <ele>623.3</ele>
        <time>2023-11-26T09:10:28Z</time>
      </trkpt>
      <trkpt lat="43.63886" lon="6.63415">
        <ele>623.3</ele>
        <time>2023-11-26T09:10:29Z</time>
      </trkpt>
      <trkpt lat="43.63884" lon="6.63415">
        <ele>623.3</ele>
        <time>2023-11-26T09:10:30Z</time>
      </trkpt>
      <trkpt lat="43.63883" lon="6.63415">
        <ele>623.1</ele>
        <time>2023-11-26T09:10:31Z</time>
      </trkpt>
      <trkpt lat="43.63882" lon="6.63415">
        <ele>623</ele>
        <time>2023-11-26T09:10:32Z</time>
      </trkpt>
      <trkpt lat="43.6388" lon="6.63415">
        <ele>622.9</ele>
        <time>2023-11-26T09:10:33Z</time>
      </trkpt>
      <trkpt lat="43.63879" lon="6.63415">
        <ele>622.9</ele>
        <time>2023-11-26T09:10:34Z</time>
      </trkpt>
      <trkpt lat="43.63877" lon="6.63415">
        <ele>622.9</ele>
        <time>2023-11-26T09:10:35Z</time>
      </trkpt>
      <trkpt lat="43.63875" lon="6.63415">
        <ele>622.8</ele>
        <time>2023-11-26T09:10:36Z</time>
      </trkpt>
      <trkpt lat="43.63874" lon="6.63414">
        <ele>622.8</ele>
        <time>2023-11-26T09:10:37Z</time>
      </trkpt>
      <trkpt lat="43.63873" lon="6.63414">
        <ele>622.7</ele>
        <time>2023-11-26T09:10:38Z</time>
      </trkpt>
      <trkpt lat="43.63872" lon="6.63414">
        <ele>622.7</ele>
        <time>2023-11-26T09:10:39Z</time>
      </trkpt>
      <trkpt lat="43.6387" lon="6.63414">
        <ele>622.7</ele>
        <time>2023-11-26T09:10:40Z</time>
      </trkpt>
      <trkpt lat="43.63869" lon="6.63414">
        <ele>622.7</ele>
        <time>2023-11-26T09:10:41Z</time>
      </trkpt>
      <trkpt lat="43.63867" lon="6.63415">
        <ele>622.6</ele>
        <time>2023-11-26T09:10:42Z</time>
      </trkpt>
      <trkpt lat="43.63865" lon="6.63415">
        <ele>622.6</ele>
        <time>2023-11-26T09:10:43Z</time>
      </trkpt>
      <trkpt lat="43.63864" lon="6.63415">
        <ele>622.5</ele>
        <time>2023-11-26T09:10:44Z</time>
      </trkpt>
      <trkpt lat="43.63862" lon="6.63415">
        <ele>622.5</ele>
        <time>2023-11-26T09:10:45Z</time>
      </trkpt>
      <trkpt lat="43.63861" lon="6.63414">
        <ele>622.4</ele>
        <time>2023-11-26T09:10:46Z</time>
      </trkpt>
      <trkpt lat="43.63859" lon="6.63414">
        <ele>622.4</ele>
        <time>2023-11-26T09:10:47Z</time>
      </trkpt>
      <trkpt lat="43.63857" lon="6.63414">
        <ele>622.3</ele>
        <time>2023-11-26T09:10:48Z</time>
      </trkpt>
      <trkpt lat="43.63856" lon="6.63414">
        <ele>622.3</ele>
        <time>2023-11-26T09:10:49Z</time>
      </trkpt>
      <trkpt lat="43.63855" lon="6.63414">
        <ele>622.3</ele>
        <time>2023-11-26T09:10:50Z</time>
      </trkpt>
      <trkpt lat="43.63854" lon="6.63414">
        <ele>622.3</ele>
        <time>2023-11-26T09:10:51Z</time>
      </trkpt>
      <trkpt lat="43.63853" lon="6.63414">
        <ele>622.3</ele>
        <time>2023-11-26T09:10:52Z</time>
      </trkpt>
      <trkpt lat="43.63852" lon="6.63414">
        <ele>622.3</ele>
        <time>2023-11-26T09:10:53Z</time>
      </trkpt>
      <trkpt lat="43.63851" lon="6.63413">
        <ele>622.3</ele>
        <time>2023-11-26T09:10:54Z</time>
      </trkpt>
      <trkpt lat="43.6385" lon="6.63412">
        <ele>622.3</ele>
        <time>2023-11-26T09:10:55Z</time>
      </trkpt>
      <trkpt lat="43.63849" lon="6.63413">
        <ele>622.2</ele>
        <time>2023-11-26T09:10:56Z</time>
      </trkpt>
      <trkpt lat="43.63848" lon="6.63413">
        <ele>622</ele>
        <time>2023-11-26T09:10:57Z</time>
      </trkpt>
      <trkpt lat="43.63846" lon="6.63413">
        <ele>622</ele>
        <time>2023-11-26T09:10:58Z</time>
      </trkpt>
      <trkpt lat="43.63845" lon="6.63414">
        <ele>621.9</ele>
        <time>2023-11-26T09:10:59Z</time>
      </trkpt>
      <trkpt lat="43.63843" lon="6.63414">
        <ele>621.8</ele>
        <time>2023-11-26T09:11:00Z</time>
      </trkpt>
      <trkpt lat="43.63842" lon="6.63414">
        <ele>621.7</ele>
        <time>2023-11-26T09:11:01Z</time>
      </trkpt>
      <trkpt lat="43.63841" lon="6.63414">
        <ele>621.6</ele>
        <time>2023-11-26T09:11:02Z</time>
      </trkpt>
      <trkpt lat="43.63839" lon="6.63414">
        <ele>621.5</ele>
        <time>2023-11-26T09:11:03Z</time>
      </trkpt>
      <trkpt lat="43.63838" lon="6.63414">
        <ele>621.4</ele>
        <time>2023-11-26T09:11:04Z</time>
      </trkpt>
      <trkpt lat="43.63837" lon="6.63414">
        <ele>621.4</ele>
        <time>2023-11-26T09:11:05Z</time>
      </trkpt>
      <trkpt lat="43.63836" lon="6.63414">
        <ele>621.4</ele>
        <time>2023-11-26T09:11:06Z</time>
      </trkpt>
      <trkpt lat="43.63835" lon="6.63414">
        <ele>621.4</ele>
        <time>2023-11-26T09:11:07Z</time>
      </trkpt>
      <trkpt lat="43.63833" lon="6.63415">
        <ele>621.3</ele>
        <time>2023-11-26T09:11:08Z</time>
      </trkpt>
      <trkpt lat="43.6383" lon="6.63415">
        <ele>621.1</ele>
        <time>2023-11-26T09:11:09Z</time>
      </trkpt>
      <trkpt lat="43.63829" lon="6.63416">
        <ele>621</ele>
        <time>2023-11-26T09:11:10Z</time>
      </trkpt>
      <trkpt lat="43.63827" lon="6.63416">
        <ele>621</ele>
        <time>2023-11-26T09:11:11Z</time>
      </trkpt>
      <trkpt lat="43.63826" lon="6.63417">
        <ele>620.7</ele>
        <time>2023-11-26T09:11:12Z</time>
      </trkpt>
      <trkpt lat="43.63824" lon="6.63417">
        <ele>620.6</ele>
        <time>2023-11-26T09:11:13Z</time>
      </trkpt>
      <trkpt lat="43.63823" lon="6.63417">
        <ele>620.5</ele>
        <time>2023-11-26T09:11:14Z</time>
      </trkpt>
      <trkpt lat="43.63822" lon="6.63418">
        <ele>620.4</ele>
        <time>2023-11-26T09:11:15Z</time>
      </trkpt>
      <trkpt lat="43.63821" lon="6.63418">
        <ele>620.3</ele>
        <time>2023-11-26T09:11:16Z</time>
      </trkpt>
      <trkpt lat="43.6382" lon="6.63419">
        <ele>620.2</ele>
        <time>2023-11-26T09:11:17Z</time>
      </trkpt>
      <trkpt lat="43.63819" lon="6.6342">
        <ele>620.1</ele>
        <time>2023-11-26T09:11:18Z</time>
      </trkpt>
      <trkpt lat="43.63817" lon="6.63421">
        <ele>620.1</ele>
        <time>2023-11-26T09:11:19Z</time>
      </trkpt>
      <trkpt lat="43.63816" lon="6.63421">
        <ele>620.1</ele>
        <time>2023-11-26T09:11:20Z</time>
      </trkpt>
      <trkpt lat="43.63815" lon="6.63422">
        <ele>620</ele>
        <time>2023-11-26T09:11:21Z</time>
      </trkpt>
      <trkpt lat="43.63814" lon="6.63423">
        <ele>619.9</ele>
        <time>2023-11-26T09:11:22Z</time>
      </trkpt>
      <trkpt lat="43.63813" lon="6.63425">
        <ele>619.7</ele>
        <time>2023-11-26T09:11:23Z</time>
      </trkpt>
      <trkpt lat="43.63812" lon="6.63426">
        <ele>619.6</ele>
        <time>2023-11-26T09:11:24Z</time>
      </trkpt>
      <trkpt lat="43.6381" lon="6.63427">
        <ele>619.5</ele>
        <time>2023-11-26T09:11:25Z</time>
      </trkpt>
      <trkpt lat="43.63809" lon="6.63428">
        <ele>619.4</ele>
        <time>2023-11-26T09:11:26Z</time>
      </trkpt>
      <trkpt lat="43.63808" lon="6.63429">
        <ele>619.4</ele>
        <time>2023-11-26T09:11:27Z</time>
      </trkpt>
      <trkpt lat="43.63807" lon="6.6343">
        <ele>619.4</ele>
        <time>2023-11-26T09:11:28Z</time>
      </trkpt>
      <trkpt lat="43.63806" lon="6.63432">
        <ele>619.4</ele>
        <time>2023-11-26T09:11:29Z</time>
      </trkpt>
      <trkpt lat="43.63805" lon="6.63434">
        <ele>619.4</ele>
        <time>2023-11-26T09:11:30Z</time>
      </trkpt>
      <trkpt lat="43.63804" lon="6.63435">
        <ele>619.4</ele>
        <time>2023-11-26T09:11:31Z</time>
      </trkpt>
      <trkpt lat="43.63803" lon="6.63436">
        <ele>619.4</ele>
        <time>2023-11-26T09:11:32Z</time>
      </trkpt>
      <trkpt lat="43.63802" lon="6.63437">
        <ele>619.3</ele>
        <time>2023-11-26T09:11:33Z</time>
      </trkpt>
      <trkpt lat="43.63801" lon="6.63439">
        <ele>619.3</ele>
        <time>2023-11-26T09:11:34Z</time>
      </trkpt>
      <trkpt lat="43.63801" lon="6.63441">
        <ele>619.2</ele>
        <time>2023-11-26T09:11:35Z</time>
      </trkpt>
      <trkpt lat="43.638" lon="6.63442">
        <ele>619.2</ele>
        <time>2023-11-26T09:11:36Z</time>
      </trkpt>
      <trkpt lat="43.638" lon="6.63444">
        <ele>619.2</ele>
        <time>2023-11-26T09:11:37Z</time>
      </trkpt>
      <trkpt lat="43.63799" lon="6.63445">
        <ele>619.2</ele>
        <time>2023-11-26T09:11:38Z</time>
      </trkpt>
      <trkpt lat="43.63798" lon="6.63447">
        <ele>619.2</ele>
        <time>2023-11-26T09:11:39Z</time>
      </trkpt>
      <trkpt lat="43.63797" lon="6.63448">
        <ele>619.1</ele>
        <time>2023-11-26T09:11:40Z</time>
      </trkpt>
      <trkpt lat="43.63796" lon="6.63449">
        <ele>619.1</ele>
        <time>2023-11-26T09:11:41Z</time>
      </trkpt>
      <trkpt lat="43.63796" lon="6.63451">
        <ele>619</ele>
        <time>2023-11-26T09:11:42Z</time>
      </trkpt>
      <trkpt lat="43.63796" lon="6.63452">
        <ele>619</ele>
        <time>2023-11-26T09:11:43Z</time>
      </trkpt>
      <trkpt lat="43.63795" lon="6.63454">
        <ele>619</ele>
        <time>2023-11-26T09:11:44Z</time>
      </trkpt>
      <trkpt lat="43.63795" lon="6.63455">
        <ele>619</ele>
        <time>2023-11-26T09:11:45Z</time>
      </trkpt>
      <trkpt lat="43.63794" lon="6.63456">
        <ele>619</ele>
        <time>2023-11-26T09:11:46Z</time>
      </trkpt>
      <trkpt lat="43.63793" lon="6.63458">
        <ele>619</ele>
        <time>2023-11-26T09:11:47Z</time>
      </trkpt>
      <trkpt lat="43.63793" lon="6.63459">
        <ele>618.9</ele>
        <time>2023-11-26T09:11:48Z</time>
      </trkpt>
      <trkpt lat="43.63793" lon="6.6346">
        <ele>618.9</ele>
        <time>2023-11-26T09:11:49Z</time>
      </trkpt>
      <trkpt lat="43.63792" lon="6.63461">
        <ele>619</ele>
        <time>2023-11-26T09:11:50Z</time>
      </trkpt>
      <trkpt lat="43.63791" lon="6.63462">
        <ele>619.1</ele>
        <time>2023-11-26T09:11:51Z</time>
      </trkpt>
      <trkpt lat="43.63791" lon="6.63462">
        <ele>619.2</ele>
        <time>2023-11-26T09:11:52Z</time>
      </trkpt>
      <trkpt lat="43.6379" lon="6.63462">
        <ele>619.3</ele>
        <time>2023-11-26T09:11:53Z</time>
      </trkpt>
      <trkpt lat="43.6379" lon="6.63462">
        <ele>619.2</ele>
        <time>2023-11-26T09:11:54Z</time>
      </trkpt>
      <trkpt lat="43.6379" lon="6.63462">
        <ele>619</ele>
        <time>2023-11-26T09:11:55Z</time>
      </trkpt>
      <trkpt lat="43.63789" lon="6.63462">
        <ele>619</ele>
        <time>2023-11-26T09:11:56Z</time>
      </trkpt>
      <trkpt lat="43.63789" lon="6.63463">
        <ele>618.9</ele>
        <time>2023-11-26T09:11:57Z</time>
      </trkpt>
      <trkpt lat="43.63789" lon="6.63464">
        <ele>618.9</ele>
        <time>2023-11-26T09:11:58Z</time>
      </trkpt>
      <trkpt lat="43.63789" lon="6.63465">
        <ele>618.8</ele>
        <time>2023-11-26T09:11:59Z</time>
      </trkpt>
      <trkpt lat="43.63788" lon="6.63465">
        <ele>618.8</ele>
        <time>2023-11-26T09:12:00Z</time>
      </trkpt>
      <trkpt lat="43.63788" lon="6.63465">
        <ele>618.8</ele>
        <time>2023-11-26T09:12:01Z</time>
      </trkpt>
      <trkpt lat="43.63788" lon="6.63466">
        <ele>618.8</ele>
        <time>2023-11-26T09:12:02Z</time>
      </trkpt>
      <trkpt lat="43.63788" lon="6.63467">
        <ele>618.8</ele>
        <time>2023-11-26T09:12:03Z</time>
      </trkpt>
      <trkpt lat="43.63787" lon="6.63467">
        <ele>618.8</ele>
        <time>2023-11-26T09:12:04Z</time>
      </trkpt>
      <trkpt lat="43.63788" lon="6.63468">
        <ele>618.8</ele>
        <time>2023-11-26T09:12:05Z</time>
      </trkpt>
      <trkpt lat="43.63787" lon="6.63469">
        <ele>618.8</ele>
        <time>2023-11-26T09:12:06Z</time>
      </trkpt>
      <trkpt lat="43.63787" lon="6.6347">
        <ele>618.9</ele>
        <time>2023-11-26T09:12:07Z</time>
      </trkpt>
      <trkpt lat="43.63786" lon="6.63471">
        <ele>618.9</ele>
        <time>2023-11-26T09:12:08Z</time>
      </trkpt>
      <trkpt lat="43.63786" lon="6.63472">
        <ele>619</ele>
        <time>2023-11-26T09:12:09Z</time>
      </trkpt>
      <trkpt lat="43.63786" lon="6.63473">
        <ele>619</ele>
        <time>2023-11-26T09:12:10Z</time>
      </trkpt>
      <trkpt lat="43.63785" lon="6.63473">
        <ele>619</ele>
        <time>2023-11-26T09:12:11Z</time>
      </trkpt>
      <trkpt lat="43.63786" lon="6.63473">
        <ele>619.1</ele>
        <time>2023-11-26T09:12:12Z</time>
      </trkpt>
      <trkpt lat="43.63786" lon="6.63474">
        <ele>619.1</ele>
        <time>2023-11-26T09:12:13Z</time>
      </trkpt>
      <trkpt lat="43.63786" lon="6.63474">
        <ele>619.1</ele>
        <time>2023-11-26T09:12:14Z</time>
      </trkpt>
      <trkpt lat="43.63785" lon="6.63475">
        <ele>619.1</ele>
        <time>2023-11-26T09:12:15Z</time>
      </trkpt>
      <trkpt lat="43.63784" lon="6.63476">
        <ele>619.1</ele>
        <time>2023-11-26T09:12:16Z</time>
      </trkpt>
      <trkpt lat="43.63783" lon="6.63477">
        <ele>619</ele>
        <time>2023-11-26T09:12:17Z</time>
      </trkpt>
      <trkpt lat="43.63783" lon="6.63478">
        <ele>619</ele>
        <time>2023-11-26T09:12:18Z</time>
      </trkpt>
      <trkpt lat="43.63782" lon="6.63479">
        <ele>619.1</ele>
        <time>2023-11-26T09:12:19Z</time>
      </trkpt>
      <trkpt lat="43.63782" lon="6.6348">
        <ele>619.2</ele>
        <time>2023-11-26T09:12:20Z</time>
      </trkpt>
      <trkpt lat="43.63781" lon="6.63481">
        <ele>619.1</ele>
        <time>2023-11-26T09:12:21Z</time>
      </trkpt>
      <trkpt lat="43.6378" lon="6.63482">
        <ele>619.1</ele>
        <time>2023-11-26T09:12:22Z</time>
      </trkpt>
      <trkpt lat="43.63779" lon="6.63483">
        <ele>619</ele>
        <time>2023-11-26T09:12:23Z</time>
      </trkpt>
      <trkpt lat="43.63778" lon="6.63483">
        <ele>619.1</ele>
        <time>2023-11-26T09:12:24Z</time>
      </trkpt>
      <trkpt lat="43.63777" lon="6.63483">
        <ele>619.1</ele>
        <time>2023-11-26T09:12:25Z</time>
      </trkpt>
      <trkpt lat="43.63777" lon="6.63483">
        <ele>619.1</ele>
        <time>2023-11-26T09:12:26Z</time>
      </trkpt>
      <trkpt lat="43.63776" lon="6.63483">
        <ele>619.1</ele>
        <time>2023-11-26T09:12:27Z</time>
      </trkpt>
      <trkpt lat="43.63775" lon="6.63483">
        <ele>619</ele>
        <time>2023-11-26T09:12:28Z</time>
      </trkpt>
      <trkpt lat="43.63774" lon="6.63483">
        <ele>619</ele>
        <time>2023-11-26T09:12:29Z</time>
      </trkpt>
      <trkpt lat="43.63773" lon="6.63483">
        <ele>619</ele>
        <time>2023-11-26T09:12:30Z</time>
      </trkpt>
      <trkpt lat="43.63772" lon="6.63484">
        <ele>619.1</ele>
        <time>2023-11-26T09:12:31Z</time>
      </trkpt>
      <trkpt lat="43.63771" lon="6.63483">
        <ele>619.1</ele>
        <time>2023-11-26T09:12:32Z</time>
      </trkpt>
      <trkpt lat="43.6377" lon="6.63484">
        <ele>619.2</ele>
        <time>2023-11-26T09:12:33Z</time>
      </trkpt>
      <trkpt lat="43.63769" lon="6.63484">
        <ele>619.1</ele>
        <time>2023-11-26T09:12:34Z</time>
      </trkpt>
      <trkpt lat="43.63768" lon="6.63484">
        <ele>619.1</ele>
        <time>2023-11-26T09:12:35Z</time>
      </trkpt>
      <trkpt lat="43.63767" lon="6.63484">
        <ele>619.1</ele>
        <time>2023-11-26T09:12:36Z</time>
      </trkpt>
      <trkpt lat="43.63766" lon="6.63484">
        <ele>619.1</ele>
        <time>2023-11-26T09:12:37Z</time>
      </trkpt>
      <trkpt lat="43.63765" lon="6.63484">
        <ele>619.1</ele>
        <time>2023-11-26T09:12:38Z</time>
      </trkpt>
      <trkpt lat="43.63764" lon="6.63484">
        <ele>619.1</ele>
        <time>2023-11-26T09:12:39Z</time>
      </trkpt>
      <trkpt lat="43.63763" lon="6.63484">
        <ele>619.1</ele>
        <time>2023-11-26T09:12:40Z</time>
      </trkpt>
      <trkpt lat="43.63762" lon="6.63484">
        <ele>619</ele>
        <time>2023-11-26T09:12:41Z</time>
      </trkpt>
      <trkpt lat="43.63761" lon="6.63484">
        <ele>619</ele>
        <time>2023-11-26T09:12:42Z</time>
      </trkpt>
      <trkpt lat="43.6376" lon="6.63484">
        <ele>619.1</ele>
        <time>2023-11-26T09:12:43Z</time>
      </trkpt>
      <trkpt lat="43.63759" lon="6.63484">
        <ele>619.1</ele>
        <time>2023-11-26T09:12:44Z</time>
      </trkpt>
      <trkpt lat="43.63758" lon="6.63485">
        <ele>619.1</ele>
        <time>2023-11-26T09:12:45Z</time>
      </trkpt>
      <trkpt lat="43.63757" lon="6.63485">
        <ele>619</ele>
        <time>2023-11-26T09:12:46Z</time>
      </trkpt>
      <trkpt lat="43.63756" lon="6.63485">
        <ele>619</ele>
        <time>2023-11-26T09:12:47Z</time>
      </trkpt>
      <trkpt lat="43.63755" lon="6.63486">
        <ele>618.9</ele>
        <time>2023-11-26T09:12:48Z</time>
      </trkpt>
      <trkpt lat="43.63754" lon="6.63486">
        <ele>618.8</ele>
        <time>2023-11-26T09:12:49Z</time>
      </trkpt>
      <trkpt lat="43.63753" lon="6.63486">
        <ele>618.8</ele>
        <time>2023-11-26T09:12:50Z</time>
      </trkpt>
      <trkpt lat="43.63752" lon="6.63487">
        <ele>618.7</ele>
        <time>2023-11-26T09:12:51Z</time>
      </trkpt>
      <trkpt lat="43.63751" lon="6.63487">
        <ele>618.8</ele>
        <time>2023-11-26T09:12:52Z</time>
      </trkpt>
      <trkpt lat="43.6375" lon="6.63487">
        <ele>619</ele>
        <time>2023-11-26T09:12:53Z</time>
      </trkpt>
      <trkpt lat="43.63749" lon="6.63488">
        <ele>619</ele>
        <time>2023-11-26T09:12:54Z</time>
      </trkpt>
      <trkpt lat="43.63748" lon="6.63488">
        <ele>619</ele>
        <time>2023-11-26T09:12:55Z</time>
      </trkpt>
      <trkpt lat="43.63747" lon="6.63489">
        <ele>619.1</ele>
        <time>2023-11-26T09:12:56Z</time>
      </trkpt>
      <trkpt lat="43.63746" lon="6.63489">
        <ele>619</ele>
        <time>2023-11-26T09:12:57Z</time>
      </trkpt>
      <trkpt lat="43.63744" lon="6.63489">
        <ele>619.1</ele>
        <time>2023-11-26T09:12:58Z</time>
      </trkpt>
      <trkpt lat="43.63743" lon="6.63489">
        <ele>618.9</ele>
        <time>2023-11-26T09:12:59Z</time>
      </trkpt>
      <trkpt lat="43.63742" lon="6.63489">
        <ele>619</ele>
        <time>2023-11-26T09:13:00Z</time>
      </trkpt>
      <trkpt lat="43.63741" lon="6.6349">
        <ele>619.1</ele>
        <time>2023-11-26T09:13:01Z</time>
      </trkpt>
      <trkpt lat="43.6374" lon="6.6349">
        <ele>619.1</ele>
        <time>2023-11-26T09:13:02Z</time>
      </trkpt>
      <trkpt lat="43.63739" lon="6.6349">
        <ele>619.1</ele>
        <time>2023-11-26T09:13:03Z</time>
      </trkpt>
      <trkpt lat="43.63738" lon="6.6349">
        <ele>619</ele>
        <time>2023-11-26T09:13:04Z</time>
      </trkpt>
      <trkpt lat="43.63736" lon="6.63491">
        <ele>618.9</ele>
        <time>2023-11-26T09:13:05Z</time>
      </trkpt>
      <trkpt lat="43.63735" lon="6.63491">
        <ele>618.9</ele>
        <time>2023-11-26T09:13:06Z</time>
      </trkpt>
      <trkpt lat="43.63734" lon="6.63491">
        <ele>618.9</ele>
        <time>2023-11-26T09:13:07Z</time>
      </trkpt>
      <trkpt lat="43.63733" lon="6.63491">
        <ele>619</ele>
        <time>2023-11-26T09:13:08Z</time>
      </trkpt>
      <trkpt lat="43.63732" lon="6.63492">
        <ele>618.9</ele>
        <time>2023-11-26T09:13:09Z</time>
      </trkpt>
      <trkpt lat="43.63731" lon="6.63492">
        <ele>618.9</ele>
        <time>2023-11-26T09:13:10Z</time>
      </trkpt>
      <trkpt lat="43.6373" lon="6.63492">
        <ele>618.8</ele>
        <time>2023-11-26T09:13:11Z</time>
      </trkpt>
      <trkpt lat="43.63728" lon="6.63492">
        <ele>618.8</ele>
        <time>2023-11-26T09:13:12Z</time>
      </trkpt>
      <trkpt lat="43.63727" lon="6.63491">
        <ele>618.7</ele>
        <time>2023-11-26T09:13:13Z</time>
      </trkpt>
      <trkpt lat="43.63726" lon="6.63491">
        <ele>618.6</ele>
        <time>2023-11-26T09:13:14Z</time>
      </trkpt>
      <trkpt lat="43.63725" lon="6.63491">
        <ele>618.6</ele>
        <time>2023-11-26T09:13:15Z</time>
      </trkpt>
      <trkpt lat="43.63724" lon="6.6349">
        <ele>618.6</ele>
        <time>2023-11-26T09:13:16Z</time>
      </trkpt>
      <trkpt lat="43.63723" lon="6.63489">
        <ele>618.5</ele>
        <time>2023-11-26T09:13:17Z</time>
      </trkpt>
      <trkpt lat="43.63722" lon="6.63489">
        <ele>618.5</ele>
        <time>2023-11-26T09:13:18Z</time>
      </trkpt>
      <trkpt lat="43.63721" lon="6.63487">
        <ele>618.5</ele>
        <time>2023-11-26T09:13:19Z</time>
      </trkpt>
      <trkpt lat="43.6372" lon="6.63486">
        <ele>618.5</ele>
        <time>2023-11-26T09:13:20Z</time>
      </trkpt>
      <trkpt lat="43.63719" lon="6.63485">
        <ele>618.5</ele>
        <time>2023-11-26T09:13:21Z</time>
      </trkpt>
      <trkpt lat="43.63718" lon="6.63484">
        <ele>618.6</ele>
        <time>2023-11-26T09:13:22Z</time>
      </trkpt>
      <trkpt lat="43.63717" lon="6.63483">
        <ele>618.6</ele>
        <time>2023-11-26T09:13:23Z</time>
      </trkpt>
      <trkpt lat="43.63717" lon="6.63482">
        <ele>618.6</ele>
        <time>2023-11-26T09:13:24Z</time>
      </trkpt>
      <trkpt lat="43.63716" lon="6.6348">
        <ele>618.6</ele>
        <time>2023-11-26T09:13:25Z</time>
      </trkpt>
      <trkpt lat="43.63715" lon="6.63479">
        <ele>618.6</ele>
        <time>2023-11-26T09:13:26Z</time>
      </trkpt>
      <trkpt lat="43.63714" lon="6.63478">
        <ele>618.6</ele>
        <time>2023-11-26T09:13:27Z</time>
      </trkpt>
      <trkpt lat="43.63714" lon="6.63476">
        <ele>618.6</ele>
        <time>2023-11-26T09:13:28Z</time>
      </trkpt>
      <trkpt lat="43.63713" lon="6.63475">
        <ele>618.6</ele>
        <time>2023-11-26T09:13:29Z</time>
      </trkpt>
      <trkpt lat="43.63713" lon="6.63473">
        <ele>618.6</ele>
        <time>2023-11-26T09:13:30Z</time>
      </trkpt>
      <trkpt lat="43.63712" lon="6.63472">
        <ele>618.6</ele>
        <time>2023-11-26T09:13:31Z</time>
      </trkpt>
      <trkpt lat="43.63711" lon="6.6347">
        <ele>618.7</ele>
        <time>2023-11-26T09:13:32Z</time>
      </trkpt>
      <trkpt lat="43.63711" lon="6.63469">
        <ele>618.8</ele>
        <time>2023-11-26T09:13:33Z</time>
      </trkpt>
      <trkpt lat="43.6371" lon="6.63468">
        <ele>618.8</ele>
        <time>2023-11-26T09:13:34Z</time>
      </trkpt>
      <trkpt lat="43.6371" lon="6.63467">
        <ele>618.9</ele>
        <time>2023-11-26T09:13:35Z</time>
      </trkpt>
      <trkpt lat="43.6371" lon="6.63465">
        <ele>618.9</ele>
        <time>2023-11-26T09:13:36Z</time>
      </trkpt>
      <trkpt lat="43.6371" lon="6.63463">
        <ele>618.8</ele>
        <time>2023-11-26T09:13:37Z</time>
      </trkpt>
      <trkpt lat="43.63709" lon="6.63462">
        <ele>618.8</ele>
        <time>2023-11-26T09:13:38Z</time>
      </trkpt>
      <trkpt lat="43.63709" lon="6.63461">
        <ele>618.9</ele>
        <time>2023-11-26T09:13:39Z</time>
      </trkpt>
      <trkpt lat="43.63709" lon="6.63459">
        <ele>618.9</ele>
        <time>2023-11-26T09:13:40Z</time>
      </trkpt>
      <trkpt lat="43.63709" lon="6.63458">
        <ele>618.9</ele>
        <time>2023-11-26T09:13:41Z</time>
      </trkpt>
      <trkpt lat="43.63708" lon="6.63457">
        <ele>618.9</ele>
        <time>2023-11-26T09:13:42Z</time>
      </trkpt>
      <trkpt lat="43.63707" lon="6.63456">
        <ele>618.9</ele>
        <time>2023-11-26T09:13:43Z</time>
      </trkpt>
      <trkpt lat="43.63707" lon="6.63455">
        <ele>618.8</ele>
        <time>2023-11-26T09:13:44Z</time>
      </trkpt>
      <trkpt lat="43.63707" lon="6.63453">
        <ele>618.8</ele>
        <time>2023-11-26T09:13:45Z</time>
      </trkpt>
      <trkpt lat="43.63706" lon="6.63452">
        <ele>618.7</ele>
        <time>2023-11-26T09:13:46Z</time>
      </trkpt>
      <trkpt lat="43.63705" lon="6.63451">
        <ele>618.7</ele>
        <time>2023-11-26T09:13:47Z</time>
      </trkpt>
      <trkpt lat="43.63704" lon="6.6345">
        <ele>618.7</ele>
        <time>2023-11-26T09:13:48Z</time>
      </trkpt>
      <trkpt lat="43.63703" lon="6.63448">
        <ele>618.6</ele>
        <time>2023-11-26T09:13:49Z</time>
      </trkpt>
      <trkpt lat="43.63704" lon="6.63446">
        <ele>618.6</ele>
        <time>2023-11-26T09:13:50Z</time>
      </trkpt>
      <trkpt lat="43.63703" lon="6.63444">
        <ele>618.5</ele>
        <time>2023-11-26T09:13:51Z</time>
      </trkpt>
      <trkpt lat="43.63703" lon="6.63442">
        <ele>618.5</ele>
        <time>2023-11-26T09:13:52Z</time>
      </trkpt>
      <trkpt lat="43.63703" lon="6.63441">
        <ele>618.4</ele>
        <time>2023-11-26T09:13:53Z</time>
      </trkpt>
      <trkpt lat="43.63702" lon="6.63439">
        <ele>618.3</ele>
        <time>2023-11-26T09:13:54Z</time>
      </trkpt>
      <trkpt lat="43.63702" lon="6.63437">
        <ele>618.3</ele>
        <time>2023-11-26T09:13:55Z</time>
      </trkpt>
      <trkpt lat="43.63702" lon="6.63436">
        <ele>618.2</ele>
        <time>2023-11-26T09:13:56Z</time>
      </trkpt>
      <trkpt lat="43.63701" lon="6.63434">
        <ele>618.1</ele>
        <time>2023-11-26T09:13:57Z</time>
      </trkpt>
      <trkpt lat="43.63701" lon="6.63433">
        <ele>618.1</ele>
        <time>2023-11-26T09:13:58Z</time>
      </trkpt>
      <trkpt lat="43.637" lon="6.63431">
        <ele>618.1</ele>
        <time>2023-11-26T09:13:59Z</time>
      </trkpt>
      <trkpt lat="43.63699" lon="6.6343">
        <ele>618</ele>
        <time>2023-11-26T09:14:00Z</time>
      </trkpt>
      <trkpt lat="43.63698" lon="6.63429">
        <ele>617.8</ele>
        <time>2023-11-26T09:14:01Z</time>
      </trkpt>
      <trkpt lat="43.63697" lon="6.63427">
        <ele>617.7</ele>
        <time>2023-11-26T09:14:02Z</time>
      </trkpt>
      <trkpt lat="43.63696" lon="6.63426">
        <ele>617.6</ele>
        <time>2023-11-26T09:14:03Z</time>
      </trkpt>
      <trkpt lat="43.63695" lon="6.63425">
        <ele>617.5</ele>
        <time>2023-11-26T09:14:04Z</time>
      </trkpt>
      <trkpt lat="43.63695" lon="6.63423">
        <ele>617.5</ele>
        <time>2023-11-26T09:14:05Z</time>
      </trkpt>
      <trkpt lat="43.63694" lon="6.63421">
        <ele>617.4</ele>
        <time>2023-11-26T09:14:06Z</time>
      </trkpt>
      <trkpt lat="43.63693" lon="6.63419">
        <ele>617.3</ele>
        <time>2023-11-26T09:14:07Z</time>
      </trkpt>
      <trkpt lat="43.63693" lon="6.63418">
        <ele>617.3</ele>
        <time>2023-11-26T09:14:08Z</time>
      </trkpt>
      <trkpt lat="43.63692" lon="6.63416">
        <ele>617.2</ele>
        <time>2023-11-26T09:14:09Z</time>
      </trkpt>
      <trkpt lat="43.63692" lon="6.63415">
        <ele>617</ele>
        <time>2023-11-26T09:14:10Z</time>
      </trkpt>
      <trkpt lat="43.63691" lon="6.63414">
        <ele>616.8</ele>
        <time>2023-11-26T09:14:11Z</time>
      </trkpt>
      <trkpt lat="43.6369" lon="6.63412">
        <ele>616.6</ele>
        <time>2023-11-26T09:14:12Z</time>
      </trkpt>
      <trkpt lat="43.63689" lon="6.6341">
        <ele>616.6</ele>
        <time>2023-11-26T09:14:13Z</time>
      </trkpt>
      <trkpt lat="43.63689" lon="6.63408">
        <ele>616.5</ele>
        <time>2023-11-26T09:14:14Z</time>
      </trkpt>
      <trkpt lat="43.63689" lon="6.63406">
        <ele>616.3</ele>
        <time>2023-11-26T09:14:15Z</time>
      </trkpt>
      <trkpt lat="43.63688" lon="6.63404">
        <ele>616.2</ele>
        <time>2023-11-26T09:14:16Z</time>
      </trkpt>
      <trkpt lat="43.63687" lon="6.63403">
        <ele>616.2</ele>
        <time>2023-11-26T09:14:17Z</time>
      </trkpt>
      <trkpt lat="43.63687" lon="6.63401">
        <ele>616.1</ele>
        <time>2023-11-26T09:14:18Z</time>
      </trkpt>
      <trkpt lat="43.63686" lon="6.634">
        <ele>615.9</ele>
        <time>2023-11-26T09:14:19Z</time>
      </trkpt>
      <trkpt lat="43.63685" lon="6.63398">
        <ele>615.8</ele>
        <time>2023-11-26T09:14:20Z</time>
      </trkpt>
      <trkpt lat="43.63684" lon="6.63397">
        <ele>615.7</ele>
        <time>2023-11-26T09:14:21Z</time>
      </trkpt>
      <trkpt lat="43.63683" lon="6.63396">
        <ele>615.6</ele>
        <time>2023-11-26T09:14:22Z</time>
      </trkpt>
      <trkpt lat="43.63682" lon="6.63395">
        <ele>615.6</ele>
        <time>2023-11-26T09:14:23Z</time>
      </trkpt>
      <trkpt lat="43.63681" lon="6.63394">
        <ele>615.5</ele>
        <time>2023-11-26T09:14:24Z</time>
      </trkpt>
      <trkpt lat="43.6368" lon="6.63393">
        <ele>615.5</ele>
        <time>2023-11-26T09:14:25Z</time>
      </trkpt>
      <trkpt lat="43.63679" lon="6.63392">
        <ele>615.4</ele>
        <time>2023-11-26T09:14:26Z</time>
      </trkpt>
      <trkpt lat="43.63678" lon="6.63392">
        <ele>615.3</ele>
        <time>2023-11-26T09:14:27Z</time>
      </trkpt>
      <trkpt lat="43.63677" lon="6.63393">
        <ele>615.2</ele>
        <time>2023-11-26T09:14:28Z</time>
      </trkpt>
      <trkpt lat="43.63676" lon="6.63393">
        <ele>615.2</ele>
        <time>2023-11-26T09:14:29Z</time>
      </trkpt>
      <trkpt lat="43.63675" lon="6.63393">
        <ele>615.1</ele>
        <time>2023-11-26T09:14:30Z</time>
      </trkpt>
      <trkpt lat="43.63673" lon="6.63393">
        <ele>614.8</ele>
        <time>2023-11-26T09:14:31Z</time>
      </trkpt>
      <trkpt lat="43.63672" lon="6.63394">
        <ele>614.6</ele>
        <time>2023-11-26T09:14:32Z</time>
      </trkpt>
      <trkpt lat="43.6367" lon="6.63394">
        <ele>614.5</ele>
        <time>2023-11-26T09:14:33Z</time>
      </trkpt>
      <trkpt lat="43.63669" lon="6.63395">
        <ele>614.3</ele>
        <time>2023-11-26T09:14:34Z</time>
      </trkpt>
      <trkpt lat="43.63668" lon="6.63396">
        <ele>614.1</ele>
        <time>2023-11-26T09:14:35Z</time>
      </trkpt>
      <trkpt lat="43.63667" lon="6.63396">
        <ele>614</ele>
        <time>2023-11-26T09:14:36Z</time>
      </trkpt>
      <trkpt lat="43.63666" lon="6.63397">
        <ele>613.9</ele>
        <time>2023-11-26T09:14:37Z</time>
      </trkpt>
      <trkpt lat="43.63665" lon="6.63398">
        <ele>613.8</ele>
        <time>2023-11-26T09:14:38Z</time>
      </trkpt>
      <trkpt lat="43.63664" lon="6.63399">
        <ele>613.6</ele>
        <time>2023-11-26T09:14:39Z</time>
      </trkpt>
      <trkpt lat="43.63663" lon="6.634">
        <ele>613.5</ele>
        <time>2023-11-26T09:14:40Z</time>
      </trkpt>
      <trkpt lat="43.63661" lon="6.634">
        <ele>613.3</ele>
        <time>2023-11-26T09:14:41Z</time>
      </trkpt>
      <trkpt lat="43.6366" lon="6.63401">
        <ele>613</ele>
        <time>2023-11-26T09:14:42Z</time>
      </trkpt>
      <trkpt lat="43.63659" lon="6.63402">
        <ele>612.8</ele>
        <time>2023-11-26T09:14:43Z</time>
      </trkpt>
      <trkpt lat="43.63658" lon="6.63403">
        <ele>612.7</ele>
        <time>2023-11-26T09:14:44Z</time>
      </trkpt>
      <trkpt lat="43.63657" lon="6.63403">
        <ele>612.6</ele>
        <time>2023-11-26T09:14:45Z</time>
      </trkpt>
      <trkpt lat="43.63656" lon="6.63404">
        <ele>612.4</ele>
        <time>2023-11-26T09:14:46Z</time>
      </trkpt>
      <trkpt lat="43.63654" lon="6.63404">
        <ele>612.3</ele>
        <time>2023-11-26T09:14:47Z</time>
      </trkpt>
      <trkpt lat="43.63653" lon="6.63404">
        <ele>612.2</ele>
        <time>2023-11-26T09:14:48Z</time>
      </trkpt>
      <trkpt lat="43.63652" lon="6.63405">
        <ele>612.1</ele>
        <time>2023-11-26T09:14:49Z</time>
      </trkpt>
      <trkpt lat="43.6365" lon="6.63404">
        <ele>612</ele>
        <time>2023-11-26T09:14:50Z</time>
      </trkpt>
      <trkpt lat="43.63648" lon="6.63403">
        <ele>611.9</ele>
        <time>2023-11-26T09:14:51Z</time>
      </trkpt>
      <trkpt lat="43.63647" lon="6.63403">
        <ele>611.7</ele>
        <time>2023-11-26T09:14:52Z</time>
      </trkpt>
      <trkpt lat="43.63646" lon="6.63402">
        <ele>611.5</ele>
        <time>2023-11-26T09:14:53Z</time>
      </trkpt>
      <trkpt lat="43.63645" lon="6.63402">
        <ele>611.4</ele>
        <time>2023-11-26T09:14:54Z</time>
      </trkpt>
      <trkpt lat="43.63643" lon="6.63402">
        <ele>611.3</ele>
        <time>2023-11-26T09:14:55Z</time>
      </trkpt>
      <trkpt lat="43.63642" lon="6.63401">
        <ele>611.3</ele>
        <time>2023-11-26T09:14:56Z</time>
      </trkpt>
      <trkpt lat="43.63641" lon="6.634">
        <ele>611.1</ele>
        <time>2023-11-26T09:14:57Z</time>
      </trkpt>
      <trkpt lat="43.6364" lon="6.634">
        <ele>611</ele>
        <time>2023-11-26T09:14:58Z</time>
      </trkpt>
      <trkpt lat="43.63638" lon="6.63399">
        <ele>610.9</ele>
        <time>2023-11-26T09:14:59Z</time>
      </trkpt>
      <trkpt lat="43.63637" lon="6.63399">
        <ele>610.7</ele>
        <time>2023-11-26T09:15:00Z</time>
      </trkpt>
      <trkpt lat="43.63636" lon="6.63398">
        <ele>610.6</ele>
        <time>2023-11-26T09:15:01Z</time>
      </trkpt>
      <trkpt lat="43.63635" lon="6.63398">
        <ele>610.5</ele>
        <time>2023-11-26T09:15:02Z</time>
      </trkpt>
      <trkpt lat="43.63634" lon="6.63397">
        <ele>610.3</ele>
        <time>2023-11-26T09:15:03Z</time>
      </trkpt>
      <trkpt lat="43.63632" lon="6.63396">
        <ele>610.1</ele>
        <time>2023-11-26T09:15:04Z</time>
      </trkpt>
      <trkpt lat="43.63631" lon="6.63395">
        <ele>610</ele>
        <time>2023-11-26T09:15:05Z</time>
      </trkpt>
      <trkpt lat="43.6363" lon="6.63395">
        <ele>609.9</ele>
        <time>2023-11-26T09:15:06Z</time>
      </trkpt>
      <trkpt lat="43.63629" lon="6.63394">
        <ele>609.8</ele>
        <time>2023-11-26T09:15:07Z</time>
      </trkpt>
      <trkpt lat="43.63628" lon="6.63393">
        <ele>609.6</ele>
        <time>2023-11-26T09:15:08Z</time>
      </trkpt>
      <trkpt lat="43.63627" lon="6.63393">
        <ele>609.7</ele>
        <time>2023-11-26T09:15:09Z</time>
      </trkpt>
      <trkpt lat="43.63626" lon="6.63392">
        <ele>609.7</ele>
        <time>2023-11-26T09:15:10Z</time>
      </trkpt>
      <trkpt lat="43.63625" lon="6.63391">
        <ele>609.8</ele>
        <time>2023-11-26T09:15:11Z</time>
      </trkpt>
      <trkpt lat="43.63623" lon="6.6339">
        <ele>609.8</ele>
        <time>2023-11-26T09:15:12Z</time>
      </trkpt>
      <trkpt lat="43.63622" lon="6.6339">
        <ele>609.8</ele>
        <time>2023-11-26T09:15:13Z</time>
      </trkpt>
      <trkpt lat="43.63621" lon="6.63389">
        <ele>609.7</ele>
        <time>2023-11-26T09:15:14Z</time>
      </trkpt>
      <trkpt lat="43.6362" lon="6.63388">
        <ele>609.8</ele>
        <time>2023-11-26T09:15:15Z</time>
      </trkpt>
      <trkpt lat="43.63619" lon="6.63387">
        <ele>609.7</ele>
        <time>2023-11-26T09:15:16Z</time>
      </trkpt>
      <trkpt lat="43.63618" lon="6.63386">
        <ele>609.7</ele>
        <time>2023-11-26T09:15:17Z</time>
      </trkpt>
      <trkpt lat="43.63617" lon="6.63385">
        <ele>609.7</ele>
        <time>2023-11-26T09:15:18Z</time>
      </trkpt>
      <trkpt lat="43.63616" lon="6.63384">
        <ele>609.7</ele>
        <time>2023-11-26T09:15:19Z</time>
      </trkpt>
      <trkpt lat="43.63615" lon="6.63383">
        <ele>609.8</ele>
        <time>2023-11-26T09:15:20Z</time>
      </trkpt>
      <trkpt lat="43.63614" lon="6.63382">
        <ele>609.8</ele>
        <time>2023-11-26T09:15:21Z</time>
      </trkpt>
      <trkpt lat="43.63613" lon="6.63381">
        <ele>609.8</ele>
        <time>2023-11-26T09:15:22Z</time>
      </trkpt>
      <trkpt lat="43.63612" lon="6.6338">
        <ele>609.8</ele>
        <time>2023-11-26T09:15:23Z</time>
      </trkpt>
      <trkpt lat="43.63611" lon="6.63378">
        <ele>609.8</ele>
        <time>2023-11-26T09:15:24Z</time>
      </trkpt>
      <trkpt lat="43.6361" lon="6.63377">
        <ele>609.8</ele>
        <time>2023-11-26T09:15:25Z</time>
      </trkpt>
      <trkpt lat="43.63609" lon="6.63375">
        <ele>609.8</ele>
        <time>2023-11-26T09:15:26Z</time>
      </trkpt>
      <trkpt lat="43.63608" lon="6.63374">
        <ele>609.8</ele>
        <time>2023-11-26T09:15:27Z</time>
      </trkpt>
      <trkpt lat="43.63608" lon="6.63373">
        <ele>609.9</ele>
        <time>2023-11-26T09:15:28Z</time>
      </trkpt>
      <trkpt lat="43.63607" lon="6.63371">
        <ele>610</ele>
        <time>2023-11-26T09:15:29Z</time>
      </trkpt>
      <trkpt lat="43.63607" lon="6.63369">
        <ele>610.2</ele>
        <time>2023-11-26T09:15:30Z</time>
      </trkpt>
      <trkpt lat="43.63606" lon="6.63368">
        <ele>610.3</ele>
        <time>2023-11-26T09:15:31Z</time>
      </trkpt>
      <trkpt lat="43.63606" lon="6.63367">
        <ele>610.3</ele>
        <time>2023-11-26T09:15:32Z</time>
      </trkpt>
      <trkpt lat="43.63605" lon="6.63366">
        <ele>610.4</ele>
        <time>2023-11-26T09:15:33Z</time>
      </trkpt>
      <trkpt lat="43.63605" lon="6.63364">
        <ele>610.5</ele>
        <time>2023-11-26T09:15:34Z</time>
      </trkpt>
      <trkpt lat="43.63604" lon="6.63363">
        <ele>610.5</ele>
        <time>2023-11-26T09:15:35Z</time>
      </trkpt>
      <trkpt lat="43.63604" lon="6.63362">
        <ele>610.5</ele>
        <time>2023-11-26T09:15:36Z</time>
      </trkpt>
      <trkpt lat="43.63604" lon="6.63361">
        <ele>610.7</ele>
        <time>2023-11-26T09:15:37Z</time>
      </trkpt>
      <trkpt lat="43.63603" lon="6.6336">
        <ele>610.8</ele>
        <time>2023-11-26T09:15:38Z</time>
      </trkpt>
      <trkpt lat="43.63603" lon="6.63359">
        <ele>610.9</ele>
        <time>2023-11-26T09:15:39Z</time>
      </trkpt>
      <trkpt lat="43.63602" lon="6.63358">
        <ele>611</ele>
        <time>2023-11-26T09:15:40Z</time>
      </trkpt>
      <trkpt lat="43.63602" lon="6.63356">
        <ele>611.2</ele>
        <time>2023-11-26T09:15:41Z</time>
      </trkpt>
      <trkpt lat="43.63602" lon="6.63355">
        <ele>611.2</ele>
        <time>2023-11-26T09:15:42Z</time>
      </trkpt>
      <trkpt lat="43.63602" lon="6.63354">
        <ele>611.4</ele>
        <time>2023-11-26T09:15:43Z</time>
      </trkpt>
      <trkpt lat="43.63601" lon="6.63352">
        <ele>611.5</ele>
        <time>2023-11-26T09:15:44Z</time>
      </trkpt>
      <trkpt lat="43.63601" lon="6.63351">
        <ele>611.6</ele>
        <time>2023-11-26T09:15:45Z</time>
      </trkpt>
      <trkpt lat="43.63601" lon="6.6335">
        <ele>611.7</ele>
        <time>2023-11-26T09:15:46Z</time>
      </trkpt>
      <trkpt lat="43.636" lon="6.63349">
        <ele>611.8</ele>
        <time>2023-11-26T09:15:47Z</time>
      </trkpt>
      <trkpt lat="43.636" lon="6.63347">
        <ele>611.9</ele>
        <time>2023-11-26T09:15:48Z</time>
      </trkpt>
      <trkpt lat="43.636" lon="6.63345">
        <ele>612.1</ele>
        <time>2023-11-26T09:15:49Z</time>
      </trkpt>
      <trkpt lat="43.63599" lon="6.63344">
        <ele>612.2</ele>
        <time>2023-11-26T09:15:50Z</time>
      </trkpt>
      <trkpt lat="43.63599" lon="6.63343">
        <ele>612.3</ele>
        <time>2023-11-26T09:15:51Z</time>
      </trkpt>
      <trkpt lat="43.63599" lon="6.63342">
        <ele>612.4</ele>
        <time>2023-11-26T09:15:52Z</time>
      </trkpt>
      <trkpt lat="43.63598" lon="6.63341">
        <ele>612.6</ele>
        <time>2023-11-26T09:15:53Z</time>
      </trkpt>
      <trkpt lat="43.63598" lon="6.6334">
        <ele>612.7</ele>
        <time>2023-11-26T09:15:54Z</time>
      </trkpt>
      <trkpt lat="43.63598" lon="6.63338">
        <ele>612.9</ele>
        <time>2023-11-26T09:15:55Z</time>
      </trkpt>
      <trkpt lat="43.63597" lon="6.63337">
        <ele>613.1</ele>
        <time>2023-11-26T09:15:56Z</time>
      </trkpt>
      <trkpt lat="43.63597" lon="6.63335">
        <ele>613.2</ele>
        <time>2023-11-26T09:15:57Z</time>
      </trkpt>
      <trkpt lat="43.63596" lon="6.63334">
        <ele>613.3</ele>
        <time>2023-11-26T09:15:58Z</time>
      </trkpt>
      <trkpt lat="43.63596" lon="6.63332">
        <ele>613.4</ele>
        <time>2023-11-26T09:15:59Z</time>
      </trkpt>
      <trkpt lat="43.63596" lon="6.63331">
        <ele>613.5</ele>
        <time>2023-11-26T09:16:00Z</time>
      </trkpt>
      <trkpt lat="43.63595" lon="6.63329">
        <ele>613.7</ele>
        <time>2023-11-26T09:16:01Z</time>
      </trkpt>
      <trkpt lat="43.63594" lon="6.63328">
        <ele>613.9</ele>
        <time>2023-11-26T09:16:02Z</time>
      </trkpt>
      <trkpt lat="43.63594" lon="6.63326">
        <ele>614</ele>
        <time>2023-11-26T09:16:03Z</time>
      </trkpt>
      <trkpt lat="43.63594" lon="6.63325">
        <ele>614.1</ele>
        <time>2023-11-26T09:16:04Z</time>
      </trkpt>
      <trkpt lat="43.63594" lon="6.63323">
        <ele>614.2</ele>
        <time>2023-11-26T09:16:05Z</time>
      </trkpt>
      <trkpt lat="43.63594" lon="6.63322">
        <ele>614.3</ele>
        <time>2023-11-26T09:16:06Z</time>
      </trkpt>
      <trkpt lat="43.63593" lon="6.6332">
        <ele>614.4</ele>
        <time>2023-11-26T09:16:07Z</time>
      </trkpt>
      <trkpt lat="43.63593" lon="6.63319">
        <ele>614.4</ele>
        <time>2023-11-26T09:16:08Z</time>
      </trkpt>
      <trkpt lat="43.63592" lon="6.63318">
        <ele>614.5</ele>
        <time>2023-11-26T09:16:09Z</time>
      </trkpt>
      <trkpt lat="43.63592" lon="6.63316">
        <ele>614.6</ele>
        <time>2023-11-26T09:16:10Z</time>
      </trkpt>
      <trkpt lat="43.63591" lon="6.63315">
        <ele>614.7</ele>
        <time>2023-11-26T09:16:11Z</time>
      </trkpt>
      <trkpt lat="43.6359" lon="6.63314">
        <ele>614.7</ele>
        <time>2023-11-26T09:16:12Z</time>
      </trkpt>
      <trkpt lat="43.6359" lon="6.63312">
        <ele>614.8</ele>
        <time>2023-11-26T09:16:13Z</time>
      </trkpt>
      <trkpt lat="43.6359" lon="6.63311">
        <ele>614.8</ele>
        <time>2023-11-26T09:16:14Z</time>
      </trkpt>
      <trkpt lat="43.63591" lon="6.63309">
        <ele>614.9</ele>
        <time>2023-11-26T09:16:15Z</time>
      </trkpt>
      <trkpt lat="43.6359" lon="6.63308">
        <ele>614.9</ele>
        <time>2023-11-26T09:16:16Z</time>
      </trkpt>
      <trkpt lat="43.6359" lon="6.63306">
        <ele>615</ele>
        <time>2023-11-26T09:16:17Z</time>
      </trkpt>
      <trkpt lat="43.6359" lon="6.63305">
        <ele>615.1</ele>
        <time>2023-11-26T09:16:18Z</time>
      </trkpt>
      <trkpt lat="43.6359" lon="6.63304">
        <ele>615.2</ele>
        <time>2023-11-26T09:16:19Z</time>
      </trkpt>
      <trkpt lat="43.6359" lon="6.63302">
        <ele>615.4</ele>
        <time>2023-11-26T09:16:20Z</time>
      </trkpt>
      <trkpt lat="43.63589" lon="6.63301">
        <ele>615.6</ele>
        <time>2023-11-26T09:16:21Z</time>
      </trkpt>
      <trkpt lat="43.6359" lon="6.633">
        <ele>615.8</ele>
        <time>2023-11-26T09:16:22Z</time>
      </trkpt>
      <trkpt lat="43.63589" lon="6.63299">
        <ele>615.9</ele>
        <time>2023-11-26T09:16:23Z</time>
      </trkpt>
      <trkpt lat="43.63589" lon="6.63297">
        <ele>616</ele>
        <time>2023-11-26T09:16:24Z</time>
      </trkpt>
      <trkpt lat="43.63589" lon="6.63296">
        <ele>616.1</ele>
        <time>2023-11-26T09:16:25Z</time>
      </trkpt>
      <trkpt lat="43.63589" lon="6.63294">
        <ele>616.3</ele>
        <time>2023-11-26T09:16:26Z</time>
      </trkpt>
      <trkpt lat="43.63589" lon="6.63293">
        <ele>616.4</ele>
        <time>2023-11-26T09:16:27Z</time>
      </trkpt>
      <trkpt lat="43.63589" lon="6.63291">
        <ele>616.4</ele>
        <time>2023-11-26T09:16:28Z</time>
      </trkpt>
      <trkpt lat="43.63588" lon="6.6329">
        <ele>616.6</ele>
        <time>2023-11-26T09:16:29Z</time>
      </trkpt>
      <trkpt lat="43.63588" lon="6.63289">
        <ele>616.6</ele>
        <time>2023-11-26T09:16:30Z</time>
      </trkpt>
      <trkpt lat="43.63588" lon="6.63288">
        <ele>616.8</ele>
        <time>2023-11-26T09:16:31Z</time>
      </trkpt>
      <trkpt lat="43.63588" lon="6.63286">
        <ele>616.8</ele>
        <time>2023-11-26T09:16:32Z</time>
      </trkpt>
      <trkpt lat="43.63588" lon="6.63285">
        <ele>616.8</ele>
        <time>2023-11-26T09:16:33Z</time>
      </trkpt>
      <trkpt lat="43.63587" lon="6.63284">
        <ele>616.8</ele>
        <time>2023-11-26T09:16:34Z</time>
      </trkpt>
      <trkpt lat="43.63586" lon="6.63283">
        <ele>616.8</ele>
        <time>2023-11-26T09:16:35Z</time>
      </trkpt>
      <trkpt lat="43.63586" lon="6.63282">
        <ele>617</ele>
        <time>2023-11-26T09:16:36Z</time>
      </trkpt>
      <trkpt lat="43.63585" lon="6.63281">
        <ele>617.1</ele>
        <time>2023-11-26T09:16:37Z</time>
      </trkpt>
      <trkpt lat="43.63585" lon="6.63281">
        <ele>617.1</ele>
        <time>2023-11-26T09:16:38Z</time>
      </trkpt>
      <trkpt lat="43.63585" lon="6.6328">
        <ele>617.2</ele>
        <time>2023-11-26T09:16:39Z</time>
      </trkpt>
      <trkpt lat="43.63584" lon="6.63279">
        <ele>617.2</ele>
        <time>2023-11-26T09:16:40Z</time>
      </trkpt>
      <trkpt lat="43.63584" lon="6.63278">
        <ele>617.2</ele>
        <time>2023-11-26T09:16:41Z</time>
      </trkpt>
      <trkpt lat="43.63583" lon="6.63278">
        <ele>617.3</ele>
        <time>2023-11-26T09:16:42Z</time>
      </trkpt>
      <trkpt lat="43.63582" lon="6.63276">
        <ele>617.4</ele>
        <time>2023-11-26T09:16:43Z</time>
      </trkpt>
      <trkpt lat="43.63582" lon="6.63275">
        <ele>617.5</ele>
        <time>2023-11-26T09:16:44Z</time>
      </trkpt>
      <trkpt lat="43.63582" lon="6.63275">
        <ele>617.5</ele>
        <time>2023-11-26T09:16:45Z</time>
      </trkpt>
      <trkpt lat="43.63581" lon="6.63274">
        <ele>617.6</ele>
        <time>2023-11-26T09:16:46Z</time>
      </trkpt>
      <trkpt lat="43.63581" lon="6.63273">
        <ele>617.7</ele>
        <time>2023-11-26T09:16:47Z</time>
      </trkpt>
      <trkpt lat="43.6358" lon="6.63272">
        <ele>617.7</ele>
        <time>2023-11-26T09:16:48Z</time>
      </trkpt>
      <trkpt lat="43.63579" lon="6.63271">
        <ele>617.8</ele>
        <time>2023-11-26T09:16:49Z</time>
      </trkpt>
      <trkpt lat="43.63579" lon="6.63269">
        <ele>617.9</ele>
        <time>2023-11-26T09:16:50Z</time>
      </trkpt>
      <trkpt lat="43.63579" lon="6.63267">
        <ele>618</ele>
        <time>2023-11-26T09:16:51Z</time>
      </trkpt>
      <trkpt lat="43.63578" lon="6.63266">
        <ele>618.2</ele>
        <time>2023-11-26T09:16:52Z</time>
      </trkpt>
      <trkpt lat="43.63578" lon="6.63265">
        <ele>618.5</ele>
        <time>2023-11-26T09:16:53Z</time>
      </trkpt>
      <trkpt lat="43.63578" lon="6.63263">
        <ele>618.8</ele>
        <time>2023-11-26T09:16:54Z</time>
      </trkpt>
      <trkpt lat="43.63577" lon="6.63262">
        <ele>619</ele>
        <time>2023-11-26T09:16:55Z</time>
      </trkpt>
      <trkpt lat="43.63576" lon="6.63262">
        <ele>619.2</ele>
        <time>2023-11-26T09:16:56Z</time>
      </trkpt>
      <trkpt lat="43.63576" lon="6.63261">
        <ele>619.4</ele>
        <time>2023-11-26T09:16:57Z</time>
      </trkpt>
      <trkpt lat="43.63576" lon="6.63259">
        <ele>619.6</ele>
        <time>2023-11-26T09:16:58Z</time>
      </trkpt>
      <trkpt lat="43.63574" lon="6.63259">
        <ele>619.7</ele>
        <time>2023-11-26T09:16:59Z</time>
      </trkpt>
      <trkpt lat="43.63574" lon="6.63258">
        <ele>619.8</ele>
        <time>2023-11-26T09:17:00Z</time>
      </trkpt>
      <trkpt lat="43.63573" lon="6.63257">
        <ele>620</ele>
        <time>2023-11-26T09:17:01Z</time>
      </trkpt>
      <trkpt lat="43.63573" lon="6.63256">
        <ele>620.1</ele>
        <time>2023-11-26T09:17:02Z</time>
      </trkpt>
      <trkpt lat="43.63573" lon="6.63255">
        <ele>620.3</ele>
        <time>2023-11-26T09:17:03Z</time>
      </trkpt>
      <trkpt lat="43.63572" lon="6.63254">
        <ele>620.5</ele>
        <time>2023-11-26T09:17:04Z</time>
      </trkpt>
      <trkpt lat="43.63572" lon="6.63254">
        <ele>620.8</ele>
        <time>2023-11-26T09:17:05Z</time>
      </trkpt>
      <trkpt lat="43.63571" lon="6.63254">
        <ele>621</ele>
        <time>2023-11-26T09:17:06Z</time>
      </trkpt>
      <trkpt lat="43.63571" lon="6.63254">
        <ele>621.1</ele>
        <time>2023-11-26T09:17:07Z</time>
      </trkpt>
      <trkpt lat="43.6357" lon="6.63253">
        <ele>621.1</ele>
        <time>2023-11-26T09:17:08Z</time>
      </trkpt>
      <trkpt lat="43.63569" lon="6.63252">
        <ele>621.1</ele>
        <time>2023-11-26T09:17:09Z</time>
      </trkpt>
      <trkpt lat="43.63568" lon="6.63252">
        <ele>621.2</ele>
        <time>2023-11-26T09:17:10Z</time>
      </trkpt>
      <trkpt lat="43.63567" lon="6.63252">
        <ele>621.2</ele>
        <time>2023-11-26T09:17:11Z</time>
      </trkpt>
      <trkpt lat="43.63566" lon="6.63251">
        <ele>621.2</ele>
        <time>2023-11-26T09:17:12Z</time>
      </trkpt>
      <trkpt lat="43.63566" lon="6.6325">
        <ele>621.2</ele>
        <time>2023-11-26T09:17:13Z</time>
      </trkpt>
      <trkpt lat="43.63565" lon="6.63249">
        <ele>621.2</ele>
        <time>2023-11-26T09:17:14Z</time>
      </trkpt>
      <trkpt lat="43.63565" lon="6.63248">
        <ele>621.4</ele>
        <time>2023-11-26T09:17:15Z</time>
      </trkpt>
      <trkpt lat="43.63564" lon="6.63248">
        <ele>621.5</ele>
        <time>2023-11-26T09:17:16Z</time>
      </trkpt>
      <trkpt lat="43.63563" lon="6.63248">
        <ele>621.6</ele>
        <time>2023-11-26T09:17:17Z</time>
      </trkpt>
      <trkpt lat="43.63563" lon="6.63246">
        <ele>621.7</ele>
        <time>2023-11-26T09:17:18Z</time>
      </trkpt>
      <trkpt lat="43.63563" lon="6.63245">
        <ele>622</ele>
        <time>2023-11-26T09:17:19Z</time>
      </trkpt>
      <trkpt lat="43.63562" lon="6.63244">
        <ele>622.1</ele>
        <time>2023-11-26T09:17:20Z</time>
      </trkpt>
      <trkpt lat="43.63561" lon="6.63244">
        <ele>622.2</ele>
        <time>2023-11-26T09:17:21Z</time>
      </trkpt>
      <trkpt lat="43.6356" lon="6.63243">
        <ele>622.4</ele>
        <time>2023-11-26T09:17:22Z</time>
      </trkpt>
      <trkpt lat="43.6356" lon="6.63242">
        <ele>622.6</ele>
        <time>2023-11-26T09:17:23Z</time>
      </trkpt>
      <trkpt lat="43.6356" lon="6.63241">
        <ele>622.6</ele>
        <time>2023-11-26T09:17:24Z</time>
      </trkpt>
      <trkpt lat="43.63559" lon="6.6324">
        <ele>622.9</ele>
        <time>2023-11-26T09:17:25Z</time>
      </trkpt>
      <trkpt lat="43.63558" lon="6.6324">
        <ele>623</ele>
        <time>2023-11-26T09:17:26Z</time>
      </trkpt>
      <trkpt lat="43.63557" lon="6.63239">
        <ele>623.1</ele>
        <time>2023-11-26T09:17:27Z</time>
      </trkpt>
      <trkpt lat="43.63556" lon="6.63238">
        <ele>623.2</ele>
        <time>2023-11-26T09:17:28Z</time>
      </trkpt>
      <trkpt lat="43.63555" lon="6.63237">
        <ele>623.2</ele>
        <time>2023-11-26T09:17:29Z</time>
      </trkpt>
      <trkpt lat="43.63554" lon="6.63236">
        <ele>623.4</ele>
        <time>2023-11-26T09:17:30Z</time>
      </trkpt>
      <trkpt lat="43.63553" lon="6.63235">
        <ele>623.5</ele>
        <time>2023-11-26T09:17:31Z</time>
      </trkpt>
      <trkpt lat="43.63553" lon="6.63234">
        <ele>623.6</ele>
        <time>2023-11-26T09:17:32Z</time>
      </trkpt>
      <trkpt lat="43.63552" lon="6.63233">
        <ele>623.7</ele>
        <time>2023-11-26T09:17:33Z</time>
      </trkpt>
      <trkpt lat="43.63551" lon="6.63232">
        <ele>623.8</ele>
        <time>2023-11-26T09:17:34Z</time>
      </trkpt>
      <trkpt lat="43.6355" lon="6.63231">
        <ele>623.9</ele>
        <time>2023-11-26T09:17:35Z</time>
      </trkpt>
      <trkpt lat="43.63549" lon="6.6323">
        <ele>624</ele>
        <time>2023-11-26T09:17:36Z</time>
      </trkpt>
      <trkpt lat="43.63549" lon="6.63229">
        <ele>624</ele>
        <time>2023-11-26T09:17:37Z</time>
      </trkpt>
      <trkpt lat="43.63547" lon="6.63228">
        <ele>624</ele>
        <time>2023-11-26T09:17:38Z</time>
      </trkpt>
      <trkpt lat="43.63546" lon="6.63228">
        <ele>624.2</ele>
        <time>2023-11-26T09:17:39Z</time>
      </trkpt>
      <trkpt lat="43.63545" lon="6.63227">
        <ele>624.3</ele>
        <time>2023-11-26T09:17:40Z</time>
      </trkpt>
      <trkpt lat="43.63544" lon="6.63226">
        <ele>624.4</ele>
        <time>2023-11-26T09:17:41Z</time>
      </trkpt>
      <trkpt lat="43.63544" lon="6.63225">
        <ele>624.4</ele>
        <time>2023-11-26T09:17:42Z</time>
      </trkpt>
      <trkpt lat="43.63543" lon="6.63224">
        <ele>624.4</ele>
        <time>2023-11-26T09:17:43Z</time>
      </trkpt>
      <trkpt lat="43.63542" lon="6.63223">
        <ele>624.5</ele>
        <time>2023-11-26T09:17:44Z</time>
      </trkpt>
      <trkpt lat="43.6354" lon="6.63222">
        <ele>624.6</ele>
        <time>2023-11-26T09:17:45Z</time>
      </trkpt>
      <trkpt lat="43.63539" lon="6.63222">
        <ele>624.7</ele>
        <time>2023-11-26T09:17:46Z</time>
      </trkpt>
      <trkpt lat="43.63539" lon="6.63221">
        <ele>624.9</ele>
        <time>2023-11-26T09:17:47Z</time>
      </trkpt>
      <trkpt lat="43.63538" lon="6.6322">
        <ele>625</ele>
        <time>2023-11-26T09:17:48Z</time>
      </trkpt>
      <trkpt lat="43.63537" lon="6.63218">
        <ele>625.2</ele>
        <time>2023-11-26T09:17:49Z</time>
      </trkpt>
      <trkpt lat="43.63536" lon="6.63217">
        <ele>625.3</ele>
        <time>2023-11-26T09:17:50Z</time>
      </trkpt>
      <trkpt lat="43.63535" lon="6.63217">
        <ele>625.5</ele>
        <time>2023-11-26T09:17:51Z</time>
      </trkpt>
      <trkpt lat="43.63534" lon="6.63216">
        <ele>625.7</ele>
        <time>2023-11-26T09:17:52Z</time>
      </trkpt>
      <trkpt lat="43.63534" lon="6.63215">
        <ele>625.7</ele>
        <time>2023-11-26T09:17:53Z</time>
      </trkpt>
      <trkpt lat="43.63533" lon="6.63213">
        <ele>625.8</ele>
        <time>2023-11-26T09:17:54Z</time>
      </trkpt>
      <trkpt lat="43.63533" lon="6.63212">
        <ele>625.9</ele>
        <time>2023-11-26T09:17:55Z</time>
      </trkpt>
      <trkpt lat="43.63532" lon="6.63211">
        <ele>626.1</ele>
        <time>2023-11-26T09:17:56Z</time>
      </trkpt>
      <trkpt lat="43.63532" lon="6.63209">
        <ele>626.2</ele>
        <time>2023-11-26T09:17:57Z</time>
      </trkpt>
      <trkpt lat="43.63531" lon="6.63208">
        <ele>626.4</ele>
        <time>2023-11-26T09:17:58Z</time>
      </trkpt>
      <trkpt lat="43.63531" lon="6.63206">
        <ele>626.6</ele>
        <time>2023-11-26T09:17:59Z</time>
      </trkpt>
      <trkpt lat="43.63531" lon="6.63205">
        <ele>626.8</ele>
        <time>2023-11-26T09:18:00Z</time>
      </trkpt>
      <trkpt lat="43.63531" lon="6.63204">
        <ele>627</ele>
        <time>2023-11-26T09:18:01Z</time>
      </trkpt>
      <trkpt lat="43.63531" lon="6.63203">
        <ele>627.3</ele>
        <time>2023-11-26T09:18:02Z</time>
      </trkpt>
      <trkpt lat="43.63531" lon="6.63202">
        <ele>627.5</ele>
        <time>2023-11-26T09:18:03Z</time>
      </trkpt>
      <trkpt lat="43.6353" lon="6.63201">
        <ele>627.7</ele>
        <time>2023-11-26T09:18:04Z</time>
      </trkpt>
      <trkpt lat="43.6353" lon="6.632">
        <ele>627.9</ele>
        <time>2023-11-26T09:18:05Z</time>
      </trkpt>
      <trkpt lat="43.63529" lon="6.63198">
        <ele>628.1</ele>
        <time>2023-11-26T09:18:06Z</time>
      </trkpt>
      <trkpt lat="43.63529" lon="6.63197">
        <ele>628.2</ele>
        <time>2023-11-26T09:18:07Z</time>
      </trkpt>
      <trkpt lat="43.63529" lon="6.63195">
        <ele>628.4</ele>
        <time>2023-11-26T09:18:08Z</time>
      </trkpt>
      <trkpt lat="43.63529" lon="6.63194">
        <ele>628.5</ele>
        <time>2023-11-26T09:18:09Z</time>
      </trkpt>
      <trkpt lat="43.63529" lon="6.63192">
        <ele>628.6</ele>
        <time>2023-11-26T09:18:10Z</time>
      </trkpt>
      <trkpt lat="43.63528" lon="6.63191">
        <ele>628.7</ele>
        <time>2023-11-26T09:18:11Z</time>
      </trkpt>
      <trkpt lat="43.63527" lon="6.6319">
        <ele>629</ele>
        <time>2023-11-26T09:18:12Z</time>
      </trkpt>
      <trkpt lat="43.63526" lon="6.63189">
        <ele>629.1</ele>
        <time>2023-11-26T09:18:13Z</time>
      </trkpt>
      <trkpt lat="43.63526" lon="6.63188">
        <ele>629.1</ele>
        <time>2023-11-26T09:18:14Z</time>
      </trkpt>
      <trkpt lat="43.63526" lon="6.63187">
        <ele>629.2</ele>
        <time>2023-11-26T09:18:15Z</time>
      </trkpt>
      <trkpt lat="43.63526" lon="6.63186">
        <ele>629.2</ele>
        <time>2023-11-26T09:18:16Z</time>
      </trkpt>
      <trkpt lat="43.63526" lon="6.63185">
        <ele>629.3</ele>
        <time>2023-11-26T09:18:17Z</time>
      </trkpt>
      <trkpt lat="43.63525" lon="6.63183">
        <ele>629.5</ele>
        <time>2023-11-26T09:18:18Z</time>
      </trkpt>
      <trkpt lat="43.63524" lon="6.63182">
        <ele>629.6</ele>
        <time>2023-11-26T09:18:19Z</time>
      </trkpt>
      <trkpt lat="43.63524" lon="6.63181">
        <ele>629.9</ele>
        <time>2023-11-26T09:18:20Z</time>
      </trkpt>
      <trkpt lat="43.63523" lon="6.6318">
        <ele>630.1</ele>
        <time>2023-11-26T09:18:21Z</time>
      </trkpt>
      <trkpt lat="43.63522" lon="6.63179">
        <ele>630.2</ele>
        <time>2023-11-26T09:18:22Z</time>
      </trkpt>
      <trkpt lat="43.63521" lon="6.63178">
        <ele>630.2</ele>
        <time>2023-11-26T09:18:23Z</time>
      </trkpt>
      <trkpt lat="43.6352" lon="6.63177">
        <ele>630.2</ele>
        <time>2023-11-26T09:18:24Z</time>
      </trkpt>
      <trkpt lat="43.6352" lon="6.63176">
        <ele>630.2</ele>
        <time>2023-11-26T09:18:25Z</time>
      </trkpt>
      <trkpt lat="43.63519" lon="6.63175">
        <ele>630.2</ele>
        <time>2023-11-26T09:18:26Z</time>
      </trkpt>
      <trkpt lat="43.63518" lon="6.63174">
        <ele>630.2</ele>
        <time>2023-11-26T09:18:27Z</time>
      </trkpt>
      <trkpt lat="43.63518" lon="6.63173">
        <ele>630.3</ele>
        <time>2023-11-26T09:18:28Z</time>
      </trkpt>
      <trkpt lat="43.63518" lon="6.63172">
        <ele>630.3</ele>
        <time>2023-11-26T09:18:29Z</time>
      </trkpt>
      <trkpt lat="43.63517" lon="6.6317">
        <ele>630.3</ele>
        <time>2023-11-26T09:18:30Z</time>
      </trkpt>
      <trkpt lat="43.63516" lon="6.63169">
        <ele>630.3</ele>
        <time>2023-11-26T09:18:31Z</time>
      </trkpt>
      <trkpt lat="43.63515" lon="6.63168">
        <ele>630.2</ele>
        <time>2023-11-26T09:18:32Z</time>
      </trkpt>
      <trkpt lat="43.63514" lon="6.63168">
        <ele>630.2</ele>
        <time>2023-11-26T09:18:33Z</time>
      </trkpt>
      <trkpt lat="43.63514" lon="6.63167">
        <ele>630.1</ele>
        <time>2023-11-26T09:18:34Z</time>
      </trkpt>
      <trkpt lat="43.63513" lon="6.63165">
        <ele>630</ele>
        <time>2023-11-26T09:18:35Z</time>
      </trkpt>
      <trkpt lat="43.63512" lon="6.63165">
        <ele>629.9</ele>
        <time>2023-11-26T09:18:36Z</time>
      </trkpt>
      <trkpt lat="43.63512" lon="6.63164">
        <ele>629.8</ele>
        <time>2023-11-26T09:18:37Z</time>
      </trkpt>
      <trkpt lat="43.63511" lon="6.63162">
        <ele>629.6</ele>
        <time>2023-11-26T09:18:38Z</time>
      </trkpt>
      <trkpt lat="43.6351" lon="6.63161">
        <ele>629.5</ele>
        <time>2023-11-26T09:18:39Z</time>
      </trkpt>
      <trkpt lat="43.63509" lon="6.6316">
        <ele>629.4</ele>
        <time>2023-11-26T09:18:40Z</time>
      </trkpt>
      <trkpt lat="43.63509" lon="6.63158">
        <ele>629.3</ele>
        <time>2023-11-26T09:18:41Z</time>
      </trkpt>
      <trkpt lat="43.63508" lon="6.63156">
        <ele>629.3</ele>
        <time>2023-11-26T09:18:42Z</time>
      </trkpt>
      <trkpt lat="43.63507" lon="6.63155">
        <ele>629.2</ele>
        <time>2023-11-26T09:18:43Z</time>
      </trkpt>
      <trkpt lat="43.63505" lon="6.63154">
        <ele>629.2</ele>
        <time>2023-11-26T09:18:44Z</time>
      </trkpt>
      <trkpt lat="43.63504" lon="6.63152">
        <ele>629.2</ele>
        <time>2023-11-26T09:18:45Z</time>
      </trkpt>
      <trkpt lat="43.63503" lon="6.63152">
        <ele>629.2</ele>
        <time>2023-11-26T09:18:46Z</time>
      </trkpt>
      <trkpt lat="43.63503" lon="6.63151">
        <ele>629</ele>
        <time>2023-11-26T09:18:47Z</time>
      </trkpt>
      <trkpt lat="43.63502" lon="6.6315">
        <ele>628.9</ele>
        <time>2023-11-26T09:18:48Z</time>
      </trkpt>
      <trkpt lat="43.63501" lon="6.63147">
        <ele>628.9</ele>
        <time>2023-11-26T09:18:49Z</time>
      </trkpt>
      <trkpt lat="43.635" lon="6.63146">
        <ele>628.9</ele>
        <time>2023-11-26T09:18:50Z</time>
      </trkpt>
      <trkpt lat="43.63499" lon="6.63145">
        <ele>628.8</ele>
        <time>2023-11-26T09:18:51Z</time>
      </trkpt>
      <trkpt lat="43.63498" lon="6.63143">
        <ele>628.7</ele>
        <time>2023-11-26T09:18:52Z</time>
      </trkpt>
      <trkpt lat="43.63497" lon="6.63142">
        <ele>628.6</ele>
        <time>2023-11-26T09:18:53Z</time>
      </trkpt>
      <trkpt lat="43.63496" lon="6.63141">
        <ele>628.6</ele>
        <time>2023-11-26T09:18:54Z</time>
      </trkpt>
      <trkpt lat="43.63495" lon="6.63139">
        <ele>628.5</ele>
        <time>2023-11-26T09:18:55Z</time>
      </trkpt>
      <trkpt lat="43.63494" lon="6.63137">
        <ele>628.4</ele>
        <time>2023-11-26T09:18:56Z</time>
      </trkpt>
      <trkpt lat="43.63493" lon="6.63137">
        <ele>628.3</ele>
        <time>2023-11-26T09:18:57Z</time>
      </trkpt>
      <trkpt lat="43.63492" lon="6.63136">
        <ele>628.2</ele>
        <time>2023-11-26T09:18:58Z</time>
      </trkpt>
      <trkpt lat="43.63491" lon="6.63135">
        <ele>628.2</ele>
        <time>2023-11-26T09:18:59Z</time>
      </trkpt>
      <trkpt lat="43.6349" lon="6.63134">
        <ele>628.1</ele>
        <time>2023-11-26T09:19:00Z</time>
      </trkpt>
      <trkpt lat="43.63489" lon="6.63133">
        <ele>628</ele>
        <time>2023-11-26T09:19:01Z</time>
      </trkpt>
      <trkpt lat="43.63488" lon="6.63133">
        <ele>627.9</ele>
        <time>2023-11-26T09:19:02Z</time>
      </trkpt>
      <trkpt lat="43.63487" lon="6.63132">
        <ele>627.8</ele>
        <time>2023-11-26T09:19:03Z</time>
      </trkpt>
      <trkpt lat="43.63486" lon="6.6313">
        <ele>627.6</ele>
        <time>2023-11-26T09:19:04Z</time>
      </trkpt>
      <trkpt lat="43.63485" lon="6.6313">
        <ele>627.4</ele>
        <time>2023-11-26T09:19:05Z</time>
      </trkpt>
      <trkpt lat="43.63484" lon="6.63129">
        <ele>627.3</ele>
        <time>2023-11-26T09:19:06Z</time>
      </trkpt>
      <trkpt lat="43.63483" lon="6.63127">
        <ele>627.2</ele>
        <time>2023-11-26T09:19:07Z</time>
      </trkpt>
      <trkpt lat="43.63482" lon="6.63127">
        <ele>627.1</ele>
        <time>2023-11-26T09:19:08Z</time>
      </trkpt>
      <trkpt lat="43.63481" lon="6.63125">
        <ele>627</ele>
        <time>2023-11-26T09:19:09Z</time>
      </trkpt>
      <trkpt lat="43.6348" lon="6.63124">
        <ele>627</ele>
        <time>2023-11-26T09:19:10Z</time>
      </trkpt>
      <trkpt lat="43.63479" lon="6.63123">
        <ele>626.9</ele>
        <time>2023-11-26T09:19:11Z</time>
      </trkpt>
      <trkpt lat="43.63478" lon="6.63122">
        <ele>626.8</ele>
        <time>2023-11-26T09:19:12Z</time>
      </trkpt>
      <trkpt lat="43.63476" lon="6.63121">
        <ele>626.7</ele>
        <time>2023-11-26T09:19:13Z</time>
      </trkpt>
      <trkpt lat="43.63475" lon="6.63121">
        <ele>626.5</ele>
        <time>2023-11-26T09:19:14Z</time>
      </trkpt>
      <trkpt lat="43.63474" lon="6.6312">
        <ele>626.4</ele>
        <time>2023-11-26T09:19:15Z</time>
      </trkpt>
      <trkpt lat="43.63473" lon="6.63119">
        <ele>626.2</ele>
        <time>2023-11-26T09:19:16Z</time>
      </trkpt>
      <trkpt lat="43.63472" lon="6.63117">
        <ele>626.2</ele>
        <time>2023-11-26T09:19:17Z</time>
      </trkpt>
      <trkpt lat="43.63471" lon="6.63117">
        <ele>626</ele>
        <time>2023-11-26T09:19:18Z</time>
      </trkpt>
      <trkpt lat="43.63469" lon="6.63116">
        <ele>625.9</ele>
        <time>2023-11-26T09:19:19Z</time>
      </trkpt>
      <trkpt lat="43.63468" lon="6.63115">
        <ele>625.8</ele>
        <time>2023-11-26T09:19:20Z</time>
      </trkpt>
      <trkpt lat="43.63467" lon="6.63114">
        <ele>625.7</ele>
        <time>2023-11-26T09:19:21Z</time>
      </trkpt>
      <trkpt lat="43.63466" lon="6.63114">
        <ele>625.6</ele>
        <time>2023-11-26T09:19:22Z</time>
      </trkpt>
      <trkpt lat="43.63465" lon="6.63114">
        <ele>625.5</ele>
        <time>2023-11-26T09:19:23Z</time>
      </trkpt>
      <trkpt lat="43.63464" lon="6.63113">
        <ele>625.4</ele>
        <time>2023-11-26T09:19:24Z</time>
      </trkpt>
      <trkpt lat="43.63464" lon="6.63113">
        <ele>625.3</ele>
        <time>2023-11-26T09:19:25Z</time>
      </trkpt>
      <trkpt lat="43.63463" lon="6.63113">
        <ele>625.2</ele>
        <time>2023-11-26T09:19:26Z</time>
      </trkpt>
      <trkpt lat="43.63462" lon="6.63113">
        <ele>625.1</ele>
        <time>2023-11-26T09:19:27Z</time>
      </trkpt>
      <trkpt lat="43.63461" lon="6.63113">
        <ele>625.1</ele>
        <time>2023-11-26T09:19:28Z</time>
      </trkpt>
      <trkpt lat="43.6346" lon="6.63113">
        <ele>625</ele>
        <time>2023-11-26T09:19:29Z</time>
      </trkpt>
      <trkpt lat="43.63459" lon="6.63112">
        <ele>625</ele>
        <time>2023-11-26T09:19:30Z</time>
      </trkpt>
      <trkpt lat="43.63458" lon="6.63112">
        <ele>624.9</ele>
        <time>2023-11-26T09:19:31Z</time>
      </trkpt>
      <trkpt lat="43.63457" lon="6.63112">
        <ele>624.9</ele>
        <time>2023-11-26T09:19:32Z</time>
      </trkpt>
      <trkpt lat="43.63456" lon="6.63113">
        <ele>624.9</ele>
        <time>2023-11-26T09:19:33Z</time>
      </trkpt>
      <trkpt lat="43.63455" lon="6.63112">
        <ele>624.9</ele>
        <time>2023-11-26T09:19:34Z</time>
      </trkpt>
      <trkpt lat="43.63454" lon="6.63112">
        <ele>624.8</ele>
        <time>2023-11-26T09:19:35Z</time>
      </trkpt>
      <trkpt lat="43.63453" lon="6.63112">
        <ele>624.7</ele>
        <time>2023-11-26T09:19:36Z</time>
      </trkpt>
      <trkpt lat="43.63452" lon="6.63112">
        <ele>624.6</ele>
        <time>2023-11-26T09:19:37Z</time>
      </trkpt>
      <trkpt lat="43.6345" lon="6.63112">
        <ele>624.5</ele>
        <time>2023-11-26T09:19:38Z</time>
      </trkpt>
      <trkpt lat="43.63449" lon="6.63112">
        <ele>624.4</ele>
        <time>2023-11-26T09:19:39Z</time>
      </trkpt>
      <trkpt lat="43.63447" lon="6.63112">
        <ele>624.4</ele>
        <time>2023-11-26T09:19:40Z</time>
      </trkpt>
      <trkpt lat="43.63446" lon="6.63112">
        <ele>624.3</ele>
        <time>2023-11-26T09:19:41Z</time>
      </trkpt>
      <trkpt lat="43.63445" lon="6.63113">
        <ele>624.2</ele>
        <time>2023-11-26T09:19:42Z</time>
      </trkpt>
      <trkpt lat="43.63444" lon="6.63113">
        <ele>624.2</ele>
        <time>2023-11-26T09:19:43Z</time>
      </trkpt>
      <trkpt lat="43.63443" lon="6.63114">
        <ele>624.1</ele>
        <time>2023-11-26T09:19:44Z</time>
      </trkpt>
      <trkpt lat="43.63441" lon="6.63114">
        <ele>624.1</ele>
        <time>2023-11-26T09:19:45Z</time>
      </trkpt>
      <trkpt lat="43.6344" lon="6.63114">
        <ele>624.1</ele>
        <time>2023-11-26T09:19:46Z</time>
      </trkpt>
      <trkpt lat="43.63439" lon="6.63115">
        <ele>624.1</ele>
        <time>2023-11-26T09:19:47Z</time>
      </trkpt>
      <trkpt lat="43.63437" lon="6.63116">
        <ele>624</ele>
        <time>2023-11-26T09:19:48Z</time>
      </trkpt>
      <trkpt lat="43.63436" lon="6.63116">
        <ele>624.1</ele>
        <time>2023-11-26T09:19:49Z</time>
      </trkpt>
      <trkpt lat="43.63434" lon="6.63117">
        <ele>624.1</ele>
        <time>2023-11-26T09:19:50Z</time>
      </trkpt>
      <trkpt lat="43.63433" lon="6.63117">
        <ele>624.1</ele>
        <time>2023-11-26T09:19:51Z</time>
      </trkpt>
      <trkpt lat="43.63432" lon="6.63117">
        <ele>624.2</ele>
        <time>2023-11-26T09:19:52Z</time>
      </trkpt>
      <trkpt lat="43.63431" lon="6.63117">
        <ele>624.1</ele>
        <time>2023-11-26T09:19:53Z</time>
      </trkpt>
      <trkpt lat="43.6343" lon="6.63117">
        <ele>624.1</ele>
        <time>2023-11-26T09:19:54Z</time>
      </trkpt>
      <trkpt lat="43.63428" lon="6.63116">
        <ele>624.2</ele>
        <time>2023-11-26T09:19:55Z</time>
      </trkpt>
      <trkpt lat="43.63427" lon="6.63117">
        <ele>624.3</ele>
        <time>2023-11-26T09:19:56Z</time>
      </trkpt>
      <trkpt lat="43.63425" lon="6.63117">
        <ele>624.4</ele>
        <time>2023-11-26T09:19:57Z</time>
      </trkpt>
      <trkpt lat="43.63424" lon="6.63117">
        <ele>624.4</ele>
        <time>2023-11-26T09:19:58Z</time>
      </trkpt>
      <trkpt lat="43.63423" lon="6.63118">
        <ele>624.5</ele>
        <time>2023-11-26T09:19:59Z</time>
      </trkpt>
      <trkpt lat="43.63422" lon="6.63119">
        <ele>624.6</ele>
        <time>2023-11-26T09:20:00Z</time>
      </trkpt>
      <trkpt lat="43.63421" lon="6.63118">
        <ele>624.7</ele>
        <time>2023-11-26T09:20:01Z</time>
      </trkpt>
      <trkpt lat="43.6342" lon="6.63119">
        <ele>624.8</ele>
        <time>2023-11-26T09:20:02Z</time>
      </trkpt>
      <trkpt lat="43.63418" lon="6.63119">
        <ele>624.8</ele>
        <time>2023-11-26T09:20:03Z</time>
      </trkpt>
      <trkpt lat="43.63417" lon="6.63119">
        <ele>624.9</ele>
        <time>2023-11-26T09:20:04Z</time>
      </trkpt>
      <trkpt lat="43.63417" lon="6.6312">
        <ele>625</ele>
        <time>2023-11-26T09:20:05Z</time>
      </trkpt>
      <trkpt lat="43.63416" lon="6.6312">
        <ele>625.1</ele>
        <time>2023-11-26T09:20:06Z</time>
      </trkpt>
      <trkpt lat="43.63415" lon="6.6312">
        <ele>625.2</ele>
        <time>2023-11-26T09:20:07Z</time>
      </trkpt>
      <trkpt lat="43.63413" lon="6.63121">
        <ele>625.2</ele>
        <time>2023-11-26T09:20:08Z</time>
      </trkpt>
      <trkpt lat="43.63412" lon="6.63121">
        <ele>625.3</ele>
        <time>2023-11-26T09:20:09Z</time>
      </trkpt>
      <trkpt lat="43.63411" lon="6.63121">
        <ele>625.3</ele>
        <time>2023-11-26T09:20:10Z</time>
      </trkpt>
      <trkpt lat="43.63409" lon="6.63122">
        <ele>625.4</ele>
        <time>2023-11-26T09:20:11Z</time>
      </trkpt>
      <trkpt lat="43.63409" lon="6.63123">
        <ele>625.4</ele>
        <time>2023-11-26T09:20:12Z</time>
      </trkpt>
      <trkpt lat="43.63407" lon="6.63123">
        <ele>625.4</ele>
        <time>2023-11-26T09:20:13Z</time>
      </trkpt>
      <trkpt lat="43.63406" lon="6.63123">
        <ele>625.5</ele>
        <time>2023-11-26T09:20:14Z</time>
      </trkpt>
      <trkpt lat="43.63405" lon="6.63124">
        <ele>625.6</ele>
        <time>2023-11-26T09:20:15Z</time>
      </trkpt>
      <trkpt lat="43.63404" lon="6.63123">
        <ele>625.7</ele>
        <time>2023-11-26T09:20:16Z</time>
      </trkpt>
      <trkpt lat="43.63403" lon="6.63124">
        <ele>625.8</ele>
        <time>2023-11-26T09:20:17Z</time>
      </trkpt>
      <trkpt lat="43.63402" lon="6.63124">
        <ele>625.8</ele>
        <time>2023-11-26T09:20:18Z</time>
      </trkpt>
      <trkpt lat="43.63401" lon="6.63124">
        <ele>625.9</ele>
        <time>2023-11-26T09:20:19Z</time>
      </trkpt>
      <trkpt lat="43.634" lon="6.63125">
        <ele>625.9</ele>
        <time>2023-11-26T09:20:20Z</time>
      </trkpt>
      <trkpt lat="43.63398" lon="6.63125">
        <ele>626</ele>
        <time>2023-11-26T09:20:21Z</time>
      </trkpt>
      <trkpt lat="43.63396" lon="6.63126">
        <ele>626</ele>
        <time>2023-11-26T09:20:22Z</time>
      </trkpt>
      <trkpt lat="43.63395" lon="6.63126">
        <ele>626</ele>
        <time>2023-11-26T09:20:23Z</time>
      </trkpt>
      <trkpt lat="43.63394" lon="6.63127">
        <ele>626</ele>
        <time>2023-11-26T09:20:24Z</time>
      </trkpt>
      <trkpt lat="43.63393" lon="6.63127">
        <ele>626</ele>
        <time>2023-11-26T09:20:25Z</time>
      </trkpt>
      <trkpt lat="43.63392" lon="6.63126">
        <ele>625.9</ele>
        <time>2023-11-26T09:20:26Z</time>
      </trkpt>
      <trkpt lat="43.63391" lon="6.63127">
        <ele>625.9</ele>
        <time>2023-11-26T09:20:27Z</time>
      </trkpt>
      <trkpt lat="43.6339" lon="6.63128">
        <ele>625.8</ele>
        <time>2023-11-26T09:20:28Z</time>
      </trkpt>
      <trkpt lat="43.63389" lon="6.63129">
        <ele>625.8</ele>
        <time>2023-11-26T09:20:29Z</time>
      </trkpt>
      <trkpt lat="43.63387" lon="6.63129">
        <ele>625.9</ele>
        <time>2023-11-26T09:20:30Z</time>
      </trkpt>
      <trkpt lat="43.63385" lon="6.63128">
        <ele>625.9</ele>
        <time>2023-11-26T09:20:31Z</time>
      </trkpt>
      <trkpt lat="43.63383" lon="6.63128">
        <ele>625.9</ele>
        <time>2023-11-26T09:20:32Z</time>
      </trkpt>
      <trkpt lat="43.63382" lon="6.63129">
        <ele>626</ele>
        <time>2023-11-26T09:20:33Z</time>
      </trkpt>
      <trkpt lat="43.63381" lon="6.63129">
        <ele>626.1</ele>
        <time>2023-11-26T09:20:34Z</time>
      </trkpt>
      <trkpt lat="43.63379" lon="6.6313">
        <ele>626.1</ele>
        <time>2023-11-26T09:20:35Z</time>
      </trkpt>
      <trkpt lat="43.63378" lon="6.63129">
        <ele>626.1</ele>
        <time>2023-11-26T09:20:36Z</time>
      </trkpt>
      <trkpt lat="43.63376" lon="6.6313">
        <ele>626.1</ele>
        <time>2023-11-26T09:20:37Z</time>
      </trkpt>
      <trkpt lat="43.63376" lon="6.63131">
        <ele>626.1</ele>
        <time>2023-11-26T09:20:38Z</time>
      </trkpt>
      <trkpt lat="43.63375" lon="6.63131">
        <ele>626.2</ele>
        <time>2023-11-26T09:20:39Z</time>
      </trkpt>
      <trkpt lat="43.63373" lon="6.63132">
        <ele>626.1</ele>
        <time>2023-11-26T09:20:40Z</time>
      </trkpt>
      <trkpt lat="43.63372" lon="6.63132">
        <ele>626.1</ele>
        <time>2023-11-26T09:20:41Z</time>
      </trkpt>
      <trkpt lat="43.63371" lon="6.63133">
        <ele>626.1</ele>
        <time>2023-11-26T09:20:42Z</time>
      </trkpt>
      <trkpt lat="43.63369" lon="6.63133">
        <ele>626.2</ele>
        <time>2023-11-26T09:20:43Z</time>
      </trkpt>
      <trkpt lat="43.63367" lon="6.63133">
        <ele>626.2</ele>
        <time>2023-11-26T09:20:44Z</time>
      </trkpt>
      <trkpt lat="43.63366" lon="6.63133">
        <ele>626.2</ele>
        <time>2023-11-26T09:20:45Z</time>
      </trkpt>
      <trkpt lat="43.63365" lon="6.63133">
        <ele>626.2</ele>
        <time>2023-11-26T09:20:46Z</time>
      </trkpt>
      <trkpt lat="43.63364" lon="6.63133">
        <ele>626.3</ele>
        <time>2023-11-26T09:20:47Z</time>
      </trkpt>
      <trkpt lat="43.63363" lon="6.63133">
        <ele>626.3</ele>
        <time>2023-11-26T09:20:48Z</time>
      </trkpt>
      <trkpt lat="43.63362" lon="6.63133">
        <ele>626.3</ele>
        <time>2023-11-26T09:20:49Z</time>
      </trkpt>
      <trkpt lat="43.63361" lon="6.63134">
        <ele>626.4</ele>
        <time>2023-11-26T09:20:50Z</time>
      </trkpt>
      <trkpt lat="43.63361" lon="6.63133">
        <ele>626.4</ele>
        <time>2023-11-26T09:20:51Z</time>
      </trkpt>
      <trkpt lat="43.63359" lon="6.63133">
        <ele>626.5</ele>
        <time>2023-11-26T09:20:52Z</time>
      </trkpt>
      <trkpt lat="43.63359" lon="6.63133">
        <ele>626.5</ele>
        <time>2023-11-26T09:20:53Z</time>
      </trkpt>
      <trkpt lat="43.63357" lon="6.63134">
        <ele>626.6</ele>
        <time>2023-11-26T09:20:54Z</time>
      </trkpt>
      <trkpt lat="43.63357" lon="6.63134">
        <ele>626.7</ele>
        <time>2023-11-26T09:20:55Z</time>
      </trkpt>
      <trkpt lat="43.63356" lon="6.63134">
        <ele>626.7</ele>
        <time>2023-11-26T09:20:56Z</time>
      </trkpt>
      <trkpt lat="43.63355" lon="6.63135">
        <ele>626.8</ele>
        <time>2023-11-26T09:20:57Z</time>
      </trkpt>
      <trkpt lat="43.63354" lon="6.63135">
        <ele>626.8</ele>
        <time>2023-11-26T09:20:58Z</time>
      </trkpt>
      <trkpt lat="43.63354" lon="6.63135">
        <ele>626.8</ele>
        <time>2023-11-26T09:20:59Z</time>
      </trkpt>
      <trkpt lat="43.63353" lon="6.63136">
        <ele>626.8</ele>
        <time>2023-11-26T09:21:00Z</time>
      </trkpt>
      <trkpt lat="43.63352" lon="6.63136">
        <ele>626.9</ele>
        <time>2023-11-26T09:21:01Z</time>
      </trkpt>
      <trkpt lat="43.63351" lon="6.63136">
        <ele>626.9</ele>
        <time>2023-11-26T09:21:02Z</time>
      </trkpt>
      <trkpt lat="43.6335" lon="6.63137">
        <ele>626.8</ele>
        <time>2023-11-26T09:21:03Z</time>
      </trkpt>
      <trkpt lat="43.63349" lon="6.63137">
        <ele>626.8</ele>
        <time>2023-11-26T09:21:04Z</time>
      </trkpt>
      <trkpt lat="43.63347" lon="6.63137">
        <ele>626.7</ele>
        <time>2023-11-26T09:21:05Z</time>
      </trkpt>
      <trkpt lat="43.63346" lon="6.63138">
        <ele>626.6</ele>
        <time>2023-11-26T09:21:06Z</time>
      </trkpt>
      <trkpt lat="43.63344" lon="6.63138">
        <ele>626.6</ele>
        <time>2023-11-26T09:21:07Z</time>
      </trkpt>
      <trkpt lat="43.63343" lon="6.63138">
        <ele>626.7</ele>
        <time>2023-11-26T09:21:08Z</time>
      </trkpt>
      <trkpt lat="43.63342" lon="6.63138">
        <ele>626.7</ele>
        <time>2023-11-26T09:21:09Z</time>
      </trkpt>
      <trkpt lat="43.63341" lon="6.63138">
        <ele>626.7</ele>
        <time>2023-11-26T09:21:10Z</time>
      </trkpt>
      <trkpt lat="43.6334" lon="6.63138">
        <ele>626.6</ele>
        <time>2023-11-26T09:21:11Z</time>
      </trkpt>
      <trkpt lat="43.63339" lon="6.63139">
        <ele>626.5</ele>
        <time>2023-11-26T09:21:12Z</time>
      </trkpt>
      <trkpt lat="43.63338" lon="6.63139">
        <ele>626.5</ele>
        <time>2023-11-26T09:21:13Z</time>
      </trkpt>
      <trkpt lat="43.63337" lon="6.63139">
        <ele>626.4</ele>
        <time>2023-11-26T09:21:14Z</time>
      </trkpt>
      <trkpt lat="43.63336" lon="6.6314">
        <ele>626.4</ele>
        <time>2023-11-26T09:21:15Z</time>
      </trkpt>
      <trkpt lat="43.63335" lon="6.6314">
        <ele>626.4</ele>
        <time>2023-11-26T09:21:16Z</time>
      </trkpt>
      <trkpt lat="43.63333" lon="6.6314">
        <ele>626.2</ele>
        <time>2023-11-26T09:21:17Z</time>
      </trkpt>
      <trkpt lat="43.63332" lon="6.6314">
        <ele>626.1</ele>
        <time>2023-11-26T09:21:18Z</time>
      </trkpt>
      <trkpt lat="43.63331" lon="6.6314">
        <ele>626.1</ele>
        <time>2023-11-26T09:21:19Z</time>
      </trkpt>
      <trkpt lat="43.6333" lon="6.63141">
        <ele>626.1</ele>
        <time>2023-11-26T09:21:20Z</time>
      </trkpt>
      <trkpt lat="43.63329" lon="6.63141">
        <ele>626</ele>
        <time>2023-11-26T09:21:21Z</time>
      </trkpt>
      <trkpt lat="43.63328" lon="6.63141">
        <ele>626</ele>
        <time>2023-11-26T09:21:22Z</time>
      </trkpt>
      <trkpt lat="43.63327" lon="6.63142">
        <ele>626</ele>
        <time>2023-11-26T09:21:23Z</time>
      </trkpt>
      <trkpt lat="43.63325" lon="6.63143">
        <ele>625.9</ele>
        <time>2023-11-26T09:21:24Z</time>
      </trkpt>
      <trkpt lat="43.63324" lon="6.63144">
        <ele>625.9</ele>
        <time>2023-11-26T09:21:25Z</time>
      </trkpt>
      <trkpt lat="43.63323" lon="6.63145">
        <ele>625.8</ele>
        <time>2023-11-26T09:21:26Z</time>
      </trkpt>
      <trkpt lat="43.63322" lon="6.63145">
        <ele>625.8</ele>
        <time>2023-11-26T09:21:27Z</time>
      </trkpt>
      <trkpt lat="43.6332" lon="6.63146">
        <ele>625.8</ele>
        <time>2023-11-26T09:21:28Z</time>
      </trkpt>
      <trkpt lat="43.63318" lon="6.63146">
        <ele>625.7</ele>
        <time>2023-11-26T09:21:29Z</time>
      </trkpt>
      <trkpt lat="43.63317" lon="6.63147">
        <ele>625.7</ele>
        <time>2023-11-26T09:21:30Z</time>
      </trkpt>
      <trkpt lat="43.63316" lon="6.63147">
        <ele>625.6</ele>
        <time>2023-11-26T09:21:31Z</time>
      </trkpt>
      <trkpt lat="43.63315" lon="6.63147">
        <ele>625.6</ele>
        <time>2023-11-26T09:21:32Z</time>
      </trkpt>
      <trkpt lat="43.63314" lon="6.63148">
        <ele>625.6</ele>
        <time>2023-11-26T09:21:33Z</time>
      </trkpt>
      <trkpt lat="43.63313" lon="6.63149">
        <ele>625.6</ele>
        <time>2023-11-26T09:21:34Z</time>
      </trkpt>
      <trkpt lat="43.63312" lon="6.63149">
        <ele>625.6</ele>
        <time>2023-11-26T09:21:35Z</time>
      </trkpt>
      <trkpt lat="43.6331" lon="6.6315">
        <ele>625.6</ele>
        <time>2023-11-26T09:21:36Z</time>
      </trkpt>
      <trkpt lat="43.63309" lon="6.63151">
        <ele>625.6</ele>
        <time>2023-11-26T09:21:37Z</time>
      </trkpt>
      <trkpt lat="43.63308" lon="6.63151">
        <ele>625.6</ele>
        <time>2023-11-26T09:21:38Z</time>
      </trkpt>
      <trkpt lat="43.63307" lon="6.63152">
        <ele>625.5</ele>
        <time>2023-11-26T09:21:39Z</time>
      </trkpt>
      <trkpt lat="43.63306" lon="6.63153">
        <ele>625.4</ele>
        <time>2023-11-26T09:21:40Z</time>
      </trkpt>
      <trkpt lat="43.63305" lon="6.63154">
        <ele>625.3</ele>
        <time>2023-11-26T09:21:41Z</time>
      </trkpt>
      <trkpt lat="43.63304" lon="6.63155">
        <ele>625.3</ele>
        <time>2023-11-26T09:21:42Z</time>
      </trkpt>
      <trkpt lat="43.63303" lon="6.63156">
        <ele>625.3</ele>
        <time>2023-11-26T09:21:43Z</time>
      </trkpt>
      <trkpt lat="43.63302" lon="6.63157">
        <ele>625.2</ele>
        <time>2023-11-26T09:21:44Z</time>
      </trkpt>
      <trkpt lat="43.633" lon="6.63158">
        <ele>625.2</ele>
        <time>2023-11-26T09:21:45Z</time>
      </trkpt>
      <trkpt lat="43.63299" lon="6.63158">
        <ele>625.1</ele>
        <time>2023-11-26T09:21:46Z</time>
      </trkpt>
      <trkpt lat="43.63298" lon="6.63159">
        <ele>625</ele>
        <time>2023-11-26T09:21:47Z</time>
      </trkpt>
      <trkpt lat="43.63297" lon="6.63159">
        <ele>624.8</ele>
        <time>2023-11-26T09:21:48Z</time>
      </trkpt>
      <trkpt lat="43.63296" lon="6.6316">
        <ele>624.8</ele>
        <time>2023-11-26T09:21:49Z</time>
      </trkpt>
      <trkpt lat="43.63295" lon="6.6316">
        <ele>624.7</ele>
        <time>2023-11-26T09:21:50Z</time>
      </trkpt>
      <trkpt lat="43.63294" lon="6.63161">
        <ele>624.7</ele>
        <time>2023-11-26T09:21:51Z</time>
      </trkpt>
      <trkpt lat="43.63293" lon="6.63161">
        <ele>624.5</ele>
        <time>2023-11-26T09:21:52Z</time>
      </trkpt>
      <trkpt lat="43.63292" lon="6.63161">
        <ele>624.5</ele>
        <time>2023-11-26T09:21:53Z</time>
      </trkpt>
      <trkpt lat="43.6329" lon="6.63161">
        <ele>624.4</ele>
        <time>2023-11-26T09:21:54Z</time>
      </trkpt>
      <trkpt lat="43.63289" lon="6.6316">
        <ele>624.4</ele>
        <time>2023-11-26T09:21:55Z</time>
      </trkpt>
      <trkpt lat="43.63287" lon="6.63161">
        <ele>624.4</ele>
        <time>2023-11-26T09:21:56Z</time>
      </trkpt>
      <trkpt lat="43.63286" lon="6.63161">
        <ele>624.4</ele>
        <time>2023-11-26T09:21:57Z</time>
      </trkpt>
      <trkpt lat="43.63285" lon="6.6316">
        <ele>624.4</ele>
        <time>2023-11-26T09:21:58Z</time>
      </trkpt>
      <trkpt lat="43.63283" lon="6.6316">
        <ele>624.5</ele>
        <time>2023-11-26T09:21:59Z</time>
      </trkpt>
      <trkpt lat="43.63282" lon="6.6316">
        <ele>624.5</ele>
        <time>2023-11-26T09:22:00Z</time>
      </trkpt>
      <trkpt lat="43.63281" lon="6.6316">
        <ele>624.6</ele>
        <time>2023-11-26T09:22:01Z</time>
      </trkpt>
      <trkpt lat="43.6328" lon="6.63159">
        <ele>624.6</ele>
        <time>2023-11-26T09:22:02Z</time>
      </trkpt>
      <trkpt lat="43.63278" lon="6.6316">
        <ele>624.5</ele>
        <time>2023-11-26T09:22:03Z</time>
      </trkpt>
      <trkpt lat="43.63277" lon="6.6316">
        <ele>624.5</ele>
        <time>2023-11-26T09:22:04Z</time>
      </trkpt>
      <trkpt lat="43.63277" lon="6.6316">
        <ele>624.5</ele>
        <time>2023-11-26T09:22:05Z</time>
      </trkpt>
      <trkpt lat="43.63275" lon="6.6316">
        <ele>624.5</ele>
        <time>2023-11-26T09:22:06Z</time>
      </trkpt>
      <trkpt lat="43.63274" lon="6.6316">
        <ele>624.5</ele>
        <time>2023-11-26T09:22:07Z</time>
      </trkpt>
      <trkpt lat="43.63273" lon="6.6316">
        <ele>624.5</ele>
        <time>2023-11-26T09:22:08Z</time>
      </trkpt>
      <trkpt lat="43.63272" lon="6.6316">
        <ele>624.6</ele>
        <time>2023-11-26T09:22:09Z</time>
      </trkpt>
      <trkpt lat="43.6327" lon="6.6316">
        <ele>624.5</ele>
        <time>2023-11-26T09:22:10Z</time>
      </trkpt>
      <trkpt lat="43.63269" lon="6.6316">
        <ele>624.6</ele>
        <time>2023-11-26T09:22:11Z</time>
      </trkpt>
      <trkpt lat="43.63268" lon="6.6316">
        <ele>624.6</ele>
        <time>2023-11-26T09:22:12Z</time>
      </trkpt>
      <trkpt lat="43.63267" lon="6.6316">
        <ele>624.7</ele>
        <time>2023-11-26T09:22:13Z</time>
      </trkpt>
      <trkpt lat="43.63265" lon="6.6316">
        <ele>624.7</ele>
        <time>2023-11-26T09:22:14Z</time>
      </trkpt>
      <trkpt lat="43.63264" lon="6.6316">
        <ele>624.7</ele>
        <time>2023-11-26T09:22:15Z</time>
      </trkpt>
      <trkpt lat="43.63263" lon="6.6316">
        <ele>624.7</ele>
        <time>2023-11-26T09:22:16Z</time>
      </trkpt>
      <trkpt lat="43.63262" lon="6.6316">
        <ele>624.8</ele>
        <time>2023-11-26T09:22:17Z</time>
      </trkpt>
      <trkpt lat="43.63261" lon="6.6316">
        <ele>624.8</ele>
        <time>2023-11-26T09:22:18Z</time>
      </trkpt>
      <trkpt lat="43.63259" lon="6.6316">
        <ele>624.8</ele>
        <time>2023-11-26T09:22:19Z</time>
      </trkpt>
      <trkpt lat="43.63258" lon="6.63159">
        <ele>624.8</ele>
        <time>2023-11-26T09:22:20Z</time>
      </trkpt>
      <trkpt lat="43.63256" lon="6.63158">
        <ele>624.7</ele>
        <time>2023-11-26T09:22:21Z</time>
      </trkpt>
      <trkpt lat="43.63255" lon="6.63158">
        <ele>624.6</ele>
        <time>2023-11-26T09:22:22Z</time>
      </trkpt>
      <trkpt lat="43.63254" lon="6.63157">
        <ele>624.6</ele>
        <time>2023-11-26T09:22:23Z</time>
      </trkpt>
      <trkpt lat="43.63253" lon="6.63157">
        <ele>624.7</ele>
        <time>2023-11-26T09:22:24Z</time>
      </trkpt>
      <trkpt lat="43.63252" lon="6.63157">
        <ele>624.8</ele>
        <time>2023-11-26T09:22:25Z</time>
      </trkpt>
      <trkpt lat="43.63251" lon="6.63157">
        <ele>624.8</ele>
        <time>2023-11-26T09:22:26Z</time>
      </trkpt>
      <trkpt lat="43.6325" lon="6.63157">
        <ele>624.8</ele>
        <time>2023-11-26T09:22:27Z</time>
      </trkpt>
      <trkpt lat="43.63249" lon="6.63157">
        <ele>624.8</ele>
        <time>2023-11-26T09:22:28Z</time>
      </trkpt>
      <trkpt lat="43.63248" lon="6.63156">
        <ele>624.9</ele>
        <time>2023-11-26T09:22:29Z</time>
      </trkpt>
      <trkpt lat="43.63247" lon="6.63156">
        <ele>625</ele>
        <time>2023-11-26T09:22:30Z</time>
      </trkpt>
      <trkpt lat="43.63246" lon="6.63156">
        <ele>625.1</ele>
        <time>2023-11-26T09:22:31Z</time>
      </trkpt>
      <trkpt lat="43.63244" lon="6.63156">
        <ele>625.1</ele>
        <time>2023-11-26T09:22:32Z</time>
      </trkpt>
      <trkpt lat="43.63243" lon="6.63156">
        <ele>625.2</ele>
        <time>2023-11-26T09:22:33Z</time>
      </trkpt>
      <trkpt lat="43.63242" lon="6.63156">
        <ele>625.3</ele>
        <time>2023-11-26T09:22:34Z</time>
      </trkpt>
      <trkpt lat="43.63241" lon="6.63156">
        <ele>625.4</ele>
        <time>2023-11-26T09:22:35Z</time>
      </trkpt>
      <trkpt lat="43.6324" lon="6.63156">
        <ele>625.4</ele>
        <time>2023-11-26T09:22:36Z</time>
      </trkpt>
      <trkpt lat="43.63239" lon="6.63156">
        <ele>625.4</ele>
        <time>2023-11-26T09:22:37Z</time>
      </trkpt>
      <trkpt lat="43.63238" lon="6.63155">
        <ele>625.5</ele>
        <time>2023-11-26T09:22:38Z</time>
      </trkpt>
      <trkpt lat="43.63237" lon="6.63155">
        <ele>625.7</ele>
        <time>2023-11-26T09:22:39Z</time>
      </trkpt>
      <trkpt lat="43.63236" lon="6.63154">
        <ele>625.8</ele>
        <time>2023-11-26T09:22:40Z</time>
      </trkpt>
      <trkpt lat="43.63236" lon="6.63154">
        <ele>625.8</ele>
        <time>2023-11-26T09:22:41Z</time>
      </trkpt>
      <trkpt lat="43.63234" lon="6.63154">
        <ele>625.9</ele>
        <time>2023-11-26T09:22:42Z</time>
      </trkpt>
      <trkpt lat="43.63233" lon="6.63154">
        <ele>625.9</ele>
        <time>2023-11-26T09:22:43Z</time>
      </trkpt>
      <trkpt lat="43.63232" lon="6.63154">
        <ele>626</ele>
        <time>2023-11-26T09:22:44Z</time>
      </trkpt>
      <trkpt lat="43.63231" lon="6.63153">
        <ele>626.1</ele>
        <time>2023-11-26T09:22:45Z</time>
      </trkpt>
      <trkpt lat="43.6323" lon="6.63154">
        <ele>626.2</ele>
        <time>2023-11-26T09:22:46Z</time>
      </trkpt>
      <trkpt lat="43.63228" lon="6.63153">
        <ele>626.3</ele>
        <time>2023-11-26T09:22:47Z</time>
      </trkpt>
      <trkpt lat="43.63227" lon="6.63153">
        <ele>626.3</ele>
        <time>2023-11-26T09:22:48Z</time>
      </trkpt>
      <trkpt lat="43.63227" lon="6.63152">
        <ele>626.3</ele>
        <time>2023-11-26T09:22:49Z</time>
      </trkpt>
      <trkpt lat="43.63226" lon="6.63153">
        <ele>626.5</ele>
        <time>2023-11-26T09:22:50Z</time>
      </trkpt>
      <trkpt lat="43.63225" lon="6.63152">
        <ele>626.5</ele>
        <time>2023-11-26T09:22:51Z</time>
      </trkpt>
      <trkpt lat="43.63225" lon="6.63152">
        <ele>626.5</ele>
        <time>2023-11-26T09:22:52Z</time>
      </trkpt>
      <trkpt lat="43.63224" lon="6.63151">
        <ele>626.5</ele>
        <time>2023-11-26T09:22:53Z</time>
      </trkpt>
      <trkpt lat="43.63223" lon="6.63151">
        <ele>626.6</ele>
        <time>2023-11-26T09:22:54Z</time>
      </trkpt>
      <trkpt lat="43.63222" lon="6.63151">
        <ele>626.6</ele>
        <time>2023-11-26T09:22:55Z</time>
      </trkpt>
      <trkpt lat="43.63221" lon="6.63152">
        <ele>626.7</ele>
        <time>2023-11-26T09:22:56Z</time>
      </trkpt>
      <trkpt lat="43.63219" lon="6.63151">
        <ele>626.7</ele>
        <time>2023-11-26T09:22:57Z</time>
      </trkpt>
      <trkpt lat="43.63218" lon="6.63151">
        <ele>626.8</ele>
        <time>2023-11-26T09:22:58Z</time>
      </trkpt>
      <trkpt lat="43.63216" lon="6.63151">
        <ele>626.9</ele>
        <time>2023-11-26T09:22:59Z</time>
      </trkpt>
      <trkpt lat="43.63216" lon="6.6315">
        <ele>626.9</ele>
        <time>2023-11-26T09:23:00Z</time>
      </trkpt>
      <trkpt lat="43.63216" lon="6.63151">
        <ele>626.9</ele>
        <time>2023-11-26T09:23:01Z</time>
      </trkpt>
      <trkpt lat="43.63215" lon="6.6315">
        <ele>627</ele>
        <time>2023-11-26T09:23:02Z</time>
      </trkpt>
      <trkpt lat="43.63214" lon="6.6315">
        <ele>627.1</ele>
        <time>2023-11-26T09:23:03Z</time>
      </trkpt>
      <trkpt lat="43.63213" lon="6.63149">
        <ele>627.1</ele>
        <time>2023-11-26T09:23:04Z</time>
      </trkpt>
      <trkpt lat="43.63212" lon="6.63149">
        <ele>627.2</ele>
        <time>2023-11-26T09:23:05Z</time>
      </trkpt>
      <trkpt lat="43.63212" lon="6.63148">
        <ele>627.3</ele>
        <time>2023-11-26T09:23:06Z</time>
      </trkpt>
      <trkpt lat="43.6321" lon="6.63147">
        <ele>627.4</ele>
        <time>2023-11-26T09:23:07Z</time>
      </trkpt>
      <trkpt lat="43.63209" lon="6.63147">
        <ele>627.6</ele>
        <time>2023-11-26T09:23:08Z</time>
      </trkpt>
      <trkpt lat="43.63208" lon="6.63146">
        <ele>627.6</ele>
        <time>2023-11-26T09:23:09Z</time>
      </trkpt>
      <trkpt lat="43.63208" lon="6.63146">
        <ele>627.7</ele>
        <time>2023-11-26T09:23:10Z</time>
      </trkpt>
      <trkpt lat="43.63207" lon="6.63145">
        <ele>627.7</ele>
        <time>2023-11-26T09:23:11Z</time>
      </trkpt>
      <trkpt lat="43.63205" lon="6.63145">
        <ele>627.8</ele>
        <time>2023-11-26T09:23:12Z</time>
      </trkpt>
      <trkpt lat="43.63204" lon="6.63143">
        <ele>628</ele>
        <time>2023-11-26T09:23:13Z</time>
      </trkpt>
      <trkpt lat="43.63204" lon="6.63142">
        <ele>628</ele>
        <time>2023-11-26T09:23:14Z</time>
      </trkpt>
      <trkpt lat="43.63202" lon="6.63141">
        <ele>628</ele>
        <time>2023-11-26T09:23:15Z</time>
      </trkpt>
      <trkpt lat="43.63201" lon="6.63141">
        <ele>628</ele>
        <time>2023-11-26T09:23:16Z</time>
      </trkpt>
      <trkpt lat="43.63199" lon="6.6314">
        <ele>628</ele>
        <time>2023-11-26T09:23:17Z</time>
      </trkpt>
      <trkpt lat="43.63198" lon="6.63139">
        <ele>628.2</ele>
        <time>2023-11-26T09:23:18Z</time>
      </trkpt>
      <trkpt lat="43.63197" lon="6.63138">
        <ele>628.3</ele>
        <time>2023-11-26T09:23:19Z</time>
      </trkpt>
      <trkpt lat="43.63195" lon="6.63137">
        <ele>628.4</ele>
        <time>2023-11-26T09:23:20Z</time>
      </trkpt>
      <trkpt lat="43.63194" lon="6.63136">
        <ele>628.4</ele>
        <time>2023-11-26T09:23:21Z</time>
      </trkpt>
      <trkpt lat="43.63192" lon="6.63135">
        <ele>628.4</ele>
        <time>2023-11-26T09:23:22Z</time>
      </trkpt>
      <trkpt lat="43.63191" lon="6.63135">
        <ele>628.4</ele>
        <time>2023-11-26T09:23:23Z</time>
      </trkpt>
      <trkpt lat="43.6319" lon="6.63134">
        <ele>628.3</ele>
        <time>2023-11-26T09:23:24Z</time>
      </trkpt>
      <trkpt lat="43.63189" lon="6.63133">
        <ele>628.3</ele>
        <time>2023-11-26T09:23:25Z</time>
      </trkpt>
      <trkpt lat="43.63188" lon="6.63132">
        <ele>628.3</ele>
        <time>2023-11-26T09:23:26Z</time>
      </trkpt>
      <trkpt lat="43.63187" lon="6.6313">
        <ele>628.2</ele>
        <time>2023-11-26T09:23:27Z</time>
      </trkpt>
      <trkpt lat="43.63186" lon="6.63129">
        <ele>628.1</ele>
        <time>2023-11-26T09:23:28Z</time>
      </trkpt>
      <trkpt lat="43.63185" lon="6.63128">
        <ele>627.9</ele>
        <time>2023-11-26T09:23:29Z</time>
      </trkpt>
      <trkpt lat="43.63185" lon="6.63127">
        <ele>627.8</ele>
        <time>2023-11-26T09:23:30Z</time>
      </trkpt>
      <trkpt lat="43.63184" lon="6.63125">
        <ele>627.8</ele>
        <time>2023-11-26T09:23:31Z</time>
      </trkpt>
      <trkpt lat="43.63184" lon="6.63123">
        <ele>627.7</ele>
        <time>2023-11-26T09:23:32Z</time>
      </trkpt>
      <trkpt lat="43.63184" lon="6.63122">
        <ele>627.5</ele>
        <time>2023-11-26T09:23:33Z</time>
      </trkpt>
      <trkpt lat="43.63184" lon="6.6312">
        <ele>627.4</ele>
        <time>2023-11-26T09:23:34Z</time>
      </trkpt>
      <trkpt lat="43.63184" lon="6.63119">
        <ele>627.2</ele>
        <time>2023-11-26T09:23:35Z</time>
      </trkpt>
      <trkpt lat="43.63184" lon="6.63118">
        <ele>627</ele>
        <time>2023-11-26T09:23:36Z</time>
      </trkpt>
      <trkpt lat="43.63184" lon="6.63117">
        <ele>626.8</ele>
        <time>2023-11-26T09:23:37Z</time>
      </trkpt>
      <trkpt lat="43.63184" lon="6.63116">
        <ele>626.6</ele>
        <time>2023-11-26T09:23:38Z</time>
      </trkpt>
      <trkpt lat="43.63184" lon="6.63115">
        <ele>626.4</ele>
        <time>2023-11-26T09:23:39Z</time>
      </trkpt>
      <trkpt lat="43.63184" lon="6.63115">
        <ele>626.3</ele>
        <time>2023-11-26T09:23:40Z</time>
      </trkpt>
      <trkpt lat="43.63183" lon="6.63114">
        <ele>626.2</ele>
        <time>2023-11-26T09:23:41Z</time>
      </trkpt>
      <trkpt lat="43.63183" lon="6.63113">
        <ele>626</ele>
        <time>2023-11-26T09:23:42Z</time>
      </trkpt>
      <trkpt lat="43.63183" lon="6.63112">
        <ele>625.9</ele>
        <time>2023-11-26T09:23:43Z</time>
      </trkpt>
      <trkpt lat="43.63183" lon="6.63111">
        <ele>625.9</ele>
        <time>2023-11-26T09:23:44Z</time>
      </trkpt>
      <trkpt lat="43.63183" lon="6.6311">
        <ele>625.7</ele>
        <time>2023-11-26T09:23:45Z</time>
      </trkpt>
      <trkpt lat="43.63183" lon="6.63109">
        <ele>625.7</ele>
        <time>2023-11-26T09:23:46Z</time>
      </trkpt>
      <trkpt lat="43.63183" lon="6.63108">
        <ele>625.6</ele>
        <time>2023-11-26T09:23:47Z</time>
      </trkpt>
      <trkpt lat="43.63184" lon="6.63106">
        <ele>625.5</ele>
        <time>2023-11-26T09:23:48Z</time>
      </trkpt>
      <trkpt lat="43.63184" lon="6.63105">
        <ele>625.4</ele>
        <time>2023-11-26T09:23:49Z</time>
      </trkpt>
      <trkpt lat="43.63185" lon="6.63104">
        <ele>625.4</ele>
        <time>2023-11-26T09:23:50Z</time>
      </trkpt>
      <trkpt lat="43.63186" lon="6.63103">
        <ele>625.4</ele>
        <time>2023-11-26T09:23:51Z</time>
      </trkpt>
      <trkpt lat="43.63187" lon="6.63102">
        <ele>625.3</ele>
        <time>2023-11-26T09:23:52Z</time>
      </trkpt>
      <trkpt lat="43.63187" lon="6.63101">
        <ele>625.3</ele>
        <time>2023-11-26T09:23:53Z</time>
      </trkpt>
      <trkpt lat="43.63188" lon="6.631">
        <ele>625.2</ele>
        <time>2023-11-26T09:23:54Z</time>
      </trkpt>
      <trkpt lat="43.63188" lon="6.63098">
        <ele>625.1</ele>
        <time>2023-11-26T09:23:55Z</time>
      </trkpt>
      <trkpt lat="43.63188" lon="6.63097">
        <ele>625.1</ele>
        <time>2023-11-26T09:23:56Z</time>
      </trkpt>
      <trkpt lat="43.63189" lon="6.63095">
        <ele>625.1</ele>
        <time>2023-11-26T09:23:57Z</time>
      </trkpt>
      <trkpt lat="43.6319" lon="6.63094">
        <ele>625</ele>
        <time>2023-11-26T09:23:58Z</time>
      </trkpt>
      <trkpt lat="43.6319" lon="6.63092">
        <ele>624.9</ele>
        <time>2023-11-26T09:23:59Z</time>
      </trkpt>
      <trkpt lat="43.6319" lon="6.63091">
        <ele>624.8</ele>
        <time>2023-11-26T09:24:00Z</time>
      </trkpt>
      <trkpt lat="43.63191" lon="6.6309">
        <ele>624.7</ele>
        <time>2023-11-26T09:24:01Z</time>
      </trkpt>
      <trkpt lat="43.63191" lon="6.63088">
        <ele>624.7</ele>
        <time>2023-11-26T09:24:02Z</time>
      </trkpt>
      <trkpt lat="43.63191" lon="6.63086">
        <ele>624.6</ele>
        <time>2023-11-26T09:24:03Z</time>
      </trkpt>
      <trkpt lat="43.63191" lon="6.63084">
        <ele>624.6</ele>
        <time>2023-11-26T09:24:04Z</time>
      </trkpt>
      <trkpt lat="43.63192" lon="6.63083">
        <ele>624.5</ele>
        <time>2023-11-26T09:24:05Z</time>
      </trkpt>
      <trkpt lat="43.63192" lon="6.63081">
        <ele>624.4</ele>
        <time>2023-11-26T09:24:06Z</time>
      </trkpt>
      <trkpt lat="43.63192" lon="6.6308">
        <ele>624.4</ele>
        <time>2023-11-26T09:24:07Z</time>
      </trkpt>
      <trkpt lat="43.63193" lon="6.63079">
        <ele>624.3</ele>
        <time>2023-11-26T09:24:08Z</time>
      </trkpt>
      <trkpt lat="43.63194" lon="6.63077">
        <ele>624.3</ele>
        <time>2023-11-26T09:24:09Z</time>
      </trkpt>
      <trkpt lat="43.63194" lon="6.63076">
        <ele>624.2</ele>
        <time>2023-11-26T09:24:10Z</time>
      </trkpt>
      <trkpt lat="43.63194" lon="6.63074">
        <ele>624.1</ele>
        <time>2023-11-26T09:24:11Z</time>
      </trkpt>
      <trkpt lat="43.63195" lon="6.63073">
        <ele>624</ele>
        <time>2023-11-26T09:24:12Z</time>
      </trkpt>
      <trkpt lat="43.63195" lon="6.63071">
        <ele>623.8</ele>
        <time>2023-11-26T09:24:13Z</time>
      </trkpt>
      <trkpt lat="43.63196" lon="6.6307">
        <ele>623.7</ele>
        <time>2023-11-26T09:24:14Z</time>
      </trkpt>
      <trkpt lat="43.63197" lon="6.63068">
        <ele>623.6</ele>
        <time>2023-11-26T09:24:15Z</time>
      </trkpt>
      <trkpt lat="43.63197" lon="6.63067">
        <ele>623.5</ele>
        <time>2023-11-26T09:24:16Z</time>
      </trkpt>
      <trkpt lat="43.63198" lon="6.63066">
        <ele>623.4</ele>
        <time>2023-11-26T09:24:17Z</time>
      </trkpt>
      <trkpt lat="43.63198" lon="6.63064">
        <ele>623.4</ele>
        <time>2023-11-26T09:24:18Z</time>
      </trkpt>
      <trkpt lat="43.632" lon="6.63063">
        <ele>623.3</ele>
        <time>2023-11-26T09:24:19Z</time>
      </trkpt>
      <trkpt lat="43.632" lon="6.63061">
        <ele>623.2</ele>
        <time>2023-11-26T09:24:20Z</time>
      </trkpt>
      <trkpt lat="43.632" lon="6.6306">
        <ele>623.1</ele>
        <time>2023-11-26T09:24:21Z</time>
      </trkpt>
      <trkpt lat="43.63201" lon="6.63058">
        <ele>623.1</ele>
        <time>2023-11-26T09:24:22Z</time>
      </trkpt>
      <trkpt lat="43.63201" lon="6.63057">
        <ele>623</ele>
        <time>2023-11-26T09:24:23Z</time>
      </trkpt>
      <trkpt lat="43.63201" lon="6.63055">
        <ele>622.9</ele>
        <time>2023-11-26T09:24:24Z</time>
      </trkpt>
      <trkpt lat="43.63201" lon="6.63053">
        <ele>622.8</ele>
        <time>2023-11-26T09:24:25Z</time>
      </trkpt>
      <trkpt lat="43.63201" lon="6.63052">
        <ele>622.6</ele>
        <time>2023-11-26T09:24:26Z</time>
      </trkpt>
      <trkpt lat="43.63202" lon="6.6305">
        <ele>622.6</ele>
        <time>2023-11-26T09:24:27Z</time>
      </trkpt>
      <trkpt lat="43.63202" lon="6.63048">
        <ele>622.6</ele>
        <time>2023-11-26T09:24:28Z</time>
      </trkpt>
      <trkpt lat="43.63202" lon="6.63046">
        <ele>622.5</ele>
        <time>2023-11-26T09:24:29Z</time>
      </trkpt>
      <trkpt lat="43.63203" lon="6.63045">
        <ele>622.4</ele>
        <time>2023-11-26T09:24:30Z</time>
      </trkpt>
      <trkpt lat="43.63203" lon="6.63043">
        <ele>622.1</ele>
        <time>2023-11-26T09:24:31Z</time>
      </trkpt>
      <trkpt lat="43.63204" lon="6.63042">
        <ele>621.9</ele>
        <time>2023-11-26T09:24:32Z</time>
      </trkpt>
      <trkpt lat="43.63204" lon="6.6304">
        <ele>621.7</ele>
        <time>2023-11-26T09:24:33Z</time>
      </trkpt>
      <trkpt lat="43.63204" lon="6.63039">
        <ele>621.5</ele>
        <time>2023-11-26T09:24:34Z</time>
      </trkpt>
      <trkpt lat="43.63205" lon="6.63037">
        <ele>621.3</ele>
        <time>2023-11-26T09:24:35Z</time>
      </trkpt>
      <trkpt lat="43.63205" lon="6.63035">
        <ele>621.4</ele>
        <time>2023-11-26T09:24:36Z</time>
      </trkpt>
      <trkpt lat="43.63205" lon="6.63034">
        <ele>621.2</ele>
        <time>2023-11-26T09:24:37Z</time>
      </trkpt>
      <trkpt lat="43.63206" lon="6.63032">
        <ele>621.1</ele>
        <time>2023-11-26T09:24:38Z</time>
      </trkpt>
      <trkpt lat="43.63206" lon="6.63031">
        <ele>621.1</ele>
        <time>2023-11-26T09:24:39Z</time>
      </trkpt>
      <trkpt lat="43.63206" lon="6.63029">
        <ele>620.9</ele>
        <time>2023-11-26T09:24:40Z</time>
      </trkpt>
      <trkpt lat="43.63206" lon="6.63027">
        <ele>620.8</ele>
        <time>2023-11-26T09:24:41Z</time>
      </trkpt>
      <trkpt lat="43.63206" lon="6.63026">
        <ele>620.7</ele>
        <time>2023-11-26T09:24:42Z</time>
      </trkpt>
      <trkpt lat="43.63207" lon="6.63024">
        <ele>620.7</ele>
        <time>2023-11-26T09:24:43Z</time>
      </trkpt>
      <trkpt lat="43.63207" lon="6.63023">
        <ele>620.7</ele>
        <time>2023-11-26T09:24:44Z</time>
      </trkpt>
      <trkpt lat="43.63207" lon="6.63022">
        <ele>620.6</ele>
        <time>2023-11-26T09:24:45Z</time>
      </trkpt>
      <trkpt lat="43.63207" lon="6.6302">
        <ele>620.6</ele>
        <time>2023-11-26T09:24:46Z</time>
      </trkpt>
      <trkpt lat="43.63208" lon="6.63019">
        <ele>620.5</ele>
        <time>2023-11-26T09:24:47Z</time>
      </trkpt>
      <trkpt lat="43.63207" lon="6.63017">
        <ele>620.5</ele>
        <time>2023-11-26T09:24:48Z</time>
      </trkpt>
      <trkpt lat="43.63207" lon="6.63015">
        <ele>620.4</ele>
        <time>2023-11-26T09:24:49Z</time>
      </trkpt>
      <trkpt lat="43.63207" lon="6.63014">
        <ele>620.4</ele>
        <time>2023-11-26T09:24:50Z</time>
      </trkpt>
      <trkpt lat="43.63207" lon="6.63012">
        <ele>620.3</ele>
        <time>2023-11-26T09:24:51Z</time>
      </trkpt>
      <trkpt lat="43.63208" lon="6.6301">
        <ele>620.3</ele>
        <time>2023-11-26T09:24:52Z</time>
      </trkpt>
      <trkpt lat="43.63208" lon="6.63008">
        <ele>620.3</ele>
        <time>2023-11-26T09:24:53Z</time>
      </trkpt>
      <trkpt lat="43.63208" lon="6.63006">
        <ele>620.2</ele>
        <time>2023-11-26T09:24:54Z</time>
      </trkpt>
      <trkpt lat="43.63208" lon="6.63004">
        <ele>620.1</ele>
        <time>2023-11-26T09:24:55Z</time>
      </trkpt>
      <trkpt lat="43.63208" lon="6.63002">
        <ele>620</ele>
        <time>2023-11-26T09:24:56Z</time>
      </trkpt>
      <trkpt lat="43.63208" lon="6.63">
        <ele>620</ele>
        <time>2023-11-26T09:24:57Z</time>
      </trkpt>
      <trkpt lat="43.63207" lon="6.62998">
        <ele>620</ele>
        <time>2023-11-26T09:24:58Z</time>
      </trkpt>
      <trkpt lat="43.63207" lon="6.62997">
        <ele>620</ele>
        <time>2023-11-26T09:24:59Z</time>
      </trkpt>
      <trkpt lat="43.63207" lon="6.62995">
        <ele>620</ele>
        <time>2023-11-26T09:25:00Z</time>
      </trkpt>
      <trkpt lat="43.63207" lon="6.62992">
        <ele>619.9</ele>
        <time>2023-11-26T09:25:01Z</time>
      </trkpt>
      <trkpt lat="43.63207" lon="6.62991">
        <ele>619.9</ele>
        <time>2023-11-26T09:25:02Z</time>
      </trkpt>
      <trkpt lat="43.63207" lon="6.62989">
        <ele>619.8</ele>
        <time>2023-11-26T09:25:03Z</time>
      </trkpt>
      <trkpt lat="43.63206" lon="6.62988">
        <ele>619.8</ele>
        <time>2023-11-26T09:25:04Z</time>
      </trkpt>
      <trkpt lat="43.63206" lon="6.62986">
        <ele>619.7</ele>
        <time>2023-11-26T09:25:05Z</time>
      </trkpt>
      <trkpt lat="43.63206" lon="6.62984">
        <ele>619.6</ele>
        <time>2023-11-26T09:25:06Z</time>
      </trkpt>
      <trkpt lat="43.63206" lon="6.62982">
        <ele>619.6</ele>
        <time>2023-11-26T09:25:07Z</time>
      </trkpt>
      <trkpt lat="43.63206" lon="6.6298">
        <ele>619.5</ele>
        <time>2023-11-26T09:25:08Z</time>
      </trkpt>
      <trkpt lat="43.63207" lon="6.62978">
        <ele>619.3</ele>
        <time>2023-11-26T09:25:09Z</time>
      </trkpt>
      <trkpt lat="43.63206" lon="6.62976">
        <ele>619.1</ele>
        <time>2023-11-26T09:25:10Z</time>
      </trkpt>
      <trkpt lat="43.63206" lon="6.62974">
        <ele>619</ele>
        <time>2023-11-26T09:25:11Z</time>
      </trkpt>
      <trkpt lat="43.63206" lon="6.62973">
        <ele>618.9</ele>
        <time>2023-11-26T09:25:12Z</time>
      </trkpt>
      <trkpt lat="43.63205" lon="6.62972">
        <ele>618.8</ele>
        <time>2023-11-26T09:25:13Z</time>
      </trkpt>
      <trkpt lat="43.63206" lon="6.6297">
        <ele>618.7</ele>
        <time>2023-11-26T09:25:14Z</time>
      </trkpt>
      <trkpt lat="43.63205" lon="6.62968">
        <ele>618.6</ele>
        <time>2023-11-26T09:25:15Z</time>
      </trkpt>
      <trkpt lat="43.63205" lon="6.62966">
        <ele>618.5</ele>
        <time>2023-11-26T09:25:16Z</time>
      </trkpt>
      <trkpt lat="43.63205" lon="6.62965">
        <ele>618.5</ele>
        <time>2023-11-26T09:25:17Z</time>
      </trkpt>
      <trkpt lat="43.63205" lon="6.62963">
        <ele>618.4</ele>
        <time>2023-11-26T09:25:18Z</time>
      </trkpt>
      <trkpt lat="43.63205" lon="6.62961">
        <ele>618.4</ele>
        <time>2023-11-26T09:25:19Z</time>
      </trkpt>
      <trkpt lat="43.63205" lon="6.62959">
        <ele>618.3</ele>
        <time>2023-11-26T09:25:20Z</time>
      </trkpt>
      <trkpt lat="43.63205" lon="6.62958">
        <ele>618.3</ele>
        <time>2023-11-26T09:25:21Z</time>
      </trkpt>
      <trkpt lat="43.63205" lon="6.62956">
        <ele>618.3</ele>
        <time>2023-11-26T09:25:22Z</time>
      </trkpt>
      <trkpt lat="43.63205" lon="6.62954">
        <ele>618.3</ele>
        <time>2023-11-26T09:25:23Z</time>
      </trkpt>
      <trkpt lat="43.63205" lon="6.62952">
        <ele>618.3</ele>
        <time>2023-11-26T09:25:24Z</time>
      </trkpt>
      <trkpt lat="43.63205" lon="6.62951">
        <ele>618.2</ele>
        <time>2023-11-26T09:25:25Z</time>
      </trkpt>
      <trkpt lat="43.63204" lon="6.62949">
        <ele>618.2</ele>
        <time>2023-11-26T09:25:26Z</time>
      </trkpt>
      <trkpt lat="43.63204" lon="6.62948">
        <ele>618.2</ele>
        <time>2023-11-26T09:25:27Z</time>
      </trkpt>
      <trkpt lat="43.63204" lon="6.62946">
        <ele>618.2</ele>
        <time>2023-11-26T09:25:28Z</time>
      </trkpt>
      <trkpt lat="43.63204" lon="6.62945">
        <ele>618.2</ele>
        <time>2023-11-26T09:25:29Z</time>
      </trkpt>
      <trkpt lat="43.63203" lon="6.62943">
        <ele>618.1</ele>
        <time>2023-11-26T09:25:30Z</time>
      </trkpt>
      <trkpt lat="43.63203" lon="6.6294">
        <ele>618.1</ele>
        <time>2023-11-26T09:25:31Z</time>
      </trkpt>
      <trkpt lat="43.63202" lon="6.62938">
        <ele>618.1</ele>
        <time>2023-11-26T09:25:32Z</time>
      </trkpt>
      <trkpt lat="43.63202" lon="6.62937">
        <ele>618.1</ele>
        <time>2023-11-26T09:25:33Z</time>
      </trkpt>
      <trkpt lat="43.63201" lon="6.62935">
        <ele>618</ele>
        <time>2023-11-26T09:25:34Z</time>
      </trkpt>
      <trkpt lat="43.632" lon="6.62933">
        <ele>618.1</ele>
        <time>2023-11-26T09:25:35Z</time>
      </trkpt>
      <trkpt lat="43.632" lon="6.62931">
        <ele>618.1</ele>
        <time>2023-11-26T09:25:36Z</time>
      </trkpt>
      <trkpt lat="43.63199" lon="6.62929">
        <ele>618</ele>
        <time>2023-11-26T09:25:37Z</time>
      </trkpt>
      <trkpt lat="43.63199" lon="6.62927">
        <ele>618</ele>
        <time>2023-11-26T09:25:38Z</time>
      </trkpt>
      <trkpt lat="43.63199" lon="6.62926">
        <ele>617.9</ele>
        <time>2023-11-26T09:25:39Z</time>
      </trkpt>
      <trkpt lat="43.63198" lon="6.62925">
        <ele>617.8</ele>
        <time>2023-11-26T09:25:40Z</time>
      </trkpt>
      <trkpt lat="43.63198" lon="6.62924">
        <ele>617.7</ele>
        <time>2023-11-26T09:25:41Z</time>
      </trkpt>
      <trkpt lat="43.63198" lon="6.62922">
        <ele>617.7</ele>
        <time>2023-11-26T09:25:42Z</time>
      </trkpt>
      <trkpt lat="43.63198" lon="6.62921">
        <ele>617.7</ele>
        <time>2023-11-26T09:25:43Z</time>
      </trkpt>
      <trkpt lat="43.63197" lon="6.62919">
        <ele>617.6</ele>
        <time>2023-11-26T09:25:44Z</time>
      </trkpt>
      <trkpt lat="43.63197" lon="6.62918">
        <ele>617.7</ele>
        <time>2023-11-26T09:25:45Z</time>
      </trkpt>
      <trkpt lat="43.63196" lon="6.62916">
        <ele>617.7</ele>
        <time>2023-11-26T09:25:46Z</time>
      </trkpt>
      <trkpt lat="43.63196" lon="6.62914">
        <ele>617.6</ele>
        <time>2023-11-26T09:25:47Z</time>
      </trkpt>
      <trkpt lat="43.63196" lon="6.62913">
        <ele>617.6</ele>
        <time>2023-11-26T09:25:48Z</time>
      </trkpt>
      <trkpt lat="43.63196" lon="6.62911">
        <ele>617.6</ele>
        <time>2023-11-26T09:25:49Z</time>
      </trkpt>
      <trkpt lat="43.63195" lon="6.6291">
        <ele>617.6</ele>
        <time>2023-11-26T09:25:50Z</time>
      </trkpt>
      <trkpt lat="43.63195" lon="6.62909">
        <ele>617.6</ele>
        <time>2023-11-26T09:25:51Z</time>
      </trkpt>
      <trkpt lat="43.63195" lon="6.62907">
        <ele>617.5</ele>
        <time>2023-11-26T09:25:52Z</time>
      </trkpt>
      <trkpt lat="43.63195" lon="6.62905">
        <ele>617.6</ele>
        <time>2023-11-26T09:25:53Z</time>
      </trkpt>
      <trkpt lat="43.63194" lon="6.62904">
        <ele>617.6</ele>
        <time>2023-11-26T09:25:54Z</time>
      </trkpt>
      <trkpt lat="43.63194" lon="6.62903">
        <ele>617.7</ele>
        <time>2023-11-26T09:25:55Z</time>
      </trkpt>
      <trkpt lat="43.63194" lon="6.62901">
        <ele>617.7</ele>
        <time>2023-11-26T09:25:56Z</time>
      </trkpt>
      <trkpt lat="43.63194" lon="6.629">
        <ele>617.7</ele>
        <time>2023-11-26T09:25:57Z</time>
      </trkpt>
      <trkpt lat="43.63195" lon="6.62898">
        <ele>617.8</ele>
        <time>2023-11-26T09:25:58Z</time>
      </trkpt>
      <trkpt lat="43.63195" lon="6.62897">
        <ele>617.7</ele>
        <time>2023-11-26T09:25:59Z</time>
      </trkpt>
      <trkpt lat="43.63196" lon="6.62895">
        <ele>617.6</ele>
        <time>2023-11-26T09:26:00Z</time>
      </trkpt>
      <trkpt lat="43.63195" lon="6.62895">
        <ele>617.6</ele>
        <time>2023-11-26T09:26:01Z</time>
      </trkpt>
      <trkpt lat="43.63195" lon="6.62893">
        <ele>617.6</ele>
        <time>2023-11-26T09:26:02Z</time>
      </trkpt>
      <trkpt lat="43.63195" lon="6.62891">
        <ele>617.5</ele>
        <time>2023-11-26T09:26:03Z</time>
      </trkpt>
      <trkpt lat="43.63196" lon="6.6289">
        <ele>617.5</ele>
        <time>2023-11-26T09:26:04Z</time>
      </trkpt>
      <trkpt lat="43.63196" lon="6.62888">
        <ele>617.6</ele>
        <time>2023-11-26T09:26:05Z</time>
      </trkpt>
      <trkpt lat="43.63196" lon="6.62887">
        <ele>617.6</ele>
        <time>2023-11-26T09:26:06Z</time>
      </trkpt>
      <trkpt lat="43.63197" lon="6.62886">
        <ele>617.7</ele>
        <time>2023-11-26T09:26:07Z</time>
      </trkpt>
      <trkpt lat="43.63197" lon="6.62884">
        <ele>617.8</ele>
        <time>2023-11-26T09:26:08Z</time>
      </trkpt>
      <trkpt lat="43.63198" lon="6.62883">
        <ele>617.8</ele>
        <time>2023-11-26T09:26:09Z</time>
      </trkpt>
      <trkpt lat="43.63198" lon="6.62881">
        <ele>617.8</ele>
        <time>2023-11-26T09:26:10Z</time>
      </trkpt>
      <trkpt lat="43.63198" lon="6.62879">
        <ele>617.9</ele>
        <time>2023-11-26T09:26:11Z</time>
      </trkpt>
      <trkpt lat="43.63198" lon="6.62877">
        <ele>618</ele>
        <time>2023-11-26T09:26:12Z</time>
      </trkpt>
      <trkpt lat="43.63198" lon="6.62875">
        <ele>618</ele>
        <time>2023-11-26T09:26:13Z</time>
      </trkpt>
      <trkpt lat="43.63199" lon="6.62873">
        <ele>618.1</ele>
        <time>2023-11-26T09:26:14Z</time>
      </trkpt>
      <trkpt lat="43.63199" lon="6.62871">
        <ele>618.2</ele>
        <time>2023-11-26T09:26:15Z</time>
      </trkpt>
      <trkpt lat="43.63198" lon="6.62869">
        <ele>618.3</ele>
        <time>2023-11-26T09:26:16Z</time>
      </trkpt>
      <trkpt lat="43.63198" lon="6.62867">
        <ele>618.4</ele>
        <time>2023-11-26T09:26:17Z</time>
      </trkpt>
      <trkpt lat="43.63197" lon="6.62865">
        <ele>618.5</ele>
        <time>2023-11-26T09:26:18Z</time>
      </trkpt>
      <trkpt lat="43.63196" lon="6.62863">
        <ele>618.6</ele>
        <time>2023-11-26T09:26:19Z</time>
      </trkpt>
      <trkpt lat="43.63196" lon="6.62861">
        <ele>618.6</ele>
        <time>2023-11-26T09:26:20Z</time>
      </trkpt>
      <trkpt lat="43.63195" lon="6.6286">
        <ele>618.7</ele>
        <time>2023-11-26T09:26:21Z</time>
      </trkpt>
      <trkpt lat="43.63195" lon="6.62858">
        <ele>618.8</ele>
        <time>2023-11-26T09:26:22Z</time>
      </trkpt>
      <trkpt lat="43.63194" lon="6.62856">
        <ele>618.8</ele>
        <time>2023-11-26T09:26:23Z</time>
      </trkpt>
      <trkpt lat="43.63193" lon="6.62854">
        <ele>618.9</ele>
        <time>2023-11-26T09:26:24Z</time>
      </trkpt>
      <trkpt lat="43.63192" lon="6.62853">
        <ele>618.8</ele>
        <time>2023-11-26T09:26:25Z</time>
      </trkpt>
      <trkpt lat="43.63191" lon="6.62851">
        <ele>618.7</ele>
        <time>2023-11-26T09:26:26Z</time>
      </trkpt>
      <trkpt lat="43.6319" lon="6.6285">
        <ele>618.7</ele>
        <time>2023-11-26T09:26:27Z</time>
      </trkpt>
      <trkpt lat="43.6319" lon="6.62848">
        <ele>618.7</ele>
        <time>2023-11-26T09:26:28Z</time>
      </trkpt>
      <trkpt lat="43.63189" lon="6.62847">
        <ele>618.7</ele>
        <time>2023-11-26T09:26:29Z</time>
      </trkpt>
      <trkpt lat="43.63188" lon="6.62845">
        <ele>618.8</ele>
        <time>2023-11-26T09:26:30Z</time>
      </trkpt>
      <trkpt lat="43.63188" lon="6.62844">
        <ele>618.8</ele>
        <time>2023-11-26T09:26:31Z</time>
      </trkpt>
      <trkpt lat="43.63187" lon="6.62842">
        <ele>619</ele>
        <time>2023-11-26T09:26:32Z</time>
      </trkpt>
      <trkpt lat="43.63186" lon="6.6284">
        <ele>619</ele>
        <time>2023-11-26T09:26:33Z</time>
      </trkpt>
      <trkpt lat="43.63186" lon="6.62839">
        <ele>619.1</ele>
        <time>2023-11-26T09:26:34Z</time>
      </trkpt>
      <trkpt lat="43.63185" lon="6.62837">
        <ele>619.2</ele>
        <time>2023-11-26T09:26:35Z</time>
      </trkpt>
      <trkpt lat="43.63185" lon="6.62835">
        <ele>619.2</ele>
        <time>2023-11-26T09:26:36Z</time>
      </trkpt>
      <trkpt lat="43.63184" lon="6.62834">
        <ele>619.3</ele>
        <time>2023-11-26T09:26:37Z</time>
      </trkpt>
      <trkpt lat="43.63183" lon="6.62833">
        <ele>619.3</ele>
        <time>2023-11-26T09:26:38Z</time>
      </trkpt>
      <trkpt lat="43.63183" lon="6.62832">
        <ele>619.3</ele>
        <time>2023-11-26T09:26:39Z</time>
      </trkpt>
      <trkpt lat="43.63182" lon="6.6283">
        <ele>619.4</ele>
        <time>2023-11-26T09:26:40Z</time>
      </trkpt>
      <trkpt lat="43.63181" lon="6.62829">
        <ele>619.4</ele>
        <time>2023-11-26T09:26:41Z</time>
      </trkpt>
      <trkpt lat="43.63181" lon="6.62827">
        <ele>619.4</ele>
        <time>2023-11-26T09:26:42Z</time>
      </trkpt>
      <trkpt lat="43.6318" lon="6.62827">
        <ele>619.6</ele>
        <time>2023-11-26T09:26:43Z</time>
      </trkpt>
      <trkpt lat="43.63179" lon="6.62825">
        <ele>619.7</ele>
        <time>2023-11-26T09:26:44Z</time>
      </trkpt>
      <trkpt lat="43.63178" lon="6.62824">
        <ele>619.7</ele>
        <time>2023-11-26T09:26:45Z</time>
      </trkpt>
      <trkpt lat="43.63177" lon="6.62822">
        <ele>619.8</ele>
        <time>2023-11-26T09:26:46Z</time>
      </trkpt>
      <trkpt lat="43.63176" lon="6.62821">
        <ele>619.9</ele>
        <time>2023-11-26T09:26:47Z</time>
      </trkpt>
      <trkpt lat="43.63175" lon="6.62819">
        <ele>620</ele>
        <time>2023-11-26T09:26:48Z</time>
      </trkpt>
      <trkpt lat="43.63174" lon="6.62818">
        <ele>620.1</ele>
        <time>2023-11-26T09:26:49Z</time>
      </trkpt>
      <trkpt lat="43.63173" lon="6.62817">
        <ele>620.1</ele>
        <time>2023-11-26T09:26:50Z</time>
      </trkpt>
      <trkpt lat="43.63172" lon="6.62816">
        <ele>620.2</ele>
        <time>2023-11-26T09:26:51Z</time>
      </trkpt>
      <trkpt lat="43.63171" lon="6.62814">
        <ele>620.2</ele>
        <time>2023-11-26T09:26:52Z</time>
      </trkpt>
      <trkpt lat="43.6317" lon="6.62812">
        <ele>620.2</ele>
        <time>2023-11-26T09:26:53Z</time>
      </trkpt>
      <trkpt lat="43.63169" lon="6.6281">
        <ele>620.3</ele>
        <time>2023-11-26T09:26:54Z</time>
      </trkpt>
      <trkpt lat="43.63168" lon="6.62809">
        <ele>620.3</ele>
        <time>2023-11-26T09:26:55Z</time>
      </trkpt>
      <trkpt lat="43.63167" lon="6.62808">
        <ele>620.4</ele>
        <time>2023-11-26T09:26:56Z</time>
      </trkpt>
      <trkpt lat="43.63166" lon="6.62806">
        <ele>620.5</ele>
        <time>2023-11-26T09:26:57Z</time>
      </trkpt>
      <trkpt lat="43.63165" lon="6.62805">
        <ele>620.5</ele>
        <time>2023-11-26T09:26:58Z</time>
      </trkpt>
      <trkpt lat="43.63164" lon="6.62803">
        <ele>620.5</ele>
        <time>2023-11-26T09:26:59Z</time>
      </trkpt>
      <trkpt lat="43.63163" lon="6.62802">
        <ele>620.5</ele>
        <time>2023-11-26T09:27:00Z</time>
      </trkpt>
      <trkpt lat="43.63161" lon="6.628">
        <ele>620.5</ele>
        <time>2023-11-26T09:27:01Z</time>
      </trkpt>
      <trkpt lat="43.6316" lon="6.62799">
        <ele>620.5</ele>
        <time>2023-11-26T09:27:02Z</time>
      </trkpt>
      <trkpt lat="43.63159" lon="6.62797">
        <ele>620.4</ele>
        <time>2023-11-26T09:27:03Z</time>
      </trkpt>
      <trkpt lat="43.63158" lon="6.62795">
        <ele>620.4</ele>
        <time>2023-11-26T09:27:04Z</time>
      </trkpt>
      <trkpt lat="43.63158" lon="6.62793">
        <ele>620.4</ele>
        <time>2023-11-26T09:27:05Z</time>
      </trkpt>
      <trkpt lat="43.63157" lon="6.62791">
        <ele>620.4</ele>
        <time>2023-11-26T09:27:06Z</time>
      </trkpt>
      <trkpt lat="43.63157" lon="6.62789">
        <ele>620.3</ele>
        <time>2023-11-26T09:27:07Z</time>
      </trkpt>
      <trkpt lat="43.63156" lon="6.62787">
        <ele>620.2</ele>
        <time>2023-11-26T09:27:08Z</time>
      </trkpt>
      <trkpt lat="43.63156" lon="6.62786">
        <ele>620.2</ele>
        <time>2023-11-26T09:27:09Z</time>
      </trkpt>
      <trkpt lat="43.63155" lon="6.62784">
        <ele>620.2</ele>
        <time>2023-11-26T09:27:10Z</time>
      </trkpt>
      <trkpt lat="43.63154" lon="6.62783">
        <ele>620</ele>
        <time>2023-11-26T09:27:11Z</time>
      </trkpt>
      <trkpt lat="43.63154" lon="6.62781">
        <ele>619.9</ele>
        <time>2023-11-26T09:27:12Z</time>
      </trkpt>
      <trkpt lat="43.63154" lon="6.62779">
        <ele>619.9</ele>
        <time>2023-11-26T09:27:13Z</time>
      </trkpt>
      <trkpt lat="43.63154" lon="6.62777">
        <ele>619.8</ele>
        <time>2023-11-26T09:27:14Z</time>
      </trkpt>
      <trkpt lat="43.63154" lon="6.62776">
        <ele>619.8</ele>
        <time>2023-11-26T09:27:15Z</time>
      </trkpt>
      <trkpt lat="43.63153" lon="6.62774">
        <ele>619.8</ele>
        <time>2023-11-26T09:27:16Z</time>
      </trkpt>
      <trkpt lat="43.63152" lon="6.62772">
        <ele>619.7</ele>
        <time>2023-11-26T09:27:17Z</time>
      </trkpt>
      <trkpt lat="43.63152" lon="6.6277">
        <ele>619.8</ele>
        <time>2023-11-26T09:27:18Z</time>
      </trkpt>
      <trkpt lat="43.63152" lon="6.62768">
        <ele>619.7</ele>
        <time>2023-11-26T09:27:19Z</time>
      </trkpt>
      <trkpt lat="43.63152" lon="6.62767">
        <ele>619.7</ele>
        <time>2023-11-26T09:27:20Z</time>
      </trkpt>
      <trkpt lat="43.63152" lon="6.62765">
        <ele>619.7</ele>
        <time>2023-11-26T09:27:21Z</time>
      </trkpt>
      <trkpt lat="43.63152" lon="6.62763">
        <ele>619.8</ele>
        <time>2023-11-26T09:27:22Z</time>
      </trkpt>
      <trkpt lat="43.63152" lon="6.62762">
        <ele>619.8</ele>
        <time>2023-11-26T09:27:23Z</time>
      </trkpt>
      <trkpt lat="43.63153" lon="6.62761">
        <ele>619.9</ele>
        <time>2023-11-26T09:27:24Z</time>
      </trkpt>
      <trkpt lat="43.63152" lon="6.62759">
        <ele>619.9</ele>
        <time>2023-11-26T09:27:25Z</time>
      </trkpt>
      <trkpt lat="43.63152" lon="6.62758">
        <ele>620</ele>
        <time>2023-11-26T09:27:26Z</time>
      </trkpt>
      <trkpt lat="43.63152" lon="6.62756">
        <ele>620.1</ele>
        <time>2023-11-26T09:27:27Z</time>
      </trkpt>
      <trkpt lat="43.63152" lon="6.62755">
        <ele>620.2</ele>
        <time>2023-11-26T09:27:28Z</time>
      </trkpt>
      <trkpt lat="43.63151" lon="6.62754">
        <ele>620.2</ele>
        <time>2023-11-26T09:27:29Z</time>
      </trkpt>
      <trkpt lat="43.6315" lon="6.62753">
        <ele>620.2</ele>
        <time>2023-11-26T09:27:30Z</time>
      </trkpt>
      <trkpt lat="43.6315" lon="6.62752">
        <ele>620.1</ele>
        <time>2023-11-26T09:27:31Z</time>
      </trkpt>
      <trkpt lat="43.63149" lon="6.6275">
        <ele>620.1</ele>
        <time>2023-11-26T09:27:32Z</time>
      </trkpt>
      <trkpt lat="43.63149" lon="6.62748">
        <ele>620.1</ele>
        <time>2023-11-26T09:27:33Z</time>
      </trkpt>
      <trkpt lat="43.63149" lon="6.62747">
        <ele>620.1</ele>
        <time>2023-11-26T09:27:34Z</time>
      </trkpt>
      <trkpt lat="43.63149" lon="6.62746">
        <ele>620.1</ele>
        <time>2023-11-26T09:27:35Z</time>
      </trkpt>
      <trkpt lat="43.6315" lon="6.62744">
        <ele>620.1</ele>
        <time>2023-11-26T09:27:36Z</time>
      </trkpt>
      <trkpt lat="43.63151" lon="6.62741">
        <ele>620.2</ele>
        <time>2023-11-26T09:27:37Z</time>
      </trkpt>
      <trkpt lat="43.63151" lon="6.6274">
        <ele>620.2</ele>
        <time>2023-11-26T09:27:38Z</time>
      </trkpt>
      <trkpt lat="43.63152" lon="6.62738">
        <ele>620.3</ele>
        <time>2023-11-26T09:27:39Z</time>
      </trkpt>
      <trkpt lat="43.63152" lon="6.62736">
        <ele>620.3</ele>
        <time>2023-11-26T09:27:40Z</time>
      </trkpt>
      <trkpt lat="43.63152" lon="6.62735">
        <ele>620.3</ele>
        <time>2023-11-26T09:27:41Z</time>
      </trkpt>
      <trkpt lat="43.63153" lon="6.62733">
        <ele>620.4</ele>
        <time>2023-11-26T09:27:42Z</time>
      </trkpt>
      <trkpt lat="43.63152" lon="6.62731">
        <ele>620.5</ele>
        <time>2023-11-26T09:27:43Z</time>
      </trkpt>
      <trkpt lat="43.63153" lon="6.62729">
        <ele>620.5</ele>
        <time>2023-11-26T09:27:44Z</time>
      </trkpt>
      <trkpt lat="43.63153" lon="6.62727">
        <ele>620.7</ele>
        <time>2023-11-26T09:27:45Z</time>
      </trkpt>
      <trkpt lat="43.63153" lon="6.62725">
        <ele>620.7</ele>
        <time>2023-11-26T09:27:46Z</time>
      </trkpt>
      <trkpt lat="43.63152" lon="6.62723">
        <ele>620.9</ele>
        <time>2023-11-26T09:27:47Z</time>
      </trkpt>
      <trkpt lat="43.63153" lon="6.62721">
        <ele>621</ele>
        <time>2023-11-26T09:27:48Z</time>
      </trkpt>
      <trkpt lat="43.63152" lon="6.6272">
        <ele>621</ele>
        <time>2023-11-26T09:27:49Z</time>
      </trkpt>
      <trkpt lat="43.63152" lon="6.62718">
        <ele>621</ele>
        <time>2023-11-26T09:27:50Z</time>
      </trkpt>
      <trkpt lat="43.63152" lon="6.62717">
        <ele>620.8</ele>
        <time>2023-11-26T09:27:51Z</time>
      </trkpt>
      <trkpt lat="43.63151" lon="6.62715">
        <ele>620.7</ele>
        <time>2023-11-26T09:27:52Z</time>
      </trkpt>
      <trkpt lat="43.6315" lon="6.62713">
        <ele>620.7</ele>
        <time>2023-11-26T09:27:53Z</time>
      </trkpt>
      <trkpt lat="43.6315" lon="6.62711">
        <ele>620.5</ele>
        <time>2023-11-26T09:27:54Z</time>
      </trkpt>
      <trkpt lat="43.63149" lon="6.62709">
        <ele>620.3</ele>
        <time>2023-11-26T09:27:55Z</time>
      </trkpt>
      <trkpt lat="43.63148" lon="6.62708">
        <ele>620.1</ele>
        <time>2023-11-26T09:27:56Z</time>
      </trkpt>
      <trkpt lat="43.63147" lon="6.62706">
        <ele>620</ele>
        <time>2023-11-26T09:27:57Z</time>
      </trkpt>
      <trkpt lat="43.63147" lon="6.62705">
        <ele>619.9</ele>
        <time>2023-11-26T09:27:58Z</time>
      </trkpt>
      <trkpt lat="43.63147" lon="6.62703">
        <ele>619.7</ele>
        <time>2023-11-26T09:27:59Z</time>
      </trkpt>
      <trkpt lat="43.63146" lon="6.62702">
        <ele>619.5</ele>
        <time>2023-11-26T09:28:00Z</time>
      </trkpt>
      <trkpt lat="43.63146" lon="6.627">
        <ele>619.4</ele>
        <time>2023-11-26T09:28:01Z</time>
      </trkpt>
      <trkpt lat="43.63146" lon="6.62698">
        <ele>619.2</ele>
        <time>2023-11-26T09:28:02Z</time>
      </trkpt>
      <trkpt lat="43.63146" lon="6.62696">
        <ele>619</ele>
        <time>2023-11-26T09:28:03Z</time>
      </trkpt>
      <trkpt lat="43.63145" lon="6.62694">
        <ele>618.9</ele>
        <time>2023-11-26T09:28:04Z</time>
      </trkpt>
      <trkpt lat="43.63145" lon="6.62692">
        <ele>618.8</ele>
        <time>2023-11-26T09:28:05Z</time>
      </trkpt>
      <trkpt lat="43.63144" lon="6.6269">
        <ele>618.7</ele>
        <time>2023-11-26T09:28:06Z</time>
      </trkpt>
      <trkpt lat="43.63144" lon="6.62688">
        <ele>618.5</ele>
        <time>2023-11-26T09:28:07Z</time>
      </trkpt>
      <trkpt lat="43.63143" lon="6.62686">
        <ele>618.3</ele>
        <time>2023-11-26T09:28:08Z</time>
      </trkpt>
      <trkpt lat="43.63144" lon="6.62685">
        <ele>618.3</ele>
        <time>2023-11-26T09:28:09Z</time>
      </trkpt>
      <trkpt lat="43.63144" lon="6.62683">
        <ele>618.2</ele>
        <time>2023-11-26T09:28:10Z</time>
      </trkpt>
      <trkpt lat="43.63144" lon="6.62681">
        <ele>617.9</ele>
        <time>2023-11-26T09:28:11Z</time>
      </trkpt>
      <trkpt lat="43.63145" lon="6.62679">
        <ele>617.7</ele>
        <time>2023-11-26T09:28:12Z</time>
      </trkpt>
      <trkpt lat="43.63145" lon="6.62677">
        <ele>617.5</ele>
        <time>2023-11-26T09:28:13Z</time>
      </trkpt>
      <trkpt lat="43.63146" lon="6.62676">
        <ele>617.4</ele>
        <time>2023-11-26T09:28:14Z</time>
      </trkpt>
      <trkpt lat="43.63146" lon="6.62674">
        <ele>617.4</ele>
        <time>2023-11-26T09:28:15Z</time>
      </trkpt>
      <trkpt lat="43.63147" lon="6.62673">
        <ele>617.3</ele>
        <time>2023-11-26T09:28:16Z</time>
      </trkpt>
      <trkpt lat="43.63147" lon="6.62671">
        <ele>617.3</ele>
        <time>2023-11-26T09:28:17Z</time>
      </trkpt>
      <trkpt lat="43.63147" lon="6.62669">
        <ele>617.2</ele>
        <time>2023-11-26T09:28:18Z</time>
      </trkpt>
      <trkpt lat="43.63147" lon="6.62668">
        <ele>617.2</ele>
        <time>2023-11-26T09:28:19Z</time>
      </trkpt>
      <trkpt lat="43.63147" lon="6.62667">
        <ele>617.2</ele>
        <time>2023-11-26T09:28:20Z</time>
      </trkpt>
      <trkpt lat="43.63147" lon="6.62666">
        <ele>617.2</ele>
        <time>2023-11-26T09:28:21Z</time>
      </trkpt>
      <trkpt lat="43.63147" lon="6.62665">
        <ele>617.2</ele>
        <time>2023-11-26T09:28:22Z</time>
      </trkpt>
      <trkpt lat="43.63148" lon="6.62663">
        <ele>617.1</ele>
        <time>2023-11-26T09:28:23Z</time>
      </trkpt>
      <trkpt lat="43.63148" lon="6.62662">
        <ele>617.2</ele>
        <time>2023-11-26T09:28:24Z</time>
      </trkpt>
      <trkpt lat="43.63149" lon="6.6266">
        <ele>617.1</ele>
        <time>2023-11-26T09:28:25Z</time>
      </trkpt>
      <trkpt lat="43.63149" lon="6.62659">
        <ele>617.2</ele>
        <time>2023-11-26T09:28:26Z</time>
      </trkpt>
      <trkpt lat="43.63149" lon="6.62657">
        <ele>617.4</ele>
        <time>2023-11-26T09:28:27Z</time>
      </trkpt>
      <trkpt lat="43.6315" lon="6.62655">
        <ele>617.5</ele>
        <time>2023-11-26T09:28:28Z</time>
      </trkpt>
      <trkpt lat="43.6315" lon="6.62654">
        <ele>617.6</ele>
        <time>2023-11-26T09:28:29Z</time>
      </trkpt>
      <trkpt lat="43.63151" lon="6.62652">
        <ele>617.7</ele>
        <time>2023-11-26T09:28:30Z</time>
      </trkpt>
      <trkpt lat="43.63152" lon="6.62652">
        <ele>617.7</ele>
        <time>2023-11-26T09:28:31Z</time>
      </trkpt>
      <trkpt lat="43.63152" lon="6.62651">
        <ele>617.8</ele>
        <time>2023-11-26T09:28:32Z</time>
      </trkpt>
      <trkpt lat="43.63152" lon="6.6265">
        <ele>618</ele>
        <time>2023-11-26T09:28:33Z</time>
      </trkpt>
      <trkpt lat="43.63153" lon="6.6265">
        <ele>618.1</ele>
        <time>2023-11-26T09:28:34Z</time>
      </trkpt>
      <trkpt lat="43.63152" lon="6.62648">
        <ele>618.3</ele>
        <time>2023-11-26T09:28:35Z</time>
      </trkpt>
      <trkpt lat="43.63152" lon="6.62647">
        <ele>618.5</ele>
        <time>2023-11-26T09:28:36Z</time>
      </trkpt>
      <trkpt lat="43.63153" lon="6.62647">
        <ele>618.6</ele>
        <time>2023-11-26T09:28:37Z</time>
      </trkpt>
      <trkpt lat="43.63153" lon="6.62647">
        <ele>618.8</ele>
        <time>2023-11-26T09:28:38Z</time>
      </trkpt>
      <trkpt lat="43.63154" lon="6.62647">
        <ele>618.9</ele>
        <time>2023-11-26T09:28:39Z</time>
      </trkpt>
      <trkpt lat="43.63154" lon="6.62647">
        <ele>619.1</ele>
        <time>2023-11-26T09:28:40Z</time>
      </trkpt>
      <trkpt lat="43.63154" lon="6.62647">
        <ele>619.2</ele>
        <time>2023-11-26T09:28:41Z</time>
      </trkpt>
      <trkpt lat="43.63155" lon="6.62647">
        <ele>619.4</ele>
        <time>2023-11-26T09:28:42Z</time>
      </trkpt>
      <trkpt lat="43.63155" lon="6.62647">
        <ele>619.5</ele>
        <time>2023-11-26T09:28:43Z</time>
      </trkpt>
      <trkpt lat="43.63156" lon="6.62648">
        <ele>619.7</ele>
        <time>2023-11-26T09:28:44Z</time>
      </trkpt>
      <trkpt lat="43.63157" lon="6.62648">
        <ele>619.9</ele>
        <time>2023-11-26T09:28:45Z</time>
      </trkpt>
      <trkpt lat="43.63158" lon="6.62647">
        <ele>620.1</ele>
        <time>2023-11-26T09:28:46Z</time>
      </trkpt>
      <trkpt lat="43.63159" lon="6.62647">
        <ele>620.2</ele>
        <time>2023-11-26T09:28:47Z</time>
      </trkpt>
      <trkpt lat="43.6316" lon="6.62646">
        <ele>620.3</ele>
        <time>2023-11-26T09:28:48Z</time>
      </trkpt>
      <trkpt lat="43.63161" lon="6.62646">
        <ele>620.4</ele>
        <time>2023-11-26T09:28:49Z</time>
      </trkpt>
      <trkpt lat="43.63162" lon="6.62646">
        <ele>620.5</ele>
        <time>2023-11-26T09:28:50Z</time>
      </trkpt>
      <trkpt lat="43.63163" lon="6.62646">
        <ele>620.6</ele>
        <time>2023-11-26T09:28:51Z</time>
      </trkpt>
      <trkpt lat="43.63164" lon="6.62646">
        <ele>620.9</ele>
        <time>2023-11-26T09:28:52Z</time>
      </trkpt>
      <trkpt lat="43.63164" lon="6.62645">
        <ele>621</ele>
        <time>2023-11-26T09:28:53Z</time>
      </trkpt>
      <trkpt lat="43.63165" lon="6.62645">
        <ele>621.1</ele>
        <time>2023-11-26T09:28:54Z</time>
      </trkpt>
      <trkpt lat="43.63166" lon="6.62644">
        <ele>621.3</ele>
        <time>2023-11-26T09:28:55Z</time>
      </trkpt>
      <trkpt lat="43.63166" lon="6.62644">
        <ele>621.4</ele>
        <time>2023-11-26T09:28:56Z</time>
      </trkpt>
      <trkpt lat="43.63167" lon="6.62643">
        <ele>621.4</ele>
        <time>2023-11-26T09:28:57Z</time>
      </trkpt>
      <trkpt lat="43.63168" lon="6.62643">
        <ele>621.4</ele>
        <time>2023-11-26T09:28:58Z</time>
      </trkpt>
      <trkpt lat="43.63169" lon="6.62643">
        <ele>621.5</ele>
        <time>2023-11-26T09:28:59Z</time>
      </trkpt>
      <trkpt lat="43.6317" lon="6.62643">
        <ele>621.7</ele>
        <time>2023-11-26T09:29:00Z</time>
      </trkpt>
      <trkpt lat="43.6317" lon="6.62642">
        <ele>621.9</ele>
        <time>2023-11-26T09:29:01Z</time>
      </trkpt>
      <trkpt lat="43.63171" lon="6.62642">
        <ele>622</ele>
        <time>2023-11-26T09:29:02Z</time>
      </trkpt>
      <trkpt lat="43.63171" lon="6.62642">
        <ele>622.2</ele>
        <time>2023-11-26T09:29:03Z</time>
      </trkpt>
      <trkpt lat="43.63172" lon="6.62642">
        <ele>622.3</ele>
        <time>2023-11-26T09:29:04Z</time>
      </trkpt>
      <trkpt lat="43.63173" lon="6.62643">
        <ele>622.5</ele>
        <time>2023-11-26T09:29:05Z</time>
      </trkpt>
      <trkpt lat="43.63174" lon="6.62642">
        <ele>622.6</ele>
        <time>2023-11-26T09:29:06Z</time>
      </trkpt>
      <trkpt lat="43.63175" lon="6.62642">
        <ele>622.8</ele>
        <time>2023-11-26T09:29:07Z</time>
      </trkpt>
      <trkpt lat="43.63176" lon="6.62642">
        <ele>622.9</ele>
        <time>2023-11-26T09:29:08Z</time>
      </trkpt>
      <trkpt lat="43.63178" lon="6.62642">
        <ele>623</ele>
        <time>2023-11-26T09:29:09Z</time>
      </trkpt>
      <trkpt lat="43.63179" lon="6.62642">
        <ele>623.1</ele>
        <time>2023-11-26T09:29:10Z</time>
      </trkpt>
      <trkpt lat="43.6318" lon="6.62641">
        <ele>623.3</ele>
        <time>2023-11-26T09:29:11Z</time>
      </trkpt>
      <trkpt lat="43.63181" lon="6.6264">
        <ele>623.4</ele>
        <time>2023-11-26T09:29:12Z</time>
      </trkpt>
      <trkpt lat="43.63182" lon="6.6264">
        <ele>623.6</ele>
        <time>2023-11-26T09:29:13Z</time>
      </trkpt>
      <trkpt lat="43.63182" lon="6.6264">
        <ele>623.6</ele>
        <time>2023-11-26T09:29:14Z</time>
      </trkpt>
      <trkpt lat="43.63183" lon="6.62639">
        <ele>623.7</ele>
        <time>2023-11-26T09:29:15Z</time>
      </trkpt>
      <trkpt lat="43.63184" lon="6.6264">
        <ele>623.8</ele>
        <time>2023-11-26T09:29:16Z</time>
      </trkpt>
      <trkpt lat="43.63185" lon="6.6264">
        <ele>623.8</ele>
        <time>2023-11-26T09:29:17Z</time>
      </trkpt>
      <trkpt lat="43.63186" lon="6.62641">
        <ele>624.1</ele>
        <time>2023-11-26T09:29:18Z</time>
      </trkpt>
      <trkpt lat="43.63186" lon="6.62641">
        <ele>624.3</ele>
        <time>2023-11-26T09:29:19Z</time>
      </trkpt>
      <trkpt lat="43.63188" lon="6.6264">
        <ele>624.4</ele>
        <time>2023-11-26T09:29:20Z</time>
      </trkpt>
      <trkpt lat="43.63189" lon="6.62639">
        <ele>624.5</ele>
        <time>2023-11-26T09:29:21Z</time>
      </trkpt>
      <trkpt lat="43.63189" lon="6.62639">
        <ele>624.8</ele>
        <time>2023-11-26T09:29:22Z</time>
      </trkpt>
      <trkpt lat="43.6319" lon="6.62639">
        <ele>625.1</ele>
        <time>2023-11-26T09:29:23Z</time>
      </trkpt>
      <trkpt lat="43.63192" lon="6.62638">
        <ele>625.2</ele>
        <time>2023-11-26T09:29:24Z</time>
      </trkpt>
      <trkpt lat="43.63194" lon="6.62637">
        <ele>625.4</ele>
        <time>2023-11-26T09:29:25Z</time>
      </trkpt>
      <trkpt lat="43.63196" lon="6.62636">
        <ele>625.6</ele>
        <time>2023-11-26T09:29:26Z</time>
      </trkpt>
      <trkpt lat="43.63197" lon="6.62635">
        <ele>625.6</ele>
        <time>2023-11-26T09:29:27Z</time>
      </trkpt>
      <trkpt lat="43.63198" lon="6.62634">
        <ele>625.8</ele>
        <time>2023-11-26T09:29:28Z</time>
      </trkpt>
      <trkpt lat="43.63198" lon="6.62634">
        <ele>626</ele>
        <time>2023-11-26T09:29:29Z</time>
      </trkpt>
      <trkpt lat="43.63199" lon="6.62633">
        <ele>626.2</ele>
        <time>2023-11-26T09:29:30Z</time>
      </trkpt>
      <trkpt lat="43.632" lon="6.62633">
        <ele>626.3</ele>
        <time>2023-11-26T09:29:31Z</time>
      </trkpt>
      <trkpt lat="43.63201" lon="6.62633">
        <ele>626.5</ele>
        <time>2023-11-26T09:29:32Z</time>
      </trkpt>
      <trkpt lat="43.63201" lon="6.62634">
        <ele>626.7</ele>
        <time>2023-11-26T09:29:33Z</time>
      </trkpt>
      <trkpt lat="43.63202" lon="6.62634">
        <ele>626.9</ele>
        <time>2023-11-26T09:29:34Z</time>
      </trkpt>
      <trkpt lat="43.63204" lon="6.62633">
        <ele>627.1</ele>
        <time>2023-11-26T09:29:35Z</time>
      </trkpt>
      <trkpt lat="43.63204" lon="6.62632">
        <ele>627.2</ele>
        <time>2023-11-26T09:29:36Z</time>
      </trkpt>
      <trkpt lat="43.63205" lon="6.62632">
        <ele>627.4</ele>
        <time>2023-11-26T09:29:37Z</time>
      </trkpt>
      <trkpt lat="43.63207" lon="6.62631">
        <ele>627.6</ele>
        <time>2023-11-26T09:29:38Z</time>
      </trkpt>
      <trkpt lat="43.63209" lon="6.6263">
        <ele>627.8</ele>
        <time>2023-11-26T09:29:39Z</time>
      </trkpt>
      <trkpt lat="43.6321" lon="6.62629">
        <ele>628</ele>
        <time>2023-11-26T09:29:40Z</time>
      </trkpt>
      <trkpt lat="43.63211" lon="6.62629">
        <ele>628.2</ele>
        <time>2023-11-26T09:29:41Z</time>
      </trkpt>
      <trkpt lat="43.63212" lon="6.62628">
        <ele>628.5</ele>
        <time>2023-11-26T09:29:42Z</time>
      </trkpt>
      <trkpt lat="43.63213" lon="6.62627">
        <ele>628.6</ele>
        <time>2023-11-26T09:29:43Z</time>
      </trkpt>
      <trkpt lat="43.63214" lon="6.62626">
        <ele>628.8</ele>
        <time>2023-11-26T09:29:44Z</time>
      </trkpt>
      <trkpt lat="43.63215" lon="6.62626">
        <ele>629</ele>
        <time>2023-11-26T09:29:45Z</time>
      </trkpt>
      <trkpt lat="43.63216" lon="6.62625">
        <ele>629.2</ele>
        <time>2023-11-26T09:29:46Z</time>
      </trkpt>
      <trkpt lat="43.63217" lon="6.62625">
        <ele>629.4</ele>
        <time>2023-11-26T09:29:47Z</time>
      </trkpt>
      <trkpt lat="43.63218" lon="6.62624">
        <ele>629.7</ele>
        <time>2023-11-26T09:29:48Z</time>
      </trkpt>
      <trkpt lat="43.6322" lon="6.62623">
        <ele>629.9</ele>
        <time>2023-11-26T09:29:49Z</time>
      </trkpt>
      <trkpt lat="43.63221" lon="6.62622">
        <ele>630</ele>
        <time>2023-11-26T09:29:50Z</time>
      </trkpt>
      <trkpt lat="43.63222" lon="6.62621">
        <ele>630.1</ele>
        <time>2023-11-26T09:29:51Z</time>
      </trkpt>
      <trkpt lat="43.63223" lon="6.6262">
        <ele>630.1</ele>
        <time>2023-11-26T09:29:52Z</time>
      </trkpt>
      <trkpt lat="43.63224" lon="6.62619">
        <ele>630.2</ele>
        <time>2023-11-26T09:29:53Z</time>
      </trkpt>
      <trkpt lat="43.63224" lon="6.62618">
        <ele>630.3</ele>
        <time>2023-11-26T09:29:54Z</time>
      </trkpt>
      <trkpt lat="43.63225" lon="6.62617">
        <ele>630.3</ele>
        <time>2023-11-26T09:29:55Z</time>
      </trkpt>
      <trkpt lat="43.63226" lon="6.62615">
        <ele>630.4</ele>
        <time>2023-11-26T09:29:56Z</time>
      </trkpt>
      <trkpt lat="43.63226" lon="6.62614">
        <ele>630.4</ele>
        <time>2023-11-26T09:29:57Z</time>
      </trkpt>
      <trkpt lat="43.63226" lon="6.62615">
        <ele>630.6</ele>
        <time>2023-11-26T09:29:58Z</time>
      </trkpt>
      <trkpt lat="43.63226" lon="6.62615">
        <ele>630.7</ele>
        <time>2023-11-26T09:29:59Z</time>
      </trkpt>
      <trkpt lat="43.63226" lon="6.62615">
        <ele>630.8</ele>
        <time>2023-11-26T09:30:00Z</time>
      </trkpt>
      <trkpt lat="43.63227" lon="6.62614">
        <ele>630.9</ele>
        <time>2023-11-26T09:30:01Z</time>
      </trkpt>
      <trkpt lat="43.63229" lon="6.62613">
        <ele>631.1</ele>
        <time>2023-11-26T09:30:02Z</time>
      </trkpt>
      <trkpt lat="43.6323" lon="6.62613">
        <ele>631.2</ele>
        <time>2023-11-26T09:30:03Z</time>
      </trkpt>
      <trkpt lat="43.63231" lon="6.62613">
        <ele>631.3</ele>
        <time>2023-11-26T09:30:04Z</time>
      </trkpt>
      <trkpt lat="43.63232" lon="6.62612">
        <ele>631.5</ele>
        <time>2023-11-26T09:30:05Z</time>
      </trkpt>
      <trkpt lat="43.63233" lon="6.62611">
        <ele>631.6</ele>
        <time>2023-11-26T09:30:06Z</time>
      </trkpt>
      <trkpt lat="43.63234" lon="6.6261">
        <ele>631.8</ele>
        <time>2023-11-26T09:30:07Z</time>
      </trkpt>
      <trkpt lat="43.63235" lon="6.62608">
        <ele>631.8</ele>
        <time>2023-11-26T09:30:08Z</time>
      </trkpt>
      <trkpt lat="43.63237" lon="6.62607">
        <ele>631.9</ele>
        <time>2023-11-26T09:30:09Z</time>
      </trkpt>
      <trkpt lat="43.63238" lon="6.62606">
        <ele>632</ele>
        <time>2023-11-26T09:30:10Z</time>
      </trkpt>
      <trkpt lat="43.63238" lon="6.62605">
        <ele>632.2</ele>
        <time>2023-11-26T09:30:11Z</time>
      </trkpt>
      <trkpt lat="43.63239" lon="6.62604">
        <ele>632.4</ele>
        <time>2023-11-26T09:30:12Z</time>
      </trkpt>
      <trkpt lat="43.6324" lon="6.62603">
        <ele>632.5</ele>
        <time>2023-11-26T09:30:13Z</time>
      </trkpt>
      <trkpt lat="43.63241" lon="6.62603">
        <ele>632.5</ele>
        <time>2023-11-26T09:30:14Z</time>
      </trkpt>
      <trkpt lat="43.63243" lon="6.62601">
        <ele>632.5</ele>
        <time>2023-11-26T09:30:15Z</time>
      </trkpt>
      <trkpt lat="43.63243" lon="6.626">
        <ele>632.8</ele>
        <time>2023-11-26T09:30:16Z</time>
      </trkpt>
      <trkpt lat="43.63245" lon="6.62599">
        <ele>633</ele>
        <time>2023-11-26T09:30:17Z</time>
      </trkpt>
      <trkpt lat="43.63246" lon="6.62598">
        <ele>633.2</ele>
        <time>2023-11-26T09:30:18Z</time>
      </trkpt>
      <trkpt lat="43.63247" lon="6.62597">
        <ele>633.3</ele>
        <time>2023-11-26T09:30:19Z</time>
      </trkpt>
      <trkpt lat="43.63248" lon="6.62596">
        <ele>633.4</ele>
        <time>2023-11-26T09:30:20Z</time>
      </trkpt>
      <trkpt lat="43.63249" lon="6.62595">
        <ele>633.5</ele>
        <time>2023-11-26T09:30:21Z</time>
      </trkpt>
      <trkpt lat="43.6325" lon="6.62593">
        <ele>633.6</ele>
        <time>2023-11-26T09:30:22Z</time>
      </trkpt>
      <trkpt lat="43.63252" lon="6.62592">
        <ele>633.7</ele>
        <time>2023-11-26T09:30:23Z</time>
      </trkpt>
      <trkpt lat="43.63253" lon="6.62591">
        <ele>633.8</ele>
        <time>2023-11-26T09:30:24Z</time>
      </trkpt>
      <trkpt lat="43.63254" lon="6.62589">
        <ele>633.9</ele>
        <time>2023-11-26T09:30:25Z</time>
      </trkpt>
      <trkpt lat="43.63254" lon="6.62588">
        <ele>634</ele>
        <time>2023-11-26T09:30:26Z</time>
      </trkpt>
      <trkpt lat="43.63255" lon="6.62587">
        <ele>634.1</ele>
        <time>2023-11-26T09:30:27Z</time>
      </trkpt>
      <trkpt lat="43.63256" lon="6.62585">
        <ele>634.1</ele>
        <time>2023-11-26T09:30:28Z</time>
      </trkpt>
      <trkpt lat="43.63257" lon="6.62583">
        <ele>634.2</ele>
        <time>2023-11-26T09:30:29Z</time>
      </trkpt>
      <trkpt lat="43.63257" lon="6.62582">
        <ele>634.2</ele>
        <time>2023-11-26T09:30:30Z</time>
      </trkpt>
      <trkpt lat="43.63257" lon="6.6258">
        <ele>634.2</ele>
        <time>2023-11-26T09:30:31Z</time>
      </trkpt>
      <trkpt lat="43.63257" lon="6.62578">
        <ele>634.3</ele>
        <time>2023-11-26T09:30:32Z</time>
      </trkpt>
      <trkpt lat="43.63257" lon="6.62576">
        <ele>634.3</ele>
        <time>2023-11-26T09:30:33Z</time>
      </trkpt>
      <trkpt lat="43.63257" lon="6.62575">
        <ele>634.4</ele>
        <time>2023-11-26T09:30:34Z</time>
      </trkpt>
      <trkpt lat="43.63256" lon="6.62573">
        <ele>634.5</ele>
        <time>2023-11-26T09:30:35Z</time>
      </trkpt>
      <trkpt lat="43.63256" lon="6.62571">
        <ele>634.6</ele>
        <time>2023-11-26T09:30:36Z</time>
      </trkpt>
      <trkpt lat="43.63257" lon="6.62569">
        <ele>634.6</ele>
        <time>2023-11-26T09:30:37Z</time>
      </trkpt>
      <trkpt lat="43.63257" lon="6.62568">
        <ele>634.7</ele>
        <time>2023-11-26T09:30:38Z</time>
      </trkpt>
      <trkpt lat="43.63257" lon="6.62566">
        <ele>634.7</ele>
        <time>2023-11-26T09:30:39Z</time>
      </trkpt>
      <trkpt lat="43.63257" lon="6.62565">
        <ele>634.7</ele>
        <time>2023-11-26T09:30:40Z</time>
      </trkpt>
      <trkpt lat="43.63257" lon="6.62564">
        <ele>634.9</ele>
        <time>2023-11-26T09:30:41Z</time>
      </trkpt>
      <trkpt lat="43.63257" lon="6.62562">
        <ele>634.9</ele>
        <time>2023-11-26T09:30:42Z</time>
      </trkpt>
      <trkpt lat="43.63257" lon="6.62562">
        <ele>634.9</ele>
        <time>2023-11-26T09:30:43Z</time>
      </trkpt>
      <trkpt lat="43.63257" lon="6.62561">
        <ele>635</ele>
        <time>2023-11-26T09:30:44Z</time>
      </trkpt>
      <trkpt lat="43.63257" lon="6.6256">
        <ele>635</ele>
        <time>2023-11-26T09:30:45Z</time>
      </trkpt>
      <trkpt lat="43.63258" lon="6.62558">
        <ele>635.1</ele>
        <time>2023-11-26T09:30:46Z</time>
      </trkpt>
      <trkpt lat="43.63258" lon="6.62556">
        <ele>635.2</ele>
        <time>2023-11-26T09:30:47Z</time>
      </trkpt>
      <trkpt lat="43.63259" lon="6.62555">
        <ele>635.2</ele>
        <time>2023-11-26T09:30:48Z</time>
      </trkpt>
      <trkpt lat="43.63259" lon="6.62553">
        <ele>635.3</ele>
        <time>2023-11-26T09:30:49Z</time>
      </trkpt>
      <trkpt lat="43.63258" lon="6.62552">
        <ele>635.4</ele>
        <time>2023-11-26T09:30:50Z</time>
      </trkpt>
      <trkpt lat="43.63259" lon="6.62551">
        <ele>635.5</ele>
        <time>2023-11-26T09:30:51Z</time>
      </trkpt>
      <trkpt lat="43.63259" lon="6.6255">
        <ele>635.5</ele>
        <time>2023-11-26T09:30:52Z</time>
      </trkpt>
      <trkpt lat="43.6326" lon="6.6255">
        <ele>635.7</ele>
        <time>2023-11-26T09:30:53Z</time>
      </trkpt>
      <trkpt lat="43.6326" lon="6.62549">
        <ele>635.8</ele>
        <time>2023-11-26T09:30:54Z</time>
      </trkpt>
      <trkpt lat="43.6326" lon="6.62549">
        <ele>635.9</ele>
        <time>2023-11-26T09:30:55Z</time>
      </trkpt>
      <trkpt lat="43.6326" lon="6.62549">
        <ele>635.9</ele>
        <time>2023-11-26T09:30:56Z</time>
      </trkpt>
      <trkpt lat="43.6326" lon="6.62549">
        <ele>635.9</ele>
        <time>2023-11-26T09:30:57Z</time>
      </trkpt>
      <trkpt lat="43.6326" lon="6.62549">
        <ele>636</ele>
        <time>2023-11-26T09:30:58Z</time>
      </trkpt>
      <trkpt lat="43.6326" lon="6.62549">
        <ele>636</ele>
        <time>2023-11-26T09:30:59Z</time>
      </trkpt>
      <trkpt lat="43.63261" lon="6.62549">
        <ele>636</ele>
        <time>2023-11-26T09:31:00Z</time>
      </trkpt>
      <trkpt lat="43.63261" lon="6.62549">
        <ele>636</ele>
        <time>2023-11-26T09:31:01Z</time>
      </trkpt>
      <trkpt lat="43.63261" lon="6.62549">
        <ele>636.1</ele>
        <time>2023-11-26T09:31:02Z</time>
      </trkpt>
      <trkpt lat="43.63261" lon="6.62549">
        <ele>636.1</ele>
        <time>2023-11-26T09:31:03Z</time>
      </trkpt>
      <trkpt lat="43.63261" lon="6.62549">
        <ele>636.1</ele>
        <time>2023-11-26T09:31:04Z</time>
      </trkpt>
      <trkpt lat="43.63261" lon="6.62549">
        <ele>636.2</ele>
        <time>2023-11-26T09:31:05Z</time>
      </trkpt>
      <trkpt lat="43.63261" lon="6.62549">
        <ele>636.2</ele>
        <time>2023-11-26T09:31:06Z</time>
      </trkpt>
      <trkpt lat="43.63262" lon="6.62549">
        <ele>636.3</ele>
        <time>2023-11-26T09:31:07Z</time>
      </trkpt>
      <trkpt lat="43.63262" lon="6.62549">
        <ele>636.4</ele>
        <time>2023-11-26T09:31:08Z</time>
      </trkpt>
      <trkpt lat="43.63262" lon="6.62549">
        <ele>636.4</ele>
        <time>2023-11-26T09:31:09Z</time>
      </trkpt>
      <trkpt lat="43.63261" lon="6.62548">
        <ele>636.5</ele>
        <time>2023-11-26T09:31:10Z</time>
      </trkpt>
      <trkpt lat="43.63262" lon="6.62548">
        <ele>636.6</ele>
        <time>2023-11-26T09:31:11Z</time>
      </trkpt>
      <trkpt lat="43.63262" lon="6.62548">
        <ele>636.6</ele>
        <time>2023-11-26T09:31:12Z</time>
      </trkpt>
      <trkpt lat="43.63262" lon="6.62547">
        <ele>636.7</ele>
        <time>2023-11-26T09:31:13Z</time>
      </trkpt>
      <trkpt lat="43.63263" lon="6.62546">
        <ele>636.6</ele>
        <time>2023-11-26T09:31:14Z</time>
      </trkpt>
      <trkpt lat="43.63263" lon="6.62544">
        <ele>636.7</ele>
        <time>2023-11-26T09:31:15Z</time>
      </trkpt>
      <trkpt lat="43.63263" lon="6.62544">
        <ele>636.8</ele>
        <time>2023-11-26T09:31:16Z</time>
      </trkpt>
      <trkpt lat="43.63264" lon="6.62543">
        <ele>636.9</ele>
        <time>2023-11-26T09:31:17Z</time>
      </trkpt>
      <trkpt lat="43.63265" lon="6.62542">
        <ele>637</ele>
        <time>2023-11-26T09:31:18Z</time>
      </trkpt>
      <trkpt lat="43.63266" lon="6.6254">
        <ele>637</ele>
        <time>2023-11-26T09:31:19Z</time>
      </trkpt>
      <trkpt lat="43.63267" lon="6.62539">
        <ele>637.1</ele>
        <time>2023-11-26T09:31:20Z</time>
      </trkpt>
      <trkpt lat="43.63268" lon="6.62538">
        <ele>637.2</ele>
        <time>2023-11-26T09:31:21Z</time>
      </trkpt>
      <trkpt lat="43.63269" lon="6.62536">
        <ele>637.3</ele>
        <time>2023-11-26T09:31:22Z</time>
      </trkpt>
      <trkpt lat="43.6327" lon="6.62535">
        <ele>637.5</ele>
        <time>2023-11-26T09:31:23Z</time>
      </trkpt>
      <trkpt lat="43.63271" lon="6.62533">
        <ele>637.6</ele>
        <time>2023-11-26T09:31:24Z</time>
      </trkpt>
      <trkpt lat="43.63272" lon="6.62532">
        <ele>637.8</ele>
        <time>2023-11-26T09:31:25Z</time>
      </trkpt>
      <trkpt lat="43.63273" lon="6.62531">
        <ele>637.9</ele>
        <time>2023-11-26T09:31:26Z</time>
      </trkpt>
      <trkpt lat="43.63273" lon="6.62529">
        <ele>638.1</ele>
        <time>2023-11-26T09:31:27Z</time>
      </trkpt>
      <trkpt lat="43.63274" lon="6.62528">
        <ele>638.3</ele>
        <time>2023-11-26T09:31:28Z</time>
      </trkpt>
      <trkpt lat="43.63274" lon="6.62526">
        <ele>638.5</ele>
        <time>2023-11-26T09:31:29Z</time>
      </trkpt>
      <trkpt lat="43.63275" lon="6.62524">
        <ele>638.7</ele>
        <time>2023-11-26T09:31:30Z</time>
      </trkpt>
      <trkpt lat="43.63275" lon="6.62523">
        <ele>638.8</ele>
        <time>2023-11-26T09:31:31Z</time>
      </trkpt>
      <trkpt lat="43.63276" lon="6.62521">
        <ele>638.9</ele>
        <time>2023-11-26T09:31:32Z</time>
      </trkpt>
      <trkpt lat="43.63276" lon="6.62521">
        <ele>639.1</ele>
        <time>2023-11-26T09:31:33Z</time>
      </trkpt>
      <trkpt lat="43.63276" lon="6.6252">
        <ele>639.3</ele>
        <time>2023-11-26T09:31:34Z</time>
      </trkpt>
      <trkpt lat="43.63276" lon="6.62518">
        <ele>639.5</ele>
        <time>2023-11-26T09:31:35Z</time>
      </trkpt>
      <trkpt lat="43.63277" lon="6.62517">
        <ele>639.6</ele>
        <time>2023-11-26T09:31:36Z</time>
      </trkpt>
      <trkpt lat="43.63278" lon="6.62515">
        <ele>639.8</ele>
        <time>2023-11-26T09:31:37Z</time>
      </trkpt>
      <trkpt lat="43.63278" lon="6.62513">
        <ele>639.9</ele>
        <time>2023-11-26T09:31:38Z</time>
      </trkpt>
      <trkpt lat="43.63278" lon="6.62512">
        <ele>640</ele>
        <time>2023-11-26T09:31:39Z</time>
      </trkpt>
      <trkpt lat="43.63278" lon="6.6251">
        <ele>640.1</ele>
        <time>2023-11-26T09:31:40Z</time>
      </trkpt>
      <trkpt lat="43.63279" lon="6.62509">
        <ele>640.2</ele>
        <time>2023-11-26T09:31:41Z</time>
      </trkpt>
      <trkpt lat="43.63279" lon="6.62507">
        <ele>640.4</ele>
        <time>2023-11-26T09:31:42Z</time>
      </trkpt>
      <trkpt lat="43.6328" lon="6.62505">
        <ele>640.5</ele>
        <time>2023-11-26T09:31:43Z</time>
      </trkpt>
      <trkpt lat="43.63281" lon="6.62503">
        <ele>640.6</ele>
        <time>2023-11-26T09:31:44Z</time>
      </trkpt>
      <trkpt lat="43.63282" lon="6.62501">
        <ele>640.8</ele>
        <time>2023-11-26T09:31:45Z</time>
      </trkpt>
      <trkpt lat="43.63283" lon="6.625">
        <ele>641.1</ele>
        <time>2023-11-26T09:31:46Z</time>
      </trkpt>
      <trkpt lat="43.63284" lon="6.62498">
        <ele>641.2</ele>
        <time>2023-11-26T09:31:47Z</time>
      </trkpt>
      <trkpt lat="43.63284" lon="6.62497">
        <ele>641.4</ele>
        <time>2023-11-26T09:31:48Z</time>
      </trkpt>
      <trkpt lat="43.63285" lon="6.62495">
        <ele>641.6</ele>
        <time>2023-11-26T09:31:49Z</time>
      </trkpt>
      <trkpt lat="43.63285" lon="6.62494">
        <ele>641.8</ele>
        <time>2023-11-26T09:31:50Z</time>
      </trkpt>
      <trkpt lat="43.63286" lon="6.62493">
        <ele>641.9</ele>
        <time>2023-11-26T09:31:51Z</time>
      </trkpt>
      <trkpt lat="43.63286" lon="6.62492">
        <ele>642</ele>
        <time>2023-11-26T09:31:52Z</time>
      </trkpt>
      <trkpt lat="43.63287" lon="6.62491">
        <ele>642.1</ele>
        <time>2023-11-26T09:31:53Z</time>
      </trkpt>
      <trkpt lat="43.63287" lon="6.6249">
        <ele>642.2</ele>
        <time>2023-11-26T09:31:54Z</time>
      </trkpt>
      <trkpt lat="43.63288" lon="6.62489">
        <ele>642.3</ele>
        <time>2023-11-26T09:31:55Z</time>
      </trkpt>
      <trkpt lat="43.63289" lon="6.62488">
        <ele>642.4</ele>
        <time>2023-11-26T09:31:56Z</time>
      </trkpt>
      <trkpt lat="43.6329" lon="6.62487">
        <ele>642.5</ele>
        <time>2023-11-26T09:31:57Z</time>
      </trkpt>
      <trkpt lat="43.63291" lon="6.62486">
        <ele>642.6</ele>
        <time>2023-11-26T09:31:58Z</time>
      </trkpt>
      <trkpt lat="43.63291" lon="6.62484">
        <ele>642.7</ele>
        <time>2023-11-26T09:31:59Z</time>
      </trkpt>
      <trkpt lat="43.63292" lon="6.62483">
        <ele>642.8</ele>
        <time>2023-11-26T09:32:00Z</time>
      </trkpt>
      <trkpt lat="43.63293" lon="6.62483">
        <ele>643</ele>
        <time>2023-11-26T09:32:01Z</time>
      </trkpt>
      <trkpt lat="43.63294" lon="6.62482">
        <ele>643.1</ele>
        <time>2023-11-26T09:32:02Z</time>
      </trkpt>
      <trkpt lat="43.63295" lon="6.62481">
        <ele>643.2</ele>
        <time>2023-11-26T09:32:03Z</time>
      </trkpt>
      <trkpt lat="43.63295" lon="6.6248">
        <ele>643.3</ele>
        <time>2023-11-26T09:32:04Z</time>
      </trkpt>
      <trkpt lat="43.63296" lon="6.62479">
        <ele>643.4</ele>
        <time>2023-11-26T09:32:05Z</time>
      </trkpt>
      <trkpt lat="43.63296" lon="6.62478">
        <ele>643.5</ele>
        <time>2023-11-26T09:32:06Z</time>
      </trkpt>
      <trkpt lat="43.63296" lon="6.62477">
        <ele>643.5</ele>
        <time>2023-11-26T09:32:07Z</time>
      </trkpt>
      <trkpt lat="43.63297" lon="6.62476">
        <ele>643.7</ele>
        <time>2023-11-26T09:32:08Z</time>
      </trkpt>
      <trkpt lat="43.63298" lon="6.62474">
        <ele>643.9</ele>
        <time>2023-11-26T09:32:09Z</time>
      </trkpt>
      <trkpt lat="43.63299" lon="6.62473">
        <ele>644.1</ele>
        <time>2023-11-26T09:32:10Z</time>
      </trkpt>
      <trkpt lat="43.633" lon="6.62472">
        <ele>644.2</ele>
        <time>2023-11-26T09:32:11Z</time>
      </trkpt>
      <trkpt lat="43.633" lon="6.62471">
        <ele>644.3</ele>
        <time>2023-11-26T09:32:12Z</time>
      </trkpt>
      <trkpt lat="43.63301" lon="6.62469">
        <ele>644.6</ele>
        <time>2023-11-26T09:32:13Z</time>
      </trkpt>
      <trkpt lat="43.63301" lon="6.62468">
        <ele>644.8</ele>
        <time>2023-11-26T09:32:14Z</time>
      </trkpt>
      <trkpt lat="43.63302" lon="6.62466">
        <ele>645</ele>
        <time>2023-11-26T09:32:15Z</time>
      </trkpt>
      <trkpt lat="43.63303" lon="6.62465">
        <ele>645</ele>
        <time>2023-11-26T09:32:16Z</time>
      </trkpt>
      <trkpt lat="43.63303" lon="6.62464">
        <ele>645.1</ele>
        <time>2023-11-26T09:32:17Z</time>
      </trkpt>
      <trkpt lat="43.63303" lon="6.62463">
        <ele>645.2</ele>
        <time>2023-11-26T09:32:18Z</time>
      </trkpt>
      <trkpt lat="43.63303" lon="6.62462">
        <ele>645.3</ele>
        <time>2023-11-26T09:32:19Z</time>
      </trkpt>
      <trkpt lat="43.63304" lon="6.62461">
        <ele>645.4</ele>
        <time>2023-11-26T09:32:20Z</time>
      </trkpt>
      <trkpt lat="43.63304" lon="6.6246">
        <ele>645.5</ele>
        <time>2023-11-26T09:32:21Z</time>
      </trkpt>
      <trkpt lat="43.63305" lon="6.62458">
        <ele>645.6</ele>
        <time>2023-11-26T09:32:22Z</time>
      </trkpt>
      <trkpt lat="43.63306" lon="6.62457">
        <ele>645.7</ele>
        <time>2023-11-26T09:32:23Z</time>
      </trkpt>
      <trkpt lat="43.63306" lon="6.62455">
        <ele>645.7</ele>
        <time>2023-11-26T09:32:24Z</time>
      </trkpt>
      <trkpt lat="43.63306" lon="6.62453">
        <ele>645.7</ele>
        <time>2023-11-26T09:32:25Z</time>
      </trkpt>
      <trkpt lat="43.63307" lon="6.62451">
        <ele>645.7</ele>
        <time>2023-11-26T09:32:26Z</time>
      </trkpt>
      <trkpt lat="43.63307" lon="6.62449">
        <ele>645.8</ele>
        <time>2023-11-26T09:32:27Z</time>
      </trkpt>
      <trkpt lat="43.63307" lon="6.62448">
        <ele>645.9</ele>
        <time>2023-11-26T09:32:28Z</time>
      </trkpt>
      <trkpt lat="43.63307" lon="6.62446">
        <ele>645.9</ele>
        <time>2023-11-26T09:32:29Z</time>
      </trkpt>
      <trkpt lat="43.63307" lon="6.62445">
        <ele>645.9</ele>
        <time>2023-11-26T09:32:30Z</time>
      </trkpt>
      <trkpt lat="43.63308" lon="6.62443">
        <ele>646</ele>
        <time>2023-11-26T09:32:31Z</time>
      </trkpt>
      <trkpt lat="43.63307" lon="6.62442">
        <ele>646</ele>
        <time>2023-11-26T09:32:32Z</time>
      </trkpt>
      <trkpt lat="43.63307" lon="6.6244">
        <ele>646.2</ele>
        <time>2023-11-26T09:32:33Z</time>
      </trkpt>
      <trkpt lat="43.63308" lon="6.62439">
        <ele>646.3</ele>
        <time>2023-11-26T09:32:34Z</time>
      </trkpt>
      <trkpt lat="43.63309" lon="6.62437">
        <ele>646.3</ele>
        <time>2023-11-26T09:32:35Z</time>
      </trkpt>
      <trkpt lat="43.63309" lon="6.62435">
        <ele>646.4</ele>
        <time>2023-11-26T09:32:36Z</time>
      </trkpt>
      <trkpt lat="43.6331" lon="6.62433">
        <ele>646.4</ele>
        <time>2023-11-26T09:32:37Z</time>
      </trkpt>
      <trkpt lat="43.6331" lon="6.62431">
        <ele>646.5</ele>
        <time>2023-11-26T09:32:38Z</time>
      </trkpt>
      <trkpt lat="43.6331" lon="6.6243">
        <ele>646.6</ele>
        <time>2023-11-26T09:32:39Z</time>
      </trkpt>
      <trkpt lat="43.6331" lon="6.62428">
        <ele>646.7</ele>
        <time>2023-11-26T09:32:40Z</time>
      </trkpt>
      <trkpt lat="43.6331" lon="6.62426">
        <ele>646.7</ele>
        <time>2023-11-26T09:32:41Z</time>
      </trkpt>
      <trkpt lat="43.63309" lon="6.62424">
        <ele>646.8</ele>
        <time>2023-11-26T09:32:42Z</time>
      </trkpt>
      <trkpt lat="43.6331" lon="6.62423">
        <ele>646.9</ele>
        <time>2023-11-26T09:32:43Z</time>
      </trkpt>
      <trkpt lat="43.6331" lon="6.6242">
        <ele>646.9</ele>
        <time>2023-11-26T09:32:44Z</time>
      </trkpt>
      <trkpt lat="43.6331" lon="6.62419">
        <ele>646.9</ele>
        <time>2023-11-26T09:32:45Z</time>
      </trkpt>
      <trkpt lat="43.6331" lon="6.62417">
        <ele>646.9</ele>
        <time>2023-11-26T09:32:46Z</time>
      </trkpt>
      <trkpt lat="43.6331" lon="6.62416">
        <ele>647</ele>
        <time>2023-11-26T09:32:47Z</time>
      </trkpt>
      <trkpt lat="43.6331" lon="6.62414">
        <ele>647</ele>
        <time>2023-11-26T09:32:48Z</time>
      </trkpt>
      <trkpt lat="43.6331" lon="6.62412">
        <ele>647.1</ele>
        <time>2023-11-26T09:32:49Z</time>
      </trkpt>
      <trkpt lat="43.6331" lon="6.62411">
        <ele>647.2</ele>
        <time>2023-11-26T09:32:50Z</time>
      </trkpt>
      <trkpt lat="43.6331" lon="6.62409">
        <ele>647.3</ele>
        <time>2023-11-26T09:32:51Z</time>
      </trkpt>
      <trkpt lat="43.6331" lon="6.62407">
        <ele>647.3</ele>
        <time>2023-11-26T09:32:52Z</time>
      </trkpt>
      <trkpt lat="43.63311" lon="6.62406">
        <ele>647.5</ele>
        <time>2023-11-26T09:32:53Z</time>
      </trkpt>
      <trkpt lat="43.63311" lon="6.62404">
        <ele>647.6</ele>
        <time>2023-11-26T09:32:54Z</time>
      </trkpt>
      <trkpt lat="43.63311" lon="6.62402">
        <ele>647.6</ele>
        <time>2023-11-26T09:32:55Z</time>
      </trkpt>
      <trkpt lat="43.63311" lon="6.624">
        <ele>647.8</ele>
        <time>2023-11-26T09:32:56Z</time>
      </trkpt>
      <trkpt lat="43.63311" lon="6.62398">
        <ele>647.9</ele>
        <time>2023-11-26T09:32:57Z</time>
      </trkpt>
      <trkpt lat="43.63312" lon="6.62397">
        <ele>648</ele>
        <time>2023-11-26T09:32:58Z</time>
      </trkpt>
      <trkpt lat="43.63312" lon="6.62395">
        <ele>648.1</ele>
        <time>2023-11-26T09:32:59Z</time>
      </trkpt>
      <trkpt lat="43.63312" lon="6.62394">
        <ele>648.2</ele>
        <time>2023-11-26T09:33:00Z</time>
      </trkpt>
      <trkpt lat="43.63314" lon="6.62393">
        <ele>648.2</ele>
        <time>2023-11-26T09:33:01Z</time>
      </trkpt>
      <trkpt lat="43.63314" lon="6.62391">
        <ele>648.3</ele>
        <time>2023-11-26T09:33:02Z</time>
      </trkpt>
      <trkpt lat="43.63314" lon="6.6239">
        <ele>648.4</ele>
        <time>2023-11-26T09:33:03Z</time>
      </trkpt>
      <trkpt lat="43.63315" lon="6.62389">
        <ele>648.5</ele>
        <time>2023-11-26T09:33:04Z</time>
      </trkpt>
      <trkpt lat="43.63316" lon="6.62388">
        <ele>648.6</ele>
        <time>2023-11-26T09:33:05Z</time>
      </trkpt>
      <trkpt lat="43.63316" lon="6.62387">
        <ele>648.7</ele>
        <time>2023-11-26T09:33:06Z</time>
      </trkpt>
      <trkpt lat="43.63316" lon="6.62386">
        <ele>648.9</ele>
        <time>2023-11-26T09:33:07Z</time>
      </trkpt>
      <trkpt lat="43.63317" lon="6.62385">
        <ele>649</ele>
        <time>2023-11-26T09:33:08Z</time>
      </trkpt>
      <trkpt lat="43.63318" lon="6.62384">
        <ele>649.2</ele>
        <time>2023-11-26T09:33:09Z</time>
      </trkpt>
      <trkpt lat="43.63319" lon="6.62383">
        <ele>649.3</ele>
        <time>2023-11-26T09:33:10Z</time>
      </trkpt>
      <trkpt lat="43.6332" lon="6.62381">
        <ele>649.3</ele>
        <time>2023-11-26T09:33:11Z</time>
      </trkpt>
      <trkpt lat="43.63321" lon="6.6238">
        <ele>649.5</ele>
        <time>2023-11-26T09:33:12Z</time>
      </trkpt>
      <trkpt lat="43.63322" lon="6.62378">
        <ele>649.6</ele>
        <time>2023-11-26T09:33:13Z</time>
      </trkpt>
      <trkpt lat="43.63322" lon="6.62377">
        <ele>649.9</ele>
        <time>2023-11-26T09:33:14Z</time>
      </trkpt>
      <trkpt lat="43.63322" lon="6.62375">
        <ele>650</ele>
        <time>2023-11-26T09:33:15Z</time>
      </trkpt>
      <trkpt lat="43.63321" lon="6.62374">
        <ele>650.1</ele>
        <time>2023-11-26T09:33:16Z</time>
      </trkpt>
      <trkpt lat="43.63321" lon="6.62373">
        <ele>650.3</ele>
        <time>2023-11-26T09:33:17Z</time>
      </trkpt>
      <trkpt lat="43.63321" lon="6.62371">
        <ele>650.5</ele>
        <time>2023-11-26T09:33:18Z</time>
      </trkpt>
      <trkpt lat="43.63322" lon="6.62371">
        <ele>650.6</ele>
        <time>2023-11-26T09:33:19Z</time>
      </trkpt>
      <trkpt lat="43.63322" lon="6.6237">
        <ele>650.6</ele>
        <time>2023-11-26T09:33:20Z</time>
      </trkpt>
      <trkpt lat="43.63322" lon="6.6237">
        <ele>650.8</ele>
        <time>2023-11-26T09:33:21Z</time>
      </trkpt>
      <trkpt lat="43.63323" lon="6.62368">
        <ele>651</ele>
        <time>2023-11-26T09:33:22Z</time>
      </trkpt>
      <trkpt lat="43.63324" lon="6.62366">
        <ele>651.2</ele>
        <time>2023-11-26T09:33:23Z</time>
      </trkpt>
      <trkpt lat="43.63325" lon="6.62365">
        <ele>651.5</ele>
        <time>2023-11-26T09:33:24Z</time>
      </trkpt>
      <trkpt lat="43.63325" lon="6.62364">
        <ele>651.6</ele>
        <time>2023-11-26T09:33:25Z</time>
      </trkpt>
      <trkpt lat="43.63326" lon="6.62363">
        <ele>651.7</ele>
        <time>2023-11-26T09:33:26Z</time>
      </trkpt>
      <trkpt lat="43.63327" lon="6.62362">
        <ele>651.8</ele>
        <time>2023-11-26T09:33:27Z</time>
      </trkpt>
      <trkpt lat="43.63327" lon="6.62361">
        <ele>652</ele>
        <time>2023-11-26T09:33:28Z</time>
      </trkpt>
      <trkpt lat="43.63328" lon="6.6236">
        <ele>652.1</ele>
        <time>2023-11-26T09:33:29Z</time>
      </trkpt>
      <trkpt lat="43.63328" lon="6.62359">
        <ele>652.4</ele>
        <time>2023-11-26T09:33:30Z</time>
      </trkpt>
      <trkpt lat="43.63328" lon="6.62358">
        <ele>652.5</ele>
        <time>2023-11-26T09:33:31Z</time>
      </trkpt>
      <trkpt lat="43.63329" lon="6.62357">
        <ele>652.6</ele>
        <time>2023-11-26T09:33:32Z</time>
      </trkpt>
      <trkpt lat="43.6333" lon="6.62357">
        <ele>652.6</ele>
        <time>2023-11-26T09:33:33Z</time>
      </trkpt>
      <trkpt lat="43.6333" lon="6.62355">
        <ele>652.7</ele>
        <time>2023-11-26T09:33:34Z</time>
      </trkpt>
      <trkpt lat="43.63331" lon="6.62354">
        <ele>652.8</ele>
        <time>2023-11-26T09:33:35Z</time>
      </trkpt>
      <trkpt lat="43.63331" lon="6.62353">
        <ele>652.9</ele>
        <time>2023-11-26T09:33:36Z</time>
      </trkpt>
      <trkpt lat="43.63332" lon="6.62353">
        <ele>653</ele>
        <time>2023-11-26T09:33:37Z</time>
      </trkpt>
      <trkpt lat="43.63333" lon="6.62351">
        <ele>653</ele>
        <time>2023-11-26T09:33:38Z</time>
      </trkpt>
      <trkpt lat="43.63335" lon="6.6235">
        <ele>653.1</ele>
        <time>2023-11-26T09:33:39Z</time>
      </trkpt>
      <trkpt lat="43.63335" lon="6.62348">
        <ele>653.2</ele>
        <time>2023-11-26T09:33:40Z</time>
      </trkpt>
      <trkpt lat="43.63335" lon="6.62347">
        <ele>653.4</ele>
        <time>2023-11-26T09:33:41Z</time>
      </trkpt>
      <trkpt lat="43.63336" lon="6.62345">
        <ele>653.5</ele>
        <time>2023-11-26T09:33:42Z</time>
      </trkpt>
      <trkpt lat="43.63337" lon="6.62343">
        <ele>653.5</ele>
        <time>2023-11-26T09:33:43Z</time>
      </trkpt>
      <trkpt lat="43.63338" lon="6.62342">
        <ele>653.6</ele>
        <time>2023-11-26T09:33:44Z</time>
      </trkpt>
      <trkpt lat="43.63338" lon="6.6234">
        <ele>653.7</ele>
        <time>2023-11-26T09:33:45Z</time>
      </trkpt>
      <trkpt lat="43.63339" lon="6.62338">
        <ele>653.8</ele>
        <time>2023-11-26T09:33:46Z</time>
      </trkpt>
      <trkpt lat="43.63339" lon="6.62337">
        <ele>653.8</ele>
        <time>2023-11-26T09:33:47Z</time>
      </trkpt>
      <trkpt lat="43.6334" lon="6.62336">
        <ele>654</ele>
        <time>2023-11-26T09:33:48Z</time>
      </trkpt>
      <trkpt lat="43.63341" lon="6.62334">
        <ele>654.1</ele>
        <time>2023-11-26T09:33:49Z</time>
      </trkpt>
      <trkpt lat="43.63341" lon="6.62333">
        <ele>654.1</ele>
        <time>2023-11-26T09:33:50Z</time>
      </trkpt>
      <trkpt lat="43.63342" lon="6.62332">
        <ele>654.3</ele>
        <time>2023-11-26T09:33:51Z</time>
      </trkpt>
      <trkpt lat="43.63342" lon="6.62331">
        <ele>654.4</ele>
        <time>2023-11-26T09:33:52Z</time>
      </trkpt>
      <trkpt lat="43.63343" lon="6.62329">
        <ele>654.5</ele>
        <time>2023-11-26T09:33:53Z</time>
      </trkpt>
      <trkpt lat="43.63343" lon="6.62327">
        <ele>654.6</ele>
        <time>2023-11-26T09:33:54Z</time>
      </trkpt>
      <trkpt lat="43.63343" lon="6.62326">
        <ele>654.7</ele>
        <time>2023-11-26T09:33:55Z</time>
      </trkpt>
      <trkpt lat="43.63344" lon="6.62325">
        <ele>654.9</ele>
        <time>2023-11-26T09:33:56Z</time>
      </trkpt>
      <trkpt lat="43.63345" lon="6.62324">
        <ele>655</ele>
        <time>2023-11-26T09:33:57Z</time>
      </trkpt>
      <trkpt lat="43.63346" lon="6.62323">
        <ele>655.1</ele>
        <time>2023-11-26T09:33:58Z</time>
      </trkpt>
      <trkpt lat="43.63346" lon="6.62322">
        <ele>655.3</ele>
        <time>2023-11-26T09:33:59Z</time>
      </trkpt>
      <trkpt lat="43.63347" lon="6.62321">
        <ele>655.5</ele>
        <time>2023-11-26T09:34:00Z</time>
      </trkpt>
      <trkpt lat="43.63347" lon="6.6232">
        <ele>655.7</ele>
        <time>2023-11-26T09:34:01Z</time>
      </trkpt>
      <trkpt lat="43.63348" lon="6.62319">
        <ele>655.9</ele>
        <time>2023-11-26T09:34:02Z</time>
      </trkpt>
      <trkpt lat="43.63349" lon="6.62317">
        <ele>656.1</ele>
        <time>2023-11-26T09:34:03Z</time>
      </trkpt>
      <trkpt lat="43.6335" lon="6.62315">
        <ele>656.2</ele>
        <time>2023-11-26T09:34:04Z</time>
      </trkpt>
      <trkpt lat="43.6335" lon="6.62312">
        <ele>656.2</ele>
        <time>2023-11-26T09:34:05Z</time>
      </trkpt>
      <trkpt lat="43.6335" lon="6.62311">
        <ele>656.3</ele>
        <time>2023-11-26T09:34:06Z</time>
      </trkpt>
      <trkpt lat="43.6335" lon="6.62309">
        <ele>656.4</ele>
        <time>2023-11-26T09:34:07Z</time>
      </trkpt>
      <trkpt lat="43.6335" lon="6.62308">
        <ele>656.4</ele>
        <time>2023-11-26T09:34:08Z</time>
      </trkpt>
      <trkpt lat="43.63349" lon="6.62307">
        <ele>656.5</ele>
        <time>2023-11-26T09:34:09Z</time>
      </trkpt>
      <trkpt lat="43.63349" lon="6.62306">
        <ele>656.6</ele>
        <time>2023-11-26T09:34:10Z</time>
      </trkpt>
      <trkpt lat="43.63349" lon="6.62306">
        <ele>656.6</ele>
        <time>2023-11-26T09:34:11Z</time>
      </trkpt>
      <trkpt lat="43.63349" lon="6.62303">
        <ele>656.8</ele>
        <time>2023-11-26T09:34:12Z</time>
      </trkpt>
      <trkpt lat="43.63349" lon="6.62301">
        <ele>656.8</ele>
        <time>2023-11-26T09:34:13Z</time>
      </trkpt>
      <trkpt lat="43.6335" lon="6.62299">
        <ele>656.8</ele>
        <time>2023-11-26T09:34:14Z</time>
      </trkpt>
      <trkpt lat="43.6335" lon="6.62297">
        <ele>657</ele>
        <time>2023-11-26T09:34:15Z</time>
      </trkpt>
      <trkpt lat="43.63349" lon="6.62295">
        <ele>657</ele>
        <time>2023-11-26T09:34:16Z</time>
      </trkpt>
      <trkpt lat="43.63349" lon="6.62293">
        <ele>657</ele>
        <time>2023-11-26T09:34:17Z</time>
      </trkpt>
      <trkpt lat="43.63349" lon="6.62291">
        <ele>657</ele>
        <time>2023-11-26T09:34:18Z</time>
      </trkpt>
      <trkpt lat="43.63349" lon="6.62289">
        <ele>657</ele>
        <time>2023-11-26T09:34:19Z</time>
      </trkpt>
      <trkpt lat="43.63349" lon="6.62286">
        <ele>656.9</ele>
        <time>2023-11-26T09:34:20Z</time>
      </trkpt>
      <trkpt lat="43.63348" lon="6.62284">
        <ele>656.9</ele>
        <time>2023-11-26T09:34:21Z</time>
      </trkpt>
      <trkpt lat="43.63349" lon="6.62281">
        <ele>656.9</ele>
        <time>2023-11-26T09:34:22Z</time>
      </trkpt>
      <trkpt lat="43.6335" lon="6.62279">
        <ele>656.9</ele>
        <time>2023-11-26T09:34:23Z</time>
      </trkpt>
      <trkpt lat="43.6335" lon="6.62276">
        <ele>656.9</ele>
        <time>2023-11-26T09:34:24Z</time>
      </trkpt>
      <trkpt lat="43.6335" lon="6.62274">
        <ele>656.9</ele>
        <time>2023-11-26T09:34:25Z</time>
      </trkpt>
      <trkpt lat="43.63351" lon="6.62271">
        <ele>657</ele>
        <time>2023-11-26T09:34:26Z</time>
      </trkpt>
      <trkpt lat="43.63351" lon="6.6227">
        <ele>657</ele>
        <time>2023-11-26T09:34:27Z</time>
      </trkpt>
      <trkpt lat="43.63351" lon="6.62268">
        <ele>657</ele>
        <time>2023-11-26T09:34:28Z</time>
      </trkpt>
      <trkpt lat="43.63351" lon="6.62267">
        <ele>657</ele>
        <time>2023-11-26T09:34:29Z</time>
      </trkpt>
      <trkpt lat="43.63351" lon="6.62265">
        <ele>657</ele>
        <time>2023-11-26T09:34:30Z</time>
      </trkpt>
      <trkpt lat="43.63351" lon="6.62264">
        <ele>657</ele>
        <time>2023-11-26T09:34:31Z</time>
      </trkpt>
      <trkpt lat="43.63352" lon="6.62262">
        <ele>657</ele>
        <time>2023-11-26T09:34:32Z</time>
      </trkpt>
      <trkpt lat="43.63352" lon="6.6226">
        <ele>656.9</ele>
        <time>2023-11-26T09:34:33Z</time>
      </trkpt>
      <trkpt lat="43.63353" lon="6.62258">
        <ele>656.9</ele>
        <time>2023-11-26T09:34:34Z</time>
      </trkpt>
      <trkpt lat="43.63353" lon="6.62256">
        <ele>657</ele>
        <time>2023-11-26T09:34:35Z</time>
      </trkpt>
      <trkpt lat="43.63353" lon="6.62254">
        <ele>657.1</ele>
        <time>2023-11-26T09:34:36Z</time>
      </trkpt>
      <trkpt lat="43.63353" lon="6.62253">
        <ele>657.1</ele>
        <time>2023-11-26T09:34:37Z</time>
      </trkpt>
      <trkpt lat="43.63354" lon="6.62252">
        <ele>657.2</ele>
        <time>2023-11-26T09:34:38Z</time>
      </trkpt>
      <trkpt lat="43.63354" lon="6.62251">
        <ele>657.3</ele>
        <time>2023-11-26T09:34:39Z</time>
      </trkpt>
      <trkpt lat="43.63353" lon="6.6225">
        <ele>657.4</ele>
        <time>2023-11-26T09:34:40Z</time>
      </trkpt>
      <trkpt lat="43.63353" lon="6.62248">
        <ele>657.4</ele>
        <time>2023-11-26T09:34:41Z</time>
      </trkpt>
      <trkpt lat="43.63355" lon="6.62246">
        <ele>657.5</ele>
        <time>2023-11-26T09:34:42Z</time>
      </trkpt>
      <trkpt lat="43.63355" lon="6.62244">
        <ele>657.6</ele>
        <time>2023-11-26T09:34:43Z</time>
      </trkpt>
      <trkpt lat="43.63356" lon="6.62241">
        <ele>657.6</ele>
        <time>2023-11-26T09:34:44Z</time>
      </trkpt>
      <trkpt lat="43.63356" lon="6.62239">
        <ele>657.7</ele>
        <time>2023-11-26T09:34:45Z</time>
      </trkpt>
      <trkpt lat="43.63356" lon="6.62236">
        <ele>657.8</ele>
        <time>2023-11-26T09:34:46Z</time>
      </trkpt>
      <trkpt lat="43.63356" lon="6.62234">
        <ele>657.8</ele>
        <time>2023-11-26T09:34:47Z</time>
      </trkpt>
      <trkpt lat="43.63356" lon="6.62232">
        <ele>657.8</ele>
        <time>2023-11-26T09:34:48Z</time>
      </trkpt>
      <trkpt lat="43.63356" lon="6.62231">
        <ele>657.9</ele>
        <time>2023-11-26T09:34:49Z</time>
      </trkpt>
      <trkpt lat="43.63357" lon="6.6223">
        <ele>657.9</ele>
        <time>2023-11-26T09:34:50Z</time>
      </trkpt>
      <trkpt lat="43.63358" lon="6.62229">
        <ele>658.1</ele>
        <time>2023-11-26T09:34:51Z</time>
      </trkpt>
      <trkpt lat="43.63357" lon="6.62227">
        <ele>658.2</ele>
        <time>2023-11-26T09:34:52Z</time>
      </trkpt>
      <trkpt lat="43.63357" lon="6.62224">
        <ele>658.2</ele>
        <time>2023-11-26T09:34:53Z</time>
      </trkpt>
      <trkpt lat="43.63357" lon="6.62222">
        <ele>658.3</ele>
        <time>2023-11-26T09:34:54Z</time>
      </trkpt>
      <trkpt lat="43.63357" lon="6.6222">
        <ele>658.4</ele>
        <time>2023-11-26T09:34:55Z</time>
      </trkpt>
      <trkpt lat="43.63356" lon="6.62218">
        <ele>658.5</ele>
        <time>2023-11-26T09:34:56Z</time>
      </trkpt>
      <trkpt lat="43.63356" lon="6.62216">
        <ele>658.6</ele>
        <time>2023-11-26T09:34:57Z</time>
      </trkpt>
      <trkpt lat="43.63356" lon="6.62214">
        <ele>658.6</ele>
        <time>2023-11-26T09:34:58Z</time>
      </trkpt>
      <trkpt lat="43.63356" lon="6.62212">
        <ele>658.7</ele>
        <time>2023-11-26T09:34:59Z</time>
      </trkpt>
      <trkpt lat="43.63356" lon="6.62211">
        <ele>658.8</ele>
        <time>2023-11-26T09:35:00Z</time>
      </trkpt>
      <trkpt lat="43.63355" lon="6.62209">
        <ele>658.9</ele>
        <time>2023-11-26T09:35:01Z</time>
      </trkpt>
      <trkpt lat="43.63355" lon="6.62207">
        <ele>659</ele>
        <time>2023-11-26T09:35:02Z</time>
      </trkpt>
      <trkpt lat="43.63355" lon="6.62205">
        <ele>659.1</ele>
        <time>2023-11-26T09:35:03Z</time>
      </trkpt>
      <trkpt lat="43.63354" lon="6.62203">
        <ele>659.1</ele>
        <time>2023-11-26T09:35:04Z</time>
      </trkpt>
      <trkpt lat="43.63353" lon="6.62201">
        <ele>659.2</ele>
        <time>2023-11-26T09:35:05Z</time>
      </trkpt>
      <trkpt lat="43.63352" lon="6.622">
        <ele>659.2</ele>
        <time>2023-11-26T09:35:06Z</time>
      </trkpt>
      <trkpt lat="43.63351" lon="6.62198">
        <ele>659.3</ele>
        <time>2023-11-26T09:35:07Z</time>
      </trkpt>
      <trkpt lat="43.63351" lon="6.62197">
        <ele>659.4</ele>
        <time>2023-11-26T09:35:08Z</time>
      </trkpt>
      <trkpt lat="43.6335" lon="6.62195">
        <ele>659.4</ele>
        <time>2023-11-26T09:35:09Z</time>
      </trkpt>
      <trkpt lat="43.6335" lon="6.62193">
        <ele>659.4</ele>
        <time>2023-11-26T09:35:10Z</time>
      </trkpt>
      <trkpt lat="43.63349" lon="6.62191">
        <ele>659.5</ele>
        <time>2023-11-26T09:35:11Z</time>
      </trkpt>
      <trkpt lat="43.63349" lon="6.62189">
        <ele>659.5</ele>
        <time>2023-11-26T09:35:12Z</time>
      </trkpt>
      <trkpt lat="43.63347" lon="6.62187">
        <ele>659.5</ele>
        <time>2023-11-26T09:35:13Z</time>
      </trkpt>
      <trkpt lat="43.63347" lon="6.62186">
        <ele>659.5</ele>
        <time>2023-11-26T09:35:14Z</time>
      </trkpt>
      <trkpt lat="43.63346" lon="6.62184">
        <ele>659.6</ele>
        <time>2023-11-26T09:35:15Z</time>
      </trkpt>
      <trkpt lat="43.63345" lon="6.62183">
        <ele>659.7</ele>
        <time>2023-11-26T09:35:16Z</time>
      </trkpt>
      <trkpt lat="43.63345" lon="6.62181">
        <ele>659.8</ele>
        <time>2023-11-26T09:35:17Z</time>
      </trkpt>
      <trkpt lat="43.63344" lon="6.6218">
        <ele>659.8</ele>
        <time>2023-11-26T09:35:18Z</time>
      </trkpt>
      <trkpt lat="43.63345" lon="6.62178">
        <ele>659.9</ele>
        <time>2023-11-26T09:35:19Z</time>
      </trkpt>
      <trkpt lat="43.63344" lon="6.62176">
        <ele>659.9</ele>
        <time>2023-11-26T09:35:20Z</time>
      </trkpt>
      <trkpt lat="43.63343" lon="6.62174">
        <ele>660</ele>
        <time>2023-11-26T09:35:21Z</time>
      </trkpt>
      <trkpt lat="43.63342" lon="6.62173">
        <ele>660.1</ele>
        <time>2023-11-26T09:35:22Z</time>
      </trkpt>
      <trkpt lat="43.63341" lon="6.62172">
        <ele>660.1</ele>
        <time>2023-11-26T09:35:23Z</time>
      </trkpt>
      <trkpt lat="43.6334" lon="6.62171">
        <ele>660.2</ele>
        <time>2023-11-26T09:35:24Z</time>
      </trkpt>
      <trkpt lat="43.63339" lon="6.6217">
        <ele>660.3</ele>
        <time>2023-11-26T09:35:25Z</time>
      </trkpt>
      <trkpt lat="43.63338" lon="6.62168">
        <ele>660.3</ele>
        <time>2023-11-26T09:35:26Z</time>
      </trkpt>
      <trkpt lat="43.63338" lon="6.62167">
        <ele>660.4</ele>
        <time>2023-11-26T09:35:27Z</time>
      </trkpt>
      <trkpt lat="43.63337" lon="6.62166">
        <ele>660.5</ele>
        <time>2023-11-26T09:35:28Z</time>
      </trkpt>
      <trkpt lat="43.63336" lon="6.62165">
        <ele>660.5</ele>
        <time>2023-11-26T09:35:29Z</time>
      </trkpt>
      <trkpt lat="43.63335" lon="6.62164">
        <ele>660.4</ele>
        <time>2023-11-26T09:35:30Z</time>
      </trkpt>
      <trkpt lat="43.63334" lon="6.62164">
        <ele>660.4</ele>
        <time>2023-11-26T09:35:31Z</time>
      </trkpt>
      <trkpt lat="43.63333" lon="6.62162">
        <ele>660.5</ele>
        <time>2023-11-26T09:35:32Z</time>
      </trkpt>
      <trkpt lat="43.63331" lon="6.62162">
        <ele>660.5</ele>
        <time>2023-11-26T09:35:33Z</time>
      </trkpt>
      <trkpt lat="43.6333" lon="6.62161">
        <ele>660.6</ele>
        <time>2023-11-26T09:35:34Z</time>
      </trkpt>
      <trkpt lat="43.63329" lon="6.6216">
        <ele>660.6</ele>
        <time>2023-11-26T09:35:35Z</time>
      </trkpt>
      <trkpt lat="43.63328" lon="6.62158">
        <ele>660.6</ele>
        <time>2023-11-26T09:35:36Z</time>
      </trkpt>
      <trkpt lat="43.63327" lon="6.62157">
        <ele>660.7</ele>
        <time>2023-11-26T09:35:37Z</time>
      </trkpt>
      <trkpt lat="43.63325" lon="6.62156">
        <ele>660.7</ele>
        <time>2023-11-26T09:35:38Z</time>
      </trkpt>
      <trkpt lat="43.63323" lon="6.62156">
        <ele>660.8</ele>
        <time>2023-11-26T09:35:39Z</time>
      </trkpt>
      <trkpt lat="43.63322" lon="6.62155">
        <ele>660.8</ele>
        <time>2023-11-26T09:35:40Z</time>
      </trkpt>
      <trkpt lat="43.63321" lon="6.62154">
        <ele>660.8</ele>
        <time>2023-11-26T09:35:41Z</time>
      </trkpt>
      <trkpt lat="43.6332" lon="6.62153">
        <ele>660.8</ele>
        <time>2023-11-26T09:35:42Z</time>
      </trkpt>
      <trkpt lat="43.63318" lon="6.62153">
        <ele>660.8</ele>
        <time>2023-11-26T09:35:43Z</time>
      </trkpt>
      <trkpt lat="43.63317" lon="6.62151">
        <ele>660.9</ele>
        <time>2023-11-26T09:35:44Z</time>
      </trkpt>
      <trkpt lat="43.63316" lon="6.62151">
        <ele>661</ele>
        <time>2023-11-26T09:35:45Z</time>
      </trkpt>
      <trkpt lat="43.63315" lon="6.6215">
        <ele>661</ele>
        <time>2023-11-26T09:35:46Z</time>
      </trkpt>
      <trkpt lat="43.63313" lon="6.62149">
        <ele>661</ele>
        <time>2023-11-26T09:35:47Z</time>
      </trkpt>
      <trkpt lat="43.63312" lon="6.62148">
        <ele>661.1</ele>
        <time>2023-11-26T09:35:48Z</time>
      </trkpt>
      <trkpt lat="43.63311" lon="6.62147">
        <ele>661.1</ele>
        <time>2023-11-26T09:35:49Z</time>
      </trkpt>
      <trkpt lat="43.6331" lon="6.62146">
        <ele>661.1</ele>
        <time>2023-11-26T09:35:50Z</time>
      </trkpt>
      <trkpt lat="43.63309" lon="6.62145">
        <ele>661.2</ele>
        <time>2023-11-26T09:35:51Z</time>
      </trkpt>
      <trkpt lat="43.63308" lon="6.62144">
        <ele>661.3</ele>
        <time>2023-11-26T09:35:52Z</time>
      </trkpt>
      <trkpt lat="43.63306" lon="6.62144">
        <ele>661.3</ele>
        <time>2023-11-26T09:35:53Z</time>
      </trkpt>
      <trkpt lat="43.63305" lon="6.62144">
        <ele>661.3</ele>
        <time>2023-11-26T09:35:54Z</time>
      </trkpt>
      <trkpt lat="43.63304" lon="6.62144">
        <ele>661.3</ele>
        <time>2023-11-26T09:35:55Z</time>
      </trkpt>
      <trkpt lat="43.63303" lon="6.62143">
        <ele>661.4</ele>
        <time>2023-11-26T09:35:56Z</time>
      </trkpt>
      <trkpt lat="43.63302" lon="6.62143">
        <ele>661.4</ele>
        <time>2023-11-26T09:35:57Z</time>
      </trkpt>
      <trkpt lat="43.633" lon="6.62143">
        <ele>661.5</ele>
        <time>2023-11-26T09:35:58Z</time>
      </trkpt>
      <trkpt lat="43.63299" lon="6.62142">
        <ele>661.6</ele>
        <time>2023-11-26T09:35:59Z</time>
      </trkpt>
      <trkpt lat="43.63298" lon="6.62141">
        <ele>661.7</ele>
        <time>2023-11-26T09:36:00Z</time>
      </trkpt>
      <trkpt lat="43.63297" lon="6.6214">
        <ele>661.6</ele>
        <time>2023-11-26T09:36:01Z</time>
      </trkpt>
      <trkpt lat="43.63296" lon="6.62139">
        <ele>661.6</ele>
        <time>2023-11-26T09:36:02Z</time>
      </trkpt>
      <trkpt lat="43.63296" lon="6.62138">
        <ele>661.6</ele>
        <time>2023-11-26T09:36:03Z</time>
      </trkpt>
      <trkpt lat="43.63295" lon="6.62138">
        <ele>661.7</ele>
        <time>2023-11-26T09:36:04Z</time>
      </trkpt>
      <trkpt lat="43.63294" lon="6.62136">
        <ele>661.7</ele>
        <time>2023-11-26T09:36:05Z</time>
      </trkpt>
      <trkpt lat="43.63293" lon="6.62135">
        <ele>661.8</ele>
        <time>2023-11-26T09:36:06Z</time>
      </trkpt>
      <trkpt lat="43.63291" lon="6.62134">
        <ele>661.8</ele>
        <time>2023-11-26T09:36:07Z</time>
      </trkpt>
      <trkpt lat="43.63291" lon="6.62134">
        <ele>661.8</ele>
        <time>2023-11-26T09:36:08Z</time>
      </trkpt>
      <trkpt lat="43.6329" lon="6.62133">
        <ele>661.9</ele>
        <time>2023-11-26T09:36:09Z</time>
      </trkpt>
      <trkpt lat="43.63289" lon="6.62133">
        <ele>661.9</ele>
        <time>2023-11-26T09:36:10Z</time>
      </trkpt>
      <trkpt lat="43.63288" lon="6.62132">
        <ele>661.9</ele>
        <time>2023-11-26T09:36:11Z</time>
      </trkpt>
      <trkpt lat="43.63287" lon="6.62131">
        <ele>661.9</ele>
        <time>2023-11-26T09:36:12Z</time>
      </trkpt>
      <trkpt lat="43.63286" lon="6.6213">
        <ele>661.9</ele>
        <time>2023-11-26T09:36:13Z</time>
      </trkpt>
      <trkpt lat="43.63284" lon="6.6213">
        <ele>661.8</ele>
        <time>2023-11-26T09:36:14Z</time>
      </trkpt>
      <trkpt lat="43.63283" lon="6.62129">
        <ele>661.8</ele>
        <time>2023-11-26T09:36:15Z</time>
      </trkpt>
      <trkpt lat="43.63282" lon="6.62128">
        <ele>661.8</ele>
        <time>2023-11-26T09:36:16Z</time>
      </trkpt>
      <trkpt lat="43.6328" lon="6.62127">
        <ele>661.6</ele>
        <time>2023-11-26T09:36:17Z</time>
      </trkpt>
      <trkpt lat="43.63279" lon="6.62125">
        <ele>661.7</ele>
        <time>2023-11-26T09:36:18Z</time>
      </trkpt>
      <trkpt lat="43.63278" lon="6.62125">
        <ele>661.7</ele>
        <time>2023-11-26T09:36:19Z</time>
      </trkpt>
      <trkpt lat="43.63277" lon="6.62124">
        <ele>661.6</ele>
        <time>2023-11-26T09:36:20Z</time>
      </trkpt>
      <trkpt lat="43.63276" lon="6.62123">
        <ele>661.4</ele>
        <time>2023-11-26T09:36:21Z</time>
      </trkpt>
      <trkpt lat="43.63275" lon="6.62123">
        <ele>661.3</ele>
        <time>2023-11-26T09:36:22Z</time>
      </trkpt>
      <trkpt lat="43.63274" lon="6.62122">
        <ele>661.2</ele>
        <time>2023-11-26T09:36:23Z</time>
      </trkpt>
      <trkpt lat="43.63273" lon="6.62121">
        <ele>661</ele>
        <time>2023-11-26T09:36:24Z</time>
      </trkpt>
      <trkpt lat="43.63271" lon="6.62121">
        <ele>660.9</ele>
        <time>2023-11-26T09:36:25Z</time>
      </trkpt>
      <trkpt lat="43.6327" lon="6.6212">
        <ele>660.8</ele>
        <time>2023-11-26T09:36:26Z</time>
      </trkpt>
      <trkpt lat="43.63269" lon="6.6212">
        <ele>660.7</ele>
        <time>2023-11-26T09:36:27Z</time>
      </trkpt>
      <trkpt lat="43.63267" lon="6.62119">
        <ele>660.7</ele>
        <time>2023-11-26T09:36:28Z</time>
      </trkpt>
      <trkpt lat="43.63266" lon="6.62119">
        <ele>660.7</ele>
        <time>2023-11-26T09:36:29Z</time>
      </trkpt>
      <trkpt lat="43.63265" lon="6.62118">
        <ele>660.6</ele>
        <time>2023-11-26T09:36:30Z</time>
      </trkpt>
      <trkpt lat="43.63263" lon="6.62117">
        <ele>660.5</ele>
        <time>2023-11-26T09:36:31Z</time>
      </trkpt>
      <trkpt lat="43.63262" lon="6.62116">
        <ele>660.5</ele>
        <time>2023-11-26T09:36:32Z</time>
      </trkpt>
      <trkpt lat="43.63261" lon="6.62114">
        <ele>660.6</ele>
        <time>2023-11-26T09:36:33Z</time>
      </trkpt>
      <trkpt lat="43.6326" lon="6.62114">
        <ele>660.5</ele>
        <time>2023-11-26T09:36:34Z</time>
      </trkpt>
      <trkpt lat="43.63259" lon="6.62112">
        <ele>660.5</ele>
        <time>2023-11-26T09:36:35Z</time>
      </trkpt>
      <trkpt lat="43.63258" lon="6.6211">
        <ele>660.4</ele>
        <time>2023-11-26T09:36:36Z</time>
      </trkpt>
      <trkpt lat="43.63257" lon="6.62109">
        <ele>660.3</ele>
        <time>2023-11-26T09:36:37Z</time>
      </trkpt>
      <trkpt lat="43.63256" lon="6.62109">
        <ele>660.2</ele>
        <time>2023-11-26T09:36:38Z</time>
      </trkpt>
      <trkpt lat="43.63255" lon="6.62108">
        <ele>660.1</ele>
        <time>2023-11-26T09:36:39Z</time>
      </trkpt>
      <trkpt lat="43.63254" lon="6.62106">
        <ele>660.1</ele>
        <time>2023-11-26T09:36:40Z</time>
      </trkpt>
      <trkpt lat="43.63253" lon="6.62104">
        <ele>660.1</ele>
        <time>2023-11-26T09:36:41Z</time>
      </trkpt>
      <trkpt lat="43.63252" lon="6.62103">
        <ele>659.9</ele>
        <time>2023-11-26T09:36:42Z</time>
      </trkpt>
      <trkpt lat="43.63252" lon="6.62102">
        <ele>659.8</ele>
        <time>2023-11-26T09:36:43Z</time>
      </trkpt>
      <trkpt lat="43.63251" lon="6.62101">
        <ele>659.8</ele>
        <time>2023-11-26T09:36:44Z</time>
      </trkpt>
      <trkpt lat="43.6325" lon="6.62099">
        <ele>659.6</ele>
        <time>2023-11-26T09:36:45Z</time>
      </trkpt>
      <trkpt lat="43.63249" lon="6.62099">
        <ele>659.5</ele>
        <time>2023-11-26T09:36:46Z</time>
      </trkpt>
      <trkpt lat="43.63248" lon="6.62097">
        <ele>659.4</ele>
        <time>2023-11-26T09:36:47Z</time>
      </trkpt>
      <trkpt lat="43.63247" lon="6.62096">
        <ele>659.3</ele>
        <time>2023-11-26T09:36:48Z</time>
      </trkpt>
      <trkpt lat="43.63246" lon="6.62095">
        <ele>659.1</ele>
        <time>2023-11-26T09:36:49Z</time>
      </trkpt>
      <trkpt lat="43.63245" lon="6.62094">
        <ele>659</ele>
        <time>2023-11-26T09:36:50Z</time>
      </trkpt>
      <trkpt lat="43.63245" lon="6.62092">
        <ele>658.8</ele>
        <time>2023-11-26T09:36:51Z</time>
      </trkpt>
      <trkpt lat="43.63243" lon="6.62091">
        <ele>658.6</ele>
        <time>2023-11-26T09:36:52Z</time>
      </trkpt>
      <trkpt lat="43.63243" lon="6.62091">
        <ele>658.5</ele>
        <time>2023-11-26T09:36:53Z</time>
      </trkpt>
      <trkpt lat="43.63242" lon="6.62089">
        <ele>658.4</ele>
        <time>2023-11-26T09:36:54Z</time>
      </trkpt>
      <trkpt lat="43.63241" lon="6.62088">
        <ele>658.1</ele>
        <time>2023-11-26T09:36:55Z</time>
      </trkpt>
      <trkpt lat="43.63241" lon="6.62086">
        <ele>658</ele>
        <time>2023-11-26T09:36:56Z</time>
      </trkpt>
      <trkpt lat="43.6324" lon="6.62085">
        <ele>657.8</ele>
        <time>2023-11-26T09:36:57Z</time>
      </trkpt>
      <trkpt lat="43.63239" lon="6.62085">
        <ele>657.8</ele>
        <time>2023-11-26T09:36:58Z</time>
      </trkpt>
      <trkpt lat="43.63239" lon="6.62083">
        <ele>657.7</ele>
        <time>2023-11-26T09:36:59Z</time>
      </trkpt>
      <trkpt lat="43.63238" lon="6.62082">
        <ele>657.5</ele>
        <time>2023-11-26T09:37:00Z</time>
      </trkpt>
      <trkpt lat="43.63237" lon="6.6208">
        <ele>657.4</ele>
        <time>2023-11-26T09:37:01Z</time>
      </trkpt>
      <trkpt lat="43.63236" lon="6.62079">
        <ele>657.3</ele>
        <time>2023-11-26T09:37:02Z</time>
      </trkpt>
      <trkpt lat="43.63236" lon="6.62078">
        <ele>657.2</ele>
        <time>2023-11-26T09:37:03Z</time>
      </trkpt>
      <trkpt lat="43.63235" lon="6.62077">
        <ele>657.1</ele>
        <time>2023-11-26T09:37:04Z</time>
      </trkpt>
      <trkpt lat="43.63234" lon="6.62075">
        <ele>657</ele>
        <time>2023-11-26T09:37:05Z</time>
      </trkpt>
      <trkpt lat="43.63234" lon="6.62074">
        <ele>656.8</ele>
        <time>2023-11-26T09:37:06Z</time>
      </trkpt>
      <trkpt lat="43.63233" lon="6.62073">
        <ele>656.7</ele>
        <time>2023-11-26T09:37:07Z</time>
      </trkpt>
      <trkpt lat="43.63232" lon="6.62071">
        <ele>656.5</ele>
        <time>2023-11-26T09:37:08Z</time>
      </trkpt>
      <trkpt lat="43.63231" lon="6.62071">
        <ele>656.4</ele>
        <time>2023-11-26T09:37:09Z</time>
      </trkpt>
      <trkpt lat="43.63231" lon="6.62069">
        <ele>656.2</ele>
        <time>2023-11-26T09:37:10Z</time>
      </trkpt>
      <trkpt lat="43.63231" lon="6.62067">
        <ele>656.2</ele>
        <time>2023-11-26T09:37:11Z</time>
      </trkpt>
      <trkpt lat="43.6323" lon="6.62066">
        <ele>656</ele>
        <time>2023-11-26T09:37:12Z</time>
      </trkpt>
      <trkpt lat="43.63229" lon="6.62064">
        <ele>655.9</ele>
        <time>2023-11-26T09:37:13Z</time>
      </trkpt>
      <trkpt lat="43.63229" lon="6.62063">
        <ele>655.8</ele>
        <time>2023-11-26T09:37:14Z</time>
      </trkpt>
      <trkpt lat="43.63228" lon="6.62062">
        <ele>655.7</ele>
        <time>2023-11-26T09:37:15Z</time>
      </trkpt>
      <trkpt lat="43.63227" lon="6.6206">
        <ele>655.5</ele>
        <time>2023-11-26T09:37:16Z</time>
      </trkpt>
      <trkpt lat="43.63227" lon="6.62059">
        <ele>655.3</ele>
        <time>2023-11-26T09:37:17Z</time>
      </trkpt>
      <trkpt lat="43.63226" lon="6.62057">
        <ele>655.2</ele>
        <time>2023-11-26T09:37:18Z</time>
      </trkpt>
      <trkpt lat="43.63225" lon="6.62056">
        <ele>655.1</ele>
        <time>2023-11-26T09:37:19Z</time>
      </trkpt>
      <trkpt lat="43.63225" lon="6.62054">
        <ele>655</ele>
        <time>2023-11-26T09:37:20Z</time>
      </trkpt>
      <trkpt lat="43.63224" lon="6.62052">
        <ele>654.8</ele>
        <time>2023-11-26T09:37:21Z</time>
      </trkpt>
      <trkpt lat="43.63223" lon="6.6205">
        <ele>654.6</ele>
        <time>2023-11-26T09:37:22Z</time>
      </trkpt>
      <trkpt lat="43.63223" lon="6.62048">
        <ele>654.4</ele>
        <time>2023-11-26T09:37:23Z</time>
      </trkpt>
      <trkpt lat="43.63222" lon="6.62047">
        <ele>654.3</ele>
        <time>2023-11-26T09:37:24Z</time>
      </trkpt>
      <trkpt lat="43.63222" lon="6.62046">
        <ele>654.1</ele>
        <time>2023-11-26T09:37:25Z</time>
      </trkpt>
      <trkpt lat="43.63221" lon="6.62044">
        <ele>654</ele>
        <time>2023-11-26T09:37:26Z</time>
      </trkpt>
      <trkpt lat="43.63221" lon="6.62042">
        <ele>653.9</ele>
        <time>2023-11-26T09:37:27Z</time>
      </trkpt>
      <trkpt lat="43.6322" lon="6.6204">
        <ele>653.8</ele>
        <time>2023-11-26T09:37:28Z</time>
      </trkpt>
      <trkpt lat="43.63219" lon="6.62038">
        <ele>653.7</ele>
        <time>2023-11-26T09:37:29Z</time>
      </trkpt>
      <trkpt lat="43.63219" lon="6.62038">
        <ele>653.5</ele>
        <time>2023-11-26T09:37:30Z</time>
      </trkpt>
      <trkpt lat="43.63218" lon="6.62037">
        <ele>653.4</ele>
        <time>2023-11-26T09:37:31Z</time>
      </trkpt>
      <trkpt lat="43.63218" lon="6.62035">
        <ele>653.3</ele>
        <time>2023-11-26T09:37:32Z</time>
      </trkpt>
      <trkpt lat="43.63217" lon="6.62034">
        <ele>653.3</ele>
        <time>2023-11-26T09:37:33Z</time>
      </trkpt>
      <trkpt lat="43.63217" lon="6.62032">
        <ele>653.2</ele>
        <time>2023-11-26T09:37:34Z</time>
      </trkpt>
      <trkpt lat="43.63217" lon="6.62031">
        <ele>653.2</ele>
        <time>2023-11-26T09:37:35Z</time>
      </trkpt>
      <trkpt lat="43.63216" lon="6.6203">
        <ele>653.2</ele>
        <time>2023-11-26T09:37:36Z</time>
      </trkpt>
      <trkpt lat="43.63216" lon="6.62028">
        <ele>653.2</ele>
        <time>2023-11-26T09:37:37Z</time>
      </trkpt>
      <trkpt lat="43.63216" lon="6.62027">
        <ele>653.2</ele>
        <time>2023-11-26T09:37:38Z</time>
      </trkpt>
      <trkpt lat="43.63216" lon="6.62025">
        <ele>653.1</ele>
        <time>2023-11-26T09:37:39Z</time>
      </trkpt>
      <trkpt lat="43.63215" lon="6.62024">
        <ele>653.1</ele>
        <time>2023-11-26T09:37:40Z</time>
      </trkpt>
      <trkpt lat="43.63215" lon="6.62022">
        <ele>653</ele>
        <time>2023-11-26T09:37:41Z</time>
      </trkpt>
      <trkpt lat="43.63215" lon="6.6202">
        <ele>652.9</ele>
        <time>2023-11-26T09:37:42Z</time>
      </trkpt>
      <trkpt lat="43.63215" lon="6.62018">
        <ele>652.8</ele>
        <time>2023-11-26T09:37:43Z</time>
      </trkpt>
      <trkpt lat="43.63215" lon="6.62017">
        <ele>652.8</ele>
        <time>2023-11-26T09:37:44Z</time>
      </trkpt>
      <trkpt lat="43.63215" lon="6.62016">
        <ele>652.8</ele>
        <time>2023-11-26T09:37:45Z</time>
      </trkpt>
      <trkpt lat="43.63214" lon="6.62014">
        <ele>652.7</ele>
        <time>2023-11-26T09:37:46Z</time>
      </trkpt>
      <trkpt lat="43.63214" lon="6.62013">
        <ele>652.6</ele>
        <time>2023-11-26T09:37:47Z</time>
      </trkpt>
      <trkpt lat="43.63214" lon="6.62012">
        <ele>652.6</ele>
        <time>2023-11-26T09:37:48Z</time>
      </trkpt>
      <trkpt lat="43.63213" lon="6.6201">
        <ele>652.6</ele>
        <time>2023-11-26T09:37:49Z</time>
      </trkpt>
      <trkpt lat="43.63213" lon="6.62008">
        <ele>652.6</ele>
        <time>2023-11-26T09:37:50Z</time>
      </trkpt>
      <trkpt lat="43.63213" lon="6.62006">
        <ele>652.6</ele>
        <time>2023-11-26T09:37:51Z</time>
      </trkpt>
      <trkpt lat="43.63212" lon="6.62004">
        <ele>652.6</ele>
        <time>2023-11-26T09:37:52Z</time>
      </trkpt>
      <trkpt lat="43.63211" lon="6.62003">
        <ele>652.6</ele>
        <time>2023-11-26T09:37:53Z</time>
      </trkpt>
      <trkpt lat="43.63211" lon="6.62">
        <ele>652.6</ele>
        <time>2023-11-26T09:37:54Z</time>
      </trkpt>
      <trkpt lat="43.63211" lon="6.61999">
        <ele>652.6</ele>
        <time>2023-11-26T09:37:55Z</time>
      </trkpt>
      <trkpt lat="43.63211" lon="6.61998">
        <ele>652.6</ele>
        <time>2023-11-26T09:37:56Z</time>
      </trkpt>
      <trkpt lat="43.63211" lon="6.61996">
        <ele>652.6</ele>
        <time>2023-11-26T09:37:57Z</time>
      </trkpt>
      <trkpt lat="43.6321" lon="6.61994">
        <ele>652.5</ele>
        <time>2023-11-26T09:37:58Z</time>
      </trkpt>
      <trkpt lat="43.6321" lon="6.61993">
        <ele>652.5</ele>
        <time>2023-11-26T09:37:59Z</time>
      </trkpt>
      <trkpt lat="43.63209" lon="6.61991">
        <ele>652.4</ele>
        <time>2023-11-26T09:38:00Z</time>
      </trkpt>
      <trkpt lat="43.63209" lon="6.6199">
        <ele>652.4</ele>
        <time>2023-11-26T09:38:01Z</time>
      </trkpt>
      <trkpt lat="43.63209" lon="6.61988">
        <ele>652.4</ele>
        <time>2023-11-26T09:38:02Z</time>
      </trkpt>
      <trkpt lat="43.63209" lon="6.61987">
        <ele>652.3</ele>
        <time>2023-11-26T09:38:03Z</time>
      </trkpt>
      <trkpt lat="43.63208" lon="6.61986">
        <ele>652.3</ele>
        <time>2023-11-26T09:38:04Z</time>
      </trkpt>
      <trkpt lat="43.63208" lon="6.61985">
        <ele>652.3</ele>
        <time>2023-11-26T09:38:05Z</time>
      </trkpt>
      <trkpt lat="43.63208" lon="6.61983">
        <ele>652.3</ele>
        <time>2023-11-26T09:38:06Z</time>
      </trkpt>
      <trkpt lat="43.63208" lon="6.61982">
        <ele>652.3</ele>
        <time>2023-11-26T09:38:07Z</time>
      </trkpt>
      <trkpt lat="43.63207" lon="6.61981">
        <ele>652.5</ele>
        <time>2023-11-26T09:38:08Z</time>
      </trkpt>
      <trkpt lat="43.63207" lon="6.6198">
        <ele>652.5</ele>
        <time>2023-11-26T09:38:09Z</time>
      </trkpt>
      <trkpt lat="43.63207" lon="6.61978">
        <ele>652.6</ele>
        <time>2023-11-26T09:38:10Z</time>
      </trkpt>
      <trkpt lat="43.63207" lon="6.61976">
        <ele>652.5</ele>
        <time>2023-11-26T09:38:11Z</time>
      </trkpt>
      <trkpt lat="43.63208" lon="6.61974">
        <ele>652.5</ele>
        <time>2023-11-26T09:38:12Z</time>
      </trkpt>
      <trkpt lat="43.63209" lon="6.61973">
        <ele>652.5</ele>
        <time>2023-11-26T09:38:13Z</time>
      </trkpt>
      <trkpt lat="43.63209" lon="6.61971">
        <ele>652.5</ele>
        <time>2023-11-26T09:38:14Z</time>
      </trkpt>
      <trkpt lat="43.6321" lon="6.6197">
        <ele>652.5</ele>
        <time>2023-11-26T09:38:15Z</time>
      </trkpt>
      <trkpt lat="43.63209" lon="6.61969">
        <ele>652.5</ele>
        <time>2023-11-26T09:38:16Z</time>
      </trkpt>
      <trkpt lat="43.63208" lon="6.61968">
        <ele>652.4</ele>
        <time>2023-11-26T09:38:17Z</time>
      </trkpt>
      <trkpt lat="43.63208" lon="6.61967">
        <ele>652.3</ele>
        <time>2023-11-26T09:38:18Z</time>
      </trkpt>
      <trkpt lat="43.63208" lon="6.61966">
        <ele>652.2</ele>
        <time>2023-11-26T09:38:19Z</time>
      </trkpt>
      <trkpt lat="43.63207" lon="6.61964">
        <ele>652.2</ele>
        <time>2023-11-26T09:38:20Z</time>
      </trkpt>
      <trkpt lat="43.63207" lon="6.61962">
        <ele>652.2</ele>
        <time>2023-11-26T09:38:21Z</time>
      </trkpt>
      <trkpt lat="43.63206" lon="6.6196">
        <ele>652.1</ele>
        <time>2023-11-26T09:38:22Z</time>
      </trkpt>
      <trkpt lat="43.63205" lon="6.61959">
        <ele>652.1</ele>
        <time>2023-11-26T09:38:23Z</time>
      </trkpt>
      <trkpt lat="43.63204" lon="6.61958">
        <ele>652.1</ele>
        <time>2023-11-26T09:38:24Z</time>
      </trkpt>
      <trkpt lat="43.63203" lon="6.61957">
        <ele>652</ele>
        <time>2023-11-26T09:38:25Z</time>
      </trkpt>
      <trkpt lat="43.63202" lon="6.61955">
        <ele>652</ele>
        <time>2023-11-26T09:38:26Z</time>
      </trkpt>
      <trkpt lat="43.63202" lon="6.61952">
        <ele>651.8</ele>
        <time>2023-11-26T09:38:27Z</time>
      </trkpt>
      <trkpt lat="43.632" lon="6.61951">
        <ele>651.9</ele>
        <time>2023-11-26T09:38:28Z</time>
      </trkpt>
      <trkpt lat="43.632" lon="6.61949">
        <ele>651.9</ele>
        <time>2023-11-26T09:38:29Z</time>
      </trkpt>
      <trkpt lat="43.632" lon="6.61948">
        <ele>651.8</ele>
        <time>2023-11-26T09:38:30Z</time>
      </trkpt>
      <trkpt lat="43.632" lon="6.61947">
        <ele>651.7</ele>
        <time>2023-11-26T09:38:31Z</time>
      </trkpt>
      <trkpt lat="43.632" lon="6.61946">
        <ele>651.7</ele>
        <time>2023-11-26T09:38:32Z</time>
      </trkpt>
      <trkpt lat="43.632" lon="6.61945">
        <ele>651.7</ele>
        <time>2023-11-26T09:38:33Z</time>
      </trkpt>
      <trkpt lat="43.63198" lon="6.61944">
        <ele>651.5</ele>
        <time>2023-11-26T09:38:34Z</time>
      </trkpt>
      <trkpt lat="43.63198" lon="6.61941">
        <ele>651.4</ele>
        <time>2023-11-26T09:38:35Z</time>
      </trkpt>
      <trkpt lat="43.63198" lon="6.6194">
        <ele>651.4</ele>
        <time>2023-11-26T09:38:36Z</time>
      </trkpt>
      <trkpt lat="43.63198" lon="6.61938">
        <ele>651.4</ele>
        <time>2023-11-26T09:38:37Z</time>
      </trkpt>
      <trkpt lat="43.63197" lon="6.61937">
        <ele>651.3</ele>
        <time>2023-11-26T09:38:38Z</time>
      </trkpt>
      <trkpt lat="43.63196" lon="6.61935">
        <ele>651.2</ele>
        <time>2023-11-26T09:38:39Z</time>
      </trkpt>
      <trkpt lat="43.63195" lon="6.61934">
        <ele>651.2</ele>
        <time>2023-11-26T09:38:40Z</time>
      </trkpt>
      <trkpt lat="43.63194" lon="6.61933">
        <ele>651.2</ele>
        <time>2023-11-26T09:38:41Z</time>
      </trkpt>
      <trkpt lat="43.63193" lon="6.61932">
        <ele>651.1</ele>
        <time>2023-11-26T09:38:42Z</time>
      </trkpt>
      <trkpt lat="43.63194" lon="6.6193">
        <ele>651.1</ele>
        <time>2023-11-26T09:38:43Z</time>
      </trkpt>
      <trkpt lat="43.63194" lon="6.61929">
        <ele>651.1</ele>
        <time>2023-11-26T09:38:44Z</time>
      </trkpt>
      <trkpt lat="43.63194" lon="6.61928">
        <ele>651</ele>
        <time>2023-11-26T09:38:45Z</time>
      </trkpt>
      <trkpt lat="43.63194" lon="6.61926">
        <ele>650.9</ele>
        <time>2023-11-26T09:38:46Z</time>
      </trkpt>
      <trkpt lat="43.63194" lon="6.61924">
        <ele>650.9</ele>
        <time>2023-11-26T09:38:47Z</time>
      </trkpt>
      <trkpt lat="43.63194" lon="6.61923">
        <ele>650.9</ele>
        <time>2023-11-26T09:38:48Z</time>
      </trkpt>
      <trkpt lat="43.63193" lon="6.61921">
        <ele>650.9</ele>
        <time>2023-11-26T09:38:49Z</time>
      </trkpt>
      <trkpt lat="43.63193" lon="6.6192">
        <ele>650.9</ele>
        <time>2023-11-26T09:38:50Z</time>
      </trkpt>
      <trkpt lat="43.63192" lon="6.61918">
        <ele>651</ele>
        <time>2023-11-26T09:38:51Z</time>
      </trkpt>
      <trkpt lat="43.63191" lon="6.61916">
        <ele>651</ele>
        <time>2023-11-26T09:38:52Z</time>
      </trkpt>
      <trkpt lat="43.6319" lon="6.61914">
        <ele>651.1</ele>
        <time>2023-11-26T09:38:53Z</time>
      </trkpt>
      <trkpt lat="43.63189" lon="6.61913">
        <ele>651.1</ele>
        <time>2023-11-26T09:38:54Z</time>
      </trkpt>
      <trkpt lat="43.63188" lon="6.61911">
        <ele>651.1</ele>
        <time>2023-11-26T09:38:55Z</time>
      </trkpt>
      <trkpt lat="43.63188" lon="6.61909">
        <ele>651.1</ele>
        <time>2023-11-26T09:38:56Z</time>
      </trkpt>
      <trkpt lat="43.63188" lon="6.61908">
        <ele>651.1</ele>
        <time>2023-11-26T09:38:57Z</time>
      </trkpt>
      <trkpt lat="43.63187" lon="6.61907">
        <ele>651.1</ele>
        <time>2023-11-26T09:38:58Z</time>
      </trkpt>
      <trkpt lat="43.63186" lon="6.61905">
        <ele>651</ele>
        <time>2023-11-26T09:38:59Z</time>
      </trkpt>
      <trkpt lat="43.63186" lon="6.61903">
        <ele>651</ele>
        <time>2023-11-26T09:39:00Z</time>
      </trkpt>
      <trkpt lat="43.63186" lon="6.61901">
        <ele>651.1</ele>
        <time>2023-11-26T09:39:01Z</time>
      </trkpt>
      <trkpt lat="43.63186" lon="6.61899">
        <ele>651.1</ele>
        <time>2023-11-26T09:39:02Z</time>
      </trkpt>
      <trkpt lat="43.63185" lon="6.61898">
        <ele>651.2</ele>
        <time>2023-11-26T09:39:03Z</time>
      </trkpt>
      <trkpt lat="43.63185" lon="6.61897">
        <ele>651.3</ele>
        <time>2023-11-26T09:39:04Z</time>
      </trkpt>
      <trkpt lat="43.63184" lon="6.61895">
        <ele>651.3</ele>
        <time>2023-11-26T09:39:05Z</time>
      </trkpt>
      <trkpt lat="43.63184" lon="6.61893">
        <ele>651.4</ele>
        <time>2023-11-26T09:39:06Z</time>
      </trkpt>
      <trkpt lat="43.63183" lon="6.61892">
        <ele>651.5</ele>
        <time>2023-11-26T09:39:07Z</time>
      </trkpt>
      <trkpt lat="43.63183" lon="6.61891">
        <ele>651.6</ele>
        <time>2023-11-26T09:39:08Z</time>
      </trkpt>
      <trkpt lat="43.63183" lon="6.6189">
        <ele>651.7</ele>
        <time>2023-11-26T09:39:09Z</time>
      </trkpt>
      <trkpt lat="43.63183" lon="6.61889">
        <ele>651.7</ele>
        <time>2023-11-26T09:39:10Z</time>
      </trkpt>
      <trkpt lat="43.63182" lon="6.61888">
        <ele>651.8</ele>
        <time>2023-11-26T09:39:11Z</time>
      </trkpt>
      <trkpt lat="43.63181" lon="6.61886">
        <ele>651.8</ele>
        <time>2023-11-26T09:39:12Z</time>
      </trkpt>
      <trkpt lat="43.63181" lon="6.61885">
        <ele>651.9</ele>
        <time>2023-11-26T09:39:13Z</time>
      </trkpt>
      <trkpt lat="43.6318" lon="6.61884">
        <ele>651.8</ele>
        <time>2023-11-26T09:39:14Z</time>
      </trkpt>
      <trkpt lat="43.6318" lon="6.61882">
        <ele>651.8</ele>
        <time>2023-11-26T09:39:15Z</time>
      </trkpt>
      <trkpt lat="43.63179" lon="6.61881">
        <ele>651.8</ele>
        <time>2023-11-26T09:39:16Z</time>
      </trkpt>
      <trkpt lat="43.63179" lon="6.61879">
        <ele>651.8</ele>
        <time>2023-11-26T09:39:17Z</time>
      </trkpt>
      <trkpt lat="43.63178" lon="6.61877">
        <ele>651.9</ele>
        <time>2023-11-26T09:39:18Z</time>
      </trkpt>
      <trkpt lat="43.63177" lon="6.61875">
        <ele>651.8</ele>
        <time>2023-11-26T09:39:19Z</time>
      </trkpt>
      <trkpt lat="43.63175" lon="6.61873">
        <ele>651.8</ele>
        <time>2023-11-26T09:39:20Z</time>
      </trkpt>
      <trkpt lat="43.63174" lon="6.61872">
        <ele>651.8</ele>
        <time>2023-11-26T09:39:21Z</time>
      </trkpt>
      <trkpt lat="43.63174" lon="6.6187">
        <ele>651.9</ele>
        <time>2023-11-26T09:39:22Z</time>
      </trkpt>
      <trkpt lat="43.63174" lon="6.61868">
        <ele>652</ele>
        <time>2023-11-26T09:39:23Z</time>
      </trkpt>
      <trkpt lat="43.63174" lon="6.61867">
        <ele>652.1</ele>
        <time>2023-11-26T09:39:24Z</time>
      </trkpt>
      <trkpt lat="43.63174" lon="6.61866">
        <ele>652.2</ele>
        <time>2023-11-26T09:39:25Z</time>
      </trkpt>
      <trkpt lat="43.63173" lon="6.61866">
        <ele>652.4</ele>
        <time>2023-11-26T09:39:26Z</time>
      </trkpt>
      <trkpt lat="43.63173" lon="6.61865">
        <ele>652.5</ele>
        <time>2023-11-26T09:39:27Z</time>
      </trkpt>
      <trkpt lat="43.63173" lon="6.61864">
        <ele>652.6</ele>
        <time>2023-11-26T09:39:28Z</time>
      </trkpt>
      <trkpt lat="43.63172" lon="6.61861">
        <ele>652.7</ele>
        <time>2023-11-26T09:39:29Z</time>
      </trkpt>
      <trkpt lat="43.63172" lon="6.6186">
        <ele>652.8</ele>
        <time>2023-11-26T09:39:30Z</time>
      </trkpt>
      <trkpt lat="43.6317" lon="6.61858">
        <ele>652.8</ele>
        <time>2023-11-26T09:39:31Z</time>
      </trkpt>
      <trkpt lat="43.6317" lon="6.61856">
        <ele>652.9</ele>
        <time>2023-11-26T09:39:32Z</time>
      </trkpt>
      <trkpt lat="43.63169" lon="6.61855">
        <ele>652.9</ele>
        <time>2023-11-26T09:39:33Z</time>
      </trkpt>
      <trkpt lat="43.63168" lon="6.61855">
        <ele>653</ele>
        <time>2023-11-26T09:39:34Z</time>
      </trkpt>
      <trkpt lat="43.63168" lon="6.61854">
        <ele>653.1</ele>
        <time>2023-11-26T09:39:35Z</time>
      </trkpt>
      <trkpt lat="43.63167" lon="6.61853">
        <ele>653.2</ele>
        <time>2023-11-26T09:39:36Z</time>
      </trkpt>
      <trkpt lat="43.63166" lon="6.61851">
        <ele>653.2</ele>
        <time>2023-11-26T09:39:37Z</time>
      </trkpt>
      <trkpt lat="43.63166" lon="6.6185">
        <ele>653.5</ele>
        <time>2023-11-26T09:39:38Z</time>
      </trkpt>
      <trkpt lat="43.63166" lon="6.61848">
        <ele>653.6</ele>
        <time>2023-11-26T09:39:39Z</time>
      </trkpt>
      <trkpt lat="43.63165" lon="6.61846">
        <ele>653.7</ele>
        <time>2023-11-26T09:39:40Z</time>
      </trkpt>
      <trkpt lat="43.63166" lon="6.61843">
        <ele>653.8</ele>
        <time>2023-11-26T09:39:41Z</time>
      </trkpt>
      <trkpt lat="43.63166" lon="6.61841">
        <ele>653.9</ele>
        <time>2023-11-26T09:39:42Z</time>
      </trkpt>
      <trkpt lat="43.63166" lon="6.61839">
        <ele>654</ele>
        <time>2023-11-26T09:39:43Z</time>
      </trkpt>
      <trkpt lat="43.63165" lon="6.61838">
        <ele>654.1</ele>
        <time>2023-11-26T09:39:44Z</time>
      </trkpt>
      <trkpt lat="43.63164" lon="6.61838">
        <ele>654.1</ele>
        <time>2023-11-26T09:39:45Z</time>
      </trkpt>
      <trkpt lat="43.63163" lon="6.61837">
        <ele>654.2</ele>
        <time>2023-11-26T09:39:46Z</time>
      </trkpt>
      <trkpt lat="43.63162" lon="6.61835">
        <ele>654.2</ele>
        <time>2023-11-26T09:39:47Z</time>
      </trkpt>
      <trkpt lat="43.63161" lon="6.61833">
        <ele>654.3</ele>
        <time>2023-11-26T09:39:48Z</time>
      </trkpt>
      <trkpt lat="43.6316" lon="6.61832">
        <ele>654.3</ele>
        <time>2023-11-26T09:39:49Z</time>
      </trkpt>
      <trkpt lat="43.6316" lon="6.61831">
        <ele>654.5</ele>
        <time>2023-11-26T09:39:50Z</time>
      </trkpt>
      <trkpt lat="43.63159" lon="6.6183">
        <ele>654.6</ele>
        <time>2023-11-26T09:39:51Z</time>
      </trkpt>
      <trkpt lat="43.63159" lon="6.61828">
        <ele>654.8</ele>
        <time>2023-11-26T09:39:52Z</time>
      </trkpt>
      <trkpt lat="43.63158" lon="6.61826">
        <ele>655</ele>
        <time>2023-11-26T09:39:53Z</time>
      </trkpt>
      <trkpt lat="43.63158" lon="6.61825">
        <ele>655.2</ele>
        <time>2023-11-26T09:39:54Z</time>
      </trkpt>
      <trkpt lat="43.63157" lon="6.61824">
        <ele>655.2</ele>
        <time>2023-11-26T09:39:55Z</time>
      </trkpt>
      <trkpt lat="43.63156" lon="6.61822">
        <ele>655.4</ele>
        <time>2023-11-26T09:39:56Z</time>
      </trkpt>
      <trkpt lat="43.63156" lon="6.6182">
        <ele>655.5</ele>
        <time>2023-11-26T09:39:57Z</time>
      </trkpt>
      <trkpt lat="43.63155" lon="6.61819">
        <ele>655.6</ele>
        <time>2023-11-26T09:39:58Z</time>
      </trkpt>
      <trkpt lat="43.63155" lon="6.61818">
        <ele>655.8</ele>
        <time>2023-11-26T09:39:59Z</time>
      </trkpt>
      <trkpt lat="43.63154" lon="6.61816">
        <ele>656</ele>
        <time>2023-11-26T09:40:00Z</time>
      </trkpt>
      <trkpt lat="43.63154" lon="6.61815">
        <ele>656.1</ele>
        <time>2023-11-26T09:40:01Z</time>
      </trkpt>
      <trkpt lat="43.63154" lon="6.61813">
        <ele>656.3</ele>
        <time>2023-11-26T09:40:02Z</time>
      </trkpt>
      <trkpt lat="43.63154" lon="6.6181">
        <ele>656.4</ele>
        <time>2023-11-26T09:40:03Z</time>
      </trkpt>
      <trkpt lat="43.63154" lon="6.61809">
        <ele>656.5</ele>
        <time>2023-11-26T09:40:04Z</time>
      </trkpt>
      <trkpt lat="43.63153" lon="6.61807">
        <ele>656.6</ele>
        <time>2023-11-26T09:40:05Z</time>
      </trkpt>
      <trkpt lat="43.63153" lon="6.61806">
        <ele>656.7</ele>
        <time>2023-11-26T09:40:06Z</time>
      </trkpt>
      <trkpt lat="43.63152" lon="6.61804">
        <ele>656.8</ele>
        <time>2023-11-26T09:40:07Z</time>
      </trkpt>
      <trkpt lat="43.63152" lon="6.61803">
        <ele>656.9</ele>
        <time>2023-11-26T09:40:08Z</time>
      </trkpt>
      <trkpt lat="43.63152" lon="6.61801">
        <ele>657.1</ele>
        <time>2023-11-26T09:40:09Z</time>
      </trkpt>
      <trkpt lat="43.63152" lon="6.618">
        <ele>657.1</ele>
        <time>2023-11-26T09:40:10Z</time>
      </trkpt>
      <trkpt lat="43.63151" lon="6.61798">
        <ele>657.2</ele>
        <time>2023-11-26T09:40:11Z</time>
      </trkpt>
      <trkpt lat="43.63151" lon="6.61797">
        <ele>657.2</ele>
        <time>2023-11-26T09:40:12Z</time>
      </trkpt>
      <trkpt lat="43.6315" lon="6.61795">
        <ele>657.2</ele>
        <time>2023-11-26T09:40:13Z</time>
      </trkpt>
      <trkpt lat="43.63149" lon="6.61794">
        <ele>657.3</ele>
        <time>2023-11-26T09:40:14Z</time>
      </trkpt>
      <trkpt lat="43.63149" lon="6.61794">
        <ele>657.5</ele>
        <time>2023-11-26T09:40:15Z</time>
      </trkpt>
      <trkpt lat="43.63149" lon="6.61793">
        <ele>657.6</ele>
        <time>2023-11-26T09:40:16Z</time>
      </trkpt>
      <trkpt lat="43.63149" lon="6.61791">
        <ele>657.6</ele>
        <time>2023-11-26T09:40:17Z</time>
      </trkpt>
      <trkpt lat="43.63149" lon="6.6179">
        <ele>657.7</ele>
        <time>2023-11-26T09:40:18Z</time>
      </trkpt>
      <trkpt lat="43.63148" lon="6.61789">
        <ele>657.7</ele>
        <time>2023-11-26T09:40:19Z</time>
      </trkpt>
      <trkpt lat="43.63148" lon="6.61788">
        <ele>657.9</ele>
        <time>2023-11-26T09:40:20Z</time>
      </trkpt>
      <trkpt lat="43.63147" lon="6.61787">
        <ele>658</ele>
        <time>2023-11-26T09:40:21Z</time>
      </trkpt>
      <trkpt lat="43.63147" lon="6.61785">
        <ele>658.1</ele>
        <time>2023-11-26T09:40:22Z</time>
      </trkpt>
      <trkpt lat="43.63147" lon="6.61783">
        <ele>658.2</ele>
        <time>2023-11-26T09:40:23Z</time>
      </trkpt>
      <trkpt lat="43.63147" lon="6.61782">
        <ele>658.3</ele>
        <time>2023-11-26T09:40:24Z</time>
      </trkpt>
      <trkpt lat="43.63147" lon="6.6178">
        <ele>658.3</ele>
        <time>2023-11-26T09:40:25Z</time>
      </trkpt>
      <trkpt lat="43.63147" lon="6.61779">
        <ele>658.4</ele>
        <time>2023-11-26T09:40:26Z</time>
      </trkpt>
      <trkpt lat="43.63146" lon="6.61777">
        <ele>658.5</ele>
        <time>2023-11-26T09:40:27Z</time>
      </trkpt>
      <trkpt lat="43.63146" lon="6.61776">
        <ele>658.6</ele>
        <time>2023-11-26T09:40:28Z</time>
      </trkpt>
      <trkpt lat="43.63145" lon="6.61774">
        <ele>658.6</ele>
        <time>2023-11-26T09:40:29Z</time>
      </trkpt>
      <trkpt lat="43.63145" lon="6.61772">
        <ele>658.7</ele>
        <time>2023-11-26T09:40:30Z</time>
      </trkpt>
      <trkpt lat="43.63145" lon="6.6177">
        <ele>658.9</ele>
        <time>2023-11-26T09:40:31Z</time>
      </trkpt>
      <trkpt lat="43.63145" lon="6.61768">
        <ele>659</ele>
        <time>2023-11-26T09:40:32Z</time>
      </trkpt>
      <trkpt lat="43.63144" lon="6.61767">
        <ele>659.2</ele>
        <time>2023-11-26T09:40:33Z</time>
      </trkpt>
      <trkpt lat="43.63144" lon="6.61765">
        <ele>659.3</ele>
        <time>2023-11-26T09:40:34Z</time>
      </trkpt>
      <trkpt lat="43.63143" lon="6.61763">
        <ele>659.5</ele>
        <time>2023-11-26T09:40:35Z</time>
      </trkpt>
      <trkpt lat="43.63143" lon="6.61761">
        <ele>659.6</ele>
        <time>2023-11-26T09:40:36Z</time>
      </trkpt>
      <trkpt lat="43.63143" lon="6.61759">
        <ele>659.7</ele>
        <time>2023-11-26T09:40:37Z</time>
      </trkpt>
      <trkpt lat="43.63142" lon="6.61758">
        <ele>659.7</ele>
        <time>2023-11-26T09:40:38Z</time>
      </trkpt>
      <trkpt lat="43.63141" lon="6.61756">
        <ele>659.7</ele>
        <time>2023-11-26T09:40:39Z</time>
      </trkpt>
      <trkpt lat="43.63141" lon="6.61754">
        <ele>659.7</ele>
        <time>2023-11-26T09:40:40Z</time>
      </trkpt>
      <trkpt lat="43.6314" lon="6.61753">
        <ele>659.7</ele>
        <time>2023-11-26T09:40:41Z</time>
      </trkpt>
      <trkpt lat="43.63139" lon="6.61751">
        <ele>659.9</ele>
        <time>2023-11-26T09:40:42Z</time>
      </trkpt>
      <trkpt lat="43.63139" lon="6.6175">
        <ele>660</ele>
        <time>2023-11-26T09:40:43Z</time>
      </trkpt>
      <trkpt lat="43.63138" lon="6.61748">
        <ele>660.1</ele>
        <time>2023-11-26T09:40:44Z</time>
      </trkpt>
      <trkpt lat="43.63138" lon="6.61746">
        <ele>660.1</ele>
        <time>2023-11-26T09:40:45Z</time>
      </trkpt>
      <trkpt lat="43.63138" lon="6.61744">
        <ele>660.1</ele>
        <time>2023-11-26T09:40:46Z</time>
      </trkpt>
      <trkpt lat="43.63138" lon="6.61742">
        <ele>660.2</ele>
        <time>2023-11-26T09:40:47Z</time>
      </trkpt>
      <trkpt lat="43.63137" lon="6.61741">
        <ele>660.1</ele>
        <time>2023-11-26T09:40:48Z</time>
      </trkpt>
      <trkpt lat="43.63136" lon="6.61739">
        <ele>660.1</ele>
        <time>2023-11-26T09:40:49Z</time>
      </trkpt>
      <trkpt lat="43.63136" lon="6.61738">
        <ele>660.1</ele>
        <time>2023-11-26T09:40:50Z</time>
      </trkpt>
      <trkpt lat="43.63136" lon="6.61737">
        <ele>660.1</ele>
        <time>2023-11-26T09:40:51Z</time>
      </trkpt>
      <trkpt lat="43.63135" lon="6.61736">
        <ele>660</ele>
        <time>2023-11-26T09:40:52Z</time>
      </trkpt>
      <trkpt lat="43.63134" lon="6.61735">
        <ele>660.1</ele>
        <time>2023-11-26T09:40:53Z</time>
      </trkpt>
      <trkpt lat="43.63132" lon="6.61734">
        <ele>660.2</ele>
        <time>2023-11-26T09:40:54Z</time>
      </trkpt>
      <trkpt lat="43.63131" lon="6.61733">
        <ele>660.2</ele>
        <time>2023-11-26T09:40:55Z</time>
      </trkpt>
      <trkpt lat="43.6313" lon="6.61733">
        <ele>660.3</ele>
        <time>2023-11-26T09:40:56Z</time>
      </trkpt>
      <trkpt lat="43.63129" lon="6.61732">
        <ele>660.4</ele>
        <time>2023-11-26T09:40:57Z</time>
      </trkpt>
      <trkpt lat="43.63129" lon="6.61732">
        <ele>660.5</ele>
        <time>2023-11-26T09:40:58Z</time>
      </trkpt>
      <trkpt lat="43.63128" lon="6.61731">
        <ele>660.5</ele>
        <time>2023-11-26T09:40:59Z</time>
      </trkpt>
      <trkpt lat="43.63127" lon="6.6173">
        <ele>660.6</ele>
        <time>2023-11-26T09:41:00Z</time>
      </trkpt>
      <trkpt lat="43.63125" lon="6.61729">
        <ele>660.6</ele>
        <time>2023-11-26T09:41:01Z</time>
      </trkpt>
      <trkpt lat="43.63124" lon="6.61728">
        <ele>660.7</ele>
        <time>2023-11-26T09:41:02Z</time>
      </trkpt>
      <trkpt lat="43.63122" lon="6.61727">
        <ele>660.7</ele>
        <time>2023-11-26T09:41:03Z</time>
      </trkpt>
      <trkpt lat="43.63121" lon="6.61726">
        <ele>660.9</ele>
        <time>2023-11-26T09:41:04Z</time>
      </trkpt>
      <trkpt lat="43.6312" lon="6.61726">
        <ele>660.9</ele>
        <time>2023-11-26T09:41:05Z</time>
      </trkpt>
      <trkpt lat="43.63119" lon="6.61725">
        <ele>661</ele>
        <time>2023-11-26T09:41:06Z</time>
      </trkpt>
      <trkpt lat="43.63118" lon="6.61723">
        <ele>660.9</ele>
        <time>2023-11-26T09:41:07Z</time>
      </trkpt>
      <trkpt lat="43.63118" lon="6.61721">
        <ele>660.9</ele>
        <time>2023-11-26T09:41:08Z</time>
      </trkpt>
      <trkpt lat="43.63117" lon="6.6172">
        <ele>660.8</ele>
        <time>2023-11-26T09:41:09Z</time>
      </trkpt>
      <trkpt lat="43.63116" lon="6.61719">
        <ele>660.8</ele>
        <time>2023-11-26T09:41:10Z</time>
      </trkpt>
      <trkpt lat="43.63115" lon="6.61718">
        <ele>660.8</ele>
        <time>2023-11-26T09:41:11Z</time>
      </trkpt>
      <trkpt lat="43.63115" lon="6.61716">
        <ele>660.8</ele>
        <time>2023-11-26T09:41:12Z</time>
      </trkpt>
      <trkpt lat="43.63113" lon="6.61715">
        <ele>660.8</ele>
        <time>2023-11-26T09:41:13Z</time>
      </trkpt>
      <trkpt lat="43.63113" lon="6.61713">
        <ele>660.8</ele>
        <time>2023-11-26T09:41:14Z</time>
      </trkpt>
      <trkpt lat="43.63113" lon="6.61712">
        <ele>660.7</ele>
        <time>2023-11-26T09:41:15Z</time>
      </trkpt>
      <trkpt lat="43.63113" lon="6.61712">
        <ele>660.7</ele>
        <time>2023-11-26T09:41:16Z</time>
      </trkpt>
      <trkpt lat="43.63112" lon="6.61711">
        <ele>660.7</ele>
        <time>2023-11-26T09:41:17Z</time>
      </trkpt>
      <trkpt lat="43.6311" lon="6.61711">
        <ele>660.6</ele>
        <time>2023-11-26T09:41:18Z</time>
      </trkpt>
      <trkpt lat="43.63109" lon="6.6171">
        <ele>660.5</ele>
        <time>2023-11-26T09:41:19Z</time>
      </trkpt>
      <trkpt lat="43.63108" lon="6.6171">
        <ele>660.4</ele>
        <time>2023-11-26T09:41:20Z</time>
      </trkpt>
      <trkpt lat="43.63106" lon="6.61709">
        <ele>660.4</ele>
        <time>2023-11-26T09:41:21Z</time>
      </trkpt>
      <trkpt lat="43.63104" lon="6.61709">
        <ele>660.3</ele>
        <time>2023-11-26T09:41:22Z</time>
      </trkpt>
      <trkpt lat="43.63103" lon="6.61709">
        <ele>660.2</ele>
        <time>2023-11-26T09:41:23Z</time>
      </trkpt>
      <trkpt lat="43.63102" lon="6.61708">
        <ele>660.1</ele>
        <time>2023-11-26T09:41:24Z</time>
      </trkpt>
      <trkpt lat="43.63101" lon="6.61707">
        <ele>660</ele>
        <time>2023-11-26T09:41:25Z</time>
      </trkpt>
      <trkpt lat="43.631" lon="6.61707">
        <ele>659.8</ele>
        <time>2023-11-26T09:41:26Z</time>
      </trkpt>
      <trkpt lat="43.631" lon="6.61706">
        <ele>659.7</ele>
        <time>2023-11-26T09:41:27Z</time>
      </trkpt>
      <trkpt lat="43.63099" lon="6.61706">
        <ele>659.5</ele>
        <time>2023-11-26T09:41:28Z</time>
      </trkpt>
      <trkpt lat="43.63098" lon="6.61705">
        <ele>659.4</ele>
        <time>2023-11-26T09:41:29Z</time>
      </trkpt>
      <trkpt lat="43.63098" lon="6.61704">
        <ele>659.4</ele>
        <time>2023-11-26T09:41:30Z</time>
      </trkpt>
      <trkpt lat="43.63097" lon="6.61704">
        <ele>659.3</ele>
        <time>2023-11-26T09:41:31Z</time>
      </trkpt>
      <trkpt lat="43.63095" lon="6.61703">
        <ele>659.1</ele>
        <time>2023-11-26T09:41:32Z</time>
      </trkpt>
      <trkpt lat="43.63094" lon="6.61702">
        <ele>659</ele>
        <time>2023-11-26T09:41:33Z</time>
      </trkpt>
      <trkpt lat="43.63092" lon="6.61702">
        <ele>658.9</ele>
        <time>2023-11-26T09:41:34Z</time>
      </trkpt>
      <trkpt lat="43.63091" lon="6.61701">
        <ele>658.8</ele>
        <time>2023-11-26T09:41:35Z</time>
      </trkpt>
      <trkpt lat="43.6309" lon="6.61699">
        <ele>658.8</ele>
        <time>2023-11-26T09:41:36Z</time>
      </trkpt>
      <trkpt lat="43.63089" lon="6.61698">
        <ele>658.7</ele>
        <time>2023-11-26T09:41:37Z</time>
      </trkpt>
      <trkpt lat="43.63088" lon="6.61697">
        <ele>658.6</ele>
        <time>2023-11-26T09:41:38Z</time>
      </trkpt>
      <trkpt lat="43.63087" lon="6.61696">
        <ele>658.5</ele>
        <time>2023-11-26T09:41:39Z</time>
      </trkpt>
      <trkpt lat="43.63086" lon="6.61696">
        <ele>658.4</ele>
        <time>2023-11-26T09:41:40Z</time>
      </trkpt>
      <trkpt lat="43.63085" lon="6.61696">
        <ele>658.3</ele>
        <time>2023-11-26T09:41:41Z</time>
      </trkpt>
      <trkpt lat="43.63083" lon="6.61695">
        <ele>658.3</ele>
        <time>2023-11-26T09:41:42Z</time>
      </trkpt>
      <trkpt lat="43.63082" lon="6.61694">
        <ele>658.2</ele>
        <time>2023-11-26T09:41:43Z</time>
      </trkpt>
      <trkpt lat="43.63081" lon="6.61694">
        <ele>658.1</ele>
        <time>2023-11-26T09:41:44Z</time>
      </trkpt>
      <trkpt lat="43.6308" lon="6.61693">
        <ele>658</ele>
        <time>2023-11-26T09:41:45Z</time>
      </trkpt>
      <trkpt lat="43.63079" lon="6.61693">
        <ele>657.9</ele>
        <time>2023-11-26T09:41:46Z</time>
      </trkpt>
      <trkpt lat="43.63078" lon="6.61692">
        <ele>657.7</ele>
        <time>2023-11-26T09:41:47Z</time>
      </trkpt>
      <trkpt lat="43.63077" lon="6.61691">
        <ele>657.6</ele>
        <time>2023-11-26T09:41:48Z</time>
      </trkpt>
      <trkpt lat="43.63076" lon="6.6169">
        <ele>657.5</ele>
        <time>2023-11-26T09:41:49Z</time>
      </trkpt>
      <trkpt lat="43.63074" lon="6.61688">
        <ele>657.3</ele>
        <time>2023-11-26T09:41:50Z</time>
      </trkpt>
      <trkpt lat="43.63073" lon="6.61687">
        <ele>657.2</ele>
        <time>2023-11-26T09:41:51Z</time>
      </trkpt>
      <trkpt lat="43.63072" lon="6.61686">
        <ele>657.1</ele>
        <time>2023-11-26T09:41:52Z</time>
      </trkpt>
      <trkpt lat="43.63071" lon="6.61684">
        <ele>656.9</ele>
        <time>2023-11-26T09:41:53Z</time>
      </trkpt>
      <trkpt lat="43.63071" lon="6.61683">
        <ele>656.8</ele>
        <time>2023-11-26T09:41:54Z</time>
      </trkpt>
      <trkpt lat="43.63069" lon="6.61682">
        <ele>656.6</ele>
        <time>2023-11-26T09:41:55Z</time>
      </trkpt>
      <trkpt lat="43.63069" lon="6.6168">
        <ele>656.4</ele>
        <time>2023-11-26T09:41:56Z</time>
      </trkpt>
      <trkpt lat="43.63068" lon="6.61678">
        <ele>656.3</ele>
        <time>2023-11-26T09:41:57Z</time>
      </trkpt>
      <trkpt lat="43.63068" lon="6.61677">
        <ele>656.1</ele>
        <time>2023-11-26T09:41:58Z</time>
      </trkpt>
      <trkpt lat="43.63067" lon="6.61675">
        <ele>655.8</ele>
        <time>2023-11-26T09:41:59Z</time>
      </trkpt>
      <trkpt lat="43.63066" lon="6.61673">
        <ele>655.7</ele>
        <time>2023-11-26T09:42:00Z</time>
      </trkpt>
      <trkpt lat="43.63065" lon="6.61671">
        <ele>655.6</ele>
        <time>2023-11-26T09:42:01Z</time>
      </trkpt>
      <trkpt lat="43.63064" lon="6.6167">
        <ele>655.4</ele>
        <time>2023-11-26T09:42:02Z</time>
      </trkpt>
      <trkpt lat="43.63063" lon="6.61669">
        <ele>655.1</ele>
        <time>2023-11-26T09:42:03Z</time>
      </trkpt>
      <trkpt lat="43.63062" lon="6.61668">
        <ele>654</ele>
        <time>2023-11-26T09:42:04Z</time>
      </trkpt>
      <trkpt lat="43.63062" lon="6.61667">
        <ele>654.1</ele>
        <time>2023-11-26T09:42:05Z</time>
      </trkpt>
      <trkpt lat="43.63061" lon="6.61666">
        <ele>654.2</ele>
        <time>2023-11-26T09:42:06Z</time>
      </trkpt>
      <trkpt lat="43.63059" lon="6.61665">
        <ele>654.3</ele>
        <time>2023-11-26T09:42:07Z</time>
      </trkpt>
      <trkpt lat="43.63059" lon="6.61663">
        <ele>653.9</ele>
        <time>2023-11-26T09:42:08Z</time>
      </trkpt>
      <trkpt lat="43.63057" lon="6.61662">
        <ele>654.2</ele>
        <time>2023-11-26T09:42:09Z</time>
      </trkpt>
      <trkpt lat="43.63056" lon="6.6166">
        <ele>654.2</ele>
        <time>2023-11-26T09:42:10Z</time>
      </trkpt>
      <trkpt lat="43.63055" lon="6.6166">
        <ele>654.4</ele>
        <time>2023-11-26T09:42:11Z</time>
      </trkpt>
      <trkpt lat="43.63053" lon="6.61659">
        <ele>654.5</ele>
        <time>2023-11-26T09:42:12Z</time>
      </trkpt>
      <trkpt lat="43.63052" lon="6.61657">
        <ele>654.6</ele>
        <time>2023-11-26T09:42:13Z</time>
      </trkpt>
      <trkpt lat="43.63051" lon="6.61657">
        <ele>654</ele>
        <time>2023-11-26T09:42:14Z</time>
      </trkpt>
      <trkpt lat="43.63051" lon="6.61655">
        <ele>653.5</ele>
        <time>2023-11-26T09:42:15Z</time>
      </trkpt>
      <trkpt lat="43.63049" lon="6.61655">
        <ele>653.7</ele>
        <time>2023-11-26T09:42:16Z</time>
      </trkpt>
      <trkpt lat="43.63049" lon="6.61653">
        <ele>653.8</ele>
        <time>2023-11-26T09:42:17Z</time>
      </trkpt>
      <trkpt lat="43.63048" lon="6.61652">
        <ele>653.9</ele>
        <time>2023-11-26T09:42:18Z</time>
      </trkpt>
      <trkpt lat="43.63048" lon="6.61651">
        <ele>653.9</ele>
        <time>2023-11-26T09:42:19Z</time>
      </trkpt>
      <trkpt lat="43.63047" lon="6.61649">
        <ele>654</ele>
        <time>2023-11-26T09:42:20Z</time>
      </trkpt>
      <trkpt lat="43.63046" lon="6.61647">
        <ele>654</ele>
        <time>2023-11-26T09:42:21Z</time>
      </trkpt>
      <trkpt lat="43.63046" lon="6.61645">
        <ele>654.1</ele>
        <time>2023-11-26T09:42:22Z</time>
      </trkpt>
      <trkpt lat="43.63046" lon="6.61643">
        <ele>654</ele>
        <time>2023-11-26T09:42:23Z</time>
      </trkpt>
      <trkpt lat="43.63045" lon="6.61642">
        <ele>654.1</ele>
        <time>2023-11-26T09:42:24Z</time>
      </trkpt>
      <trkpt lat="43.63045" lon="6.61639">
        <ele>654</ele>
        <time>2023-11-26T09:42:25Z</time>
      </trkpt>
      <trkpt lat="43.63043" lon="6.61638">
        <ele>654</ele>
        <time>2023-11-26T09:42:26Z</time>
      </trkpt>
      <trkpt lat="43.63043" lon="6.61637">
        <ele>653.9</ele>
        <time>2023-11-26T09:42:27Z</time>
      </trkpt>
      <trkpt lat="43.63044" lon="6.61635">
        <ele>653.8</ele>
        <time>2023-11-26T09:42:28Z</time>
      </trkpt>
      <trkpt lat="43.63044" lon="6.61633">
        <ele>653.6</ele>
        <time>2023-11-26T09:42:29Z</time>
      </trkpt>
      <trkpt lat="43.63043" lon="6.61632">
        <ele>653.5</ele>
        <time>2023-11-26T09:42:30Z</time>
      </trkpt>
      <trkpt lat="43.63042" lon="6.61631">
        <ele>653.4</ele>
        <time>2023-11-26T09:42:31Z</time>
      </trkpt>
      <trkpt lat="43.63043" lon="6.61629">
        <ele>653.2</ele>
        <time>2023-11-26T09:42:32Z</time>
      </trkpt>
      <trkpt lat="43.63042" lon="6.61627">
        <ele>653.1</ele>
        <time>2023-11-26T09:42:33Z</time>
      </trkpt>
      <trkpt lat="43.63041" lon="6.61626">
        <ele>653</ele>
        <time>2023-11-26T09:42:34Z</time>
      </trkpt>
      <trkpt lat="43.63041" lon="6.61624">
        <ele>653</ele>
        <time>2023-11-26T09:42:35Z</time>
      </trkpt>
      <trkpt lat="43.63041" lon="6.61623">
        <ele>652.8</ele>
        <time>2023-11-26T09:42:36Z</time>
      </trkpt>
      <trkpt lat="43.63041" lon="6.6162">
        <ele>652.7</ele>
        <time>2023-11-26T09:42:37Z</time>
      </trkpt>
      <trkpt lat="43.63041" lon="6.61619">
        <ele>652.6</ele>
        <time>2023-11-26T09:42:38Z</time>
      </trkpt>
      <trkpt lat="43.63041" lon="6.61617">
        <ele>652.5</ele>
        <time>2023-11-26T09:42:39Z</time>
      </trkpt>
      <trkpt lat="43.63039" lon="6.61617">
        <ele>652.3</ele>
        <time>2023-11-26T09:42:40Z</time>
      </trkpt>
      <trkpt lat="43.63039" lon="6.61615">
        <ele>652.2</ele>
        <time>2023-11-26T09:42:41Z</time>
      </trkpt>
      <trkpt lat="43.63038" lon="6.61613">
        <ele>652.1</ele>
        <time>2023-11-26T09:42:42Z</time>
      </trkpt>
      <trkpt lat="43.63037" lon="6.6161">
        <ele>651.9</ele>
        <time>2023-11-26T09:42:43Z</time>
      </trkpt>
      <trkpt lat="43.63036" lon="6.61609">
        <ele>651.5</ele>
        <time>2023-11-26T09:42:44Z</time>
      </trkpt>
      <trkpt lat="43.63035" lon="6.61607">
        <ele>651.4</ele>
        <time>2023-11-26T09:42:45Z</time>
      </trkpt>
      <trkpt lat="43.63034" lon="6.61605">
        <ele>651.3</ele>
        <time>2023-11-26T09:42:46Z</time>
      </trkpt>
      <trkpt lat="43.63034" lon="6.61603">
        <ele>651.2</ele>
        <time>2023-11-26T09:42:47Z</time>
      </trkpt>
      <trkpt lat="43.63033" lon="6.61601">
        <ele>651.1</ele>
        <time>2023-11-26T09:42:48Z</time>
      </trkpt>
      <trkpt lat="43.63034" lon="6.616">
        <ele>651</ele>
        <time>2023-11-26T09:42:49Z</time>
      </trkpt>
      <trkpt lat="43.63033" lon="6.61599">
        <ele>651</ele>
        <time>2023-11-26T09:42:50Z</time>
      </trkpt>
      <trkpt lat="43.63034" lon="6.61597">
        <ele>650.8</ele>
        <time>2023-11-26T09:42:51Z</time>
      </trkpt>
      <trkpt lat="43.63033" lon="6.61596">
        <ele>650.6</ele>
        <time>2023-11-26T09:42:52Z</time>
      </trkpt>
      <trkpt lat="43.63033" lon="6.61593">
        <ele>650.5</ele>
        <time>2023-11-26T09:42:53Z</time>
      </trkpt>
      <trkpt lat="43.63033" lon="6.61591">
        <ele>650.4</ele>
        <time>2023-11-26T09:42:54Z</time>
      </trkpt>
      <trkpt lat="43.63034" lon="6.61587">
        <ele>650.3</ele>
        <time>2023-11-26T09:42:55Z</time>
      </trkpt>
      <trkpt lat="43.63034" lon="6.61585">
        <ele>650.3</ele>
        <time>2023-11-26T09:42:56Z</time>
      </trkpt>
      <trkpt lat="43.63033" lon="6.61584">
        <ele>650.3</ele>
        <time>2023-11-26T09:42:57Z</time>
      </trkpt>
      <trkpt lat="43.63033" lon="6.61581">
        <ele>650.2</ele>
        <time>2023-11-26T09:42:58Z</time>
      </trkpt>
      <trkpt lat="43.63032" lon="6.6158">
        <ele>650.2</ele>
        <time>2023-11-26T09:42:59Z</time>
      </trkpt>
      <trkpt lat="43.63033" lon="6.61579">
        <ele>650.1</ele>
        <time>2023-11-26T09:43:00Z</time>
      </trkpt>
      <trkpt lat="43.63033" lon="6.61578">
        <ele>650</ele>
        <time>2023-11-26T09:43:01Z</time>
      </trkpt>
      <trkpt lat="43.63032" lon="6.61577">
        <ele>650</ele>
        <time>2023-11-26T09:43:02Z</time>
      </trkpt>
      <trkpt lat="43.63031" lon="6.61575">
        <ele>650.1</ele>
        <time>2023-11-26T09:43:03Z</time>
      </trkpt>
      <trkpt lat="43.63031" lon="6.61572">
        <ele>650</ele>
        <time>2023-11-26T09:43:04Z</time>
      </trkpt>
      <trkpt lat="43.63031" lon="6.6157">
        <ele>649.9</ele>
        <time>2023-11-26T09:43:05Z</time>
      </trkpt>
      <trkpt lat="43.6303" lon="6.61568">
        <ele>649.8</ele>
        <time>2023-11-26T09:43:06Z</time>
      </trkpt>
      <trkpt lat="43.6303" lon="6.61567">
        <ele>649.8</ele>
        <time>2023-11-26T09:43:07Z</time>
      </trkpt>
      <trkpt lat="43.6303" lon="6.61565">
        <ele>649.7</ele>
        <time>2023-11-26T09:43:08Z</time>
      </trkpt>
      <trkpt lat="43.6303" lon="6.61563">
        <ele>649.7</ele>
        <time>2023-11-26T09:43:09Z</time>
      </trkpt>
      <trkpt lat="43.63029" lon="6.61562">
        <ele>649.7</ele>
        <time>2023-11-26T09:43:10Z</time>
      </trkpt>
      <trkpt lat="43.63029" lon="6.61559">
        <ele>649.8</ele>
        <time>2023-11-26T09:43:11Z</time>
      </trkpt>
      <trkpt lat="43.63029" lon="6.61558">
        <ele>649.8</ele>
        <time>2023-11-26T09:43:12Z</time>
      </trkpt>
      <trkpt lat="43.63029" lon="6.61557">
        <ele>649.7</ele>
        <time>2023-11-26T09:43:13Z</time>
      </trkpt>
      <trkpt lat="43.63029" lon="6.61556">
        <ele>649.7</ele>
        <time>2023-11-26T09:43:14Z</time>
      </trkpt>
      <trkpt lat="43.63028" lon="6.61554">
        <ele>649.7</ele>
        <time>2023-11-26T09:43:15Z</time>
      </trkpt>
      <trkpt lat="43.63028" lon="6.61553">
        <ele>649.7</ele>
        <time>2023-11-26T09:43:16Z</time>
      </trkpt>
      <trkpt lat="43.63028" lon="6.61552">
        <ele>649.6</ele>
        <time>2023-11-26T09:43:17Z</time>
      </trkpt>
      <trkpt lat="43.63028" lon="6.6155">
        <ele>649.5</ele>
        <time>2023-11-26T09:43:18Z</time>
      </trkpt>
      <trkpt lat="43.63029" lon="6.61549">
        <ele>649.5</ele>
        <time>2023-11-26T09:43:19Z</time>
      </trkpt>
      <trkpt lat="43.63028" lon="6.61548">
        <ele>649.6</ele>
        <time>2023-11-26T09:43:20Z</time>
      </trkpt>
      <trkpt lat="43.63028" lon="6.61546">
        <ele>649.5</ele>
        <time>2023-11-26T09:43:21Z</time>
      </trkpt>
      <trkpt lat="43.63028" lon="6.61544">
        <ele>649.5</ele>
        <time>2023-11-26T09:43:22Z</time>
      </trkpt>
      <trkpt lat="43.63028" lon="6.61541">
        <ele>649.5</ele>
        <time>2023-11-26T09:43:23Z</time>
      </trkpt>
      <trkpt lat="43.63028" lon="6.6154">
        <ele>649.4</ele>
        <time>2023-11-26T09:43:24Z</time>
      </trkpt>
      <trkpt lat="43.63027" lon="6.61538">
        <ele>649.4</ele>
        <time>2023-11-26T09:43:25Z</time>
      </trkpt>
      <trkpt lat="43.63027" lon="6.61537">
        <ele>649.3</ele>
        <time>2023-11-26T09:43:26Z</time>
      </trkpt>
      <trkpt lat="43.63026" lon="6.61536">
        <ele>649.2</ele>
        <time>2023-11-26T09:43:27Z</time>
      </trkpt>
      <trkpt lat="43.63027" lon="6.61535">
        <ele>649.2</ele>
        <time>2023-11-26T09:43:28Z</time>
      </trkpt>
      <trkpt lat="43.63027" lon="6.61534">
        <ele>649.2</ele>
        <time>2023-11-26T09:43:29Z</time>
      </trkpt>
      <trkpt lat="43.63027" lon="6.61534">
        <ele>649.2</ele>
        <time>2023-11-26T09:43:30Z</time>
      </trkpt>
      <trkpt lat="43.63027" lon="6.61533">
        <ele>649.1</ele>
        <time>2023-11-26T09:43:31Z</time>
      </trkpt>
      <trkpt lat="43.63027" lon="6.61534">
        <ele>649.2</ele>
        <time>2023-11-26T09:43:32Z</time>
      </trkpt>
      <trkpt lat="43.63026" lon="6.61533">
        <ele>649.3</ele>
        <time>2023-11-26T09:43:33Z</time>
      </trkpt>
      <trkpt lat="43.63025" lon="6.61532">
        <ele>649.3</ele>
        <time>2023-11-26T09:43:34Z</time>
      </trkpt>
      <trkpt lat="43.63024" lon="6.61531">
        <ele>649.4</ele>
        <time>2023-11-26T09:43:35Z</time>
      </trkpt>
      <trkpt lat="43.63022" lon="6.6153">
        <ele>649.4</ele>
        <time>2023-11-26T09:43:36Z</time>
      </trkpt>
      <trkpt lat="43.63022" lon="6.61529">
        <ele>649.5</ele>
        <time>2023-11-26T09:43:37Z</time>
      </trkpt>
      <trkpt lat="43.63021" lon="6.61527">
        <ele>649.5</ele>
        <time>2023-11-26T09:43:38Z</time>
      </trkpt>
      <trkpt lat="43.6302" lon="6.61526">
        <ele>649.4</ele>
        <time>2023-11-26T09:43:39Z</time>
      </trkpt>
      <trkpt lat="43.6302" lon="6.61523">
        <ele>649.4</ele>
        <time>2023-11-26T09:43:40Z</time>
      </trkpt>
      <trkpt lat="43.63019" lon="6.61522">
        <ele>649.3</ele>
        <time>2023-11-26T09:43:41Z</time>
      </trkpt>
      <trkpt lat="43.63018" lon="6.61522">
        <ele>649.4</ele>
        <time>2023-11-26T09:43:42Z</time>
      </trkpt>
      <trkpt lat="43.63018" lon="6.6152">
        <ele>649.5</ele>
        <time>2023-11-26T09:43:43Z</time>
      </trkpt>
      <trkpt lat="43.63017" lon="6.61518">
        <ele>649.5</ele>
        <time>2023-11-26T09:43:44Z</time>
      </trkpt>
      <trkpt lat="43.63017" lon="6.61516">
        <ele>649.5</ele>
        <time>2023-11-26T09:43:45Z</time>
      </trkpt>
      <trkpt lat="43.63016" lon="6.61514">
        <ele>649.6</ele>
        <time>2023-11-26T09:43:46Z</time>
      </trkpt>
      <trkpt lat="43.63015" lon="6.61513">
        <ele>649.6</ele>
        <time>2023-11-26T09:43:47Z</time>
      </trkpt>
      <trkpt lat="43.63014" lon="6.61512">
        <ele>649.7</ele>
        <time>2023-11-26T09:43:48Z</time>
      </trkpt>
      <trkpt lat="43.63013" lon="6.61511">
        <ele>649.7</ele>
        <time>2023-11-26T09:43:49Z</time>
      </trkpt>
      <trkpt lat="43.63012" lon="6.61509">
        <ele>649.7</ele>
        <time>2023-11-26T09:43:50Z</time>
      </trkpt>
      <trkpt lat="43.63012" lon="6.61508">
        <ele>649.7</ele>
        <time>2023-11-26T09:43:51Z</time>
      </trkpt>
      <trkpt lat="43.63012" lon="6.61505">
        <ele>649.7</ele>
        <time>2023-11-26T09:43:52Z</time>
      </trkpt>
      <trkpt lat="43.63012" lon="6.61504">
        <ele>649.7</ele>
        <time>2023-11-26T09:43:53Z</time>
      </trkpt>
      <trkpt lat="43.6301" lon="6.61503">
        <ele>649.9</ele>
        <time>2023-11-26T09:43:54Z</time>
      </trkpt>
      <trkpt lat="43.63009" lon="6.61502">
        <ele>650</ele>
        <time>2023-11-26T09:43:55Z</time>
      </trkpt>
      <trkpt lat="43.63009" lon="6.61502">
        <ele>650</ele>
        <time>2023-11-26T09:43:56Z</time>
      </trkpt>
      <trkpt lat="43.63009" lon="6.61499">
        <ele>650.2</ele>
        <time>2023-11-26T09:43:57Z</time>
      </trkpt>
      <trkpt lat="43.63009" lon="6.61497">
        <ele>650.3</ele>
        <time>2023-11-26T09:43:58Z</time>
      </trkpt>
      <trkpt lat="43.63009" lon="6.61496">
        <ele>650.4</ele>
        <time>2023-11-26T09:43:59Z</time>
      </trkpt>
      <trkpt lat="43.63008" lon="6.61494">
        <ele>650.5</ele>
        <time>2023-11-26T09:44:00Z</time>
      </trkpt>
      <trkpt lat="43.63008" lon="6.61492">
        <ele>650.7</ele>
        <time>2023-11-26T09:44:01Z</time>
      </trkpt>
      <trkpt lat="43.63008" lon="6.61491">
        <ele>650.9</ele>
        <time>2023-11-26T09:44:02Z</time>
      </trkpt>
      <trkpt lat="43.63007" lon="6.6149">
        <ele>651.1</ele>
        <time>2023-11-26T09:44:03Z</time>
      </trkpt>
      <trkpt lat="43.63008" lon="6.61488">
        <ele>651.3</ele>
        <time>2023-11-26T09:44:04Z</time>
      </trkpt>
      <trkpt lat="43.63008" lon="6.61486">
        <ele>651.4</ele>
        <time>2023-11-26T09:44:05Z</time>
      </trkpt>
      <trkpt lat="43.63007" lon="6.61485">
        <ele>651.5</ele>
        <time>2023-11-26T09:44:06Z</time>
      </trkpt>
      <trkpt lat="43.63007" lon="6.61483">
        <ele>651.6</ele>
        <time>2023-11-26T09:44:07Z</time>
      </trkpt>
      <trkpt lat="43.63007" lon="6.61483">
        <ele>651.6</ele>
        <time>2023-11-26T09:44:08Z</time>
      </trkpt>
      <trkpt lat="43.63006" lon="6.61483">
        <ele>651.7</ele>
        <time>2023-11-26T09:44:09Z</time>
      </trkpt>
      <trkpt lat="43.63005" lon="6.61482">
        <ele>651.7</ele>
        <time>2023-11-26T09:44:10Z</time>
      </trkpt>
      <trkpt lat="43.63004" lon="6.61481">
        <ele>651.7</ele>
        <time>2023-11-26T09:44:11Z</time>
      </trkpt>
      <trkpt lat="43.63004" lon="6.61479">
        <ele>651.7</ele>
        <time>2023-11-26T09:44:12Z</time>
      </trkpt>
      <trkpt lat="43.63005" lon="6.61477">
        <ele>651.7</ele>
        <time>2023-11-26T09:44:13Z</time>
      </trkpt>
      <trkpt lat="43.63005" lon="6.61476">
        <ele>651.7</ele>
        <time>2023-11-26T09:44:14Z</time>
      </trkpt>
      <trkpt lat="43.63005" lon="6.61474">
        <ele>651.7</ele>
        <time>2023-11-26T09:44:15Z</time>
      </trkpt>
      <trkpt lat="43.63004" lon="6.61473">
        <ele>651.8</ele>
        <time>2023-11-26T09:44:16Z</time>
      </trkpt>
      <trkpt lat="43.63004" lon="6.61471">
        <ele>651.8</ele>
        <time>2023-11-26T09:44:17Z</time>
      </trkpt>
      <trkpt lat="43.63004" lon="6.61469">
        <ele>651.9</ele>
        <time>2023-11-26T09:44:18Z</time>
      </trkpt>
      <trkpt lat="43.63003" lon="6.61468">
        <ele>651.9</ele>
        <time>2023-11-26T09:44:19Z</time>
      </trkpt>
      <trkpt lat="43.63003" lon="6.61466">
        <ele>651.9</ele>
        <time>2023-11-26T09:44:20Z</time>
      </trkpt>
      <trkpt lat="43.63002" lon="6.61465">
        <ele>651.9</ele>
        <time>2023-11-26T09:44:21Z</time>
      </trkpt>
      <trkpt lat="43.63002" lon="6.61463">
        <ele>651.9</ele>
        <time>2023-11-26T09:44:22Z</time>
      </trkpt>
      <trkpt lat="43.63002" lon="6.61463">
        <ele>651.8</ele>
        <time>2023-11-26T09:44:23Z</time>
      </trkpt>
      <trkpt lat="43.63002" lon="6.61461">
        <ele>651.9</ele>
        <time>2023-11-26T09:44:24Z</time>
      </trkpt>
      <trkpt lat="43.63002" lon="6.61459">
        <ele>652</ele>
        <time>2023-11-26T09:44:25Z</time>
      </trkpt>
      <trkpt lat="43.63002" lon="6.61458">
        <ele>652</ele>
        <time>2023-11-26T09:44:26Z</time>
      </trkpt>
      <trkpt lat="43.63002" lon="6.61457">
        <ele>652</ele>
        <time>2023-11-26T09:44:27Z</time>
      </trkpt>
      <trkpt lat="43.63002" lon="6.61455">
        <ele>652</ele>
        <time>2023-11-26T09:44:28Z</time>
      </trkpt>
      <trkpt lat="43.63002" lon="6.61452">
        <ele>652</ele>
        <time>2023-11-26T09:44:29Z</time>
      </trkpt>
      <trkpt lat="43.63002" lon="6.6145">
        <ele>651.9</ele>
        <time>2023-11-26T09:44:30Z</time>
      </trkpt>
      <trkpt lat="43.63003" lon="6.61448">
        <ele>651.9</ele>
        <time>2023-11-26T09:44:31Z</time>
      </trkpt>
      <trkpt lat="43.63002" lon="6.61446">
        <ele>651.9</ele>
        <time>2023-11-26T09:44:32Z</time>
      </trkpt>
      <trkpt lat="43.63001" lon="6.61445">
        <ele>651.8</ele>
        <time>2023-11-26T09:44:33Z</time>
      </trkpt>
      <trkpt lat="43.63002" lon="6.61444">
        <ele>651.9</ele>
        <time>2023-11-26T09:44:34Z</time>
      </trkpt>
      <trkpt lat="43.63001" lon="6.61443">
        <ele>652</ele>
        <time>2023-11-26T09:44:35Z</time>
      </trkpt>
      <trkpt lat="43.63001" lon="6.61441">
        <ele>652.2</ele>
        <time>2023-11-26T09:44:36Z</time>
      </trkpt>
      <trkpt lat="43.63001" lon="6.6144">
        <ele>652.2</ele>
        <time>2023-11-26T09:44:37Z</time>
      </trkpt>
      <trkpt lat="43.63002" lon="6.61439">
        <ele>652.3</ele>
        <time>2023-11-26T09:44:38Z</time>
      </trkpt>
      <trkpt lat="43.63003" lon="6.61436">
        <ele>652.4</ele>
        <time>2023-11-26T09:44:39Z</time>
      </trkpt>
      <trkpt lat="43.63002" lon="6.61434">
        <ele>652.3</ele>
        <time>2023-11-26T09:44:40Z</time>
      </trkpt>
      <trkpt lat="43.63003" lon="6.61433">
        <ele>652.2</ele>
        <time>2023-11-26T09:44:41Z</time>
      </trkpt>
      <trkpt lat="43.63003" lon="6.61431">
        <ele>652.3</ele>
        <time>2023-11-26T09:44:42Z</time>
      </trkpt>
      <trkpt lat="43.63003" lon="6.61429">
        <ele>652.3</ele>
        <time>2023-11-26T09:44:43Z</time>
      </trkpt>
      <trkpt lat="43.63002" lon="6.61428">
        <ele>652.3</ele>
        <time>2023-11-26T09:44:44Z</time>
      </trkpt>
      <trkpt lat="43.63002" lon="6.61426">
        <ele>652.3</ele>
        <time>2023-11-26T09:44:45Z</time>
      </trkpt>
      <trkpt lat="43.63002" lon="6.61424">
        <ele>652.4</ele>
        <time>2023-11-26T09:44:46Z</time>
      </trkpt>
      <trkpt lat="43.63003" lon="6.61422">
        <ele>652.5</ele>
        <time>2023-11-26T09:44:47Z</time>
      </trkpt>
      <trkpt lat="43.63003" lon="6.61421">
        <ele>652.4</ele>
        <time>2023-11-26T09:44:48Z</time>
      </trkpt>
      <trkpt lat="43.63003" lon="6.61419">
        <ele>652.4</ele>
        <time>2023-11-26T09:44:49Z</time>
      </trkpt>
      <trkpt lat="43.63003" lon="6.61417">
        <ele>652.3</ele>
        <time>2023-11-26T09:44:50Z</time>
      </trkpt>
      <trkpt lat="43.63003" lon="6.61415">
        <ele>652.3</ele>
        <time>2023-11-26T09:44:51Z</time>
      </trkpt>
      <trkpt lat="43.63003" lon="6.61413">
        <ele>652.3</ele>
        <time>2023-11-26T09:44:52Z</time>
      </trkpt>
      <trkpt lat="43.63003" lon="6.61411">
        <ele>652.3</ele>
        <time>2023-11-26T09:44:53Z</time>
      </trkpt>
      <trkpt lat="43.63002" lon="6.61409">
        <ele>652.4</ele>
        <time>2023-11-26T09:44:54Z</time>
      </trkpt>
      <trkpt lat="43.63003" lon="6.61407">
        <ele>652.4</ele>
        <time>2023-11-26T09:44:55Z</time>
      </trkpt>
      <trkpt lat="43.63003" lon="6.61405">
        <ele>652.4</ele>
        <time>2023-11-26T09:44:56Z</time>
      </trkpt>
      <trkpt lat="43.63003" lon="6.61404">
        <ele>652.3</ele>
        <time>2023-11-26T09:44:57Z</time>
      </trkpt>
      <trkpt lat="43.63004" lon="6.61402">
        <ele>652.3</ele>
        <time>2023-11-26T09:44:58Z</time>
      </trkpt>
      <trkpt lat="43.63004" lon="6.614">
        <ele>652.2</ele>
        <time>2023-11-26T09:44:59Z</time>
      </trkpt>
      <trkpt lat="43.63005" lon="6.61398">
        <ele>652.2</ele>
        <time>2023-11-26T09:45:00Z</time>
      </trkpt>
      <trkpt lat="43.63005" lon="6.61396">
        <ele>652.2</ele>
        <time>2023-11-26T09:45:01Z</time>
      </trkpt>
      <trkpt lat="43.63005" lon="6.61395">
        <ele>652.2</ele>
        <time>2023-11-26T09:45:02Z</time>
      </trkpt>
      <trkpt lat="43.63005" lon="6.61393">
        <ele>652.1</ele>
        <time>2023-11-26T09:45:03Z</time>
      </trkpt>
      <trkpt lat="43.63005" lon="6.61392">
        <ele>652</ele>
        <time>2023-11-26T09:45:04Z</time>
      </trkpt>
      <trkpt lat="43.63005" lon="6.6139">
        <ele>652</ele>
        <time>2023-11-26T09:45:05Z</time>
      </trkpt>
      <trkpt lat="43.63005" lon="6.61389">
        <ele>652</ele>
        <time>2023-11-26T09:45:06Z</time>
      </trkpt>
      <trkpt lat="43.63006" lon="6.61387">
        <ele>652.1</ele>
        <time>2023-11-26T09:45:07Z</time>
      </trkpt>
      <trkpt lat="43.63006" lon="6.61385">
        <ele>652.1</ele>
        <time>2023-11-26T09:45:08Z</time>
      </trkpt>
      <trkpt lat="43.63007" lon="6.61384">
        <ele>652.1</ele>
        <time>2023-11-26T09:45:09Z</time>
      </trkpt>
      <trkpt lat="43.63008" lon="6.61382">
        <ele>652.1</ele>
        <time>2023-11-26T09:45:10Z</time>
      </trkpt>
      <trkpt lat="43.63008" lon="6.61381">
        <ele>652.2</ele>
        <time>2023-11-26T09:45:11Z</time>
      </trkpt>
      <trkpt lat="43.63009" lon="6.61379">
        <ele>652.2</ele>
        <time>2023-11-26T09:45:12Z</time>
      </trkpt>
      <trkpt lat="43.6301" lon="6.61378">
        <ele>652.2</ele>
        <time>2023-11-26T09:45:13Z</time>
      </trkpt>
      <trkpt lat="43.63011" lon="6.61377">
        <ele>652.2</ele>
        <time>2023-11-26T09:45:14Z</time>
      </trkpt>
      <trkpt lat="43.63011" lon="6.61375">
        <ele>652.2</ele>
        <time>2023-11-26T09:45:15Z</time>
      </trkpt>
      <trkpt lat="43.63011" lon="6.61373">
        <ele>652.2</ele>
        <time>2023-11-26T09:45:16Z</time>
      </trkpt>
      <trkpt lat="43.63011" lon="6.61371">
        <ele>652.2</ele>
        <time>2023-11-26T09:45:17Z</time>
      </trkpt>
      <trkpt lat="43.63011" lon="6.6137">
        <ele>652.3</ele>
        <time>2023-11-26T09:45:18Z</time>
      </trkpt>
      <trkpt lat="43.63012" lon="6.61368">
        <ele>652.3</ele>
        <time>2023-11-26T09:45:19Z</time>
      </trkpt>
      <trkpt lat="43.63012" lon="6.61367">
        <ele>652.3</ele>
        <time>2023-11-26T09:45:20Z</time>
      </trkpt>
      <trkpt lat="43.63013" lon="6.61365">
        <ele>652.4</ele>
        <time>2023-11-26T09:45:21Z</time>
      </trkpt>
      <trkpt lat="43.63012" lon="6.61364">
        <ele>652.4</ele>
        <time>2023-11-26T09:45:22Z</time>
      </trkpt>
      <trkpt lat="43.63012" lon="6.61362">
        <ele>652.3</ele>
        <time>2023-11-26T09:45:23Z</time>
      </trkpt>
      <trkpt lat="43.63011" lon="6.6136">
        <ele>652.3</ele>
        <time>2023-11-26T09:45:24Z</time>
      </trkpt>
      <trkpt lat="43.63012" lon="6.61358">
        <ele>652.5</ele>
        <time>2023-11-26T09:45:25Z</time>
      </trkpt>
      <trkpt lat="43.63011" lon="6.61357">
        <ele>652.6</ele>
        <time>2023-11-26T09:45:26Z</time>
      </trkpt>
      <trkpt lat="43.63012" lon="6.61356">
        <ele>652.8</ele>
        <time>2023-11-26T09:45:27Z</time>
      </trkpt>
      <trkpt lat="43.63012" lon="6.61354">
        <ele>652.9</ele>
        <time>2023-11-26T09:45:28Z</time>
      </trkpt>
      <trkpt lat="43.63012" lon="6.61352">
        <ele>653</ele>
        <time>2023-11-26T09:45:29Z</time>
      </trkpt>
      <trkpt lat="43.63012" lon="6.61351">
        <ele>653.1</ele>
        <time>2023-11-26T09:45:30Z</time>
      </trkpt>
      <trkpt lat="43.63012" lon="6.6135">
        <ele>653.2</ele>
        <time>2023-11-26T09:45:31Z</time>
      </trkpt>
      <trkpt lat="43.63012" lon="6.61348">
        <ele>653.4</ele>
        <time>2023-11-26T09:45:32Z</time>
      </trkpt>
      <trkpt lat="43.63011" lon="6.61347">
        <ele>653.5</ele>
        <time>2023-11-26T09:45:33Z</time>
      </trkpt>
      <trkpt lat="43.63009" lon="6.61344">
        <ele>653.7</ele>
        <time>2023-11-26T09:45:34Z</time>
      </trkpt>
      <trkpt lat="43.63009" lon="6.61342">
        <ele>653.9</ele>
        <time>2023-11-26T09:45:35Z</time>
      </trkpt>
      <trkpt lat="43.63007" lon="6.61341">
        <ele>654</ele>
        <time>2023-11-26T09:45:36Z</time>
      </trkpt>
      <trkpt lat="43.63006" lon="6.6134">
        <ele>654.1</ele>
        <time>2023-11-26T09:45:37Z</time>
      </trkpt>
      <trkpt lat="43.63006" lon="6.61338">
        <ele>654.1</ele>
        <time>2023-11-26T09:45:38Z</time>
      </trkpt>
      <trkpt lat="43.63006" lon="6.61336">
        <ele>654.2</ele>
        <time>2023-11-26T09:45:39Z</time>
      </trkpt>
      <trkpt lat="43.63005" lon="6.61335">
        <ele>654.3</ele>
        <time>2023-11-26T09:45:40Z</time>
      </trkpt>
      <trkpt lat="43.63005" lon="6.61333">
        <ele>654.4</ele>
        <time>2023-11-26T09:45:41Z</time>
      </trkpt>
      <trkpt lat="43.63005" lon="6.61331">
        <ele>654.4</ele>
        <time>2023-11-26T09:45:42Z</time>
      </trkpt>
      <trkpt lat="43.63004" lon="6.6133">
        <ele>654.4</ele>
        <time>2023-11-26T09:45:43Z</time>
      </trkpt>
      <trkpt lat="43.63004" lon="6.61328">
        <ele>654.5</ele>
        <time>2023-11-26T09:45:44Z</time>
      </trkpt>
      <trkpt lat="43.63003" lon="6.61327">
        <ele>654.6</ele>
        <time>2023-11-26T09:45:45Z</time>
      </trkpt>
      <trkpt lat="43.63003" lon="6.61326">
        <ele>654.7</ele>
        <time>2023-11-26T09:45:46Z</time>
      </trkpt>
      <trkpt lat="43.63002" lon="6.61326">
        <ele>654.6</ele>
        <time>2023-11-26T09:45:47Z</time>
      </trkpt>
      <trkpt lat="43.63002" lon="6.61325">
        <ele>654.7</ele>
        <time>2023-11-26T09:45:48Z</time>
      </trkpt>
      <trkpt lat="43.63002" lon="6.61324">
        <ele>654.8</ele>
        <time>2023-11-26T09:45:49Z</time>
      </trkpt>
      <trkpt lat="43.63001" lon="6.61323">
        <ele>654.8</ele>
        <time>2023-11-26T09:45:50Z</time>
      </trkpt>
      <trkpt lat="43.63001" lon="6.61322">
        <ele>655</ele>
        <time>2023-11-26T09:45:51Z</time>
      </trkpt>
      <trkpt lat="43.63001" lon="6.6132">
        <ele>655</ele>
        <time>2023-11-26T09:45:52Z</time>
      </trkpt>
      <trkpt lat="43.63" lon="6.61318">
        <ele>655.1</ele>
        <time>2023-11-26T09:45:53Z</time>
      </trkpt>
      <trkpt lat="43.63" lon="6.61316">
        <ele>655.1</ele>
        <time>2023-11-26T09:45:54Z</time>
      </trkpt>
      <trkpt lat="43.63" lon="6.61315">
        <ele>655.1</ele>
        <time>2023-11-26T09:45:55Z</time>
      </trkpt>
      <trkpt lat="43.63" lon="6.61313">
        <ele>655.1</ele>
        <time>2023-11-26T09:45:56Z</time>
      </trkpt>
      <trkpt lat="43.63" lon="6.6131">
        <ele>655.2</ele>
        <time>2023-11-26T09:45:57Z</time>
      </trkpt>
      <trkpt lat="43.63" lon="6.61307">
        <ele>655.3</ele>
        <time>2023-11-26T09:45:58Z</time>
      </trkpt>
      <trkpt lat="43.63" lon="6.61305">
        <ele>655.3</ele>
        <time>2023-11-26T09:45:59Z</time>
      </trkpt>
      <trkpt lat="43.63" lon="6.61303">
        <ele>655.3</ele>
        <time>2023-11-26T09:46:00Z</time>
      </trkpt>
      <trkpt lat="43.63" lon="6.61302">
        <ele>655.5</ele>
        <time>2023-11-26T09:46:01Z</time>
      </trkpt>
      <trkpt lat="43.63" lon="6.613">
        <ele>655.6</ele>
        <time>2023-11-26T09:46:02Z</time>
      </trkpt>
      <trkpt lat="43.63" lon="6.61298">
        <ele>655.6</ele>
        <time>2023-11-26T09:46:03Z</time>
      </trkpt>
      <trkpt lat="43.63" lon="6.61296">
        <ele>655.6</ele>
        <time>2023-11-26T09:46:04Z</time>
      </trkpt>
      <trkpt lat="43.63" lon="6.61294">
        <ele>655.7</ele>
        <time>2023-11-26T09:46:05Z</time>
      </trkpt>
      <trkpt lat="43.62999" lon="6.61293">
        <ele>655.8</ele>
        <time>2023-11-26T09:46:06Z</time>
      </trkpt>
      <trkpt lat="43.62997" lon="6.61291">
        <ele>655.8</ele>
        <time>2023-11-26T09:46:07Z</time>
      </trkpt>
      <trkpt lat="43.62998" lon="6.61289">
        <ele>655.9</ele>
        <time>2023-11-26T09:46:08Z</time>
      </trkpt>
      <trkpt lat="43.62998" lon="6.61288">
        <ele>655.9</ele>
        <time>2023-11-26T09:46:09Z</time>
      </trkpt>
      <trkpt lat="43.62998" lon="6.61286">
        <ele>656</ele>
        <time>2023-11-26T09:46:10Z</time>
      </trkpt>
      <trkpt lat="43.62999" lon="6.61284">
        <ele>656.1</ele>
        <time>2023-11-26T09:46:11Z</time>
      </trkpt>
      <trkpt lat="43.62999" lon="6.61283">
        <ele>656</ele>
        <time>2023-11-26T09:46:12Z</time>
      </trkpt>
      <trkpt lat="43.62999" lon="6.61281">
        <ele>656</ele>
        <time>2023-11-26T09:46:13Z</time>
      </trkpt>
      <trkpt lat="43.62998" lon="6.6128">
        <ele>656</ele>
        <time>2023-11-26T09:46:14Z</time>
      </trkpt>
      <trkpt lat="43.62999" lon="6.61278">
        <ele>656</ele>
        <time>2023-11-26T09:46:15Z</time>
      </trkpt>
      <trkpt lat="43.62999" lon="6.61277">
        <ele>656.1</ele>
        <time>2023-11-26T09:46:16Z</time>
      </trkpt>
      <trkpt lat="43.62999" lon="6.61275">
        <ele>656</ele>
        <time>2023-11-26T09:46:17Z</time>
      </trkpt>
      <trkpt lat="43.62999" lon="6.61274">
        <ele>656</ele>
        <time>2023-11-26T09:46:18Z</time>
      </trkpt>
      <trkpt lat="43.63" lon="6.61272">
        <ele>656</ele>
        <time>2023-11-26T09:46:19Z</time>
      </trkpt>
      <trkpt lat="43.62999" lon="6.61272">
        <ele>656.2</ele>
        <time>2023-11-26T09:46:20Z</time>
      </trkpt>
      <trkpt lat="43.63" lon="6.6127">
        <ele>656.3</ele>
        <time>2023-11-26T09:46:21Z</time>
      </trkpt>
      <trkpt lat="43.63" lon="6.61269">
        <ele>656.3</ele>
        <time>2023-11-26T09:46:22Z</time>
      </trkpt>
      <trkpt lat="43.63" lon="6.61267">
        <ele>656.3</ele>
        <time>2023-11-26T09:46:23Z</time>
      </trkpt>
      <trkpt lat="43.63001" lon="6.61265">
        <ele>656.3</ele>
        <time>2023-11-26T09:46:24Z</time>
      </trkpt>
      <trkpt lat="43.63001" lon="6.61263">
        <ele>656.3</ele>
        <time>2023-11-26T09:46:25Z</time>
      </trkpt>
      <trkpt lat="43.63001" lon="6.61262">
        <ele>656.2</ele>
        <time>2023-11-26T09:46:26Z</time>
      </trkpt>
      <trkpt lat="43.63002" lon="6.6126">
        <ele>656.2</ele>
        <time>2023-11-26T09:46:27Z</time>
      </trkpt>
      <trkpt lat="43.63003" lon="6.61259">
        <ele>656.2</ele>
        <time>2023-11-26T09:46:28Z</time>
      </trkpt>
      <trkpt lat="43.63002" lon="6.61257">
        <ele>656.2</ele>
        <time>2023-11-26T09:46:29Z</time>
      </trkpt>
      <trkpt lat="43.63002" lon="6.61256">
        <ele>656.2</ele>
        <time>2023-11-26T09:46:30Z</time>
      </trkpt>
      <trkpt lat="43.63002" lon="6.61254">
        <ele>656.2</ele>
        <time>2023-11-26T09:46:31Z</time>
      </trkpt>
      <trkpt lat="43.63001" lon="6.61252">
        <ele>656.2</ele>
        <time>2023-11-26T09:46:32Z</time>
      </trkpt>
      <trkpt lat="43.63002" lon="6.61251">
        <ele>656.2</ele>
        <time>2023-11-26T09:46:33Z</time>
      </trkpt>
      <trkpt lat="43.63002" lon="6.61249">
        <ele>656.4</ele>
        <time>2023-11-26T09:46:34Z</time>
      </trkpt>
      <trkpt lat="43.63002" lon="6.61247">
        <ele>656.4</ele>
        <time>2023-11-26T09:46:35Z</time>
      </trkpt>
      <trkpt lat="43.63001" lon="6.61245">
        <ele>656.4</ele>
        <time>2023-11-26T09:46:36Z</time>
      </trkpt>
      <trkpt lat="43.63" lon="6.61244">
        <ele>656.5</ele>
        <time>2023-11-26T09:46:37Z</time>
      </trkpt>
      <trkpt lat="43.63001" lon="6.61242">
        <ele>656.6</ele>
        <time>2023-11-26T09:46:38Z</time>
      </trkpt>
      <trkpt lat="43.63" lon="6.6124">
        <ele>656.7</ele>
        <time>2023-11-26T09:46:39Z</time>
      </trkpt>
      <trkpt lat="43.63" lon="6.61239">
        <ele>656.7</ele>
        <time>2023-11-26T09:46:40Z</time>
      </trkpt>
      <trkpt lat="43.63" lon="6.61237">
        <ele>656.8</ele>
        <time>2023-11-26T09:46:41Z</time>
      </trkpt>
      <trkpt lat="43.63" lon="6.61236">
        <ele>656.8</ele>
        <time>2023-11-26T09:46:42Z</time>
      </trkpt>
      <trkpt lat="43.63" lon="6.61236">
        <ele>656.9</ele>
        <time>2023-11-26T09:46:43Z</time>
      </trkpt>
      <trkpt lat="43.63" lon="6.61235">
        <ele>656.9</ele>
        <time>2023-11-26T09:46:44Z</time>
      </trkpt>
      <trkpt lat="43.63" lon="6.61233">
        <ele>656.9</ele>
        <time>2023-11-26T09:46:45Z</time>
      </trkpt>
      <trkpt lat="43.63" lon="6.61232">
        <ele>657</ele>
        <time>2023-11-26T09:46:46Z</time>
      </trkpt>
      <trkpt lat="43.63" lon="6.6123">
        <ele>657.1</ele>
        <time>2023-11-26T09:46:47Z</time>
      </trkpt>
      <trkpt lat="43.63" lon="6.61228">
        <ele>657</ele>
        <time>2023-11-26T09:46:48Z</time>
      </trkpt>
      <trkpt lat="43.63001" lon="6.61226">
        <ele>657</ele>
        <time>2023-11-26T09:46:49Z</time>
      </trkpt>
      <trkpt lat="43.63001" lon="6.61224">
        <ele>657</ele>
        <time>2023-11-26T09:46:50Z</time>
      </trkpt>
      <trkpt lat="43.63002" lon="6.61223">
        <ele>657.1</ele>
        <time>2023-11-26T09:46:51Z</time>
      </trkpt>
      <trkpt lat="43.63002" lon="6.61221">
        <ele>657.1</ele>
        <time>2023-11-26T09:46:52Z</time>
      </trkpt>
      <trkpt lat="43.63001" lon="6.61219">
        <ele>657.3</ele>
        <time>2023-11-26T09:46:53Z</time>
      </trkpt>
      <trkpt lat="43.63001" lon="6.61217">
        <ele>657.3</ele>
        <time>2023-11-26T09:46:54Z</time>
      </trkpt>
      <trkpt lat="43.63001" lon="6.61216">
        <ele>657.4</ele>
        <time>2023-11-26T09:46:55Z</time>
      </trkpt>
      <trkpt lat="43.63001" lon="6.61214">
        <ele>657.5</ele>
        <time>2023-11-26T09:46:56Z</time>
      </trkpt>
      <trkpt lat="43.63001" lon="6.61213">
        <ele>657.5</ele>
        <time>2023-11-26T09:46:57Z</time>
      </trkpt>
      <trkpt lat="43.63" lon="6.61211">
        <ele>657.6</ele>
        <time>2023-11-26T09:46:58Z</time>
      </trkpt>
      <trkpt lat="43.63" lon="6.6121">
        <ele>657.7</ele>
        <time>2023-11-26T09:46:59Z</time>
      </trkpt>
      <trkpt lat="43.62999" lon="6.61208">
        <ele>657.9</ele>
        <time>2023-11-26T09:47:00Z</time>
      </trkpt>
      <trkpt lat="43.62998" lon="6.61206">
        <ele>658</ele>
        <time>2023-11-26T09:47:01Z</time>
      </trkpt>
      <trkpt lat="43.62998" lon="6.61205">
        <ele>658.1</ele>
        <time>2023-11-26T09:47:02Z</time>
      </trkpt>
      <trkpt lat="43.62996" lon="6.61203">
        <ele>658.2</ele>
        <time>2023-11-26T09:47:03Z</time>
      </trkpt>
      <trkpt lat="43.62995" lon="6.61202">
        <ele>658.2</ele>
        <time>2023-11-26T09:47:04Z</time>
      </trkpt>
      <trkpt lat="43.62994" lon="6.612">
        <ele>658.3</ele>
        <time>2023-11-26T09:47:05Z</time>
      </trkpt>
      <trkpt lat="43.62993" lon="6.61199">
        <ele>658.3</ele>
        <time>2023-11-26T09:47:06Z</time>
      </trkpt>
      <trkpt lat="43.62992" lon="6.61198">
        <ele>658.4</ele>
        <time>2023-11-26T09:47:07Z</time>
      </trkpt>
      <trkpt lat="43.6299" lon="6.61197">
        <ele>658.4</ele>
        <time>2023-11-26T09:47:08Z</time>
      </trkpt>
      <trkpt lat="43.62989" lon="6.61196">
        <ele>658.4</ele>
        <time>2023-11-26T09:47:09Z</time>
      </trkpt>
      <trkpt lat="43.62987" lon="6.61194">
        <ele>658.4</ele>
        <time>2023-11-26T09:47:10Z</time>
      </trkpt>
      <trkpt lat="43.62986" lon="6.61193">
        <ele>658.6</ele>
        <time>2023-11-26T09:47:11Z</time>
      </trkpt>
      <trkpt lat="43.62985" lon="6.61192">
        <ele>658.7</ele>
        <time>2023-11-26T09:47:12Z</time>
      </trkpt>
      <trkpt lat="43.62984" lon="6.61191">
        <ele>658.9</ele>
        <time>2023-11-26T09:47:13Z</time>
      </trkpt>
      <trkpt lat="43.62983" lon="6.6119">
        <ele>659</ele>
        <time>2023-11-26T09:47:14Z</time>
      </trkpt>
      <trkpt lat="43.62982" lon="6.61189">
        <ele>659.2</ele>
        <time>2023-11-26T09:47:15Z</time>
      </trkpt>
      <trkpt lat="43.62981" lon="6.61188">
        <ele>659.3</ele>
        <time>2023-11-26T09:47:16Z</time>
      </trkpt>
      <trkpt lat="43.6298" lon="6.61187">
        <ele>659.4</ele>
        <time>2023-11-26T09:47:17Z</time>
      </trkpt>
      <trkpt lat="43.62979" lon="6.61187">
        <ele>659.5</ele>
        <time>2023-11-26T09:47:18Z</time>
      </trkpt>
      <trkpt lat="43.62979" lon="6.61186">
        <ele>659.6</ele>
        <time>2023-11-26T09:47:19Z</time>
      </trkpt>
      <trkpt lat="43.62978" lon="6.61186">
        <ele>659.8</ele>
        <time>2023-11-26T09:47:20Z</time>
      </trkpt>
      <trkpt lat="43.62976" lon="6.61185">
        <ele>659.9</ele>
        <time>2023-11-26T09:47:21Z</time>
      </trkpt>
      <trkpt lat="43.62974" lon="6.61184">
        <ele>660</ele>
        <time>2023-11-26T09:47:22Z</time>
      </trkpt>
      <trkpt lat="43.62973" lon="6.61183">
        <ele>660.2</ele>
        <time>2023-11-26T09:47:23Z</time>
      </trkpt>
      <trkpt lat="43.62971" lon="6.61182">
        <ele>660.2</ele>
        <time>2023-11-26T09:47:24Z</time>
      </trkpt>
      <trkpt lat="43.6297" lon="6.61181">
        <ele>660.3</ele>
        <time>2023-11-26T09:47:25Z</time>
      </trkpt>
      <trkpt lat="43.62968" lon="6.61181">
        <ele>660.3</ele>
        <time>2023-11-26T09:47:26Z</time>
      </trkpt>
      <trkpt lat="43.62967" lon="6.6118">
        <ele>660.4</ele>
        <time>2023-11-26T09:47:27Z</time>
      </trkpt>
      <trkpt lat="43.62967" lon="6.61179">
        <ele>660.4</ele>
        <time>2023-11-26T09:47:28Z</time>
      </trkpt>
      <trkpt lat="43.62966" lon="6.61177">
        <ele>660.3</ele>
        <time>2023-11-26T09:47:29Z</time>
      </trkpt>
      <trkpt lat="43.62965" lon="6.61176">
        <ele>660.4</ele>
        <time>2023-11-26T09:47:30Z</time>
      </trkpt>
      <trkpt lat="43.62963" lon="6.61175">
        <ele>660.4</ele>
        <time>2023-11-26T09:47:31Z</time>
      </trkpt>
      <trkpt lat="43.62962" lon="6.61175">
        <ele>660.5</ele>
        <time>2023-11-26T09:47:32Z</time>
      </trkpt>
      <trkpt lat="43.62961" lon="6.61174">
        <ele>660.6</ele>
        <time>2023-11-26T09:47:33Z</time>
      </trkpt>
      <trkpt lat="43.6296" lon="6.61173">
        <ele>660.6</ele>
        <time>2023-11-26T09:47:34Z</time>
      </trkpt>
      <trkpt lat="43.62959" lon="6.61172">
        <ele>660.7</ele>
        <time>2023-11-26T09:47:35Z</time>
      </trkpt>
      <trkpt lat="43.62958" lon="6.61171">
        <ele>660.7</ele>
        <time>2023-11-26T09:47:36Z</time>
      </trkpt>
      <trkpt lat="43.62958" lon="6.6117">
        <ele>660.7</ele>
        <time>2023-11-26T09:47:37Z</time>
      </trkpt>
      <trkpt lat="43.62957" lon="6.61168">
        <ele>660.8</ele>
        <time>2023-11-26T09:47:38Z</time>
      </trkpt>
      <trkpt lat="43.62956" lon="6.61167">
        <ele>660.8</ele>
        <time>2023-11-26T09:47:39Z</time>
      </trkpt>
      <trkpt lat="43.62955" lon="6.61167">
        <ele>660.9</ele>
        <time>2023-11-26T09:47:40Z</time>
      </trkpt>
      <trkpt lat="43.62954" lon="6.61167">
        <ele>660.9</ele>
        <time>2023-11-26T09:47:41Z</time>
      </trkpt>
      <trkpt lat="43.62953" lon="6.61166">
        <ele>660.9</ele>
        <time>2023-11-26T09:47:42Z</time>
      </trkpt>
      <trkpt lat="43.62952" lon="6.61165">
        <ele>660.7</ele>
        <time>2023-11-26T09:47:43Z</time>
      </trkpt>
      <trkpt lat="43.62951" lon="6.61164">
        <ele>660.7</ele>
        <time>2023-11-26T09:47:44Z</time>
      </trkpt>
      <trkpt lat="43.62951" lon="6.61163">
        <ele>660.8</ele>
        <time>2023-11-26T09:47:45Z</time>
      </trkpt>
      <trkpt lat="43.62949" lon="6.61162">
        <ele>660.8</ele>
        <time>2023-11-26T09:47:46Z</time>
      </trkpt>
      <trkpt lat="43.62948" lon="6.61161">
        <ele>660.8</ele>
        <time>2023-11-26T09:47:47Z</time>
      </trkpt>
      <trkpt lat="43.62946" lon="6.6116">
        <ele>660.8</ele>
        <time>2023-11-26T09:47:48Z</time>
      </trkpt>
      <trkpt lat="43.62946" lon="6.61159">
        <ele>660.7</ele>
        <time>2023-11-26T09:47:49Z</time>
      </trkpt>
      <trkpt lat="43.62945" lon="6.61157">
        <ele>660.6</ele>
        <time>2023-11-26T09:47:50Z</time>
      </trkpt>
      <trkpt lat="43.62945" lon="6.61155">
        <ele>660.6</ele>
        <time>2023-11-26T09:47:51Z</time>
      </trkpt>
      <trkpt lat="43.62944" lon="6.61154">
        <ele>660.6</ele>
        <time>2023-11-26T09:47:52Z</time>
      </trkpt>
      <trkpt lat="43.62943" lon="6.61152">
        <ele>660.5</ele>
        <time>2023-11-26T09:47:53Z</time>
      </trkpt>
      <trkpt lat="43.62942" lon="6.61151">
        <ele>660.5</ele>
        <time>2023-11-26T09:47:54Z</time>
      </trkpt>
      <trkpt lat="43.62941" lon="6.61149">
        <ele>660.5</ele>
        <time>2023-11-26T09:47:55Z</time>
      </trkpt>
      <trkpt lat="43.6294" lon="6.61148">
        <ele>660.4</ele>
        <time>2023-11-26T09:47:56Z</time>
      </trkpt>
      <trkpt lat="43.62939" lon="6.61147">
        <ele>660.4</ele>
        <time>2023-11-26T09:47:57Z</time>
      </trkpt>
      <trkpt lat="43.62938" lon="6.61145">
        <ele>660.4</ele>
        <time>2023-11-26T09:47:58Z</time>
      </trkpt>
      <trkpt lat="43.62937" lon="6.61144">
        <ele>660.4</ele>
        <time>2023-11-26T09:47:59Z</time>
      </trkpt>
      <trkpt lat="43.62936" lon="6.61143">
        <ele>660.4</ele>
        <time>2023-11-26T09:48:00Z</time>
      </trkpt>
      <trkpt lat="43.62935" lon="6.61141">
        <ele>660.4</ele>
        <time>2023-11-26T09:48:01Z</time>
      </trkpt>
      <trkpt lat="43.62935" lon="6.6114">
        <ele>660.5</ele>
        <time>2023-11-26T09:48:02Z</time>
      </trkpt>
      <trkpt lat="43.62934" lon="6.61138">
        <ele>660.5</ele>
        <time>2023-11-26T09:48:03Z</time>
      </trkpt>
      <trkpt lat="43.62934" lon="6.61137">
        <ele>660.5</ele>
        <time>2023-11-26T09:48:04Z</time>
      </trkpt>
      <trkpt lat="43.62933" lon="6.61135">
        <ele>660.5</ele>
        <time>2023-11-26T09:48:05Z</time>
      </trkpt>
      <trkpt lat="43.62933" lon="6.61134">
        <ele>660.6</ele>
        <time>2023-11-26T09:48:06Z</time>
      </trkpt>
      <trkpt lat="43.62932" lon="6.61133">
        <ele>660.6</ele>
        <time>2023-11-26T09:48:07Z</time>
      </trkpt>
      <trkpt lat="43.62931" lon="6.61131">
        <ele>660.5</ele>
        <time>2023-11-26T09:48:08Z</time>
      </trkpt>
      <trkpt lat="43.6293" lon="6.6113">
        <ele>660.5</ele>
        <time>2023-11-26T09:48:09Z</time>
      </trkpt>
      <trkpt lat="43.6293" lon="6.61128">
        <ele>660.5</ele>
        <time>2023-11-26T09:48:10Z</time>
      </trkpt>
      <trkpt lat="43.62929" lon="6.61127">
        <ele>660.6</ele>
        <time>2023-11-26T09:48:11Z</time>
      </trkpt>
      <trkpt lat="43.62928" lon="6.61125">
        <ele>660.6</ele>
        <time>2023-11-26T09:48:12Z</time>
      </trkpt>
      <trkpt lat="43.62928" lon="6.61124">
        <ele>660.7</ele>
        <time>2023-11-26T09:48:13Z</time>
      </trkpt>
      <trkpt lat="43.62927" lon="6.61123">
        <ele>660.7</ele>
        <time>2023-11-26T09:48:14Z</time>
      </trkpt>
      <trkpt lat="43.62925" lon="6.61122">
        <ele>660.8</ele>
        <time>2023-11-26T09:48:15Z</time>
      </trkpt>
      <trkpt lat="43.62925" lon="6.6112">
        <ele>660.7</ele>
        <time>2023-11-26T09:48:16Z</time>
      </trkpt>
      <trkpt lat="43.62924" lon="6.61119">
        <ele>660.7</ele>
        <time>2023-11-26T09:48:17Z</time>
      </trkpt>
      <trkpt lat="43.62923" lon="6.61118">
        <ele>660.6</ele>
        <time>2023-11-26T09:48:18Z</time>
      </trkpt>
      <trkpt lat="43.62923" lon="6.61117">
        <ele>660.6</ele>
        <time>2023-11-26T09:48:19Z</time>
      </trkpt>
      <trkpt lat="43.62923" lon="6.61115">
        <ele>660.6</ele>
        <time>2023-11-26T09:48:20Z</time>
      </trkpt>
      <trkpt lat="43.62921" lon="6.61114">
        <ele>660.4</ele>
        <time>2023-11-26T09:48:21Z</time>
      </trkpt>
      <trkpt lat="43.6292" lon="6.61113">
        <ele>660.4</ele>
        <time>2023-11-26T09:48:22Z</time>
      </trkpt>
      <trkpt lat="43.62919" lon="6.61112">
        <ele>660.3</ele>
        <time>2023-11-26T09:48:23Z</time>
      </trkpt>
      <trkpt lat="43.62918" lon="6.61111">
        <ele>660.3</ele>
        <time>2023-11-26T09:48:24Z</time>
      </trkpt>
      <trkpt lat="43.62917" lon="6.6111">
        <ele>660.3</ele>
        <time>2023-11-26T09:48:25Z</time>
      </trkpt>
      <trkpt lat="43.62916" lon="6.61108">
        <ele>660.2</ele>
        <time>2023-11-26T09:48:26Z</time>
      </trkpt>
      <trkpt lat="43.62915" lon="6.61107">
        <ele>660.2</ele>
        <time>2023-11-26T09:48:27Z</time>
      </trkpt>
      <trkpt lat="43.62915" lon="6.61105">
        <ele>660.2</ele>
        <time>2023-11-26T09:48:28Z</time>
      </trkpt>
      <trkpt lat="43.62915" lon="6.61103">
        <ele>660.2</ele>
        <time>2023-11-26T09:48:29Z</time>
      </trkpt>
      <trkpt lat="43.62915" lon="6.61102">
        <ele>660.2</ele>
        <time>2023-11-26T09:48:30Z</time>
      </trkpt>
      <trkpt lat="43.62915" lon="6.611">
        <ele>660.2</ele>
        <time>2023-11-26T09:48:31Z</time>
      </trkpt>
      <trkpt lat="43.62915" lon="6.61098">
        <ele>660.1</ele>
        <time>2023-11-26T09:48:32Z</time>
      </trkpt>
      <trkpt lat="43.62915" lon="6.61096">
        <ele>660</ele>
        <time>2023-11-26T09:48:33Z</time>
      </trkpt>
      <trkpt lat="43.62915" lon="6.61094">
        <ele>660</ele>
        <time>2023-11-26T09:48:34Z</time>
      </trkpt>
      <trkpt lat="43.62915" lon="6.61091">
        <ele>659.9</ele>
        <time>2023-11-26T09:48:35Z</time>
      </trkpt>
      <trkpt lat="43.62915" lon="6.61089">
        <ele>660</ele>
        <time>2023-11-26T09:48:36Z</time>
      </trkpt>
      <trkpt lat="43.62914" lon="6.61087">
        <ele>660</ele>
        <time>2023-11-26T09:48:37Z</time>
      </trkpt>
      <trkpt lat="43.62914" lon="6.61086">
        <ele>660</ele>
        <time>2023-11-26T09:48:38Z</time>
      </trkpt>
      <trkpt lat="43.62913" lon="6.61085">
        <ele>660</ele>
        <time>2023-11-26T09:48:39Z</time>
      </trkpt>
      <trkpt lat="43.62912" lon="6.61083">
        <ele>660.1</ele>
        <time>2023-11-26T09:48:40Z</time>
      </trkpt>
      <trkpt lat="43.62912" lon="6.61082">
        <ele>660.1</ele>
        <time>2023-11-26T09:48:41Z</time>
      </trkpt>
      <trkpt lat="43.62913" lon="6.6108">
        <ele>660.1</ele>
        <time>2023-11-26T09:48:42Z</time>
      </trkpt>
      <trkpt lat="43.62913" lon="6.61079">
        <ele>660.1</ele>
        <time>2023-11-26T09:48:43Z</time>
      </trkpt>
      <trkpt lat="43.62913" lon="6.61077">
        <ele>660.2</ele>
        <time>2023-11-26T09:48:44Z</time>
      </trkpt>
      <trkpt lat="43.62913" lon="6.61076">
        <ele>660.2</ele>
        <time>2023-11-26T09:48:45Z</time>
      </trkpt>
      <trkpt lat="43.62913" lon="6.61074">
        <ele>660.1</ele>
        <time>2023-11-26T09:48:46Z</time>
      </trkpt>
      <trkpt lat="43.62912" lon="6.61073">
        <ele>660.1</ele>
        <time>2023-11-26T09:48:47Z</time>
      </trkpt>
      <trkpt lat="43.62911" lon="6.61071">
        <ele>660.1</ele>
        <time>2023-11-26T09:48:48Z</time>
      </trkpt>
      <trkpt lat="43.62912" lon="6.6107">
        <ele>660.1</ele>
        <time>2023-11-26T09:48:49Z</time>
      </trkpt>
      <trkpt lat="43.62912" lon="6.61068">
        <ele>660.2</ele>
        <time>2023-11-26T09:48:50Z</time>
      </trkpt>
      <trkpt lat="43.62912" lon="6.61065">
        <ele>660.1</ele>
        <time>2023-11-26T09:48:51Z</time>
      </trkpt>
      <trkpt lat="43.62912" lon="6.61063">
        <ele>660.1</ele>
        <time>2023-11-26T09:48:52Z</time>
      </trkpt>
      <trkpt lat="43.62912" lon="6.61061">
        <ele>660.2</ele>
        <time>2023-11-26T09:48:53Z</time>
      </trkpt>
      <trkpt lat="43.62912" lon="6.6106">
        <ele>660.3</ele>
        <time>2023-11-26T09:48:54Z</time>
      </trkpt>
      <trkpt lat="43.62912" lon="6.61058">
        <ele>660.4</ele>
        <time>2023-11-26T09:48:55Z</time>
      </trkpt>
      <trkpt lat="43.62913" lon="6.61057">
        <ele>660.5</ele>
        <time>2023-11-26T09:48:56Z</time>
      </trkpt>
      <trkpt lat="43.62912" lon="6.61055">
        <ele>660.5</ele>
        <time>2023-11-26T09:48:57Z</time>
      </trkpt>
      <trkpt lat="43.62911" lon="6.61053">
        <ele>660.5</ele>
        <time>2023-11-26T09:48:58Z</time>
      </trkpt>
      <trkpt lat="43.62911" lon="6.61052">
        <ele>660.7</ele>
        <time>2023-11-26T09:48:59Z</time>
      </trkpt>
      <trkpt lat="43.62911" lon="6.6105">
        <ele>660.7</ele>
        <time>2023-11-26T09:49:00Z</time>
      </trkpt>
      <trkpt lat="43.62911" lon="6.61048">
        <ele>660.8</ele>
        <time>2023-11-26T09:49:01Z</time>
      </trkpt>
      <trkpt lat="43.62911" lon="6.61047">
        <ele>660.9</ele>
        <time>2023-11-26T09:49:02Z</time>
      </trkpt>
      <trkpt lat="43.6291" lon="6.61045">
        <ele>660.8</ele>
        <time>2023-11-26T09:49:03Z</time>
      </trkpt>
      <trkpt lat="43.6291" lon="6.61044">
        <ele>660.8</ele>
        <time>2023-11-26T09:49:04Z</time>
      </trkpt>
      <trkpt lat="43.6291" lon="6.61042">
        <ele>660.9</ele>
        <time>2023-11-26T09:49:05Z</time>
      </trkpt>
      <trkpt lat="43.62909" lon="6.61041">
        <ele>660.9</ele>
        <time>2023-11-26T09:49:06Z</time>
      </trkpt>
      <trkpt lat="43.62909" lon="6.6104">
        <ele>661</ele>
        <time>2023-11-26T09:49:07Z</time>
      </trkpt>
      <trkpt lat="43.62909" lon="6.61039">
        <ele>660.9</ele>
        <time>2023-11-26T09:49:08Z</time>
      </trkpt>
      <trkpt lat="43.62909" lon="6.61039">
        <ele>660.8</ele>
        <time>2023-11-26T09:49:09Z</time>
      </trkpt>
      <trkpt lat="43.62907" lon="6.61037">
        <ele>660.7</ele>
        <time>2023-11-26T09:49:10Z</time>
      </trkpt>
      <trkpt lat="43.62906" lon="6.61035">
        <ele>660.7</ele>
        <time>2023-11-26T09:49:11Z</time>
      </trkpt>
      <trkpt lat="43.62904" lon="6.61033">
        <ele>660.7</ele>
        <time>2023-11-26T09:49:12Z</time>
      </trkpt>
      <trkpt lat="43.62903" lon="6.61031">
        <ele>660.8</ele>
        <time>2023-11-26T09:49:13Z</time>
      </trkpt>
      <trkpt lat="43.62903" lon="6.6103">
        <ele>660.8</ele>
        <time>2023-11-26T09:49:14Z</time>
      </trkpt>
      <trkpt lat="43.62902" lon="6.61028">
        <ele>660.7</ele>
        <time>2023-11-26T09:49:15Z</time>
      </trkpt>
      <trkpt lat="43.62901" lon="6.61027">
        <ele>660.7</ele>
        <time>2023-11-26T09:49:16Z</time>
      </trkpt>
      <trkpt lat="43.62901" lon="6.61025">
        <ele>660.7</ele>
        <time>2023-11-26T09:49:17Z</time>
      </trkpt>
      <trkpt lat="43.629" lon="6.61024">
        <ele>660.9</ele>
        <time>2023-11-26T09:49:18Z</time>
      </trkpt>
      <trkpt lat="43.62899" lon="6.61023">
        <ele>660.8</ele>
        <time>2023-11-26T09:49:19Z</time>
      </trkpt>
      <trkpt lat="43.62898" lon="6.61021">
        <ele>660.8</ele>
        <time>2023-11-26T09:49:20Z</time>
      </trkpt>
      <trkpt lat="43.62897" lon="6.61019">
        <ele>660.8</ele>
        <time>2023-11-26T09:49:21Z</time>
      </trkpt>
      <trkpt lat="43.62896" lon="6.61018">
        <ele>660.8</ele>
        <time>2023-11-26T09:49:22Z</time>
      </trkpt>
      <trkpt lat="43.62895" lon="6.61016">
        <ele>660.8</ele>
        <time>2023-11-26T09:49:23Z</time>
      </trkpt>
      <trkpt lat="43.62894" lon="6.61015">
        <ele>660.9</ele>
        <time>2023-11-26T09:49:24Z</time>
      </trkpt>
      <trkpt lat="43.62893" lon="6.61014">
        <ele>661.1</ele>
        <time>2023-11-26T09:49:25Z</time>
      </trkpt>
      <trkpt lat="43.62892" lon="6.61013">
        <ele>661.1</ele>
        <time>2023-11-26T09:49:26Z</time>
      </trkpt>
      <trkpt lat="43.62891" lon="6.61011">
        <ele>661.1</ele>
        <time>2023-11-26T09:49:27Z</time>
      </trkpt>
      <trkpt lat="43.6289" lon="6.6101">
        <ele>661.2</ele>
        <time>2023-11-26T09:49:28Z</time>
      </trkpt>
      <trkpt lat="43.62889" lon="6.61009">
        <ele>661.3</ele>
        <time>2023-11-26T09:49:29Z</time>
      </trkpt>
      <trkpt lat="43.62888" lon="6.61007">
        <ele>661.3</ele>
        <time>2023-11-26T09:49:30Z</time>
      </trkpt>
      <trkpt lat="43.62887" lon="6.61006">
        <ele>661.3</ele>
        <time>2023-11-26T09:49:31Z</time>
      </trkpt>
      <trkpt lat="43.62886" lon="6.61004">
        <ele>661.3</ele>
        <time>2023-11-26T09:49:32Z</time>
      </trkpt>
      <trkpt lat="43.62885" lon="6.61003">
        <ele>661.4</ele>
        <time>2023-11-26T09:49:33Z</time>
      </trkpt>
      <trkpt lat="43.62884" lon="6.61002">
        <ele>661.4</ele>
        <time>2023-11-26T09:49:34Z</time>
      </trkpt>
      <trkpt lat="43.62883" lon="6.61">
        <ele>661.5</ele>
        <time>2023-11-26T09:49:35Z</time>
      </trkpt>
      <trkpt lat="43.62882" lon="6.61">
        <ele>661.5</ele>
        <time>2023-11-26T09:49:36Z</time>
      </trkpt>
      <trkpt lat="43.62881" lon="6.60999">
        <ele>661.5</ele>
        <time>2023-11-26T09:49:37Z</time>
      </trkpt>
      <trkpt lat="43.6288" lon="6.60998">
        <ele>661.6</ele>
        <time>2023-11-26T09:49:38Z</time>
      </trkpt>
      <trkpt lat="43.62879" lon="6.60997">
        <ele>661.7</ele>
        <time>2023-11-26T09:49:39Z</time>
      </trkpt>
      <trkpt lat="43.62878" lon="6.60996">
        <ele>661.8</ele>
        <time>2023-11-26T09:49:40Z</time>
      </trkpt>
      <trkpt lat="43.62877" lon="6.60994">
        <ele>661.8</ele>
        <time>2023-11-26T09:49:41Z</time>
      </trkpt>
      <trkpt lat="43.62876" lon="6.60993">
        <ele>661.8</ele>
        <time>2023-11-26T09:49:42Z</time>
      </trkpt>
      <trkpt lat="43.62875" lon="6.60992">
        <ele>661.8</ele>
        <time>2023-11-26T09:49:43Z</time>
      </trkpt>
      <trkpt lat="43.62874" lon="6.60991">
        <ele>661.8</ele>
        <time>2023-11-26T09:49:44Z</time>
      </trkpt>
      <trkpt lat="43.62873" lon="6.6099">
        <ele>661.8</ele>
        <time>2023-11-26T09:49:45Z</time>
      </trkpt>
      <trkpt lat="43.62873" lon="6.60989">
        <ele>661.7</ele>
        <time>2023-11-26T09:49:46Z</time>
      </trkpt>
      <trkpt lat="43.62872" lon="6.60987">
        <ele>661.8</ele>
        <time>2023-11-26T09:49:47Z</time>
      </trkpt>
      <trkpt lat="43.62871" lon="6.60986">
        <ele>661.8</ele>
        <time>2023-11-26T09:49:48Z</time>
      </trkpt>
      <trkpt lat="43.6287" lon="6.60985">
        <ele>661.9</ele>
        <time>2023-11-26T09:49:49Z</time>
      </trkpt>
      <trkpt lat="43.6287" lon="6.60984">
        <ele>662</ele>
        <time>2023-11-26T09:49:50Z</time>
      </trkpt>
      <trkpt lat="43.62869" lon="6.60982">
        <ele>662</ele>
        <time>2023-11-26T09:49:51Z</time>
      </trkpt>
      <trkpt lat="43.62868" lon="6.60982">
        <ele>662.1</ele>
        <time>2023-11-26T09:49:52Z</time>
      </trkpt>
      <trkpt lat="43.62867" lon="6.60979">
        <ele>662.1</ele>
        <time>2023-11-26T09:49:53Z</time>
      </trkpt>
      <trkpt lat="43.62866" lon="6.60976">
        <ele>662.2</ele>
        <time>2023-11-26T09:49:54Z</time>
      </trkpt>
      <trkpt lat="43.62866" lon="6.60975">
        <ele>662.3</ele>
        <time>2023-11-26T09:49:55Z</time>
      </trkpt>
      <trkpt lat="43.62865" lon="6.60974">
        <ele>662.4</ele>
        <time>2023-11-26T09:49:56Z</time>
      </trkpt>
      <trkpt lat="43.62864" lon="6.60973">
        <ele>662.5</ele>
        <time>2023-11-26T09:49:57Z</time>
      </trkpt>
      <trkpt lat="43.62864" lon="6.60971">
        <ele>662.6</ele>
        <time>2023-11-26T09:49:58Z</time>
      </trkpt>
      <trkpt lat="43.62863" lon="6.6097">
        <ele>662.8</ele>
        <time>2023-11-26T09:49:59Z</time>
      </trkpt>
      <trkpt lat="43.62863" lon="6.60969">
        <ele>662.9</ele>
        <time>2023-11-26T09:50:00Z</time>
      </trkpt>
      <trkpt lat="43.62862" lon="6.60967">
        <ele>662.9</ele>
        <time>2023-11-26T09:50:01Z</time>
      </trkpt>
      <trkpt lat="43.62862" lon="6.60966">
        <ele>663</ele>
        <time>2023-11-26T09:50:02Z</time>
      </trkpt>
      <trkpt lat="43.62861" lon="6.60965">
        <ele>663</ele>
        <time>2023-11-26T09:50:03Z</time>
      </trkpt>
      <trkpt lat="43.6286" lon="6.60963">
        <ele>663.1</ele>
        <time>2023-11-26T09:50:04Z</time>
      </trkpt>
      <trkpt lat="43.6286" lon="6.60962">
        <ele>663.2</ele>
        <time>2023-11-26T09:50:05Z</time>
      </trkpt>
      <trkpt lat="43.62859" lon="6.60961">
        <ele>663.3</ele>
        <time>2023-11-26T09:50:06Z</time>
      </trkpt>
      <trkpt lat="43.62858" lon="6.6096">
        <ele>663.4</ele>
        <time>2023-11-26T09:50:07Z</time>
      </trkpt>
      <trkpt lat="43.62857" lon="6.60958">
        <ele>663.5</ele>
        <time>2023-11-26T09:50:08Z</time>
      </trkpt>
      <trkpt lat="43.62856" lon="6.60956">
        <ele>663.5</ele>
        <time>2023-11-26T09:50:09Z</time>
      </trkpt>
      <trkpt lat="43.62855" lon="6.60955">
        <ele>663.6</ele>
        <time>2023-11-26T09:50:10Z</time>
      </trkpt>
      <trkpt lat="43.62854" lon="6.60955">
        <ele>663.6</ele>
        <time>2023-11-26T09:50:11Z</time>
      </trkpt>
      <trkpt lat="43.62854" lon="6.60953">
        <ele>663.7</ele>
        <time>2023-11-26T09:50:12Z</time>
      </trkpt>
      <trkpt lat="43.62853" lon="6.60952">
        <ele>663.7</ele>
        <time>2023-11-26T09:50:13Z</time>
      </trkpt>
      <trkpt lat="43.62853" lon="6.60951">
        <ele>663.8</ele>
        <time>2023-11-26T09:50:14Z</time>
      </trkpt>
      <trkpt lat="43.62852" lon="6.6095">
        <ele>663.8</ele>
        <time>2023-11-26T09:50:15Z</time>
      </trkpt>
      <trkpt lat="43.6285" lon="6.60949">
        <ele>663.9</ele>
        <time>2023-11-26T09:50:16Z</time>
      </trkpt>
      <trkpt lat="43.6285" lon="6.60947">
        <ele>663.9</ele>
        <time>2023-11-26T09:50:17Z</time>
      </trkpt>
      <trkpt lat="43.62849" lon="6.60945">
        <ele>664.1</ele>
        <time>2023-11-26T09:50:18Z</time>
      </trkpt>
      <trkpt lat="43.62849" lon="6.60943">
        <ele>664.2</ele>
        <time>2023-11-26T09:50:19Z</time>
      </trkpt>
      <trkpt lat="43.62848" lon="6.60942">
        <ele>664.2</ele>
        <time>2023-11-26T09:50:20Z</time>
      </trkpt>
      <trkpt lat="43.62848" lon="6.60939">
        <ele>664.2</ele>
        <time>2023-11-26T09:50:21Z</time>
      </trkpt>
      <trkpt lat="43.62847" lon="6.60938">
        <ele>664.3</ele>
        <time>2023-11-26T09:50:22Z</time>
      </trkpt>
      <trkpt lat="43.62847" lon="6.60936">
        <ele>664.3</ele>
        <time>2023-11-26T09:50:23Z</time>
      </trkpt>
      <trkpt lat="43.62846" lon="6.60935">
        <ele>664.4</ele>
        <time>2023-11-26T09:50:24Z</time>
      </trkpt>
      <trkpt lat="43.62845" lon="6.60934">
        <ele>664.4</ele>
        <time>2023-11-26T09:50:25Z</time>
      </trkpt>
      <trkpt lat="43.62844" lon="6.60932">
        <ele>664.4</ele>
        <time>2023-11-26T09:50:26Z</time>
      </trkpt>
      <trkpt lat="43.62843" lon="6.60931">
        <ele>664.4</ele>
        <time>2023-11-26T09:50:27Z</time>
      </trkpt>
      <trkpt lat="43.62842" lon="6.6093">
        <ele>664.5</ele>
        <time>2023-11-26T09:50:28Z</time>
      </trkpt>
      <trkpt lat="43.62841" lon="6.60929">
        <ele>664.5</ele>
        <time>2023-11-26T09:50:29Z</time>
      </trkpt>
      <trkpt lat="43.62839" lon="6.60928">
        <ele>664.4</ele>
        <time>2023-11-26T09:50:30Z</time>
      </trkpt>
      <trkpt lat="43.62838" lon="6.60927">
        <ele>664.3</ele>
        <time>2023-11-26T09:50:31Z</time>
      </trkpt>
      <trkpt lat="43.62838" lon="6.60926">
        <ele>664.2</ele>
        <time>2023-11-26T09:50:32Z</time>
      </trkpt>
      <trkpt lat="43.62836" lon="6.60925">
        <ele>664.1</ele>
        <time>2023-11-26T09:50:33Z</time>
      </trkpt>
      <trkpt lat="43.62835" lon="6.60924">
        <ele>664.1</ele>
        <time>2023-11-26T09:50:34Z</time>
      </trkpt>
      <trkpt lat="43.62834" lon="6.60924">
        <ele>664.1</ele>
        <time>2023-11-26T09:50:35Z</time>
      </trkpt>
      <trkpt lat="43.62833" lon="6.60923">
        <ele>664.1</ele>
        <time>2023-11-26T09:50:36Z</time>
      </trkpt>
      <trkpt lat="43.62832" lon="6.60923">
        <ele>664</ele>
        <time>2023-11-26T09:50:37Z</time>
      </trkpt>
      <trkpt lat="43.62831" lon="6.60922">
        <ele>664</ele>
        <time>2023-11-26T09:50:38Z</time>
      </trkpt>
      <trkpt lat="43.62829" lon="6.60922">
        <ele>663.8</ele>
        <time>2023-11-26T09:50:39Z</time>
      </trkpt>
      <trkpt lat="43.62828" lon="6.60921">
        <ele>663.6</ele>
        <time>2023-11-26T09:50:40Z</time>
      </trkpt>
      <trkpt lat="43.62827" lon="6.6092">
        <ele>663.6</ele>
        <time>2023-11-26T09:50:41Z</time>
      </trkpt>
      <trkpt lat="43.62826" lon="6.60919">
        <ele>663.4</ele>
        <time>2023-11-26T09:50:42Z</time>
      </trkpt>
      <trkpt lat="43.62824" lon="6.60918">
        <ele>663.3</ele>
        <time>2023-11-26T09:50:43Z</time>
      </trkpt>
      <trkpt lat="43.62823" lon="6.60918">
        <ele>664</ele>
        <time>2023-11-26T09:50:44Z</time>
      </trkpt>
      <trkpt lat="43.62822" lon="6.60917">
        <ele>663.9</ele>
        <time>2023-11-26T09:50:45Z</time>
      </trkpt>
      <trkpt lat="43.62821" lon="6.60917">
        <ele>663.8</ele>
        <time>2023-11-26T09:50:46Z</time>
      </trkpt>
      <trkpt lat="43.62819" lon="6.60917">
        <ele>662.9</ele>
        <time>2023-11-26T09:50:47Z</time>
      </trkpt>
      <trkpt lat="43.62817" lon="6.60916">
        <ele>662.9</ele>
        <time>2023-11-26T09:50:48Z</time>
      </trkpt>
      <trkpt lat="43.62815" lon="6.60916">
        <ele>662.9</ele>
        <time>2023-11-26T09:50:49Z</time>
      </trkpt>
      <trkpt lat="43.62814" lon="6.60916">
        <ele>662.8</ele>
        <time>2023-11-26T09:50:50Z</time>
      </trkpt>
      <trkpt lat="43.62812" lon="6.60915">
        <ele>662.8</ele>
        <time>2023-11-26T09:50:51Z</time>
      </trkpt>
      <trkpt lat="43.62811" lon="6.60915">
        <ele>662.7</ele>
        <time>2023-11-26T09:50:52Z</time>
      </trkpt>
      <trkpt lat="43.6281" lon="6.60915">
        <ele>662.3</ele>
        <time>2023-11-26T09:50:53Z</time>
      </trkpt>
      <trkpt lat="43.62809" lon="6.60915">
        <ele>662.3</ele>
        <time>2023-11-26T09:50:54Z</time>
      </trkpt>
      <trkpt lat="43.62808" lon="6.60914">
        <ele>662.3</ele>
        <time>2023-11-26T09:50:55Z</time>
      </trkpt>
      <trkpt lat="43.62808" lon="6.60914">
        <ele>662.2</ele>
        <time>2023-11-26T09:50:56Z</time>
      </trkpt>
      <trkpt lat="43.62807" lon="6.60913">
        <ele>662.2</ele>
        <time>2023-11-26T09:50:57Z</time>
      </trkpt>
      <trkpt lat="43.62806" lon="6.60913">
        <ele>662.2</ele>
        <time>2023-11-26T09:50:58Z</time>
      </trkpt>
      <trkpt lat="43.62806" lon="6.60911">
        <ele>662.2</ele>
        <time>2023-11-26T09:50:59Z</time>
      </trkpt>
      <trkpt lat="43.62805" lon="6.6091">
        <ele>662</ele>
        <time>2023-11-26T09:51:00Z</time>
      </trkpt>
      <trkpt lat="43.62804" lon="6.60909">
        <ele>661.9</ele>
        <time>2023-11-26T09:51:01Z</time>
      </trkpt>
      <trkpt lat="43.62803" lon="6.60908">
        <ele>661.9</ele>
        <time>2023-11-26T09:51:02Z</time>
      </trkpt>
      <trkpt lat="43.62802" lon="6.60907">
        <ele>661.8</ele>
        <time>2023-11-26T09:51:03Z</time>
      </trkpt>
      <trkpt lat="43.62801" lon="6.60906">
        <ele>661.8</ele>
        <time>2023-11-26T09:51:04Z</time>
      </trkpt>
      <trkpt lat="43.62801" lon="6.60906">
        <ele>661.7</ele>
        <time>2023-11-26T09:51:05Z</time>
      </trkpt>
      <trkpt lat="43.628" lon="6.60905">
        <ele>661.7</ele>
        <time>2023-11-26T09:51:06Z</time>
      </trkpt>
      <trkpt lat="43.62797" lon="6.60905">
        <ele>661.5</ele>
        <time>2023-11-26T09:51:07Z</time>
      </trkpt>
      <trkpt lat="43.62796" lon="6.60903">
        <ele>661.4</ele>
        <time>2023-11-26T09:51:08Z</time>
      </trkpt>
      <trkpt lat="43.62796" lon="6.60901">
        <ele>661.3</ele>
        <time>2023-11-26T09:51:09Z</time>
      </trkpt>
      <trkpt lat="43.62795" lon="6.609">
        <ele>661.2</ele>
        <time>2023-11-26T09:51:10Z</time>
      </trkpt>
      <trkpt lat="43.62795" lon="6.60899">
        <ele>661.1</ele>
        <time>2023-11-26T09:51:11Z</time>
      </trkpt>
      <trkpt lat="43.62794" lon="6.60898">
        <ele>661</ele>
        <time>2023-11-26T09:51:12Z</time>
      </trkpt>
      <trkpt lat="43.62794" lon="6.60897">
        <ele>660.9</ele>
        <time>2023-11-26T09:51:13Z</time>
      </trkpt>
      <trkpt lat="43.62793" lon="6.60896">
        <ele>660.8</ele>
        <time>2023-11-26T09:51:14Z</time>
      </trkpt>
      <trkpt lat="43.62792" lon="6.60895">
        <ele>660.7</ele>
        <time>2023-11-26T09:51:15Z</time>
      </trkpt>
      <trkpt lat="43.62791" lon="6.60894">
        <ele>660.6</ele>
        <time>2023-11-26T09:51:16Z</time>
      </trkpt>
      <trkpt lat="43.62791" lon="6.60893">
        <ele>660.5</ele>
        <time>2023-11-26T09:51:17Z</time>
      </trkpt>
      <trkpt lat="43.6279" lon="6.60891">
        <ele>660.3</ele>
        <time>2023-11-26T09:51:18Z</time>
      </trkpt>
      <trkpt lat="43.6279" lon="6.60891">
        <ele>660.1</ele>
        <time>2023-11-26T09:51:19Z</time>
      </trkpt>
      <trkpt lat="43.62789" lon="6.60891">
        <ele>660</ele>
        <time>2023-11-26T09:51:20Z</time>
      </trkpt>
      <trkpt lat="43.62788" lon="6.6089">
        <ele>659.9</ele>
        <time>2023-11-26T09:51:21Z</time>
      </trkpt>
      <trkpt lat="43.62788" lon="6.6089">
        <ele>659.9</ele>
        <time>2023-11-26T09:51:22Z</time>
      </trkpt>
      <trkpt lat="43.62788" lon="6.60889">
        <ele>659.9</ele>
        <time>2023-11-26T09:51:23Z</time>
      </trkpt>
      <trkpt lat="43.62789" lon="6.60888">
        <ele>660</ele>
        <time>2023-11-26T09:51:24Z</time>
      </trkpt>
      <trkpt lat="43.6279" lon="6.60888">
        <ele>660</ele>
        <time>2023-11-26T09:51:25Z</time>
      </trkpt>
      <trkpt lat="43.6279" lon="6.60888">
        <ele>660</ele>
        <time>2023-11-26T09:51:26Z</time>
      </trkpt>
      <trkpt lat="43.62791" lon="6.60889">
        <ele>660</ele>
        <time>2023-11-26T09:51:27Z</time>
      </trkpt>
      <trkpt lat="43.62791" lon="6.6089">
        <ele>660.2</ele>
        <time>2023-11-26T09:51:28Z</time>
      </trkpt>
      <trkpt lat="43.62792" lon="6.6089">
        <ele>660.3</ele>
        <time>2023-11-26T09:51:29Z</time>
      </trkpt>
      <trkpt lat="43.62793" lon="6.60891">
        <ele>660.5</ele>
        <time>2023-11-26T09:51:30Z</time>
      </trkpt>
      <trkpt lat="43.62793" lon="6.60892">
        <ele>660.6</ele>
        <time>2023-11-26T09:51:31Z</time>
      </trkpt>
      <trkpt lat="43.62793" lon="6.60894">
        <ele>660.8</ele>
        <time>2023-11-26T09:51:32Z</time>
      </trkpt>
      <trkpt lat="43.62793" lon="6.60895">
        <ele>660.9</ele>
        <time>2023-11-26T09:51:33Z</time>
      </trkpt>
      <trkpt lat="43.62793" lon="6.60897">
        <ele>661.1</ele>
        <time>2023-11-26T09:51:34Z</time>
      </trkpt>
      <trkpt lat="43.62793" lon="6.60898">
        <ele>661.2</ele>
        <time>2023-11-26T09:51:35Z</time>
      </trkpt>
      <trkpt lat="43.62793" lon="6.60899">
        <ele>661.3</ele>
        <time>2023-11-26T09:51:36Z</time>
      </trkpt>
      <trkpt lat="43.62794" lon="6.609">
        <ele>661.5</ele>
        <time>2023-11-26T09:51:37Z</time>
      </trkpt>
      <trkpt lat="43.62794" lon="6.60901">
        <ele>661.7</ele>
        <time>2023-11-26T09:51:38Z</time>
      </trkpt>
      <trkpt lat="43.62795" lon="6.60902">
        <ele>661.8</ele>
        <time>2023-11-26T09:51:39Z</time>
      </trkpt>
      <trkpt lat="43.62796" lon="6.60903">
        <ele>662</ele>
        <time>2023-11-26T09:51:40Z</time>
      </trkpt>
      <trkpt lat="43.62795" lon="6.60904">
        <ele>662.1</ele>
        <time>2023-11-26T09:51:41Z</time>
      </trkpt>
      <trkpt lat="43.62796" lon="6.60904">
        <ele>662.3</ele>
        <time>2023-11-26T09:51:42Z</time>
      </trkpt>
      <trkpt lat="43.62796" lon="6.60905">
        <ele>662.5</ele>
        <time>2023-11-26T09:51:43Z</time>
      </trkpt>
      <trkpt lat="43.62797" lon="6.60906">
        <ele>662.6</ele>
        <time>2023-11-26T09:51:44Z</time>
      </trkpt>
      <trkpt lat="43.62798" lon="6.60908">
        <ele>662.6</ele>
        <time>2023-11-26T09:51:45Z</time>
      </trkpt>
      <trkpt lat="43.62798" lon="6.60909">
        <ele>662.8</ele>
        <time>2023-11-26T09:51:46Z</time>
      </trkpt>
      <trkpt lat="43.62799" lon="6.60909">
        <ele>662.9</ele>
        <time>2023-11-26T09:51:47Z</time>
      </trkpt>
      <trkpt lat="43.628" lon="6.60908">
        <ele>663</ele>
        <time>2023-11-26T09:51:48Z</time>
      </trkpt>
      <trkpt lat="43.628" lon="6.60908">
        <ele>663.1</ele>
        <time>2023-11-26T09:51:49Z</time>
      </trkpt>
      <trkpt lat="43.62801" lon="6.60907">
        <ele>663.3</ele>
        <time>2023-11-26T09:51:50Z</time>
      </trkpt>
      <trkpt lat="43.62801" lon="6.60905">
        <ele>663.4</ele>
        <time>2023-11-26T09:51:51Z</time>
      </trkpt>
      <trkpt lat="43.62802" lon="6.60903">
        <ele>663.6</ele>
        <time>2023-11-26T09:51:52Z</time>
      </trkpt>
      <trkpt lat="43.62802" lon="6.60902">
        <ele>663.8</ele>
        <time>2023-11-26T09:51:53Z</time>
      </trkpt>
      <trkpt lat="43.62803" lon="6.60901">
        <ele>663.9</ele>
        <time>2023-11-26T09:51:54Z</time>
      </trkpt>
      <trkpt lat="43.62804" lon="6.609">
        <ele>664.1</ele>
        <time>2023-11-26T09:51:55Z</time>
      </trkpt>
      <trkpt lat="43.62804" lon="6.60899">
        <ele>664.4</ele>
        <time>2023-11-26T09:51:56Z</time>
      </trkpt>
      <trkpt lat="43.62804" lon="6.60899">
        <ele>664.6</ele>
        <time>2023-11-26T09:51:57Z</time>
      </trkpt>
      <trkpt lat="43.62805" lon="6.60899">
        <ele>664.8</ele>
        <time>2023-11-26T09:51:58Z</time>
      </trkpt>
      <trkpt lat="43.62806" lon="6.609">
        <ele>665</ele>
        <time>2023-11-26T09:51:59Z</time>
      </trkpt>
      <trkpt lat="43.62806" lon="6.60899">
        <ele>665.1</ele>
        <time>2023-11-26T09:52:00Z</time>
      </trkpt>
      <trkpt lat="43.62807" lon="6.60899">
        <ele>665.3</ele>
        <time>2023-11-26T09:52:01Z</time>
      </trkpt>
      <trkpt lat="43.62807" lon="6.60899">
        <ele>665.4</ele>
        <time>2023-11-26T09:52:02Z</time>
      </trkpt>
      <trkpt lat="43.62807" lon="6.60898">
        <ele>665.4</ele>
        <time>2023-11-26T09:52:03Z</time>
      </trkpt>
      <trkpt lat="43.62806" lon="6.60897">
        <ele>665.4</ele>
        <time>2023-11-26T09:52:04Z</time>
      </trkpt>
      <trkpt lat="43.62807" lon="6.60896">
        <ele>665.4</ele>
        <time>2023-11-26T09:52:05Z</time>
      </trkpt>
      <trkpt lat="43.62806" lon="6.60896">
        <ele>665.4</ele>
        <time>2023-11-26T09:52:06Z</time>
      </trkpt>
      <trkpt lat="43.62808" lon="6.60893">
        <ele>665.4</ele>
        <time>2023-11-26T09:52:07Z</time>
      </trkpt>
      <trkpt lat="43.62808" lon="6.60892">
        <ele>665.4</ele>
        <time>2023-11-26T09:52:08Z</time>
      </trkpt>
      <trkpt lat="43.62808" lon="6.60891">
        <ele>665.4</ele>
        <time>2023-11-26T09:52:09Z</time>
      </trkpt>
      <trkpt lat="43.62809" lon="6.60891">
        <ele>665.4</ele>
        <time>2023-11-26T09:52:10Z</time>
      </trkpt>
      <trkpt lat="43.62812" lon="6.6089">
        <ele>665.6</ele>
        <time>2023-11-26T09:52:11Z</time>
      </trkpt>
      <trkpt lat="43.62814" lon="6.6089">
        <ele>665.7</ele>
        <time>2023-11-26T09:52:12Z</time>
      </trkpt>
      <trkpt lat="43.62814" lon="6.60889">
        <ele>665.9</ele>
        <time>2023-11-26T09:52:13Z</time>
      </trkpt>
      <trkpt lat="43.62815" lon="6.6089">
        <ele>666</ele>
        <time>2023-11-26T09:52:14Z</time>
      </trkpt>
      <trkpt lat="43.62815" lon="6.6089">
        <ele>666.1</ele>
        <time>2023-11-26T09:52:15Z</time>
      </trkpt>
      <trkpt lat="43.62816" lon="6.60891">
        <ele>666.2</ele>
        <time>2023-11-26T09:52:16Z</time>
      </trkpt>
      <trkpt lat="43.62816" lon="6.60892">
        <ele>666.3</ele>
        <time>2023-11-26T09:52:17Z</time>
      </trkpt>
      <trkpt lat="43.62816" lon="6.60893">
        <ele>666.4</ele>
        <time>2023-11-26T09:52:18Z</time>
      </trkpt>
      <trkpt lat="43.62816" lon="6.60894">
        <ele>666.6</ele>
        <time>2023-11-26T09:52:19Z</time>
      </trkpt>
      <trkpt lat="43.62817" lon="6.60895">
        <ele>666.7</ele>
        <time>2023-11-26T09:52:20Z</time>
      </trkpt>
      <trkpt lat="43.62817" lon="6.60895">
        <ele>666.6</ele>
        <time>2023-11-26T09:52:21Z</time>
      </trkpt>
      <trkpt lat="43.62817" lon="6.60895">
        <ele>666.8</ele>
        <time>2023-11-26T09:52:22Z</time>
      </trkpt>
      <trkpt lat="43.62818" lon="6.60896">
        <ele>666.9</ele>
        <time>2023-11-26T09:52:23Z</time>
      </trkpt>
      <trkpt lat="43.62818" lon="6.60896">
        <ele>666.9</ele>
        <time>2023-11-26T09:52:24Z</time>
      </trkpt>
      <trkpt lat="43.62819" lon="6.60896">
        <ele>667</ele>
        <time>2023-11-26T09:52:25Z</time>
      </trkpt>
      <trkpt lat="43.6282" lon="6.60897">
        <ele>667.1</ele>
        <time>2023-11-26T09:52:26Z</time>
      </trkpt>
      <trkpt lat="43.6282" lon="6.60897">
        <ele>667.1</ele>
        <time>2023-11-26T09:52:27Z</time>
      </trkpt>
      <trkpt lat="43.62821" lon="6.60897">
        <ele>667.1</ele>
        <time>2023-11-26T09:52:28Z</time>
      </trkpt>
      <trkpt lat="43.62823" lon="6.60895">
        <ele>667.2</ele>
        <time>2023-11-26T09:52:29Z</time>
      </trkpt>
      <trkpt lat="43.62824" lon="6.60893">
        <ele>667.2</ele>
        <time>2023-11-26T09:52:30Z</time>
      </trkpt>
      <trkpt lat="43.62825" lon="6.60893">
        <ele>667.2</ele>
        <time>2023-11-26T09:52:31Z</time>
      </trkpt>
      <trkpt lat="43.62826" lon="6.60893">
        <ele>667.3</ele>
        <time>2023-11-26T09:52:32Z</time>
      </trkpt>
      <trkpt lat="43.62826" lon="6.60893">
        <ele>667.3</ele>
        <time>2023-11-26T09:52:33Z</time>
      </trkpt>
      <trkpt lat="43.62826" lon="6.60893">
        <ele>667.3</ele>
        <time>2023-11-26T09:52:34Z</time>
      </trkpt>
      <trkpt lat="43.62826" lon="6.60893">
        <ele>667.4</ele>
        <time>2023-11-26T09:52:35Z</time>
      </trkpt>
      <trkpt lat="43.62826" lon="6.60893">
        <ele>667.4</ele>
        <time>2023-11-26T09:52:36Z</time>
      </trkpt>
      <trkpt lat="43.62826" lon="6.60892">
        <ele>667.5</ele>
        <time>2023-11-26T09:52:37Z</time>
      </trkpt>
      <trkpt lat="43.62826" lon="6.60892">
        <ele>667.6</ele>
        <time>2023-11-26T09:52:38Z</time>
      </trkpt>
      <trkpt lat="43.62827" lon="6.60892">
        <ele>667.6</ele>
        <time>2023-11-26T09:52:39Z</time>
      </trkpt>
      <trkpt lat="43.62827" lon="6.60891">
        <ele>667.6</ele>
        <time>2023-11-26T09:52:40Z</time>
      </trkpt>
      <trkpt lat="43.62827" lon="6.60891">
        <ele>667.6</ele>
        <time>2023-11-26T09:52:41Z</time>
      </trkpt>
      <trkpt lat="43.62827" lon="6.6089">
        <ele>667.6</ele>
        <time>2023-11-26T09:52:42Z</time>
      </trkpt>
      <trkpt lat="43.62827" lon="6.6089">
        <ele>667.7</ele>
        <time>2023-11-26T09:52:43Z</time>
      </trkpt>
      <trkpt lat="43.62827" lon="6.60889">
        <ele>667.7</ele>
        <time>2023-11-26T09:52:44Z</time>
      </trkpt>
      <trkpt lat="43.62826" lon="6.60889">
        <ele>667.6</ele>
        <time>2023-11-26T09:52:45Z</time>
      </trkpt>
      <trkpt lat="43.62825" lon="6.60889">
        <ele>667.6</ele>
        <time>2023-11-26T09:52:46Z</time>
      </trkpt>
      <trkpt lat="43.62825" lon="6.60889">
        <ele>667.6</ele>
        <time>2023-11-26T09:52:47Z</time>
      </trkpt>
      <trkpt lat="43.62824" lon="6.60889">
        <ele>667.6</ele>
        <time>2023-11-26T09:52:48Z</time>
      </trkpt>
      <trkpt lat="43.62823" lon="6.60888">
        <ele>667.5</ele>
        <time>2023-11-26T09:52:49Z</time>
      </trkpt>
      <trkpt lat="43.62822" lon="6.60888">
        <ele>667.5</ele>
        <time>2023-11-26T09:52:50Z</time>
      </trkpt>
      <trkpt lat="43.62822" lon="6.60888">
        <ele>667.5</ele>
        <time>2023-11-26T09:52:51Z</time>
      </trkpt>
      <trkpt lat="43.62821" lon="6.60887">
        <ele>667.3</ele>
        <time>2023-11-26T09:52:52Z</time>
      </trkpt>
      <trkpt lat="43.62819" lon="6.60887">
        <ele>667.2</ele>
        <time>2023-11-26T09:52:53Z</time>
      </trkpt>
      <trkpt lat="43.62818" lon="6.60887">
        <ele>667.1</ele>
        <time>2023-11-26T09:52:54Z</time>
      </trkpt>
      <trkpt lat="43.62817" lon="6.60887">
        <ele>666.9</ele>
        <time>2023-11-26T09:52:55Z</time>
      </trkpt>
      <trkpt lat="43.62816" lon="6.60887">
        <ele>667</ele>
        <time>2023-11-26T09:52:56Z</time>
      </trkpt>
      <trkpt lat="43.62816" lon="6.60886">
        <ele>666.9</ele>
        <time>2023-11-26T09:52:57Z</time>
      </trkpt>
      <trkpt lat="43.62815" lon="6.60886">
        <ele>666.7</ele>
        <time>2023-11-26T09:52:58Z</time>
      </trkpt>
      <trkpt lat="43.62813" lon="6.60886">
        <ele>666.7</ele>
        <time>2023-11-26T09:52:59Z</time>
      </trkpt>
      <trkpt lat="43.62812" lon="6.60886">
        <ele>666.6</ele>
        <time>2023-11-26T09:53:00Z</time>
      </trkpt>
      <trkpt lat="43.62812" lon="6.60885">
        <ele>666.5</ele>
        <time>2023-11-26T09:53:01Z</time>
      </trkpt>
      <trkpt lat="43.62811" lon="6.60885">
        <ele>666.4</ele>
        <time>2023-11-26T09:53:02Z</time>
      </trkpt>
      <trkpt lat="43.6281" lon="6.60885">
        <ele>666.2</ele>
        <time>2023-11-26T09:53:03Z</time>
      </trkpt>
      <trkpt lat="43.62809" lon="6.60885">
        <ele>666.2</ele>
        <time>2023-11-26T09:53:04Z</time>
      </trkpt>
      <trkpt lat="43.62809" lon="6.60885">
        <ele>666.1</ele>
        <time>2023-11-26T09:53:05Z</time>
      </trkpt>
      <trkpt lat="43.62809" lon="6.60885">
        <ele>666</ele>
        <time>2023-11-26T09:53:06Z</time>
      </trkpt>
      <trkpt lat="43.62809" lon="6.60885">
        <ele>666</ele>
        <time>2023-11-26T09:53:07Z</time>
      </trkpt>
      <trkpt lat="43.62809" lon="6.60886">
        <ele>665.9</ele>
        <time>2023-11-26T09:53:08Z</time>
      </trkpt>
      <trkpt lat="43.6281" lon="6.60886">
        <ele>665.8</ele>
        <time>2023-11-26T09:53:09Z</time>
      </trkpt>
      <trkpt lat="43.6281" lon="6.60886">
        <ele>665.7</ele>
        <time>2023-11-26T09:53:10Z</time>
      </trkpt>
      <trkpt lat="43.6281" lon="6.60885">
        <ele>665.7</ele>
        <time>2023-11-26T09:53:11Z</time>
      </trkpt>
      <trkpt lat="43.6281" lon="6.60886">
        <ele>665.6</ele>
        <time>2023-11-26T09:53:12Z</time>
      </trkpt>
      <trkpt lat="43.6281" lon="6.60886">
        <ele>665.6</ele>
        <time>2023-11-26T09:53:13Z</time>
      </trkpt>
      <trkpt lat="43.6281" lon="6.60886">
        <ele>665.6</ele>
        <time>2023-11-26T09:53:14Z</time>
      </trkpt>
      <trkpt lat="43.6281" lon="6.60887">
        <ele>665.6</ele>
        <time>2023-11-26T09:53:15Z</time>
      </trkpt>
      <trkpt lat="43.62811" lon="6.60887">
        <ele>665.6</ele>
        <time>2023-11-26T09:53:16Z</time>
      </trkpt>
      <trkpt lat="43.62811" lon="6.60887">
        <ele>665.6</ele>
        <time>2023-11-26T09:53:17Z</time>
      </trkpt>
      <trkpt lat="43.62811" lon="6.60887">
        <ele>665.6</ele>
        <time>2023-11-26T09:53:18Z</time>
      </trkpt>
      <trkpt lat="43.62811" lon="6.60888">
        <ele>665.6</ele>
        <time>2023-11-26T09:53:19Z</time>
      </trkpt>
      <trkpt lat="43.62811" lon="6.60888">
        <ele>665.7</ele>
        <time>2023-11-26T09:53:20Z</time>
      </trkpt>
      <trkpt lat="43.62811" lon="6.60888">
        <ele>665.7</ele>
        <time>2023-11-26T09:53:21Z</time>
      </trkpt>
      <trkpt lat="43.62811" lon="6.60888">
        <ele>665.7</ele>
        <time>2023-11-26T09:53:22Z</time>
      </trkpt>
      <trkpt lat="43.62811" lon="6.60889">
        <ele>665.8</ele>
        <time>2023-11-26T09:53:23Z</time>
      </trkpt>
      <trkpt lat="43.62811" lon="6.60889">
        <ele>665.8</ele>
        <time>2023-11-26T09:53:24Z</time>
      </trkpt>
      <trkpt lat="43.62811" lon="6.60889">
        <ele>665.8</ele>
        <time>2023-11-26T09:53:25Z</time>
      </trkpt>
      <trkpt lat="43.6281" lon="6.6089">
        <ele>665.8</ele>
        <time>2023-11-26T09:53:26Z</time>
      </trkpt>
      <trkpt lat="43.6281" lon="6.6089">
        <ele>665.9</ele>
        <time>2023-11-26T09:53:27Z</time>
      </trkpt>
      <trkpt lat="43.62811" lon="6.60889">
        <ele>665.9</ele>
        <time>2023-11-26T09:53:28Z</time>
      </trkpt>
      <trkpt lat="43.62812" lon="6.60888">
        <ele>665.9</ele>
        <time>2023-11-26T09:53:29Z</time>
      </trkpt>
      <trkpt lat="43.62812" lon="6.60888">
        <ele>665.9</ele>
        <time>2023-11-26T09:53:30Z</time>
      </trkpt>
      <trkpt lat="43.62812" lon="6.60888">
        <ele>665.9</ele>
        <time>2023-11-26T09:53:31Z</time>
      </trkpt>
      <trkpt lat="43.62811" lon="6.60889">
        <ele>665.8</ele>
        <time>2023-11-26T09:53:32Z</time>
      </trkpt>
      <trkpt lat="43.62811" lon="6.60889">
        <ele>665.8</ele>
        <time>2023-11-26T09:53:33Z</time>
      </trkpt>
      <trkpt lat="43.6281" lon="6.60889">
        <ele>665.8</ele>
        <time>2023-11-26T09:53:34Z</time>
      </trkpt>
      <trkpt lat="43.6281" lon="6.60888">
        <ele>665.7</ele>
        <time>2023-11-26T09:53:35Z</time>
      </trkpt>
      <trkpt lat="43.62809" lon="6.60888">
        <ele>665.7</ele>
        <time>2023-11-26T09:53:36Z</time>
      </trkpt>
      <trkpt lat="43.62809" lon="6.60888">
        <ele>665.7</ele>
        <time>2023-11-26T09:53:37Z</time>
      </trkpt>
      <trkpt lat="43.62808" lon="6.60889">
        <ele>665.7</ele>
        <time>2023-11-26T09:53:38Z</time>
      </trkpt>
      <trkpt lat="43.62808" lon="6.60889">
        <ele>665.6</ele>
        <time>2023-11-26T09:53:39Z</time>
      </trkpt>
      <trkpt lat="43.62807" lon="6.6089">
        <ele>665.6</ele>
        <time>2023-11-26T09:53:40Z</time>
      </trkpt>
      <trkpt lat="43.62807" lon="6.6089">
        <ele>665.6</ele>
        <time>2023-11-26T09:53:41Z</time>
      </trkpt>
      <trkpt lat="43.62806" lon="6.60891">
        <ele>665.5</ele>
        <time>2023-11-26T09:53:42Z</time>
      </trkpt>
      <trkpt lat="43.62805" lon="6.60892">
        <ele>665.6</ele>
        <time>2023-11-26T09:53:43Z</time>
      </trkpt>
      <trkpt lat="43.62804" lon="6.60892">
        <ele>665.6</ele>
        <time>2023-11-26T09:53:44Z</time>
      </trkpt>
      <trkpt lat="43.62803" lon="6.60893">
        <ele>665.5</ele>
        <time>2023-11-26T09:53:45Z</time>
      </trkpt>
      <trkpt lat="43.62803" lon="6.60893">
        <ele>665.5</ele>
        <time>2023-11-26T09:53:46Z</time>
      </trkpt>
      <trkpt lat="43.62802" lon="6.60894">
        <ele>665.5</ele>
        <time>2023-11-26T09:53:47Z</time>
      </trkpt>
      <trkpt lat="43.62803" lon="6.60894">
        <ele>665.4</ele>
        <time>2023-11-26T09:53:48Z</time>
      </trkpt>
      <trkpt lat="43.62803" lon="6.60895">
        <ele>665.6</ele>
        <time>2023-11-26T09:53:49Z</time>
      </trkpt>
      <trkpt lat="43.62804" lon="6.60894">
        <ele>665.7</ele>
        <time>2023-11-26T09:53:50Z</time>
      </trkpt>
      <trkpt lat="43.62805" lon="6.60893">
        <ele>665.8</ele>
        <time>2023-11-26T09:53:51Z</time>
      </trkpt>
      <trkpt lat="43.62806" lon="6.60893">
        <ele>665.8</ele>
        <time>2023-11-26T09:53:52Z</time>
      </trkpt>
      <trkpt lat="43.62806" lon="6.60893">
        <ele>665.8</ele>
        <time>2023-11-26T09:53:53Z</time>
      </trkpt>
      <trkpt lat="43.62806" lon="6.60893">
        <ele>665.9</ele>
        <time>2023-11-26T09:53:54Z</time>
      </trkpt>
      <trkpt lat="43.62806" lon="6.60892">
        <ele>665.9</ele>
        <time>2023-11-26T09:53:55Z</time>
      </trkpt>
      <trkpt lat="43.62807" lon="6.60892">
        <ele>665.8</ele>
        <time>2023-11-26T09:53:56Z</time>
      </trkpt>
      <trkpt lat="43.62807" lon="6.60892">
        <ele>665.8</ele>
        <time>2023-11-26T09:53:57Z</time>
      </trkpt>
      <trkpt lat="43.62807" lon="6.60891">
        <ele>665.8</ele>
        <time>2023-11-26T09:53:58Z</time>
      </trkpt>
      <trkpt lat="43.62808" lon="6.60891">
        <ele>665.8</ele>
        <time>2023-11-26T09:53:59Z</time>
      </trkpt>
      <trkpt lat="43.62809" lon="6.60891">
        <ele>665.7</ele>
        <time>2023-11-26T09:54:00Z</time>
      </trkpt>
      <trkpt lat="43.6281" lon="6.60891">
        <ele>665.7</ele>
        <time>2023-11-26T09:54:01Z</time>
      </trkpt>
      <trkpt lat="43.62809" lon="6.60891">
        <ele>665.8</ele>
        <time>2023-11-26T09:54:02Z</time>
      </trkpt>
      <trkpt lat="43.62809" lon="6.60891">
        <ele>665.8</ele>
        <time>2023-11-26T09:54:03Z</time>
      </trkpt>
      <trkpt lat="43.62809" lon="6.60891">
        <ele>665.8</ele>
        <time>2023-11-26T09:54:04Z</time>
      </trkpt>
      <trkpt lat="43.62809" lon="6.60892">
        <ele>665.8</ele>
        <time>2023-11-26T09:54:05Z</time>
      </trkpt>
      <trkpt lat="43.62809" lon="6.60891">
        <ele>665.8</ele>
        <time>2023-11-26T09:54:06Z</time>
      </trkpt>
      <trkpt lat="43.62808" lon="6.60891">
        <ele>665.8</ele>
        <time>2023-11-26T09:54:07Z</time>
      </trkpt>
      <trkpt lat="43.62809" lon="6.6089">
        <ele>665.8</ele>
        <time>2023-11-26T09:54:08Z</time>
      </trkpt>
      <trkpt lat="43.62809" lon="6.6089">
        <ele>665.9</ele>
        <time>2023-11-26T09:54:09Z</time>
      </trkpt>
      <trkpt lat="43.62809" lon="6.60891">
        <ele>665.9</ele>
        <time>2023-11-26T09:54:10Z</time>
      </trkpt>
      <trkpt lat="43.62809" lon="6.60891">
        <ele>665.9</ele>
        <time>2023-11-26T09:54:11Z</time>
      </trkpt>
      <trkpt lat="43.62808" lon="6.60892">
        <ele>665.8</ele>
        <time>2023-11-26T09:54:12Z</time>
      </trkpt>
      <trkpt lat="43.62807" lon="6.60894">
        <ele>665.8</ele>
        <time>2023-11-26T09:54:13Z</time>
      </trkpt>
      <trkpt lat="43.62806" lon="6.60896">
        <ele>665.9</ele>
        <time>2023-11-26T09:54:14Z</time>
      </trkpt>
      <trkpt lat="43.62805" lon="6.60897">
        <ele>665.9</ele>
        <time>2023-11-26T09:54:15Z</time>
      </trkpt>
      <trkpt lat="43.62805" lon="6.60898">
        <ele>665.8</ele>
        <time>2023-11-26T09:54:16Z</time>
      </trkpt>
      <trkpt lat="43.62805" lon="6.60898">
        <ele>665.7</ele>
        <time>2023-11-26T09:54:17Z</time>
      </trkpt>
      <trkpt lat="43.62804" lon="6.60898">
        <ele>665.8</ele>
        <time>2023-11-26T09:54:18Z</time>
      </trkpt>
      <trkpt lat="43.62804" lon="6.60899">
        <ele>665.8</ele>
        <time>2023-11-26T09:54:19Z</time>
      </trkpt>
      <trkpt lat="43.62804" lon="6.60899">
        <ele>665.9</ele>
        <time>2023-11-26T09:54:20Z</time>
      </trkpt>
      <trkpt lat="43.62804" lon="6.60899">
        <ele>665.9</ele>
        <time>2023-11-26T09:54:21Z</time>
      </trkpt>
      <trkpt lat="43.62805" lon="6.60899">
        <ele>666</ele>
        <time>2023-11-26T09:54:22Z</time>
      </trkpt>
      <trkpt lat="43.62805" lon="6.60898">
        <ele>666</ele>
        <time>2023-11-26T09:54:23Z</time>
      </trkpt>
      <trkpt lat="43.62805" lon="6.60898">
        <ele>666</ele>
        <time>2023-11-26T09:54:24Z</time>
      </trkpt>
      <trkpt lat="43.62808" lon="6.60896">
        <ele>665.9</ele>
        <time>2023-11-26T09:54:25Z</time>
      </trkpt>
      <trkpt lat="43.6281" lon="6.60895">
        <ele>665.9</ele>
        <time>2023-11-26T09:54:26Z</time>
      </trkpt>
      <trkpt lat="43.62812" lon="6.60894">
        <ele>665.9</ele>
        <time>2023-11-26T09:54:27Z</time>
      </trkpt>
      <trkpt lat="43.62812" lon="6.60894">
        <ele>665.9</ele>
        <time>2023-11-26T09:54:28Z</time>
      </trkpt>
      <trkpt lat="43.62813" lon="6.60893">
        <ele>666</ele>
        <time>2023-11-26T09:54:29Z</time>
      </trkpt>
      <trkpt lat="43.62813" lon="6.60893">
        <ele>666</ele>
        <time>2023-11-26T09:54:30Z</time>
      </trkpt>
      <trkpt lat="43.62813" lon="6.60893">
        <ele>666.1</ele>
        <time>2023-11-26T09:54:31Z</time>
      </trkpt>
      <trkpt lat="43.62813" lon="6.60893">
        <ele>666.1</ele>
        <time>2023-11-26T09:54:32Z</time>
      </trkpt>
      <trkpt lat="43.62814" lon="6.60893">
        <ele>666.1</ele>
        <time>2023-11-26T09:54:33Z</time>
      </trkpt>
      <trkpt lat="43.62813" lon="6.60893">
        <ele>666.1</ele>
        <time>2023-11-26T09:54:34Z</time>
      </trkpt>
      <trkpt lat="43.62813" lon="6.60894">
        <ele>666.1</ele>
        <time>2023-11-26T09:54:35Z</time>
      </trkpt>
      <trkpt lat="43.62812" lon="6.60894">
        <ele>666.1</ele>
        <time>2023-11-26T09:54:36Z</time>
      </trkpt>
      <trkpt lat="43.62812" lon="6.60894">
        <ele>666.2</ele>
        <time>2023-11-26T09:54:37Z</time>
      </trkpt>
      <trkpt lat="43.62811" lon="6.60893">
        <ele>666</ele>
        <time>2023-11-26T09:54:38Z</time>
      </trkpt>
      <trkpt lat="43.62811" lon="6.60891">
        <ele>666</ele>
        <time>2023-11-26T09:54:39Z</time>
      </trkpt>
      <trkpt lat="43.62811" lon="6.6089">
        <ele>666</ele>
        <time>2023-11-26T09:54:40Z</time>
      </trkpt>
      <trkpt lat="43.62811" lon="6.60889">
        <ele>666.1</ele>
        <time>2023-11-26T09:54:41Z</time>
      </trkpt>
      <trkpt lat="43.62812" lon="6.60889">
        <ele>666.2</ele>
        <time>2023-11-26T09:54:42Z</time>
      </trkpt>
      <trkpt lat="43.62813" lon="6.60888">
        <ele>666.4</ele>
        <time>2023-11-26T09:54:43Z</time>
      </trkpt>
      <trkpt lat="43.62813" lon="6.60888">
        <ele>666.4</ele>
        <time>2023-11-26T09:54:44Z</time>
      </trkpt>
      <trkpt lat="43.62813" lon="6.60887">
        <ele>666.5</ele>
        <time>2023-11-26T09:54:45Z</time>
      </trkpt>
      <trkpt lat="43.62812" lon="6.60887">
        <ele>666.5</ele>
        <time>2023-11-26T09:54:46Z</time>
      </trkpt>
      <trkpt lat="43.62812" lon="6.60887">
        <ele>666.6</ele>
        <time>2023-11-26T09:54:47Z</time>
      </trkpt>
      <trkpt lat="43.62812" lon="6.60888">
        <ele>666.6</ele>
        <time>2023-11-26T09:54:48Z</time>
      </trkpt>
      <trkpt lat="43.62813" lon="6.60888">
        <ele>666.6</ele>
        <time>2023-11-26T09:54:49Z</time>
      </trkpt>
      <trkpt lat="43.62814" lon="6.60888">
        <ele>666.7</ele>
        <time>2023-11-26T09:54:50Z</time>
      </trkpt>
      <trkpt lat="43.62813" lon="6.60888">
        <ele>666.7</ele>
        <time>2023-11-26T09:54:51Z</time>
      </trkpt>
      <trkpt lat="43.62813" lon="6.60888">
        <ele>666.7</ele>
        <time>2023-11-26T09:54:52Z</time>
      </trkpt>
      <trkpt lat="43.62812" lon="6.60888">
        <ele>666.8</ele>
        <time>2023-11-26T09:54:53Z</time>
      </trkpt>
      <trkpt lat="43.62812" lon="6.60888">
        <ele>666.8</ele>
        <time>2023-11-26T09:54:54Z</time>
      </trkpt>
      <trkpt lat="43.62812" lon="6.60888">
        <ele>666.8</ele>
        <time>2023-11-26T09:54:55Z</time>
      </trkpt>
      <trkpt lat="43.62812" lon="6.60889">
        <ele>666.8</ele>
        <time>2023-11-26T09:54:56Z</time>
      </trkpt>
      <trkpt lat="43.62811" lon="6.60889">
        <ele>666.7</ele>
        <time>2023-11-26T09:54:57Z</time>
      </trkpt>
      <trkpt lat="43.62811" lon="6.60889">
        <ele>666.6</ele>
        <time>2023-11-26T09:54:58Z</time>
      </trkpt>
      <trkpt lat="43.6281" lon="6.60889">
        <ele>666.5</ele>
        <time>2023-11-26T09:54:59Z</time>
      </trkpt>
      <trkpt lat="43.6281" lon="6.60889">
        <ele>666.5</ele>
        <time>2023-11-26T09:55:00Z</time>
      </trkpt>
      <trkpt lat="43.6281" lon="6.60888">
        <ele>666.6</ele>
        <time>2023-11-26T09:55:01Z</time>
      </trkpt>
      <trkpt lat="43.6281" lon="6.60888">
        <ele>666.6</ele>
        <time>2023-11-26T09:55:02Z</time>
      </trkpt>
      <trkpt lat="43.6281" lon="6.60887">
        <ele>666.4</ele>
        <time>2023-11-26T09:55:03Z</time>
      </trkpt>
      <trkpt lat="43.6281" lon="6.60887">
        <ele>666.4</ele>
        <time>2023-11-26T09:55:04Z</time>
      </trkpt>
      <trkpt lat="43.6281" lon="6.60887">
        <ele>666.4</ele>
        <time>2023-11-26T09:55:05Z</time>
      </trkpt>
      <trkpt lat="43.6281" lon="6.60886">
        <ele>666.4</ele>
        <time>2023-11-26T09:55:06Z</time>
      </trkpt>
      <trkpt lat="43.6281" lon="6.60885">
        <ele>666.4</ele>
        <time>2023-11-26T09:55:07Z</time>
      </trkpt>
      <trkpt lat="43.6281" lon="6.60885">
        <ele>666.4</ele>
        <time>2023-11-26T09:55:08Z</time>
      </trkpt>
      <trkpt lat="43.62809" lon="6.60885">
        <ele>666.3</ele>
        <time>2023-11-26T09:55:09Z</time>
      </trkpt>
      <trkpt lat="43.6281" lon="6.60885">
        <ele>666.3</ele>
        <time>2023-11-26T09:55:10Z</time>
      </trkpt>
      <trkpt lat="43.6281" lon="6.60884">
        <ele>666.3</ele>
        <time>2023-11-26T09:55:11Z</time>
      </trkpt>
      <trkpt lat="43.62809" lon="6.60885">
        <ele>666.2</ele>
        <time>2023-11-26T09:55:12Z</time>
      </trkpt>
      <trkpt lat="43.62809" lon="6.60885">
        <ele>666.3</ele>
        <time>2023-11-26T09:55:13Z</time>
      </trkpt>
      <trkpt lat="43.62809" lon="6.60885">
        <ele>666.4</ele>
        <time>2023-11-26T09:55:14Z</time>
      </trkpt>
      <trkpt lat="43.62809" lon="6.60885">
        <ele>666.4</ele>
        <time>2023-11-26T09:55:15Z</time>
      </trkpt>
      <trkpt lat="43.62809" lon="6.60885">
        <ele>666.3</ele>
        <time>2023-11-26T09:55:16Z</time>
      </trkpt>
      <trkpt lat="43.62809" lon="6.60885">
        <ele>666.3</ele>
        <time>2023-11-26T09:55:17Z</time>
      </trkpt>
      <trkpt lat="43.62809" lon="6.60885">
        <ele>666.3</ele>
        <time>2023-11-26T09:55:18Z</time>
      </trkpt>
      <trkpt lat="43.62809" lon="6.60885">
        <ele>666.3</ele>
        <time>2023-11-26T09:55:19Z</time>
      </trkpt>
      <trkpt lat="43.62809" lon="6.60885">
        <ele>666.1</ele>
        <time>2023-11-26T09:55:20Z</time>
      </trkpt>
      <trkpt lat="43.62809" lon="6.60885">
        <ele>666</ele>
        <time>2023-11-26T09:55:21Z</time>
      </trkpt>
      <trkpt lat="43.62809" lon="6.60885">
        <ele>665.9</ele>
        <time>2023-11-26T09:55:22Z</time>
      </trkpt>
      <trkpt lat="43.62809" lon="6.60885">
        <ele>665.9</ele>
        <time>2023-11-26T09:55:23Z</time>
      </trkpt>
      <trkpt lat="43.62809" lon="6.60885">
        <ele>666</ele>
        <time>2023-11-26T09:55:24Z</time>
      </trkpt>
      <trkpt lat="43.62808" lon="6.60885">
        <ele>665.9</ele>
        <time>2023-11-26T09:55:25Z</time>
      </trkpt>
      <trkpt lat="43.62808" lon="6.60885">
        <ele>665.9</ele>
        <time>2023-11-26T09:55:26Z</time>
      </trkpt>
      <trkpt lat="43.62808" lon="6.60885">
        <ele>665.9</ele>
        <time>2023-11-26T09:55:27Z</time>
      </trkpt>
      <trkpt lat="43.62808" lon="6.60885">
        <ele>665.9</ele>
        <time>2023-11-26T09:55:28Z</time>
      </trkpt>
      <trkpt lat="43.62808" lon="6.60885">
        <ele>665.9</ele>
        <time>2023-11-26T09:55:29Z</time>
      </trkpt>
      <trkpt lat="43.62808" lon="6.60885">
        <ele>665.9</ele>
        <time>2023-11-26T09:55:30Z</time>
      </trkpt>
      <trkpt lat="43.62808" lon="6.60885">
        <ele>665.9</ele>
        <time>2023-11-26T09:55:31Z</time>
      </trkpt>
      <trkpt lat="43.62808" lon="6.60885">
        <ele>666</ele>
        <time>2023-11-26T09:55:32Z</time>
      </trkpt>
      <trkpt lat="43.62807" lon="6.60885">
        <ele>666.2</ele>
        <time>2023-11-26T09:55:33Z</time>
      </trkpt>
      <trkpt lat="43.62807" lon="6.60885">
        <ele>666.3</ele>
        <time>2023-11-26T09:55:34Z</time>
      </trkpt>
      <trkpt lat="43.62807" lon="6.60885">
        <ele>666.2</ele>
        <time>2023-11-26T09:55:35Z</time>
      </trkpt>
      <trkpt lat="43.62808" lon="6.60885">
        <ele>666.2</ele>
        <time>2023-11-26T09:55:36Z</time>
      </trkpt>
      <trkpt lat="43.62808" lon="6.60885">
        <ele>666.2</ele>
        <time>2023-11-26T09:55:37Z</time>
      </trkpt>
      <trkpt lat="43.62808" lon="6.60885">
        <ele>666.1</ele>
        <time>2023-11-26T09:55:38Z</time>
      </trkpt>
      <trkpt lat="43.62808" lon="6.60885">
        <ele>666.1</ele>
        <time>2023-11-26T09:55:39Z</time>
      </trkpt>
      <trkpt lat="43.62808" lon="6.60885">
        <ele>666.2</ele>
        <time>2023-11-26T09:55:40Z</time>
      </trkpt>
      <trkpt lat="43.62808" lon="6.60884">
        <ele>666.2</ele>
        <time>2023-11-26T09:55:41Z</time>
      </trkpt>
      <trkpt lat="43.62809" lon="6.60884">
        <ele>666.1</ele>
        <time>2023-11-26T09:55:42Z</time>
      </trkpt>
      <trkpt lat="43.62809" lon="6.60884">
        <ele>666.1</ele>
        <time>2023-11-26T09:55:43Z</time>
      </trkpt>
      <trkpt lat="43.62809" lon="6.60884">
        <ele>666</ele>
        <time>2023-11-26T09:55:44Z</time>
      </trkpt>
      <trkpt lat="43.62809" lon="6.60884">
        <ele>666</ele>
        <time>2023-11-26T09:55:45Z</time>
      </trkpt>
      <trkpt lat="43.62809" lon="6.60884">
        <ele>666</ele>
        <time>2023-11-26T09:55:46Z</time>
      </trkpt>
      <trkpt lat="43.62809" lon="6.60884">
        <ele>666</ele>
        <time>2023-11-26T09:55:47Z</time>
      </trkpt>
      <trkpt lat="43.62809" lon="6.60883">
        <ele>666</ele>
        <time>2023-11-26T09:55:48Z</time>
      </trkpt>
      <trkpt lat="43.62809" lon="6.60883">
        <ele>666</ele>
        <time>2023-11-26T09:55:49Z</time>
      </trkpt>
      <trkpt lat="43.62809" lon="6.60883">
        <ele>666</ele>
        <time>2023-11-26T09:55:50Z</time>
      </trkpt>
      <trkpt lat="43.62809" lon="6.60883">
        <ele>666</ele>
        <time>2023-11-26T09:55:51Z</time>
      </trkpt>
      <trkpt lat="43.62809" lon="6.60883">
        <ele>666.1</ele>
        <time>2023-11-26T09:55:52Z</time>
      </trkpt>
      <trkpt lat="43.62809" lon="6.60883">
        <ele>666.1</ele>
        <time>2023-11-26T09:55:53Z</time>
      </trkpt>
      <trkpt lat="43.6281" lon="6.60883">
        <ele>666.1</ele>
        <time>2023-11-26T09:55:54Z</time>
      </trkpt>
      <trkpt lat="43.6281" lon="6.60883">
        <ele>666.1</ele>
        <time>2023-11-26T09:55:55Z</time>
      </trkpt>
      <trkpt lat="43.6281" lon="6.60883">
        <ele>666.1</ele>
        <time>2023-11-26T09:55:56Z</time>
      </trkpt>
      <trkpt lat="43.6281" lon="6.60883">
        <ele>666.1</ele>
        <time>2023-11-26T09:55:57Z</time>
      </trkpt>
      <trkpt lat="43.6281" lon="6.60883">
        <ele>666.1</ele>
        <time>2023-11-26T09:55:58Z</time>
      </trkpt>
      <trkpt lat="43.62809" lon="6.60883">
        <ele>666</ele>
        <time>2023-11-26T09:55:59Z</time>
      </trkpt>
      <trkpt lat="43.6281" lon="6.60883">
        <ele>666</ele>
        <time>2023-11-26T09:56:00Z</time>
      </trkpt>
      <trkpt lat="43.6281" lon="6.60883">
        <ele>666</ele>
        <time>2023-11-26T09:56:01Z</time>
      </trkpt>
      <trkpt lat="43.6281" lon="6.60883">
        <ele>666</ele>
        <time>2023-11-26T09:56:02Z</time>
      </trkpt>
      <trkpt lat="43.6281" lon="6.60883">
        <ele>665.9</ele>
        <time>2023-11-26T09:56:03Z</time>
      </trkpt>
      <trkpt lat="43.6281" lon="6.60884">
        <ele>666</ele>
        <time>2023-11-26T09:56:04Z</time>
      </trkpt>
      <trkpt lat="43.6281" lon="6.60884">
        <ele>665.9</ele>
        <time>2023-11-26T09:56:05Z</time>
      </trkpt>
      <trkpt lat="43.6281" lon="6.60884">
        <ele>665.9</ele>
        <time>2023-11-26T09:56:06Z</time>
      </trkpt>
      <trkpt lat="43.62811" lon="6.60884">
        <ele>665.9</ele>
        <time>2023-11-26T09:56:07Z</time>
      </trkpt>
      <trkpt lat="43.62811" lon="6.60884">
        <ele>665.9</ele>
        <time>2023-11-26T09:56:08Z</time>
      </trkpt>
      <trkpt lat="43.62811" lon="6.60884">
        <ele>665.9</ele>
        <time>2023-11-26T09:56:09Z</time>
      </trkpt>
      <trkpt lat="43.62811" lon="6.60884">
        <ele>665.9</ele>
        <time>2023-11-26T09:56:10Z</time>
      </trkpt>
      <trkpt lat="43.6281" lon="6.60883">
        <ele>665.9</ele>
        <time>2023-11-26T09:56:11Z</time>
      </trkpt>
      <trkpt lat="43.6281" lon="6.60883">
        <ele>665.9</ele>
        <time>2023-11-26T09:56:12Z</time>
      </trkpt>
      <trkpt lat="43.6281" lon="6.60883">
        <ele>665.9</ele>
        <time>2023-11-26T09:56:13Z</time>
      </trkpt>
      <trkpt lat="43.62811" lon="6.60883">
        <ele>665.9</ele>
        <time>2023-11-26T09:56:14Z</time>
      </trkpt>
      <trkpt lat="43.62811" lon="6.60883">
        <ele>665.9</ele>
        <time>2023-11-26T09:56:15Z</time>
      </trkpt>
      <trkpt lat="43.62811" lon="6.60883">
        <ele>666</ele>
        <time>2023-11-26T09:56:16Z</time>
      </trkpt>
      <trkpt lat="43.62811" lon="6.60883">
        <ele>666.1</ele>
        <time>2023-11-26T09:56:17Z</time>
      </trkpt>
      <trkpt lat="43.62811" lon="6.60883">
        <ele>666.1</ele>
        <time>2023-11-26T09:56:18Z</time>
      </trkpt>
      <trkpt lat="43.62811" lon="6.60883">
        <ele>666.1</ele>
        <time>2023-11-26T09:56:19Z</time>
      </trkpt>
      <trkpt lat="43.62811" lon="6.60883">
        <ele>666</ele>
        <time>2023-11-26T09:56:20Z</time>
      </trkpt>
      <trkpt lat="43.62811" lon="6.60883">
        <ele>666</ele>
        <time>2023-11-26T09:56:21Z</time>
      </trkpt>
      <trkpt lat="43.62811" lon="6.60883">
        <ele>666.1</ele>
        <time>2023-11-26T09:56:22Z</time>
      </trkpt>
      <trkpt lat="43.62811" lon="6.60883">
        <ele>666.1</ele>
        <time>2023-11-26T09:56:23Z</time>
      </trkpt>
      <trkpt lat="43.62811" lon="6.60884">
        <ele>666.1</ele>
        <time>2023-11-26T09:56:24Z</time>
      </trkpt>
      <trkpt lat="43.62811" lon="6.60884">
        <ele>666.1</ele>
        <time>2023-11-26T09:56:25Z</time>
      </trkpt>
      <trkpt lat="43.62811" lon="6.60883">
        <ele>666.1</ele>
        <time>2023-11-26T09:56:26Z</time>
      </trkpt>
      <trkpt lat="43.62811" lon="6.60883">
        <ele>666.1</ele>
        <time>2023-11-26T09:56:27Z</time>
      </trkpt>
      <trkpt lat="43.62811" lon="6.60883">
        <ele>666.2</ele>
        <time>2023-11-26T09:56:28Z</time>
      </trkpt>
      <trkpt lat="43.62811" lon="6.60883">
        <ele>666.2</ele>
        <time>2023-11-26T09:56:29Z</time>
      </trkpt>
      <trkpt lat="43.62811" lon="6.60882">
        <ele>666.3</ele>
        <time>2023-11-26T09:56:30Z</time>
      </trkpt>
      <trkpt lat="43.62811" lon="6.60882">
        <ele>666.4</ele>
        <time>2023-11-26T09:56:31Z</time>
      </trkpt>
      <trkpt lat="43.62811" lon="6.60882">
        <ele>666.4</ele>
        <time>2023-11-26T09:56:32Z</time>
      </trkpt>
      <trkpt lat="43.62811" lon="6.60882">
        <ele>666.4</ele>
        <time>2023-11-26T09:56:33Z</time>
      </trkpt>
      <trkpt lat="43.62811" lon="6.60881">
        <ele>666.4</ele>
        <time>2023-11-26T09:56:34Z</time>
      </trkpt>
      <trkpt lat="43.62811" lon="6.60881">
        <ele>666.3</ele>
        <time>2023-11-26T09:56:35Z</time>
      </trkpt>
      <trkpt lat="43.62811" lon="6.60881">
        <ele>666.3</ele>
        <time>2023-11-26T09:56:36Z</time>
      </trkpt>
      <trkpt lat="43.62811" lon="6.60881">
        <ele>666.3</ele>
        <time>2023-11-26T09:56:37Z</time>
      </trkpt>
      <trkpt lat="43.62811" lon="6.60881">
        <ele>666.4</ele>
        <time>2023-11-26T09:56:38Z</time>
      </trkpt>
      <trkpt lat="43.62812" lon="6.60882">
        <ele>666.4</ele>
        <time>2023-11-26T09:56:39Z</time>
      </trkpt>
      <trkpt lat="43.62811" lon="6.60882">
        <ele>666.4</ele>
        <time>2023-11-26T09:56:40Z</time>
      </trkpt>
      <trkpt lat="43.62812" lon="6.60882">
        <ele>666.5</ele>
        <time>2023-11-26T09:56:41Z</time>
      </trkpt>
      <trkpt lat="43.62812" lon="6.60882">
        <ele>666.5</ele>
        <time>2023-11-26T09:56:42Z</time>
      </trkpt>
      <trkpt lat="43.62811" lon="6.60882">
        <ele>666.6</ele>
        <time>2023-11-26T09:56:43Z</time>
      </trkpt>
      <trkpt lat="43.62811" lon="6.60882">
        <ele>666.5</ele>
        <time>2023-11-26T09:56:44Z</time>
      </trkpt>
      <trkpt lat="43.62811" lon="6.60882">
        <ele>666.5</ele>
        <time>2023-11-26T09:56:45Z</time>
      </trkpt>
      <trkpt lat="43.62811" lon="6.60882">
        <ele>666.4</ele>
        <time>2023-11-26T09:56:46Z</time>
      </trkpt>
      <trkpt lat="43.62811" lon="6.60883">
        <ele>666.4</ele>
        <time>2023-11-26T09:56:47Z</time>
      </trkpt>
      <trkpt lat="43.62811" lon="6.60883">
        <ele>666.3</ele>
        <time>2023-11-26T09:56:48Z</time>
      </trkpt>
      <trkpt lat="43.62811" lon="6.60884">
        <ele>666.2</ele>
        <time>2023-11-26T09:56:49Z</time>
      </trkpt>
      <trkpt lat="43.62811" lon="6.60884">
        <ele>666.2</ele>
        <time>2023-11-26T09:56:50Z</time>
      </trkpt>
      <trkpt lat="43.62811" lon="6.60884">
        <ele>666.2</ele>
        <time>2023-11-26T09:56:51Z</time>
      </trkpt>
      <trkpt lat="43.62811" lon="6.60885">
        <ele>666.2</ele>
        <time>2023-11-26T09:56:52Z</time>
      </trkpt>
      <trkpt lat="43.62811" lon="6.60885">
        <ele>666.1</ele>
        <time>2023-11-26T09:56:53Z</time>
      </trkpt>
      <trkpt lat="43.62811" lon="6.60885">
        <ele>666.2</ele>
        <time>2023-11-26T09:56:54Z</time>
      </trkpt>
      <trkpt lat="43.6281" lon="6.60885">
        <ele>666.2</ele>
        <time>2023-11-26T09:56:55Z</time>
      </trkpt>
      <trkpt lat="43.6281" lon="6.60885">
        <ele>666.1</ele>
        <time>2023-11-26T09:56:56Z</time>
      </trkpt>
      <trkpt lat="43.6281" lon="6.60885">
        <ele>666.1</ele>
        <time>2023-11-26T09:56:57Z</time>
      </trkpt>
      <trkpt lat="43.6281" lon="6.60885">
        <ele>666.1</ele>
        <time>2023-11-26T09:56:58Z</time>
      </trkpt>
      <trkpt lat="43.6281" lon="6.60885">
        <ele>666</ele>
        <time>2023-11-26T09:56:59Z</time>
      </trkpt>
      <trkpt lat="43.6281" lon="6.60885">
        <ele>666</ele>
        <time>2023-11-26T09:57:00Z</time>
      </trkpt>
      <trkpt lat="43.62811" lon="6.60885">
        <ele>666</ele>
        <time>2023-11-26T09:57:01Z</time>
      </trkpt>
      <trkpt lat="43.6281" lon="6.60886">
        <ele>665.9</ele>
        <time>2023-11-26T09:57:02Z</time>
      </trkpt>
      <trkpt lat="43.6281" lon="6.60886">
        <ele>665.9</ele>
        <time>2023-11-26T09:57:03Z</time>
      </trkpt>
      <trkpt lat="43.6281" lon="6.60886">
        <ele>665.9</ele>
        <time>2023-11-26T09:57:04Z</time>
      </trkpt>
      <trkpt lat="43.6281" lon="6.60886">
        <ele>665.9</ele>
        <time>2023-11-26T09:57:05Z</time>
      </trkpt>
      <trkpt lat="43.6281" lon="6.60886">
        <ele>665.9</ele>
        <time>2023-11-26T09:57:06Z</time>
      </trkpt>
      <trkpt lat="43.6281" lon="6.60886">
        <ele>665.9</ele>
        <time>2023-11-26T09:57:07Z</time>
      </trkpt>
      <trkpt lat="43.6281" lon="6.60886">
        <ele>665.9</ele>
        <time>2023-11-26T09:57:08Z</time>
      </trkpt>
      <trkpt lat="43.6281" lon="6.60886">
        <ele>666</ele>
        <time>2023-11-26T09:57:09Z</time>
      </trkpt>
      <trkpt lat="43.62811" lon="6.60886">
        <ele>666</ele>
        <time>2023-11-26T09:57:10Z</time>
      </trkpt>
      <trkpt lat="43.62811" lon="6.60886">
        <ele>666</ele>
        <time>2023-11-26T09:57:11Z</time>
      </trkpt>
      <trkpt lat="43.62811" lon="6.60886">
        <ele>666</ele>
        <time>2023-11-26T09:57:12Z</time>
      </trkpt>
      <trkpt lat="43.62811" lon="6.60886">
        <ele>666</ele>
        <time>2023-11-26T09:57:13Z</time>
      </trkpt>
      <trkpt lat="43.6281" lon="6.60886">
        <ele>666.1</ele>
        <time>2023-11-26T09:57:14Z</time>
      </trkpt>
      <trkpt lat="43.6281" lon="6.60886">
        <ele>666.1</ele>
        <time>2023-11-26T09:57:15Z</time>
      </trkpt>
      <trkpt lat="43.6281" lon="6.60886">
        <ele>666.1</ele>
        <time>2023-11-26T09:57:16Z</time>
      </trkpt>
      <trkpt lat="43.6281" lon="6.60887">
        <ele>666.1</ele>
        <time>2023-11-26T09:57:17Z</time>
      </trkpt>
      <trkpt lat="43.6281" lon="6.60887">
        <ele>666.2</ele>
        <time>2023-11-26T09:57:18Z</time>
      </trkpt>
      <trkpt lat="43.6281" lon="6.60887">
        <ele>666.2</ele>
        <time>2023-11-26T09:57:19Z</time>
      </trkpt>
      <trkpt lat="43.62809" lon="6.60887">
        <ele>666.2</ele>
        <time>2023-11-26T09:57:20Z</time>
      </trkpt>
      <trkpt lat="43.62809" lon="6.60887">
        <ele>666.2</ele>
        <time>2023-11-26T09:57:21Z</time>
      </trkpt>
      <trkpt lat="43.62809" lon="6.60887">
        <ele>666.2</ele>
        <time>2023-11-26T09:57:22Z</time>
      </trkpt>
      <trkpt lat="43.62809" lon="6.60887">
        <ele>666.3</ele>
        <time>2023-11-26T09:57:23Z</time>
      </trkpt>
      <trkpt lat="43.62809" lon="6.60886">
        <ele>666.4</ele>
        <time>2023-11-26T09:57:24Z</time>
      </trkpt>
      <trkpt lat="43.62808" lon="6.60886">
        <ele>666.4</ele>
        <time>2023-11-26T09:57:25Z</time>
      </trkpt>
      <trkpt lat="43.62808" lon="6.60886">
        <ele>666.5</ele>
        <time>2023-11-26T09:57:26Z</time>
      </trkpt>
      <trkpt lat="43.62808" lon="6.60887">
        <ele>666.6</ele>
        <time>2023-11-26T09:57:27Z</time>
      </trkpt>
      <trkpt lat="43.62808" lon="6.60887">
        <ele>666.6</ele>
        <time>2023-11-26T09:57:28Z</time>
      </trkpt>
      <trkpt lat="43.62808" lon="6.60887">
        <ele>666.6</ele>
        <time>2023-11-26T09:57:29Z</time>
      </trkpt>
      <trkpt lat="43.62808" lon="6.60887">
        <ele>666.6</ele>
        <time>2023-11-26T09:57:30Z</time>
      </trkpt>
      <trkpt lat="43.62808" lon="6.60887">
        <ele>666.6</ele>
        <time>2023-11-26T09:57:31Z</time>
      </trkpt>
      <trkpt lat="43.62808" lon="6.60887">
        <ele>666.6</ele>
        <time>2023-11-26T09:57:32Z</time>
      </trkpt>
      <trkpt lat="43.62807" lon="6.60887">
        <ele>666.6</ele>
        <time>2023-11-26T09:57:33Z</time>
      </trkpt>
      <trkpt lat="43.62807" lon="6.60887">
        <ele>666.5</ele>
        <time>2023-11-26T09:57:34Z</time>
      </trkpt>
      <trkpt lat="43.62807" lon="6.60887">
        <ele>666.5</ele>
        <time>2023-11-26T09:57:35Z</time>
      </trkpt>
      <trkpt lat="43.62807" lon="6.60887">
        <ele>666.5</ele>
        <time>2023-11-26T09:57:36Z</time>
      </trkpt>
      <trkpt lat="43.62807" lon="6.60887">
        <ele>666.5</ele>
        <time>2023-11-26T09:57:37Z</time>
      </trkpt>
      <trkpt lat="43.62806" lon="6.60887">
        <ele>666.4</ele>
        <time>2023-11-26T09:57:38Z</time>
      </trkpt>
      <trkpt lat="43.62806" lon="6.60887">
        <ele>666.3</ele>
        <time>2023-11-26T09:57:39Z</time>
      </trkpt>
      <trkpt lat="43.62806" lon="6.60887">
        <ele>666.3</ele>
        <time>2023-11-26T09:57:40Z</time>
      </trkpt>
      <trkpt lat="43.62806" lon="6.60887">
        <ele>666.3</ele>
        <time>2023-11-26T09:57:41Z</time>
      </trkpt>
      <trkpt lat="43.62806" lon="6.60887">
        <ele>666.2</ele>
        <time>2023-11-26T09:57:42Z</time>
      </trkpt>
      <trkpt lat="43.62806" lon="6.60887">
        <ele>666.2</ele>
        <time>2023-11-26T09:57:43Z</time>
      </trkpt>
      <trkpt lat="43.62806" lon="6.60888">
        <ele>666.2</ele>
        <time>2023-11-26T09:57:44Z</time>
      </trkpt>
      <trkpt lat="43.62805" lon="6.60888">
        <ele>666.1</ele>
        <time>2023-11-26T09:57:45Z</time>
      </trkpt>
      <trkpt lat="43.62805" lon="6.60888">
        <ele>666.2</ele>
        <time>2023-11-26T09:57:46Z</time>
      </trkpt>
      <trkpt lat="43.62805" lon="6.60888">
        <ele>666.3</ele>
        <time>2023-11-26T09:57:47Z</time>
      </trkpt>
      <trkpt lat="43.62805" lon="6.60887">
        <ele>666.2</ele>
        <time>2023-11-26T09:57:48Z</time>
      </trkpt>
      <trkpt lat="43.62805" lon="6.60887">
        <ele>666.1</ele>
        <time>2023-11-26T09:57:49Z</time>
      </trkpt>
      <trkpt lat="43.62805" lon="6.60887">
        <ele>666.1</ele>
        <time>2023-11-26T09:57:50Z</time>
      </trkpt>
      <trkpt lat="43.62805" lon="6.60887">
        <ele>666.2</ele>
        <time>2023-11-26T09:57:51Z</time>
      </trkpt>
      <trkpt lat="43.62805" lon="6.60887">
        <ele>666.2</ele>
        <time>2023-11-26T09:57:52Z</time>
      </trkpt>
      <trkpt lat="43.62805" lon="6.60887">
        <ele>666.2</ele>
        <time>2023-11-26T09:57:53Z</time>
      </trkpt>
      <trkpt lat="43.62805" lon="6.60887">
        <ele>666.2</ele>
        <time>2023-11-26T09:57:54Z</time>
      </trkpt>
      <trkpt lat="43.62804" lon="6.60887">
        <ele>666.1</ele>
        <time>2023-11-26T09:57:55Z</time>
      </trkpt>
      <trkpt lat="43.62804" lon="6.60887">
        <ele>666.1</ele>
        <time>2023-11-26T09:57:56Z</time>
      </trkpt>
      <trkpt lat="43.62804" lon="6.60887">
        <ele>666</ele>
        <time>2023-11-26T09:57:57Z</time>
      </trkpt>
      <trkpt lat="43.62804" lon="6.60887">
        <ele>666</ele>
        <time>2023-11-26T09:57:58Z</time>
      </trkpt>
      <trkpt lat="43.62804" lon="6.60887">
        <ele>665.9</ele>
        <time>2023-11-26T09:57:59Z</time>
      </trkpt>
      <trkpt lat="43.62804" lon="6.60887">
        <ele>665.9</ele>
        <time>2023-11-26T09:58:00Z</time>
      </trkpt>
      <trkpt lat="43.62803" lon="6.60887">
        <ele>665.9</ele>
        <time>2023-11-26T09:58:01Z</time>
      </trkpt>
      <trkpt lat="43.62803" lon="6.60887">
        <ele>665.9</ele>
        <time>2023-11-26T09:58:02Z</time>
      </trkpt>
      <trkpt lat="43.62803" lon="6.60887">
        <ele>665.9</ele>
        <time>2023-11-26T09:58:03Z</time>
      </trkpt>
      <trkpt lat="43.62803" lon="6.60887">
        <ele>665.8</ele>
        <time>2023-11-26T09:58:04Z</time>
      </trkpt>
      <trkpt lat="43.62803" lon="6.60887">
        <ele>665.9</ele>
        <time>2023-11-26T09:58:05Z</time>
      </trkpt>
      <trkpt lat="43.62803" lon="6.60887">
        <ele>665.9</ele>
        <time>2023-11-26T09:58:06Z</time>
      </trkpt>
      <trkpt lat="43.62803" lon="6.60887">
        <ele>666</ele>
        <time>2023-11-26T09:58:07Z</time>
      </trkpt>
      <trkpt lat="43.62803" lon="6.60887">
        <ele>665.9</ele>
        <time>2023-11-26T09:58:08Z</time>
      </trkpt>
      <trkpt lat="43.62803" lon="6.60887">
        <ele>665.8</ele>
        <time>2023-11-26T09:58:09Z</time>
      </trkpt>
      <trkpt lat="43.62804" lon="6.60887">
        <ele>665.8</ele>
        <time>2023-11-26T09:58:10Z</time>
      </trkpt>
      <trkpt lat="43.62804" lon="6.60887">
        <ele>665.8</ele>
        <time>2023-11-26T09:58:11Z</time>
      </trkpt>
      <trkpt lat="43.62804" lon="6.60887">
        <ele>665.8</ele>
        <time>2023-11-26T09:58:12Z</time>
      </trkpt>
      <trkpt lat="43.62804" lon="6.60887">
        <ele>665.8</ele>
        <time>2023-11-26T09:58:13Z</time>
      </trkpt>
      <trkpt lat="43.62804" lon="6.60887">
        <ele>665.8</ele>
        <time>2023-11-26T09:58:14Z</time>
      </trkpt>
      <trkpt lat="43.62804" lon="6.60887">
        <ele>665.9</ele>
        <time>2023-11-26T09:58:15Z</time>
      </trkpt>
      <trkpt lat="43.62804" lon="6.60887">
        <ele>665.9</ele>
        <time>2023-11-26T09:58:16Z</time>
      </trkpt>
      <trkpt lat="43.62804" lon="6.60887">
        <ele>665.9</ele>
        <time>2023-11-26T09:58:17Z</time>
      </trkpt>
      <trkpt lat="43.62804" lon="6.60887">
        <ele>665.9</ele>
        <time>2023-11-26T09:58:18Z</time>
      </trkpt>
      <trkpt lat="43.62804" lon="6.60886">
        <ele>665.9</ele>
        <time>2023-11-26T09:58:19Z</time>
      </trkpt>
      <trkpt lat="43.62804" lon="6.60886">
        <ele>665.8</ele>
        <time>2023-11-26T09:58:20Z</time>
      </trkpt>
      <trkpt lat="43.62804" lon="6.60886">
        <ele>665.8</ele>
        <time>2023-11-26T09:58:21Z</time>
      </trkpt>
      <trkpt lat="43.62804" lon="6.60886">
        <ele>665.8</ele>
        <time>2023-11-26T09:58:22Z</time>
      </trkpt>
      <trkpt lat="43.62804" lon="6.60886">
        <ele>665.8</ele>
        <time>2023-11-26T09:58:23Z</time>
      </trkpt>
      <trkpt lat="43.62805" lon="6.60886">
        <ele>665.8</ele>
        <time>2023-11-26T09:58:24Z</time>
      </trkpt>
      <trkpt lat="43.62805" lon="6.60886">
        <ele>665.8</ele>
        <time>2023-11-26T09:58:25Z</time>
      </trkpt>
      <trkpt lat="43.62805" lon="6.60886">
        <ele>665.8</ele>
        <time>2023-11-26T09:58:26Z</time>
      </trkpt>
      <trkpt lat="43.62805" lon="6.60886">
        <ele>665.8</ele>
        <time>2023-11-26T09:58:27Z</time>
      </trkpt>
      <trkpt lat="43.62805" lon="6.60886">
        <ele>665.9</ele>
        <time>2023-11-26T09:58:28Z</time>
      </trkpt>
      <trkpt lat="43.62805" lon="6.60886">
        <ele>666</ele>
        <time>2023-11-26T09:58:29Z</time>
      </trkpt>
      <trkpt lat="43.62805" lon="6.60886">
        <ele>666</ele>
        <time>2023-11-26T09:58:30Z</time>
      </trkpt>
      <trkpt lat="43.62805" lon="6.60886">
        <ele>666</ele>
        <time>2023-11-26T09:58:31Z</time>
      </trkpt>
      <trkpt lat="43.62805" lon="6.60886">
        <ele>666</ele>
        <time>2023-11-26T09:58:32Z</time>
      </trkpt>
      <trkpt lat="43.62805" lon="6.60886">
        <ele>665.9</ele>
        <time>2023-11-26T09:58:33Z</time>
      </trkpt>
      <trkpt lat="43.62805" lon="6.60886">
        <ele>665.9</ele>
        <time>2023-11-26T09:58:34Z</time>
      </trkpt>
      <trkpt lat="43.62804" lon="6.60886">
        <ele>665.9</ele>
        <time>2023-11-26T09:58:35Z</time>
      </trkpt>
      <trkpt lat="43.62804" lon="6.60886">
        <ele>666</ele>
        <time>2023-11-26T09:58:36Z</time>
      </trkpt>
      <trkpt lat="43.62804" lon="6.60886">
        <ele>666.1</ele>
        <time>2023-11-26T09:58:37Z</time>
      </trkpt>
      <trkpt lat="43.62804" lon="6.60886">
        <ele>666</ele>
        <time>2023-11-26T09:58:38Z</time>
      </trkpt>
      <trkpt lat="43.62804" lon="6.60886">
        <ele>666</ele>
        <time>2023-11-26T09:58:39Z</time>
      </trkpt>
      <trkpt lat="43.62804" lon="6.60886">
        <ele>666.1</ele>
        <time>2023-11-26T09:58:40Z</time>
      </trkpt>
      <trkpt lat="43.62804" lon="6.60886">
        <ele>666</ele>
        <time>2023-11-26T09:58:41Z</time>
      </trkpt>
      <trkpt lat="43.62804" lon="6.60886">
        <ele>666</ele>
        <time>2023-11-26T09:58:42Z</time>
      </trkpt>
      <trkpt lat="43.62804" lon="6.60886">
        <ele>666</ele>
        <time>2023-11-26T09:58:43Z</time>
      </trkpt>
      <trkpt lat="43.62804" lon="6.60886">
        <ele>666</ele>
        <time>2023-11-26T09:58:44Z</time>
      </trkpt>
      <trkpt lat="43.62804" lon="6.60886">
        <ele>666.1</ele>
        <time>2023-11-26T09:58:45Z</time>
      </trkpt>
      <trkpt lat="43.62804" lon="6.60886">
        <ele>666</ele>
        <time>2023-11-26T09:58:46Z</time>
      </trkpt>
      <trkpt lat="43.62804" lon="6.60886">
        <ele>666</ele>
        <time>2023-11-26T09:58:47Z</time>
      </trkpt>
      <trkpt lat="43.62804" lon="6.60886">
        <ele>666</ele>
        <time>2023-11-26T09:58:48Z</time>
      </trkpt>
      <trkpt lat="43.62804" lon="6.60886">
        <ele>666</ele>
        <time>2023-11-26T09:58:49Z</time>
      </trkpt>
      <trkpt lat="43.62804" lon="6.60886">
        <ele>666</ele>
        <time>2023-11-26T09:58:50Z</time>
      </trkpt>
      <trkpt lat="43.62804" lon="6.60886">
        <ele>666.1</ele>
        <time>2023-11-26T09:58:51Z</time>
      </trkpt>
      <trkpt lat="43.62804" lon="6.60886">
        <ele>666.1</ele>
        <time>2023-11-26T09:58:52Z</time>
      </trkpt>
      <trkpt lat="43.62804" lon="6.60886">
        <ele>666.1</ele>
        <time>2023-11-26T09:58:53Z</time>
      </trkpt>
      <trkpt lat="43.62804" lon="6.60886">
        <ele>666.1</ele>
        <time>2023-11-26T09:58:54Z</time>
      </trkpt>
      <trkpt lat="43.62804" lon="6.60886">
        <ele>666.1</ele>
        <time>2023-11-26T09:58:55Z</time>
      </trkpt>
      <trkpt lat="43.62804" lon="6.60887">
        <ele>666</ele>
        <time>2023-11-26T09:58:56Z</time>
      </trkpt>
      <trkpt lat="43.62804" lon="6.60887">
        <ele>666</ele>
        <time>2023-11-26T09:58:57Z</time>
      </trkpt>
      <trkpt lat="43.62804" lon="6.60887">
        <ele>666.1</ele>
        <time>2023-11-26T09:58:58Z</time>
      </trkpt>
      <trkpt lat="43.62804" lon="6.60887">
        <ele>666.1</ele>
        <time>2023-11-26T09:58:59Z</time>
      </trkpt>
      <trkpt lat="43.62804" lon="6.60887">
        <ele>666.1</ele>
        <time>2023-11-26T09:59:00Z</time>
      </trkpt>
      <trkpt lat="43.62804" lon="6.60887">
        <ele>666.1</ele>
        <time>2023-11-26T09:59:01Z</time>
      </trkpt>
      <trkpt lat="43.62804" lon="6.60887">
        <ele>666.1</ele>
        <time>2023-11-26T09:59:02Z</time>
      </trkpt>
      <trkpt lat="43.62804" lon="6.60887">
        <ele>666.2</ele>
        <time>2023-11-26T09:59:03Z</time>
      </trkpt>
      <trkpt lat="43.62805" lon="6.60887">
        <ele>666.3</ele>
        <time>2023-11-26T09:59:04Z</time>
      </trkpt>
      <trkpt lat="43.62805" lon="6.60887">
        <ele>666.3</ele>
        <time>2023-11-26T09:59:05Z</time>
      </trkpt>
      <trkpt lat="43.62804" lon="6.60887">
        <ele>666.3</ele>
        <time>2023-11-26T09:59:06Z</time>
      </trkpt>
      <trkpt lat="43.62804" lon="6.60887">
        <ele>666.2</ele>
        <time>2023-11-26T09:59:07Z</time>
      </trkpt>
      <trkpt lat="43.62804" lon="6.60887">
        <ele>666.2</ele>
        <time>2023-11-26T09:59:08Z</time>
      </trkpt>
      <trkpt lat="43.62804" lon="6.60887">
        <ele>666.2</ele>
        <time>2023-11-26T09:59:09Z</time>
      </trkpt>
      <trkpt lat="43.62804" lon="6.60887">
        <ele>666.1</ele>
        <time>2023-11-26T09:59:10Z</time>
      </trkpt>
      <trkpt lat="43.62804" lon="6.60887">
        <ele>666.1</ele>
        <time>2023-11-26T09:59:11Z</time>
      </trkpt>
      <trkpt lat="43.62804" lon="6.60887">
        <ele>666.1</ele>
        <time>2023-11-26T09:59:12Z</time>
      </trkpt>
      <trkpt lat="43.62804" lon="6.60887">
        <ele>666.2</ele>
        <time>2023-11-26T09:59:13Z</time>
      </trkpt>
      <trkpt lat="43.62803" lon="6.60887">
        <ele>666.2</ele>
        <time>2023-11-26T09:59:14Z</time>
      </trkpt>
      <trkpt lat="43.62803" lon="6.60887">
        <ele>666.3</ele>
        <time>2023-11-26T09:59:15Z</time>
      </trkpt>
      <trkpt lat="43.62803" lon="6.60887">
        <ele>666.3</ele>
        <time>2023-11-26T09:59:16Z</time>
      </trkpt>
      <trkpt lat="43.62803" lon="6.60887">
        <ele>666.3</ele>
        <time>2023-11-26T09:59:17Z</time>
      </trkpt>
      <trkpt lat="43.62803" lon="6.60887">
        <ele>666.2</ele>
        <time>2023-11-26T09:59:18Z</time>
      </trkpt>
      <trkpt lat="43.62803" lon="6.60887">
        <ele>666.1</ele>
        <time>2023-11-26T09:59:19Z</time>
      </trkpt>
      <trkpt lat="43.62803" lon="6.60887">
        <ele>666</ele>
        <time>2023-11-26T09:59:20Z</time>
      </trkpt>
      <trkpt lat="43.62803" lon="6.60887">
        <ele>666</ele>
        <time>2023-11-26T09:59:21Z</time>
      </trkpt>
      <trkpt lat="43.62803" lon="6.60887">
        <ele>666</ele>
        <time>2023-11-26T09:59:22Z</time>
      </trkpt>
      <trkpt lat="43.62803" lon="6.60886">
        <ele>666</ele>
        <time>2023-11-26T09:59:23Z</time>
      </trkpt>
      <trkpt lat="43.62803" lon="6.60886">
        <ele>665.9</ele>
        <time>2023-11-26T09:59:24Z</time>
      </trkpt>
      <trkpt lat="43.62803" lon="6.60886">
        <ele>665.9</ele>
        <time>2023-11-26T09:59:25Z</time>
      </trkpt>
      <trkpt lat="43.62803" lon="6.60887">
        <ele>665.9</ele>
        <time>2023-11-26T09:59:26Z</time>
      </trkpt>
      <trkpt lat="43.62803" lon="6.60887">
        <ele>665.9</ele>
        <time>2023-11-26T09:59:27Z</time>
      </trkpt>
      <trkpt lat="43.62803" lon="6.60887">
        <ele>666</ele>
        <time>2023-11-26T09:59:28Z</time>
      </trkpt>
      <trkpt lat="43.62803" lon="6.60886">
        <ele>666</ele>
        <time>2023-11-26T09:59:29Z</time>
      </trkpt>
      <trkpt lat="43.62803" lon="6.60886">
        <ele>665.9</ele>
        <time>2023-11-26T09:59:30Z</time>
      </trkpt>
      <trkpt lat="43.62803" lon="6.60886">
        <ele>665.8</ele>
        <time>2023-11-26T09:59:31Z</time>
      </trkpt>
      <trkpt lat="43.62803" lon="6.60886">
        <ele>665.8</ele>
        <time>2023-11-26T09:59:32Z</time>
      </trkpt>
      <trkpt lat="43.62803" lon="6.60886">
        <ele>665.7</ele>
        <time>2023-11-26T09:59:33Z</time>
      </trkpt>
      <trkpt lat="43.62803" lon="6.60886">
        <ele>665.8</ele>
        <time>2023-11-26T09:59:34Z</time>
      </trkpt>
      <trkpt lat="43.62803" lon="6.60886">
        <ele>665.8</ele>
        <time>2023-11-26T09:59:35Z</time>
      </trkpt>
      <trkpt lat="43.62803" lon="6.60886">
        <ele>665.8</ele>
        <time>2023-11-26T09:59:36Z</time>
      </trkpt>
      <trkpt lat="43.62803" lon="6.60886">
        <ele>665.8</ele>
        <time>2023-11-26T09:59:37Z</time>
      </trkpt>
      <trkpt lat="43.62803" lon="6.60886">
        <ele>665.8</ele>
        <time>2023-11-26T09:59:38Z</time>
      </trkpt>
      <trkpt lat="43.62803" lon="6.60887">
        <ele>665.8</ele>
        <time>2023-11-26T09:59:39Z</time>
      </trkpt>
      <trkpt lat="43.62803" lon="6.60887">
        <ele>665.8</ele>
        <time>2023-11-26T09:59:40Z</time>
      </trkpt>
      <trkpt lat="43.62803" lon="6.60887">
        <ele>665.8</ele>
        <time>2023-11-26T09:59:41Z</time>
      </trkpt>
      <trkpt lat="43.62803" lon="6.60887">
        <ele>665.8</ele>
        <time>2023-11-26T09:59:42Z</time>
      </trkpt>
      <trkpt lat="43.62803" lon="6.60887">
        <ele>665.9</ele>
        <time>2023-11-26T09:59:43Z</time>
      </trkpt>
      <trkpt lat="43.62803" lon="6.60887">
        <ele>665.9</ele>
        <time>2023-11-26T09:59:44Z</time>
      </trkpt>
      <trkpt lat="43.62803" lon="6.60887">
        <ele>665.9</ele>
        <time>2023-11-26T09:59:45Z</time>
      </trkpt>
      <trkpt lat="43.62803" lon="6.60887">
        <ele>665.8</ele>
        <time>2023-11-26T09:59:46Z</time>
      </trkpt>
      <trkpt lat="43.62803" lon="6.60887">
        <ele>665.8</ele>
        <time>2023-11-26T09:59:47Z</time>
      </trkpt>
      <trkpt lat="43.62803" lon="6.60888">
        <ele>665.7</ele>
        <time>2023-11-26T09:59:48Z</time>
      </trkpt>
      <trkpt lat="43.62803" lon="6.60888">
        <ele>665.7</ele>
        <time>2023-11-26T09:59:49Z</time>
      </trkpt>
      <trkpt lat="43.62802" lon="6.60888">
        <ele>665.6</ele>
        <time>2023-11-26T09:59:50Z</time>
      </trkpt>
      <trkpt lat="43.62802" lon="6.60888">
        <ele>665.6</ele>
        <time>2023-11-26T09:59:51Z</time>
      </trkpt>
      <trkpt lat="43.62802" lon="6.60888">
        <ele>665.6</ele>
        <time>2023-11-26T09:59:52Z</time>
      </trkpt>
      <trkpt lat="43.62803" lon="6.60888">
        <ele>665.6</ele>
        <time>2023-11-26T09:59:53Z</time>
      </trkpt>
      <trkpt lat="43.62802" lon="6.60888">
        <ele>665.5</ele>
        <time>2023-11-26T09:59:54Z</time>
      </trkpt>
      <trkpt lat="43.62803" lon="6.60888">
        <ele>665.4</ele>
        <time>2023-11-26T09:59:55Z</time>
      </trkpt>
      <trkpt lat="43.62803" lon="6.60889">
        <ele>665.4</ele>
        <time>2023-11-26T09:59:56Z</time>
      </trkpt>
      <trkpt lat="43.62803" lon="6.60889">
        <ele>665.4</ele>
        <time>2023-11-26T09:59:57Z</time>
      </trkpt>
      <trkpt lat="43.62803" lon="6.60889">
        <ele>665.4</ele>
        <time>2023-11-26T09:59:58Z</time>
      </trkpt>
      <trkpt lat="43.62804" lon="6.60889">
        <ele>665.4</ele>
        <time>2023-11-26T09:59:59Z</time>
      </trkpt>
      <trkpt lat="43.62804" lon="6.60889">
        <ele>665.5</ele>
        <time>2023-11-26T10:00:00Z</time>
      </trkpt>
      <trkpt lat="43.62804" lon="6.60889">
        <ele>665.4</ele>
        <time>2023-11-26T10:00:01Z</time>
      </trkpt>
      <trkpt lat="43.62804" lon="6.60889">
        <ele>665.4</ele>
        <time>2023-11-26T10:00:02Z</time>
      </trkpt>
      <trkpt lat="43.62805" lon="6.6089">
        <ele>665.4</ele>
        <time>2023-11-26T10:00:03Z</time>
      </trkpt>
      <trkpt lat="43.62805" lon="6.60889">
        <ele>665.3</ele>
        <time>2023-11-26T10:00:04Z</time>
      </trkpt>
      <trkpt lat="43.62805" lon="6.6089">
        <ele>665.3</ele>
        <time>2023-11-26T10:00:05Z</time>
      </trkpt>
      <trkpt lat="43.62805" lon="6.6089">
        <ele>665.4</ele>
        <time>2023-11-26T10:00:06Z</time>
      </trkpt>
      <trkpt lat="43.62806" lon="6.6089">
        <ele>665.4</ele>
        <time>2023-11-26T10:00:07Z</time>
      </trkpt>
      <trkpt lat="43.62806" lon="6.60891">
        <ele>665.4</ele>
        <time>2023-11-26T10:00:08Z</time>
      </trkpt>
      <trkpt lat="43.62806" lon="6.60891">
        <ele>665.4</ele>
        <time>2023-11-26T10:00:09Z</time>
      </trkpt>
      <trkpt lat="43.62806" lon="6.60891">
        <ele>665.4</ele>
        <time>2023-11-26T10:00:10Z</time>
      </trkpt>
      <trkpt lat="43.62806" lon="6.60891">
        <ele>665.5</ele>
        <time>2023-11-26T10:00:11Z</time>
      </trkpt>
      <trkpt lat="43.62806" lon="6.60891">
        <ele>665.5</ele>
        <time>2023-11-26T10:00:12Z</time>
      </trkpt>
      <trkpt lat="43.62806" lon="6.60891">
        <ele>665.5</ele>
        <time>2023-11-26T10:00:13Z</time>
      </trkpt>
      <trkpt lat="43.62806" lon="6.60892">
        <ele>665.5</ele>
        <time>2023-11-26T10:00:14Z</time>
      </trkpt>
      <trkpt lat="43.62806" lon="6.60892">
        <ele>665.4</ele>
        <time>2023-11-26T10:00:15Z</time>
      </trkpt>
      <trkpt lat="43.62806" lon="6.60892">
        <ele>665.5</ele>
        <time>2023-11-26T10:00:16Z</time>
      </trkpt>
      <trkpt lat="43.62806" lon="6.60892">
        <ele>665.5</ele>
        <time>2023-11-26T10:00:17Z</time>
      </trkpt>
      <trkpt lat="43.62806" lon="6.60892">
        <ele>665.5</ele>
        <time>2023-11-26T10:00:18Z</time>
      </trkpt>
      <trkpt lat="43.62807" lon="6.60892">
        <ele>665.5</ele>
        <time>2023-11-26T10:00:19Z</time>
      </trkpt>
      <trkpt lat="43.62807" lon="6.60892">
        <ele>665.5</ele>
        <time>2023-11-26T10:00:20Z</time>
      </trkpt>
      <trkpt lat="43.62807" lon="6.60892">
        <ele>665.5</ele>
        <time>2023-11-26T10:00:21Z</time>
      </trkpt>
      <trkpt lat="43.62807" lon="6.60892">
        <ele>665.5</ele>
        <time>2023-11-26T10:00:22Z</time>
      </trkpt>
      <trkpt lat="43.62807" lon="6.60893">
        <ele>665.4</ele>
        <time>2023-11-26T10:00:23Z</time>
      </trkpt>
      <trkpt lat="43.62807" lon="6.60893">
        <ele>665.4</ele>
        <time>2023-11-26T10:00:24Z</time>
      </trkpt>
      <trkpt lat="43.62807" lon="6.60893">
        <ele>665.5</ele>
        <time>2023-11-26T10:00:25Z</time>
      </trkpt>
      <trkpt lat="43.62806" lon="6.60893">
        <ele>665.4</ele>
        <time>2023-11-26T10:00:26Z</time>
      </trkpt>
      <trkpt lat="43.62806" lon="6.60893">
        <ele>665.4</ele>
        <time>2023-11-26T10:00:27Z</time>
      </trkpt>
      <trkpt lat="43.62806" lon="6.60893">
        <ele>665.4</ele>
        <time>2023-11-26T10:00:28Z</time>
      </trkpt>
      <trkpt lat="43.62806" lon="6.60893">
        <ele>665.4</ele>
        <time>2023-11-26T10:00:29Z</time>
      </trkpt>
      <trkpt lat="43.62806" lon="6.60893">
        <ele>665.5</ele>
        <time>2023-11-26T10:00:30Z</time>
      </trkpt>
      <trkpt lat="43.62805" lon="6.60893">
        <ele>665.5</ele>
        <time>2023-11-26T10:00:31Z</time>
      </trkpt>
      <trkpt lat="43.62805" lon="6.60893">
        <ele>665.6</ele>
        <time>2023-11-26T10:00:32Z</time>
      </trkpt>
      <trkpt lat="43.62805" lon="6.60893">
        <ele>665.7</ele>
        <time>2023-11-26T10:00:33Z</time>
      </trkpt>
      <trkpt lat="43.62805" lon="6.60893">
        <ele>665.8</ele>
        <time>2023-11-26T10:00:34Z</time>
      </trkpt>
      <trkpt lat="43.62805" lon="6.60893">
        <ele>665.8</ele>
        <time>2023-11-26T10:00:35Z</time>
      </trkpt>
      <trkpt lat="43.62805" lon="6.60893">
        <ele>665.9</ele>
        <time>2023-11-26T10:00:36Z</time>
      </trkpt>
      <trkpt lat="43.62805" lon="6.60893">
        <ele>665.9</ele>
        <time>2023-11-26T10:00:37Z</time>
      </trkpt>
      <trkpt lat="43.62805" lon="6.60893">
        <ele>665.9</ele>
        <time>2023-11-26T10:00:38Z</time>
      </trkpt>
      <trkpt lat="43.62805" lon="6.60894">
        <ele>665.8</ele>
        <time>2023-11-26T10:00:39Z</time>
      </trkpt>
      <trkpt lat="43.62806" lon="6.60894">
        <ele>665.9</ele>
        <time>2023-11-26T10:00:40Z</time>
      </trkpt>
      <trkpt lat="43.62806" lon="6.60894">
        <ele>665.8</ele>
        <time>2023-11-26T10:00:41Z</time>
      </trkpt>
      <trkpt lat="43.62806" lon="6.60894">
        <ele>665.8</ele>
        <time>2023-11-26T10:00:42Z</time>
      </trkpt>
      <trkpt lat="43.62806" lon="6.60894">
        <ele>665.8</ele>
        <time>2023-11-26T10:00:43Z</time>
      </trkpt>
      <trkpt lat="43.62805" lon="6.60895">
        <ele>665.7</ele>
        <time>2023-11-26T10:00:44Z</time>
      </trkpt>
      <trkpt lat="43.62805" lon="6.60894">
        <ele>665.7</ele>
        <time>2023-11-26T10:00:45Z</time>
      </trkpt>
      <trkpt lat="43.62805" lon="6.60894">
        <ele>665.7</ele>
        <time>2023-11-26T10:00:46Z</time>
      </trkpt>
      <trkpt lat="43.62804" lon="6.60894">
        <ele>665.7</ele>
        <time>2023-11-26T10:00:47Z</time>
      </trkpt>
      <trkpt lat="43.62804" lon="6.60893">
        <ele>665.6</ele>
        <time>2023-11-26T10:00:48Z</time>
      </trkpt>
      <trkpt lat="43.62804" lon="6.60893">
        <ele>665.7</ele>
        <time>2023-11-26T10:00:49Z</time>
      </trkpt>
      <trkpt lat="43.62804" lon="6.60893">
        <ele>665.7</ele>
        <time>2023-11-26T10:00:50Z</time>
      </trkpt>
      <trkpt lat="43.62804" lon="6.60893">
        <ele>665.8</ele>
        <time>2023-11-26T10:00:51Z</time>
      </trkpt>
      <trkpt lat="43.62804" lon="6.60892">
        <ele>665.8</ele>
        <time>2023-11-26T10:00:52Z</time>
      </trkpt>
      <trkpt lat="43.62804" lon="6.60892">
        <ele>665.8</ele>
        <time>2023-11-26T10:00:53Z</time>
      </trkpt>
      <trkpt lat="43.62804" lon="6.60892">
        <ele>665.8</ele>
        <time>2023-11-26T10:00:54Z</time>
      </trkpt>
      <trkpt lat="43.62804" lon="6.60892">
        <ele>665.8</ele>
        <time>2023-11-26T10:00:55Z</time>
      </trkpt>
      <trkpt lat="43.62804" lon="6.60892">
        <ele>665.8</ele>
        <time>2023-11-26T10:00:56Z</time>
      </trkpt>
      <trkpt lat="43.62804" lon="6.60891">
        <ele>665.8</ele>
        <time>2023-11-26T10:00:57Z</time>
      </trkpt>
      <trkpt lat="43.62804" lon="6.60891">
        <ele>665.8</ele>
        <time>2023-11-26T10:00:58Z</time>
      </trkpt>
      <trkpt lat="43.62804" lon="6.60891">
        <ele>665.9</ele>
        <time>2023-11-26T10:00:59Z</time>
      </trkpt>
      <trkpt lat="43.62805" lon="6.60891">
        <ele>665.9</ele>
        <time>2023-11-26T10:01:00Z</time>
      </trkpt>
      <trkpt lat="43.62805" lon="6.60891">
        <ele>665.9</ele>
        <time>2023-11-26T10:01:01Z</time>
      </trkpt>
      <trkpt lat="43.62805" lon="6.6089">
        <ele>665.9</ele>
        <time>2023-11-26T10:01:02Z</time>
      </trkpt>
      <trkpt lat="43.62805" lon="6.6089">
        <ele>665.9</ele>
        <time>2023-11-26T10:01:03Z</time>
      </trkpt>
      <trkpt lat="43.62805" lon="6.6089">
        <ele>666</ele>
        <time>2023-11-26T10:01:04Z</time>
      </trkpt>
      <trkpt lat="43.62805" lon="6.6089">
        <ele>665.9</ele>
        <time>2023-11-26T10:01:05Z</time>
      </trkpt>
      <trkpt lat="43.62805" lon="6.6089">
        <ele>666</ele>
        <time>2023-11-26T10:01:06Z</time>
      </trkpt>
      <trkpt lat="43.62805" lon="6.6089">
        <ele>666.2</ele>
        <time>2023-11-26T10:01:07Z</time>
      </trkpt>
      <trkpt lat="43.62805" lon="6.6089">
        <ele>666.2</ele>
        <time>2023-11-26T10:01:08Z</time>
      </trkpt>
      <trkpt lat="43.62805" lon="6.6089">
        <ele>666.2</ele>
        <time>2023-11-26T10:01:09Z</time>
      </trkpt>
      <trkpt lat="43.62805" lon="6.6089">
        <ele>666.3</ele>
        <time>2023-11-26T10:01:10Z</time>
      </trkpt>
      <trkpt lat="43.62805" lon="6.6089">
        <ele>666.3</ele>
        <time>2023-11-26T10:01:11Z</time>
      </trkpt>
      <trkpt lat="43.62805" lon="6.6089">
        <ele>666.3</ele>
        <time>2023-11-26T10:01:12Z</time>
      </trkpt>
      <trkpt lat="43.62805" lon="6.6089">
        <ele>666.3</ele>
        <time>2023-11-26T10:01:13Z</time>
      </trkpt>
      <trkpt lat="43.62805" lon="6.6089">
        <ele>666.2</ele>
        <time>2023-11-26T10:01:14Z</time>
      </trkpt>
      <trkpt lat="43.62805" lon="6.6089">
        <ele>666.2</ele>
        <time>2023-11-26T10:01:15Z</time>
      </trkpt>
      <trkpt lat="43.62805" lon="6.6089">
        <ele>666.2</ele>
        <time>2023-11-26T10:01:16Z</time>
      </trkpt>
      <trkpt lat="43.62805" lon="6.6089">
        <ele>666.2</ele>
        <time>2023-11-26T10:01:17Z</time>
      </trkpt>
      <trkpt lat="43.62805" lon="6.6089">
        <ele>666.1</ele>
        <time>2023-11-26T10:01:18Z</time>
      </trkpt>
      <trkpt lat="43.62805" lon="6.6089">
        <ele>666.2</ele>
        <time>2023-11-26T10:01:19Z</time>
      </trkpt>
      <trkpt lat="43.62805" lon="6.6089">
        <ele>666</ele>
        <time>2023-11-26T10:01:20Z</time>
      </trkpt>
      <trkpt lat="43.62805" lon="6.6089">
        <ele>666</ele>
        <time>2023-11-26T10:01:21Z</time>
      </trkpt>
      <trkpt lat="43.62805" lon="6.6089">
        <ele>666</ele>
        <time>2023-11-26T10:01:22Z</time>
      </trkpt>
      <trkpt lat="43.62805" lon="6.6089">
        <ele>665.9</ele>
        <time>2023-11-26T10:01:23Z</time>
      </trkpt>
      <trkpt lat="43.62805" lon="6.6089">
        <ele>665.9</ele>
        <time>2023-11-26T10:01:24Z</time>
      </trkpt>
      <trkpt lat="43.62805" lon="6.6089">
        <ele>665.9</ele>
        <time>2023-11-26T10:01:25Z</time>
      </trkpt>
      <trkpt lat="43.62805" lon="6.6089">
        <ele>665.8</ele>
        <time>2023-11-26T10:01:26Z</time>
      </trkpt>
      <trkpt lat="43.62805" lon="6.6089">
        <ele>665.8</ele>
        <time>2023-11-26T10:01:27Z</time>
      </trkpt>
      <trkpt lat="43.62805" lon="6.60891">
        <ele>665.8</ele>
        <time>2023-11-26T10:01:28Z</time>
      </trkpt>
      <trkpt lat="43.62805" lon="6.60891">
        <ele>665.9</ele>
        <time>2023-11-26T10:01:29Z</time>
      </trkpt>
      <trkpt lat="43.62805" lon="6.6089">
        <ele>665.8</ele>
        <time>2023-11-26T10:01:30Z</time>
      </trkpt>
      <trkpt lat="43.62805" lon="6.60891">
        <ele>665.8</ele>
        <time>2023-11-26T10:01:31Z</time>
      </trkpt>
      <trkpt lat="43.62804" lon="6.6089">
        <ele>665.8</ele>
        <time>2023-11-26T10:01:32Z</time>
      </trkpt>
      <trkpt lat="43.62804" lon="6.60891">
        <ele>665.7</ele>
        <time>2023-11-26T10:01:33Z</time>
      </trkpt>
      <trkpt lat="43.62804" lon="6.60891">
        <ele>665.6</ele>
        <time>2023-11-26T10:01:34Z</time>
      </trkpt>
      <trkpt lat="43.62804" lon="6.60891">
        <ele>665.6</ele>
        <time>2023-11-26T10:01:35Z</time>
      </trkpt>
      <trkpt lat="43.62804" lon="6.6089">
        <ele>665.5</ele>
        <time>2023-11-26T10:01:36Z</time>
      </trkpt>
      <trkpt lat="43.62804" lon="6.6089">
        <ele>665.5</ele>
        <time>2023-11-26T10:01:37Z</time>
      </trkpt>
      <trkpt lat="43.62804" lon="6.60891">
        <ele>665.6</ele>
        <time>2023-11-26T10:01:38Z</time>
      </trkpt>
      <trkpt lat="43.62804" lon="6.60891">
        <ele>665.6</ele>
        <time>2023-11-26T10:01:39Z</time>
      </trkpt>
      <trkpt lat="43.62803" lon="6.60891">
        <ele>665.5</ele>
        <time>2023-11-26T10:01:40Z</time>
      </trkpt>
      <trkpt lat="43.62803" lon="6.60891">
        <ele>665.4</ele>
        <time>2023-11-26T10:01:41Z</time>
      </trkpt>
      <trkpt lat="43.62803" lon="6.60891">
        <ele>665.4</ele>
        <time>2023-11-26T10:01:42Z</time>
      </trkpt>
      <trkpt lat="43.62803" lon="6.60891">
        <ele>665.4</ele>
        <time>2023-11-26T10:01:43Z</time>
      </trkpt>
      <trkpt lat="43.62803" lon="6.60891">
        <ele>665.5</ele>
        <time>2023-11-26T10:01:44Z</time>
      </trkpt>
      <trkpt lat="43.62803" lon="6.60891">
        <ele>665.5</ele>
        <time>2023-11-26T10:01:45Z</time>
      </trkpt>
      <trkpt lat="43.62803" lon="6.60891">
        <ele>665.5</ele>
        <time>2023-11-26T10:01:46Z</time>
      </trkpt>
      <trkpt lat="43.62804" lon="6.60891">
        <ele>665.5</ele>
        <time>2023-11-26T10:01:47Z</time>
      </trkpt>
      <trkpt lat="43.62804" lon="6.60891">
        <ele>665.4</ele>
        <time>2023-11-26T10:01:48Z</time>
      </trkpt>
      <trkpt lat="43.62804" lon="6.60891">
        <ele>665.4</ele>
        <time>2023-11-26T10:01:49Z</time>
      </trkpt>
      <trkpt lat="43.62804" lon="6.60891">
        <ele>665.4</ele>
        <time>2023-11-26T10:01:50Z</time>
      </trkpt>
      <trkpt lat="43.62803" lon="6.60891">
        <ele>665.4</ele>
        <time>2023-11-26T10:01:51Z</time>
      </trkpt>
      <trkpt lat="43.62803" lon="6.60891">
        <ele>665.4</ele>
        <time>2023-11-26T10:01:52Z</time>
      </trkpt>
      <trkpt lat="43.62803" lon="6.60891">
        <ele>665.5</ele>
        <time>2023-11-26T10:01:53Z</time>
      </trkpt>
      <trkpt lat="43.62803" lon="6.60891">
        <ele>665.6</ele>
        <time>2023-11-26T10:01:54Z</time>
      </trkpt>
      <trkpt lat="43.62803" lon="6.60892">
        <ele>665.6</ele>
        <time>2023-11-26T10:01:55Z</time>
      </trkpt>
      <trkpt lat="43.62803" lon="6.60892">
        <ele>665.6</ele>
        <time>2023-11-26T10:01:56Z</time>
      </trkpt>
      <trkpt lat="43.62803" lon="6.60892">
        <ele>665.5</ele>
        <time>2023-11-26T10:01:57Z</time>
      </trkpt>
      <trkpt lat="43.62804" lon="6.60892">
        <ele>665.5</ele>
        <time>2023-11-26T10:01:58Z</time>
      </trkpt>
      <trkpt lat="43.62804" lon="6.60892">
        <ele>665.5</ele>
        <time>2023-11-26T10:01:59Z</time>
      </trkpt>
      <trkpt lat="43.62804" lon="6.60892">
        <ele>665.5</ele>
        <time>2023-11-26T10:02:00Z</time>
      </trkpt>
      <trkpt lat="43.62804" lon="6.60892">
        <ele>665.6</ele>
        <time>2023-11-26T10:02:01Z</time>
      </trkpt>
      <trkpt lat="43.62804" lon="6.60892">
        <ele>665.6</ele>
        <time>2023-11-26T10:02:02Z</time>
      </trkpt>
      <trkpt lat="43.62804" lon="6.60892">
        <ele>665.6</ele>
        <time>2023-11-26T10:02:03Z</time>
      </trkpt>
      <trkpt lat="43.62804" lon="6.60893">
        <ele>665.6</ele>
        <time>2023-11-26T10:02:04Z</time>
      </trkpt>
      <trkpt lat="43.62805" lon="6.60893">
        <ele>665.7</ele>
        <time>2023-11-26T10:02:05Z</time>
      </trkpt>
      <trkpt lat="43.62805" lon="6.60893">
        <ele>665.7</ele>
        <time>2023-11-26T10:02:06Z</time>
      </trkpt>
      <trkpt lat="43.62805" lon="6.60893">
        <ele>665.7</ele>
        <time>2023-11-26T10:02:07Z</time>
      </trkpt>
      <trkpt lat="43.62805" lon="6.60893">
        <ele>665.7</ele>
        <time>2023-11-26T10:02:08Z</time>
      </trkpt>
      <trkpt lat="43.62805" lon="6.60894">
        <ele>665.6</ele>
        <time>2023-11-26T10:02:09Z</time>
      </trkpt>
      <trkpt lat="43.62804" lon="6.60894">
        <ele>665.6</ele>
        <time>2023-11-26T10:02:10Z</time>
      </trkpt>
      <trkpt lat="43.62804" lon="6.60894">
        <ele>665.6</ele>
        <time>2023-11-26T10:02:11Z</time>
      </trkpt>
      <trkpt lat="43.62804" lon="6.60895">
        <ele>665.6</ele>
        <time>2023-11-26T10:02:12Z</time>
      </trkpt>
      <trkpt lat="43.62804" lon="6.60894">
        <ele>665.6</ele>
        <time>2023-11-26T10:02:13Z</time>
      </trkpt>
      <trkpt lat="43.62804" lon="6.60894">
        <ele>665.7</ele>
        <time>2023-11-26T10:02:14Z</time>
      </trkpt>
      <trkpt lat="43.62804" lon="6.60895">
        <ele>665.6</ele>
        <time>2023-11-26T10:02:15Z</time>
      </trkpt>
      <trkpt lat="43.62804" lon="6.60896">
        <ele>665.6</ele>
        <time>2023-11-26T10:02:16Z</time>
      </trkpt>
      <trkpt lat="43.62804" lon="6.60896">
        <ele>665.6</ele>
        <time>2023-11-26T10:02:17Z</time>
      </trkpt>
      <trkpt lat="43.62804" lon="6.60896">
        <ele>665.6</ele>
        <time>2023-11-26T10:02:18Z</time>
      </trkpt>
      <trkpt lat="43.62804" lon="6.60897">
        <ele>665.6</ele>
        <time>2023-11-26T10:02:19Z</time>
      </trkpt>
      <trkpt lat="43.62804" lon="6.60897">
        <ele>665.4</ele>
        <time>2023-11-26T10:02:20Z</time>
      </trkpt>
      <trkpt lat="43.62803" lon="6.60898">
        <ele>665.3</ele>
        <time>2023-11-26T10:02:21Z</time>
      </trkpt>
      <trkpt lat="43.62803" lon="6.60898">
        <ele>665.2</ele>
        <time>2023-11-26T10:02:22Z</time>
      </trkpt>
      <trkpt lat="43.62803" lon="6.60899">
        <ele>665.1</ele>
        <time>2023-11-26T10:02:23Z</time>
      </trkpt>
      <trkpt lat="43.62803" lon="6.60899">
        <ele>664.8</ele>
        <time>2023-11-26T10:02:24Z</time>
      </trkpt>
      <trkpt lat="43.62803" lon="6.609">
        <ele>664.7</ele>
        <time>2023-11-26T10:02:25Z</time>
      </trkpt>
      <trkpt lat="43.62803" lon="6.609">
        <ele>664.5</ele>
        <time>2023-11-26T10:02:26Z</time>
      </trkpt>
      <trkpt lat="43.62803" lon="6.609">
        <ele>664.4</ele>
        <time>2023-11-26T10:02:27Z</time>
      </trkpt>
      <trkpt lat="43.62802" lon="6.609">
        <ele>664.3</ele>
        <time>2023-11-26T10:02:28Z</time>
      </trkpt>
      <trkpt lat="43.62802" lon="6.609">
        <ele>664.1</ele>
        <time>2023-11-26T10:02:29Z</time>
      </trkpt>
      <trkpt lat="43.62802" lon="6.609">
        <ele>663.9</ele>
        <time>2023-11-26T10:02:30Z</time>
      </trkpt>
      <trkpt lat="43.62801" lon="6.609">
        <ele>663.8</ele>
        <time>2023-11-26T10:02:31Z</time>
      </trkpt>
      <trkpt lat="43.62801" lon="6.609">
        <ele>663.7</ele>
        <time>2023-11-26T10:02:32Z</time>
      </trkpt>
      <trkpt lat="43.62801" lon="6.60899">
        <ele>663.5</ele>
        <time>2023-11-26T10:02:33Z</time>
      </trkpt>
      <trkpt lat="43.628" lon="6.60898">
        <ele>663.4</ele>
        <time>2023-11-26T10:02:34Z</time>
      </trkpt>
      <trkpt lat="43.628" lon="6.60898">
        <ele>663.3</ele>
        <time>2023-11-26T10:02:35Z</time>
      </trkpt>
      <trkpt lat="43.62799" lon="6.60897">
        <ele>663.1</ele>
        <time>2023-11-26T10:02:36Z</time>
      </trkpt>
      <trkpt lat="43.62799" lon="6.60897">
        <ele>662.9</ele>
        <time>2023-11-26T10:02:37Z</time>
      </trkpt>
      <trkpt lat="43.62798" lon="6.60896">
        <ele>662.8</ele>
        <time>2023-11-26T10:02:38Z</time>
      </trkpt>
      <trkpt lat="43.62798" lon="6.60896">
        <ele>662.8</ele>
        <time>2023-11-26T10:02:39Z</time>
      </trkpt>
      <trkpt lat="43.62798" lon="6.60896">
        <ele>662.8</ele>
        <time>2023-11-26T10:02:40Z</time>
      </trkpt>
      <trkpt lat="43.62798" lon="6.60896">
        <ele>662.7</ele>
        <time>2023-11-26T10:02:41Z</time>
      </trkpt>
      <trkpt lat="43.62797" lon="6.60895">
        <ele>662.7</ele>
        <time>2023-11-26T10:02:42Z</time>
      </trkpt>
      <trkpt lat="43.62797" lon="6.60895">
        <ele>662.7</ele>
        <time>2023-11-26T10:02:43Z</time>
      </trkpt>
      <trkpt lat="43.62796" lon="6.60894">
        <ele>662.6</ele>
        <time>2023-11-26T10:02:44Z</time>
      </trkpt>
      <trkpt lat="43.62795" lon="6.60893">
        <ele>662.6</ele>
        <time>2023-11-26T10:02:45Z</time>
      </trkpt>
      <trkpt lat="43.62795" lon="6.60893">
        <ele>662.5</ele>
        <time>2023-11-26T10:02:46Z</time>
      </trkpt>
      <trkpt lat="43.62795" lon="6.60892">
        <ele>662.4</ele>
        <time>2023-11-26T10:02:47Z</time>
      </trkpt>
      <trkpt lat="43.62794" lon="6.60892">
        <ele>662.3</ele>
        <time>2023-11-26T10:02:48Z</time>
      </trkpt>
      <trkpt lat="43.62794" lon="6.60892">
        <ele>662.3</ele>
        <time>2023-11-26T10:02:49Z</time>
      </trkpt>
      <trkpt lat="43.62793" lon="6.60891">
        <ele>662</ele>
        <time>2023-11-26T10:02:50Z</time>
      </trkpt>
      <trkpt lat="43.62793" lon="6.6089">
        <ele>662</ele>
        <time>2023-11-26T10:02:51Z</time>
      </trkpt>
      <trkpt lat="43.62792" lon="6.60889">
        <ele>661.9</ele>
        <time>2023-11-26T10:02:52Z</time>
      </trkpt>
      <trkpt lat="43.62791" lon="6.60888">
        <ele>661.8</ele>
        <time>2023-11-26T10:02:53Z</time>
      </trkpt>
      <trkpt lat="43.6279" lon="6.60888">
        <ele>661.6</ele>
        <time>2023-11-26T10:02:54Z</time>
      </trkpt>
      <trkpt lat="43.6279" lon="6.60887">
        <ele>661.5</ele>
        <time>2023-11-26T10:02:55Z</time>
      </trkpt>
      <trkpt lat="43.62789" lon="6.60887">
        <ele>661.4</ele>
        <time>2023-11-26T10:02:56Z</time>
      </trkpt>
      <trkpt lat="43.62788" lon="6.60886">
        <ele>661.1</ele>
        <time>2023-11-26T10:02:57Z</time>
      </trkpt>
      <trkpt lat="43.62788" lon="6.60886">
        <ele>661</ele>
        <time>2023-11-26T10:02:58Z</time>
      </trkpt>
      <trkpt lat="43.62787" lon="6.60885">
        <ele>660.9</ele>
        <time>2023-11-26T10:02:59Z</time>
      </trkpt>
      <trkpt lat="43.62785" lon="6.60885">
        <ele>660.8</ele>
        <time>2023-11-26T10:03:00Z</time>
      </trkpt>
      <trkpt lat="43.62785" lon="6.60885">
        <ele>660.5</ele>
        <time>2023-11-26T10:03:01Z</time>
      </trkpt>
      <trkpt lat="43.62784" lon="6.60885">
        <ele>660.4</ele>
        <time>2023-11-26T10:03:02Z</time>
      </trkpt>
      <trkpt lat="43.62783" lon="6.60884">
        <ele>660.2</ele>
        <time>2023-11-26T10:03:03Z</time>
      </trkpt>
      <trkpt lat="43.62781" lon="6.60884">
        <ele>660.1</ele>
        <time>2023-11-26T10:03:04Z</time>
      </trkpt>
      <trkpt lat="43.62781" lon="6.60884">
        <ele>660</ele>
        <time>2023-11-26T10:03:05Z</time>
      </trkpt>
      <trkpt lat="43.6278" lon="6.60884">
        <ele>659.9</ele>
        <time>2023-11-26T10:03:06Z</time>
      </trkpt>
      <trkpt lat="43.62779" lon="6.60884">
        <ele>659.8</ele>
        <time>2023-11-26T10:03:07Z</time>
      </trkpt>
      <trkpt lat="43.62778" lon="6.60884">
        <ele>659.7</ele>
        <time>2023-11-26T10:03:08Z</time>
      </trkpt>
      <trkpt lat="43.62777" lon="6.60884">
        <ele>659.6</ele>
        <time>2023-11-26T10:03:09Z</time>
      </trkpt>
      <trkpt lat="43.62776" lon="6.60883">
        <ele>659.4</ele>
        <time>2023-11-26T10:03:10Z</time>
      </trkpt>
      <trkpt lat="43.62775" lon="6.60882">
        <ele>659.3</ele>
        <time>2023-11-26T10:03:11Z</time>
      </trkpt>
      <trkpt lat="43.62774" lon="6.60882">
        <ele>659.1</ele>
        <time>2023-11-26T10:03:12Z</time>
      </trkpt>
      <trkpt lat="43.62773" lon="6.60882">
        <ele>658.9</ele>
        <time>2023-11-26T10:03:13Z</time>
      </trkpt>
      <trkpt lat="43.62772" lon="6.60882">
        <ele>658.9</ele>
        <time>2023-11-26T10:03:14Z</time>
      </trkpt>
      <trkpt lat="43.62771" lon="6.60882">
        <ele>658.7</ele>
        <time>2023-11-26T10:03:15Z</time>
      </trkpt>
      <trkpt lat="43.6277" lon="6.60882">
        <ele>658.7</ele>
        <time>2023-11-26T10:03:16Z</time>
      </trkpt>
      <trkpt lat="43.62769" lon="6.60883">
        <ele>658.6</ele>
        <time>2023-11-26T10:03:17Z</time>
      </trkpt>
      <trkpt lat="43.62768" lon="6.60883">
        <ele>658.4</ele>
        <time>2023-11-26T10:03:18Z</time>
      </trkpt>
      <trkpt lat="43.62767" lon="6.60883">
        <ele>658.3</ele>
        <time>2023-11-26T10:03:19Z</time>
      </trkpt>
      <trkpt lat="43.62766" lon="6.60883">
        <ele>658.2</ele>
        <time>2023-11-26T10:03:20Z</time>
      </trkpt>
      <trkpt lat="43.62766" lon="6.60883">
        <ele>658.1</ele>
        <time>2023-11-26T10:03:21Z</time>
      </trkpt>
      <trkpt lat="43.62766" lon="6.60883">
        <ele>658</ele>
        <time>2023-11-26T10:03:22Z</time>
      </trkpt>
      <trkpt lat="43.62765" lon="6.60883">
        <ele>657.9</ele>
        <time>2023-11-26T10:03:23Z</time>
      </trkpt>
      <trkpt lat="43.62764" lon="6.60883">
        <ele>657.9</ele>
        <time>2023-11-26T10:03:24Z</time>
      </trkpt>
      <trkpt lat="43.62763" lon="6.60882">
        <ele>657.9</ele>
        <time>2023-11-26T10:03:25Z</time>
      </trkpt>
      <trkpt lat="43.62762" lon="6.60882">
        <ele>657.8</ele>
        <time>2023-11-26T10:03:26Z</time>
      </trkpt>
      <trkpt lat="43.62761" lon="6.60882">
        <ele>657.7</ele>
        <time>2023-11-26T10:03:27Z</time>
      </trkpt>
      <trkpt lat="43.6276" lon="6.60882">
        <ele>657.7</ele>
        <time>2023-11-26T10:03:28Z</time>
      </trkpt>
      <trkpt lat="43.6276" lon="6.60882">
        <ele>657.6</ele>
        <time>2023-11-26T10:03:29Z</time>
      </trkpt>
      <trkpt lat="43.62759" lon="6.60881">
        <ele>657.5</ele>
        <time>2023-11-26T10:03:30Z</time>
      </trkpt>
      <trkpt lat="43.62759" lon="6.60881">
        <ele>657.5</ele>
        <time>2023-11-26T10:03:31Z</time>
      </trkpt>
      <trkpt lat="43.62759" lon="6.60881">
        <ele>657.5</ele>
        <time>2023-11-26T10:03:32Z</time>
      </trkpt>
      <trkpt lat="43.62759" lon="6.6088">
        <ele>657.6</ele>
        <time>2023-11-26T10:03:33Z</time>
      </trkpt>
      <trkpt lat="43.62759" lon="6.6088">
        <ele>657.6</ele>
        <time>2023-11-26T10:03:34Z</time>
      </trkpt>
      <trkpt lat="43.62758" lon="6.60879">
        <ele>657.5</ele>
        <time>2023-11-26T10:03:35Z</time>
      </trkpt>
      <trkpt lat="43.62758" lon="6.60879">
        <ele>657.6</ele>
        <time>2023-11-26T10:03:36Z</time>
      </trkpt>
      <trkpt lat="43.62757" lon="6.60878">
        <ele>657.6</ele>
        <time>2023-11-26T10:03:37Z</time>
      </trkpt>
      <trkpt lat="43.62757" lon="6.60878">
        <ele>657.5</ele>
        <time>2023-11-26T10:03:38Z</time>
      </trkpt>
      <trkpt lat="43.62756" lon="6.60878">
        <ele>657.6</ele>
        <time>2023-11-26T10:03:39Z</time>
      </trkpt>
      <trkpt lat="43.62756" lon="6.60879">
        <ele>657.5</ele>
        <time>2023-11-26T10:03:40Z</time>
      </trkpt>
      <trkpt lat="43.62756" lon="6.60878">
        <ele>657.5</ele>
        <time>2023-11-26T10:03:41Z</time>
      </trkpt>
      <trkpt lat="43.62756" lon="6.60878">
        <ele>657.4</ele>
        <time>2023-11-26T10:03:42Z</time>
      </trkpt>
      <trkpt lat="43.62756" lon="6.60878">
        <ele>657.4</ele>
        <time>2023-11-26T10:03:43Z</time>
      </trkpt>
      <trkpt lat="43.62756" lon="6.60879">
        <ele>657.4</ele>
        <time>2023-11-26T10:03:44Z</time>
      </trkpt>
      <trkpt lat="43.62756" lon="6.60879">
        <ele>657.4</ele>
        <time>2023-11-26T10:03:45Z</time>
      </trkpt>
      <trkpt lat="43.62757" lon="6.60879">
        <ele>657.5</ele>
        <time>2023-11-26T10:03:46Z</time>
      </trkpt>
      <trkpt lat="43.62757" lon="6.60879">
        <ele>657.6</ele>
        <time>2023-11-26T10:03:47Z</time>
      </trkpt>
      <trkpt lat="43.62757" lon="6.60878">
        <ele>657.8</ele>
        <time>2023-11-26T10:03:48Z</time>
      </trkpt>
      <trkpt lat="43.62757" lon="6.60878">
        <ele>657.8</ele>
        <time>2023-11-26T10:03:49Z</time>
      </trkpt>
      <trkpt lat="43.62757" lon="6.60878">
        <ele>657.8</ele>
        <time>2023-11-26T10:03:50Z</time>
      </trkpt>
      <trkpt lat="43.62756" lon="6.60878">
        <ele>657.8</ele>
        <time>2023-11-26T10:03:51Z</time>
      </trkpt>
      <trkpt lat="43.62755" lon="6.60878">
        <ele>657.8</ele>
        <time>2023-11-26T10:03:52Z</time>
      </trkpt>
      <trkpt lat="43.62754" lon="6.60878">
        <ele>657.8</ele>
        <time>2023-11-26T10:03:53Z</time>
      </trkpt>
      <trkpt lat="43.62754" lon="6.60878">
        <ele>657.8</ele>
        <time>2023-11-26T10:03:54Z</time>
      </trkpt>
      <trkpt lat="43.62753" lon="6.60877">
        <ele>657.8</ele>
        <time>2023-11-26T10:03:55Z</time>
      </trkpt>
      <trkpt lat="43.62753" lon="6.60876">
        <ele>657.9</ele>
        <time>2023-11-26T10:03:56Z</time>
      </trkpt>
      <trkpt lat="43.62752" lon="6.60875">
        <ele>657.9</ele>
        <time>2023-11-26T10:03:57Z</time>
      </trkpt>
      <trkpt lat="43.62752" lon="6.60875">
        <ele>658</ele>
        <time>2023-11-26T10:03:58Z</time>
      </trkpt>
      <trkpt lat="43.62752" lon="6.60874">
        <ele>658.1</ele>
        <time>2023-11-26T10:03:59Z</time>
      </trkpt>
      <trkpt lat="43.62752" lon="6.60873">
        <ele>658.2</ele>
        <time>2023-11-26T10:04:00Z</time>
      </trkpt>
      <trkpt lat="43.62751" lon="6.60872">
        <ele>658.3</ele>
        <time>2023-11-26T10:04:01Z</time>
      </trkpt>
      <trkpt lat="43.62751" lon="6.60872">
        <ele>658.3</ele>
        <time>2023-11-26T10:04:02Z</time>
      </trkpt>
      <trkpt lat="43.62751" lon="6.60871">
        <ele>658.5</ele>
        <time>2023-11-26T10:04:03Z</time>
      </trkpt>
      <trkpt lat="43.62752" lon="6.6087">
        <ele>658.6</ele>
        <time>2023-11-26T10:04:04Z</time>
      </trkpt>
      <trkpt lat="43.62751" lon="6.60869">
        <ele>658.8</ele>
        <time>2023-11-26T10:04:05Z</time>
      </trkpt>
      <trkpt lat="43.62752" lon="6.60868">
        <ele>658.8</ele>
        <time>2023-11-26T10:04:06Z</time>
      </trkpt>
      <trkpt lat="43.62752" lon="6.60867">
        <ele>659</ele>
        <time>2023-11-26T10:04:07Z</time>
      </trkpt>
      <trkpt lat="43.62752" lon="6.60867">
        <ele>659.2</ele>
        <time>2023-11-26T10:04:08Z</time>
      </trkpt>
      <trkpt lat="43.62752" lon="6.60866">
        <ele>659.3</ele>
        <time>2023-11-26T10:04:09Z</time>
      </trkpt>
      <trkpt lat="43.62752" lon="6.60865">
        <ele>659.5</ele>
        <time>2023-11-26T10:04:10Z</time>
      </trkpt>
      <trkpt lat="43.62753" lon="6.60864">
        <ele>659.6</ele>
        <time>2023-11-26T10:04:11Z</time>
      </trkpt>
      <trkpt lat="43.62753" lon="6.60863">
        <ele>659.9</ele>
        <time>2023-11-26T10:04:12Z</time>
      </trkpt>
      <trkpt lat="43.62754" lon="6.60863">
        <ele>660.1</ele>
        <time>2023-11-26T10:04:13Z</time>
      </trkpt>
      <trkpt lat="43.62754" lon="6.60861">
        <ele>660.3</ele>
        <time>2023-11-26T10:04:14Z</time>
      </trkpt>
      <trkpt lat="43.62754" lon="6.6086">
        <ele>660.5</ele>
        <time>2023-11-26T10:04:15Z</time>
      </trkpt>
      <trkpt lat="43.62754" lon="6.60859">
        <ele>660.8</ele>
        <time>2023-11-26T10:04:16Z</time>
      </trkpt>
      <trkpt lat="43.62755" lon="6.60858">
        <ele>661</ele>
        <time>2023-11-26T10:04:17Z</time>
      </trkpt>
      <trkpt lat="43.62755" lon="6.60857">
        <ele>661.2</ele>
        <time>2023-11-26T10:04:18Z</time>
      </trkpt>
      <trkpt lat="43.62755" lon="6.60855">
        <ele>661.4</ele>
        <time>2023-11-26T10:04:19Z</time>
      </trkpt>
      <trkpt lat="43.62755" lon="6.60854">
        <ele>661.6</ele>
        <time>2023-11-26T10:04:20Z</time>
      </trkpt>
      <trkpt lat="43.62755" lon="6.60853">
        <ele>661.7</ele>
        <time>2023-11-26T10:04:21Z</time>
      </trkpt>
      <trkpt lat="43.62755" lon="6.60852">
        <ele>662</ele>
        <time>2023-11-26T10:04:22Z</time>
      </trkpt>
      <trkpt lat="43.62755" lon="6.60851">
        <ele>662.2</ele>
        <time>2023-11-26T10:04:23Z</time>
      </trkpt>
      <trkpt lat="43.62754" lon="6.60849">
        <ele>662.3</ele>
        <time>2023-11-26T10:04:24Z</time>
      </trkpt>
      <trkpt lat="43.62754" lon="6.60848">
        <ele>662.5</ele>
        <time>2023-11-26T10:04:25Z</time>
      </trkpt>
      <trkpt lat="43.62754" lon="6.60846">
        <ele>662.7</ele>
        <time>2023-11-26T10:04:26Z</time>
      </trkpt>
      <trkpt lat="43.62753" lon="6.60845">
        <ele>663</ele>
        <time>2023-11-26T10:04:27Z</time>
      </trkpt>
      <trkpt lat="43.62753" lon="6.60844">
        <ele>663.2</ele>
        <time>2023-11-26T10:04:28Z</time>
      </trkpt>
      <trkpt lat="43.62753" lon="6.60842">
        <ele>663.4</ele>
        <time>2023-11-26T10:04:29Z</time>
      </trkpt>
      <trkpt lat="43.62752" lon="6.60841">
        <ele>663.6</ele>
        <time>2023-11-26T10:04:30Z</time>
      </trkpt>
      <trkpt lat="43.62752" lon="6.6084">
        <ele>663.8</ele>
        <time>2023-11-26T10:04:31Z</time>
      </trkpt>
      <trkpt lat="43.62752" lon="6.60839">
        <ele>663.9</ele>
        <time>2023-11-26T10:04:32Z</time>
      </trkpt>
      <trkpt lat="43.62751" lon="6.60838">
        <ele>664.1</ele>
        <time>2023-11-26T10:04:33Z</time>
      </trkpt>
      <trkpt lat="43.62751" lon="6.60837">
        <ele>664.4</ele>
        <time>2023-11-26T10:04:34Z</time>
      </trkpt>
      <trkpt lat="43.62751" lon="6.60835">
        <ele>664.6</ele>
        <time>2023-11-26T10:04:35Z</time>
      </trkpt>
      <trkpt lat="43.62751" lon="6.60834">
        <ele>664.8</ele>
        <time>2023-11-26T10:04:36Z</time>
      </trkpt>
      <trkpt lat="43.6275" lon="6.60833">
        <ele>665</ele>
        <time>2023-11-26T10:04:37Z</time>
      </trkpt>
      <trkpt lat="43.6275" lon="6.60831">
        <ele>665.2</ele>
        <time>2023-11-26T10:04:38Z</time>
      </trkpt>
      <trkpt lat="43.6275" lon="6.6083">
        <ele>665.5</ele>
        <time>2023-11-26T10:04:39Z</time>
      </trkpt>
      <trkpt lat="43.62749" lon="6.60829">
        <ele>665.7</ele>
        <time>2023-11-26T10:04:40Z</time>
      </trkpt>
      <trkpt lat="43.62749" lon="6.60827">
        <ele>665.9</ele>
        <time>2023-11-26T10:04:41Z</time>
      </trkpt>
      <trkpt lat="43.62748" lon="6.60826">
        <ele>666</ele>
        <time>2023-11-26T10:04:42Z</time>
      </trkpt>
      <trkpt lat="43.62748" lon="6.60825">
        <ele>666.2</ele>
        <time>2023-11-26T10:04:43Z</time>
      </trkpt>
      <trkpt lat="43.62748" lon="6.60824">
        <ele>666.4</ele>
        <time>2023-11-26T10:04:44Z</time>
      </trkpt>
      <trkpt lat="43.62748" lon="6.60823">
        <ele>666.6</ele>
        <time>2023-11-26T10:04:45Z</time>
      </trkpt>
      <trkpt lat="43.62748" lon="6.60822">
        <ele>666.8</ele>
        <time>2023-11-26T10:04:46Z</time>
      </trkpt>
      <trkpt lat="43.62747" lon="6.60821">
        <ele>667</ele>
        <time>2023-11-26T10:04:47Z</time>
      </trkpt>
      <trkpt lat="43.62747" lon="6.60819">
        <ele>667.2</ele>
        <time>2023-11-26T10:04:48Z</time>
      </trkpt>
      <trkpt lat="43.62747" lon="6.60818">
        <ele>667.5</ele>
        <time>2023-11-26T10:04:49Z</time>
      </trkpt>
      <trkpt lat="43.62747" lon="6.60816">
        <ele>667.7</ele>
        <time>2023-11-26T10:04:50Z</time>
      </trkpt>
      <trkpt lat="43.62747" lon="6.60815">
        <ele>667.8</ele>
        <time>2023-11-26T10:04:51Z</time>
      </trkpt>
      <trkpt lat="43.62747" lon="6.60814">
        <ele>668</ele>
        <time>2023-11-26T10:04:52Z</time>
      </trkpt>
      <trkpt lat="43.62748" lon="6.60813">
        <ele>668.1</ele>
        <time>2023-11-26T10:04:53Z</time>
      </trkpt>
      <trkpt lat="43.62748" lon="6.60812">
        <ele>668.2</ele>
        <time>2023-11-26T10:04:54Z</time>
      </trkpt>
      <trkpt lat="43.62749" lon="6.6081">
        <ele>668.2</ele>
        <time>2023-11-26T10:04:55Z</time>
      </trkpt>
      <trkpt lat="43.62749" lon="6.60809">
        <ele>668.3</ele>
        <time>2023-11-26T10:04:56Z</time>
      </trkpt>
      <trkpt lat="43.62749" lon="6.60807">
        <ele>668.5</ele>
        <time>2023-11-26T10:04:57Z</time>
      </trkpt>
      <trkpt lat="43.6275" lon="6.60806">
        <ele>668.8</ele>
        <time>2023-11-26T10:04:58Z</time>
      </trkpt>
      <trkpt lat="43.6275" lon="6.60805">
        <ele>668.9</ele>
        <time>2023-11-26T10:04:59Z</time>
      </trkpt>
      <trkpt lat="43.6275" lon="6.60804">
        <ele>669.1</ele>
        <time>2023-11-26T10:05:00Z</time>
      </trkpt>
      <trkpt lat="43.6275" lon="6.60802">
        <ele>669.3</ele>
        <time>2023-11-26T10:05:01Z</time>
      </trkpt>
      <trkpt lat="43.62751" lon="6.60801">
        <ele>669.6</ele>
        <time>2023-11-26T10:05:02Z</time>
      </trkpt>
      <trkpt lat="43.62751" lon="6.608">
        <ele>669.7</ele>
        <time>2023-11-26T10:05:03Z</time>
      </trkpt>
      <trkpt lat="43.62751" lon="6.60798">
        <ele>669.9</ele>
        <time>2023-11-26T10:05:04Z</time>
      </trkpt>
      <trkpt lat="43.62751" lon="6.60797">
        <ele>670.1</ele>
        <time>2023-11-26T10:05:05Z</time>
      </trkpt>
      <trkpt lat="43.62751" lon="6.60796">
        <ele>670.2</ele>
        <time>2023-11-26T10:05:06Z</time>
      </trkpt>
      <trkpt lat="43.62751" lon="6.60795">
        <ele>670.4</ele>
        <time>2023-11-26T10:05:07Z</time>
      </trkpt>
      <trkpt lat="43.62752" lon="6.60794">
        <ele>670.7</ele>
        <time>2023-11-26T10:05:08Z</time>
      </trkpt>
      <trkpt lat="43.62751" lon="6.60792">
        <ele>670.8</ele>
        <time>2023-11-26T10:05:09Z</time>
      </trkpt>
      <trkpt lat="43.62752" lon="6.60791">
        <ele>671</ele>
        <time>2023-11-26T10:05:10Z</time>
      </trkpt>
      <trkpt lat="43.62752" lon="6.6079">
        <ele>671.2</ele>
        <time>2023-11-26T10:05:11Z</time>
      </trkpt>
      <trkpt lat="43.62752" lon="6.60788">
        <ele>671.3</ele>
        <time>2023-11-26T10:05:12Z</time>
      </trkpt>
      <trkpt lat="43.62752" lon="6.60787">
        <ele>671.4</ele>
        <time>2023-11-26T10:05:13Z</time>
      </trkpt>
      <trkpt lat="43.62752" lon="6.60786">
        <ele>671.5</ele>
        <time>2023-11-26T10:05:14Z</time>
      </trkpt>
      <trkpt lat="43.62753" lon="6.60784">
        <ele>671.7</ele>
        <time>2023-11-26T10:05:15Z</time>
      </trkpt>
      <trkpt lat="43.62753" lon="6.60783">
        <ele>671.8</ele>
        <time>2023-11-26T10:05:16Z</time>
      </trkpt>
      <trkpt lat="43.62753" lon="6.60781">
        <ele>671.9</ele>
        <time>2023-11-26T10:05:17Z</time>
      </trkpt>
      <trkpt lat="43.62753" lon="6.6078">
        <ele>672.1</ele>
        <time>2023-11-26T10:05:18Z</time>
      </trkpt>
      <trkpt lat="43.62753" lon="6.60779">
        <ele>672.2</ele>
        <time>2023-11-26T10:05:19Z</time>
      </trkpt>
      <trkpt lat="43.62753" lon="6.60777">
        <ele>672.3</ele>
        <time>2023-11-26T10:05:20Z</time>
      </trkpt>
      <trkpt lat="43.62753" lon="6.60775">
        <ele>672.4</ele>
        <time>2023-11-26T10:05:21Z</time>
      </trkpt>
      <trkpt lat="43.62753" lon="6.60774">
        <ele>672.4</ele>
        <time>2023-11-26T10:05:22Z</time>
      </trkpt>
      <trkpt lat="43.62753" lon="6.60772">
        <ele>672.4</ele>
        <time>2023-11-26T10:05:23Z</time>
      </trkpt>
      <trkpt lat="43.62754" lon="6.60771">
        <ele>672.5</ele>
        <time>2023-11-26T10:05:24Z</time>
      </trkpt>
      <trkpt lat="43.62754" lon="6.6077">
        <ele>672.6</ele>
        <time>2023-11-26T10:05:25Z</time>
      </trkpt>
      <trkpt lat="43.62753" lon="6.60768">
        <ele>672.8</ele>
        <time>2023-11-26T10:05:26Z</time>
      </trkpt>
      <trkpt lat="43.62753" lon="6.60767">
        <ele>673</ele>
        <time>2023-11-26T10:05:27Z</time>
      </trkpt>
      <trkpt lat="43.62753" lon="6.60765">
        <ele>673.2</ele>
        <time>2023-11-26T10:05:28Z</time>
      </trkpt>
      <trkpt lat="43.62753" lon="6.60764">
        <ele>673.4</ele>
        <time>2023-11-26T10:05:29Z</time>
      </trkpt>
      <trkpt lat="43.62753" lon="6.60763">
        <ele>673.6</ele>
        <time>2023-11-26T10:05:30Z</time>
      </trkpt>
      <trkpt lat="43.62753" lon="6.60762">
        <ele>673.7</ele>
        <time>2023-11-26T10:05:31Z</time>
      </trkpt>
      <trkpt lat="43.62754" lon="6.60761">
        <ele>673.8</ele>
        <time>2023-11-26T10:05:32Z</time>
      </trkpt>
      <trkpt lat="43.62754" lon="6.60759">
        <ele>673.9</ele>
        <time>2023-11-26T10:05:33Z</time>
      </trkpt>
      <trkpt lat="43.62753" lon="6.60758">
        <ele>674.2</ele>
        <time>2023-11-26T10:05:34Z</time>
      </trkpt>
      <trkpt lat="43.62753" lon="6.60757">
        <ele>674.4</ele>
        <time>2023-11-26T10:05:35Z</time>
      </trkpt>
      <trkpt lat="43.62752" lon="6.60756">
        <ele>674.6</ele>
        <time>2023-11-26T10:05:36Z</time>
      </trkpt>
      <trkpt lat="43.62752" lon="6.60755">
        <ele>674.8</ele>
        <time>2023-11-26T10:05:37Z</time>
      </trkpt>
      <trkpt lat="43.62752" lon="6.60753">
        <ele>674.9</ele>
        <time>2023-11-26T10:05:38Z</time>
      </trkpt>
      <trkpt lat="43.62752" lon="6.60752">
        <ele>675.1</ele>
        <time>2023-11-26T10:05:39Z</time>
      </trkpt>
      <trkpt lat="43.62751" lon="6.60751">
        <ele>675.2</ele>
        <time>2023-11-26T10:05:40Z</time>
      </trkpt>
      <trkpt lat="43.6275" lon="6.60749">
        <ele>675.4</ele>
        <time>2023-11-26T10:05:41Z</time>
      </trkpt>
      <trkpt lat="43.6275" lon="6.60748">
        <ele>675.6</ele>
        <time>2023-11-26T10:05:42Z</time>
      </trkpt>
      <trkpt lat="43.62749" lon="6.60747">
        <ele>675.8</ele>
        <time>2023-11-26T10:05:43Z</time>
      </trkpt>
      <trkpt lat="43.62749" lon="6.60745">
        <ele>676</ele>
        <time>2023-11-26T10:05:44Z</time>
      </trkpt>
      <trkpt lat="43.62749" lon="6.60744">
        <ele>676.2</ele>
        <time>2023-11-26T10:05:45Z</time>
      </trkpt>
      <trkpt lat="43.62748" lon="6.60743">
        <ele>676.3</ele>
        <time>2023-11-26T10:05:46Z</time>
      </trkpt>
      <trkpt lat="43.62748" lon="6.60742">
        <ele>676.5</ele>
        <time>2023-11-26T10:05:47Z</time>
      </trkpt>
      <trkpt lat="43.62747" lon="6.6074">
        <ele>676.7</ele>
        <time>2023-11-26T10:05:48Z</time>
      </trkpt>
      <trkpt lat="43.62747" lon="6.60739">
        <ele>676.8</ele>
        <time>2023-11-26T10:05:49Z</time>
      </trkpt>
      <trkpt lat="43.62746" lon="6.60738">
        <ele>676.9</ele>
        <time>2023-11-26T10:05:50Z</time>
      </trkpt>
      <trkpt lat="43.62746" lon="6.60738">
        <ele>677</ele>
        <time>2023-11-26T10:05:51Z</time>
      </trkpt>
      <trkpt lat="43.62745" lon="6.60737">
        <ele>677.2</ele>
        <time>2023-11-26T10:05:52Z</time>
      </trkpt>
      <trkpt lat="43.62745" lon="6.60736">
        <ele>677.3</ele>
        <time>2023-11-26T10:05:53Z</time>
      </trkpt>
      <trkpt lat="43.62745" lon="6.60735">
        <ele>677.3</ele>
        <time>2023-11-26T10:05:54Z</time>
      </trkpt>
      <trkpt lat="43.62744" lon="6.60733">
        <ele>677.3</ele>
        <time>2023-11-26T10:05:55Z</time>
      </trkpt>
      <trkpt lat="43.62744" lon="6.60732">
        <ele>677.4</ele>
        <time>2023-11-26T10:05:56Z</time>
      </trkpt>
      <trkpt lat="43.62744" lon="6.60731">
        <ele>677.5</ele>
        <time>2023-11-26T10:05:57Z</time>
      </trkpt>
      <trkpt lat="43.62744" lon="6.6073">
        <ele>677.5</ele>
        <time>2023-11-26T10:05:58Z</time>
      </trkpt>
      <trkpt lat="43.62743" lon="6.60729">
        <ele>677.7</ele>
        <time>2023-11-26T10:05:59Z</time>
      </trkpt>
      <trkpt lat="43.62743" lon="6.60728">
        <ele>677.8</ele>
        <time>2023-11-26T10:06:00Z</time>
      </trkpt>
      <trkpt lat="43.62742" lon="6.60728">
        <ele>677.8</ele>
        <time>2023-11-26T10:06:01Z</time>
      </trkpt>
      <trkpt lat="43.62742" lon="6.60726">
        <ele>678</ele>
        <time>2023-11-26T10:06:02Z</time>
      </trkpt>
      <trkpt lat="43.62741" lon="6.60726">
        <ele>678.1</ele>
        <time>2023-11-26T10:06:03Z</time>
      </trkpt>
      <trkpt lat="43.6274" lon="6.60725">
        <ele>678.3</ele>
        <time>2023-11-26T10:06:04Z</time>
      </trkpt>
      <trkpt lat="43.6274" lon="6.60724">
        <ele>678.4</ele>
        <time>2023-11-26T10:06:05Z</time>
      </trkpt>
      <trkpt lat="43.6274" lon="6.60723">
        <ele>678.6</ele>
        <time>2023-11-26T10:06:06Z</time>
      </trkpt>
      <trkpt lat="43.62739" lon="6.60722">
        <ele>678.7</ele>
        <time>2023-11-26T10:06:07Z</time>
      </trkpt>
      <trkpt lat="43.62738" lon="6.60721">
        <ele>678.9</ele>
        <time>2023-11-26T10:06:08Z</time>
      </trkpt>
      <trkpt lat="43.62738" lon="6.6072">
        <ele>679.1</ele>
        <time>2023-11-26T10:06:09Z</time>
      </trkpt>
      <trkpt lat="43.62738" lon="6.60719">
        <ele>679.2</ele>
        <time>2023-11-26T10:06:10Z</time>
      </trkpt>
      <trkpt lat="43.62737" lon="6.60718">
        <ele>679.3</ele>
        <time>2023-11-26T10:06:11Z</time>
      </trkpt>
      <trkpt lat="43.62736" lon="6.60717">
        <ele>679.5</ele>
        <time>2023-11-26T10:06:12Z</time>
      </trkpt>
      <trkpt lat="43.62736" lon="6.60716">
        <ele>679.5</ele>
        <time>2023-11-26T10:06:13Z</time>
      </trkpt>
      <trkpt lat="43.62735" lon="6.60715">
        <ele>679.7</ele>
        <time>2023-11-26T10:06:14Z</time>
      </trkpt>
      <trkpt lat="43.62735" lon="6.60714">
        <ele>679.8</ele>
        <time>2023-11-26T10:06:15Z</time>
      </trkpt>
      <trkpt lat="43.62734" lon="6.60713">
        <ele>680</ele>
        <time>2023-11-26T10:06:16Z</time>
      </trkpt>
      <trkpt lat="43.62734" lon="6.60712">
        <ele>680.1</ele>
        <time>2023-11-26T10:06:17Z</time>
      </trkpt>
      <trkpt lat="43.62733" lon="6.60711">
        <ele>680.3</ele>
        <time>2023-11-26T10:06:18Z</time>
      </trkpt>
      <trkpt lat="43.62733" lon="6.6071">
        <ele>680.4</ele>
        <time>2023-11-26T10:06:19Z</time>
      </trkpt>
      <trkpt lat="43.62732" lon="6.60709">
        <ele>680.5</ele>
        <time>2023-11-26T10:06:20Z</time>
      </trkpt>
      <trkpt lat="43.62731" lon="6.60708">
        <ele>680.6</ele>
        <time>2023-11-26T10:06:21Z</time>
      </trkpt>
      <trkpt lat="43.6273" lon="6.60708">
        <ele>680.7</ele>
        <time>2023-11-26T10:06:22Z</time>
      </trkpt>
      <trkpt lat="43.62729" lon="6.60707">
        <ele>680.9</ele>
        <time>2023-11-26T10:06:23Z</time>
      </trkpt>
      <trkpt lat="43.6273" lon="6.60706">
        <ele>680.9</ele>
        <time>2023-11-26T10:06:24Z</time>
      </trkpt>
      <trkpt lat="43.62729" lon="6.60705">
        <ele>681</ele>
        <time>2023-11-26T10:06:25Z</time>
      </trkpt>
      <trkpt lat="43.62729" lon="6.60703">
        <ele>681.1</ele>
        <time>2023-11-26T10:06:26Z</time>
      </trkpt>
      <trkpt lat="43.62728" lon="6.60702">
        <ele>681.2</ele>
        <time>2023-11-26T10:06:27Z</time>
      </trkpt>
      <trkpt lat="43.62728" lon="6.60701">
        <ele>681.4</ele>
        <time>2023-11-26T10:06:28Z</time>
      </trkpt>
      <trkpt lat="43.62727" lon="6.607">
        <ele>681.6</ele>
        <time>2023-11-26T10:06:29Z</time>
      </trkpt>
      <trkpt lat="43.62726" lon="6.607">
        <ele>681.7</ele>
        <time>2023-11-26T10:06:30Z</time>
      </trkpt>
      <trkpt lat="43.62726" lon="6.60699">
        <ele>681.7</ele>
        <time>2023-11-26T10:06:31Z</time>
      </trkpt>
      <trkpt lat="43.62725" lon="6.60698">
        <ele>681.8</ele>
        <time>2023-11-26T10:06:32Z</time>
      </trkpt>
      <trkpt lat="43.62725" lon="6.60697">
        <ele>681.8</ele>
        <time>2023-11-26T10:06:33Z</time>
      </trkpt>
      <trkpt lat="43.62725" lon="6.60696">
        <ele>682.1</ele>
        <time>2023-11-26T10:06:34Z</time>
      </trkpt>
      <trkpt lat="43.62724" lon="6.60695">
        <ele>682.2</ele>
        <time>2023-11-26T10:06:35Z</time>
      </trkpt>
      <trkpt lat="43.62724" lon="6.60694">
        <ele>682.4</ele>
        <time>2023-11-26T10:06:36Z</time>
      </trkpt>
      <trkpt lat="43.62723" lon="6.60693">
        <ele>682.6</ele>
        <time>2023-11-26T10:06:37Z</time>
      </trkpt>
      <trkpt lat="43.62722" lon="6.60692">
        <ele>682.8</ele>
        <time>2023-11-26T10:06:38Z</time>
      </trkpt>
      <trkpt lat="43.62721" lon="6.60692">
        <ele>682.9</ele>
        <time>2023-11-26T10:06:39Z</time>
      </trkpt>
      <trkpt lat="43.62721" lon="6.60691">
        <ele>683</ele>
        <time>2023-11-26T10:06:40Z</time>
      </trkpt>
      <trkpt lat="43.6272" lon="6.6069">
        <ele>683.1</ele>
        <time>2023-11-26T10:06:41Z</time>
      </trkpt>
      <trkpt lat="43.62719" lon="6.60689">
        <ele>683.2</ele>
        <time>2023-11-26T10:06:42Z</time>
      </trkpt>
      <trkpt lat="43.62719" lon="6.60688">
        <ele>683.2</ele>
        <time>2023-11-26T10:06:43Z</time>
      </trkpt>
      <trkpt lat="43.62718" lon="6.60687">
        <ele>683.3</ele>
        <time>2023-11-26T10:06:44Z</time>
      </trkpt>
      <trkpt lat="43.62717" lon="6.60686">
        <ele>683.3</ele>
        <time>2023-11-26T10:06:45Z</time>
      </trkpt>
      <trkpt lat="43.62717" lon="6.60685">
        <ele>683.4</ele>
        <time>2023-11-26T10:06:46Z</time>
      </trkpt>
      <trkpt lat="43.62716" lon="6.60685">
        <ele>683.5</ele>
        <time>2023-11-26T10:06:47Z</time>
      </trkpt>
      <trkpt lat="43.62716" lon="6.60685">
        <ele>683.6</ele>
        <time>2023-11-26T10:06:48Z</time>
      </trkpt>
      <trkpt lat="43.62715" lon="6.60684">
        <ele>683.8</ele>
        <time>2023-11-26T10:06:49Z</time>
      </trkpt>
      <trkpt lat="43.62715" lon="6.60684">
        <ele>684</ele>
        <time>2023-11-26T10:06:50Z</time>
      </trkpt>
      <trkpt lat="43.62714" lon="6.60683">
        <ele>684.1</ele>
        <time>2023-11-26T10:06:51Z</time>
      </trkpt>
      <trkpt lat="43.62714" lon="6.60682">
        <ele>684.2</ele>
        <time>2023-11-26T10:06:52Z</time>
      </trkpt>
      <trkpt lat="43.62713" lon="6.60681">
        <ele>684.3</ele>
        <time>2023-11-26T10:06:53Z</time>
      </trkpt>
      <trkpt lat="43.62712" lon="6.60681">
        <ele>684.4</ele>
        <time>2023-11-26T10:06:54Z</time>
      </trkpt>
      <trkpt lat="43.62712" lon="6.6068">
        <ele>684.4</ele>
        <time>2023-11-26T10:06:55Z</time>
      </trkpt>
      <trkpt lat="43.62711" lon="6.60679">
        <ele>684.5</ele>
        <time>2023-11-26T10:06:56Z</time>
      </trkpt>
      <trkpt lat="43.6271" lon="6.60678">
        <ele>684.6</ele>
        <time>2023-11-26T10:06:57Z</time>
      </trkpt>
      <trkpt lat="43.6271" lon="6.60678">
        <ele>684.7</ele>
        <time>2023-11-26T10:06:58Z</time>
      </trkpt>
      <trkpt lat="43.62709" lon="6.60677">
        <ele>684.9</ele>
        <time>2023-11-26T10:06:59Z</time>
      </trkpt>
      <trkpt lat="43.62708" lon="6.60676">
        <ele>685.1</ele>
        <time>2023-11-26T10:07:00Z</time>
      </trkpt>
      <trkpt lat="43.62707" lon="6.60676">
        <ele>685.2</ele>
        <time>2023-11-26T10:07:01Z</time>
      </trkpt>
      <trkpt lat="43.62707" lon="6.60675">
        <ele>685.4</ele>
        <time>2023-11-26T10:07:02Z</time>
      </trkpt>
      <trkpt lat="43.62706" lon="6.60674">
        <ele>685.5</ele>
        <time>2023-11-26T10:07:03Z</time>
      </trkpt>
      <trkpt lat="43.62705" lon="6.60673">
        <ele>685.6</ele>
        <time>2023-11-26T10:07:04Z</time>
      </trkpt>
      <trkpt lat="43.62705" lon="6.60673">
        <ele>685.6</ele>
        <time>2023-11-26T10:07:05Z</time>
      </trkpt>
      <trkpt lat="43.62704" lon="6.60671">
        <ele>685.7</ele>
        <time>2023-11-26T10:07:06Z</time>
      </trkpt>
      <trkpt lat="43.62704" lon="6.60671">
        <ele>685.8</ele>
        <time>2023-11-26T10:07:07Z</time>
      </trkpt>
      <trkpt lat="43.62703" lon="6.6067">
        <ele>685.9</ele>
        <time>2023-11-26T10:07:08Z</time>
      </trkpt>
      <trkpt lat="43.62702" lon="6.60669">
        <ele>686.1</ele>
        <time>2023-11-26T10:07:09Z</time>
      </trkpt>
      <trkpt lat="43.62702" lon="6.60669">
        <ele>686.2</ele>
        <time>2023-11-26T10:07:10Z</time>
      </trkpt>
      <trkpt lat="43.62701" lon="6.60668">
        <ele>686.3</ele>
        <time>2023-11-26T10:07:11Z</time>
      </trkpt>
      <trkpt lat="43.62701" lon="6.60667">
        <ele>686.4</ele>
        <time>2023-11-26T10:07:12Z</time>
      </trkpt>
      <trkpt lat="43.627" lon="6.60666">
        <ele>686.5</ele>
        <time>2023-11-26T10:07:13Z</time>
      </trkpt>
      <trkpt lat="43.62699" lon="6.60666">
        <ele>686.6</ele>
        <time>2023-11-26T10:07:14Z</time>
      </trkpt>
      <trkpt lat="43.62698" lon="6.60665">
        <ele>686.7</ele>
        <time>2023-11-26T10:07:15Z</time>
      </trkpt>
      <trkpt lat="43.62698" lon="6.60664">
        <ele>686.7</ele>
        <time>2023-11-26T10:07:16Z</time>
      </trkpt>
      <trkpt lat="43.62697" lon="6.60663">
        <ele>686.9</ele>
        <time>2023-11-26T10:07:17Z</time>
      </trkpt>
      <trkpt lat="43.62696" lon="6.60663">
        <ele>687</ele>
        <time>2023-11-26T10:07:18Z</time>
      </trkpt>
      <trkpt lat="43.62695" lon="6.60662">
        <ele>687.2</ele>
        <time>2023-11-26T10:07:19Z</time>
      </trkpt>
      <trkpt lat="43.62694" lon="6.60661">
        <ele>687.3</ele>
        <time>2023-11-26T10:07:20Z</time>
      </trkpt>
      <trkpt lat="43.62693" lon="6.6066">
        <ele>687.4</ele>
        <time>2023-11-26T10:07:21Z</time>
      </trkpt>
      <trkpt lat="43.62692" lon="6.6066">
        <ele>687.5</ele>
        <time>2023-11-26T10:07:22Z</time>
      </trkpt>
      <trkpt lat="43.62692" lon="6.60659">
        <ele>687.6</ele>
        <time>2023-11-26T10:07:23Z</time>
      </trkpt>
      <trkpt lat="43.62691" lon="6.60659">
        <ele>687.6</ele>
        <time>2023-11-26T10:07:24Z</time>
      </trkpt>
      <trkpt lat="43.6269" lon="6.60658">
        <ele>687.8</ele>
        <time>2023-11-26T10:07:25Z</time>
      </trkpt>
      <trkpt lat="43.6269" lon="6.60658">
        <ele>688</ele>
        <time>2023-11-26T10:07:26Z</time>
      </trkpt>
      <trkpt lat="43.62689" lon="6.60657">
        <ele>688.1</ele>
        <time>2023-11-26T10:07:27Z</time>
      </trkpt>
      <trkpt lat="43.62688" lon="6.60656">
        <ele>688.2</ele>
        <time>2023-11-26T10:07:28Z</time>
      </trkpt>
      <trkpt lat="43.62688" lon="6.60656">
        <ele>688.5</ele>
        <time>2023-11-26T10:07:29Z</time>
      </trkpt>
      <trkpt lat="43.62688" lon="6.60655">
        <ele>688.7</ele>
        <time>2023-11-26T10:07:30Z</time>
      </trkpt>
      <trkpt lat="43.62688" lon="6.60654">
        <ele>688.8</ele>
        <time>2023-11-26T10:07:31Z</time>
      </trkpt>
      <trkpt lat="43.62687" lon="6.60654">
        <ele>689</ele>
        <time>2023-11-26T10:07:32Z</time>
      </trkpt>
      <trkpt lat="43.62686" lon="6.60653">
        <ele>689.1</ele>
        <time>2023-11-26T10:07:33Z</time>
      </trkpt>
      <trkpt lat="43.62686" lon="6.60653">
        <ele>689.3</ele>
        <time>2023-11-26T10:07:34Z</time>
      </trkpt>
      <trkpt lat="43.62685" lon="6.60652">
        <ele>689.5</ele>
        <time>2023-11-26T10:07:35Z</time>
      </trkpt>
      <trkpt lat="43.62685" lon="6.60652">
        <ele>689.7</ele>
        <time>2023-11-26T10:07:36Z</time>
      </trkpt>
      <trkpt lat="43.62685" lon="6.60651">
        <ele>689.9</ele>
        <time>2023-11-26T10:07:37Z</time>
      </trkpt>
      <trkpt lat="43.62683" lon="6.60651">
        <ele>690.1</ele>
        <time>2023-11-26T10:07:38Z</time>
      </trkpt>
      <trkpt lat="43.62682" lon="6.6065">
        <ele>690.3</ele>
        <time>2023-11-26T10:07:39Z</time>
      </trkpt>
      <trkpt lat="43.62681" lon="6.60649">
        <ele>690.4</ele>
        <time>2023-11-26T10:07:40Z</time>
      </trkpt>
      <trkpt lat="43.6268" lon="6.60649">
        <ele>690.5</ele>
        <time>2023-11-26T10:07:41Z</time>
      </trkpt>
      <trkpt lat="43.62679" lon="6.60648">
        <ele>690.6</ele>
        <time>2023-11-26T10:07:42Z</time>
      </trkpt>
      <trkpt lat="43.62678" lon="6.60647">
        <ele>690.8</ele>
        <time>2023-11-26T10:07:43Z</time>
      </trkpt>
      <trkpt lat="43.62677" lon="6.60647">
        <ele>691</ele>
        <time>2023-11-26T10:07:44Z</time>
      </trkpt>
      <trkpt lat="43.62676" lon="6.60646">
        <ele>691.2</ele>
        <time>2023-11-26T10:07:45Z</time>
      </trkpt>
      <trkpt lat="43.62676" lon="6.60646">
        <ele>691.3</ele>
        <time>2023-11-26T10:07:46Z</time>
      </trkpt>
      <trkpt lat="43.62674" lon="6.60645">
        <ele>691.4</ele>
        <time>2023-11-26T10:07:47Z</time>
      </trkpt>
      <trkpt lat="43.62673" lon="6.60645">
        <ele>691.7</ele>
        <time>2023-11-26T10:07:48Z</time>
      </trkpt>
      <trkpt lat="43.62673" lon="6.60644">
        <ele>691.8</ele>
        <time>2023-11-26T10:07:49Z</time>
      </trkpt>
      <trkpt lat="43.62672" lon="6.60644">
        <ele>691.9</ele>
        <time>2023-11-26T10:07:50Z</time>
      </trkpt>
      <trkpt lat="43.62671" lon="6.60643">
        <ele>692</ele>
        <time>2023-11-26T10:07:51Z</time>
      </trkpt>
      <trkpt lat="43.62671" lon="6.60642">
        <ele>692.1</ele>
        <time>2023-11-26T10:07:52Z</time>
      </trkpt>
      <trkpt lat="43.6267" lon="6.60642">
        <ele>692.1</ele>
        <time>2023-11-26T10:07:53Z</time>
      </trkpt>
      <trkpt lat="43.62669" lon="6.60641">
        <ele>692.4</ele>
        <time>2023-11-26T10:07:54Z</time>
      </trkpt>
      <trkpt lat="43.62668" lon="6.60641">
        <ele>692.5</ele>
        <time>2023-11-26T10:07:55Z</time>
      </trkpt>
      <trkpt lat="43.62667" lon="6.60641">
        <ele>692.6</ele>
        <time>2023-11-26T10:07:56Z</time>
      </trkpt>
      <trkpt lat="43.62667" lon="6.6064">
        <ele>692.7</ele>
        <time>2023-11-26T10:07:57Z</time>
      </trkpt>
      <trkpt lat="43.62666" lon="6.60639">
        <ele>692.8</ele>
        <time>2023-11-26T10:07:58Z</time>
      </trkpt>
      <trkpt lat="43.62665" lon="6.60639">
        <ele>692.9</ele>
        <time>2023-11-26T10:07:59Z</time>
      </trkpt>
      <trkpt lat="43.62664" lon="6.60638">
        <ele>693</ele>
        <time>2023-11-26T10:08:00Z</time>
      </trkpt>
      <trkpt lat="43.62663" lon="6.60638">
        <ele>693.1</ele>
        <time>2023-11-26T10:08:01Z</time>
      </trkpt>
      <trkpt lat="43.62662" lon="6.60637">
        <ele>693.2</ele>
        <time>2023-11-26T10:08:02Z</time>
      </trkpt>
      <trkpt lat="43.62662" lon="6.60637">
        <ele>693.3</ele>
        <time>2023-11-26T10:08:03Z</time>
      </trkpt>
      <trkpt lat="43.6266" lon="6.60637">
        <ele>693.5</ele>
        <time>2023-11-26T10:08:04Z</time>
      </trkpt>
      <trkpt lat="43.6266" lon="6.60635">
        <ele>693.6</ele>
        <time>2023-11-26T10:08:05Z</time>
      </trkpt>
      <trkpt lat="43.62659" lon="6.60635">
        <ele>693.7</ele>
        <time>2023-11-26T10:08:06Z</time>
      </trkpt>
      <trkpt lat="43.62658" lon="6.60634">
        <ele>693.8</ele>
        <time>2023-11-26T10:08:07Z</time>
      </trkpt>
      <trkpt lat="43.62657" lon="6.60633">
        <ele>693.9</ele>
        <time>2023-11-26T10:08:08Z</time>
      </trkpt>
      <trkpt lat="43.62656" lon="6.60633">
        <ele>694</ele>
        <time>2023-11-26T10:08:09Z</time>
      </trkpt>
      <trkpt lat="43.62655" lon="6.60632">
        <ele>694.2</ele>
        <time>2023-11-26T10:08:10Z</time>
      </trkpt>
      <trkpt lat="43.62654" lon="6.60632">
        <ele>694.3</ele>
        <time>2023-11-26T10:08:11Z</time>
      </trkpt>
      <trkpt lat="43.62653" lon="6.60631">
        <ele>694.4</ele>
        <time>2023-11-26T10:08:12Z</time>
      </trkpt>
      <trkpt lat="43.62652" lon="6.6063">
        <ele>694.5</ele>
        <time>2023-11-26T10:08:13Z</time>
      </trkpt>
      <trkpt lat="43.62651" lon="6.6063">
        <ele>694.6</ele>
        <time>2023-11-26T10:08:14Z</time>
      </trkpt>
      <trkpt lat="43.62651" lon="6.60629">
        <ele>694.8</ele>
        <time>2023-11-26T10:08:15Z</time>
      </trkpt>
      <trkpt lat="43.62649" lon="6.60629">
        <ele>695</ele>
        <time>2023-11-26T10:08:16Z</time>
      </trkpt>
      <trkpt lat="43.62649" lon="6.60629">
        <ele>695.1</ele>
        <time>2023-11-26T10:08:17Z</time>
      </trkpt>
      <trkpt lat="43.62648" lon="6.60628">
        <ele>695.1</ele>
        <time>2023-11-26T10:08:18Z</time>
      </trkpt>
      <trkpt lat="43.62647" lon="6.60628">
        <ele>695.3</ele>
        <time>2023-11-26T10:08:19Z</time>
      </trkpt>
      <trkpt lat="43.62646" lon="6.60628">
        <ele>695.4</ele>
        <time>2023-11-26T10:08:20Z</time>
      </trkpt>
      <trkpt lat="43.62646" lon="6.60627">
        <ele>695.5</ele>
        <time>2023-11-26T10:08:21Z</time>
      </trkpt>
      <trkpt lat="43.62645" lon="6.60627">
        <ele>695.7</ele>
        <time>2023-11-26T10:08:22Z</time>
      </trkpt>
      <trkpt lat="43.62644" lon="6.60627">
        <ele>695.8</ele>
        <time>2023-11-26T10:08:23Z</time>
      </trkpt>
      <trkpt lat="43.62643" lon="6.60626">
        <ele>695.9</ele>
        <time>2023-11-26T10:08:24Z</time>
      </trkpt>
      <trkpt lat="43.62642" lon="6.60626">
        <ele>696</ele>
        <time>2023-11-26T10:08:25Z</time>
      </trkpt>
      <trkpt lat="43.62641" lon="6.60626">
        <ele>696.1</ele>
        <time>2023-11-26T10:08:26Z</time>
      </trkpt>
      <trkpt lat="43.6264" lon="6.60626">
        <ele>696.2</ele>
        <time>2023-11-26T10:08:27Z</time>
      </trkpt>
      <trkpt lat="43.62639" lon="6.60626">
        <ele>696.3</ele>
        <time>2023-11-26T10:08:28Z</time>
      </trkpt>
      <trkpt lat="43.62637" lon="6.60625">
        <ele>696.3</ele>
        <time>2023-11-26T10:08:29Z</time>
      </trkpt>
      <trkpt lat="43.62636" lon="6.60625">
        <ele>696.4</ele>
        <time>2023-11-26T10:08:30Z</time>
      </trkpt>
      <trkpt lat="43.62635" lon="6.60625">
        <ele>696.6</ele>
        <time>2023-11-26T10:08:31Z</time>
      </trkpt>
      <trkpt lat="43.62634" lon="6.60624">
        <ele>696.8</ele>
        <time>2023-11-26T10:08:32Z</time>
      </trkpt>
      <trkpt lat="43.62634" lon="6.60624">
        <ele>697</ele>
        <time>2023-11-26T10:08:33Z</time>
      </trkpt>
      <trkpt lat="43.62633" lon="6.60624">
        <ele>697.1</ele>
        <time>2023-11-26T10:08:34Z</time>
      </trkpt>
      <trkpt lat="43.62632" lon="6.60624">
        <ele>697.3</ele>
        <time>2023-11-26T10:08:35Z</time>
      </trkpt>
      <trkpt lat="43.62631" lon="6.60623">
        <ele>697.4</ele>
        <time>2023-11-26T10:08:36Z</time>
      </trkpt>
      <trkpt lat="43.6263" lon="6.60623">
        <ele>697.5</ele>
        <time>2023-11-26T10:08:37Z</time>
      </trkpt>
      <trkpt lat="43.62629" lon="6.60622">
        <ele>697.5</ele>
        <time>2023-11-26T10:08:38Z</time>
      </trkpt>
      <trkpt lat="43.62628" lon="6.60622">
        <ele>697.6</ele>
        <time>2023-11-26T10:08:39Z</time>
      </trkpt>
      <trkpt lat="43.62627" lon="6.60622">
        <ele>697.8</ele>
        <time>2023-11-26T10:08:40Z</time>
      </trkpt>
      <trkpt lat="43.62626" lon="6.60622">
        <ele>697.9</ele>
        <time>2023-11-26T10:08:41Z</time>
      </trkpt>
      <trkpt lat="43.62625" lon="6.60622">
        <ele>697.9</ele>
        <time>2023-11-26T10:08:42Z</time>
      </trkpt>
      <trkpt lat="43.62624" lon="6.60622">
        <ele>698</ele>
        <time>2023-11-26T10:08:43Z</time>
      </trkpt>
      <trkpt lat="43.62622" lon="6.60622">
        <ele>698.1</ele>
        <time>2023-11-26T10:08:44Z</time>
      </trkpt>
      <trkpt lat="43.62621" lon="6.60622">
        <ele>698.2</ele>
        <time>2023-11-26T10:08:45Z</time>
      </trkpt>
      <trkpt lat="43.6262" lon="6.60621">
        <ele>698.2</ele>
        <time>2023-11-26T10:08:46Z</time>
      </trkpt>
      <trkpt lat="43.62619" lon="6.60621">
        <ele>698.4</ele>
        <time>2023-11-26T10:08:47Z</time>
      </trkpt>
      <trkpt lat="43.62618" lon="6.6062">
        <ele>698.6</ele>
        <time>2023-11-26T10:08:48Z</time>
      </trkpt>
      <trkpt lat="43.62616" lon="6.60619">
        <ele>698.7</ele>
        <time>2023-11-26T10:08:49Z</time>
      </trkpt>
      <trkpt lat="43.62615" lon="6.60618">
        <ele>698.7</ele>
        <time>2023-11-26T10:08:50Z</time>
      </trkpt>
      <trkpt lat="43.62614" lon="6.60618">
        <ele>698.9</ele>
        <time>2023-11-26T10:08:51Z</time>
      </trkpt>
      <trkpt lat="43.62613" lon="6.60617">
        <ele>699</ele>
        <time>2023-11-26T10:08:52Z</time>
      </trkpt>
      <trkpt lat="43.62612" lon="6.60616">
        <ele>699.2</ele>
        <time>2023-11-26T10:08:53Z</time>
      </trkpt>
      <trkpt lat="43.62611" lon="6.60616">
        <ele>699.3</ele>
        <time>2023-11-26T10:08:54Z</time>
      </trkpt>
      <trkpt lat="43.6261" lon="6.60615">
        <ele>699.3</ele>
        <time>2023-11-26T10:08:55Z</time>
      </trkpt>
      <trkpt lat="43.62609" lon="6.60615">
        <ele>699.4</ele>
        <time>2023-11-26T10:08:56Z</time>
      </trkpt>
      <trkpt lat="43.62609" lon="6.60614">
        <ele>699.5</ele>
        <time>2023-11-26T10:08:57Z</time>
      </trkpt>
      <trkpt lat="43.62608" lon="6.60613">
        <ele>699.5</ele>
        <time>2023-11-26T10:08:58Z</time>
      </trkpt>
      <trkpt lat="43.62607" lon="6.60612">
        <ele>699.6</ele>
        <time>2023-11-26T10:08:59Z</time>
      </trkpt>
      <trkpt lat="43.62607" lon="6.60612">
        <ele>699.6</ele>
        <time>2023-11-26T10:09:00Z</time>
      </trkpt>
      <trkpt lat="43.62606" lon="6.60612">
        <ele>699.7</ele>
        <time>2023-11-26T10:09:01Z</time>
      </trkpt>
      <trkpt lat="43.62605" lon="6.60611">
        <ele>699.9</ele>
        <time>2023-11-26T10:09:02Z</time>
      </trkpt>
      <trkpt lat="43.62604" lon="6.6061">
        <ele>700</ele>
        <time>2023-11-26T10:09:03Z</time>
      </trkpt>
      <trkpt lat="43.62603" lon="6.6061">
        <ele>700</ele>
        <time>2023-11-26T10:09:04Z</time>
      </trkpt>
      <trkpt lat="43.62602" lon="6.60609">
        <ele>700.2</ele>
        <time>2023-11-26T10:09:05Z</time>
      </trkpt>
      <trkpt lat="43.62602" lon="6.60608">
        <ele>700.3</ele>
        <time>2023-11-26T10:09:06Z</time>
      </trkpt>
      <trkpt lat="43.62601" lon="6.60608">
        <ele>700.3</ele>
        <time>2023-11-26T10:09:07Z</time>
      </trkpt>
      <trkpt lat="43.62601" lon="6.60607">
        <ele>700.3</ele>
        <time>2023-11-26T10:09:08Z</time>
      </trkpt>
      <trkpt lat="43.626" lon="6.60607">
        <ele>700.3</ele>
        <time>2023-11-26T10:09:09Z</time>
      </trkpt>
      <trkpt lat="43.62599" lon="6.60606">
        <ele>700.4</ele>
        <time>2023-11-26T10:09:10Z</time>
      </trkpt>
      <trkpt lat="43.62598" lon="6.60605">
        <ele>700.4</ele>
        <time>2023-11-26T10:09:11Z</time>
      </trkpt>
      <trkpt lat="43.62597" lon="6.60604">
        <ele>700.4</ele>
        <time>2023-11-26T10:09:12Z</time>
      </trkpt>
      <trkpt lat="43.62596" lon="6.60604">
        <ele>700.5</ele>
        <time>2023-11-26T10:09:13Z</time>
      </trkpt>
      <trkpt lat="43.62595" lon="6.60603">
        <ele>700.5</ele>
        <time>2023-11-26T10:09:14Z</time>
      </trkpt>
      <trkpt lat="43.62594" lon="6.60603">
        <ele>700.6</ele>
        <time>2023-11-26T10:09:15Z</time>
      </trkpt>
      <trkpt lat="43.62593" lon="6.60603">
        <ele>700.7</ele>
        <time>2023-11-26T10:09:16Z</time>
      </trkpt>
      <trkpt lat="43.62592" lon="6.60602">
        <ele>700.8</ele>
        <time>2023-11-26T10:09:17Z</time>
      </trkpt>
      <trkpt lat="43.62591" lon="6.60602">
        <ele>700.8</ele>
        <time>2023-11-26T10:09:18Z</time>
      </trkpt>
      <trkpt lat="43.6259" lon="6.60602">
        <ele>701</ele>
        <time>2023-11-26T10:09:19Z</time>
      </trkpt>
      <trkpt lat="43.6259" lon="6.60601">
        <ele>701.1</ele>
        <time>2023-11-26T10:09:20Z</time>
      </trkpt>
      <trkpt lat="43.62589" lon="6.606">
        <ele>701.2</ele>
        <time>2023-11-26T10:09:21Z</time>
      </trkpt>
      <trkpt lat="43.62588" lon="6.60599">
        <ele>701.2</ele>
        <time>2023-11-26T10:09:22Z</time>
      </trkpt>
      <trkpt lat="43.62586" lon="6.60599">
        <ele>701.3</ele>
        <time>2023-11-26T10:09:23Z</time>
      </trkpt>
      <trkpt lat="43.62585" lon="6.60598">
        <ele>701.4</ele>
        <time>2023-11-26T10:09:24Z</time>
      </trkpt>
      <trkpt lat="43.62584" lon="6.60597">
        <ele>701.5</ele>
        <time>2023-11-26T10:09:25Z</time>
      </trkpt>
      <trkpt lat="43.62584" lon="6.60596">
        <ele>701.6</ele>
        <time>2023-11-26T10:09:26Z</time>
      </trkpt>
      <trkpt lat="43.62584" lon="6.60596">
        <ele>701.7</ele>
        <time>2023-11-26T10:09:27Z</time>
      </trkpt>
      <trkpt lat="43.62583" lon="6.60594">
        <ele>701.8</ele>
        <time>2023-11-26T10:09:28Z</time>
      </trkpt>
      <trkpt lat="43.62583" lon="6.60593">
        <ele>701.8</ele>
        <time>2023-11-26T10:09:29Z</time>
      </trkpt>
      <trkpt lat="43.62582" lon="6.60593">
        <ele>701.9</ele>
        <time>2023-11-26T10:09:30Z</time>
      </trkpt>
      <trkpt lat="43.62581" lon="6.60594">
        <ele>702</ele>
        <time>2023-11-26T10:09:31Z</time>
      </trkpt>
      <trkpt lat="43.6258" lon="6.60594">
        <ele>702.1</ele>
        <time>2023-11-26T10:09:32Z</time>
      </trkpt>
      <trkpt lat="43.6258" lon="6.60594">
        <ele>702.2</ele>
        <time>2023-11-26T10:09:33Z</time>
      </trkpt>
      <trkpt lat="43.62579" lon="6.60594">
        <ele>702.3</ele>
        <time>2023-11-26T10:09:34Z</time>
      </trkpt>
      <trkpt lat="43.62578" lon="6.60593">
        <ele>702.4</ele>
        <time>2023-11-26T10:09:35Z</time>
      </trkpt>
      <trkpt lat="43.62577" lon="6.60592">
        <ele>702.5</ele>
        <time>2023-11-26T10:09:36Z</time>
      </trkpt>
      <trkpt lat="43.62576" lon="6.60591">
        <ele>702.6</ele>
        <time>2023-11-26T10:09:37Z</time>
      </trkpt>
      <trkpt lat="43.62575" lon="6.60591">
        <ele>702.7</ele>
        <time>2023-11-26T10:09:38Z</time>
      </trkpt>
      <trkpt lat="43.62575" lon="6.60591">
        <ele>702.9</ele>
        <time>2023-11-26T10:09:39Z</time>
      </trkpt>
      <trkpt lat="43.62574" lon="6.6059">
        <ele>703.1</ele>
        <time>2023-11-26T10:09:40Z</time>
      </trkpt>
      <trkpt lat="43.62573" lon="6.60589">
        <ele>703.3</ele>
        <time>2023-11-26T10:09:41Z</time>
      </trkpt>
      <trkpt lat="43.62573" lon="6.60588">
        <ele>703.4</ele>
        <time>2023-11-26T10:09:42Z</time>
      </trkpt>
      <trkpt lat="43.62571" lon="6.60589">
        <ele>703.5</ele>
        <time>2023-11-26T10:09:43Z</time>
      </trkpt>
      <trkpt lat="43.6257" lon="6.60588">
        <ele>703.6</ele>
        <time>2023-11-26T10:09:44Z</time>
      </trkpt>
      <trkpt lat="43.62569" lon="6.60588">
        <ele>703.7</ele>
        <time>2023-11-26T10:09:45Z</time>
      </trkpt>
      <trkpt lat="43.62568" lon="6.60587">
        <ele>703.8</ele>
        <time>2023-11-26T10:09:46Z</time>
      </trkpt>
      <trkpt lat="43.62568" lon="6.60588">
        <ele>704</ele>
        <time>2023-11-26T10:09:47Z</time>
      </trkpt>
      <trkpt lat="43.62567" lon="6.60587">
        <ele>704.2</ele>
        <time>2023-11-26T10:09:48Z</time>
      </trkpt>
      <trkpt lat="43.62566" lon="6.60587">
        <ele>704.4</ele>
        <time>2023-11-26T10:09:49Z</time>
      </trkpt>
      <trkpt lat="43.62565" lon="6.60587">
        <ele>704.6</ele>
        <time>2023-11-26T10:09:50Z</time>
      </trkpt>
      <trkpt lat="43.62564" lon="6.60588">
        <ele>704.7</ele>
        <time>2023-11-26T10:09:51Z</time>
      </trkpt>
      <trkpt lat="43.62564" lon="6.60587">
        <ele>704.7</ele>
        <time>2023-11-26T10:09:52Z</time>
      </trkpt>
      <trkpt lat="43.62563" lon="6.60587">
        <ele>704.8</ele>
        <time>2023-11-26T10:09:53Z</time>
      </trkpt>
      <trkpt lat="43.62562" lon="6.60586">
        <ele>704.9</ele>
        <time>2023-11-26T10:09:54Z</time>
      </trkpt>
      <trkpt lat="43.62561" lon="6.60586">
        <ele>705</ele>
        <time>2023-11-26T10:09:55Z</time>
      </trkpt>
      <trkpt lat="43.6256" lon="6.60585">
        <ele>705.1</ele>
        <time>2023-11-26T10:09:56Z</time>
      </trkpt>
      <trkpt lat="43.62559" lon="6.60585">
        <ele>705.2</ele>
        <time>2023-11-26T10:09:57Z</time>
      </trkpt>
      <trkpt lat="43.62558" lon="6.60585">
        <ele>705.4</ele>
        <time>2023-11-26T10:09:58Z</time>
      </trkpt>
      <trkpt lat="43.62557" lon="6.60584">
        <ele>705.5</ele>
        <time>2023-11-26T10:09:59Z</time>
      </trkpt>
      <trkpt lat="43.62556" lon="6.60584">
        <ele>705.7</ele>
        <time>2023-11-26T10:10:00Z</time>
      </trkpt>
      <trkpt lat="43.62554" lon="6.60584">
        <ele>705.7</ele>
        <time>2023-11-26T10:10:01Z</time>
      </trkpt>
      <trkpt lat="43.62553" lon="6.60583">
        <ele>705.9</ele>
        <time>2023-11-26T10:10:02Z</time>
      </trkpt>
      <trkpt lat="43.62552" lon="6.60583">
        <ele>706</ele>
        <time>2023-11-26T10:10:03Z</time>
      </trkpt>
      <trkpt lat="43.62551" lon="6.60582">
        <ele>706.1</ele>
        <time>2023-11-26T10:10:04Z</time>
      </trkpt>
      <trkpt lat="43.6255" lon="6.60582">
        <ele>706.1</ele>
        <time>2023-11-26T10:10:05Z</time>
      </trkpt>
      <trkpt lat="43.62549" lon="6.60581">
        <ele>706.3</ele>
        <time>2023-11-26T10:10:06Z</time>
      </trkpt>
      <trkpt lat="43.62548" lon="6.60581">
        <ele>706.5</ele>
        <time>2023-11-26T10:10:07Z</time>
      </trkpt>
      <trkpt lat="43.62547" lon="6.60581">
        <ele>706.6</ele>
        <time>2023-11-26T10:10:08Z</time>
      </trkpt>
      <trkpt lat="43.62547" lon="6.60581">
        <ele>706.6</ele>
        <time>2023-11-26T10:10:09Z</time>
      </trkpt>
      <trkpt lat="43.62545" lon="6.6058">
        <ele>706.7</ele>
        <time>2023-11-26T10:10:10Z</time>
      </trkpt>
      <trkpt lat="43.62544" lon="6.6058">
        <ele>706.7</ele>
        <time>2023-11-26T10:10:11Z</time>
      </trkpt>
      <trkpt lat="43.62543" lon="6.60579">
        <ele>706.9</ele>
        <time>2023-11-26T10:10:12Z</time>
      </trkpt>
      <trkpt lat="43.62543" lon="6.60579">
        <ele>707</ele>
        <time>2023-11-26T10:10:13Z</time>
      </trkpt>
      <trkpt lat="43.62542" lon="6.60579">
        <ele>707.1</ele>
        <time>2023-11-26T10:10:14Z</time>
      </trkpt>
      <trkpt lat="43.62541" lon="6.60579">
        <ele>707.2</ele>
        <time>2023-11-26T10:10:15Z</time>
      </trkpt>
      <trkpt lat="43.6254" lon="6.60579">
        <ele>707.3</ele>
        <time>2023-11-26T10:10:16Z</time>
      </trkpt>
      <trkpt lat="43.6254" lon="6.60578">
        <ele>707.4</ele>
        <time>2023-11-26T10:10:17Z</time>
      </trkpt>
      <trkpt lat="43.62539" lon="6.60577">
        <ele>707.5</ele>
        <time>2023-11-26T10:10:18Z</time>
      </trkpt>
      <trkpt lat="43.62539" lon="6.60577">
        <ele>707.7</ele>
        <time>2023-11-26T10:10:19Z</time>
      </trkpt>
      <trkpt lat="43.62538" lon="6.60577">
        <ele>707.8</ele>
        <time>2023-11-26T10:10:20Z</time>
      </trkpt>
      <trkpt lat="43.62536" lon="6.60576">
        <ele>707.8</ele>
        <time>2023-11-26T10:10:21Z</time>
      </trkpt>
      <trkpt lat="43.62535" lon="6.60575">
        <ele>708.1</ele>
        <time>2023-11-26T10:10:22Z</time>
      </trkpt>
      <trkpt lat="43.62534" lon="6.60575">
        <ele>708.2</ele>
        <time>2023-11-26T10:10:23Z</time>
      </trkpt>
      <trkpt lat="43.62533" lon="6.60575">
        <ele>708.3</ele>
        <time>2023-11-26T10:10:24Z</time>
      </trkpt>
      <trkpt lat="43.62532" lon="6.60575">
        <ele>708.4</ele>
        <time>2023-11-26T10:10:25Z</time>
      </trkpt>
      <trkpt lat="43.62531" lon="6.60575">
        <ele>708.6</ele>
        <time>2023-11-26T10:10:26Z</time>
      </trkpt>
      <trkpt lat="43.6253" lon="6.60575">
        <ele>708.7</ele>
        <time>2023-11-26T10:10:27Z</time>
      </trkpt>
      <trkpt lat="43.62529" lon="6.60574">
        <ele>708.9</ele>
        <time>2023-11-26T10:10:28Z</time>
      </trkpt>
      <trkpt lat="43.62529" lon="6.60575">
        <ele>709</ele>
        <time>2023-11-26T10:10:29Z</time>
      </trkpt>
      <trkpt lat="43.62528" lon="6.60574">
        <ele>709.1</ele>
        <time>2023-11-26T10:10:30Z</time>
      </trkpt>
      <trkpt lat="43.62527" lon="6.60574">
        <ele>709.1</ele>
        <time>2023-11-26T10:10:31Z</time>
      </trkpt>
      <trkpt lat="43.62526" lon="6.60574">
        <ele>709.2</ele>
        <time>2023-11-26T10:10:32Z</time>
      </trkpt>
      <trkpt lat="43.62525" lon="6.60573">
        <ele>709.3</ele>
        <time>2023-11-26T10:10:33Z</time>
      </trkpt>
      <trkpt lat="43.62525" lon="6.60573">
        <ele>709.3</ele>
        <time>2023-11-26T10:10:34Z</time>
      </trkpt>
      <trkpt lat="43.62524" lon="6.60573">
        <ele>709.5</ele>
        <time>2023-11-26T10:10:35Z</time>
      </trkpt>
      <trkpt lat="43.62524" lon="6.60572">
        <ele>709.8</ele>
        <time>2023-11-26T10:10:36Z</time>
      </trkpt>
      <trkpt lat="43.62523" lon="6.60572">
        <ele>709.9</ele>
        <time>2023-11-26T10:10:37Z</time>
      </trkpt>
      <trkpt lat="43.62522" lon="6.60572">
        <ele>710</ele>
        <time>2023-11-26T10:10:38Z</time>
      </trkpt>
      <trkpt lat="43.62522" lon="6.60572">
        <ele>710.2</ele>
        <time>2023-11-26T10:10:39Z</time>
      </trkpt>
      <trkpt lat="43.62521" lon="6.60572">
        <ele>710.3</ele>
        <time>2023-11-26T10:10:40Z</time>
      </trkpt>
      <trkpt lat="43.6252" lon="6.60572">
        <ele>710.3</ele>
        <time>2023-11-26T10:10:41Z</time>
      </trkpt>
      <trkpt lat="43.62519" lon="6.60571">
        <ele>710.4</ele>
        <time>2023-11-26T10:10:42Z</time>
      </trkpt>
      <trkpt lat="43.62519" lon="6.60571">
        <ele>710.6</ele>
        <time>2023-11-26T10:10:43Z</time>
      </trkpt>
      <trkpt lat="43.62518" lon="6.60571">
        <ele>710.6</ele>
        <time>2023-11-26T10:10:44Z</time>
      </trkpt>
      <trkpt lat="43.62517" lon="6.60571">
        <ele>710.9</ele>
        <time>2023-11-26T10:10:45Z</time>
      </trkpt>
      <trkpt lat="43.62516" lon="6.6057">
        <ele>711</ele>
        <time>2023-11-26T10:10:46Z</time>
      </trkpt>
      <trkpt lat="43.62515" lon="6.60569">
        <ele>711.1</ele>
        <time>2023-11-26T10:10:47Z</time>
      </trkpt>
      <trkpt lat="43.62515" lon="6.60569">
        <ele>711.3</ele>
        <time>2023-11-26T10:10:48Z</time>
      </trkpt>
      <trkpt lat="43.62514" lon="6.60568">
        <ele>711.4</ele>
        <time>2023-11-26T10:10:49Z</time>
      </trkpt>
      <trkpt lat="43.62513" lon="6.60567">
        <ele>711.6</ele>
        <time>2023-11-26T10:10:50Z</time>
      </trkpt>
      <trkpt lat="43.62512" lon="6.60567">
        <ele>711.7</ele>
        <time>2023-11-26T10:10:51Z</time>
      </trkpt>
      <trkpt lat="43.62512" lon="6.60568">
        <ele>711.9</ele>
        <time>2023-11-26T10:10:52Z</time>
      </trkpt>
      <trkpt lat="43.62511" lon="6.60567">
        <ele>712</ele>
        <time>2023-11-26T10:10:53Z</time>
      </trkpt>
      <trkpt lat="43.62511" lon="6.60567">
        <ele>712.1</ele>
        <time>2023-11-26T10:10:54Z</time>
      </trkpt>
      <trkpt lat="43.62511" lon="6.60567">
        <ele>712.4</ele>
        <time>2023-11-26T10:10:55Z</time>
      </trkpt>
      <trkpt lat="43.6251" lon="6.60566">
        <ele>712.5</ele>
        <time>2023-11-26T10:10:56Z</time>
      </trkpt>
      <trkpt lat="43.62509" lon="6.60566">
        <ele>712.7</ele>
        <time>2023-11-26T10:10:57Z</time>
      </trkpt>
      <trkpt lat="43.62508" lon="6.60566">
        <ele>712.9</ele>
        <time>2023-11-26T10:10:58Z</time>
      </trkpt>
      <trkpt lat="43.62507" lon="6.60566">
        <ele>713.1</ele>
        <time>2023-11-26T10:10:59Z</time>
      </trkpt>
      <trkpt lat="43.62506" lon="6.60564">
        <ele>713.2</ele>
        <time>2023-11-26T10:11:00Z</time>
      </trkpt>
      <trkpt lat="43.62506" lon="6.60564">
        <ele>713.4</ele>
        <time>2023-11-26T10:11:01Z</time>
      </trkpt>
      <trkpt lat="43.62505" lon="6.60564">
        <ele>713.5</ele>
        <time>2023-11-26T10:11:02Z</time>
      </trkpt>
      <trkpt lat="43.62504" lon="6.60564">
        <ele>713.5</ele>
        <time>2023-11-26T10:11:03Z</time>
      </trkpt>
      <trkpt lat="43.62502" lon="6.60564">
        <ele>713.6</ele>
        <time>2023-11-26T10:11:04Z</time>
      </trkpt>
      <trkpt lat="43.62502" lon="6.60563">
        <ele>713.8</ele>
        <time>2023-11-26T10:11:05Z</time>
      </trkpt>
      <trkpt lat="43.62501" lon="6.60563">
        <ele>713.9</ele>
        <time>2023-11-26T10:11:06Z</time>
      </trkpt>
      <trkpt lat="43.625" lon="6.60562">
        <ele>714</ele>
        <time>2023-11-26T10:11:07Z</time>
      </trkpt>
      <trkpt lat="43.62499" lon="6.60562">
        <ele>714.1</ele>
        <time>2023-11-26T10:11:08Z</time>
      </trkpt>
      <trkpt lat="43.62498" lon="6.60562">
        <ele>714.3</ele>
        <time>2023-11-26T10:11:09Z</time>
      </trkpt>
      <trkpt lat="43.62497" lon="6.60562">
        <ele>714.5</ele>
        <time>2023-11-26T10:11:10Z</time>
      </trkpt>
      <trkpt lat="43.62496" lon="6.60561">
        <ele>714.6</ele>
        <time>2023-11-26T10:11:11Z</time>
      </trkpt>
      <trkpt lat="43.62494" lon="6.60561">
        <ele>714.6</ele>
        <time>2023-11-26T10:11:12Z</time>
      </trkpt>
      <trkpt lat="43.62493" lon="6.60561">
        <ele>714.7</ele>
        <time>2023-11-26T10:11:13Z</time>
      </trkpt>
      <trkpt lat="43.62492" lon="6.6056">
        <ele>714.7</ele>
        <time>2023-11-26T10:11:14Z</time>
      </trkpt>
      <trkpt lat="43.62491" lon="6.6056">
        <ele>714.8</ele>
        <time>2023-11-26T10:11:15Z</time>
      </trkpt>
      <trkpt lat="43.6249" lon="6.60559">
        <ele>714.8</ele>
        <time>2023-11-26T10:11:16Z</time>
      </trkpt>
      <trkpt lat="43.62489" lon="6.60559">
        <ele>714.8</ele>
        <time>2023-11-26T10:11:17Z</time>
      </trkpt>
      <trkpt lat="43.62488" lon="6.60558">
        <ele>714.9</ele>
        <time>2023-11-26T10:11:18Z</time>
      </trkpt>
      <trkpt lat="43.62488" lon="6.60557">
        <ele>715.1</ele>
        <time>2023-11-26T10:11:19Z</time>
      </trkpt>
      <trkpt lat="43.62487" lon="6.60557">
        <ele>715.2</ele>
        <time>2023-11-26T10:11:20Z</time>
      </trkpt>
      <trkpt lat="43.62486" lon="6.60557">
        <ele>715.2</ele>
        <time>2023-11-26T10:11:21Z</time>
      </trkpt>
      <trkpt lat="43.62485" lon="6.60556">
        <ele>715.3</ele>
        <time>2023-11-26T10:11:22Z</time>
      </trkpt>
      <trkpt lat="43.62485" lon="6.60555">
        <ele>715.4</ele>
        <time>2023-11-26T10:11:23Z</time>
      </trkpt>
      <trkpt lat="43.62484" lon="6.60554">
        <ele>715.5</ele>
        <time>2023-11-26T10:11:24Z</time>
      </trkpt>
      <trkpt lat="43.62483" lon="6.60553">
        <ele>715.6</ele>
        <time>2023-11-26T10:11:25Z</time>
      </trkpt>
      <trkpt lat="43.62482" lon="6.60552">
        <ele>715.7</ele>
        <time>2023-11-26T10:11:26Z</time>
      </trkpt>
      <trkpt lat="43.62482" lon="6.60551">
        <ele>715.7</ele>
        <time>2023-11-26T10:11:27Z</time>
      </trkpt>
      <trkpt lat="43.62481" lon="6.60551">
        <ele>715.8</ele>
        <time>2023-11-26T10:11:28Z</time>
      </trkpt>
      <trkpt lat="43.6248" lon="6.6055">
        <ele>715.8</ele>
        <time>2023-11-26T10:11:29Z</time>
      </trkpt>
      <trkpt lat="43.6248" lon="6.6055">
        <ele>715.9</ele>
        <time>2023-11-26T10:11:30Z</time>
      </trkpt>
      <trkpt lat="43.62479" lon="6.60549">
        <ele>715.9</ele>
        <time>2023-11-26T10:11:31Z</time>
      </trkpt>
      <trkpt lat="43.62479" lon="6.60549">
        <ele>715.9</ele>
        <time>2023-11-26T10:11:32Z</time>
      </trkpt>
      <trkpt lat="43.62478" lon="6.60548">
        <ele>715.9</ele>
        <time>2023-11-26T10:11:33Z</time>
      </trkpt>
      <trkpt lat="43.62477" lon="6.60548">
        <ele>715.9</ele>
        <time>2023-11-26T10:11:34Z</time>
      </trkpt>
      <trkpt lat="43.62476" lon="6.60547">
        <ele>715.9</ele>
        <time>2023-11-26T10:11:35Z</time>
      </trkpt>
      <trkpt lat="43.62475" lon="6.60546">
        <ele>715.9</ele>
        <time>2023-11-26T10:11:36Z</time>
      </trkpt>
      <trkpt lat="43.62474" lon="6.60545">
        <ele>715.9</ele>
        <time>2023-11-26T10:11:37Z</time>
      </trkpt>
      <trkpt lat="43.62473" lon="6.60544">
        <ele>715.9</ele>
        <time>2023-11-26T10:11:38Z</time>
      </trkpt>
      <trkpt lat="43.62472" lon="6.60543">
        <ele>715.9</ele>
        <time>2023-11-26T10:11:39Z</time>
      </trkpt>
      <trkpt lat="43.62472" lon="6.60542">
        <ele>715.9</ele>
        <time>2023-11-26T10:11:40Z</time>
      </trkpt>
      <trkpt lat="43.62471" lon="6.60541">
        <ele>715.9</ele>
        <time>2023-11-26T10:11:41Z</time>
      </trkpt>
      <trkpt lat="43.6247" lon="6.6054">
        <ele>715.9</ele>
        <time>2023-11-26T10:11:42Z</time>
      </trkpt>
      <trkpt lat="43.62469" lon="6.60539">
        <ele>715.9</ele>
        <time>2023-11-26T10:11:43Z</time>
      </trkpt>
      <trkpt lat="43.62468" lon="6.60539">
        <ele>715.9</ele>
        <time>2023-11-26T10:11:44Z</time>
      </trkpt>
      <trkpt lat="43.62467" lon="6.60538">
        <ele>716</ele>
        <time>2023-11-26T10:11:45Z</time>
      </trkpt>
      <trkpt lat="43.62466" lon="6.60537">
        <ele>715.9</ele>
        <time>2023-11-26T10:11:46Z</time>
      </trkpt>
      <trkpt lat="43.62465" lon="6.60536">
        <ele>715.9</ele>
        <time>2023-11-26T10:11:47Z</time>
      </trkpt>
      <trkpt lat="43.62464" lon="6.60535">
        <ele>716.1</ele>
        <time>2023-11-26T10:11:48Z</time>
      </trkpt>
      <trkpt lat="43.62464" lon="6.60534">
        <ele>716.1</ele>
        <time>2023-11-26T10:11:49Z</time>
      </trkpt>
      <trkpt lat="43.62463" lon="6.60533">
        <ele>716.1</ele>
        <time>2023-11-26T10:11:50Z</time>
      </trkpt>
      <trkpt lat="43.62462" lon="6.60532">
        <ele>716.1</ele>
        <time>2023-11-26T10:11:51Z</time>
      </trkpt>
      <trkpt lat="43.62461" lon="6.60532">
        <ele>716.1</ele>
        <time>2023-11-26T10:11:52Z</time>
      </trkpt>
      <trkpt lat="43.6246" lon="6.6053">
        <ele>716.1</ele>
        <time>2023-11-26T10:11:53Z</time>
      </trkpt>
      <trkpt lat="43.62459" lon="6.6053">
        <ele>716.2</ele>
        <time>2023-11-26T10:11:54Z</time>
      </trkpt>
      <trkpt lat="43.62458" lon="6.60529">
        <ele>716.3</ele>
        <time>2023-11-26T10:11:55Z</time>
      </trkpt>
      <trkpt lat="43.62457" lon="6.60528">
        <ele>716.4</ele>
        <time>2023-11-26T10:11:56Z</time>
      </trkpt>
      <trkpt lat="43.62456" lon="6.60527">
        <ele>716.5</ele>
        <time>2023-11-26T10:11:57Z</time>
      </trkpt>
      <trkpt lat="43.62455" lon="6.60525">
        <ele>716.5</ele>
        <time>2023-11-26T10:11:58Z</time>
      </trkpt>
      <trkpt lat="43.62454" lon="6.60524">
        <ele>716.5</ele>
        <time>2023-11-26T10:11:59Z</time>
      </trkpt>
      <trkpt lat="43.62454" lon="6.60524">
        <ele>716.5</ele>
        <time>2023-11-26T10:12:00Z</time>
      </trkpt>
      <trkpt lat="43.62453" lon="6.60523">
        <ele>716.6</ele>
        <time>2023-11-26T10:12:01Z</time>
      </trkpt>
      <trkpt lat="43.62452" lon="6.60522">
        <ele>716.7</ele>
        <time>2023-11-26T10:12:02Z</time>
      </trkpt>
      <trkpt lat="43.62451" lon="6.60521">
        <ele>716.7</ele>
        <time>2023-11-26T10:12:03Z</time>
      </trkpt>
      <trkpt lat="43.6245" lon="6.6052">
        <ele>716.7</ele>
        <time>2023-11-26T10:12:04Z</time>
      </trkpt>
      <trkpt lat="43.62449" lon="6.60519">
        <ele>716.8</ele>
        <time>2023-11-26T10:12:05Z</time>
      </trkpt>
      <trkpt lat="43.62448" lon="6.60518">
        <ele>717</ele>
        <time>2023-11-26T10:12:06Z</time>
      </trkpt>
      <trkpt lat="43.62448" lon="6.60517">
        <ele>717.1</ele>
        <time>2023-11-26T10:12:07Z</time>
      </trkpt>
      <trkpt lat="43.62447" lon="6.60516">
        <ele>717.1</ele>
        <time>2023-11-26T10:12:08Z</time>
      </trkpt>
      <trkpt lat="43.62446" lon="6.60515">
        <ele>717.2</ele>
        <time>2023-11-26T10:12:09Z</time>
      </trkpt>
      <trkpt lat="43.62445" lon="6.60514">
        <ele>717.2</ele>
        <time>2023-11-26T10:12:10Z</time>
      </trkpt>
      <trkpt lat="43.62444" lon="6.60513">
        <ele>717.4</ele>
        <time>2023-11-26T10:12:11Z</time>
      </trkpt>
      <trkpt lat="43.62444" lon="6.60512">
        <ele>717.5</ele>
        <time>2023-11-26T10:12:12Z</time>
      </trkpt>
      <trkpt lat="43.62443" lon="6.60512">
        <ele>717.6</ele>
        <time>2023-11-26T10:12:13Z</time>
      </trkpt>
      <trkpt lat="43.62442" lon="6.60511">
        <ele>717.7</ele>
        <time>2023-11-26T10:12:14Z</time>
      </trkpt>
      <trkpt lat="43.62441" lon="6.6051">
        <ele>717.8</ele>
        <time>2023-11-26T10:12:15Z</time>
      </trkpt>
      <trkpt lat="43.62441" lon="6.60508">
        <ele>717.9</ele>
        <time>2023-11-26T10:12:16Z</time>
      </trkpt>
      <trkpt lat="43.6244" lon="6.60508">
        <ele>718</ele>
        <time>2023-11-26T10:12:17Z</time>
      </trkpt>
      <trkpt lat="43.62439" lon="6.60507">
        <ele>718.1</ele>
        <time>2023-11-26T10:12:18Z</time>
      </trkpt>
      <trkpt lat="43.62438" lon="6.60506">
        <ele>718.1</ele>
        <time>2023-11-26T10:12:19Z</time>
      </trkpt>
      <trkpt lat="43.62437" lon="6.60504">
        <ele>718.1</ele>
        <time>2023-11-26T10:12:20Z</time>
      </trkpt>
      <trkpt lat="43.62437" lon="6.60504">
        <ele>718.1</ele>
        <time>2023-11-26T10:12:21Z</time>
      </trkpt>
      <trkpt lat="43.62436" lon="6.60503">
        <ele>718.3</ele>
        <time>2023-11-26T10:12:22Z</time>
      </trkpt>
      <trkpt lat="43.62435" lon="6.60502">
        <ele>718.4</ele>
        <time>2023-11-26T10:12:23Z</time>
      </trkpt>
      <trkpt lat="43.62435" lon="6.60502">
        <ele>718.3</ele>
        <time>2023-11-26T10:12:24Z</time>
      </trkpt>
      <trkpt lat="43.62434" lon="6.60501">
        <ele>718.3</ele>
        <time>2023-11-26T10:12:25Z</time>
      </trkpt>
      <trkpt lat="43.62434" lon="6.605">
        <ele>718.4</ele>
        <time>2023-11-26T10:12:26Z</time>
      </trkpt>
      <trkpt lat="43.62433" lon="6.60499">
        <ele>718.5</ele>
        <time>2023-11-26T10:12:27Z</time>
      </trkpt>
      <trkpt lat="43.62432" lon="6.60498">
        <ele>718.6</ele>
        <time>2023-11-26T10:12:28Z</time>
      </trkpt>
      <trkpt lat="43.62431" lon="6.60497">
        <ele>718.6</ele>
        <time>2023-11-26T10:12:29Z</time>
      </trkpt>
      <trkpt lat="43.6243" lon="6.60497">
        <ele>718.7</ele>
        <time>2023-11-26T10:12:30Z</time>
      </trkpt>
      <trkpt lat="43.62429" lon="6.60496">
        <ele>718.8</ele>
        <time>2023-11-26T10:12:31Z</time>
      </trkpt>
      <trkpt lat="43.62428" lon="6.60495">
        <ele>718.9</ele>
        <time>2023-11-26T10:12:32Z</time>
      </trkpt>
      <trkpt lat="43.62427" lon="6.60494">
        <ele>719</ele>
        <time>2023-11-26T10:12:33Z</time>
      </trkpt>
      <trkpt lat="43.62426" lon="6.60493">
        <ele>719.2</ele>
        <time>2023-11-26T10:12:34Z</time>
      </trkpt>
      <trkpt lat="43.62425" lon="6.60492">
        <ele>719.2</ele>
        <time>2023-11-26T10:12:35Z</time>
      </trkpt>
      <trkpt lat="43.62424" lon="6.60491">
        <ele>719.4</ele>
        <time>2023-11-26T10:12:36Z</time>
      </trkpt>
      <trkpt lat="43.62423" lon="6.6049">
        <ele>719.4</ele>
        <time>2023-11-26T10:12:37Z</time>
      </trkpt>
      <trkpt lat="43.62422" lon="6.60489">
        <ele>719.5</ele>
        <time>2023-11-26T10:12:38Z</time>
      </trkpt>
      <trkpt lat="43.62422" lon="6.60488">
        <ele>719.6</ele>
        <time>2023-11-26T10:12:39Z</time>
      </trkpt>
      <trkpt lat="43.62421" lon="6.60487">
        <ele>719.7</ele>
        <time>2023-11-26T10:12:40Z</time>
      </trkpt>
      <trkpt lat="43.62421" lon="6.60486">
        <ele>719.8</ele>
        <time>2023-11-26T10:12:41Z</time>
      </trkpt>
      <trkpt lat="43.6242" lon="6.60485">
        <ele>719.8</ele>
        <time>2023-11-26T10:12:42Z</time>
      </trkpt>
      <trkpt lat="43.62418" lon="6.60484">
        <ele>719.8</ele>
        <time>2023-11-26T10:12:43Z</time>
      </trkpt>
      <trkpt lat="43.62417" lon="6.60483">
        <ele>719.7</ele>
        <time>2023-11-26T10:12:44Z</time>
      </trkpt>
      <trkpt lat="43.62417" lon="6.60482">
        <ele>719.7</ele>
        <time>2023-11-26T10:12:45Z</time>
      </trkpt>
      <trkpt lat="43.62417" lon="6.6048">
        <ele>719.7</ele>
        <time>2023-11-26T10:12:46Z</time>
      </trkpt>
      <trkpt lat="43.62416" lon="6.6048">
        <ele>719.7</ele>
        <time>2023-11-26T10:12:47Z</time>
      </trkpt>
      <trkpt lat="43.62415" lon="6.60479">
        <ele>719.8</ele>
        <time>2023-11-26T10:12:48Z</time>
      </trkpt>
      <trkpt lat="43.62415" lon="6.60478">
        <ele>720</ele>
        <time>2023-11-26T10:12:49Z</time>
      </trkpt>
      <trkpt lat="43.62414" lon="6.60477">
        <ele>720.1</ele>
        <time>2023-11-26T10:12:50Z</time>
      </trkpt>
      <trkpt lat="43.62413" lon="6.60476">
        <ele>720.1</ele>
        <time>2023-11-26T10:12:51Z</time>
      </trkpt>
      <trkpt lat="43.62412" lon="6.60475">
        <ele>720.1</ele>
        <time>2023-11-26T10:12:52Z</time>
      </trkpt>
      <trkpt lat="43.62411" lon="6.60475">
        <ele>720.1</ele>
        <time>2023-11-26T10:12:53Z</time>
      </trkpt>
      <trkpt lat="43.62411" lon="6.60474">
        <ele>720.1</ele>
        <time>2023-11-26T10:12:54Z</time>
      </trkpt>
      <trkpt lat="43.6241" lon="6.60474">
        <ele>720.2</ele>
        <time>2023-11-26T10:12:55Z</time>
      </trkpt>
      <trkpt lat="43.62409" lon="6.60473">
        <ele>720.2</ele>
        <time>2023-11-26T10:12:56Z</time>
      </trkpt>
      <trkpt lat="43.62408" lon="6.60472">
        <ele>720.3</ele>
        <time>2023-11-26T10:12:57Z</time>
      </trkpt>
      <trkpt lat="43.62407" lon="6.6047">
        <ele>720.3</ele>
        <time>2023-11-26T10:12:58Z</time>
      </trkpt>
      <trkpt lat="43.62406" lon="6.60469">
        <ele>720.4</ele>
        <time>2023-11-26T10:12:59Z</time>
      </trkpt>
      <trkpt lat="43.62405" lon="6.60469">
        <ele>720.4</ele>
        <time>2023-11-26T10:13:00Z</time>
      </trkpt>
      <trkpt lat="43.62404" lon="6.60468">
        <ele>720.4</ele>
        <time>2023-11-26T10:13:01Z</time>
      </trkpt>
      <trkpt lat="43.62403" lon="6.60468">
        <ele>720.5</ele>
        <time>2023-11-26T10:13:02Z</time>
      </trkpt>
      <trkpt lat="43.62402" lon="6.60467">
        <ele>720.5</ele>
        <time>2023-11-26T10:13:03Z</time>
      </trkpt>
      <trkpt lat="43.62401" lon="6.60466">
        <ele>720.6</ele>
        <time>2023-11-26T10:13:04Z</time>
      </trkpt>
      <trkpt lat="43.624" lon="6.60465">
        <ele>720.7</ele>
        <time>2023-11-26T10:13:05Z</time>
      </trkpt>
      <trkpt lat="43.62399" lon="6.60464">
        <ele>720.9</ele>
        <time>2023-11-26T10:13:06Z</time>
      </trkpt>
      <trkpt lat="43.62398" lon="6.60463">
        <ele>720.9</ele>
        <time>2023-11-26T10:13:07Z</time>
      </trkpt>
      <trkpt lat="43.62398" lon="6.60463">
        <ele>721</ele>
        <time>2023-11-26T10:13:08Z</time>
      </trkpt>
      <trkpt lat="43.62397" lon="6.60462">
        <ele>721</ele>
        <time>2023-11-26T10:13:09Z</time>
      </trkpt>
      <trkpt lat="43.62395" lon="6.60461">
        <ele>721.1</ele>
        <time>2023-11-26T10:13:10Z</time>
      </trkpt>
      <trkpt lat="43.62395" lon="6.6046">
        <ele>721.1</ele>
        <time>2023-11-26T10:13:11Z</time>
      </trkpt>
      <trkpt lat="43.62394" lon="6.60459">
        <ele>721.1</ele>
        <time>2023-11-26T10:13:12Z</time>
      </trkpt>
      <trkpt lat="43.62393" lon="6.60458">
        <ele>721.1</ele>
        <time>2023-11-26T10:13:13Z</time>
      </trkpt>
      <trkpt lat="43.62392" lon="6.60458">
        <ele>721.2</ele>
        <time>2023-11-26T10:13:14Z</time>
      </trkpt>
      <trkpt lat="43.62391" lon="6.60457">
        <ele>721.2</ele>
        <time>2023-11-26T10:13:15Z</time>
      </trkpt>
      <trkpt lat="43.6239" lon="6.60456">
        <ele>721.2</ele>
        <time>2023-11-26T10:13:16Z</time>
      </trkpt>
      <trkpt lat="43.62389" lon="6.60455">
        <ele>721.2</ele>
        <time>2023-11-26T10:13:17Z</time>
      </trkpt>
      <trkpt lat="43.62388" lon="6.60454">
        <ele>721.3</ele>
        <time>2023-11-26T10:13:18Z</time>
      </trkpt>
      <trkpt lat="43.62387" lon="6.60453">
        <ele>721.3</ele>
        <time>2023-11-26T10:13:19Z</time>
      </trkpt>
      <trkpt lat="43.62386" lon="6.60452">
        <ele>721.4</ele>
        <time>2023-11-26T10:13:20Z</time>
      </trkpt>
      <trkpt lat="43.62385" lon="6.60452">
        <ele>721.4</ele>
        <time>2023-11-26T10:13:21Z</time>
      </trkpt>
      <trkpt lat="43.62384" lon="6.60451">
        <ele>721.5</ele>
        <time>2023-11-26T10:13:22Z</time>
      </trkpt>
      <trkpt lat="43.62383" lon="6.60451">
        <ele>721.6</ele>
        <time>2023-11-26T10:13:23Z</time>
      </trkpt>
      <trkpt lat="43.62382" lon="6.6045">
        <ele>721.6</ele>
        <time>2023-11-26T10:13:24Z</time>
      </trkpt>
      <trkpt lat="43.62382" lon="6.60449">
        <ele>721.7</ele>
        <time>2023-11-26T10:13:25Z</time>
      </trkpt>
      <trkpt lat="43.62381" lon="6.60448">
        <ele>721.8</ele>
        <time>2023-11-26T10:13:26Z</time>
      </trkpt>
      <trkpt lat="43.6238" lon="6.60447">
        <ele>721.8</ele>
        <time>2023-11-26T10:13:27Z</time>
      </trkpt>
      <trkpt lat="43.62379" lon="6.60447">
        <ele>721.8</ele>
        <time>2023-11-26T10:13:28Z</time>
      </trkpt>
      <trkpt lat="43.62378" lon="6.60447">
        <ele>721.8</ele>
        <time>2023-11-26T10:13:29Z</time>
      </trkpt>
      <trkpt lat="43.62378" lon="6.60446">
        <ele>721.9</ele>
        <time>2023-11-26T10:13:30Z</time>
      </trkpt>
      <trkpt lat="43.62377" lon="6.60445">
        <ele>721.9</ele>
        <time>2023-11-26T10:13:31Z</time>
      </trkpt>
      <trkpt lat="43.62376" lon="6.60444">
        <ele>722</ele>
        <time>2023-11-26T10:13:32Z</time>
      </trkpt>
      <trkpt lat="43.62375" lon="6.60443">
        <ele>722.1</ele>
        <time>2023-11-26T10:13:33Z</time>
      </trkpt>
      <trkpt lat="43.62374" lon="6.60442">
        <ele>722.2</ele>
        <time>2023-11-26T10:13:34Z</time>
      </trkpt>
      <trkpt lat="43.62373" lon="6.60441">
        <ele>722.2</ele>
        <time>2023-11-26T10:13:35Z</time>
      </trkpt>
      <trkpt lat="43.62372" lon="6.6044">
        <ele>722.3</ele>
        <time>2023-11-26T10:13:36Z</time>
      </trkpt>
      <trkpt lat="43.62372" lon="6.60438">
        <ele>722.3</ele>
        <time>2023-11-26T10:13:37Z</time>
      </trkpt>
      <trkpt lat="43.62371" lon="6.60437">
        <ele>722.5</ele>
        <time>2023-11-26T10:13:38Z</time>
      </trkpt>
      <trkpt lat="43.6237" lon="6.60435">
        <ele>722.6</ele>
        <time>2023-11-26T10:13:39Z</time>
      </trkpt>
      <trkpt lat="43.62369" lon="6.60434">
        <ele>722.7</ele>
        <time>2023-11-26T10:13:40Z</time>
      </trkpt>
      <trkpt lat="43.62368" lon="6.60433">
        <ele>722.7</ele>
        <time>2023-11-26T10:13:41Z</time>
      </trkpt>
      <trkpt lat="43.62368" lon="6.60433">
        <ele>722.8</ele>
        <time>2023-11-26T10:13:42Z</time>
      </trkpt>
      <trkpt lat="43.62366" lon="6.60432">
        <ele>722.8</ele>
        <time>2023-11-26T10:13:43Z</time>
      </trkpt>
      <trkpt lat="43.62366" lon="6.60431">
        <ele>722.9</ele>
        <time>2023-11-26T10:13:44Z</time>
      </trkpt>
      <trkpt lat="43.62366" lon="6.60431">
        <ele>722.9</ele>
        <time>2023-11-26T10:13:45Z</time>
      </trkpt>
      <trkpt lat="43.62365" lon="6.60431">
        <ele>723</ele>
        <time>2023-11-26T10:13:46Z</time>
      </trkpt>
      <trkpt lat="43.62365" lon="6.6043">
        <ele>723</ele>
        <time>2023-11-26T10:13:47Z</time>
      </trkpt>
      <trkpt lat="43.62365" lon="6.6043">
        <ele>723</ele>
        <time>2023-11-26T10:13:48Z</time>
      </trkpt>
      <trkpt lat="43.62365" lon="6.60429">
        <ele>723</ele>
        <time>2023-11-26T10:13:49Z</time>
      </trkpt>
      <trkpt lat="43.62365" lon="6.60429">
        <ele>723</ele>
        <time>2023-11-26T10:13:50Z</time>
      </trkpt>
      <trkpt lat="43.62365" lon="6.60429">
        <ele>723</ele>
        <time>2023-11-26T10:13:51Z</time>
      </trkpt>
      <trkpt lat="43.62365" lon="6.60429">
        <ele>723</ele>
        <time>2023-11-26T10:13:52Z</time>
      </trkpt>
      <trkpt lat="43.62364" lon="6.60429">
        <ele>723</ele>
        <time>2023-11-26T10:13:53Z</time>
      </trkpt>
      <trkpt lat="43.62364" lon="6.60429">
        <ele>723.1</ele>
        <time>2023-11-26T10:13:54Z</time>
      </trkpt>
      <trkpt lat="43.62363" lon="6.60428">
        <ele>723.1</ele>
        <time>2023-11-26T10:13:55Z</time>
      </trkpt>
      <trkpt lat="43.62363" lon="6.60428">
        <ele>723.2</ele>
        <time>2023-11-26T10:13:56Z</time>
      </trkpt>
      <trkpt lat="43.62363" lon="6.60428">
        <ele>723.2</ele>
        <time>2023-11-26T10:13:57Z</time>
      </trkpt>
      <trkpt lat="43.62363" lon="6.60428">
        <ele>723.2</ele>
        <time>2023-11-26T10:13:58Z</time>
      </trkpt>
      <trkpt lat="43.62363" lon="6.60428">
        <ele>723.2</ele>
        <time>2023-11-26T10:13:59Z</time>
      </trkpt>
      <trkpt lat="43.62363" lon="6.60427">
        <ele>723.3</ele>
        <time>2023-11-26T10:14:00Z</time>
      </trkpt>
      <trkpt lat="43.62363" lon="6.60427">
        <ele>723.3</ele>
        <time>2023-11-26T10:14:01Z</time>
      </trkpt>
      <trkpt lat="43.62363" lon="6.60427">
        <ele>723.4</ele>
        <time>2023-11-26T10:14:02Z</time>
      </trkpt>
      <trkpt lat="43.62363" lon="6.60426">
        <ele>723.2</ele>
        <time>2023-11-26T10:14:03Z</time>
      </trkpt>
      <trkpt lat="43.62362" lon="6.60426">
        <ele>723.1</ele>
        <time>2023-11-26T10:14:04Z</time>
      </trkpt>
      <trkpt lat="43.62362" lon="6.60425">
        <ele>723.1</ele>
        <time>2023-11-26T10:14:05Z</time>
      </trkpt>
      <trkpt lat="43.62361" lon="6.60425">
        <ele>723.1</ele>
        <time>2023-11-26T10:14:06Z</time>
      </trkpt>
      <trkpt lat="43.6236" lon="6.60424">
        <ele>723</ele>
        <time>2023-11-26T10:14:07Z</time>
      </trkpt>
      <trkpt lat="43.62359" lon="6.60423">
        <ele>723.1</ele>
        <time>2023-11-26T10:14:08Z</time>
      </trkpt>
      <trkpt lat="43.62359" lon="6.60422">
        <ele>723.2</ele>
        <time>2023-11-26T10:14:09Z</time>
      </trkpt>
      <trkpt lat="43.62358" lon="6.60422">
        <ele>723.2</ele>
        <time>2023-11-26T10:14:10Z</time>
      </trkpt>
      <trkpt lat="43.62358" lon="6.60422">
        <ele>723.2</ele>
        <time>2023-11-26T10:14:11Z</time>
      </trkpt>
      <trkpt lat="43.62357" lon="6.60421">
        <ele>723.2</ele>
        <time>2023-11-26T10:14:12Z</time>
      </trkpt>
      <trkpt lat="43.62356" lon="6.60421">
        <ele>723.3</ele>
        <time>2023-11-26T10:14:13Z</time>
      </trkpt>
      <trkpt lat="43.62356" lon="6.6042">
        <ele>723.2</ele>
        <time>2023-11-26T10:14:14Z</time>
      </trkpt>
      <trkpt lat="43.62355" lon="6.60419">
        <ele>723.1</ele>
        <time>2023-11-26T10:14:15Z</time>
      </trkpt>
      <trkpt lat="43.62355" lon="6.6042">
        <ele>723.1</ele>
        <time>2023-11-26T10:14:16Z</time>
      </trkpt>
      <trkpt lat="43.62354" lon="6.6042">
        <ele>723.1</ele>
        <time>2023-11-26T10:14:17Z</time>
      </trkpt>
      <trkpt lat="43.62354" lon="6.6042">
        <ele>723</ele>
        <time>2023-11-26T10:14:18Z</time>
      </trkpt>
      <trkpt lat="43.62354" lon="6.6042">
        <ele>723</ele>
        <time>2023-11-26T10:14:19Z</time>
      </trkpt>
      <trkpt lat="43.62354" lon="6.60419">
        <ele>723</ele>
        <time>2023-11-26T10:14:20Z</time>
      </trkpt>
      <trkpt lat="43.62353" lon="6.60418">
        <ele>723.1</ele>
        <time>2023-11-26T10:14:21Z</time>
      </trkpt>
      <trkpt lat="43.62352" lon="6.60418">
        <ele>723.1</ele>
        <time>2023-11-26T10:14:22Z</time>
      </trkpt>
      <trkpt lat="43.62351" lon="6.60417">
        <ele>723.1</ele>
        <time>2023-11-26T10:14:23Z</time>
      </trkpt>
      <trkpt lat="43.62351" lon="6.60417">
        <ele>723.1</ele>
        <time>2023-11-26T10:14:24Z</time>
      </trkpt>
      <trkpt lat="43.62351" lon="6.60416">
        <ele>723.1</ele>
        <time>2023-11-26T10:14:25Z</time>
      </trkpt>
      <trkpt lat="43.6235" lon="6.60416">
        <ele>723.1</ele>
        <time>2023-11-26T10:14:26Z</time>
      </trkpt>
      <trkpt lat="43.6235" lon="6.60415">
        <ele>723.1</ele>
        <time>2023-11-26T10:14:27Z</time>
      </trkpt>
      <trkpt lat="43.6235" lon="6.60415">
        <ele>723.1</ele>
        <time>2023-11-26T10:14:28Z</time>
      </trkpt>
      <trkpt lat="43.62349" lon="6.60414">
        <ele>723</ele>
        <time>2023-11-26T10:14:29Z</time>
      </trkpt>
      <trkpt lat="43.62349" lon="6.60413">
        <ele>723</ele>
        <time>2023-11-26T10:14:30Z</time>
      </trkpt>
      <trkpt lat="43.62349" lon="6.60413">
        <ele>723</ele>
        <time>2023-11-26T10:14:31Z</time>
      </trkpt>
      <trkpt lat="43.62348" lon="6.60412">
        <ele>723</ele>
        <time>2023-11-26T10:14:32Z</time>
      </trkpt>
      <trkpt lat="43.62347" lon="6.60412">
        <ele>723</ele>
        <time>2023-11-26T10:14:33Z</time>
      </trkpt>
      <trkpt lat="43.62347" lon="6.60411">
        <ele>723</ele>
        <time>2023-11-26T10:14:34Z</time>
      </trkpt>
      <trkpt lat="43.62346" lon="6.6041">
        <ele>723</ele>
        <time>2023-11-26T10:14:35Z</time>
      </trkpt>
      <trkpt lat="43.62346" lon="6.6041">
        <ele>723</ele>
        <time>2023-11-26T10:14:36Z</time>
      </trkpt>
      <trkpt lat="43.62345" lon="6.6041">
        <ele>723.1</ele>
        <time>2023-11-26T10:14:37Z</time>
      </trkpt>
      <trkpt lat="43.62344" lon="6.60409">
        <ele>723.1</ele>
        <time>2023-11-26T10:14:38Z</time>
      </trkpt>
      <trkpt lat="43.62344" lon="6.60408">
        <ele>723.1</ele>
        <time>2023-11-26T10:14:39Z</time>
      </trkpt>
      <trkpt lat="43.62343" lon="6.60407">
        <ele>723</ele>
        <time>2023-11-26T10:14:40Z</time>
      </trkpt>
      <trkpt lat="43.62343" lon="6.60407">
        <ele>723.1</ele>
        <time>2023-11-26T10:14:41Z</time>
      </trkpt>
      <trkpt lat="43.62342" lon="6.60406">
        <ele>723.1</ele>
        <time>2023-11-26T10:14:42Z</time>
      </trkpt>
      <trkpt lat="43.62341" lon="6.60405">
        <ele>723.1</ele>
        <time>2023-11-26T10:14:43Z</time>
      </trkpt>
      <trkpt lat="43.6234" lon="6.60405">
        <ele>723.1</ele>
        <time>2023-11-26T10:14:44Z</time>
      </trkpt>
      <trkpt lat="43.6234" lon="6.60404">
        <ele>723.1</ele>
        <time>2023-11-26T10:14:45Z</time>
      </trkpt>
      <trkpt lat="43.62339" lon="6.60403">
        <ele>723.2</ele>
        <time>2023-11-26T10:14:46Z</time>
      </trkpt>
      <trkpt lat="43.62339" lon="6.60403">
        <ele>723.2</ele>
        <time>2023-11-26T10:14:47Z</time>
      </trkpt>
      <trkpt lat="43.62338" lon="6.60401">
        <ele>723.2</ele>
        <time>2023-11-26T10:14:48Z</time>
      </trkpt>
      <trkpt lat="43.62337" lon="6.604">
        <ele>723.1</ele>
        <time>2023-11-26T10:14:49Z</time>
      </trkpt>
      <trkpt lat="43.62336" lon="6.60399">
        <ele>723.2</ele>
        <time>2023-11-26T10:14:50Z</time>
      </trkpt>
      <trkpt lat="43.62336" lon="6.60398">
        <ele>723.2</ele>
        <time>2023-11-26T10:14:51Z</time>
      </trkpt>
      <trkpt lat="43.62335" lon="6.60398">
        <ele>723.2</ele>
        <time>2023-11-26T10:14:52Z</time>
      </trkpt>
      <trkpt lat="43.62334" lon="6.60397">
        <ele>723.2</ele>
        <time>2023-11-26T10:14:53Z</time>
      </trkpt>
      <trkpt lat="43.62333" lon="6.60396">
        <ele>723.2</ele>
        <time>2023-11-26T10:14:54Z</time>
      </trkpt>
      <trkpt lat="43.62332" lon="6.60395">
        <ele>723.2</ele>
        <time>2023-11-26T10:14:55Z</time>
      </trkpt>
      <trkpt lat="43.62331" lon="6.60394">
        <ele>723.1</ele>
        <time>2023-11-26T10:14:56Z</time>
      </trkpt>
      <trkpt lat="43.62331" lon="6.60393">
        <ele>723.1</ele>
        <time>2023-11-26T10:14:57Z</time>
      </trkpt>
      <trkpt lat="43.6233" lon="6.60393">
        <ele>723.1</ele>
        <time>2023-11-26T10:14:58Z</time>
      </trkpt>
      <trkpt lat="43.62329" lon="6.60392">
        <ele>723.2</ele>
        <time>2023-11-26T10:14:59Z</time>
      </trkpt>
      <trkpt lat="43.62328" lon="6.60392">
        <ele>723.3</ele>
        <time>2023-11-26T10:15:00Z</time>
      </trkpt>
      <trkpt lat="43.62327" lon="6.60392">
        <ele>723.3</ele>
        <time>2023-11-26T10:15:01Z</time>
      </trkpt>
      <trkpt lat="43.62327" lon="6.60391">
        <ele>723.4</ele>
        <time>2023-11-26T10:15:02Z</time>
      </trkpt>
      <trkpt lat="43.62326" lon="6.6039">
        <ele>723.4</ele>
        <time>2023-11-26T10:15:03Z</time>
      </trkpt>
      <trkpt lat="43.62325" lon="6.6039">
        <ele>723.4</ele>
        <time>2023-11-26T10:15:04Z</time>
      </trkpt>
      <trkpt lat="43.62324" lon="6.60389">
        <ele>723.4</ele>
        <time>2023-11-26T10:15:05Z</time>
      </trkpt>
      <trkpt lat="43.62323" lon="6.60389">
        <ele>723.4</ele>
        <time>2023-11-26T10:15:06Z</time>
      </trkpt>
      <trkpt lat="43.62323" lon="6.60388">
        <ele>723.4</ele>
        <time>2023-11-26T10:15:07Z</time>
      </trkpt>
      <trkpt lat="43.62322" lon="6.60387">
        <ele>723.4</ele>
        <time>2023-11-26T10:15:08Z</time>
      </trkpt>
      <trkpt lat="43.62321" lon="6.60386">
        <ele>723.4</ele>
        <time>2023-11-26T10:15:09Z</time>
      </trkpt>
      <trkpt lat="43.6232" lon="6.60386">
        <ele>723.4</ele>
        <time>2023-11-26T10:15:10Z</time>
      </trkpt>
      <trkpt lat="43.6232" lon="6.60385">
        <ele>723.4</ele>
        <time>2023-11-26T10:15:11Z</time>
      </trkpt>
      <trkpt lat="43.62319" lon="6.60385">
        <ele>723.5</ele>
        <time>2023-11-26T10:15:12Z</time>
      </trkpt>
      <trkpt lat="43.62318" lon="6.60384">
        <ele>723.5</ele>
        <time>2023-11-26T10:15:13Z</time>
      </trkpt>
      <trkpt lat="43.62317" lon="6.60383">
        <ele>723.5</ele>
        <time>2023-11-26T10:15:14Z</time>
      </trkpt>
      <trkpt lat="43.62316" lon="6.60382">
        <ele>723.6</ele>
        <time>2023-11-26T10:15:15Z</time>
      </trkpt>
      <trkpt lat="43.62315" lon="6.60382">
        <ele>723.7</ele>
        <time>2023-11-26T10:15:16Z</time>
      </trkpt>
      <trkpt lat="43.62314" lon="6.60381">
        <ele>723.7</ele>
        <time>2023-11-26T10:15:17Z</time>
      </trkpt>
      <trkpt lat="43.62313" lon="6.60381">
        <ele>723.7</ele>
        <time>2023-11-26T10:15:18Z</time>
      </trkpt>
      <trkpt lat="43.62313" lon="6.6038">
        <ele>723.7</ele>
        <time>2023-11-26T10:15:19Z</time>
      </trkpt>
      <trkpt lat="43.62312" lon="6.60379">
        <ele>723.8</ele>
        <time>2023-11-26T10:15:20Z</time>
      </trkpt>
      <trkpt lat="43.62312" lon="6.60379">
        <ele>723.8</ele>
        <time>2023-11-26T10:15:21Z</time>
      </trkpt>
      <trkpt lat="43.62311" lon="6.60378">
        <ele>723.9</ele>
        <time>2023-11-26T10:15:22Z</time>
      </trkpt>
      <trkpt lat="43.6231" lon="6.60377">
        <ele>724</ele>
        <time>2023-11-26T10:15:23Z</time>
      </trkpt>
      <trkpt lat="43.62309" lon="6.60377">
        <ele>724.1</ele>
        <time>2023-11-26T10:15:24Z</time>
      </trkpt>
      <trkpt lat="43.62308" lon="6.60375">
        <ele>724.1</ele>
        <time>2023-11-26T10:15:25Z</time>
      </trkpt>
      <trkpt lat="43.62308" lon="6.60375">
        <ele>724.2</ele>
        <time>2023-11-26T10:15:26Z</time>
      </trkpt>
      <trkpt lat="43.62307" lon="6.60373">
        <ele>724.3</ele>
        <time>2023-11-26T10:15:27Z</time>
      </trkpt>
      <trkpt lat="43.62306" lon="6.60373">
        <ele>724.5</ele>
        <time>2023-11-26T10:15:28Z</time>
      </trkpt>
      <trkpt lat="43.62305" lon="6.60372">
        <ele>724.6</ele>
        <time>2023-11-26T10:15:29Z</time>
      </trkpt>
      <trkpt lat="43.62305" lon="6.60371">
        <ele>724.7</ele>
        <time>2023-11-26T10:15:30Z</time>
      </trkpt>
      <trkpt lat="43.62304" lon="6.6037">
        <ele>724.8</ele>
        <time>2023-11-26T10:15:31Z</time>
      </trkpt>
      <trkpt lat="43.62304" lon="6.60369">
        <ele>724.7</ele>
        <time>2023-11-26T10:15:32Z</time>
      </trkpt>
      <trkpt lat="43.62303" lon="6.60368">
        <ele>724.8</ele>
        <time>2023-11-26T10:15:33Z</time>
      </trkpt>
      <trkpt lat="43.62302" lon="6.60367">
        <ele>724.8</ele>
        <time>2023-11-26T10:15:34Z</time>
      </trkpt>
      <trkpt lat="43.62301" lon="6.60366">
        <ele>725</ele>
        <time>2023-11-26T10:15:35Z</time>
      </trkpt>
      <trkpt lat="43.623" lon="6.60365">
        <ele>725.2</ele>
        <time>2023-11-26T10:15:36Z</time>
      </trkpt>
      <trkpt lat="43.623" lon="6.60365">
        <ele>725.2</ele>
        <time>2023-11-26T10:15:37Z</time>
      </trkpt>
      <trkpt lat="43.623" lon="6.60364">
        <ele>725.3</ele>
        <time>2023-11-26T10:15:38Z</time>
      </trkpt>
      <trkpt lat="43.62298" lon="6.60364">
        <ele>725.5</ele>
        <time>2023-11-26T10:15:39Z</time>
      </trkpt>
      <trkpt lat="43.62297" lon="6.60364">
        <ele>725.5</ele>
        <time>2023-11-26T10:15:40Z</time>
      </trkpt>
      <trkpt lat="43.62296" lon="6.60363">
        <ele>725.6</ele>
        <time>2023-11-26T10:15:41Z</time>
      </trkpt>
      <trkpt lat="43.62295" lon="6.60361">
        <ele>725.6</ele>
        <time>2023-11-26T10:15:42Z</time>
      </trkpt>
      <trkpt lat="43.62296" lon="6.60359">
        <ele>725.8</ele>
        <time>2023-11-26T10:15:43Z</time>
      </trkpt>
      <trkpt lat="43.62296" lon="6.60358">
        <ele>725.9</ele>
        <time>2023-11-26T10:15:44Z</time>
      </trkpt>
      <trkpt lat="43.62296" lon="6.60357">
        <ele>726</ele>
        <time>2023-11-26T10:15:45Z</time>
      </trkpt>
      <trkpt lat="43.62296" lon="6.60356">
        <ele>726</ele>
        <time>2023-11-26T10:15:46Z</time>
      </trkpt>
      <trkpt lat="43.62296" lon="6.60355">
        <ele>726.1</ele>
        <time>2023-11-26T10:15:47Z</time>
      </trkpt>
      <trkpt lat="43.62296" lon="6.60354">
        <ele>726.1</ele>
        <time>2023-11-26T10:15:48Z</time>
      </trkpt>
      <trkpt lat="43.62295" lon="6.60352">
        <ele>726.1</ele>
        <time>2023-11-26T10:15:49Z</time>
      </trkpt>
      <trkpt lat="43.62295" lon="6.60352">
        <ele>726.1</ele>
        <time>2023-11-26T10:15:50Z</time>
      </trkpt>
      <trkpt lat="43.62295" lon="6.60351">
        <ele>726.2</ele>
        <time>2023-11-26T10:15:51Z</time>
      </trkpt>
      <trkpt lat="43.62295" lon="6.6035">
        <ele>726.4</ele>
        <time>2023-11-26T10:15:52Z</time>
      </trkpt>
      <trkpt lat="43.62294" lon="6.60348">
        <ele>726.5</ele>
        <time>2023-11-26T10:15:53Z</time>
      </trkpt>
      <trkpt lat="43.62293" lon="6.60347">
        <ele>726.6</ele>
        <time>2023-11-26T10:15:54Z</time>
      </trkpt>
      <trkpt lat="43.62294" lon="6.60345">
        <ele>726.7</ele>
        <time>2023-11-26T10:15:55Z</time>
      </trkpt>
      <trkpt lat="43.62294" lon="6.60344">
        <ele>726.7</ele>
        <time>2023-11-26T10:15:56Z</time>
      </trkpt>
      <trkpt lat="43.62294" lon="6.60342">
        <ele>726.8</ele>
        <time>2023-11-26T10:15:57Z</time>
      </trkpt>
      <trkpt lat="43.62294" lon="6.60341">
        <ele>726.7</ele>
        <time>2023-11-26T10:15:58Z</time>
      </trkpt>
      <trkpt lat="43.62294" lon="6.60339">
        <ele>726.7</ele>
        <time>2023-11-26T10:15:59Z</time>
      </trkpt>
      <trkpt lat="43.62294" lon="6.60338">
        <ele>726.8</ele>
        <time>2023-11-26T10:16:00Z</time>
      </trkpt>
      <trkpt lat="43.62294" lon="6.60337">
        <ele>726.7</ele>
        <time>2023-11-26T10:16:01Z</time>
      </trkpt>
      <trkpt lat="43.62294" lon="6.60335">
        <ele>726.7</ele>
        <time>2023-11-26T10:16:02Z</time>
      </trkpt>
      <trkpt lat="43.62293" lon="6.60333">
        <ele>726.7</ele>
        <time>2023-11-26T10:16:03Z</time>
      </trkpt>
      <trkpt lat="43.62292" lon="6.60333">
        <ele>726.8</ele>
        <time>2023-11-26T10:16:04Z</time>
      </trkpt>
      <trkpt lat="43.62292" lon="6.60331">
        <ele>726.9</ele>
        <time>2023-11-26T10:16:05Z</time>
      </trkpt>
      <trkpt lat="43.62292" lon="6.6033">
        <ele>727</ele>
        <time>2023-11-26T10:16:06Z</time>
      </trkpt>
      <trkpt lat="43.62292" lon="6.60328">
        <ele>727</ele>
        <time>2023-11-26T10:16:07Z</time>
      </trkpt>
      <trkpt lat="43.62292" lon="6.60327">
        <ele>727</ele>
        <time>2023-11-26T10:16:08Z</time>
      </trkpt>
      <trkpt lat="43.62291" lon="6.60325">
        <ele>727</ele>
        <time>2023-11-26T10:16:09Z</time>
      </trkpt>
      <trkpt lat="43.6229" lon="6.60324">
        <ele>727</ele>
        <time>2023-11-26T10:16:10Z</time>
      </trkpt>
      <trkpt lat="43.62289" lon="6.60323">
        <ele>727.1</ele>
        <time>2023-11-26T10:16:11Z</time>
      </trkpt>
      <trkpt lat="43.62289" lon="6.60321">
        <ele>727.2</ele>
        <time>2023-11-26T10:16:12Z</time>
      </trkpt>
      <trkpt lat="43.62289" lon="6.6032">
        <ele>727.2</ele>
        <time>2023-11-26T10:16:13Z</time>
      </trkpt>
      <trkpt lat="43.62288" lon="6.60318">
        <ele>727.2</ele>
        <time>2023-11-26T10:16:14Z</time>
      </trkpt>
      <trkpt lat="43.62288" lon="6.60317">
        <ele>727.3</ele>
        <time>2023-11-26T10:16:15Z</time>
      </trkpt>
      <trkpt lat="43.62288" lon="6.60316">
        <ele>727.3</ele>
        <time>2023-11-26T10:16:16Z</time>
      </trkpt>
      <trkpt lat="43.62287" lon="6.60315">
        <ele>727.4</ele>
        <time>2023-11-26T10:16:17Z</time>
      </trkpt>
      <trkpt lat="43.62287" lon="6.60314">
        <ele>727.4</ele>
        <time>2023-11-26T10:16:18Z</time>
      </trkpt>
      <trkpt lat="43.62287" lon="6.60314">
        <ele>727.5</ele>
        <time>2023-11-26T10:16:19Z</time>
      </trkpt>
      <trkpt lat="43.62287" lon="6.60314">
        <ele>727.5</ele>
        <time>2023-11-26T10:16:20Z</time>
      </trkpt>
      <trkpt lat="43.62286" lon="6.60312">
        <ele>727.5</ele>
        <time>2023-11-26T10:16:21Z</time>
      </trkpt>
      <trkpt lat="43.62285" lon="6.60311">
        <ele>727.6</ele>
        <time>2023-11-26T10:16:22Z</time>
      </trkpt>
      <trkpt lat="43.62285" lon="6.6031">
        <ele>727.7</ele>
        <time>2023-11-26T10:16:23Z</time>
      </trkpt>
      <trkpt lat="43.62284" lon="6.60309">
        <ele>727.7</ele>
        <time>2023-11-26T10:16:24Z</time>
      </trkpt>
      <trkpt lat="43.62283" lon="6.60309">
        <ele>727.9</ele>
        <time>2023-11-26T10:16:25Z</time>
      </trkpt>
      <trkpt lat="43.62282" lon="6.60309">
        <ele>728</ele>
        <time>2023-11-26T10:16:26Z</time>
      </trkpt>
      <trkpt lat="43.62281" lon="6.60308">
        <ele>728.1</ele>
        <time>2023-11-26T10:16:27Z</time>
      </trkpt>
      <trkpt lat="43.62281" lon="6.60308">
        <ele>728.2</ele>
        <time>2023-11-26T10:16:28Z</time>
      </trkpt>
      <trkpt lat="43.6228" lon="6.60307">
        <ele>728.1</ele>
        <time>2023-11-26T10:16:29Z</time>
      </trkpt>
      <trkpt lat="43.62279" lon="6.60306">
        <ele>728.1</ele>
        <time>2023-11-26T10:16:30Z</time>
      </trkpt>
      <trkpt lat="43.62279" lon="6.60305">
        <ele>728.2</ele>
        <time>2023-11-26T10:16:31Z</time>
      </trkpt>
      <trkpt lat="43.62278" lon="6.60304">
        <ele>728.2</ele>
        <time>2023-11-26T10:16:32Z</time>
      </trkpt>
      <trkpt lat="43.62278" lon="6.60303">
        <ele>728.3</ele>
        <time>2023-11-26T10:16:33Z</time>
      </trkpt>
      <trkpt lat="43.62277" lon="6.60302">
        <ele>728.5</ele>
        <time>2023-11-26T10:16:34Z</time>
      </trkpt>
      <trkpt lat="43.62276" lon="6.60302">
        <ele>728.6</ele>
        <time>2023-11-26T10:16:35Z</time>
      </trkpt>
      <trkpt lat="43.62276" lon="6.603">
        <ele>728.7</ele>
        <time>2023-11-26T10:16:36Z</time>
      </trkpt>
      <trkpt lat="43.62275" lon="6.60299">
        <ele>728.8</ele>
        <time>2023-11-26T10:16:37Z</time>
      </trkpt>
      <trkpt lat="43.62273" lon="6.60299">
        <ele>729</ele>
        <time>2023-11-26T10:16:38Z</time>
      </trkpt>
      <trkpt lat="43.62272" lon="6.60299">
        <ele>729.1</ele>
        <time>2023-11-26T10:16:39Z</time>
      </trkpt>
      <trkpt lat="43.62272" lon="6.60297">
        <ele>729.2</ele>
        <time>2023-11-26T10:16:40Z</time>
      </trkpt>
      <trkpt lat="43.62272" lon="6.60297">
        <ele>729.3</ele>
        <time>2023-11-26T10:16:41Z</time>
      </trkpt>
      <trkpt lat="43.62272" lon="6.60295">
        <ele>729.4</ele>
        <time>2023-11-26T10:16:42Z</time>
      </trkpt>
      <trkpt lat="43.62271" lon="6.60294">
        <ele>729.5</ele>
        <time>2023-11-26T10:16:43Z</time>
      </trkpt>
      <trkpt lat="43.6227" lon="6.60292">
        <ele>729.6</ele>
        <time>2023-11-26T10:16:44Z</time>
      </trkpt>
      <trkpt lat="43.62269" lon="6.60292">
        <ele>729.7</ele>
        <time>2023-11-26T10:16:45Z</time>
      </trkpt>
      <trkpt lat="43.62269" lon="6.60291">
        <ele>729.8</ele>
        <time>2023-11-26T10:16:46Z</time>
      </trkpt>
      <trkpt lat="43.62268" lon="6.6029">
        <ele>729.9</ele>
        <time>2023-11-26T10:16:47Z</time>
      </trkpt>
      <trkpt lat="43.62267" lon="6.60289">
        <ele>730</ele>
        <time>2023-11-26T10:16:48Z</time>
      </trkpt>
      <trkpt lat="43.62266" lon="6.60288">
        <ele>730.1</ele>
        <time>2023-11-26T10:16:49Z</time>
      </trkpt>
      <trkpt lat="43.62265" lon="6.60287">
        <ele>730.2</ele>
        <time>2023-11-26T10:16:50Z</time>
      </trkpt>
      <trkpt lat="43.62264" lon="6.60286">
        <ele>730.3</ele>
        <time>2023-11-26T10:16:51Z</time>
      </trkpt>
      <trkpt lat="43.62264" lon="6.60285">
        <ele>730.4</ele>
        <time>2023-11-26T10:16:52Z</time>
      </trkpt>
      <trkpt lat="43.62264" lon="6.60285">
        <ele>730.5</ele>
        <time>2023-11-26T10:16:53Z</time>
      </trkpt>
      <trkpt lat="43.62263" lon="6.60284">
        <ele>730.7</ele>
        <time>2023-11-26T10:16:54Z</time>
      </trkpt>
      <trkpt lat="43.62263" lon="6.60283">
        <ele>730.8</ele>
        <time>2023-11-26T10:16:55Z</time>
      </trkpt>
      <trkpt lat="43.62261" lon="6.60281">
        <ele>731</ele>
        <time>2023-11-26T10:16:56Z</time>
      </trkpt>
      <trkpt lat="43.62261" lon="6.6028">
        <ele>731.1</ele>
        <time>2023-11-26T10:16:57Z</time>
      </trkpt>
      <trkpt lat="43.62261" lon="6.60279">
        <ele>731.2</ele>
        <time>2023-11-26T10:16:58Z</time>
      </trkpt>
      <trkpt lat="43.6226" lon="6.60279">
        <ele>731.4</ele>
        <time>2023-11-26T10:16:59Z</time>
      </trkpt>
      <trkpt lat="43.62259" lon="6.60277">
        <ele>731.6</ele>
        <time>2023-11-26T10:17:00Z</time>
      </trkpt>
      <trkpt lat="43.62258" lon="6.60276">
        <ele>731.8</ele>
        <time>2023-11-26T10:17:01Z</time>
      </trkpt>
      <trkpt lat="43.62257" lon="6.60276">
        <ele>731.9</ele>
        <time>2023-11-26T10:17:02Z</time>
      </trkpt>
      <trkpt lat="43.62257" lon="6.60275">
        <ele>731.9</ele>
        <time>2023-11-26T10:17:03Z</time>
      </trkpt>
      <trkpt lat="43.62256" lon="6.60274">
        <ele>732</ele>
        <time>2023-11-26T10:17:04Z</time>
      </trkpt>
      <trkpt lat="43.62256" lon="6.60274">
        <ele>732.1</ele>
        <time>2023-11-26T10:17:05Z</time>
      </trkpt>
      <trkpt lat="43.62255" lon="6.60273">
        <ele>732.1</ele>
        <time>2023-11-26T10:17:06Z</time>
      </trkpt>
      <trkpt lat="43.62254" lon="6.60272">
        <ele>732.2</ele>
        <time>2023-11-26T10:17:07Z</time>
      </trkpt>
      <trkpt lat="43.62253" lon="6.60272">
        <ele>732.2</ele>
        <time>2023-11-26T10:17:08Z</time>
      </trkpt>
      <trkpt lat="43.62252" lon="6.60271">
        <ele>732.3</ele>
        <time>2023-11-26T10:17:09Z</time>
      </trkpt>
      <trkpt lat="43.62252" lon="6.60271">
        <ele>732.4</ele>
        <time>2023-11-26T10:17:10Z</time>
      </trkpt>
      <trkpt lat="43.62251" lon="6.60271">
        <ele>732.5</ele>
        <time>2023-11-26T10:17:11Z</time>
      </trkpt>
      <trkpt lat="43.6225" lon="6.6027">
        <ele>732.6</ele>
        <time>2023-11-26T10:17:12Z</time>
      </trkpt>
      <trkpt lat="43.6225" lon="6.6027">
        <ele>732.9</ele>
        <time>2023-11-26T10:17:13Z</time>
      </trkpt>
      <trkpt lat="43.62249" lon="6.60269">
        <ele>733</ele>
        <time>2023-11-26T10:17:14Z</time>
      </trkpt>
      <trkpt lat="43.62249" lon="6.60268">
        <ele>733.2</ele>
        <time>2023-11-26T10:17:15Z</time>
      </trkpt>
      <trkpt lat="43.62248" lon="6.60267">
        <ele>733.4</ele>
        <time>2023-11-26T10:17:16Z</time>
      </trkpt>
      <trkpt lat="43.62247" lon="6.60267">
        <ele>733.5</ele>
        <time>2023-11-26T10:17:17Z</time>
      </trkpt>
      <trkpt lat="43.62247" lon="6.60266">
        <ele>733.7</ele>
        <time>2023-11-26T10:17:18Z</time>
      </trkpt>
      <trkpt lat="43.62246" lon="6.60266">
        <ele>733.9</ele>
        <time>2023-11-26T10:17:19Z</time>
      </trkpt>
      <trkpt lat="43.62245" lon="6.60265">
        <ele>734.1</ele>
        <time>2023-11-26T10:17:20Z</time>
      </trkpt>
      <trkpt lat="43.62244" lon="6.60265">
        <ele>734.2</ele>
        <time>2023-11-26T10:17:21Z</time>
      </trkpt>
      <trkpt lat="43.62244" lon="6.60265">
        <ele>734.4</ele>
        <time>2023-11-26T10:17:22Z</time>
      </trkpt>
      <trkpt lat="43.62243" lon="6.60265">
        <ele>734.5</ele>
        <time>2023-11-26T10:17:23Z</time>
      </trkpt>
      <trkpt lat="43.62243" lon="6.60265">
        <ele>734.5</ele>
        <time>2023-11-26T10:17:24Z</time>
      </trkpt>
      <trkpt lat="43.62243" lon="6.60264">
        <ele>734.6</ele>
        <time>2023-11-26T10:17:25Z</time>
      </trkpt>
      <trkpt lat="43.62243" lon="6.60263">
        <ele>734.6</ele>
        <time>2023-11-26T10:17:26Z</time>
      </trkpt>
      <trkpt lat="43.62242" lon="6.60263">
        <ele>734.7</ele>
        <time>2023-11-26T10:17:27Z</time>
      </trkpt>
      <trkpt lat="43.62242" lon="6.60263">
        <ele>734.8</ele>
        <time>2023-11-26T10:17:28Z</time>
      </trkpt>
      <trkpt lat="43.62242" lon="6.60262">
        <ele>734.9</ele>
        <time>2023-11-26T10:17:29Z</time>
      </trkpt>
      <trkpt lat="43.62241" lon="6.60262">
        <ele>734.9</ele>
        <time>2023-11-26T10:17:30Z</time>
      </trkpt>
      <trkpt lat="43.62241" lon="6.60262">
        <ele>735</ele>
        <time>2023-11-26T10:17:31Z</time>
      </trkpt>
      <trkpt lat="43.6224" lon="6.60261">
        <ele>735.1</ele>
        <time>2023-11-26T10:17:32Z</time>
      </trkpt>
      <trkpt lat="43.6224" lon="6.60261">
        <ele>735.2</ele>
        <time>2023-11-26T10:17:33Z</time>
      </trkpt>
      <trkpt lat="43.6224" lon="6.60261">
        <ele>735.3</ele>
        <time>2023-11-26T10:17:34Z</time>
      </trkpt>
      <trkpt lat="43.62239" lon="6.6026">
        <ele>735.3</ele>
        <time>2023-11-26T10:17:35Z</time>
      </trkpt>
      <trkpt lat="43.62239" lon="6.60259">
        <ele>735.4</ele>
        <time>2023-11-26T10:17:36Z</time>
      </trkpt>
      <trkpt lat="43.62238" lon="6.60259">
        <ele>735.5</ele>
        <time>2023-11-26T10:17:37Z</time>
      </trkpt>
      <trkpt lat="43.62238" lon="6.60258">
        <ele>735.6</ele>
        <time>2023-11-26T10:17:38Z</time>
      </trkpt>
      <trkpt lat="43.62237" lon="6.60257">
        <ele>735.7</ele>
        <time>2023-11-26T10:17:39Z</time>
      </trkpt>
      <trkpt lat="43.62237" lon="6.60256">
        <ele>735.8</ele>
        <time>2023-11-26T10:17:40Z</time>
      </trkpt>
      <trkpt lat="43.62236" lon="6.60255">
        <ele>735.9</ele>
        <time>2023-11-26T10:17:41Z</time>
      </trkpt>
      <trkpt lat="43.62236" lon="6.60255">
        <ele>736</ele>
        <time>2023-11-26T10:17:42Z</time>
      </trkpt>
      <trkpt lat="43.62234" lon="6.60254">
        <ele>736.2</ele>
        <time>2023-11-26T10:17:43Z</time>
      </trkpt>
      <trkpt lat="43.62233" lon="6.60254">
        <ele>736.3</ele>
        <time>2023-11-26T10:17:44Z</time>
      </trkpt>
      <trkpt lat="43.62232" lon="6.60253">
        <ele>736.4</ele>
        <time>2023-11-26T10:17:45Z</time>
      </trkpt>
      <trkpt lat="43.62231" lon="6.60253">
        <ele>736.7</ele>
        <time>2023-11-26T10:17:46Z</time>
      </trkpt>
      <trkpt lat="43.6223" lon="6.60252">
        <ele>736.7</ele>
        <time>2023-11-26T10:17:47Z</time>
      </trkpt>
      <trkpt lat="43.62229" lon="6.60251">
        <ele>736.8</ele>
        <time>2023-11-26T10:17:48Z</time>
      </trkpt>
      <trkpt lat="43.62227" lon="6.60251">
        <ele>736.9</ele>
        <time>2023-11-26T10:17:49Z</time>
      </trkpt>
      <trkpt lat="43.62226" lon="6.6025">
        <ele>737.1</ele>
        <time>2023-11-26T10:17:50Z</time>
      </trkpt>
      <trkpt lat="43.62225" lon="6.6025">
        <ele>737.3</ele>
        <time>2023-11-26T10:17:51Z</time>
      </trkpt>
      <trkpt lat="43.62224" lon="6.60249">
        <ele>737.6</ele>
        <time>2023-11-26T10:17:52Z</time>
      </trkpt>
      <trkpt lat="43.62224" lon="6.60249">
        <ele>737.7</ele>
        <time>2023-11-26T10:17:53Z</time>
      </trkpt>
      <trkpt lat="43.62223" lon="6.60248">
        <ele>737.8</ele>
        <time>2023-11-26T10:17:54Z</time>
      </trkpt>
      <trkpt lat="43.62222" lon="6.60248">
        <ele>738</ele>
        <time>2023-11-26T10:17:55Z</time>
      </trkpt>
      <trkpt lat="43.62221" lon="6.60248">
        <ele>738.2</ele>
        <time>2023-11-26T10:17:56Z</time>
      </trkpt>
      <trkpt lat="43.6222" lon="6.60247">
        <ele>738.4</ele>
        <time>2023-11-26T10:17:57Z</time>
      </trkpt>
      <trkpt lat="43.62219" lon="6.60247">
        <ele>738.5</ele>
        <time>2023-11-26T10:17:58Z</time>
      </trkpt>
      <trkpt lat="43.62218" lon="6.60246">
        <ele>738.6</ele>
        <time>2023-11-26T10:17:59Z</time>
      </trkpt>
      <trkpt lat="43.62217" lon="6.60246">
        <ele>738.8</ele>
        <time>2023-11-26T10:18:00Z</time>
      </trkpt>
      <trkpt lat="43.62217" lon="6.60245">
        <ele>738.9</ele>
        <time>2023-11-26T10:18:01Z</time>
      </trkpt>
      <trkpt lat="43.62216" lon="6.60245">
        <ele>739.1</ele>
        <time>2023-11-26T10:18:02Z</time>
      </trkpt>
      <trkpt lat="43.62215" lon="6.60244">
        <ele>739.2</ele>
        <time>2023-11-26T10:18:03Z</time>
      </trkpt>
      <trkpt lat="43.62214" lon="6.60243">
        <ele>739.3</ele>
        <time>2023-11-26T10:18:04Z</time>
      </trkpt>
      <trkpt lat="43.62213" lon="6.60243">
        <ele>739.4</ele>
        <time>2023-11-26T10:18:05Z</time>
      </trkpt>
      <trkpt lat="43.62213" lon="6.60243">
        <ele>739.5</ele>
        <time>2023-11-26T10:18:06Z</time>
      </trkpt>
      <trkpt lat="43.62213" lon="6.60243">
        <ele>739.6</ele>
        <time>2023-11-26T10:18:07Z</time>
      </trkpt>
      <trkpt lat="43.62212" lon="6.60243">
        <ele>739.7</ele>
        <time>2023-11-26T10:18:08Z</time>
      </trkpt>
      <trkpt lat="43.62212" lon="6.60244">
        <ele>739.8</ele>
        <time>2023-11-26T10:18:09Z</time>
      </trkpt>
      <trkpt lat="43.62212" lon="6.60245">
        <ele>740</ele>
        <time>2023-11-26T10:18:10Z</time>
      </trkpt>
      <trkpt lat="43.62212" lon="6.60246">
        <ele>740.2</ele>
        <time>2023-11-26T10:18:11Z</time>
      </trkpt>
      <trkpt lat="43.62212" lon="6.60247">
        <ele>740.3</ele>
        <time>2023-11-26T10:18:12Z</time>
      </trkpt>
      <trkpt lat="43.62212" lon="6.60248">
        <ele>740.5</ele>
        <time>2023-11-26T10:18:13Z</time>
      </trkpt>
      <trkpt lat="43.62211" lon="6.60247">
        <ele>740.6</ele>
        <time>2023-11-26T10:18:14Z</time>
      </trkpt>
      <trkpt lat="43.62211" lon="6.60248">
        <ele>740.6</ele>
        <time>2023-11-26T10:18:15Z</time>
      </trkpt>
      <trkpt lat="43.62211" lon="6.60248">
        <ele>740.6</ele>
        <time>2023-11-26T10:18:16Z</time>
      </trkpt>
      <trkpt lat="43.62211" lon="6.60248">
        <ele>740.6</ele>
        <time>2023-11-26T10:18:17Z</time>
      </trkpt>
      <trkpt lat="43.62211" lon="6.60248">
        <ele>740.6</ele>
        <time>2023-11-26T10:18:18Z</time>
      </trkpt>
      <trkpt lat="43.62211" lon="6.60248">
        <ele>740.6</ele>
        <time>2023-11-26T10:18:19Z</time>
      </trkpt>
      <trkpt lat="43.62211" lon="6.60248">
        <ele>740.6</ele>
        <time>2023-11-26T10:18:20Z</time>
      </trkpt>
      <trkpt lat="43.62211" lon="6.60248">
        <ele>740.5</ele>
        <time>2023-11-26T10:18:21Z</time>
      </trkpt>
      <trkpt lat="43.6221" lon="6.60248">
        <ele>740.5</ele>
        <time>2023-11-26T10:18:22Z</time>
      </trkpt>
      <trkpt lat="43.6221" lon="6.60249">
        <ele>740.4</ele>
        <time>2023-11-26T10:18:23Z</time>
      </trkpt>
      <trkpt lat="43.6221" lon="6.60249">
        <ele>740.4</ele>
        <time>2023-11-26T10:18:24Z</time>
      </trkpt>
      <trkpt lat="43.6221" lon="6.60249">
        <ele>740.4</ele>
        <time>2023-11-26T10:18:25Z</time>
      </trkpt>
      <trkpt lat="43.6221" lon="6.60249">
        <ele>740.3</ele>
        <time>2023-11-26T10:18:26Z</time>
      </trkpt>
      <trkpt lat="43.6221" lon="6.60249">
        <ele>740.3</ele>
        <time>2023-11-26T10:18:27Z</time>
      </trkpt>
      <trkpt lat="43.6221" lon="6.60249">
        <ele>740.2</ele>
        <time>2023-11-26T10:18:28Z</time>
      </trkpt>
      <trkpt lat="43.6221" lon="6.60249">
        <ele>740.2</ele>
        <time>2023-11-26T10:18:29Z</time>
      </trkpt>
      <trkpt lat="43.6221" lon="6.60249">
        <ele>740.2</ele>
        <time>2023-11-26T10:18:30Z</time>
      </trkpt>
      <trkpt lat="43.6221" lon="6.60249">
        <ele>740.3</ele>
        <time>2023-11-26T10:18:31Z</time>
      </trkpt>
      <trkpt lat="43.6221" lon="6.60249">
        <ele>740.4</ele>
        <time>2023-11-26T10:18:32Z</time>
      </trkpt>
      <trkpt lat="43.6221" lon="6.6025">
        <ele>740.4</ele>
        <time>2023-11-26T10:18:33Z</time>
      </trkpt>
      <trkpt lat="43.6221" lon="6.6025">
        <ele>740.4</ele>
        <time>2023-11-26T10:18:34Z</time>
      </trkpt>
      <trkpt lat="43.6221" lon="6.6025">
        <ele>740.4</ele>
        <time>2023-11-26T10:18:35Z</time>
      </trkpt>
      <trkpt lat="43.6221" lon="6.6025">
        <ele>740.4</ele>
        <time>2023-11-26T10:18:36Z</time>
      </trkpt>
      <trkpt lat="43.6221" lon="6.6025">
        <ele>740.4</ele>
        <time>2023-11-26T10:18:37Z</time>
      </trkpt>
      <trkpt lat="43.6221" lon="6.6025">
        <ele>740.4</ele>
        <time>2023-11-26T10:18:38Z</time>
      </trkpt>
      <trkpt lat="43.6221" lon="6.6025">
        <ele>740.3</ele>
        <time>2023-11-26T10:18:39Z</time>
      </trkpt>
      <trkpt lat="43.6221" lon="6.6025">
        <ele>740.4</ele>
        <time>2023-11-26T10:18:40Z</time>
      </trkpt>
      <trkpt lat="43.6221" lon="6.6025">
        <ele>740.4</ele>
        <time>2023-11-26T10:18:41Z</time>
      </trkpt>
      <trkpt lat="43.6221" lon="6.60251">
        <ele>740.4</ele>
        <time>2023-11-26T10:18:42Z</time>
      </trkpt>
      <trkpt lat="43.6221" lon="6.60251">
        <ele>740.3</ele>
        <time>2023-11-26T10:18:43Z</time>
      </trkpt>
      <trkpt lat="43.6221" lon="6.60251">
        <ele>740.3</ele>
        <time>2023-11-26T10:18:44Z</time>
      </trkpt>
      <trkpt lat="43.62209" lon="6.60251">
        <ele>740.3</ele>
        <time>2023-11-26T10:18:45Z</time>
      </trkpt>
      <trkpt lat="43.62209" lon="6.60251">
        <ele>740.3</ele>
        <time>2023-11-26T10:18:46Z</time>
      </trkpt>
      <trkpt lat="43.62209" lon="6.60251">
        <ele>740.4</ele>
        <time>2023-11-26T10:18:47Z</time>
      </trkpt>
      <trkpt lat="43.62209" lon="6.60251">
        <ele>740.4</ele>
        <time>2023-11-26T10:18:48Z</time>
      </trkpt>
      <trkpt lat="43.62209" lon="6.60251">
        <ele>740.4</ele>
        <time>2023-11-26T10:18:49Z</time>
      </trkpt>
      <trkpt lat="43.62209" lon="6.60251">
        <ele>740.4</ele>
        <time>2023-11-26T10:18:50Z</time>
      </trkpt>
      <trkpt lat="43.62208" lon="6.60251">
        <ele>740.4</ele>
        <time>2023-11-26T10:18:51Z</time>
      </trkpt>
      <trkpt lat="43.62208" lon="6.60251">
        <ele>740.4</ele>
        <time>2023-11-26T10:18:52Z</time>
      </trkpt>
      <trkpt lat="43.62208" lon="6.60251">
        <ele>740.4</ele>
        <time>2023-11-26T10:18:53Z</time>
      </trkpt>
      <trkpt lat="43.62208" lon="6.60251">
        <ele>740.5</ele>
        <time>2023-11-26T10:18:54Z</time>
      </trkpt>
      <trkpt lat="43.62208" lon="6.60251">
        <ele>740.5</ele>
        <time>2023-11-26T10:18:55Z</time>
      </trkpt>
      <trkpt lat="43.62208" lon="6.60251">
        <ele>740.5</ele>
        <time>2023-11-26T10:18:56Z</time>
      </trkpt>
      <trkpt lat="43.62208" lon="6.60251">
        <ele>740.5</ele>
        <time>2023-11-26T10:18:57Z</time>
      </trkpt>
      <trkpt lat="43.62208" lon="6.60251">
        <ele>740.5</ele>
        <time>2023-11-26T10:18:58Z</time>
      </trkpt>
      <trkpt lat="43.62208" lon="6.60251">
        <ele>740.5</ele>
        <time>2023-11-26T10:18:59Z</time>
      </trkpt>
      <trkpt lat="43.62208" lon="6.60251">
        <ele>740.5</ele>
        <time>2023-11-26T10:19:00Z</time>
      </trkpt>
      <trkpt lat="43.62208" lon="6.60251">
        <ele>740.5</ele>
        <time>2023-11-26T10:19:01Z</time>
      </trkpt>
      <trkpt lat="43.62208" lon="6.60251">
        <ele>740.5</ele>
        <time>2023-11-26T10:19:02Z</time>
      </trkpt>
      <trkpt lat="43.62208" lon="6.60252">
        <ele>740.5</ele>
        <time>2023-11-26T10:19:03Z</time>
      </trkpt>
      <trkpt lat="43.62208" lon="6.60252">
        <ele>740.5</ele>
        <time>2023-11-26T10:19:04Z</time>
      </trkpt>
      <trkpt lat="43.62208" lon="6.60251">
        <ele>740.5</ele>
        <time>2023-11-26T10:19:05Z</time>
      </trkpt>
      <trkpt lat="43.62208" lon="6.60251">
        <ele>740.5</ele>
        <time>2023-11-26T10:19:06Z</time>
      </trkpt>
      <trkpt lat="43.62208" lon="6.60251">
        <ele>740.5</ele>
        <time>2023-11-26T10:19:07Z</time>
      </trkpt>
      <trkpt lat="43.62208" lon="6.60251">
        <ele>740.5</ele>
        <time>2023-11-26T10:19:08Z</time>
      </trkpt>
      <trkpt lat="43.62208" lon="6.60251">
        <ele>740.5</ele>
        <time>2023-11-26T10:19:09Z</time>
      </trkpt>
      <trkpt lat="43.62208" lon="6.60251">
        <ele>740.5</ele>
        <time>2023-11-26T10:19:10Z</time>
      </trkpt>
      <trkpt lat="43.62208" lon="6.60251">
        <ele>740.4</ele>
        <time>2023-11-26T10:19:11Z</time>
      </trkpt>
      <trkpt lat="43.62208" lon="6.60251">
        <ele>740.4</ele>
        <time>2023-11-26T10:19:12Z</time>
      </trkpt>
      <trkpt lat="43.62208" lon="6.60251">
        <ele>740.4</ele>
        <time>2023-11-26T10:19:13Z</time>
      </trkpt>
      <trkpt lat="43.62208" lon="6.60251">
        <ele>740.4</ele>
        <time>2023-11-26T10:19:14Z</time>
      </trkpt>
      <trkpt lat="43.62208" lon="6.60251">
        <ele>740.4</ele>
        <time>2023-11-26T10:19:15Z</time>
      </trkpt>
      <trkpt lat="43.62208" lon="6.60251">
        <ele>740.5</ele>
        <time>2023-11-26T10:19:16Z</time>
      </trkpt>
      <trkpt lat="43.62208" lon="6.60251">
        <ele>740.4</ele>
        <time>2023-11-26T10:19:17Z</time>
      </trkpt>
      <trkpt lat="43.62208" lon="6.60251">
        <ele>740.4</ele>
        <time>2023-11-26T10:19:18Z</time>
      </trkpt>
      <trkpt lat="43.62208" lon="6.60251">
        <ele>740.4</ele>
        <time>2023-11-26T10:19:19Z</time>
      </trkpt>
      <trkpt lat="43.62208" lon="6.60251">
        <ele>740.5</ele>
        <time>2023-11-26T10:19:20Z</time>
      </trkpt>
      <trkpt lat="43.62208" lon="6.60251">
        <ele>740.5</ele>
        <time>2023-11-26T10:19:21Z</time>
      </trkpt>
      <trkpt lat="43.62208" lon="6.60251">
        <ele>740.5</ele>
        <time>2023-11-26T10:19:22Z</time>
      </trkpt>
      <trkpt lat="43.62208" lon="6.60251">
        <ele>740.5</ele>
        <time>2023-11-26T10:19:23Z</time>
      </trkpt>
      <trkpt lat="43.62208" lon="6.60251">
        <ele>740.5</ele>
        <time>2023-11-26T10:19:24Z</time>
      </trkpt>
      <trkpt lat="43.62208" lon="6.60251">
        <ele>740.5</ele>
        <time>2023-11-26T10:19:25Z</time>
      </trkpt>
      <trkpt lat="43.62208" lon="6.60251">
        <ele>740.6</ele>
        <time>2023-11-26T10:19:26Z</time>
      </trkpt>
      <trkpt lat="43.62208" lon="6.60251">
        <ele>740.6</ele>
        <time>2023-11-26T10:19:27Z</time>
      </trkpt>
      <trkpt lat="43.62208" lon="6.60251">
        <ele>740.6</ele>
        <time>2023-11-26T10:19:28Z</time>
      </trkpt>
      <trkpt lat="43.62208" lon="6.60251">
        <ele>740.6</ele>
        <time>2023-11-26T10:19:29Z</time>
      </trkpt>
      <trkpt lat="43.62208" lon="6.60251">
        <ele>740.6</ele>
        <time>2023-11-26T10:19:30Z</time>
      </trkpt>
      <trkpt lat="43.62208" lon="6.60251">
        <ele>740.5</ele>
        <time>2023-11-26T10:19:31Z</time>
      </trkpt>
      <trkpt lat="43.62208" lon="6.60252">
        <ele>740.5</ele>
        <time>2023-11-26T10:19:32Z</time>
      </trkpt>
      <trkpt lat="43.62208" lon="6.60252">
        <ele>740.5</ele>
        <time>2023-11-26T10:19:33Z</time>
      </trkpt>
      <trkpt lat="43.62208" lon="6.60252">
        <ele>740.6</ele>
        <time>2023-11-26T10:19:34Z</time>
      </trkpt>
      <trkpt lat="43.62208" lon="6.60252">
        <ele>740.6</ele>
        <time>2023-11-26T10:19:35Z</time>
      </trkpt>
      <trkpt lat="43.62208" lon="6.60252">
        <ele>740.6</ele>
        <time>2023-11-26T10:19:36Z</time>
      </trkpt>
      <trkpt lat="43.62208" lon="6.60252">
        <ele>740.6</ele>
        <time>2023-11-26T10:19:37Z</time>
      </trkpt>
      <trkpt lat="43.62207" lon="6.60252">
        <ele>740.6</ele>
        <time>2023-11-26T10:19:38Z</time>
      </trkpt>
      <trkpt lat="43.62207" lon="6.60252">
        <ele>740.6</ele>
        <time>2023-11-26T10:19:39Z</time>
      </trkpt>
      <trkpt lat="43.62207" lon="6.60252">
        <ele>740.5</ele>
        <time>2023-11-26T10:19:40Z</time>
      </trkpt>
      <trkpt lat="43.62207" lon="6.60252">
        <ele>740.6</ele>
        <time>2023-11-26T10:19:41Z</time>
      </trkpt>
      <trkpt lat="43.62207" lon="6.60252">
        <ele>740.6</ele>
        <time>2023-11-26T10:19:42Z</time>
      </trkpt>
      <trkpt lat="43.62207" lon="6.60252">
        <ele>740.6</ele>
        <time>2023-11-26T10:19:43Z</time>
      </trkpt>
      <trkpt lat="43.62207" lon="6.60252">
        <ele>740.6</ele>
        <time>2023-11-26T10:19:44Z</time>
      </trkpt>
      <trkpt lat="43.62207" lon="6.60252">
        <ele>740.6</ele>
        <time>2023-11-26T10:19:45Z</time>
      </trkpt>
      <trkpt lat="43.62207" lon="6.60252">
        <ele>740.6</ele>
        <time>2023-11-26T10:19:46Z</time>
      </trkpt>
      <trkpt lat="43.62206" lon="6.60252">
        <ele>740.7</ele>
        <time>2023-11-26T10:19:47Z</time>
      </trkpt>
      <trkpt lat="43.62206" lon="6.60252">
        <ele>740.7</ele>
        <time>2023-11-26T10:19:48Z</time>
      </trkpt>
      <trkpt lat="43.62207" lon="6.60252">
        <ele>740.7</ele>
        <time>2023-11-26T10:19:49Z</time>
      </trkpt>
      <trkpt lat="43.62207" lon="6.60252">
        <ele>740.7</ele>
        <time>2023-11-26T10:19:50Z</time>
      </trkpt>
      <trkpt lat="43.62207" lon="6.60252">
        <ele>740.7</ele>
        <time>2023-11-26T10:19:51Z</time>
      </trkpt>
      <trkpt lat="43.62207" lon="6.60252">
        <ele>740.7</ele>
        <time>2023-11-26T10:19:52Z</time>
      </trkpt>
      <trkpt lat="43.62207" lon="6.60252">
        <ele>740.7</ele>
        <time>2023-11-26T10:19:53Z</time>
      </trkpt>
      <trkpt lat="43.62208" lon="6.60252">
        <ele>740.7</ele>
        <time>2023-11-26T10:19:54Z</time>
      </trkpt>
      <trkpt lat="43.62208" lon="6.60252">
        <ele>740.6</ele>
        <time>2023-11-26T10:19:55Z</time>
      </trkpt>
      <trkpt lat="43.62208" lon="6.60252">
        <ele>740.6</ele>
        <time>2023-11-26T10:19:56Z</time>
      </trkpt>
      <trkpt lat="43.62208" lon="6.60252">
        <ele>740.6</ele>
        <time>2023-11-26T10:19:57Z</time>
      </trkpt>
      <trkpt lat="43.62208" lon="6.60252">
        <ele>740.5</ele>
        <time>2023-11-26T10:19:58Z</time>
      </trkpt>
      <trkpt lat="43.62208" lon="6.60252">
        <ele>740.3</ele>
        <time>2023-11-26T10:19:59Z</time>
      </trkpt>
      <trkpt lat="43.62208" lon="6.60252">
        <ele>740.4</ele>
        <time>2023-11-26T10:20:00Z</time>
      </trkpt>
      <trkpt lat="43.62208" lon="6.60252">
        <ele>740.4</ele>
        <time>2023-11-26T10:20:01Z</time>
      </trkpt>
      <trkpt lat="43.62208" lon="6.60252">
        <ele>740.3</ele>
        <time>2023-11-26T10:20:02Z</time>
      </trkpt>
      <trkpt lat="43.62208" lon="6.60252">
        <ele>740.3</ele>
        <time>2023-11-26T10:20:03Z</time>
      </trkpt>
      <trkpt lat="43.62208" lon="6.60251">
        <ele>740.3</ele>
        <time>2023-11-26T10:20:04Z</time>
      </trkpt>
      <trkpt lat="43.62209" lon="6.60251">
        <ele>740.3</ele>
        <time>2023-11-26T10:20:05Z</time>
      </trkpt>
      <trkpt lat="43.62209" lon="6.60251">
        <ele>740.3</ele>
        <time>2023-11-26T10:20:06Z</time>
      </trkpt>
      <trkpt lat="43.62209" lon="6.60251">
        <ele>740.3</ele>
        <time>2023-11-26T10:20:07Z</time>
      </trkpt>
      <trkpt lat="43.62209" lon="6.60251">
        <ele>740.4</ele>
        <time>2023-11-26T10:20:08Z</time>
      </trkpt>
      <trkpt lat="43.62209" lon="6.60251">
        <ele>740.5</ele>
        <time>2023-11-26T10:20:09Z</time>
      </trkpt>
      <trkpt lat="43.6221" lon="6.6025">
        <ele>740.5</ele>
        <time>2023-11-26T10:20:10Z</time>
      </trkpt>
      <trkpt lat="43.6221" lon="6.6025">
        <ele>740.5</ele>
        <time>2023-11-26T10:20:11Z</time>
      </trkpt>
      <trkpt lat="43.62211" lon="6.6025">
        <ele>740.4</ele>
        <time>2023-11-26T10:20:12Z</time>
      </trkpt>
      <trkpt lat="43.62211" lon="6.6025">
        <ele>740.4</ele>
        <time>2023-11-26T10:20:13Z</time>
      </trkpt>
      <trkpt lat="43.62211" lon="6.60249">
        <ele>740.3</ele>
        <time>2023-11-26T10:20:14Z</time>
      </trkpt>
      <trkpt lat="43.6221" lon="6.60249">
        <ele>740.3</ele>
        <time>2023-11-26T10:20:15Z</time>
      </trkpt>
      <trkpt lat="43.6221" lon="6.60249">
        <ele>740.3</ele>
        <time>2023-11-26T10:20:16Z</time>
      </trkpt>
      <trkpt lat="43.62211" lon="6.60249">
        <ele>740.3</ele>
        <time>2023-11-26T10:20:17Z</time>
      </trkpt>
      <trkpt lat="43.6221" lon="6.60249">
        <ele>740.3</ele>
        <time>2023-11-26T10:20:18Z</time>
      </trkpt>
      <trkpt lat="43.6221" lon="6.60249">
        <ele>740.3</ele>
        <time>2023-11-26T10:20:19Z</time>
      </trkpt>
      <trkpt lat="43.6221" lon="6.60249">
        <ele>740.3</ele>
        <time>2023-11-26T10:20:20Z</time>
      </trkpt>
      <trkpt lat="43.62209" lon="6.60249">
        <ele>740.3</ele>
        <time>2023-11-26T10:20:21Z</time>
      </trkpt>
      <trkpt lat="43.62209" lon="6.60249">
        <ele>740.3</ele>
        <time>2023-11-26T10:20:22Z</time>
      </trkpt>
      <trkpt lat="43.62209" lon="6.60251">
        <ele>740.3</ele>
        <time>2023-11-26T10:20:23Z</time>
      </trkpt>
      <trkpt lat="43.62209" lon="6.60251">
        <ele>740.4</ele>
        <time>2023-11-26T10:20:24Z</time>
      </trkpt>
      <trkpt lat="43.6221" lon="6.60251">
        <ele>740.5</ele>
        <time>2023-11-26T10:20:25Z</time>
      </trkpt>
      <trkpt lat="43.6221" lon="6.6025">
        <ele>740.6</ele>
        <time>2023-11-26T10:20:26Z</time>
      </trkpt>
      <trkpt lat="43.6221" lon="6.60251">
        <ele>740.6</ele>
        <time>2023-11-26T10:20:27Z</time>
      </trkpt>
      <trkpt lat="43.6221" lon="6.6025">
        <ele>740.6</ele>
        <time>2023-11-26T10:20:28Z</time>
      </trkpt>
      <trkpt lat="43.6221" lon="6.60251">
        <ele>740.6</ele>
        <time>2023-11-26T10:20:29Z</time>
      </trkpt>
      <trkpt lat="43.6221" lon="6.6025">
        <ele>740.6</ele>
        <time>2023-11-26T10:20:30Z</time>
      </trkpt>
      <trkpt lat="43.6221" lon="6.6025">
        <ele>740.7</ele>
        <time>2023-11-26T10:20:31Z</time>
      </trkpt>
      <trkpt lat="43.6221" lon="6.6025">
        <ele>740.7</ele>
        <time>2023-11-26T10:20:32Z</time>
      </trkpt>
      <trkpt lat="43.6221" lon="6.6025">
        <ele>740.6</ele>
        <time>2023-11-26T10:20:33Z</time>
      </trkpt>
      <trkpt lat="43.6221" lon="6.6025">
        <ele>740.6</ele>
        <time>2023-11-26T10:20:34Z</time>
      </trkpt>
      <trkpt lat="43.6221" lon="6.6025">
        <ele>740.5</ele>
        <time>2023-11-26T10:20:35Z</time>
      </trkpt>
      <trkpt lat="43.6221" lon="6.6025">
        <ele>740.5</ele>
        <time>2023-11-26T10:20:36Z</time>
      </trkpt>
      <trkpt lat="43.6221" lon="6.6025">
        <ele>740.4</ele>
        <time>2023-11-26T10:20:37Z</time>
      </trkpt>
      <trkpt lat="43.6221" lon="6.6025">
        <ele>740.4</ele>
        <time>2023-11-26T10:20:38Z</time>
      </trkpt>
      <trkpt lat="43.6221" lon="6.6025">
        <ele>740.5</ele>
        <time>2023-11-26T10:20:39Z</time>
      </trkpt>
      <trkpt lat="43.6221" lon="6.6025">
        <ele>740.5</ele>
        <time>2023-11-26T10:20:40Z</time>
      </trkpt>
      <trkpt lat="43.6221" lon="6.6025">
        <ele>740.5</ele>
        <time>2023-11-26T10:20:41Z</time>
      </trkpt>
      <trkpt lat="43.6221" lon="6.6025">
        <ele>740.6</ele>
        <time>2023-11-26T10:20:42Z</time>
      </trkpt>
      <trkpt lat="43.6221" lon="6.6025">
        <ele>740.5</ele>
        <time>2023-11-26T10:20:43Z</time>
      </trkpt>
      <trkpt lat="43.6221" lon="6.6025">
        <ele>740.5</ele>
        <time>2023-11-26T10:20:44Z</time>
      </trkpt>
      <trkpt lat="43.6221" lon="6.6025">
        <ele>740.5</ele>
        <time>2023-11-26T10:20:45Z</time>
      </trkpt>
      <trkpt lat="43.6221" lon="6.6025">
        <ele>740.5</ele>
        <time>2023-11-26T10:20:46Z</time>
      </trkpt>
      <trkpt lat="43.62209" lon="6.6025">
        <ele>740.5</ele>
        <time>2023-11-26T10:20:47Z</time>
      </trkpt>
      <trkpt lat="43.62209" lon="6.6025">
        <ele>740.5</ele>
        <time>2023-11-26T10:20:48Z</time>
      </trkpt>
      <trkpt lat="43.62209" lon="6.6025">
        <ele>740.5</ele>
        <time>2023-11-26T10:20:49Z</time>
      </trkpt>
      <trkpt lat="43.62209" lon="6.6025">
        <ele>740.5</ele>
        <time>2023-11-26T10:20:50Z</time>
      </trkpt>
      <trkpt lat="43.62209" lon="6.6025">
        <ele>740.5</ele>
        <time>2023-11-26T10:20:51Z</time>
      </trkpt>
      <trkpt lat="43.62209" lon="6.6025">
        <ele>740.5</ele>
        <time>2023-11-26T10:20:52Z</time>
      </trkpt>
      <trkpt lat="43.62209" lon="6.6025">
        <ele>740.5</ele>
        <time>2023-11-26T10:20:53Z</time>
      </trkpt>
      <trkpt lat="43.62209" lon="6.6025">
        <ele>740.5</ele>
        <time>2023-11-26T10:20:54Z</time>
      </trkpt>
      <trkpt lat="43.62209" lon="6.6025">
        <ele>740.4</ele>
        <time>2023-11-26T10:20:55Z</time>
      </trkpt>
      <trkpt lat="43.62209" lon="6.6025">
        <ele>740.4</ele>
        <time>2023-11-26T10:20:56Z</time>
      </trkpt>
      <trkpt lat="43.62209" lon="6.60249">
        <ele>740.5</ele>
        <time>2023-11-26T10:20:57Z</time>
      </trkpt>
      <trkpt lat="43.62209" lon="6.60249">
        <ele>740.5</ele>
        <time>2023-11-26T10:20:58Z</time>
      </trkpt>
      <trkpt lat="43.62209" lon="6.60249">
        <ele>740.5</ele>
        <time>2023-11-26T10:20:59Z</time>
      </trkpt>
      <trkpt lat="43.62209" lon="6.60249">
        <ele>740.5</ele>
        <time>2023-11-26T10:21:00Z</time>
      </trkpt>
      <trkpt lat="43.62209" lon="6.60249">
        <ele>740.5</ele>
        <time>2023-11-26T10:21:01Z</time>
      </trkpt>
      <trkpt lat="43.62209" lon="6.60249">
        <ele>740.6</ele>
        <time>2023-11-26T10:21:02Z</time>
      </trkpt>
      <trkpt lat="43.62209" lon="6.60249">
        <ele>740.5</ele>
        <time>2023-11-26T10:21:03Z</time>
      </trkpt>
      <trkpt lat="43.62209" lon="6.60249">
        <ele>740.6</ele>
        <time>2023-11-26T10:21:04Z</time>
      </trkpt>
      <trkpt lat="43.62209" lon="6.60249">
        <ele>740.6</ele>
        <time>2023-11-26T10:21:05Z</time>
      </trkpt>
      <trkpt lat="43.62208" lon="6.60249">
        <ele>740.6</ele>
        <time>2023-11-26T10:21:06Z</time>
      </trkpt>
      <trkpt lat="43.62207" lon="6.60249">
        <ele>740.7</ele>
        <time>2023-11-26T10:21:07Z</time>
      </trkpt>
      <trkpt lat="43.62207" lon="6.60249">
        <ele>740.7</ele>
        <time>2023-11-26T10:21:08Z</time>
      </trkpt>
      <trkpt lat="43.62207" lon="6.60249">
        <ele>740.8</ele>
        <time>2023-11-26T10:21:09Z</time>
      </trkpt>
      <trkpt lat="43.62206" lon="6.60249">
        <ele>740.8</ele>
        <time>2023-11-26T10:21:10Z</time>
      </trkpt>
      <trkpt lat="43.62206" lon="6.60249">
        <ele>740.9</ele>
        <time>2023-11-26T10:21:11Z</time>
      </trkpt>
      <trkpt lat="43.62205" lon="6.60249">
        <ele>741.1</ele>
        <time>2023-11-26T10:21:12Z</time>
      </trkpt>
      <trkpt lat="43.62204" lon="6.6025">
        <ele>741.2</ele>
        <time>2023-11-26T10:21:13Z</time>
      </trkpt>
      <trkpt lat="43.62204" lon="6.6025">
        <ele>741.2</ele>
        <time>2023-11-26T10:21:14Z</time>
      </trkpt>
      <trkpt lat="43.62203" lon="6.6025">
        <ele>741.3</ele>
        <time>2023-11-26T10:21:15Z</time>
      </trkpt>
      <trkpt lat="43.62203" lon="6.60251">
        <ele>741.4</ele>
        <time>2023-11-26T10:21:16Z</time>
      </trkpt>
      <trkpt lat="43.62203" lon="6.60251">
        <ele>741.6</ele>
        <time>2023-11-26T10:21:17Z</time>
      </trkpt>
      <trkpt lat="43.62203" lon="6.60251">
        <ele>741.8</ele>
        <time>2023-11-26T10:21:18Z</time>
      </trkpt>
      <trkpt lat="43.62203" lon="6.60252">
        <ele>741.8</ele>
        <time>2023-11-26T10:21:19Z</time>
      </trkpt>
      <trkpt lat="43.62203" lon="6.60253">
        <ele>741.9</ele>
        <time>2023-11-26T10:21:20Z</time>
      </trkpt>
      <trkpt lat="43.62203" lon="6.60254">
        <ele>742</ele>
        <time>2023-11-26T10:21:21Z</time>
      </trkpt>
      <trkpt lat="43.62204" lon="6.60255">
        <ele>742</ele>
        <time>2023-11-26T10:21:22Z</time>
      </trkpt>
      <trkpt lat="43.62204" lon="6.60256">
        <ele>742.2</ele>
        <time>2023-11-26T10:21:23Z</time>
      </trkpt>
      <trkpt lat="43.62204" lon="6.60257">
        <ele>742.3</ele>
        <time>2023-11-26T10:21:24Z</time>
      </trkpt>
      <trkpt lat="43.62204" lon="6.60258">
        <ele>742.3</ele>
        <time>2023-11-26T10:21:25Z</time>
      </trkpt>
      <trkpt lat="43.62204" lon="6.6026">
        <ele>742.4</ele>
        <time>2023-11-26T10:21:26Z</time>
      </trkpt>
      <trkpt lat="43.62204" lon="6.6026">
        <ele>742.5</ele>
        <time>2023-11-26T10:21:27Z</time>
      </trkpt>
      <trkpt lat="43.62205" lon="6.60261">
        <ele>742.5</ele>
        <time>2023-11-26T10:21:28Z</time>
      </trkpt>
      <trkpt lat="43.62205" lon="6.60262">
        <ele>742.5</ele>
        <time>2023-11-26T10:21:29Z</time>
      </trkpt>
      <trkpt lat="43.62206" lon="6.60262">
        <ele>742.5</ele>
        <time>2023-11-26T10:21:30Z</time>
      </trkpt>
      <trkpt lat="43.62206" lon="6.60263">
        <ele>742.7</ele>
        <time>2023-11-26T10:21:31Z</time>
      </trkpt>
      <trkpt lat="43.62206" lon="6.60264">
        <ele>742.7</ele>
        <time>2023-11-26T10:21:32Z</time>
      </trkpt>
      <trkpt lat="43.62207" lon="6.60265">
        <ele>742.8</ele>
        <time>2023-11-26T10:21:33Z</time>
      </trkpt>
      <trkpt lat="43.62208" lon="6.60267">
        <ele>742.9</ele>
        <time>2023-11-26T10:21:34Z</time>
      </trkpt>
      <trkpt lat="43.62208" lon="6.60268">
        <ele>743</ele>
        <time>2023-11-26T10:21:35Z</time>
      </trkpt>
      <trkpt lat="43.62208" lon="6.60269">
        <ele>743.1</ele>
        <time>2023-11-26T10:21:36Z</time>
      </trkpt>
      <trkpt lat="43.62209" lon="6.60271">
        <ele>743.2</ele>
        <time>2023-11-26T10:21:37Z</time>
      </trkpt>
      <trkpt lat="43.62209" lon="6.60272">
        <ele>743.2</ele>
        <time>2023-11-26T10:21:38Z</time>
      </trkpt>
      <trkpt lat="43.6221" lon="6.60273">
        <ele>743.3</ele>
        <time>2023-11-26T10:21:39Z</time>
      </trkpt>
      <trkpt lat="43.6221" lon="6.60273">
        <ele>743.3</ele>
        <time>2023-11-26T10:21:40Z</time>
      </trkpt>
      <trkpt lat="43.6221" lon="6.60274">
        <ele>743.4</ele>
        <time>2023-11-26T10:21:41Z</time>
      </trkpt>
      <trkpt lat="43.6221" lon="6.60276">
        <ele>743.5</ele>
        <time>2023-11-26T10:21:42Z</time>
      </trkpt>
      <trkpt lat="43.62211" lon="6.60277">
        <ele>743.6</ele>
        <time>2023-11-26T10:21:43Z</time>
      </trkpt>
      <trkpt lat="43.62211" lon="6.60278">
        <ele>743.6</ele>
        <time>2023-11-26T10:21:44Z</time>
      </trkpt>
      <trkpt lat="43.62211" lon="6.60279">
        <ele>743.8</ele>
        <time>2023-11-26T10:21:45Z</time>
      </trkpt>
      <trkpt lat="43.62211" lon="6.60281">
        <ele>744</ele>
        <time>2023-11-26T10:21:46Z</time>
      </trkpt>
      <trkpt lat="43.62211" lon="6.60282">
        <ele>744.1</ele>
        <time>2023-11-26T10:21:47Z</time>
      </trkpt>
      <trkpt lat="43.62211" lon="6.60282">
        <ele>744.1</ele>
        <time>2023-11-26T10:21:48Z</time>
      </trkpt>
      <trkpt lat="43.62211" lon="6.60283">
        <ele>744.2</ele>
        <time>2023-11-26T10:21:49Z</time>
      </trkpt>
      <trkpt lat="43.62211" lon="6.60284">
        <ele>744.3</ele>
        <time>2023-11-26T10:21:50Z</time>
      </trkpt>
      <trkpt lat="43.62211" lon="6.60285">
        <ele>744.4</ele>
        <time>2023-11-26T10:21:51Z</time>
      </trkpt>
      <trkpt lat="43.62212" lon="6.60285">
        <ele>744.4</ele>
        <time>2023-11-26T10:21:52Z</time>
      </trkpt>
      <trkpt lat="43.62212" lon="6.60286">
        <ele>744.5</ele>
        <time>2023-11-26T10:21:53Z</time>
      </trkpt>
      <trkpt lat="43.62213" lon="6.60287">
        <ele>744.6</ele>
        <time>2023-11-26T10:21:54Z</time>
      </trkpt>
      <trkpt lat="43.62214" lon="6.60288">
        <ele>744.7</ele>
        <time>2023-11-26T10:21:55Z</time>
      </trkpt>
      <trkpt lat="43.62214" lon="6.60289">
        <ele>744.8</ele>
        <time>2023-11-26T10:21:56Z</time>
      </trkpt>
      <trkpt lat="43.62215" lon="6.6029">
        <ele>744.9</ele>
        <time>2023-11-26T10:21:57Z</time>
      </trkpt>
      <trkpt lat="43.62215" lon="6.60291">
        <ele>744.9</ele>
        <time>2023-11-26T10:21:58Z</time>
      </trkpt>
      <trkpt lat="43.62215" lon="6.60293">
        <ele>745</ele>
        <time>2023-11-26T10:21:59Z</time>
      </trkpt>
      <trkpt lat="43.62216" lon="6.60294">
        <ele>745.1</ele>
        <time>2023-11-26T10:22:00Z</time>
      </trkpt>
      <trkpt lat="43.62216" lon="6.60295">
        <ele>745.1</ele>
        <time>2023-11-26T10:22:01Z</time>
      </trkpt>
      <trkpt lat="43.62216" lon="6.60296">
        <ele>745.1</ele>
        <time>2023-11-26T10:22:02Z</time>
      </trkpt>
      <trkpt lat="43.62216" lon="6.60297">
        <ele>745.1</ele>
        <time>2023-11-26T10:22:03Z</time>
      </trkpt>
      <trkpt lat="43.62217" lon="6.60298">
        <ele>745.2</ele>
        <time>2023-11-26T10:22:04Z</time>
      </trkpt>
      <trkpt lat="43.62217" lon="6.60298">
        <ele>745.3</ele>
        <time>2023-11-26T10:22:05Z</time>
      </trkpt>
      <trkpt lat="43.62218" lon="6.60299">
        <ele>745.4</ele>
        <time>2023-11-26T10:22:06Z</time>
      </trkpt>
      <trkpt lat="43.62219" lon="6.603">
        <ele>745.5</ele>
        <time>2023-11-26T10:22:07Z</time>
      </trkpt>
      <trkpt lat="43.6222" lon="6.60301">
        <ele>745.6</ele>
        <time>2023-11-26T10:22:08Z</time>
      </trkpt>
      <trkpt lat="43.62221" lon="6.60302">
        <ele>745.6</ele>
        <time>2023-11-26T10:22:09Z</time>
      </trkpt>
      <trkpt lat="43.62221" lon="6.60303">
        <ele>745.8</ele>
        <time>2023-11-26T10:22:10Z</time>
      </trkpt>
      <trkpt lat="43.62222" lon="6.60304">
        <ele>745.8</ele>
        <time>2023-11-26T10:22:11Z</time>
      </trkpt>
      <trkpt lat="43.62223" lon="6.60305">
        <ele>745.9</ele>
        <time>2023-11-26T10:22:12Z</time>
      </trkpt>
      <trkpt lat="43.62224" lon="6.60307">
        <ele>745.9</ele>
        <time>2023-11-26T10:22:13Z</time>
      </trkpt>
      <trkpt lat="43.62224" lon="6.60308">
        <ele>745.9</ele>
        <time>2023-11-26T10:22:14Z</time>
      </trkpt>
      <trkpt lat="43.62225" lon="6.60309">
        <ele>745.9</ele>
        <time>2023-11-26T10:22:15Z</time>
      </trkpt>
      <trkpt lat="43.62226" lon="6.60309">
        <ele>746</ele>
        <time>2023-11-26T10:22:16Z</time>
      </trkpt>
      <trkpt lat="43.62226" lon="6.60311">
        <ele>746.1</ele>
        <time>2023-11-26T10:22:17Z</time>
      </trkpt>
      <trkpt lat="43.62227" lon="6.60312">
        <ele>746.2</ele>
        <time>2023-11-26T10:22:18Z</time>
      </trkpt>
      <trkpt lat="43.62228" lon="6.60313">
        <ele>746.2</ele>
        <time>2023-11-26T10:22:19Z</time>
      </trkpt>
      <trkpt lat="43.62229" lon="6.60314">
        <ele>746.3</ele>
        <time>2023-11-26T10:22:20Z</time>
      </trkpt>
      <trkpt lat="43.62229" lon="6.60316">
        <ele>746.4</ele>
        <time>2023-11-26T10:22:21Z</time>
      </trkpt>
      <trkpt lat="43.6223" lon="6.60317">
        <ele>746.4</ele>
        <time>2023-11-26T10:22:22Z</time>
      </trkpt>
      <trkpt lat="43.6223" lon="6.60318">
        <ele>746.5</ele>
        <time>2023-11-26T10:22:23Z</time>
      </trkpt>
      <trkpt lat="43.62231" lon="6.60319">
        <ele>746.5</ele>
        <time>2023-11-26T10:22:24Z</time>
      </trkpt>
      <trkpt lat="43.62232" lon="6.60321">
        <ele>746.7</ele>
        <time>2023-11-26T10:22:25Z</time>
      </trkpt>
      <trkpt lat="43.62232" lon="6.60322">
        <ele>746.6</ele>
        <time>2023-11-26T10:22:26Z</time>
      </trkpt>
      <trkpt lat="43.62233" lon="6.60323">
        <ele>746.6</ele>
        <time>2023-11-26T10:22:27Z</time>
      </trkpt>
      <trkpt lat="43.62233" lon="6.60325">
        <ele>746.6</ele>
        <time>2023-11-26T10:22:28Z</time>
      </trkpt>
      <trkpt lat="43.62233" lon="6.60326">
        <ele>746.8</ele>
        <time>2023-11-26T10:22:29Z</time>
      </trkpt>
      <trkpt lat="43.62233" lon="6.60328">
        <ele>746.9</ele>
        <time>2023-11-26T10:22:30Z</time>
      </trkpt>
      <trkpt lat="43.62233" lon="6.60329">
        <ele>747.1</ele>
        <time>2023-11-26T10:22:31Z</time>
      </trkpt>
      <trkpt lat="43.62234" lon="6.6033">
        <ele>747.2</ele>
        <time>2023-11-26T10:22:32Z</time>
      </trkpt>
      <trkpt lat="43.62235" lon="6.60331">
        <ele>747.3</ele>
        <time>2023-11-26T10:22:33Z</time>
      </trkpt>
      <trkpt lat="43.62235" lon="6.60333">
        <ele>747.4</ele>
        <time>2023-11-26T10:22:34Z</time>
      </trkpt>
      <trkpt lat="43.62236" lon="6.60334">
        <ele>747.6</ele>
        <time>2023-11-26T10:22:35Z</time>
      </trkpt>
      <trkpt lat="43.62236" lon="6.60335">
        <ele>747.7</ele>
        <time>2023-11-26T10:22:36Z</time>
      </trkpt>
      <trkpt lat="43.62236" lon="6.60336">
        <ele>747.7</ele>
        <time>2023-11-26T10:22:37Z</time>
      </trkpt>
      <trkpt lat="43.62237" lon="6.60337">
        <ele>747.8</ele>
        <time>2023-11-26T10:22:38Z</time>
      </trkpt>
      <trkpt lat="43.62238" lon="6.60338">
        <ele>747.8</ele>
        <time>2023-11-26T10:22:39Z</time>
      </trkpt>
      <trkpt lat="43.62238" lon="6.60339">
        <ele>747.8</ele>
        <time>2023-11-26T10:22:40Z</time>
      </trkpt>
      <trkpt lat="43.62239" lon="6.60339">
        <ele>747.9</ele>
        <time>2023-11-26T10:22:41Z</time>
      </trkpt>
      <trkpt lat="43.62239" lon="6.60339">
        <ele>748</ele>
        <time>2023-11-26T10:22:42Z</time>
      </trkpt>
      <trkpt lat="43.62239" lon="6.60339">
        <ele>748</ele>
        <time>2023-11-26T10:22:43Z</time>
      </trkpt>
      <trkpt lat="43.6224" lon="6.60341">
        <ele>748.1</ele>
        <time>2023-11-26T10:22:44Z</time>
      </trkpt>
      <trkpt lat="43.6224" lon="6.60341">
        <ele>748.1</ele>
        <time>2023-11-26T10:22:45Z</time>
      </trkpt>
      <trkpt lat="43.6224" lon="6.60342">
        <ele>748.3</ele>
        <time>2023-11-26T10:22:46Z</time>
      </trkpt>
      <trkpt lat="43.62241" lon="6.60342">
        <ele>748.5</ele>
        <time>2023-11-26T10:22:47Z</time>
      </trkpt>
      <trkpt lat="43.62241" lon="6.60343">
        <ele>748.5</ele>
        <time>2023-11-26T10:22:48Z</time>
      </trkpt>
      <trkpt lat="43.62242" lon="6.60345">
        <ele>748.6</ele>
        <time>2023-11-26T10:22:49Z</time>
      </trkpt>
      <trkpt lat="43.62242" lon="6.60346">
        <ele>748.7</ele>
        <time>2023-11-26T10:22:50Z</time>
      </trkpt>
      <trkpt lat="43.62243" lon="6.60347">
        <ele>748.7</ele>
        <time>2023-11-26T10:22:51Z</time>
      </trkpt>
      <trkpt lat="43.62243" lon="6.60348">
        <ele>748.7</ele>
        <time>2023-11-26T10:22:52Z</time>
      </trkpt>
      <trkpt lat="43.62244" lon="6.60349">
        <ele>748.8</ele>
        <time>2023-11-26T10:22:53Z</time>
      </trkpt>
      <trkpt lat="43.62245" lon="6.6035">
        <ele>748.9</ele>
        <time>2023-11-26T10:22:54Z</time>
      </trkpt>
      <trkpt lat="43.62245" lon="6.60352">
        <ele>749</ele>
        <time>2023-11-26T10:22:55Z</time>
      </trkpt>
      <trkpt lat="43.62246" lon="6.60353">
        <ele>749</ele>
        <time>2023-11-26T10:22:56Z</time>
      </trkpt>
      <trkpt lat="43.62246" lon="6.60354">
        <ele>749</ele>
        <time>2023-11-26T10:22:57Z</time>
      </trkpt>
      <trkpt lat="43.62246" lon="6.60356">
        <ele>749.1</ele>
        <time>2023-11-26T10:22:58Z</time>
      </trkpt>
      <trkpt lat="43.62246" lon="6.60356">
        <ele>749.2</ele>
        <time>2023-11-26T10:22:59Z</time>
      </trkpt>
      <trkpt lat="43.62248" lon="6.60357">
        <ele>749.3</ele>
        <time>2023-11-26T10:23:00Z</time>
      </trkpt>
      <trkpt lat="43.62249" lon="6.60358">
        <ele>749.4</ele>
        <time>2023-11-26T10:23:01Z</time>
      </trkpt>
      <trkpt lat="43.62249" lon="6.6036">
        <ele>749.6</ele>
        <time>2023-11-26T10:23:02Z</time>
      </trkpt>
      <trkpt lat="43.62249" lon="6.60361">
        <ele>749.6</ele>
        <time>2023-11-26T10:23:03Z</time>
      </trkpt>
      <trkpt lat="43.6225" lon="6.60362">
        <ele>749.7</ele>
        <time>2023-11-26T10:23:04Z</time>
      </trkpt>
      <trkpt lat="43.6225" lon="6.60364">
        <ele>749.7</ele>
        <time>2023-11-26T10:23:05Z</time>
      </trkpt>
      <trkpt lat="43.62249" lon="6.60365">
        <ele>749.9</ele>
        <time>2023-11-26T10:23:06Z</time>
      </trkpt>
      <trkpt lat="43.6225" lon="6.60366">
        <ele>749.9</ele>
        <time>2023-11-26T10:23:07Z</time>
      </trkpt>
      <trkpt lat="43.62251" lon="6.60367">
        <ele>749.9</ele>
        <time>2023-11-26T10:23:08Z</time>
      </trkpt>
      <trkpt lat="43.62252" lon="6.60368">
        <ele>750</ele>
        <time>2023-11-26T10:23:09Z</time>
      </trkpt>
      <trkpt lat="43.62253" lon="6.60369">
        <ele>750</ele>
        <time>2023-11-26T10:23:10Z</time>
      </trkpt>
      <trkpt lat="43.62254" lon="6.6037">
        <ele>750.1</ele>
        <time>2023-11-26T10:23:11Z</time>
      </trkpt>
      <trkpt lat="43.62254" lon="6.60371">
        <ele>750.2</ele>
        <time>2023-11-26T10:23:12Z</time>
      </trkpt>
      <trkpt lat="43.62255" lon="6.60372">
        <ele>750.2</ele>
        <time>2023-11-26T10:23:13Z</time>
      </trkpt>
      <trkpt lat="43.62255" lon="6.60374">
        <ele>750.2</ele>
        <time>2023-11-26T10:23:14Z</time>
      </trkpt>
      <trkpt lat="43.62256" lon="6.60374">
        <ele>750.2</ele>
        <time>2023-11-26T10:23:15Z</time>
      </trkpt>
      <trkpt lat="43.62255" lon="6.60376">
        <ele>750.3</ele>
        <time>2023-11-26T10:23:16Z</time>
      </trkpt>
      <trkpt lat="43.62256" lon="6.60378">
        <ele>750.3</ele>
        <time>2023-11-26T10:23:17Z</time>
      </trkpt>
      <trkpt lat="43.62257" lon="6.60379">
        <ele>750.4</ele>
        <time>2023-11-26T10:23:18Z</time>
      </trkpt>
      <trkpt lat="43.62257" lon="6.6038">
        <ele>750.4</ele>
        <time>2023-11-26T10:23:19Z</time>
      </trkpt>
      <trkpt lat="43.62257" lon="6.60381">
        <ele>750.5</ele>
        <time>2023-11-26T10:23:20Z</time>
      </trkpt>
      <trkpt lat="43.62258" lon="6.60383">
        <ele>750.6</ele>
        <time>2023-11-26T10:23:21Z</time>
      </trkpt>
      <trkpt lat="43.62258" lon="6.60384">
        <ele>750.7</ele>
        <time>2023-11-26T10:23:22Z</time>
      </trkpt>
      <trkpt lat="43.62259" lon="6.60385">
        <ele>750.7</ele>
        <time>2023-11-26T10:23:23Z</time>
      </trkpt>
      <trkpt lat="43.62259" lon="6.60386">
        <ele>750.7</ele>
        <time>2023-11-26T10:23:24Z</time>
      </trkpt>
      <trkpt lat="43.6226" lon="6.60387">
        <ele>750.7</ele>
        <time>2023-11-26T10:23:25Z</time>
      </trkpt>
      <trkpt lat="43.6226" lon="6.60389">
        <ele>750.7</ele>
        <time>2023-11-26T10:23:26Z</time>
      </trkpt>
      <trkpt lat="43.6226" lon="6.6039">
        <ele>750.7</ele>
        <time>2023-11-26T10:23:27Z</time>
      </trkpt>
      <trkpt lat="43.62261" lon="6.60391">
        <ele>750.8</ele>
        <time>2023-11-26T10:23:28Z</time>
      </trkpt>
      <trkpt lat="43.62262" lon="6.60392">
        <ele>750.8</ele>
        <time>2023-11-26T10:23:29Z</time>
      </trkpt>
      <trkpt lat="43.62262" lon="6.60393">
        <ele>750.9</ele>
        <time>2023-11-26T10:23:30Z</time>
      </trkpt>
      <trkpt lat="43.62262" lon="6.60396">
        <ele>751</ele>
        <time>2023-11-26T10:23:31Z</time>
      </trkpt>
      <trkpt lat="43.62263" lon="6.60397">
        <ele>751.1</ele>
        <time>2023-11-26T10:23:32Z</time>
      </trkpt>
      <trkpt lat="43.62262" lon="6.604">
        <ele>751.3</ele>
        <time>2023-11-26T10:23:33Z</time>
      </trkpt>
      <trkpt lat="43.62263" lon="6.60401">
        <ele>751.3</ele>
        <time>2023-11-26T10:23:34Z</time>
      </trkpt>
      <trkpt lat="43.62264" lon="6.60402">
        <ele>751.3</ele>
        <time>2023-11-26T10:23:35Z</time>
      </trkpt>
      <trkpt lat="43.62264" lon="6.60404">
        <ele>751.4</ele>
        <time>2023-11-26T10:23:36Z</time>
      </trkpt>
      <trkpt lat="43.62265" lon="6.60405">
        <ele>751.5</ele>
        <time>2023-11-26T10:23:37Z</time>
      </trkpt>
      <trkpt lat="43.62266" lon="6.60407">
        <ele>751.5</ele>
        <time>2023-11-26T10:23:38Z</time>
      </trkpt>
      <trkpt lat="43.62266" lon="6.60408">
        <ele>751.5</ele>
        <time>2023-11-26T10:23:39Z</time>
      </trkpt>
      <trkpt lat="43.62267" lon="6.60409">
        <ele>751.5</ele>
        <time>2023-11-26T10:23:40Z</time>
      </trkpt>
      <trkpt lat="43.62268" lon="6.6041">
        <ele>751.6</ele>
        <time>2023-11-26T10:23:41Z</time>
      </trkpt>
      <trkpt lat="43.62269" lon="6.60411">
        <ele>751.5</ele>
        <time>2023-11-26T10:23:42Z</time>
      </trkpt>
      <trkpt lat="43.62269" lon="6.60413">
        <ele>751.5</ele>
        <time>2023-11-26T10:23:43Z</time>
      </trkpt>
      <trkpt lat="43.62269" lon="6.60415">
        <ele>751.5</ele>
        <time>2023-11-26T10:23:44Z</time>
      </trkpt>
      <trkpt lat="43.6227" lon="6.60417">
        <ele>751.4</ele>
        <time>2023-11-26T10:23:45Z</time>
      </trkpt>
      <trkpt lat="43.62271" lon="6.60418">
        <ele>751.4</ele>
        <time>2023-11-26T10:23:46Z</time>
      </trkpt>
      <trkpt lat="43.62271" lon="6.60419">
        <ele>751.3</ele>
        <time>2023-11-26T10:23:47Z</time>
      </trkpt>
      <trkpt lat="43.62272" lon="6.6042">
        <ele>751.3</ele>
        <time>2023-11-26T10:23:48Z</time>
      </trkpt>
      <trkpt lat="43.62273" lon="6.60421">
        <ele>751.3</ele>
        <time>2023-11-26T10:23:49Z</time>
      </trkpt>
      <trkpt lat="43.62274" lon="6.60423">
        <ele>751.2</ele>
        <time>2023-11-26T10:23:50Z</time>
      </trkpt>
      <trkpt lat="43.62274" lon="6.60424">
        <ele>751.2</ele>
        <time>2023-11-26T10:23:51Z</time>
      </trkpt>
      <trkpt lat="43.62275" lon="6.60426">
        <ele>751.2</ele>
        <time>2023-11-26T10:23:52Z</time>
      </trkpt>
      <trkpt lat="43.62275" lon="6.60427">
        <ele>751.1</ele>
        <time>2023-11-26T10:23:53Z</time>
      </trkpt>
      <trkpt lat="43.62275" lon="6.60429">
        <ele>751</ele>
        <time>2023-11-26T10:23:54Z</time>
      </trkpt>
      <trkpt lat="43.62276" lon="6.6043">
        <ele>750.9</ele>
        <time>2023-11-26T10:23:55Z</time>
      </trkpt>
      <trkpt lat="43.62276" lon="6.60432">
        <ele>750.9</ele>
        <time>2023-11-26T10:23:56Z</time>
      </trkpt>
      <trkpt lat="43.62277" lon="6.60433">
        <ele>750.9</ele>
        <time>2023-11-26T10:23:57Z</time>
      </trkpt>
      <trkpt lat="43.62278" lon="6.60434">
        <ele>750.9</ele>
        <time>2023-11-26T10:23:58Z</time>
      </trkpt>
      <trkpt lat="43.62279" lon="6.60435">
        <ele>750.9</ele>
        <time>2023-11-26T10:23:59Z</time>
      </trkpt>
      <trkpt lat="43.6228" lon="6.60436">
        <ele>750.8</ele>
        <time>2023-11-26T10:24:00Z</time>
      </trkpt>
      <trkpt lat="43.6228" lon="6.60437">
        <ele>750.8</ele>
        <time>2023-11-26T10:24:01Z</time>
      </trkpt>
      <trkpt lat="43.62281" lon="6.60438">
        <ele>750.8</ele>
        <time>2023-11-26T10:24:02Z</time>
      </trkpt>
      <trkpt lat="43.62282" lon="6.6044">
        <ele>750.8</ele>
        <time>2023-11-26T10:24:03Z</time>
      </trkpt>
      <trkpt lat="43.62282" lon="6.60442">
        <ele>750.8</ele>
        <time>2023-11-26T10:24:04Z</time>
      </trkpt>
      <trkpt lat="43.62283" lon="6.60442">
        <ele>750.8</ele>
        <time>2023-11-26T10:24:05Z</time>
      </trkpt>
      <trkpt lat="43.62284" lon="6.60443">
        <ele>750.7</ele>
        <time>2023-11-26T10:24:06Z</time>
      </trkpt>
      <trkpt lat="43.62285" lon="6.60444">
        <ele>750.7</ele>
        <time>2023-11-26T10:24:07Z</time>
      </trkpt>
      <trkpt lat="43.62286" lon="6.60445">
        <ele>750.6</ele>
        <time>2023-11-26T10:24:08Z</time>
      </trkpt>
      <trkpt lat="43.62287" lon="6.60446">
        <ele>750.6</ele>
        <time>2023-11-26T10:24:09Z</time>
      </trkpt>
      <trkpt lat="43.62287" lon="6.60447">
        <ele>750.5</ele>
        <time>2023-11-26T10:24:10Z</time>
      </trkpt>
      <trkpt lat="43.62287" lon="6.60448">
        <ele>750.5</ele>
        <time>2023-11-26T10:24:11Z</time>
      </trkpt>
      <trkpt lat="43.62288" lon="6.60449">
        <ele>750.5</ele>
        <time>2023-11-26T10:24:12Z</time>
      </trkpt>
      <trkpt lat="43.62289" lon="6.6045">
        <ele>750.5</ele>
        <time>2023-11-26T10:24:13Z</time>
      </trkpt>
      <trkpt lat="43.62289" lon="6.60452">
        <ele>750.5</ele>
        <time>2023-11-26T10:24:14Z</time>
      </trkpt>
      <trkpt lat="43.6229" lon="6.60453">
        <ele>750.6</ele>
        <time>2023-11-26T10:24:15Z</time>
      </trkpt>
      <trkpt lat="43.62291" lon="6.60454">
        <ele>750.6</ele>
        <time>2023-11-26T10:24:16Z</time>
      </trkpt>
      <trkpt lat="43.62292" lon="6.60455">
        <ele>750.6</ele>
        <time>2023-11-26T10:24:17Z</time>
      </trkpt>
      <trkpt lat="43.62292" lon="6.60456">
        <ele>750.7</ele>
        <time>2023-11-26T10:24:18Z</time>
      </trkpt>
      <trkpt lat="43.62293" lon="6.60458">
        <ele>750.8</ele>
        <time>2023-11-26T10:24:19Z</time>
      </trkpt>
      <trkpt lat="43.62293" lon="6.60459">
        <ele>750.9</ele>
        <time>2023-11-26T10:24:20Z</time>
      </trkpt>
      <trkpt lat="43.62294" lon="6.60461">
        <ele>750.9</ele>
        <time>2023-11-26T10:24:21Z</time>
      </trkpt>
      <trkpt lat="43.62295" lon="6.60462">
        <ele>751</ele>
        <time>2023-11-26T10:24:22Z</time>
      </trkpt>
      <trkpt lat="43.62295" lon="6.60463">
        <ele>751.1</ele>
        <time>2023-11-26T10:24:23Z</time>
      </trkpt>
      <trkpt lat="43.62296" lon="6.60463">
        <ele>751.1</ele>
        <time>2023-11-26T10:24:24Z</time>
      </trkpt>
      <trkpt lat="43.62297" lon="6.60464">
        <ele>751.1</ele>
        <time>2023-11-26T10:24:25Z</time>
      </trkpt>
      <trkpt lat="43.62297" lon="6.60466">
        <ele>751.1</ele>
        <time>2023-11-26T10:24:26Z</time>
      </trkpt>
      <trkpt lat="43.62297" lon="6.60468">
        <ele>751.2</ele>
        <time>2023-11-26T10:24:27Z</time>
      </trkpt>
      <trkpt lat="43.62297" lon="6.6047">
        <ele>751.1</ele>
        <time>2023-11-26T10:24:28Z</time>
      </trkpt>
      <trkpt lat="43.62298" lon="6.60471">
        <ele>751.1</ele>
        <time>2023-11-26T10:24:29Z</time>
      </trkpt>
      <trkpt lat="43.62299" lon="6.60472">
        <ele>751.2</ele>
        <time>2023-11-26T10:24:30Z</time>
      </trkpt>
      <trkpt lat="43.623" lon="6.60474">
        <ele>751.3</ele>
        <time>2023-11-26T10:24:31Z</time>
      </trkpt>
      <trkpt lat="43.62301" lon="6.60476">
        <ele>751.5</ele>
        <time>2023-11-26T10:24:32Z</time>
      </trkpt>
      <trkpt lat="43.62302" lon="6.60477">
        <ele>751.6</ele>
        <time>2023-11-26T10:24:33Z</time>
      </trkpt>
      <trkpt lat="43.62301" lon="6.6048">
        <ele>751.7</ele>
        <time>2023-11-26T10:24:34Z</time>
      </trkpt>
      <trkpt lat="43.62302" lon="6.60482">
        <ele>751.8</ele>
        <time>2023-11-26T10:24:35Z</time>
      </trkpt>
      <trkpt lat="43.62302" lon="6.60483">
        <ele>751.9</ele>
        <time>2023-11-26T10:24:36Z</time>
      </trkpt>
      <trkpt lat="43.62303" lon="6.60484">
        <ele>752</ele>
        <time>2023-11-26T10:24:37Z</time>
      </trkpt>
      <trkpt lat="43.62303" lon="6.60485">
        <ele>752</ele>
        <time>2023-11-26T10:24:38Z</time>
      </trkpt>
      <trkpt lat="43.62304" lon="6.60486">
        <ele>752.1</ele>
        <time>2023-11-26T10:24:39Z</time>
      </trkpt>
      <trkpt lat="43.62304" lon="6.60487">
        <ele>752.2</ele>
        <time>2023-11-26T10:24:40Z</time>
      </trkpt>
      <trkpt lat="43.62305" lon="6.60488">
        <ele>752.4</ele>
        <time>2023-11-26T10:24:41Z</time>
      </trkpt>
      <trkpt lat="43.62305" lon="6.60489">
        <ele>752.6</ele>
        <time>2023-11-26T10:24:42Z</time>
      </trkpt>
      <trkpt lat="43.62305" lon="6.60491">
        <ele>752.7</ele>
        <time>2023-11-26T10:24:43Z</time>
      </trkpt>
      <trkpt lat="43.62305" lon="6.60492">
        <ele>752.9</ele>
        <time>2023-11-26T10:24:44Z</time>
      </trkpt>
      <trkpt lat="43.62305" lon="6.60493">
        <ele>752.9</ele>
        <time>2023-11-26T10:24:45Z</time>
      </trkpt>
      <trkpt lat="43.62305" lon="6.60493">
        <ele>753</ele>
        <time>2023-11-26T10:24:46Z</time>
      </trkpt>
      <trkpt lat="43.62305" lon="6.60494">
        <ele>753.1</ele>
        <time>2023-11-26T10:24:47Z</time>
      </trkpt>
      <trkpt lat="43.62306" lon="6.60495">
        <ele>753.3</ele>
        <time>2023-11-26T10:24:48Z</time>
      </trkpt>
      <trkpt lat="43.62306" lon="6.60496">
        <ele>753.4</ele>
        <time>2023-11-26T10:24:49Z</time>
      </trkpt>
      <trkpt lat="43.62306" lon="6.60497">
        <ele>753.6</ele>
        <time>2023-11-26T10:24:50Z</time>
      </trkpt>
      <trkpt lat="43.62306" lon="6.60498">
        <ele>753.7</ele>
        <time>2023-11-26T10:24:51Z</time>
      </trkpt>
      <trkpt lat="43.62306" lon="6.60499">
        <ele>753.9</ele>
        <time>2023-11-26T10:24:52Z</time>
      </trkpt>
      <trkpt lat="43.62307" lon="6.60501">
        <ele>754.1</ele>
        <time>2023-11-26T10:24:53Z</time>
      </trkpt>
      <trkpt lat="43.62307" lon="6.60502">
        <ele>754.2</ele>
        <time>2023-11-26T10:24:54Z</time>
      </trkpt>
      <trkpt lat="43.62307" lon="6.60502">
        <ele>754.3</ele>
        <time>2023-11-26T10:24:55Z</time>
      </trkpt>
      <trkpt lat="43.62308" lon="6.60503">
        <ele>754.3</ele>
        <time>2023-11-26T10:24:56Z</time>
      </trkpt>
      <trkpt lat="43.62308" lon="6.60504">
        <ele>754.4</ele>
        <time>2023-11-26T10:24:57Z</time>
      </trkpt>
      <trkpt lat="43.62309" lon="6.60506">
        <ele>754.5</ele>
        <time>2023-11-26T10:24:58Z</time>
      </trkpt>
      <trkpt lat="43.62309" lon="6.60507">
        <ele>754.6</ele>
        <time>2023-11-26T10:24:59Z</time>
      </trkpt>
      <trkpt lat="43.62309" lon="6.60508">
        <ele>754.7</ele>
        <time>2023-11-26T10:25:00Z</time>
      </trkpt>
      <trkpt lat="43.6231" lon="6.60509">
        <ele>754.8</ele>
        <time>2023-11-26T10:25:01Z</time>
      </trkpt>
      <trkpt lat="43.62311" lon="6.6051">
        <ele>754.8</ele>
        <time>2023-11-26T10:25:02Z</time>
      </trkpt>
      <trkpt lat="43.62311" lon="6.60512">
        <ele>755.1</ele>
        <time>2023-11-26T10:25:03Z</time>
      </trkpt>
      <trkpt lat="43.62312" lon="6.60513">
        <ele>755.1</ele>
        <time>2023-11-26T10:25:04Z</time>
      </trkpt>
      <trkpt lat="43.62312" lon="6.60515">
        <ele>755.2</ele>
        <time>2023-11-26T10:25:05Z</time>
      </trkpt>
      <trkpt lat="43.62313" lon="6.60516">
        <ele>755.3</ele>
        <time>2023-11-26T10:25:06Z</time>
      </trkpt>
      <trkpt lat="43.62313" lon="6.60517">
        <ele>755.3</ele>
        <time>2023-11-26T10:25:07Z</time>
      </trkpt>
      <trkpt lat="43.62314" lon="6.60518">
        <ele>755.5</ele>
        <time>2023-11-26T10:25:08Z</time>
      </trkpt>
      <trkpt lat="43.62315" lon="6.6052">
        <ele>755.6</ele>
        <time>2023-11-26T10:25:09Z</time>
      </trkpt>
      <trkpt lat="43.62315" lon="6.60521">
        <ele>755.7</ele>
        <time>2023-11-26T10:25:10Z</time>
      </trkpt>
      <trkpt lat="43.62316" lon="6.60521">
        <ele>755.7</ele>
        <time>2023-11-26T10:25:11Z</time>
      </trkpt>
      <trkpt lat="43.62317" lon="6.60522">
        <ele>755.8</ele>
        <time>2023-11-26T10:25:12Z</time>
      </trkpt>
      <trkpt lat="43.62318" lon="6.60523">
        <ele>755.9</ele>
        <time>2023-11-26T10:25:13Z</time>
      </trkpt>
      <trkpt lat="43.62319" lon="6.60524">
        <ele>756</ele>
        <time>2023-11-26T10:25:14Z</time>
      </trkpt>
      <trkpt lat="43.62319" lon="6.60525">
        <ele>756.1</ele>
        <time>2023-11-26T10:25:15Z</time>
      </trkpt>
      <trkpt lat="43.6232" lon="6.60527">
        <ele>756.2</ele>
        <time>2023-11-26T10:25:16Z</time>
      </trkpt>
      <trkpt lat="43.6232" lon="6.60528">
        <ele>756.3</ele>
        <time>2023-11-26T10:25:17Z</time>
      </trkpt>
      <trkpt lat="43.6232" lon="6.60529">
        <ele>756.4</ele>
        <time>2023-11-26T10:25:18Z</time>
      </trkpt>
      <trkpt lat="43.62321" lon="6.60531">
        <ele>756.4</ele>
        <time>2023-11-26T10:25:19Z</time>
      </trkpt>
      <trkpt lat="43.62321" lon="6.60532">
        <ele>756.3</ele>
        <time>2023-11-26T10:25:20Z</time>
      </trkpt>
      <trkpt lat="43.62322" lon="6.60533">
        <ele>756.3</ele>
        <time>2023-11-26T10:25:21Z</time>
      </trkpt>
      <trkpt lat="43.62322" lon="6.60534">
        <ele>756.4</ele>
        <time>2023-11-26T10:25:22Z</time>
      </trkpt>
      <trkpt lat="43.62323" lon="6.60535">
        <ele>756.5</ele>
        <time>2023-11-26T10:25:23Z</time>
      </trkpt>
      <trkpt lat="43.62323" lon="6.60536">
        <ele>756.6</ele>
        <time>2023-11-26T10:25:24Z</time>
      </trkpt>
      <trkpt lat="43.62324" lon="6.60538">
        <ele>756.7</ele>
        <time>2023-11-26T10:25:25Z</time>
      </trkpt>
      <trkpt lat="43.62324" lon="6.60539">
        <ele>756.8</ele>
        <time>2023-11-26T10:25:26Z</time>
      </trkpt>
      <trkpt lat="43.62325" lon="6.6054">
        <ele>756.8</ele>
        <time>2023-11-26T10:25:27Z</time>
      </trkpt>
      <trkpt lat="43.62326" lon="6.60542">
        <ele>756.9</ele>
        <time>2023-11-26T10:25:28Z</time>
      </trkpt>
      <trkpt lat="43.62326" lon="6.60543">
        <ele>757</ele>
        <time>2023-11-26T10:25:29Z</time>
      </trkpt>
      <trkpt lat="43.62327" lon="6.60545">
        <ele>757.3</ele>
        <time>2023-11-26T10:25:30Z</time>
      </trkpt>
      <trkpt lat="43.62327" lon="6.60545">
        <ele>757.3</ele>
        <time>2023-11-26T10:25:31Z</time>
      </trkpt>
      <trkpt lat="43.62327" lon="6.60545">
        <ele>757.3</ele>
        <time>2023-11-26T10:25:32Z</time>
      </trkpt>
      <trkpt lat="43.62328" lon="6.60545">
        <ele>757.4</ele>
        <time>2023-11-26T10:25:33Z</time>
      </trkpt>
      <trkpt lat="43.62328" lon="6.60545">
        <ele>757.4</ele>
        <time>2023-11-26T10:25:34Z</time>
      </trkpt>
      <trkpt lat="43.62328" lon="6.60546">
        <ele>757.4</ele>
        <time>2023-11-26T10:25:35Z</time>
      </trkpt>
      <trkpt lat="43.62329" lon="6.60546">
        <ele>757.4</ele>
        <time>2023-11-26T10:25:36Z</time>
      </trkpt>
      <trkpt lat="43.62329" lon="6.60546">
        <ele>757.4</ele>
        <time>2023-11-26T10:25:37Z</time>
      </trkpt>
      <trkpt lat="43.62329" lon="6.60546">
        <ele>757.5</ele>
        <time>2023-11-26T10:25:38Z</time>
      </trkpt>
      <trkpt lat="43.62329" lon="6.60546">
        <ele>757.5</ele>
        <time>2023-11-26T10:25:39Z</time>
      </trkpt>
      <trkpt lat="43.62329" lon="6.60545">
        <ele>757.5</ele>
        <time>2023-11-26T10:25:40Z</time>
      </trkpt>
      <trkpt lat="43.6233" lon="6.60545">
        <ele>757.6</ele>
        <time>2023-11-26T10:25:41Z</time>
      </trkpt>
      <trkpt lat="43.6233" lon="6.60545">
        <ele>757.6</ele>
        <time>2023-11-26T10:25:42Z</time>
      </trkpt>
      <trkpt lat="43.6233" lon="6.60546">
        <ele>757.6</ele>
        <time>2023-11-26T10:25:43Z</time>
      </trkpt>
      <trkpt lat="43.62331" lon="6.60547">
        <ele>757.6</ele>
        <time>2023-11-26T10:25:44Z</time>
      </trkpt>
      <trkpt lat="43.62331" lon="6.60547">
        <ele>757.7</ele>
        <time>2023-11-26T10:25:45Z</time>
      </trkpt>
      <trkpt lat="43.62332" lon="6.60547">
        <ele>757.8</ele>
        <time>2023-11-26T10:25:46Z</time>
      </trkpt>
      <trkpt lat="43.62332" lon="6.60547">
        <ele>757.8</ele>
        <time>2023-11-26T10:25:47Z</time>
      </trkpt>
      <trkpt lat="43.62332" lon="6.60547">
        <ele>757.9</ele>
        <time>2023-11-26T10:25:48Z</time>
      </trkpt>
      <trkpt lat="43.62332" lon="6.60547">
        <ele>757.9</ele>
        <time>2023-11-26T10:25:49Z</time>
      </trkpt>
      <trkpt lat="43.62333" lon="6.60547">
        <ele>757.9</ele>
        <time>2023-11-26T10:25:50Z</time>
      </trkpt>
      <trkpt lat="43.62333" lon="6.60547">
        <ele>757.8</ele>
        <time>2023-11-26T10:25:51Z</time>
      </trkpt>
      <trkpt lat="43.62333" lon="6.60547">
        <ele>757.7</ele>
        <time>2023-11-26T10:25:52Z</time>
      </trkpt>
      <trkpt lat="43.62333" lon="6.60547">
        <ele>757.7</ele>
        <time>2023-11-26T10:25:53Z</time>
      </trkpt>
      <trkpt lat="43.62334" lon="6.60548">
        <ele>757.8</ele>
        <time>2023-11-26T10:25:54Z</time>
      </trkpt>
      <trkpt lat="43.62334" lon="6.60548">
        <ele>757.7</ele>
        <time>2023-11-26T10:25:55Z</time>
      </trkpt>
      <trkpt lat="43.62333" lon="6.60547">
        <ele>757.6</ele>
        <time>2023-11-26T10:25:56Z</time>
      </trkpt>
      <trkpt lat="43.62333" lon="6.60547">
        <ele>757.6</ele>
        <time>2023-11-26T10:25:57Z</time>
      </trkpt>
      <trkpt lat="43.62333" lon="6.60546">
        <ele>757.7</ele>
        <time>2023-11-26T10:25:58Z</time>
      </trkpt>
      <trkpt lat="43.62334" lon="6.60546">
        <ele>757.8</ele>
        <time>2023-11-26T10:25:59Z</time>
      </trkpt>
      <trkpt lat="43.62334" lon="6.60546">
        <ele>757.8</ele>
        <time>2023-11-26T10:26:00Z</time>
      </trkpt>
      <trkpt lat="43.62334" lon="6.60546">
        <ele>757.9</ele>
        <time>2023-11-26T10:26:01Z</time>
      </trkpt>
      <trkpt lat="43.62334" lon="6.60546">
        <ele>758.1</ele>
        <time>2023-11-26T10:26:02Z</time>
      </trkpt>
      <trkpt lat="43.62334" lon="6.60546">
        <ele>758.2</ele>
        <time>2023-11-26T10:26:03Z</time>
      </trkpt>
      <trkpt lat="43.62334" lon="6.60545">
        <ele>758.1</ele>
        <time>2023-11-26T10:26:04Z</time>
      </trkpt>
      <trkpt lat="43.62334" lon="6.60545">
        <ele>758.1</ele>
        <time>2023-11-26T10:26:05Z</time>
      </trkpt>
      <trkpt lat="43.62334" lon="6.60545">
        <ele>758</ele>
        <time>2023-11-26T10:26:06Z</time>
      </trkpt>
      <trkpt lat="43.62333" lon="6.60545">
        <ele>758</ele>
        <time>2023-11-26T10:26:07Z</time>
      </trkpt>
      <trkpt lat="43.62333" lon="6.60545">
        <ele>758.1</ele>
        <time>2023-11-26T10:26:08Z</time>
      </trkpt>
      <trkpt lat="43.62333" lon="6.60545">
        <ele>758.1</ele>
        <time>2023-11-26T10:26:09Z</time>
      </trkpt>
      <trkpt lat="43.62333" lon="6.60545">
        <ele>758.1</ele>
        <time>2023-11-26T10:26:10Z</time>
      </trkpt>
      <trkpt lat="43.62333" lon="6.60545">
        <ele>758.1</ele>
        <time>2023-11-26T10:26:11Z</time>
      </trkpt>
      <trkpt lat="43.62333" lon="6.60545">
        <ele>758</ele>
        <time>2023-11-26T10:26:12Z</time>
      </trkpt>
      <trkpt lat="43.62333" lon="6.60546">
        <ele>758</ele>
        <time>2023-11-26T10:26:13Z</time>
      </trkpt>
      <trkpt lat="43.62332" lon="6.60546">
        <ele>758.1</ele>
        <time>2023-11-26T10:26:14Z</time>
      </trkpt>
      <trkpt lat="43.62332" lon="6.60546">
        <ele>758.1</ele>
        <time>2023-11-26T10:26:15Z</time>
      </trkpt>
      <trkpt lat="43.62332" lon="6.60546">
        <ele>758.1</ele>
        <time>2023-11-26T10:26:16Z</time>
      </trkpt>
      <trkpt lat="43.62332" lon="6.60547">
        <ele>758.1</ele>
        <time>2023-11-26T10:26:17Z</time>
      </trkpt>
      <trkpt lat="43.62332" lon="6.60548">
        <ele>758.1</ele>
        <time>2023-11-26T10:26:18Z</time>
      </trkpt>
      <trkpt lat="43.62332" lon="6.60548">
        <ele>758</ele>
        <time>2023-11-26T10:26:19Z</time>
      </trkpt>
      <trkpt lat="43.62332" lon="6.60549">
        <ele>758</ele>
        <time>2023-11-26T10:26:20Z</time>
      </trkpt>
      <trkpt lat="43.62333" lon="6.6055">
        <ele>758.1</ele>
        <time>2023-11-26T10:26:21Z</time>
      </trkpt>
      <trkpt lat="43.62333" lon="6.60551">
        <ele>758</ele>
        <time>2023-11-26T10:26:22Z</time>
      </trkpt>
      <trkpt lat="43.62334" lon="6.60551">
        <ele>758.1</ele>
        <time>2023-11-26T10:26:23Z</time>
      </trkpt>
      <trkpt lat="43.62334" lon="6.60552">
        <ele>758.3</ele>
        <time>2023-11-26T10:26:24Z</time>
      </trkpt>
      <trkpt lat="43.62334" lon="6.60552">
        <ele>758.3</ele>
        <time>2023-11-26T10:26:25Z</time>
      </trkpt>
      <trkpt lat="43.62335" lon="6.60553">
        <ele>758.4</ele>
        <time>2023-11-26T10:26:26Z</time>
      </trkpt>
      <trkpt lat="43.62335" lon="6.60554">
        <ele>758.4</ele>
        <time>2023-11-26T10:26:27Z</time>
      </trkpt>
      <trkpt lat="43.62335" lon="6.60555">
        <ele>758.4</ele>
        <time>2023-11-26T10:26:28Z</time>
      </trkpt>
      <trkpt lat="43.62336" lon="6.60556">
        <ele>758.5</ele>
        <time>2023-11-26T10:26:29Z</time>
      </trkpt>
      <trkpt lat="43.62336" lon="6.60558">
        <ele>758.7</ele>
        <time>2023-11-26T10:26:30Z</time>
      </trkpt>
      <trkpt lat="43.62336" lon="6.60558">
        <ele>758.7</ele>
        <time>2023-11-26T10:26:31Z</time>
      </trkpt>
      <trkpt lat="43.62337" lon="6.60559">
        <ele>758.7</ele>
        <time>2023-11-26T10:26:32Z</time>
      </trkpt>
      <trkpt lat="43.62337" lon="6.6056">
        <ele>758.8</ele>
        <time>2023-11-26T10:26:33Z</time>
      </trkpt>
      <trkpt lat="43.62338" lon="6.6056">
        <ele>758.9</ele>
        <time>2023-11-26T10:26:34Z</time>
      </trkpt>
      <trkpt lat="43.62338" lon="6.6056">
        <ele>758.9</ele>
        <time>2023-11-26T10:26:35Z</time>
      </trkpt>
      <trkpt lat="43.62338" lon="6.6056">
        <ele>758.9</ele>
        <time>2023-11-26T10:26:36Z</time>
      </trkpt>
      <trkpt lat="43.62338" lon="6.60561">
        <ele>759</ele>
        <time>2023-11-26T10:26:37Z</time>
      </trkpt>
      <trkpt lat="43.62338" lon="6.60561">
        <ele>759.1</ele>
        <time>2023-11-26T10:26:38Z</time>
      </trkpt>
      <trkpt lat="43.62338" lon="6.60561">
        <ele>759.1</ele>
        <time>2023-11-26T10:26:39Z</time>
      </trkpt>
      <trkpt lat="43.62338" lon="6.60561">
        <ele>759.1</ele>
        <time>2023-11-26T10:26:40Z</time>
      </trkpt>
      <trkpt lat="43.62339" lon="6.60561">
        <ele>759.2</ele>
        <time>2023-11-26T10:26:41Z</time>
      </trkpt>
      <trkpt lat="43.6234" lon="6.60562">
        <ele>759.2</ele>
        <time>2023-11-26T10:26:42Z</time>
      </trkpt>
      <trkpt lat="43.6234" lon="6.60563">
        <ele>759.1</ele>
        <time>2023-11-26T10:26:43Z</time>
      </trkpt>
      <trkpt lat="43.62341" lon="6.60564">
        <ele>759.1</ele>
        <time>2023-11-26T10:26:44Z</time>
      </trkpt>
      <trkpt lat="43.62341" lon="6.60565">
        <ele>759.2</ele>
        <time>2023-11-26T10:26:45Z</time>
      </trkpt>
      <trkpt lat="43.62342" lon="6.60567">
        <ele>759.3</ele>
        <time>2023-11-26T10:26:46Z</time>
      </trkpt>
      <trkpt lat="43.62342" lon="6.60569">
        <ele>759.4</ele>
        <time>2023-11-26T10:26:47Z</time>
      </trkpt>
      <trkpt lat="43.62343" lon="6.60571">
        <ele>759.4</ele>
        <time>2023-11-26T10:26:48Z</time>
      </trkpt>
      <trkpt lat="43.62344" lon="6.60572">
        <ele>759.5</ele>
        <time>2023-11-26T10:26:49Z</time>
      </trkpt>
      <trkpt lat="43.62345" lon="6.60573">
        <ele>759.5</ele>
        <time>2023-11-26T10:26:50Z</time>
      </trkpt>
      <trkpt lat="43.62346" lon="6.60574">
        <ele>759.6</ele>
        <time>2023-11-26T10:26:51Z</time>
      </trkpt>
      <trkpt lat="43.62346" lon="6.60575">
        <ele>759.6</ele>
        <time>2023-11-26T10:26:52Z</time>
      </trkpt>
      <trkpt lat="43.62347" lon="6.60577">
        <ele>759.7</ele>
        <time>2023-11-26T10:26:53Z</time>
      </trkpt>
      <trkpt lat="43.62347" lon="6.60579">
        <ele>759.7</ele>
        <time>2023-11-26T10:26:54Z</time>
      </trkpt>
      <trkpt lat="43.62348" lon="6.6058">
        <ele>759.8</ele>
        <time>2023-11-26T10:26:55Z</time>
      </trkpt>
      <trkpt lat="43.62349" lon="6.60581">
        <ele>759.9</ele>
        <time>2023-11-26T10:26:56Z</time>
      </trkpt>
      <trkpt lat="43.62349" lon="6.60582">
        <ele>760</ele>
        <time>2023-11-26T10:26:57Z</time>
      </trkpt>
      <trkpt lat="43.62351" lon="6.60584">
        <ele>760.1</ele>
        <time>2023-11-26T10:26:58Z</time>
      </trkpt>
      <trkpt lat="43.62352" lon="6.60585">
        <ele>760.2</ele>
        <time>2023-11-26T10:26:59Z</time>
      </trkpt>
      <trkpt lat="43.62353" lon="6.60586">
        <ele>760.2</ele>
        <time>2023-11-26T10:27:00Z</time>
      </trkpt>
      <trkpt lat="43.62354" lon="6.60587">
        <ele>760.4</ele>
        <time>2023-11-26T10:27:01Z</time>
      </trkpt>
      <trkpt lat="43.62355" lon="6.60587">
        <ele>760.5</ele>
        <time>2023-11-26T10:27:02Z</time>
      </trkpt>
      <trkpt lat="43.62356" lon="6.60588">
        <ele>760.6</ele>
        <time>2023-11-26T10:27:03Z</time>
      </trkpt>
      <trkpt lat="43.62357" lon="6.60589">
        <ele>760.6</ele>
        <time>2023-11-26T10:27:04Z</time>
      </trkpt>
      <trkpt lat="43.62357" lon="6.60591">
        <ele>760.8</ele>
        <time>2023-11-26T10:27:05Z</time>
      </trkpt>
      <trkpt lat="43.62358" lon="6.60592">
        <ele>760.9</ele>
        <time>2023-11-26T10:27:06Z</time>
      </trkpt>
      <trkpt lat="43.62359" lon="6.60593">
        <ele>761.2</ele>
        <time>2023-11-26T10:27:07Z</time>
      </trkpt>
      <trkpt lat="43.6236" lon="6.60594">
        <ele>761.1</ele>
        <time>2023-11-26T10:27:08Z</time>
      </trkpt>
      <trkpt lat="43.6236" lon="6.60595">
        <ele>761.3</ele>
        <time>2023-11-26T10:27:09Z</time>
      </trkpt>
      <trkpt lat="43.6236" lon="6.60597">
        <ele>761.5</ele>
        <time>2023-11-26T10:27:10Z</time>
      </trkpt>
      <trkpt lat="43.6236" lon="6.60598">
        <ele>761.7</ele>
        <time>2023-11-26T10:27:11Z</time>
      </trkpt>
      <trkpt lat="43.62361" lon="6.606">
        <ele>761.9</ele>
        <time>2023-11-26T10:27:12Z</time>
      </trkpt>
      <trkpt lat="43.62362" lon="6.60601">
        <ele>761.9</ele>
        <time>2023-11-26T10:27:13Z</time>
      </trkpt>
      <trkpt lat="43.62363" lon="6.60602">
        <ele>761.9</ele>
        <time>2023-11-26T10:27:14Z</time>
      </trkpt>
      <trkpt lat="43.62363" lon="6.60604">
        <ele>762</ele>
        <time>2023-11-26T10:27:15Z</time>
      </trkpt>
      <trkpt lat="43.62364" lon="6.60605">
        <ele>762.3</ele>
        <time>2023-11-26T10:27:16Z</time>
      </trkpt>
      <trkpt lat="43.62364" lon="6.60607">
        <ele>762.4</ele>
        <time>2023-11-26T10:27:17Z</time>
      </trkpt>
      <trkpt lat="43.62365" lon="6.60609">
        <ele>762.6</ele>
        <time>2023-11-26T10:27:18Z</time>
      </trkpt>
      <trkpt lat="43.62366" lon="6.60611">
        <ele>762.7</ele>
        <time>2023-11-26T10:27:19Z</time>
      </trkpt>
      <trkpt lat="43.62366" lon="6.60612">
        <ele>762.7</ele>
        <time>2023-11-26T10:27:20Z</time>
      </trkpt>
      <trkpt lat="43.62366" lon="6.60615">
        <ele>762.7</ele>
        <time>2023-11-26T10:27:21Z</time>
      </trkpt>
      <trkpt lat="43.62367" lon="6.60616">
        <ele>762.8</ele>
        <time>2023-11-26T10:27:22Z</time>
      </trkpt>
      <trkpt lat="43.62367" lon="6.60617">
        <ele>762.8</ele>
        <time>2023-11-26T10:27:23Z</time>
      </trkpt>
      <trkpt lat="43.62367" lon="6.60619">
        <ele>763</ele>
        <time>2023-11-26T10:27:24Z</time>
      </trkpt>
      <trkpt lat="43.62368" lon="6.6062">
        <ele>763.1</ele>
        <time>2023-11-26T10:27:25Z</time>
      </trkpt>
      <trkpt lat="43.62369" lon="6.6062">
        <ele>763.2</ele>
        <time>2023-11-26T10:27:26Z</time>
      </trkpt>
      <trkpt lat="43.6237" lon="6.60621">
        <ele>763.3</ele>
        <time>2023-11-26T10:27:27Z</time>
      </trkpt>
      <trkpt lat="43.6237" lon="6.60622">
        <ele>763.3</ele>
        <time>2023-11-26T10:27:28Z</time>
      </trkpt>
      <trkpt lat="43.62371" lon="6.60623">
        <ele>763.3</ele>
        <time>2023-11-26T10:27:29Z</time>
      </trkpt>
      <trkpt lat="43.62371" lon="6.60624">
        <ele>763.3</ele>
        <time>2023-11-26T10:27:30Z</time>
      </trkpt>
      <trkpt lat="43.62372" lon="6.60625">
        <ele>763.5</ele>
        <time>2023-11-26T10:27:31Z</time>
      </trkpt>
      <trkpt lat="43.62372" lon="6.60626">
        <ele>763.6</ele>
        <time>2023-11-26T10:27:32Z</time>
      </trkpt>
      <trkpt lat="43.62372" lon="6.60628">
        <ele>763.8</ele>
        <time>2023-11-26T10:27:33Z</time>
      </trkpt>
      <trkpt lat="43.62373" lon="6.60629">
        <ele>763.9</ele>
        <time>2023-11-26T10:27:34Z</time>
      </trkpt>
      <trkpt lat="43.62373" lon="6.6063">
        <ele>764</ele>
        <time>2023-11-26T10:27:35Z</time>
      </trkpt>
      <trkpt lat="43.62374" lon="6.60632">
        <ele>764.1</ele>
        <time>2023-11-26T10:27:36Z</time>
      </trkpt>
      <trkpt lat="43.62374" lon="6.60633">
        <ele>764.3</ele>
        <time>2023-11-26T10:27:37Z</time>
      </trkpt>
      <trkpt lat="43.62375" lon="6.60633">
        <ele>764.4</ele>
        <time>2023-11-26T10:27:38Z</time>
      </trkpt>
      <trkpt lat="43.62375" lon="6.60635">
        <ele>764.5</ele>
        <time>2023-11-26T10:27:39Z</time>
      </trkpt>
      <trkpt lat="43.62374" lon="6.60637">
        <ele>764.7</ele>
        <time>2023-11-26T10:27:40Z</time>
      </trkpt>
      <trkpt lat="43.62374" lon="6.60639">
        <ele>764.8</ele>
        <time>2023-11-26T10:27:41Z</time>
      </trkpt>
      <trkpt lat="43.62375" lon="6.6064">
        <ele>764.9</ele>
        <time>2023-11-26T10:27:42Z</time>
      </trkpt>
      <trkpt lat="43.62375" lon="6.60642">
        <ele>765</ele>
        <time>2023-11-26T10:27:43Z</time>
      </trkpt>
      <trkpt lat="43.62376" lon="6.60643">
        <ele>765.1</ele>
        <time>2023-11-26T10:27:44Z</time>
      </trkpt>
      <trkpt lat="43.62376" lon="6.60644">
        <ele>765.2</ele>
        <time>2023-11-26T10:27:45Z</time>
      </trkpt>
      <trkpt lat="43.62376" lon="6.60645">
        <ele>765.3</ele>
        <time>2023-11-26T10:27:46Z</time>
      </trkpt>
      <trkpt lat="43.62376" lon="6.60646">
        <ele>765.4</ele>
        <time>2023-11-26T10:27:47Z</time>
      </trkpt>
      <trkpt lat="43.62376" lon="6.60648">
        <ele>765.5</ele>
        <time>2023-11-26T10:27:48Z</time>
      </trkpt>
      <trkpt lat="43.62377" lon="6.60648">
        <ele>765.6</ele>
        <time>2023-11-26T10:27:49Z</time>
      </trkpt>
      <trkpt lat="43.62377" lon="6.60649">
        <ele>765.8</ele>
        <time>2023-11-26T10:27:50Z</time>
      </trkpt>
      <trkpt lat="43.62377" lon="6.60649">
        <ele>766</ele>
        <time>2023-11-26T10:27:51Z</time>
      </trkpt>
      <trkpt lat="43.62377" lon="6.6065">
        <ele>766.2</ele>
        <time>2023-11-26T10:27:52Z</time>
      </trkpt>
      <trkpt lat="43.62377" lon="6.60651">
        <ele>766.3</ele>
        <time>2023-11-26T10:27:53Z</time>
      </trkpt>
      <trkpt lat="43.62377" lon="6.60652">
        <ele>766.4</ele>
        <time>2023-11-26T10:27:54Z</time>
      </trkpt>
      <trkpt lat="43.62378" lon="6.60653">
        <ele>766.5</ele>
        <time>2023-11-26T10:27:55Z</time>
      </trkpt>
      <trkpt lat="43.62377" lon="6.60655">
        <ele>766.6</ele>
        <time>2023-11-26T10:27:56Z</time>
      </trkpt>
      <trkpt lat="43.62377" lon="6.60657">
        <ele>766.8</ele>
        <time>2023-11-26T10:27:57Z</time>
      </trkpt>
      <trkpt lat="43.62377" lon="6.60658">
        <ele>766.9</ele>
        <time>2023-11-26T10:27:58Z</time>
      </trkpt>
      <trkpt lat="43.62377" lon="6.60659">
        <ele>766.9</ele>
        <time>2023-11-26T10:27:59Z</time>
      </trkpt>
      <trkpt lat="43.62377" lon="6.6066">
        <ele>767</ele>
        <time>2023-11-26T10:28:00Z</time>
      </trkpt>
      <trkpt lat="43.62377" lon="6.60661">
        <ele>767</ele>
        <time>2023-11-26T10:28:01Z</time>
      </trkpt>
      <trkpt lat="43.62376" lon="6.60662">
        <ele>767.1</ele>
        <time>2023-11-26T10:28:02Z</time>
      </trkpt>
      <trkpt lat="43.62376" lon="6.60664">
        <ele>767.3</ele>
        <time>2023-11-26T10:28:03Z</time>
      </trkpt>
      <trkpt lat="43.62377" lon="6.60665">
        <ele>767.4</ele>
        <time>2023-11-26T10:28:04Z</time>
      </trkpt>
      <trkpt lat="43.62377" lon="6.60666">
        <ele>767.5</ele>
        <time>2023-11-26T10:28:05Z</time>
      </trkpt>
      <trkpt lat="43.62377" lon="6.60668">
        <ele>767.6</ele>
        <time>2023-11-26T10:28:06Z</time>
      </trkpt>
      <trkpt lat="43.62377" lon="6.60669">
        <ele>767.6</ele>
        <time>2023-11-26T10:28:07Z</time>
      </trkpt>
      <trkpt lat="43.62377" lon="6.6067">
        <ele>767.7</ele>
        <time>2023-11-26T10:28:08Z</time>
      </trkpt>
      <trkpt lat="43.62377" lon="6.6067">
        <ele>767.8</ele>
        <time>2023-11-26T10:28:09Z</time>
      </trkpt>
      <trkpt lat="43.62377" lon="6.60672">
        <ele>767.9</ele>
        <time>2023-11-26T10:28:10Z</time>
      </trkpt>
      <trkpt lat="43.62377" lon="6.60673">
        <ele>768</ele>
        <time>2023-11-26T10:28:11Z</time>
      </trkpt>
      <trkpt lat="43.62376" lon="6.60675">
        <ele>768.2</ele>
        <time>2023-11-26T10:28:12Z</time>
      </trkpt>
      <trkpt lat="43.62376" lon="6.60676">
        <ele>768.3</ele>
        <time>2023-11-26T10:28:13Z</time>
      </trkpt>
      <trkpt lat="43.62376" lon="6.60677">
        <ele>768.4</ele>
        <time>2023-11-26T10:28:14Z</time>
      </trkpt>
      <trkpt lat="43.62376" lon="6.60678">
        <ele>768.6</ele>
        <time>2023-11-26T10:28:15Z</time>
      </trkpt>
      <trkpt lat="43.62376" lon="6.60678">
        <ele>768.8</ele>
        <time>2023-11-26T10:28:16Z</time>
      </trkpt>
      <trkpt lat="43.62375" lon="6.60678">
        <ele>769</ele>
        <time>2023-11-26T10:28:17Z</time>
      </trkpt>
      <trkpt lat="43.62375" lon="6.60679">
        <ele>769.1</ele>
        <time>2023-11-26T10:28:18Z</time>
      </trkpt>
      <trkpt lat="43.62374" lon="6.60679">
        <ele>769.2</ele>
        <time>2023-11-26T10:28:19Z</time>
      </trkpt>
      <trkpt lat="43.62374" lon="6.60679">
        <ele>769.4</ele>
        <time>2023-11-26T10:28:20Z</time>
      </trkpt>
      <trkpt lat="43.62374" lon="6.6068">
        <ele>769.5</ele>
        <time>2023-11-26T10:28:21Z</time>
      </trkpt>
      <trkpt lat="43.62373" lon="6.60681">
        <ele>769.6</ele>
        <time>2023-11-26T10:28:22Z</time>
      </trkpt>
      <trkpt lat="43.62372" lon="6.60682">
        <ele>769.7</ele>
        <time>2023-11-26T10:28:23Z</time>
      </trkpt>
      <trkpt lat="43.62372" lon="6.60683">
        <ele>769.9</ele>
        <time>2023-11-26T10:28:24Z</time>
      </trkpt>
      <trkpt lat="43.62371" lon="6.60683">
        <ele>770.2</ele>
        <time>2023-11-26T10:28:25Z</time>
      </trkpt>
      <trkpt lat="43.6237" lon="6.60684">
        <ele>770.3</ele>
        <time>2023-11-26T10:28:26Z</time>
      </trkpt>
      <trkpt lat="43.62369" lon="6.60684">
        <ele>770.5</ele>
        <time>2023-11-26T10:28:27Z</time>
      </trkpt>
      <trkpt lat="43.62368" lon="6.60685">
        <ele>770.7</ele>
        <time>2023-11-26T10:28:28Z</time>
      </trkpt>
      <trkpt lat="43.62368" lon="6.60686">
        <ele>770.9</ele>
        <time>2023-11-26T10:28:29Z</time>
      </trkpt>
      <trkpt lat="43.62367" lon="6.60686">
        <ele>771</ele>
        <time>2023-11-26T10:28:30Z</time>
      </trkpt>
      <trkpt lat="43.62366" lon="6.60686">
        <ele>771.2</ele>
        <time>2023-11-26T10:28:31Z</time>
      </trkpt>
      <trkpt lat="43.62365" lon="6.60686">
        <ele>771.4</ele>
        <time>2023-11-26T10:28:32Z</time>
      </trkpt>
      <trkpt lat="43.62365" lon="6.60686">
        <ele>771.6</ele>
        <time>2023-11-26T10:28:33Z</time>
      </trkpt>
      <trkpt lat="43.62365" lon="6.60686">
        <ele>771.7</ele>
        <time>2023-11-26T10:28:34Z</time>
      </trkpt>
      <trkpt lat="43.62365" lon="6.60686">
        <ele>771.9</ele>
        <time>2023-11-26T10:28:35Z</time>
      </trkpt>
      <trkpt lat="43.62365" lon="6.60687">
        <ele>772</ele>
        <time>2023-11-26T10:28:36Z</time>
      </trkpt>
      <trkpt lat="43.62364" lon="6.60686">
        <ele>772.1</ele>
        <time>2023-11-26T10:28:37Z</time>
      </trkpt>
      <trkpt lat="43.62364" lon="6.60687">
        <ele>772.4</ele>
        <time>2023-11-26T10:28:38Z</time>
      </trkpt>
      <trkpt lat="43.62364" lon="6.60687">
        <ele>772.6</ele>
        <time>2023-11-26T10:28:39Z</time>
      </trkpt>
      <trkpt lat="43.62364" lon="6.60687">
        <ele>772.7</ele>
        <time>2023-11-26T10:28:40Z</time>
      </trkpt>
      <trkpt lat="43.62364" lon="6.60687">
        <ele>772.9</ele>
        <time>2023-11-26T10:28:41Z</time>
      </trkpt>
      <trkpt lat="43.62363" lon="6.60687">
        <ele>773.1</ele>
        <time>2023-11-26T10:28:42Z</time>
      </trkpt>
      <trkpt lat="43.62363" lon="6.60687">
        <ele>773.2</ele>
        <time>2023-11-26T10:28:43Z</time>
      </trkpt>
      <trkpt lat="43.62363" lon="6.60687">
        <ele>773.4</ele>
        <time>2023-11-26T10:28:44Z</time>
      </trkpt>
      <trkpt lat="43.62362" lon="6.60688">
        <ele>773.6</ele>
        <time>2023-11-26T10:28:45Z</time>
      </trkpt>
      <trkpt lat="43.62362" lon="6.60688">
        <ele>773.7</ele>
        <time>2023-11-26T10:28:46Z</time>
      </trkpt>
      <trkpt lat="43.62361" lon="6.60688">
        <ele>773.8</ele>
        <time>2023-11-26T10:28:47Z</time>
      </trkpt>
      <trkpt lat="43.6236" lon="6.60687">
        <ele>774</ele>
        <time>2023-11-26T10:28:48Z</time>
      </trkpt>
      <trkpt lat="43.6236" lon="6.60688">
        <ele>774.1</ele>
        <time>2023-11-26T10:28:49Z</time>
      </trkpt>
      <trkpt lat="43.62359" lon="6.60688">
        <ele>774.2</ele>
        <time>2023-11-26T10:28:50Z</time>
      </trkpt>
      <trkpt lat="43.62359" lon="6.60688">
        <ele>774.3</ele>
        <time>2023-11-26T10:28:51Z</time>
      </trkpt>
      <trkpt lat="43.62359" lon="6.60688">
        <ele>774.4</ele>
        <time>2023-11-26T10:28:52Z</time>
      </trkpt>
      <trkpt lat="43.62358" lon="6.60688">
        <ele>774.4</ele>
        <time>2023-11-26T10:28:53Z</time>
      </trkpt>
      <trkpt lat="43.62358" lon="6.60689">
        <ele>774.4</ele>
        <time>2023-11-26T10:28:54Z</time>
      </trkpt>
      <trkpt lat="43.62358" lon="6.60689">
        <ele>774.4</ele>
        <time>2023-11-26T10:28:55Z</time>
      </trkpt>
      <trkpt lat="43.62358" lon="6.60689">
        <ele>774.6</ele>
        <time>2023-11-26T10:28:56Z</time>
      </trkpt>
      <trkpt lat="43.62358" lon="6.60689">
        <ele>774.7</ele>
        <time>2023-11-26T10:28:57Z</time>
      </trkpt>
      <trkpt lat="43.62357" lon="6.60689">
        <ele>774.6</ele>
        <time>2023-11-26T10:28:58Z</time>
      </trkpt>
      <trkpt lat="43.62357" lon="6.60689">
        <ele>774.7</ele>
        <time>2023-11-26T10:28:59Z</time>
      </trkpt>
      <trkpt lat="43.62357" lon="6.60689">
        <ele>774.9</ele>
        <time>2023-11-26T10:29:00Z</time>
      </trkpt>
      <trkpt lat="43.62357" lon="6.60689">
        <ele>775.1</ele>
        <time>2023-11-26T10:29:01Z</time>
      </trkpt>
      <trkpt lat="43.62357" lon="6.60689">
        <ele>775.1</ele>
        <time>2023-11-26T10:29:02Z</time>
      </trkpt>
      <trkpt lat="43.62357" lon="6.60689">
        <ele>775.2</ele>
        <time>2023-11-26T10:29:03Z</time>
      </trkpt>
      <trkpt lat="43.62357" lon="6.60689">
        <ele>775.2</ele>
        <time>2023-11-26T10:29:04Z</time>
      </trkpt>
      <trkpt lat="43.62356" lon="6.60689">
        <ele>775.2</ele>
        <time>2023-11-26T10:29:05Z</time>
      </trkpt>
      <trkpt lat="43.62356" lon="6.60689">
        <ele>775.2</ele>
        <time>2023-11-26T10:29:06Z</time>
      </trkpt>
      <trkpt lat="43.62355" lon="6.6069">
        <ele>775.2</ele>
        <time>2023-11-26T10:29:07Z</time>
      </trkpt>
      <trkpt lat="43.62355" lon="6.6069">
        <ele>775.3</ele>
        <time>2023-11-26T10:29:08Z</time>
      </trkpt>
      <trkpt lat="43.62354" lon="6.6069">
        <ele>775.4</ele>
        <time>2023-11-26T10:29:09Z</time>
      </trkpt>
      <trkpt lat="43.62354" lon="6.60691">
        <ele>775.4</ele>
        <time>2023-11-26T10:29:10Z</time>
      </trkpt>
      <trkpt lat="43.62354" lon="6.60691">
        <ele>775.4</ele>
        <time>2023-11-26T10:29:11Z</time>
      </trkpt>
      <trkpt lat="43.62353" lon="6.60692">
        <ele>775.4</ele>
        <time>2023-11-26T10:29:12Z</time>
      </trkpt>
      <trkpt lat="43.62353" lon="6.60693">
        <ele>775.4</ele>
        <time>2023-11-26T10:29:13Z</time>
      </trkpt>
      <trkpt lat="43.62352" lon="6.60693">
        <ele>775.4</ele>
        <time>2023-11-26T10:29:14Z</time>
      </trkpt>
      <trkpt lat="43.62352" lon="6.60694">
        <ele>775.4</ele>
        <time>2023-11-26T10:29:15Z</time>
      </trkpt>
      <trkpt lat="43.62352" lon="6.60694">
        <ele>775.4</ele>
        <time>2023-11-26T10:29:16Z</time>
      </trkpt>
      <trkpt lat="43.62352" lon="6.60695">
        <ele>775.4</ele>
        <time>2023-11-26T10:29:17Z</time>
      </trkpt>
      <trkpt lat="43.62353" lon="6.60696">
        <ele>775.6</ele>
        <time>2023-11-26T10:29:18Z</time>
      </trkpt>
      <trkpt lat="43.62353" lon="6.60696">
        <ele>775.6</ele>
        <time>2023-11-26T10:29:19Z</time>
      </trkpt>
      <trkpt lat="43.62353" lon="6.60696">
        <ele>775.6</ele>
        <time>2023-11-26T10:29:20Z</time>
      </trkpt>
      <trkpt lat="43.62354" lon="6.60697">
        <ele>775.7</ele>
        <time>2023-11-26T10:29:21Z</time>
      </trkpt>
      <trkpt lat="43.62353" lon="6.60697">
        <ele>775.6</ele>
        <time>2023-11-26T10:29:22Z</time>
      </trkpt>
      <trkpt lat="43.62354" lon="6.60698">
        <ele>775.6</ele>
        <time>2023-11-26T10:29:23Z</time>
      </trkpt>
      <trkpt lat="43.62354" lon="6.60698">
        <ele>775.6</ele>
        <time>2023-11-26T10:29:24Z</time>
      </trkpt>
      <trkpt lat="43.62354" lon="6.60698">
        <ele>775.6</ele>
        <time>2023-11-26T10:29:25Z</time>
      </trkpt>
      <trkpt lat="43.62354" lon="6.60699">
        <ele>775.5</ele>
        <time>2023-11-26T10:29:26Z</time>
      </trkpt>
      <trkpt lat="43.62354" lon="6.60699">
        <ele>775.5</ele>
        <time>2023-11-26T10:29:27Z</time>
      </trkpt>
      <trkpt lat="43.62354" lon="6.60699">
        <ele>775.4</ele>
        <time>2023-11-26T10:29:28Z</time>
      </trkpt>
      <trkpt lat="43.62354" lon="6.60699">
        <ele>775.3</ele>
        <time>2023-11-26T10:29:29Z</time>
      </trkpt>
      <trkpt lat="43.62354" lon="6.60699">
        <ele>775.3</ele>
        <time>2023-11-26T10:29:30Z</time>
      </trkpt>
      <trkpt lat="43.62354" lon="6.60699">
        <ele>775.3</ele>
        <time>2023-11-26T10:29:31Z</time>
      </trkpt>
      <trkpt lat="43.62354" lon="6.60699">
        <ele>775.4</ele>
        <time>2023-11-26T10:29:32Z</time>
      </trkpt>
      <trkpt lat="43.62354" lon="6.607">
        <ele>775.5</ele>
        <time>2023-11-26T10:29:33Z</time>
      </trkpt>
      <trkpt lat="43.62355" lon="6.607">
        <ele>775.7</ele>
        <time>2023-11-26T10:29:34Z</time>
      </trkpt>
      <trkpt lat="43.62354" lon="6.607">
        <ele>775.8</ele>
        <time>2023-11-26T10:29:35Z</time>
      </trkpt>
      <trkpt lat="43.62354" lon="6.607">
        <ele>775.8</ele>
        <time>2023-11-26T10:29:36Z</time>
      </trkpt>
      <trkpt lat="43.62354" lon="6.607">
        <ele>775.7</ele>
        <time>2023-11-26T10:29:37Z</time>
      </trkpt>
      <trkpt lat="43.62354" lon="6.60701">
        <ele>775.7</ele>
        <time>2023-11-26T10:29:38Z</time>
      </trkpt>
      <trkpt lat="43.62354" lon="6.60701">
        <ele>775.7</ele>
        <time>2023-11-26T10:29:39Z</time>
      </trkpt>
      <trkpt lat="43.62354" lon="6.60701">
        <ele>775.7</ele>
        <time>2023-11-26T10:29:40Z</time>
      </trkpt>
      <trkpt lat="43.62354" lon="6.60702">
        <ele>775.7</ele>
        <time>2023-11-26T10:29:41Z</time>
      </trkpt>
      <trkpt lat="43.62354" lon="6.60701">
        <ele>775.8</ele>
        <time>2023-11-26T10:29:42Z</time>
      </trkpt>
      <trkpt lat="43.62354" lon="6.60701">
        <ele>775.9</ele>
        <time>2023-11-26T10:29:43Z</time>
      </trkpt>
      <trkpt lat="43.62354" lon="6.60701">
        <ele>775.9</ele>
        <time>2023-11-26T10:29:44Z</time>
      </trkpt>
      <trkpt lat="43.62353" lon="6.60702">
        <ele>776</ele>
        <time>2023-11-26T10:29:45Z</time>
      </trkpt>
      <trkpt lat="43.62353" lon="6.60702">
        <ele>776.1</ele>
        <time>2023-11-26T10:29:46Z</time>
      </trkpt>
      <trkpt lat="43.62352" lon="6.60703">
        <ele>776.2</ele>
        <time>2023-11-26T10:29:47Z</time>
      </trkpt>
      <trkpt lat="43.62352" lon="6.60704">
        <ele>776.3</ele>
        <time>2023-11-26T10:29:48Z</time>
      </trkpt>
      <trkpt lat="43.62352" lon="6.60705">
        <ele>776.4</ele>
        <time>2023-11-26T10:29:49Z</time>
      </trkpt>
      <trkpt lat="43.62352" lon="6.60706">
        <ele>776.6</ele>
        <time>2023-11-26T10:29:50Z</time>
      </trkpt>
      <trkpt lat="43.62351" lon="6.60706">
        <ele>776.7</ele>
        <time>2023-11-26T10:29:51Z</time>
      </trkpt>
      <trkpt lat="43.62352" lon="6.60707">
        <ele>776.8</ele>
        <time>2023-11-26T10:29:52Z</time>
      </trkpt>
      <trkpt lat="43.62352" lon="6.60708">
        <ele>777</ele>
        <time>2023-11-26T10:29:53Z</time>
      </trkpt>
      <trkpt lat="43.62352" lon="6.60709">
        <ele>777.3</ele>
        <time>2023-11-26T10:29:54Z</time>
      </trkpt>
      <trkpt lat="43.62352" lon="6.60709">
        <ele>777.5</ele>
        <time>2023-11-26T10:29:55Z</time>
      </trkpt>
      <trkpt lat="43.62352" lon="6.6071">
        <ele>777.5</ele>
        <time>2023-11-26T10:29:56Z</time>
      </trkpt>
      <trkpt lat="43.62353" lon="6.60711">
        <ele>777.7</ele>
        <time>2023-11-26T10:29:57Z</time>
      </trkpt>
      <trkpt lat="43.62353" lon="6.60711">
        <ele>777.8</ele>
        <time>2023-11-26T10:29:58Z</time>
      </trkpt>
      <trkpt lat="43.62354" lon="6.60712">
        <ele>777.9</ele>
        <time>2023-11-26T10:29:59Z</time>
      </trkpt>
      <trkpt lat="43.62354" lon="6.60712">
        <ele>778.2</ele>
        <time>2023-11-26T10:30:00Z</time>
      </trkpt>
      <trkpt lat="43.62354" lon="6.60712">
        <ele>778.3</ele>
        <time>2023-11-26T10:30:01Z</time>
      </trkpt>
      <trkpt lat="43.62354" lon="6.60712">
        <ele>778.5</ele>
        <time>2023-11-26T10:30:02Z</time>
      </trkpt>
      <trkpt lat="43.62355" lon="6.60712">
        <ele>778.5</ele>
        <time>2023-11-26T10:30:03Z</time>
      </trkpt>
      <trkpt lat="43.62355" lon="6.60712">
        <ele>778.6</ele>
        <time>2023-11-26T10:30:04Z</time>
      </trkpt>
      <trkpt lat="43.62355" lon="6.60713">
        <ele>778.8</ele>
        <time>2023-11-26T10:30:05Z</time>
      </trkpt>
      <trkpt lat="43.62356" lon="6.60714">
        <ele>778.9</ele>
        <time>2023-11-26T10:30:06Z</time>
      </trkpt>
      <trkpt lat="43.62357" lon="6.60714">
        <ele>779</ele>
        <time>2023-11-26T10:30:07Z</time>
      </trkpt>
      <trkpt lat="43.62357" lon="6.60715">
        <ele>779.2</ele>
        <time>2023-11-26T10:30:08Z</time>
      </trkpt>
      <trkpt lat="43.62357" lon="6.60716">
        <ele>779.3</ele>
        <time>2023-11-26T10:30:09Z</time>
      </trkpt>
      <trkpt lat="43.62358" lon="6.60716">
        <ele>779.5</ele>
        <time>2023-11-26T10:30:10Z</time>
      </trkpt>
      <trkpt lat="43.62358" lon="6.60717">
        <ele>779.8</ele>
        <time>2023-11-26T10:30:11Z</time>
      </trkpt>
      <trkpt lat="43.62358" lon="6.60717">
        <ele>780</ele>
        <time>2023-11-26T10:30:12Z</time>
      </trkpt>
      <trkpt lat="43.62357" lon="6.60718">
        <ele>780.2</ele>
        <time>2023-11-26T10:30:13Z</time>
      </trkpt>
      <trkpt lat="43.62358" lon="6.60718">
        <ele>780.4</ele>
        <time>2023-11-26T10:30:14Z</time>
      </trkpt>
      <trkpt lat="43.62358" lon="6.60719">
        <ele>780.6</ele>
        <time>2023-11-26T10:30:15Z</time>
      </trkpt>
      <trkpt lat="43.62359" lon="6.6072">
        <ele>780.8</ele>
        <time>2023-11-26T10:30:16Z</time>
      </trkpt>
      <trkpt lat="43.6236" lon="6.60721">
        <ele>781</ele>
        <time>2023-11-26T10:30:17Z</time>
      </trkpt>
      <trkpt lat="43.62361" lon="6.60722">
        <ele>780.9</ele>
        <time>2023-11-26T10:30:18Z</time>
      </trkpt>
      <trkpt lat="43.62361" lon="6.60722">
        <ele>781.1</ele>
        <time>2023-11-26T10:30:19Z</time>
      </trkpt>
      <trkpt lat="43.62361" lon="6.60723">
        <ele>781.3</ele>
        <time>2023-11-26T10:30:20Z</time>
      </trkpt>
      <trkpt lat="43.62362" lon="6.60724">
        <ele>781.4</ele>
        <time>2023-11-26T10:30:21Z</time>
      </trkpt>
      <trkpt lat="43.62363" lon="6.60725">
        <ele>781.5</ele>
        <time>2023-11-26T10:30:22Z</time>
      </trkpt>
      <trkpt lat="43.62363" lon="6.60725">
        <ele>781.7</ele>
        <time>2023-11-26T10:30:23Z</time>
      </trkpt>
      <trkpt lat="43.62364" lon="6.60726">
        <ele>781.8</ele>
        <time>2023-11-26T10:30:24Z</time>
      </trkpt>
      <trkpt lat="43.62365" lon="6.60727">
        <ele>781.9</ele>
        <time>2023-11-26T10:30:25Z</time>
      </trkpt>
      <trkpt lat="43.62366" lon="6.60727">
        <ele>782.1</ele>
        <time>2023-11-26T10:30:26Z</time>
      </trkpt>
      <trkpt lat="43.62366" lon="6.60728">
        <ele>782.1</ele>
        <time>2023-11-26T10:30:27Z</time>
      </trkpt>
      <trkpt lat="43.62367" lon="6.60729">
        <ele>782.2</ele>
        <time>2023-11-26T10:30:28Z</time>
      </trkpt>
      <trkpt lat="43.62367" lon="6.60729">
        <ele>782.3</ele>
        <time>2023-11-26T10:30:29Z</time>
      </trkpt>
      <trkpt lat="43.62367" lon="6.6073">
        <ele>782.3</ele>
        <time>2023-11-26T10:30:30Z</time>
      </trkpt>
      <trkpt lat="43.62368" lon="6.6073">
        <ele>782.3</ele>
        <time>2023-11-26T10:30:31Z</time>
      </trkpt>
      <trkpt lat="43.62369" lon="6.60731">
        <ele>782.4</ele>
        <time>2023-11-26T10:30:32Z</time>
      </trkpt>
      <trkpt lat="43.62369" lon="6.60732">
        <ele>782.5</ele>
        <time>2023-11-26T10:30:33Z</time>
      </trkpt>
      <trkpt lat="43.62369" lon="6.60733">
        <ele>782.6</ele>
        <time>2023-11-26T10:30:34Z</time>
      </trkpt>
      <trkpt lat="43.62369" lon="6.60734">
        <ele>782.7</ele>
        <time>2023-11-26T10:30:35Z</time>
      </trkpt>
      <trkpt lat="43.62369" lon="6.60734">
        <ele>782.8</ele>
        <time>2023-11-26T10:30:36Z</time>
      </trkpt>
      <trkpt lat="43.6237" lon="6.60735">
        <ele>782.8</ele>
        <time>2023-11-26T10:30:37Z</time>
      </trkpt>
      <trkpt lat="43.6237" lon="6.60736">
        <ele>782.9</ele>
        <time>2023-11-26T10:30:38Z</time>
      </trkpt>
      <trkpt lat="43.6237" lon="6.60737">
        <ele>783</ele>
        <time>2023-11-26T10:30:39Z</time>
      </trkpt>
      <trkpt lat="43.62371" lon="6.60738">
        <ele>783</ele>
        <time>2023-11-26T10:30:40Z</time>
      </trkpt>
      <trkpt lat="43.62371" lon="6.60739">
        <ele>783.1</ele>
        <time>2023-11-26T10:30:41Z</time>
      </trkpt>
      <trkpt lat="43.62371" lon="6.6074">
        <ele>783.2</ele>
        <time>2023-11-26T10:30:42Z</time>
      </trkpt>
      <trkpt lat="43.62371" lon="6.60741">
        <ele>783.3</ele>
        <time>2023-11-26T10:30:43Z</time>
      </trkpt>
      <trkpt lat="43.62371" lon="6.60742">
        <ele>783.3</ele>
        <time>2023-11-26T10:30:44Z</time>
      </trkpt>
      <trkpt lat="43.62372" lon="6.60743">
        <ele>783.4</ele>
        <time>2023-11-26T10:30:45Z</time>
      </trkpt>
      <trkpt lat="43.62372" lon="6.60744">
        <ele>783.5</ele>
        <time>2023-11-26T10:30:46Z</time>
      </trkpt>
      <trkpt lat="43.62372" lon="6.60745">
        <ele>783.5</ele>
        <time>2023-11-26T10:30:47Z</time>
      </trkpt>
      <trkpt lat="43.62372" lon="6.60745">
        <ele>783.6</ele>
        <time>2023-11-26T10:30:48Z</time>
      </trkpt>
      <trkpt lat="43.62372" lon="6.60746">
        <ele>783.7</ele>
        <time>2023-11-26T10:30:49Z</time>
      </trkpt>
      <trkpt lat="43.62372" lon="6.60746">
        <ele>783.8</ele>
        <time>2023-11-26T10:30:50Z</time>
      </trkpt>
      <trkpt lat="43.62372" lon="6.60747">
        <ele>783.9</ele>
        <time>2023-11-26T10:30:51Z</time>
      </trkpt>
      <trkpt lat="43.62372" lon="6.60747">
        <ele>784.1</ele>
        <time>2023-11-26T10:30:52Z</time>
      </trkpt>
      <trkpt lat="43.62372" lon="6.60747">
        <ele>784.3</ele>
        <time>2023-11-26T10:30:53Z</time>
      </trkpt>
      <trkpt lat="43.62372" lon="6.60748">
        <ele>784.4</ele>
        <time>2023-11-26T10:30:54Z</time>
      </trkpt>
      <trkpt lat="43.62372" lon="6.60749">
        <ele>784.6</ele>
        <time>2023-11-26T10:30:55Z</time>
      </trkpt>
      <trkpt lat="43.62372" lon="6.60749">
        <ele>784.7</ele>
        <time>2023-11-26T10:30:56Z</time>
      </trkpt>
      <trkpt lat="43.62372" lon="6.6075">
        <ele>784.8</ele>
        <time>2023-11-26T10:30:57Z</time>
      </trkpt>
      <trkpt lat="43.62372" lon="6.60751">
        <ele>785</ele>
        <time>2023-11-26T10:30:58Z</time>
      </trkpt>
      <trkpt lat="43.62373" lon="6.60751">
        <ele>785.1</ele>
        <time>2023-11-26T10:30:59Z</time>
      </trkpt>
      <trkpt lat="43.62373" lon="6.60752">
        <ele>785.2</ele>
        <time>2023-11-26T10:31:00Z</time>
      </trkpt>
      <trkpt lat="43.62373" lon="6.60752">
        <ele>785.4</ele>
        <time>2023-11-26T10:31:01Z</time>
      </trkpt>
      <trkpt lat="43.62373" lon="6.60752">
        <ele>785.5</ele>
        <time>2023-11-26T10:31:02Z</time>
      </trkpt>
      <trkpt lat="43.62373" lon="6.60752">
        <ele>785.5</ele>
        <time>2023-11-26T10:31:03Z</time>
      </trkpt>
      <trkpt lat="43.62373" lon="6.60752">
        <ele>785.4</ele>
        <time>2023-11-26T10:31:04Z</time>
      </trkpt>
      <trkpt lat="43.62373" lon="6.60752">
        <ele>785.3</ele>
        <time>2023-11-26T10:31:05Z</time>
      </trkpt>
      <trkpt lat="43.62373" lon="6.60753">
        <ele>785.2</ele>
        <time>2023-11-26T10:31:06Z</time>
      </trkpt>
      <trkpt lat="43.62373" lon="6.60753">
        <ele>785.2</ele>
        <time>2023-11-26T10:31:07Z</time>
      </trkpt>
      <trkpt lat="43.62373" lon="6.60753">
        <ele>785.4</ele>
        <time>2023-11-26T10:31:08Z</time>
      </trkpt>
      <trkpt lat="43.62373" lon="6.60753">
        <ele>785.5</ele>
        <time>2023-11-26T10:31:09Z</time>
      </trkpt>
      <trkpt lat="43.62373" lon="6.60753">
        <ele>785.6</ele>
        <time>2023-11-26T10:31:10Z</time>
      </trkpt>
      <trkpt lat="43.62373" lon="6.60754">
        <ele>785.7</ele>
        <time>2023-11-26T10:31:11Z</time>
      </trkpt>
      <trkpt lat="43.62372" lon="6.60754">
        <ele>785.8</ele>
        <time>2023-11-26T10:31:12Z</time>
      </trkpt>
      <trkpt lat="43.62372" lon="6.60754">
        <ele>785.9</ele>
        <time>2023-11-26T10:31:13Z</time>
      </trkpt>
      <trkpt lat="43.62371" lon="6.60754">
        <ele>786.1</ele>
        <time>2023-11-26T10:31:14Z</time>
      </trkpt>
      <trkpt lat="43.62372" lon="6.60753">
        <ele>786.2</ele>
        <time>2023-11-26T10:31:15Z</time>
      </trkpt>
      <trkpt lat="43.62372" lon="6.60753">
        <ele>786.3</ele>
        <time>2023-11-26T10:31:16Z</time>
      </trkpt>
      <trkpt lat="43.62372" lon="6.60753">
        <ele>786.3</ele>
        <time>2023-11-26T10:31:17Z</time>
      </trkpt>
      <trkpt lat="43.62372" lon="6.60753">
        <ele>786.3</ele>
        <time>2023-11-26T10:31:18Z</time>
      </trkpt>
      <trkpt lat="43.62371" lon="6.60753">
        <ele>786.4</ele>
        <time>2023-11-26T10:31:19Z</time>
      </trkpt>
      <trkpt lat="43.62371" lon="6.60753">
        <ele>786.5</ele>
        <time>2023-11-26T10:31:20Z</time>
      </trkpt>
      <trkpt lat="43.62371" lon="6.60754">
        <ele>786.6</ele>
        <time>2023-11-26T10:31:21Z</time>
      </trkpt>
      <trkpt lat="43.62371" lon="6.60754">
        <ele>786.7</ele>
        <time>2023-11-26T10:31:22Z</time>
      </trkpt>
      <trkpt lat="43.6237" lon="6.60754">
        <ele>786.8</ele>
        <time>2023-11-26T10:31:23Z</time>
      </trkpt>
      <trkpt lat="43.6237" lon="6.60755">
        <ele>787</ele>
        <time>2023-11-26T10:31:24Z</time>
      </trkpt>
      <trkpt lat="43.6237" lon="6.60756">
        <ele>787.1</ele>
        <time>2023-11-26T10:31:25Z</time>
      </trkpt>
      <trkpt lat="43.6237" lon="6.60757">
        <ele>787.3</ele>
        <time>2023-11-26T10:31:26Z</time>
      </trkpt>
      <trkpt lat="43.62371" lon="6.60758">
        <ele>787.4</ele>
        <time>2023-11-26T10:31:27Z</time>
      </trkpt>
      <trkpt lat="43.62371" lon="6.60759">
        <ele>787.5</ele>
        <time>2023-11-26T10:31:28Z</time>
      </trkpt>
      <trkpt lat="43.62371" lon="6.60759">
        <ele>787.7</ele>
        <time>2023-11-26T10:31:29Z</time>
      </trkpt>
      <trkpt lat="43.62371" lon="6.6076">
        <ele>787.8</ele>
        <time>2023-11-26T10:31:30Z</time>
      </trkpt>
      <trkpt lat="43.6237" lon="6.6076">
        <ele>787.9</ele>
        <time>2023-11-26T10:31:31Z</time>
      </trkpt>
      <trkpt lat="43.6237" lon="6.60761">
        <ele>788</ele>
        <time>2023-11-26T10:31:32Z</time>
      </trkpt>
      <trkpt lat="43.62371" lon="6.60761">
        <ele>788.1</ele>
        <time>2023-11-26T10:31:33Z</time>
      </trkpt>
      <trkpt lat="43.62371" lon="6.60762">
        <ele>788.2</ele>
        <time>2023-11-26T10:31:34Z</time>
      </trkpt>
      <trkpt lat="43.62371" lon="6.60763">
        <ele>788.3</ele>
        <time>2023-11-26T10:31:35Z</time>
      </trkpt>
      <trkpt lat="43.62372" lon="6.60763">
        <ele>788.3</ele>
        <time>2023-11-26T10:31:36Z</time>
      </trkpt>
      <trkpt lat="43.62372" lon="6.60763">
        <ele>788.2</ele>
        <time>2023-11-26T10:31:37Z</time>
      </trkpt>
      <trkpt lat="43.62372" lon="6.60764">
        <ele>788.2</ele>
        <time>2023-11-26T10:31:38Z</time>
      </trkpt>
      <trkpt lat="43.62372" lon="6.60764">
        <ele>788.2</ele>
        <time>2023-11-26T10:31:39Z</time>
      </trkpt>
      <trkpt lat="43.62372" lon="6.60765">
        <ele>788.2</ele>
        <time>2023-11-26T10:31:40Z</time>
      </trkpt>
      <trkpt lat="43.62372" lon="6.60765">
        <ele>788.2</ele>
        <time>2023-11-26T10:31:41Z</time>
      </trkpt>
      <trkpt lat="43.62372" lon="6.60766">
        <ele>788.2</ele>
        <time>2023-11-26T10:31:42Z</time>
      </trkpt>
      <trkpt lat="43.62373" lon="6.60766">
        <ele>788.3</ele>
        <time>2023-11-26T10:31:43Z</time>
      </trkpt>
      <trkpt lat="43.62373" lon="6.60766">
        <ele>788.3</ele>
        <time>2023-11-26T10:31:44Z</time>
      </trkpt>
      <trkpt lat="43.62373" lon="6.60766">
        <ele>788.3</ele>
        <time>2023-11-26T10:31:45Z</time>
      </trkpt>
      <trkpt lat="43.62372" lon="6.60767">
        <ele>788.3</ele>
        <time>2023-11-26T10:31:46Z</time>
      </trkpt>
      <trkpt lat="43.62372" lon="6.60767">
        <ele>788.4</ele>
        <time>2023-11-26T10:31:47Z</time>
      </trkpt>
      <trkpt lat="43.62372" lon="6.60767">
        <ele>788.5</ele>
        <time>2023-11-26T10:31:48Z</time>
      </trkpt>
      <trkpt lat="43.62372" lon="6.60767">
        <ele>788.6</ele>
        <time>2023-11-26T10:31:49Z</time>
      </trkpt>
      <trkpt lat="43.62372" lon="6.60768">
        <ele>788.7</ele>
        <time>2023-11-26T10:31:50Z</time>
      </trkpt>
      <trkpt lat="43.62372" lon="6.60768">
        <ele>788.8</ele>
        <time>2023-11-26T10:31:51Z</time>
      </trkpt>
      <trkpt lat="43.62372" lon="6.60768">
        <ele>788.7</ele>
        <time>2023-11-26T10:31:52Z</time>
      </trkpt>
      <trkpt lat="43.62371" lon="6.60768">
        <ele>788.7</ele>
        <time>2023-11-26T10:31:53Z</time>
      </trkpt>
      <trkpt lat="43.62371" lon="6.60768">
        <ele>788.7</ele>
        <time>2023-11-26T10:31:54Z</time>
      </trkpt>
      <trkpt lat="43.62371" lon="6.60769">
        <ele>788.7</ele>
        <time>2023-11-26T10:31:55Z</time>
      </trkpt>
      <trkpt lat="43.62371" lon="6.60769">
        <ele>788.7</ele>
        <time>2023-11-26T10:31:56Z</time>
      </trkpt>
      <trkpt lat="43.62371" lon="6.60769">
        <ele>788.7</ele>
        <time>2023-11-26T10:31:57Z</time>
      </trkpt>
      <trkpt lat="43.62371" lon="6.6077">
        <ele>788.7</ele>
        <time>2023-11-26T10:31:58Z</time>
      </trkpt>
      <trkpt lat="43.62371" lon="6.6077">
        <ele>788.8</ele>
        <time>2023-11-26T10:31:59Z</time>
      </trkpt>
      <trkpt lat="43.62371" lon="6.6077">
        <ele>788.9</ele>
        <time>2023-11-26T10:32:00Z</time>
      </trkpt>
      <trkpt lat="43.62371" lon="6.6077">
        <ele>789</ele>
        <time>2023-11-26T10:32:01Z</time>
      </trkpt>
      <trkpt lat="43.6237" lon="6.60771">
        <ele>789</ele>
        <time>2023-11-26T10:32:02Z</time>
      </trkpt>
      <trkpt lat="43.6237" lon="6.60771">
        <ele>789.1</ele>
        <time>2023-11-26T10:32:03Z</time>
      </trkpt>
      <trkpt lat="43.6237" lon="6.60772">
        <ele>789.1</ele>
        <time>2023-11-26T10:32:04Z</time>
      </trkpt>
      <trkpt lat="43.6237" lon="6.60772">
        <ele>789.2</ele>
        <time>2023-11-26T10:32:05Z</time>
      </trkpt>
      <trkpt lat="43.6237" lon="6.60772">
        <ele>789.2</ele>
        <time>2023-11-26T10:32:06Z</time>
      </trkpt>
      <trkpt lat="43.6237" lon="6.60772">
        <ele>789.3</ele>
        <time>2023-11-26T10:32:07Z</time>
      </trkpt>
      <trkpt lat="43.6237" lon="6.60772">
        <ele>789.3</ele>
        <time>2023-11-26T10:32:08Z</time>
      </trkpt>
      <trkpt lat="43.6237" lon="6.60772">
        <ele>789.3</ele>
        <time>2023-11-26T10:32:09Z</time>
      </trkpt>
      <trkpt lat="43.62371" lon="6.60772">
        <ele>789.4</ele>
        <time>2023-11-26T10:32:10Z</time>
      </trkpt>
      <trkpt lat="43.62371" lon="6.60772">
        <ele>789.5</ele>
        <time>2023-11-26T10:32:11Z</time>
      </trkpt>
      <trkpt lat="43.62371" lon="6.60773">
        <ele>789.5</ele>
        <time>2023-11-26T10:32:12Z</time>
      </trkpt>
      <trkpt lat="43.62371" lon="6.60773">
        <ele>789.5</ele>
        <time>2023-11-26T10:32:13Z</time>
      </trkpt>
      <trkpt lat="43.62371" lon="6.60773">
        <ele>789.5</ele>
        <time>2023-11-26T10:32:14Z</time>
      </trkpt>
      <trkpt lat="43.62371" lon="6.60773">
        <ele>789.5</ele>
        <time>2023-11-26T10:32:15Z</time>
      </trkpt>
      <trkpt lat="43.62371" lon="6.60773">
        <ele>789.5</ele>
        <time>2023-11-26T10:32:16Z</time>
      </trkpt>
      <trkpt lat="43.62372" lon="6.60773">
        <ele>789.5</ele>
        <time>2023-11-26T10:32:17Z</time>
      </trkpt>
      <trkpt lat="43.62372" lon="6.60773">
        <ele>789.5</ele>
        <time>2023-11-26T10:32:18Z</time>
      </trkpt>
      <trkpt lat="43.62372" lon="6.60773">
        <ele>789.5</ele>
        <time>2023-11-26T10:32:19Z</time>
      </trkpt>
      <trkpt lat="43.62372" lon="6.60773">
        <ele>789.4</ele>
        <time>2023-11-26T10:32:20Z</time>
      </trkpt>
      <trkpt lat="43.62372" lon="6.60773">
        <ele>789.4</ele>
        <time>2023-11-26T10:32:21Z</time>
      </trkpt>
      <trkpt lat="43.62372" lon="6.60773">
        <ele>789.3</ele>
        <time>2023-11-26T10:32:22Z</time>
      </trkpt>
      <trkpt lat="43.62372" lon="6.60773">
        <ele>789.3</ele>
        <time>2023-11-26T10:32:23Z</time>
      </trkpt>
      <trkpt lat="43.62372" lon="6.60773">
        <ele>789.2</ele>
        <time>2023-11-26T10:32:24Z</time>
      </trkpt>
      <trkpt lat="43.62372" lon="6.60773">
        <ele>789.2</ele>
        <time>2023-11-26T10:32:25Z</time>
      </trkpt>
      <trkpt lat="43.62372" lon="6.60773">
        <ele>789.2</ele>
        <time>2023-11-26T10:32:26Z</time>
      </trkpt>
      <trkpt lat="43.62372" lon="6.60773">
        <ele>789.2</ele>
        <time>2023-11-26T10:32:27Z</time>
      </trkpt>
      <trkpt lat="43.62372" lon="6.60773">
        <ele>789.1</ele>
        <time>2023-11-26T10:32:28Z</time>
      </trkpt>
      <trkpt lat="43.62372" lon="6.60773">
        <ele>789.1</ele>
        <time>2023-11-26T10:32:29Z</time>
      </trkpt>
      <trkpt lat="43.62372" lon="6.60773">
        <ele>789.1</ele>
        <time>2023-11-26T10:32:30Z</time>
      </trkpt>
      <trkpt lat="43.62372" lon="6.60773">
        <ele>789.2</ele>
        <time>2023-11-26T10:32:31Z</time>
      </trkpt>
      <trkpt lat="43.62372" lon="6.60773">
        <ele>789.2</ele>
        <time>2023-11-26T10:32:32Z</time>
      </trkpt>
      <trkpt lat="43.62372" lon="6.60774">
        <ele>789.1</ele>
        <time>2023-11-26T10:32:33Z</time>
      </trkpt>
      <trkpt lat="43.62372" lon="6.60774">
        <ele>789.2</ele>
        <time>2023-11-26T10:32:34Z</time>
      </trkpt>
      <trkpt lat="43.62372" lon="6.60773">
        <ele>789.2</ele>
        <time>2023-11-26T10:32:35Z</time>
      </trkpt>
      <trkpt lat="43.62372" lon="6.60773">
        <ele>789.2</ele>
        <time>2023-11-26T10:32:36Z</time>
      </trkpt>
      <trkpt lat="43.62372" lon="6.60773">
        <ele>789.2</ele>
        <time>2023-11-26T10:32:37Z</time>
      </trkpt>
      <trkpt lat="43.62372" lon="6.60773">
        <ele>789.1</ele>
        <time>2023-11-26T10:32:38Z</time>
      </trkpt>
      <trkpt lat="43.62372" lon="6.60773">
        <ele>789.1</ele>
        <time>2023-11-26T10:32:39Z</time>
      </trkpt>
      <trkpt lat="43.62372" lon="6.60774">
        <ele>789.1</ele>
        <time>2023-11-26T10:32:40Z</time>
      </trkpt>
      <trkpt lat="43.62372" lon="6.60774">
        <ele>789.1</ele>
        <time>2023-11-26T10:32:41Z</time>
      </trkpt>
      <trkpt lat="43.62372" lon="6.60774">
        <ele>789</ele>
        <time>2023-11-26T10:32:42Z</time>
      </trkpt>
      <trkpt lat="43.62372" lon="6.60774">
        <ele>789</ele>
        <time>2023-11-26T10:32:43Z</time>
      </trkpt>
      <trkpt lat="43.62372" lon="6.60774">
        <ele>788.9</ele>
        <time>2023-11-26T10:32:44Z</time>
      </trkpt>
      <trkpt lat="43.62372" lon="6.60774">
        <ele>789</ele>
        <time>2023-11-26T10:32:45Z</time>
      </trkpt>
      <trkpt lat="43.62373" lon="6.60774">
        <ele>789</ele>
        <time>2023-11-26T10:32:46Z</time>
      </trkpt>
      <trkpt lat="43.62373" lon="6.60774">
        <ele>789</ele>
        <time>2023-11-26T10:32:47Z</time>
      </trkpt>
      <trkpt lat="43.62373" lon="6.60774">
        <ele>789</ele>
        <time>2023-11-26T10:32:48Z</time>
      </trkpt>
      <trkpt lat="43.62373" lon="6.60774">
        <ele>789.1</ele>
        <time>2023-11-26T10:32:49Z</time>
      </trkpt>
      <trkpt lat="43.62373" lon="6.60774">
        <ele>789.1</ele>
        <time>2023-11-26T10:32:50Z</time>
      </trkpt>
      <trkpt lat="43.62373" lon="6.60774">
        <ele>789.1</ele>
        <time>2023-11-26T10:32:51Z</time>
      </trkpt>
      <trkpt lat="43.62373" lon="6.60774">
        <ele>789.1</ele>
        <time>2023-11-26T10:32:52Z</time>
      </trkpt>
      <trkpt lat="43.62373" lon="6.60774">
        <ele>789.1</ele>
        <time>2023-11-26T10:32:53Z</time>
      </trkpt>
      <trkpt lat="43.62373" lon="6.60774">
        <ele>789.1</ele>
        <time>2023-11-26T10:32:54Z</time>
      </trkpt>
      <trkpt lat="43.62373" lon="6.60774">
        <ele>789.1</ele>
        <time>2023-11-26T10:32:55Z</time>
      </trkpt>
      <trkpt lat="43.62373" lon="6.60773">
        <ele>789.1</ele>
        <time>2023-11-26T10:32:56Z</time>
      </trkpt>
      <trkpt lat="43.62373" lon="6.60773">
        <ele>789</ele>
        <time>2023-11-26T10:32:57Z</time>
      </trkpt>
      <trkpt lat="43.62373" lon="6.60773">
        <ele>789.1</ele>
        <time>2023-11-26T10:32:58Z</time>
      </trkpt>
      <trkpt lat="43.62373" lon="6.60773">
        <ele>789.1</ele>
        <time>2023-11-26T10:32:59Z</time>
      </trkpt>
      <trkpt lat="43.62373" lon="6.60773">
        <ele>789.1</ele>
        <time>2023-11-26T10:33:00Z</time>
      </trkpt>
      <trkpt lat="43.62373" lon="6.60773">
        <ele>789.1</ele>
        <time>2023-11-26T10:33:01Z</time>
      </trkpt>
      <trkpt lat="43.62373" lon="6.60773">
        <ele>789.1</ele>
        <time>2023-11-26T10:33:02Z</time>
      </trkpt>
      <trkpt lat="43.62373" lon="6.60773">
        <ele>789</ele>
        <time>2023-11-26T10:33:03Z</time>
      </trkpt>
      <trkpt lat="43.62373" lon="6.60773">
        <ele>789</ele>
        <time>2023-11-26T10:33:04Z</time>
      </trkpt>
      <trkpt lat="43.62373" lon="6.60773">
        <ele>789</ele>
        <time>2023-11-26T10:33:05Z</time>
      </trkpt>
      <trkpt lat="43.62373" lon="6.60773">
        <ele>788.9</ele>
        <time>2023-11-26T10:33:06Z</time>
      </trkpt>
      <trkpt lat="43.62373" lon="6.60773">
        <ele>788.8</ele>
        <time>2023-11-26T10:33:07Z</time>
      </trkpt>
      <trkpt lat="43.62373" lon="6.60773">
        <ele>788.9</ele>
        <time>2023-11-26T10:33:08Z</time>
      </trkpt>
      <trkpt lat="43.62373" lon="6.60773">
        <ele>789</ele>
        <time>2023-11-26T10:33:09Z</time>
      </trkpt>
      <trkpt lat="43.62373" lon="6.60773">
        <ele>789</ele>
        <time>2023-11-26T10:33:10Z</time>
      </trkpt>
      <trkpt lat="43.62373" lon="6.60773">
        <ele>789</ele>
        <time>2023-11-26T10:33:11Z</time>
      </trkpt>
      <trkpt lat="43.62373" lon="6.60772">
        <ele>788.9</ele>
        <time>2023-11-26T10:33:12Z</time>
      </trkpt>
      <trkpt lat="43.62373" lon="6.60773">
        <ele>788.8</ele>
        <time>2023-11-26T10:33:13Z</time>
      </trkpt>
      <trkpt lat="43.62373" lon="6.60773">
        <ele>788.8</ele>
        <time>2023-11-26T10:33:14Z</time>
      </trkpt>
      <trkpt lat="43.62373" lon="6.60773">
        <ele>788.9</ele>
        <time>2023-11-26T10:33:15Z</time>
      </trkpt>
      <trkpt lat="43.62373" lon="6.60773">
        <ele>788.9</ele>
        <time>2023-11-26T10:33:16Z</time>
      </trkpt>
      <trkpt lat="43.62373" lon="6.60773">
        <ele>788.9</ele>
        <time>2023-11-26T10:33:17Z</time>
      </trkpt>
      <trkpt lat="43.62373" lon="6.60773">
        <ele>788.9</ele>
        <time>2023-11-26T10:33:18Z</time>
      </trkpt>
      <trkpt lat="43.62373" lon="6.60773">
        <ele>788.9</ele>
        <time>2023-11-26T10:33:19Z</time>
      </trkpt>
      <trkpt lat="43.62373" lon="6.60773">
        <ele>788.9</ele>
        <time>2023-11-26T10:33:20Z</time>
      </trkpt>
      <trkpt lat="43.62373" lon="6.60773">
        <ele>789.1</ele>
        <time>2023-11-26T10:33:21Z</time>
      </trkpt>
      <trkpt lat="43.62373" lon="6.60773">
        <ele>789</ele>
        <time>2023-11-26T10:33:22Z</time>
      </trkpt>
      <trkpt lat="43.62373" lon="6.60773">
        <ele>789</ele>
        <time>2023-11-26T10:33:23Z</time>
      </trkpt>
      <trkpt lat="43.62373" lon="6.60773">
        <ele>789</ele>
        <time>2023-11-26T10:33:24Z</time>
      </trkpt>
      <trkpt lat="43.62373" lon="6.60773">
        <ele>788.9</ele>
        <time>2023-11-26T10:33:25Z</time>
      </trkpt>
      <trkpt lat="43.62373" lon="6.60773">
        <ele>788.8</ele>
        <time>2023-11-26T10:33:26Z</time>
      </trkpt>
      <trkpt lat="43.62374" lon="6.60773">
        <ele>788.9</ele>
        <time>2023-11-26T10:33:27Z</time>
      </trkpt>
      <trkpt lat="43.62374" lon="6.60773">
        <ele>789</ele>
        <time>2023-11-26T10:33:28Z</time>
      </trkpt>
      <trkpt lat="43.62374" lon="6.60773">
        <ele>789</ele>
        <time>2023-11-26T10:33:29Z</time>
      </trkpt>
      <trkpt lat="43.62374" lon="6.60774">
        <ele>788.9</ele>
        <time>2023-11-26T10:33:30Z</time>
      </trkpt>
      <trkpt lat="43.62374" lon="6.60774">
        <ele>788.9</ele>
        <time>2023-11-26T10:33:31Z</time>
      </trkpt>
      <trkpt lat="43.62374" lon="6.60774">
        <ele>788.9</ele>
        <time>2023-11-26T10:33:32Z</time>
      </trkpt>
      <trkpt lat="43.62374" lon="6.60774">
        <ele>788.8</ele>
        <time>2023-11-26T10:33:33Z</time>
      </trkpt>
      <trkpt lat="43.62374" lon="6.60774">
        <ele>788.8</ele>
        <time>2023-11-26T10:33:34Z</time>
      </trkpt>
      <trkpt lat="43.62374" lon="6.60774">
        <ele>788.8</ele>
        <time>2023-11-26T10:33:35Z</time>
      </trkpt>
      <trkpt lat="43.62374" lon="6.60773">
        <ele>788.8</ele>
        <time>2023-11-26T10:33:36Z</time>
      </trkpt>
      <trkpt lat="43.62374" lon="6.60773">
        <ele>788.8</ele>
        <time>2023-11-26T10:33:37Z</time>
      </trkpt>
      <trkpt lat="43.62374" lon="6.60773">
        <ele>788.8</ele>
        <time>2023-11-26T10:33:38Z</time>
      </trkpt>
      <trkpt lat="43.62374" lon="6.60773">
        <ele>788.8</ele>
        <time>2023-11-26T10:33:39Z</time>
      </trkpt>
      <trkpt lat="43.62374" lon="6.60773">
        <ele>788.8</ele>
        <time>2023-11-26T10:33:40Z</time>
      </trkpt>
      <trkpt lat="43.62374" lon="6.60773">
        <ele>788.8</ele>
        <time>2023-11-26T10:33:41Z</time>
      </trkpt>
      <trkpt lat="43.62374" lon="6.60773">
        <ele>788.8</ele>
        <time>2023-11-26T10:33:42Z</time>
      </trkpt>
      <trkpt lat="43.62373" lon="6.60773">
        <ele>788.8</ele>
        <time>2023-11-26T10:33:43Z</time>
      </trkpt>
      <trkpt lat="43.62373" lon="6.60773">
        <ele>788.7</ele>
        <time>2023-11-26T10:33:44Z</time>
      </trkpt>
      <trkpt lat="43.62373" lon="6.60773">
        <ele>788.6</ele>
        <time>2023-11-26T10:33:45Z</time>
      </trkpt>
      <trkpt lat="43.62373" lon="6.60773">
        <ele>788.5</ele>
        <time>2023-11-26T10:33:46Z</time>
      </trkpt>
      <trkpt lat="43.62373" lon="6.60773">
        <ele>788.5</ele>
        <time>2023-11-26T10:33:47Z</time>
      </trkpt>
      <trkpt lat="43.62373" lon="6.60773">
        <ele>788.5</ele>
        <time>2023-11-26T10:33:48Z</time>
      </trkpt>
      <trkpt lat="43.62373" lon="6.60773">
        <ele>788.5</ele>
        <time>2023-11-26T10:33:49Z</time>
      </trkpt>
      <trkpt lat="43.62373" lon="6.60773">
        <ele>788.4</ele>
        <time>2023-11-26T10:33:50Z</time>
      </trkpt>
      <trkpt lat="43.62373" lon="6.60773">
        <ele>788.4</ele>
        <time>2023-11-26T10:33:51Z</time>
      </trkpt>
      <trkpt lat="43.62373" lon="6.60773">
        <ele>788.5</ele>
        <time>2023-11-26T10:33:52Z</time>
      </trkpt>
      <trkpt lat="43.62373" lon="6.60773">
        <ele>788.5</ele>
        <time>2023-11-26T10:33:53Z</time>
      </trkpt>
      <trkpt lat="43.62373" lon="6.60773">
        <ele>788.5</ele>
        <time>2023-11-26T10:33:54Z</time>
      </trkpt>
      <trkpt lat="43.62373" lon="6.60773">
        <ele>788.5</ele>
        <time>2023-11-26T10:33:55Z</time>
      </trkpt>
      <trkpt lat="43.62373" lon="6.60773">
        <ele>788.5</ele>
        <time>2023-11-26T10:33:56Z</time>
      </trkpt>
      <trkpt lat="43.62373" lon="6.60773">
        <ele>788.4</ele>
        <time>2023-11-26T10:33:57Z</time>
      </trkpt>
      <trkpt lat="43.62373" lon="6.60773">
        <ele>788.4</ele>
        <time>2023-11-26T10:33:58Z</time>
      </trkpt>
      <trkpt lat="43.62373" lon="6.60773">
        <ele>788.4</ele>
        <time>2023-11-26T10:33:59Z</time>
      </trkpt>
      <trkpt lat="43.62373" lon="6.60773">
        <ele>788.5</ele>
        <time>2023-11-26T10:34:00Z</time>
      </trkpt>
      <trkpt lat="43.62373" lon="6.60773">
        <ele>788.5</ele>
        <time>2023-11-26T10:34:01Z</time>
      </trkpt>
      <trkpt lat="43.62373" lon="6.60773">
        <ele>788.6</ele>
        <time>2023-11-26T10:34:02Z</time>
      </trkpt>
      <trkpt lat="43.62373" lon="6.60773">
        <ele>788.5</ele>
        <time>2023-11-26T10:34:03Z</time>
      </trkpt>
      <trkpt lat="43.62373" lon="6.60773">
        <ele>788.5</ele>
        <time>2023-11-26T10:34:04Z</time>
      </trkpt>
      <trkpt lat="43.62373" lon="6.60773">
        <ele>788.5</ele>
        <time>2023-11-26T10:34:05Z</time>
      </trkpt>
      <trkpt lat="43.62373" lon="6.60773">
        <ele>788.5</ele>
        <time>2023-11-26T10:34:06Z</time>
      </trkpt>
      <trkpt lat="43.62373" lon="6.60773">
        <ele>788.5</ele>
        <time>2023-11-26T10:34:07Z</time>
      </trkpt>
      <trkpt lat="43.62373" lon="6.60773">
        <ele>788.5</ele>
        <time>2023-11-26T10:34:08Z</time>
      </trkpt>
      <trkpt lat="43.62373" lon="6.60773">
        <ele>788.6</ele>
        <time>2023-11-26T10:34:09Z</time>
      </trkpt>
      <trkpt lat="43.62373" lon="6.60773">
        <ele>788.7</ele>
        <time>2023-11-26T10:34:10Z</time>
      </trkpt>
      <trkpt lat="43.62373" lon="6.60773">
        <ele>788.8</ele>
        <time>2023-11-26T10:34:11Z</time>
      </trkpt>
      <trkpt lat="43.62373" lon="6.60773">
        <ele>788.8</ele>
        <time>2023-11-26T10:34:12Z</time>
      </trkpt>
      <trkpt lat="43.62373" lon="6.60773">
        <ele>788.9</ele>
        <time>2023-11-26T10:34:13Z</time>
      </trkpt>
      <trkpt lat="43.62373" lon="6.60773">
        <ele>788.8</ele>
        <time>2023-11-26T10:34:14Z</time>
      </trkpt>
      <trkpt lat="43.62373" lon="6.60774">
        <ele>788.7</ele>
        <time>2023-11-26T10:34:15Z</time>
      </trkpt>
      <trkpt lat="43.62374" lon="6.60774">
        <ele>788.7</ele>
        <time>2023-11-26T10:34:16Z</time>
      </trkpt>
      <trkpt lat="43.62374" lon="6.60774">
        <ele>788.7</ele>
        <time>2023-11-26T10:34:17Z</time>
      </trkpt>
      <trkpt lat="43.62374" lon="6.60774">
        <ele>788.8</ele>
        <time>2023-11-26T10:34:18Z</time>
      </trkpt>
      <trkpt lat="43.62374" lon="6.60774">
        <ele>788.9</ele>
        <time>2023-11-26T10:34:19Z</time>
      </trkpt>
      <trkpt lat="43.62374" lon="6.60774">
        <ele>788.8</ele>
        <time>2023-11-26T10:34:20Z</time>
      </trkpt>
      <trkpt lat="43.62374" lon="6.60774">
        <ele>788.8</ele>
        <time>2023-11-26T10:34:21Z</time>
      </trkpt>
      <trkpt lat="43.62374" lon="6.60774">
        <ele>788.7</ele>
        <time>2023-11-26T10:34:22Z</time>
      </trkpt>
      <trkpt lat="43.62374" lon="6.60774">
        <ele>788.7</ele>
        <time>2023-11-26T10:34:23Z</time>
      </trkpt>
      <trkpt lat="43.62374" lon="6.60774">
        <ele>788.6</ele>
        <time>2023-11-26T10:34:24Z</time>
      </trkpt>
      <trkpt lat="43.62374" lon="6.60774">
        <ele>788.7</ele>
        <time>2023-11-26T10:34:25Z</time>
      </trkpt>
      <trkpt lat="43.62374" lon="6.60774">
        <ele>788.8</ele>
        <time>2023-11-26T10:34:26Z</time>
      </trkpt>
      <trkpt lat="43.62374" lon="6.60774">
        <ele>788.9</ele>
        <time>2023-11-26T10:34:27Z</time>
      </trkpt>
      <trkpt lat="43.62374" lon="6.60774">
        <ele>788.8</ele>
        <time>2023-11-26T10:34:28Z</time>
      </trkpt>
      <trkpt lat="43.62374" lon="6.60774">
        <ele>788.7</ele>
        <time>2023-11-26T10:34:29Z</time>
      </trkpt>
      <trkpt lat="43.62374" lon="6.60774">
        <ele>788.8</ele>
        <time>2023-11-26T10:34:30Z</time>
      </trkpt>
      <trkpt lat="43.62375" lon="6.60773">
        <ele>788.7</ele>
        <time>2023-11-26T10:34:31Z</time>
      </trkpt>
      <trkpt lat="43.62375" lon="6.60774">
        <ele>788.7</ele>
        <time>2023-11-26T10:34:32Z</time>
      </trkpt>
      <trkpt lat="43.62375" lon="6.60774">
        <ele>788.8</ele>
        <time>2023-11-26T10:34:33Z</time>
      </trkpt>
      <trkpt lat="43.62374" lon="6.60774">
        <ele>788.8</ele>
        <time>2023-11-26T10:34:34Z</time>
      </trkpt>
      <trkpt lat="43.62374" lon="6.60774">
        <ele>788.8</ele>
        <time>2023-11-26T10:34:35Z</time>
      </trkpt>
      <trkpt lat="43.62374" lon="6.60774">
        <ele>788.8</ele>
        <time>2023-11-26T10:34:36Z</time>
      </trkpt>
      <trkpt lat="43.62374" lon="6.60774">
        <ele>788.7</ele>
        <time>2023-11-26T10:34:37Z</time>
      </trkpt>
      <trkpt lat="43.62374" lon="6.60774">
        <ele>788.7</ele>
        <time>2023-11-26T10:34:38Z</time>
      </trkpt>
      <trkpt lat="43.62374" lon="6.60774">
        <ele>788.7</ele>
        <time>2023-11-26T10:34:39Z</time>
      </trkpt>
      <trkpt lat="43.62374" lon="6.60774">
        <ele>788.7</ele>
        <time>2023-11-26T10:34:40Z</time>
      </trkpt>
      <trkpt lat="43.62374" lon="6.60774">
        <ele>788.7</ele>
        <time>2023-11-26T10:34:41Z</time>
      </trkpt>
      <trkpt lat="43.62374" lon="6.60774">
        <ele>788.7</ele>
        <time>2023-11-26T10:34:42Z</time>
      </trkpt>
      <trkpt lat="43.62374" lon="6.60774">
        <ele>788.7</ele>
        <time>2023-11-26T10:34:43Z</time>
      </trkpt>
      <trkpt lat="43.62374" lon="6.60774">
        <ele>788.7</ele>
        <time>2023-11-26T10:34:44Z</time>
      </trkpt>
      <trkpt lat="43.62374" lon="6.60774">
        <ele>788.6</ele>
        <time>2023-11-26T10:34:45Z</time>
      </trkpt>
      <trkpt lat="43.62374" lon="6.60774">
        <ele>788.5</ele>
        <time>2023-11-26T10:34:46Z</time>
      </trkpt>
      <trkpt lat="43.62374" lon="6.60774">
        <ele>788.5</ele>
        <time>2023-11-26T10:34:47Z</time>
      </trkpt>
      <trkpt lat="43.62374" lon="6.60774">
        <ele>788.6</ele>
        <time>2023-11-26T10:34:48Z</time>
      </trkpt>
      <trkpt lat="43.62374" lon="6.60774">
        <ele>788.6</ele>
        <time>2023-11-26T10:34:49Z</time>
      </trkpt>
      <trkpt lat="43.62374" lon="6.60774">
        <ele>788.5</ele>
        <time>2023-11-26T10:34:50Z</time>
      </trkpt>
      <trkpt lat="43.62374" lon="6.60773">
        <ele>788.6</ele>
        <time>2023-11-26T10:34:51Z</time>
      </trkpt>
      <trkpt lat="43.62374" lon="6.60773">
        <ele>788.6</ele>
        <time>2023-11-26T10:34:52Z</time>
      </trkpt>
      <trkpt lat="43.62374" lon="6.60773">
        <ele>788.6</ele>
        <time>2023-11-26T10:34:53Z</time>
      </trkpt>
      <trkpt lat="43.62374" lon="6.60773">
        <ele>788.6</ele>
        <time>2023-11-26T10:34:54Z</time>
      </trkpt>
      <trkpt lat="43.62374" lon="6.60773">
        <ele>788.6</ele>
        <time>2023-11-26T10:34:55Z</time>
      </trkpt>
      <trkpt lat="43.62374" lon="6.60774">
        <ele>788.6</ele>
        <time>2023-11-26T10:34:56Z</time>
      </trkpt>
      <trkpt lat="43.62374" lon="6.60774">
        <ele>788.6</ele>
        <time>2023-11-26T10:34:57Z</time>
      </trkpt>
      <trkpt lat="43.62374" lon="6.60774">
        <ele>788.6</ele>
        <time>2023-11-26T10:34:58Z</time>
      </trkpt>
      <trkpt lat="43.62374" lon="6.60774">
        <ele>788.6</ele>
        <time>2023-11-26T10:34:59Z</time>
      </trkpt>
      <trkpt lat="43.62374" lon="6.60774">
        <ele>788.6</ele>
        <time>2023-11-26T10:35:00Z</time>
      </trkpt>
      <trkpt lat="43.62374" lon="6.60774">
        <ele>788.6</ele>
        <time>2023-11-26T10:35:01Z</time>
      </trkpt>
      <trkpt lat="43.62374" lon="6.60774">
        <ele>788.6</ele>
        <time>2023-11-26T10:35:02Z</time>
      </trkpt>
      <trkpt lat="43.62374" lon="6.60774">
        <ele>788.6</ele>
        <time>2023-11-26T10:35:03Z</time>
      </trkpt>
      <trkpt lat="43.62374" lon="6.60774">
        <ele>788.6</ele>
        <time>2023-11-26T10:35:04Z</time>
      </trkpt>
      <trkpt lat="43.62374" lon="6.60774">
        <ele>788.6</ele>
        <time>2023-11-26T10:35:05Z</time>
      </trkpt>
      <trkpt lat="43.62374" lon="6.60774">
        <ele>788.6</ele>
        <time>2023-11-26T10:35:06Z</time>
      </trkpt>
      <trkpt lat="43.62374" lon="6.60774">
        <ele>788.5</ele>
        <time>2023-11-26T10:35:07Z</time>
      </trkpt>
      <trkpt lat="43.62374" lon="6.60774">
        <ele>788.5</ele>
        <time>2023-11-26T10:35:08Z</time>
      </trkpt>
      <trkpt lat="43.62374" lon="6.60774">
        <ele>788.5</ele>
        <time>2023-11-26T10:35:09Z</time>
      </trkpt>
      <trkpt lat="43.62374" lon="6.60774">
        <ele>788.4</ele>
        <time>2023-11-26T10:35:10Z</time>
      </trkpt>
      <trkpt lat="43.62374" lon="6.60774">
        <ele>788.4</ele>
        <time>2023-11-26T10:35:11Z</time>
      </trkpt>
      <trkpt lat="43.62374" lon="6.60774">
        <ele>788.5</ele>
        <time>2023-11-26T10:35:12Z</time>
      </trkpt>
      <trkpt lat="43.62374" lon="6.60774">
        <ele>788.4</ele>
        <time>2023-11-26T10:35:13Z</time>
      </trkpt>
      <trkpt lat="43.62374" lon="6.60774">
        <ele>788.4</ele>
        <time>2023-11-26T10:35:14Z</time>
      </trkpt>
      <trkpt lat="43.62374" lon="6.60774">
        <ele>788.3</ele>
        <time>2023-11-26T10:35:15Z</time>
      </trkpt>
      <trkpt lat="43.62374" lon="6.60774">
        <ele>788.3</ele>
        <time>2023-11-26T10:35:16Z</time>
      </trkpt>
      <trkpt lat="43.62374" lon="6.60774">
        <ele>788.3</ele>
        <time>2023-11-26T10:35:17Z</time>
      </trkpt>
      <trkpt lat="43.62374" lon="6.60774">
        <ele>788.3</ele>
        <time>2023-11-26T10:35:18Z</time>
      </trkpt>
      <trkpt lat="43.62373" lon="6.60773">
        <ele>788.3</ele>
        <time>2023-11-26T10:35:19Z</time>
      </trkpt>
      <trkpt lat="43.62373" lon="6.60773">
        <ele>788.3</ele>
        <time>2023-11-26T10:35:20Z</time>
      </trkpt>
      <trkpt lat="43.62373" lon="6.60773">
        <ele>788.3</ele>
        <time>2023-11-26T10:35:21Z</time>
      </trkpt>
      <trkpt lat="43.62373" lon="6.60773">
        <ele>788.3</ele>
        <time>2023-11-26T10:35:22Z</time>
      </trkpt>
      <trkpt lat="43.62373" lon="6.60773">
        <ele>788.4</ele>
        <time>2023-11-26T10:35:23Z</time>
      </trkpt>
      <trkpt lat="43.62373" lon="6.60773">
        <ele>788.4</ele>
        <time>2023-11-26T10:35:24Z</time>
      </trkpt>
      <trkpt lat="43.62373" lon="6.60773">
        <ele>788.4</ele>
        <time>2023-11-26T10:35:25Z</time>
      </trkpt>
      <trkpt lat="43.62373" lon="6.60773">
        <ele>788.4</ele>
        <time>2023-11-26T10:35:26Z</time>
      </trkpt>
      <trkpt lat="43.62373" lon="6.60773">
        <ele>788.4</ele>
        <time>2023-11-26T10:35:27Z</time>
      </trkpt>
      <trkpt lat="43.62373" lon="6.60773">
        <ele>788.5</ele>
        <time>2023-11-26T10:35:28Z</time>
      </trkpt>
      <trkpt lat="43.62373" lon="6.60773">
        <ele>788.6</ele>
        <time>2023-11-26T10:35:29Z</time>
      </trkpt>
      <trkpt lat="43.62373" lon="6.60773">
        <ele>788.5</ele>
        <time>2023-11-26T10:35:30Z</time>
      </trkpt>
      <trkpt lat="43.62373" lon="6.60773">
        <ele>788.4</ele>
        <time>2023-11-26T10:35:31Z</time>
      </trkpt>
      <trkpt lat="43.62373" lon="6.60773">
        <ele>788.6</ele>
        <time>2023-11-26T10:35:32Z</time>
      </trkpt>
      <trkpt lat="43.62373" lon="6.60773">
        <ele>788.5</ele>
        <time>2023-11-26T10:35:33Z</time>
      </trkpt>
      <trkpt lat="43.62373" lon="6.60773">
        <ele>788.5</ele>
        <time>2023-11-26T10:35:34Z</time>
      </trkpt>
      <trkpt lat="43.62373" lon="6.60773">
        <ele>788.5</ele>
        <time>2023-11-26T10:35:35Z</time>
      </trkpt>
      <trkpt lat="43.62373" lon="6.60773">
        <ele>788.3</ele>
        <time>2023-11-26T10:35:36Z</time>
      </trkpt>
      <trkpt lat="43.62373" lon="6.60773">
        <ele>788.3</ele>
        <time>2023-11-26T10:35:37Z</time>
      </trkpt>
      <trkpt lat="43.62373" lon="6.60773">
        <ele>788.3</ele>
        <time>2023-11-26T10:35:38Z</time>
      </trkpt>
      <trkpt lat="43.62373" lon="6.60773">
        <ele>788.4</ele>
        <time>2023-11-26T10:35:39Z</time>
      </trkpt>
      <trkpt lat="43.62373" lon="6.60773">
        <ele>788.5</ele>
        <time>2023-11-26T10:35:40Z</time>
      </trkpt>
      <trkpt lat="43.62374" lon="6.60773">
        <ele>788.6</ele>
        <time>2023-11-26T10:35:41Z</time>
      </trkpt>
      <trkpt lat="43.62374" lon="6.60774">
        <ele>788.6</ele>
        <time>2023-11-26T10:35:42Z</time>
      </trkpt>
      <trkpt lat="43.62374" lon="6.60774">
        <ele>788.6</ele>
        <time>2023-11-26T10:35:43Z</time>
      </trkpt>
      <trkpt lat="43.62374" lon="6.60774">
        <ele>788.6</ele>
        <time>2023-11-26T10:35:44Z</time>
      </trkpt>
      <trkpt lat="43.62374" lon="6.60774">
        <ele>788.6</ele>
        <time>2023-11-26T10:35:45Z</time>
      </trkpt>
      <trkpt lat="43.62374" lon="6.60774">
        <ele>788.6</ele>
        <time>2023-11-26T10:35:46Z</time>
      </trkpt>
      <trkpt lat="43.62374" lon="6.60774">
        <ele>788.6</ele>
        <time>2023-11-26T10:35:47Z</time>
      </trkpt>
      <trkpt lat="43.62374" lon="6.60774">
        <ele>788.6</ele>
        <time>2023-11-26T10:35:48Z</time>
      </trkpt>
      <trkpt lat="43.62374" lon="6.60774">
        <ele>788.5</ele>
        <time>2023-11-26T10:35:49Z</time>
      </trkpt>
      <trkpt lat="43.62374" lon="6.60774">
        <ele>788.5</ele>
        <time>2023-11-26T10:35:50Z</time>
      </trkpt>
      <trkpt lat="43.62374" lon="6.60774">
        <ele>788.4</ele>
        <time>2023-11-26T10:35:51Z</time>
      </trkpt>
      <trkpt lat="43.62374" lon="6.60774">
        <ele>788.5</ele>
        <time>2023-11-26T10:35:52Z</time>
      </trkpt>
      <trkpt lat="43.62374" lon="6.60775">
        <ele>788.5</ele>
        <time>2023-11-26T10:35:53Z</time>
      </trkpt>
      <trkpt lat="43.62374" lon="6.60775">
        <ele>788.5</ele>
        <time>2023-11-26T10:35:54Z</time>
      </trkpt>
      <trkpt lat="43.62374" lon="6.60775">
        <ele>788.6</ele>
        <time>2023-11-26T10:35:55Z</time>
      </trkpt>
      <trkpt lat="43.62374" lon="6.60775">
        <ele>788.6</ele>
        <time>2023-11-26T10:35:56Z</time>
      </trkpt>
      <trkpt lat="43.62374" lon="6.60775">
        <ele>788.6</ele>
        <time>2023-11-26T10:35:57Z</time>
      </trkpt>
      <trkpt lat="43.62374" lon="6.60775">
        <ele>788.6</ele>
        <time>2023-11-26T10:35:58Z</time>
      </trkpt>
      <trkpt lat="43.62374" lon="6.60775">
        <ele>788.7</ele>
        <time>2023-11-26T10:35:59Z</time>
      </trkpt>
      <trkpt lat="43.62374" lon="6.60775">
        <ele>788.7</ele>
        <time>2023-11-26T10:36:00Z</time>
      </trkpt>
      <trkpt lat="43.62374" lon="6.60775">
        <ele>788.6</ele>
        <time>2023-11-26T10:36:01Z</time>
      </trkpt>
      <trkpt lat="43.62374" lon="6.60775">
        <ele>788.6</ele>
        <time>2023-11-26T10:36:02Z</time>
      </trkpt>
      <trkpt lat="43.62374" lon="6.60775">
        <ele>788.6</ele>
        <time>2023-11-26T10:36:03Z</time>
      </trkpt>
      <trkpt lat="43.62374" lon="6.60775">
        <ele>788.6</ele>
        <time>2023-11-26T10:36:04Z</time>
      </trkpt>
      <trkpt lat="43.62373" lon="6.60775">
        <ele>788.6</ele>
        <time>2023-11-26T10:36:05Z</time>
      </trkpt>
      <trkpt lat="43.62373" lon="6.60775">
        <ele>788.5</ele>
        <time>2023-11-26T10:36:06Z</time>
      </trkpt>
      <trkpt lat="43.62373" lon="6.60775">
        <ele>788.5</ele>
        <time>2023-11-26T10:36:07Z</time>
      </trkpt>
      <trkpt lat="43.62373" lon="6.60776">
        <ele>788.6</ele>
        <time>2023-11-26T10:36:08Z</time>
      </trkpt>
      <trkpt lat="43.62373" lon="6.60776">
        <ele>788.7</ele>
        <time>2023-11-26T10:36:09Z</time>
      </trkpt>
      <trkpt lat="43.62373" lon="6.60776">
        <ele>788.8</ele>
        <time>2023-11-26T10:36:10Z</time>
      </trkpt>
      <trkpt lat="43.62373" lon="6.60776">
        <ele>788.8</ele>
        <time>2023-11-26T10:36:11Z</time>
      </trkpt>
      <trkpt lat="43.62373" lon="6.60776">
        <ele>788.8</ele>
        <time>2023-11-26T10:36:12Z</time>
      </trkpt>
      <trkpt lat="43.62373" lon="6.60776">
        <ele>788.7</ele>
        <time>2023-11-26T10:36:13Z</time>
      </trkpt>
      <trkpt lat="43.62373" lon="6.60776">
        <ele>788.7</ele>
        <time>2023-11-26T10:36:14Z</time>
      </trkpt>
      <trkpt lat="43.62373" lon="6.60776">
        <ele>788.7</ele>
        <time>2023-11-26T10:36:15Z</time>
      </trkpt>
      <trkpt lat="43.62373" lon="6.60776">
        <ele>788.7</ele>
        <time>2023-11-26T10:36:16Z</time>
      </trkpt>
      <trkpt lat="43.62373" lon="6.60776">
        <ele>788.7</ele>
        <time>2023-11-26T10:36:17Z</time>
      </trkpt>
      <trkpt lat="43.62373" lon="6.60776">
        <ele>788.6</ele>
        <time>2023-11-26T10:36:18Z</time>
      </trkpt>
      <trkpt lat="43.62373" lon="6.60776">
        <ele>788.5</ele>
        <time>2023-11-26T10:36:19Z</time>
      </trkpt>
      <trkpt lat="43.62374" lon="6.60776">
        <ele>788.6</ele>
        <time>2023-11-26T10:36:20Z</time>
      </trkpt>
      <trkpt lat="43.62374" lon="6.60776">
        <ele>788.6</ele>
        <time>2023-11-26T10:36:21Z</time>
      </trkpt>
      <trkpt lat="43.62374" lon="6.60776">
        <ele>788.6</ele>
        <time>2023-11-26T10:36:22Z</time>
      </trkpt>
      <trkpt lat="43.62374" lon="6.60776">
        <ele>788.6</ele>
        <time>2023-11-26T10:36:23Z</time>
      </trkpt>
      <trkpt lat="43.62374" lon="6.60776">
        <ele>788.6</ele>
        <time>2023-11-26T10:36:24Z</time>
      </trkpt>
      <trkpt lat="43.62374" lon="6.60776">
        <ele>788.6</ele>
        <time>2023-11-26T10:36:25Z</time>
      </trkpt>
      <trkpt lat="43.62374" lon="6.60776">
        <ele>788.6</ele>
        <time>2023-11-26T10:36:26Z</time>
      </trkpt>
      <trkpt lat="43.62374" lon="6.60776">
        <ele>788.6</ele>
        <time>2023-11-26T10:36:27Z</time>
      </trkpt>
      <trkpt lat="43.62374" lon="6.60776">
        <ele>788.6</ele>
        <time>2023-11-26T10:36:28Z</time>
      </trkpt>
      <trkpt lat="43.62374" lon="6.60776">
        <ele>788.6</ele>
        <time>2023-11-26T10:36:29Z</time>
      </trkpt>
      <trkpt lat="43.62374" lon="6.60776">
        <ele>788.7</ele>
        <time>2023-11-26T10:36:30Z</time>
      </trkpt>
      <trkpt lat="43.62374" lon="6.60776">
        <ele>788.7</ele>
        <time>2023-11-26T10:36:31Z</time>
      </trkpt>
      <trkpt lat="43.62374" lon="6.60776">
        <ele>788.7</ele>
        <time>2023-11-26T10:36:32Z</time>
      </trkpt>
      <trkpt lat="43.62374" lon="6.60776">
        <ele>788.7</ele>
        <time>2023-11-26T10:36:33Z</time>
      </trkpt>
      <trkpt lat="43.62374" lon="6.60776">
        <ele>788.7</ele>
        <time>2023-11-26T10:36:34Z</time>
      </trkpt>
      <trkpt lat="43.62374" lon="6.60776">
        <ele>788.7</ele>
        <time>2023-11-26T10:36:35Z</time>
      </trkpt>
      <trkpt lat="43.62374" lon="6.60776">
        <ele>788.7</ele>
        <time>2023-11-26T10:36:36Z</time>
      </trkpt>
      <trkpt lat="43.62375" lon="6.60776">
        <ele>788.7</ele>
        <time>2023-11-26T10:36:37Z</time>
      </trkpt>
      <trkpt lat="43.62375" lon="6.60776">
        <ele>788.6</ele>
        <time>2023-11-26T10:36:38Z</time>
      </trkpt>
      <trkpt lat="43.62375" lon="6.60776">
        <ele>788.7</ele>
        <time>2023-11-26T10:36:39Z</time>
      </trkpt>
      <trkpt lat="43.62375" lon="6.60776">
        <ele>788.7</ele>
        <time>2023-11-26T10:36:40Z</time>
      </trkpt>
      <trkpt lat="43.62375" lon="6.60776">
        <ele>788.7</ele>
        <time>2023-11-26T10:36:41Z</time>
      </trkpt>
      <trkpt lat="43.62375" lon="6.60776">
        <ele>788.6</ele>
        <time>2023-11-26T10:36:42Z</time>
      </trkpt>
      <trkpt lat="43.62375" lon="6.60776">
        <ele>788.5</ele>
        <time>2023-11-26T10:36:43Z</time>
      </trkpt>
      <trkpt lat="43.62375" lon="6.60776">
        <ele>788.6</ele>
        <time>2023-11-26T10:36:44Z</time>
      </trkpt>
      <trkpt lat="43.62375" lon="6.60776">
        <ele>788.6</ele>
        <time>2023-11-26T10:36:45Z</time>
      </trkpt>
      <trkpt lat="43.62375" lon="6.60776">
        <ele>788.6</ele>
        <time>2023-11-26T10:36:46Z</time>
      </trkpt>
      <trkpt lat="43.62375" lon="6.60776">
        <ele>788.6</ele>
        <time>2023-11-26T10:36:47Z</time>
      </trkpt>
      <trkpt lat="43.62375" lon="6.60776">
        <ele>788.6</ele>
        <time>2023-11-26T10:36:48Z</time>
      </trkpt>
      <trkpt lat="43.62375" lon="6.60776">
        <ele>788.6</ele>
        <time>2023-11-26T10:36:49Z</time>
      </trkpt>
      <trkpt lat="43.62375" lon="6.60776">
        <ele>788.7</ele>
        <time>2023-11-26T10:36:50Z</time>
      </trkpt>
      <trkpt lat="43.62375" lon="6.60776">
        <ele>788.7</ele>
        <time>2023-11-26T10:36:51Z</time>
      </trkpt>
      <trkpt lat="43.62375" lon="6.60776">
        <ele>788.7</ele>
        <time>2023-11-26T10:36:52Z</time>
      </trkpt>
      <trkpt lat="43.62375" lon="6.60776">
        <ele>788.7</ele>
        <time>2023-11-26T10:36:53Z</time>
      </trkpt>
      <trkpt lat="43.62375" lon="6.60776">
        <ele>788.7</ele>
        <time>2023-11-26T10:36:54Z</time>
      </trkpt>
      <trkpt lat="43.62375" lon="6.60775">
        <ele>788.7</ele>
        <time>2023-11-26T10:36:55Z</time>
      </trkpt>
      <trkpt lat="43.62375" lon="6.60775">
        <ele>788.6</ele>
        <time>2023-11-26T10:36:56Z</time>
      </trkpt>
      <trkpt lat="43.62375" lon="6.60775">
        <ele>788.6</ele>
        <time>2023-11-26T10:36:57Z</time>
      </trkpt>
      <trkpt lat="43.62375" lon="6.60775">
        <ele>788.6</ele>
        <time>2023-11-26T10:36:58Z</time>
      </trkpt>
      <trkpt lat="43.62375" lon="6.60775">
        <ele>788.6</ele>
        <time>2023-11-26T10:36:59Z</time>
      </trkpt>
      <trkpt lat="43.62375" lon="6.60775">
        <ele>788.6</ele>
        <time>2023-11-26T10:37:00Z</time>
      </trkpt>
      <trkpt lat="43.62375" lon="6.60775">
        <ele>788.6</ele>
        <time>2023-11-26T10:37:01Z</time>
      </trkpt>
      <trkpt lat="43.62375" lon="6.60775">
        <ele>788.6</ele>
        <time>2023-11-26T10:37:02Z</time>
      </trkpt>
      <trkpt lat="43.62375" lon="6.60775">
        <ele>788.6</ele>
        <time>2023-11-26T10:37:03Z</time>
      </trkpt>
      <trkpt lat="43.62375" lon="6.60775">
        <ele>788.7</ele>
        <time>2023-11-26T10:37:04Z</time>
      </trkpt>
      <trkpt lat="43.62375" lon="6.60775">
        <ele>788.7</ele>
        <time>2023-11-26T10:37:05Z</time>
      </trkpt>
      <trkpt lat="43.62375" lon="6.60775">
        <ele>788.8</ele>
        <time>2023-11-26T10:37:06Z</time>
      </trkpt>
      <trkpt lat="43.62375" lon="6.60775">
        <ele>788.8</ele>
        <time>2023-11-26T10:37:07Z</time>
      </trkpt>
      <trkpt lat="43.62375" lon="6.60775">
        <ele>788.8</ele>
        <time>2023-11-26T10:37:08Z</time>
      </trkpt>
      <trkpt lat="43.62375" lon="6.60775">
        <ele>788.8</ele>
        <time>2023-11-26T10:37:09Z</time>
      </trkpt>
      <trkpt lat="43.62375" lon="6.60774">
        <ele>788.8</ele>
        <time>2023-11-26T10:37:10Z</time>
      </trkpt>
      <trkpt lat="43.62376" lon="6.60774">
        <ele>788.8</ele>
        <time>2023-11-26T10:37:11Z</time>
      </trkpt>
      <trkpt lat="43.62376" lon="6.60774">
        <ele>788.8</ele>
        <time>2023-11-26T10:37:12Z</time>
      </trkpt>
      <trkpt lat="43.62376" lon="6.60774">
        <ele>788.9</ele>
        <time>2023-11-26T10:37:13Z</time>
      </trkpt>
      <trkpt lat="43.62376" lon="6.60774">
        <ele>788.9</ele>
        <time>2023-11-26T10:37:14Z</time>
      </trkpt>
      <trkpt lat="43.62376" lon="6.60774">
        <ele>788.9</ele>
        <time>2023-11-26T10:37:15Z</time>
      </trkpt>
      <trkpt lat="43.62376" lon="6.60774">
        <ele>788.9</ele>
        <time>2023-11-26T10:37:16Z</time>
      </trkpt>
      <trkpt lat="43.62376" lon="6.60774">
        <ele>788.9</ele>
        <time>2023-11-26T10:37:17Z</time>
      </trkpt>
      <trkpt lat="43.62376" lon="6.60774">
        <ele>788.8</ele>
        <time>2023-11-26T10:37:18Z</time>
      </trkpt>
      <trkpt lat="43.62376" lon="6.60774">
        <ele>788.7</ele>
        <time>2023-11-26T10:37:19Z</time>
      </trkpt>
      <trkpt lat="43.62376" lon="6.60774">
        <ele>788.6</ele>
        <time>2023-11-26T10:37:20Z</time>
      </trkpt>
      <trkpt lat="43.62376" lon="6.60774">
        <ele>788.6</ele>
        <time>2023-11-26T10:37:21Z</time>
      </trkpt>
      <trkpt lat="43.62376" lon="6.60774">
        <ele>788.7</ele>
        <time>2023-11-26T10:37:22Z</time>
      </trkpt>
      <trkpt lat="43.62376" lon="6.60773">
        <ele>788.7</ele>
        <time>2023-11-26T10:37:23Z</time>
      </trkpt>
      <trkpt lat="43.62376" lon="6.60773">
        <ele>788.7</ele>
        <time>2023-11-26T10:37:24Z</time>
      </trkpt>
      <trkpt lat="43.62376" lon="6.60773">
        <ele>788.6</ele>
        <time>2023-11-26T10:37:25Z</time>
      </trkpt>
      <trkpt lat="43.62376" lon="6.60773">
        <ele>788.6</ele>
        <time>2023-11-26T10:37:26Z</time>
      </trkpt>
      <trkpt lat="43.62376" lon="6.60773">
        <ele>788.5</ele>
        <time>2023-11-26T10:37:27Z</time>
      </trkpt>
      <trkpt lat="43.62376" lon="6.60773">
        <ele>788.5</ele>
        <time>2023-11-26T10:37:28Z</time>
      </trkpt>
      <trkpt lat="43.62376" lon="6.60773">
        <ele>788.4</ele>
        <time>2023-11-26T10:37:29Z</time>
      </trkpt>
      <trkpt lat="43.62376" lon="6.60773">
        <ele>788.5</ele>
        <time>2023-11-26T10:37:30Z</time>
      </trkpt>
      <trkpt lat="43.62376" lon="6.60773">
        <ele>788.6</ele>
        <time>2023-11-26T10:37:31Z</time>
      </trkpt>
      <trkpt lat="43.62376" lon="6.60773">
        <ele>788.6</ele>
        <time>2023-11-26T10:37:32Z</time>
      </trkpt>
      <trkpt lat="43.62376" lon="6.60773">
        <ele>788.7</ele>
        <time>2023-11-26T10:37:33Z</time>
      </trkpt>
      <trkpt lat="43.62376" lon="6.60773">
        <ele>788.7</ele>
        <time>2023-11-26T10:37:34Z</time>
      </trkpt>
      <trkpt lat="43.62376" lon="6.60773">
        <ele>788.8</ele>
        <time>2023-11-26T10:37:35Z</time>
      </trkpt>
      <trkpt lat="43.62376" lon="6.60773">
        <ele>788.8</ele>
        <time>2023-11-26T10:37:36Z</time>
      </trkpt>
      <trkpt lat="43.62376" lon="6.60773">
        <ele>788.8</ele>
        <time>2023-11-26T10:37:37Z</time>
      </trkpt>
      <trkpt lat="43.62376" lon="6.60773">
        <ele>788.7</ele>
        <time>2023-11-26T10:37:38Z</time>
      </trkpt>
      <trkpt lat="43.62376" lon="6.60773">
        <ele>788.6</ele>
        <time>2023-11-26T10:37:39Z</time>
      </trkpt>
      <trkpt lat="43.62376" lon="6.60773">
        <ele>788.6</ele>
        <time>2023-11-26T10:37:40Z</time>
      </trkpt>
      <trkpt lat="43.62376" lon="6.60773">
        <ele>788.6</ele>
        <time>2023-11-26T10:37:41Z</time>
      </trkpt>
      <trkpt lat="43.62376" lon="6.60773">
        <ele>788.6</ele>
        <time>2023-11-26T10:37:42Z</time>
      </trkpt>
      <trkpt lat="43.62376" lon="6.60773">
        <ele>788.5</ele>
        <time>2023-11-26T10:37:43Z</time>
      </trkpt>
      <trkpt lat="43.62376" lon="6.60773">
        <ele>788.5</ele>
        <time>2023-11-26T10:37:44Z</time>
      </trkpt>
      <trkpt lat="43.62376" lon="6.60773">
        <ele>788.5</ele>
        <time>2023-11-26T10:37:45Z</time>
      </trkpt>
      <trkpt lat="43.62376" lon="6.60773">
        <ele>788.5</ele>
        <time>2023-11-26T10:37:46Z</time>
      </trkpt>
      <trkpt lat="43.62376" lon="6.60773">
        <ele>788.5</ele>
        <time>2023-11-26T10:37:47Z</time>
      </trkpt>
      <trkpt lat="43.62376" lon="6.60773">
        <ele>788.5</ele>
        <time>2023-11-26T10:37:48Z</time>
      </trkpt>
      <trkpt lat="43.62376" lon="6.60773">
        <ele>788.5</ele>
        <time>2023-11-26T10:37:49Z</time>
      </trkpt>
      <trkpt lat="43.62376" lon="6.60773">
        <ele>788.5</ele>
        <time>2023-11-26T10:37:50Z</time>
      </trkpt>
      <trkpt lat="43.62376" lon="6.60773">
        <ele>788.5</ele>
        <time>2023-11-26T10:37:51Z</time>
      </trkpt>
      <trkpt lat="43.62376" lon="6.60773">
        <ele>788.5</ele>
        <time>2023-11-26T10:37:52Z</time>
      </trkpt>
      <trkpt lat="43.62376" lon="6.60773">
        <ele>788.6</ele>
        <time>2023-11-26T10:37:53Z</time>
      </trkpt>
      <trkpt lat="43.62376" lon="6.60773">
        <ele>788.6</ele>
        <time>2023-11-26T10:37:54Z</time>
      </trkpt>
      <trkpt lat="43.62376" lon="6.60773">
        <ele>788.6</ele>
        <time>2023-11-26T10:37:55Z</time>
      </trkpt>
      <trkpt lat="43.62376" lon="6.60772">
        <ele>788.6</ele>
        <time>2023-11-26T10:37:56Z</time>
      </trkpt>
      <trkpt lat="43.62376" lon="6.60772">
        <ele>788.6</ele>
        <time>2023-11-26T10:37:57Z</time>
      </trkpt>
      <trkpt lat="43.62376" lon="6.60772">
        <ele>788.6</ele>
        <time>2023-11-26T10:37:58Z</time>
      </trkpt>
      <trkpt lat="43.62376" lon="6.60772">
        <ele>788.7</ele>
        <time>2023-11-26T10:37:59Z</time>
      </trkpt>
      <trkpt lat="43.62376" lon="6.60772">
        <ele>788.6</ele>
        <time>2023-11-26T10:38:00Z</time>
      </trkpt>
      <trkpt lat="43.62376" lon="6.60772">
        <ele>788.6</ele>
        <time>2023-11-26T10:38:01Z</time>
      </trkpt>
      <trkpt lat="43.62376" lon="6.60772">
        <ele>788.6</ele>
        <time>2023-11-26T10:38:02Z</time>
      </trkpt>
      <trkpt lat="43.62376" lon="6.60772">
        <ele>788.5</ele>
        <time>2023-11-26T10:38:03Z</time>
      </trkpt>
      <trkpt lat="43.62376" lon="6.60772">
        <ele>788.5</ele>
        <time>2023-11-26T10:38:04Z</time>
      </trkpt>
      <trkpt lat="43.62376" lon="6.60772">
        <ele>788.5</ele>
        <time>2023-11-26T10:38:05Z</time>
      </trkpt>
      <trkpt lat="43.62376" lon="6.60772">
        <ele>788.4</ele>
        <time>2023-11-26T10:38:06Z</time>
      </trkpt>
      <trkpt lat="43.62376" lon="6.60772">
        <ele>788.4</ele>
        <time>2023-11-26T10:38:07Z</time>
      </trkpt>
      <trkpt lat="43.62376" lon="6.60772">
        <ele>788.3</ele>
        <time>2023-11-26T10:38:08Z</time>
      </trkpt>
      <trkpt lat="43.62376" lon="6.60772">
        <ele>788.3</ele>
        <time>2023-11-26T10:38:09Z</time>
      </trkpt>
      <trkpt lat="43.62376" lon="6.60772">
        <ele>788.2</ele>
        <time>2023-11-26T10:38:10Z</time>
      </trkpt>
      <trkpt lat="43.62376" lon="6.60772">
        <ele>788.3</ele>
        <time>2023-11-26T10:38:11Z</time>
      </trkpt>
      <trkpt lat="43.62377" lon="6.60771">
        <ele>788.3</ele>
        <time>2023-11-26T10:38:12Z</time>
      </trkpt>
      <trkpt lat="43.62377" lon="6.60771">
        <ele>788.3</ele>
        <time>2023-11-26T10:38:13Z</time>
      </trkpt>
      <trkpt lat="43.62377" lon="6.60771">
        <ele>788.3</ele>
        <time>2023-11-26T10:38:14Z</time>
      </trkpt>
      <trkpt lat="43.62377" lon="6.60771">
        <ele>788.4</ele>
        <time>2023-11-26T10:38:15Z</time>
      </trkpt>
      <trkpt lat="43.62377" lon="6.60771">
        <ele>788.4</ele>
        <time>2023-11-26T10:38:16Z</time>
      </trkpt>
      <trkpt lat="43.62377" lon="6.60771">
        <ele>788.5</ele>
        <time>2023-11-26T10:38:17Z</time>
      </trkpt>
      <trkpt lat="43.62376" lon="6.60771">
        <ele>788.6</ele>
        <time>2023-11-26T10:38:18Z</time>
      </trkpt>
      <trkpt lat="43.62376" lon="6.60771">
        <ele>788.6</ele>
        <time>2023-11-26T10:38:19Z</time>
      </trkpt>
      <trkpt lat="43.62376" lon="6.60771">
        <ele>788.7</ele>
        <time>2023-11-26T10:38:20Z</time>
      </trkpt>
      <trkpt lat="43.62376" lon="6.60772">
        <ele>788.8</ele>
        <time>2023-11-26T10:38:21Z</time>
      </trkpt>
      <trkpt lat="43.62376" lon="6.60772">
        <ele>788.8</ele>
        <time>2023-11-26T10:38:22Z</time>
      </trkpt>
      <trkpt lat="43.62376" lon="6.60772">
        <ele>788.8</ele>
        <time>2023-11-26T10:38:23Z</time>
      </trkpt>
      <trkpt lat="43.62376" lon="6.60772">
        <ele>788.8</ele>
        <time>2023-11-26T10:38:24Z</time>
      </trkpt>
      <trkpt lat="43.62376" lon="6.60772">
        <ele>788.8</ele>
        <time>2023-11-26T10:38:25Z</time>
      </trkpt>
      <trkpt lat="43.62376" lon="6.60772">
        <ele>788.8</ele>
        <time>2023-11-26T10:38:26Z</time>
      </trkpt>
      <trkpt lat="43.62376" lon="6.60772">
        <ele>788.8</ele>
        <time>2023-11-26T10:38:27Z</time>
      </trkpt>
      <trkpt lat="43.62376" lon="6.60772">
        <ele>788.8</ele>
        <time>2023-11-26T10:38:28Z</time>
      </trkpt>
      <trkpt lat="43.62376" lon="6.60772">
        <ele>788.8</ele>
        <time>2023-11-26T10:38:29Z</time>
      </trkpt>
      <trkpt lat="43.62376" lon="6.60772">
        <ele>788.8</ele>
        <time>2023-11-26T10:38:30Z</time>
      </trkpt>
      <trkpt lat="43.62376" lon="6.60772">
        <ele>788.7</ele>
        <time>2023-11-26T10:38:31Z</time>
      </trkpt>
      <trkpt lat="43.62376" lon="6.60772">
        <ele>788.7</ele>
        <time>2023-11-26T10:38:32Z</time>
      </trkpt>
      <trkpt lat="43.62376" lon="6.60772">
        <ele>788.8</ele>
        <time>2023-11-26T10:38:33Z</time>
      </trkpt>
      <trkpt lat="43.62376" lon="6.60772">
        <ele>788.8</ele>
        <time>2023-11-26T10:38:34Z</time>
      </trkpt>
      <trkpt lat="43.62376" lon="6.60772">
        <ele>788.8</ele>
        <time>2023-11-26T10:38:35Z</time>
      </trkpt>
      <trkpt lat="43.62376" lon="6.60772">
        <ele>788.8</ele>
        <time>2023-11-26T10:38:36Z</time>
      </trkpt>
      <trkpt lat="43.62376" lon="6.60772">
        <ele>788.8</ele>
        <time>2023-11-26T10:38:37Z</time>
      </trkpt>
      <trkpt lat="43.62376" lon="6.60772">
        <ele>788.7</ele>
        <time>2023-11-26T10:38:38Z</time>
      </trkpt>
      <trkpt lat="43.62376" lon="6.60772">
        <ele>788.7</ele>
        <time>2023-11-26T10:38:39Z</time>
      </trkpt>
      <trkpt lat="43.62376" lon="6.60772">
        <ele>788.6</ele>
        <time>2023-11-26T10:38:40Z</time>
      </trkpt>
      <trkpt lat="43.62376" lon="6.60773">
        <ele>788.6</ele>
        <time>2023-11-26T10:38:41Z</time>
      </trkpt>
      <trkpt lat="43.62376" lon="6.60773">
        <ele>788.5</ele>
        <time>2023-11-26T10:38:42Z</time>
      </trkpt>
      <trkpt lat="43.62376" lon="6.60773">
        <ele>788.6</ele>
        <time>2023-11-26T10:38:43Z</time>
      </trkpt>
      <trkpt lat="43.62376" lon="6.60773">
        <ele>788.6</ele>
        <time>2023-11-26T10:38:44Z</time>
      </trkpt>
      <trkpt lat="43.62376" lon="6.60773">
        <ele>788.6</ele>
        <time>2023-11-26T10:38:45Z</time>
      </trkpt>
      <trkpt lat="43.62376" lon="6.60773">
        <ele>788.5</ele>
        <time>2023-11-26T10:38:46Z</time>
      </trkpt>
      <trkpt lat="43.62376" lon="6.60773">
        <ele>788.5</ele>
        <time>2023-11-26T10:38:47Z</time>
      </trkpt>
      <trkpt lat="43.62376" lon="6.60773">
        <ele>788.5</ele>
        <time>2023-11-26T10:38:48Z</time>
      </trkpt>
      <trkpt lat="43.62376" lon="6.60773">
        <ele>788.5</ele>
        <time>2023-11-26T10:38:49Z</time>
      </trkpt>
      <trkpt lat="43.62376" lon="6.60773">
        <ele>788.5</ele>
        <time>2023-11-26T10:38:50Z</time>
      </trkpt>
      <trkpt lat="43.62376" lon="6.60773">
        <ele>788.5</ele>
        <time>2023-11-26T10:38:51Z</time>
      </trkpt>
      <trkpt lat="43.62376" lon="6.60774">
        <ele>788.4</ele>
        <time>2023-11-26T10:38:52Z</time>
      </trkpt>
      <trkpt lat="43.62376" lon="6.60773">
        <ele>788.4</ele>
        <time>2023-11-26T10:38:53Z</time>
      </trkpt>
      <trkpt lat="43.62376" lon="6.60773">
        <ele>788.4</ele>
        <time>2023-11-26T10:38:54Z</time>
      </trkpt>
      <trkpt lat="43.62376" lon="6.60773">
        <ele>788.4</ele>
        <time>2023-11-26T10:38:55Z</time>
      </trkpt>
      <trkpt lat="43.62376" lon="6.60773">
        <ele>788.4</ele>
        <time>2023-11-26T10:38:56Z</time>
      </trkpt>
      <trkpt lat="43.62376" lon="6.60773">
        <ele>788.3</ele>
        <time>2023-11-26T10:38:57Z</time>
      </trkpt>
      <trkpt lat="43.62376" lon="6.60773">
        <ele>788.4</ele>
        <time>2023-11-26T10:38:58Z</time>
      </trkpt>
      <trkpt lat="43.62376" lon="6.60773">
        <ele>788.4</ele>
        <time>2023-11-26T10:38:59Z</time>
      </trkpt>
      <trkpt lat="43.62376" lon="6.60773">
        <ele>788.3</ele>
        <time>2023-11-26T10:39:00Z</time>
      </trkpt>
      <trkpt lat="43.62376" lon="6.60773">
        <ele>788.3</ele>
        <time>2023-11-26T10:39:01Z</time>
      </trkpt>
      <trkpt lat="43.62376" lon="6.60773">
        <ele>788.3</ele>
        <time>2023-11-26T10:39:02Z</time>
      </trkpt>
      <trkpt lat="43.62376" lon="6.60773">
        <ele>788.3</ele>
        <time>2023-11-26T10:39:03Z</time>
      </trkpt>
      <trkpt lat="43.62376" lon="6.60773">
        <ele>788.3</ele>
        <time>2023-11-26T10:39:04Z</time>
      </trkpt>
      <trkpt lat="43.62376" lon="6.60773">
        <ele>788.3</ele>
        <time>2023-11-26T10:39:05Z</time>
      </trkpt>
      <trkpt lat="43.62376" lon="6.60774">
        <ele>788.3</ele>
        <time>2023-11-26T10:39:06Z</time>
      </trkpt>
      <trkpt lat="43.62375" lon="6.60774">
        <ele>788.4</ele>
        <time>2023-11-26T10:39:07Z</time>
      </trkpt>
      <trkpt lat="43.62375" lon="6.60773">
        <ele>788.3</ele>
        <time>2023-11-26T10:39:08Z</time>
      </trkpt>
      <trkpt lat="43.62375" lon="6.60773">
        <ele>788.3</ele>
        <time>2023-11-26T10:39:09Z</time>
      </trkpt>
      <trkpt lat="43.62375" lon="6.60773">
        <ele>788.3</ele>
        <time>2023-11-26T10:39:10Z</time>
      </trkpt>
      <trkpt lat="43.62375" lon="6.60773">
        <ele>788.2</ele>
        <time>2023-11-26T10:39:11Z</time>
      </trkpt>
      <trkpt lat="43.62375" lon="6.60773">
        <ele>788.3</ele>
        <time>2023-11-26T10:39:12Z</time>
      </trkpt>
      <trkpt lat="43.62375" lon="6.60773">
        <ele>788.3</ele>
        <time>2023-11-26T10:39:13Z</time>
      </trkpt>
      <trkpt lat="43.62375" lon="6.60774">
        <ele>788.4</ele>
        <time>2023-11-26T10:39:14Z</time>
      </trkpt>
      <trkpt lat="43.62375" lon="6.60774">
        <ele>788.4</ele>
        <time>2023-11-26T10:39:15Z</time>
      </trkpt>
      <trkpt lat="43.62375" lon="6.60773">
        <ele>788.4</ele>
        <time>2023-11-26T10:39:16Z</time>
      </trkpt>
      <trkpt lat="43.62375" lon="6.60773">
        <ele>788.4</ele>
        <time>2023-11-26T10:39:17Z</time>
      </trkpt>
      <trkpt lat="43.62375" lon="6.60773">
        <ele>788.4</ele>
        <time>2023-11-26T10:39:18Z</time>
      </trkpt>
      <trkpt lat="43.62375" lon="6.60773">
        <ele>788.5</ele>
        <time>2023-11-26T10:39:19Z</time>
      </trkpt>
      <trkpt lat="43.62375" lon="6.60773">
        <ele>788.5</ele>
        <time>2023-11-26T10:39:20Z</time>
      </trkpt>
      <trkpt lat="43.62375" lon="6.60773">
        <ele>788.5</ele>
        <time>2023-11-26T10:39:21Z</time>
      </trkpt>
      <trkpt lat="43.62375" lon="6.60773">
        <ele>788.6</ele>
        <time>2023-11-26T10:39:22Z</time>
      </trkpt>
      <trkpt lat="43.62375" lon="6.60773">
        <ele>788.5</ele>
        <time>2023-11-26T10:39:23Z</time>
      </trkpt>
      <trkpt lat="43.62375" lon="6.60773">
        <ele>788.5</ele>
        <time>2023-11-26T10:39:24Z</time>
      </trkpt>
      <trkpt lat="43.62375" lon="6.60774">
        <ele>788.5</ele>
        <time>2023-11-26T10:39:25Z</time>
      </trkpt>
      <trkpt lat="43.62375" lon="6.60774">
        <ele>788.5</ele>
        <time>2023-11-26T10:39:26Z</time>
      </trkpt>
      <trkpt lat="43.62375" lon="6.60774">
        <ele>788.5</ele>
        <time>2023-11-26T10:39:27Z</time>
      </trkpt>
      <trkpt lat="43.62375" lon="6.60774">
        <ele>788.5</ele>
        <time>2023-11-26T10:39:28Z</time>
      </trkpt>
      <trkpt lat="43.62375" lon="6.60774">
        <ele>788.5</ele>
        <time>2023-11-26T10:39:29Z</time>
      </trkpt>
      <trkpt lat="43.62375" lon="6.60774">
        <ele>788.4</ele>
        <time>2023-11-26T10:39:30Z</time>
      </trkpt>
      <trkpt lat="43.62375" lon="6.60774">
        <ele>788.4</ele>
        <time>2023-11-26T10:39:31Z</time>
      </trkpt>
      <trkpt lat="43.62375" lon="6.60774">
        <ele>788.5</ele>
        <time>2023-11-26T10:39:32Z</time>
      </trkpt>
      <trkpt lat="43.62375" lon="6.60774">
        <ele>788.4</ele>
        <time>2023-11-26T10:39:33Z</time>
      </trkpt>
      <trkpt lat="43.62375" lon="6.60774">
        <ele>788.4</ele>
        <time>2023-11-26T10:39:34Z</time>
      </trkpt>
      <trkpt lat="43.62375" lon="6.60774">
        <ele>788.4</ele>
        <time>2023-11-26T10:39:35Z</time>
      </trkpt>
      <trkpt lat="43.62375" lon="6.60774">
        <ele>788.4</ele>
        <time>2023-11-26T10:39:36Z</time>
      </trkpt>
      <trkpt lat="43.62375" lon="6.60774">
        <ele>788.4</ele>
        <time>2023-11-26T10:39:37Z</time>
      </trkpt>
      <trkpt lat="43.62375" lon="6.60774">
        <ele>788.4</ele>
        <time>2023-11-26T10:39:38Z</time>
      </trkpt>
      <trkpt lat="43.62375" lon="6.60774">
        <ele>788.3</ele>
        <time>2023-11-26T10:39:39Z</time>
      </trkpt>
      <trkpt lat="43.62375" lon="6.60774">
        <ele>788.2</ele>
        <time>2023-11-26T10:39:40Z</time>
      </trkpt>
      <trkpt lat="43.62375" lon="6.60774">
        <ele>788.4</ele>
        <time>2023-11-26T10:39:41Z</time>
      </trkpt>
      <trkpt lat="43.62375" lon="6.60774">
        <ele>788.4</ele>
        <time>2023-11-26T10:39:42Z</time>
      </trkpt>
      <trkpt lat="43.62375" lon="6.60774">
        <ele>788.5</ele>
        <time>2023-11-26T10:39:43Z</time>
      </trkpt>
      <trkpt lat="43.62375" lon="6.60774">
        <ele>788.5</ele>
        <time>2023-11-26T10:39:44Z</time>
      </trkpt>
      <trkpt lat="43.62375" lon="6.60774">
        <ele>788.5</ele>
        <time>2023-11-26T10:39:45Z</time>
      </trkpt>
      <trkpt lat="43.62375" lon="6.60774">
        <ele>788.5</ele>
        <time>2023-11-26T10:39:46Z</time>
      </trkpt>
      <trkpt lat="43.62375" lon="6.60774">
        <ele>788.5</ele>
        <time>2023-11-26T10:39:47Z</time>
      </trkpt>
      <trkpt lat="43.62375" lon="6.60774">
        <ele>788.5</ele>
        <time>2023-11-26T10:39:48Z</time>
      </trkpt>
      <trkpt lat="43.62375" lon="6.60774">
        <ele>788.5</ele>
        <time>2023-11-26T10:39:49Z</time>
      </trkpt>
      <trkpt lat="43.62375" lon="6.60774">
        <ele>788.4</ele>
        <time>2023-11-26T10:39:50Z</time>
      </trkpt>
      <trkpt lat="43.62375" lon="6.60774">
        <ele>788.3</ele>
        <time>2023-11-26T10:39:51Z</time>
      </trkpt>
      <trkpt lat="43.62375" lon="6.60774">
        <ele>788.3</ele>
        <time>2023-11-26T10:39:52Z</time>
      </trkpt>
      <trkpt lat="43.62375" lon="6.60774">
        <ele>788.2</ele>
        <time>2023-11-26T10:39:53Z</time>
      </trkpt>
      <trkpt lat="43.62375" lon="6.60774">
        <ele>788.2</ele>
        <time>2023-11-26T10:39:54Z</time>
      </trkpt>
      <trkpt lat="43.62375" lon="6.60774">
        <ele>788.2</ele>
        <time>2023-11-26T10:39:55Z</time>
      </trkpt>
      <trkpt lat="43.62375" lon="6.60774">
        <ele>788.2</ele>
        <time>2023-11-26T10:39:56Z</time>
      </trkpt>
      <trkpt lat="43.62374" lon="6.60774">
        <ele>788.2</ele>
        <time>2023-11-26T10:39:57Z</time>
      </trkpt>
      <trkpt lat="43.62374" lon="6.60773">
        <ele>788.2</ele>
        <time>2023-11-26T10:39:58Z</time>
      </trkpt>
      <trkpt lat="43.62374" lon="6.60773">
        <ele>788.3</ele>
        <time>2023-11-26T10:39:59Z</time>
      </trkpt>
      <trkpt lat="43.62374" lon="6.60773">
        <ele>788.2</ele>
        <time>2023-11-26T10:40:00Z</time>
      </trkpt>
      <trkpt lat="43.62374" lon="6.60773">
        <ele>788.1</ele>
        <time>2023-11-26T10:40:01Z</time>
      </trkpt>
      <trkpt lat="43.62374" lon="6.60773">
        <ele>788.1</ele>
        <time>2023-11-26T10:40:02Z</time>
      </trkpt>
      <trkpt lat="43.62374" lon="6.60773">
        <ele>788.1</ele>
        <time>2023-11-26T10:40:03Z</time>
      </trkpt>
      <trkpt lat="43.62374" lon="6.60773">
        <ele>788.2</ele>
        <time>2023-11-26T10:40:04Z</time>
      </trkpt>
      <trkpt lat="43.62374" lon="6.60773">
        <ele>788.2</ele>
        <time>2023-11-26T10:40:05Z</time>
      </trkpt>
      <trkpt lat="43.62374" lon="6.60773">
        <ele>788.3</ele>
        <time>2023-11-26T10:40:06Z</time>
      </trkpt>
      <trkpt lat="43.62374" lon="6.60773">
        <ele>788.2</ele>
        <time>2023-11-26T10:40:07Z</time>
      </trkpt>
      <trkpt lat="43.62374" lon="6.60773">
        <ele>788.3</ele>
        <time>2023-11-26T10:40:08Z</time>
      </trkpt>
      <trkpt lat="43.62374" lon="6.60773">
        <ele>788.4</ele>
        <time>2023-11-26T10:40:09Z</time>
      </trkpt>
      <trkpt lat="43.62374" lon="6.60773">
        <ele>788.5</ele>
        <time>2023-11-26T10:40:10Z</time>
      </trkpt>
      <trkpt lat="43.62374" lon="6.60773">
        <ele>788.7</ele>
        <time>2023-11-26T10:40:11Z</time>
      </trkpt>
      <trkpt lat="43.62374" lon="6.60773">
        <ele>788.7</ele>
        <time>2023-11-26T10:40:12Z</time>
      </trkpt>
      <trkpt lat="43.62374" lon="6.60773">
        <ele>788.8</ele>
        <time>2023-11-26T10:40:13Z</time>
      </trkpt>
      <trkpt lat="43.62374" lon="6.60773">
        <ele>788.9</ele>
        <time>2023-11-26T10:40:14Z</time>
      </trkpt>
      <trkpt lat="43.62374" lon="6.60773">
        <ele>788.8</ele>
        <time>2023-11-26T10:40:15Z</time>
      </trkpt>
      <trkpt lat="43.62374" lon="6.60773">
        <ele>788.8</ele>
        <time>2023-11-26T10:40:16Z</time>
      </trkpt>
      <trkpt lat="43.62374" lon="6.60773">
        <ele>788.8</ele>
        <time>2023-11-26T10:40:17Z</time>
      </trkpt>
      <trkpt lat="43.62374" lon="6.60773">
        <ele>788.8</ele>
        <time>2023-11-26T10:40:18Z</time>
      </trkpt>
      <trkpt lat="43.62374" lon="6.60773">
        <ele>788.8</ele>
        <time>2023-11-26T10:40:19Z</time>
      </trkpt>
      <trkpt lat="43.62374" lon="6.60773">
        <ele>788.7</ele>
        <time>2023-11-26T10:40:20Z</time>
      </trkpt>
      <trkpt lat="43.62374" lon="6.60773">
        <ele>788.7</ele>
        <time>2023-11-26T10:40:21Z</time>
      </trkpt>
      <trkpt lat="43.62374" lon="6.60773">
        <ele>788.7</ele>
        <time>2023-11-26T10:40:22Z</time>
      </trkpt>
      <trkpt lat="43.62374" lon="6.60773">
        <ele>788.6</ele>
        <time>2023-11-26T10:40:23Z</time>
      </trkpt>
      <trkpt lat="43.62374" lon="6.60773">
        <ele>788.6</ele>
        <time>2023-11-26T10:40:24Z</time>
      </trkpt>
      <trkpt lat="43.62373" lon="6.60773">
        <ele>788.6</ele>
        <time>2023-11-26T10:40:25Z</time>
      </trkpt>
      <trkpt lat="43.62373" lon="6.60773">
        <ele>788.5</ele>
        <time>2023-11-26T10:40:26Z</time>
      </trkpt>
      <trkpt lat="43.62373" lon="6.60773">
        <ele>788.5</ele>
        <time>2023-11-26T10:40:27Z</time>
      </trkpt>
      <trkpt lat="43.62373" lon="6.60773">
        <ele>788.7</ele>
        <time>2023-11-26T10:40:28Z</time>
      </trkpt>
      <trkpt lat="43.62373" lon="6.60773">
        <ele>788.6</ele>
        <time>2023-11-26T10:40:29Z</time>
      </trkpt>
      <trkpt lat="43.62373" lon="6.60773">
        <ele>788.6</ele>
        <time>2023-11-26T10:40:30Z</time>
      </trkpt>
      <trkpt lat="43.62373" lon="6.60773">
        <ele>788.7</ele>
        <time>2023-11-26T10:40:31Z</time>
      </trkpt>
      <trkpt lat="43.62373" lon="6.60774">
        <ele>788.7</ele>
        <time>2023-11-26T10:40:32Z</time>
      </trkpt>
      <trkpt lat="43.62373" lon="6.60774">
        <ele>788.7</ele>
        <time>2023-11-26T10:40:33Z</time>
      </trkpt>
      <trkpt lat="43.62373" lon="6.60773">
        <ele>788.7</ele>
        <time>2023-11-26T10:40:34Z</time>
      </trkpt>
      <trkpt lat="43.62373" lon="6.60774">
        <ele>788.7</ele>
        <time>2023-11-26T10:40:35Z</time>
      </trkpt>
      <trkpt lat="43.62373" lon="6.60774">
        <ele>788.6</ele>
        <time>2023-11-26T10:40:36Z</time>
      </trkpt>
      <trkpt lat="43.62373" lon="6.60774">
        <ele>788.6</ele>
        <time>2023-11-26T10:40:37Z</time>
      </trkpt>
      <trkpt lat="43.62373" lon="6.60774">
        <ele>788.5</ele>
        <time>2023-11-26T10:40:38Z</time>
      </trkpt>
      <trkpt lat="43.62373" lon="6.60774">
        <ele>788.5</ele>
        <time>2023-11-26T10:40:39Z</time>
      </trkpt>
      <trkpt lat="43.62373" lon="6.60774">
        <ele>788.5</ele>
        <time>2023-11-26T10:40:40Z</time>
      </trkpt>
      <trkpt lat="43.62373" lon="6.60773">
        <ele>788.5</ele>
        <time>2023-11-26T10:40:41Z</time>
      </trkpt>
      <trkpt lat="43.62373" lon="6.60773">
        <ele>788.5</ele>
        <time>2023-11-26T10:40:42Z</time>
      </trkpt>
      <trkpt lat="43.62373" lon="6.60773">
        <ele>788.5</ele>
        <time>2023-11-26T10:40:43Z</time>
      </trkpt>
      <trkpt lat="43.62373" lon="6.60773">
        <ele>788.5</ele>
        <time>2023-11-26T10:40:44Z</time>
      </trkpt>
      <trkpt lat="43.62373" lon="6.60773">
        <ele>788.5</ele>
        <time>2023-11-26T10:40:45Z</time>
      </trkpt>
      <trkpt lat="43.62373" lon="6.60773">
        <ele>788.5</ele>
        <time>2023-11-26T10:40:46Z</time>
      </trkpt>
      <trkpt lat="43.62374" lon="6.60773">
        <ele>788.5</ele>
        <time>2023-11-26T10:40:47Z</time>
      </trkpt>
      <trkpt lat="43.62374" lon="6.60773">
        <ele>788.5</ele>
        <time>2023-11-26T10:40:48Z</time>
      </trkpt>
      <trkpt lat="43.62374" lon="6.60773">
        <ele>788.4</ele>
        <time>2023-11-26T10:40:49Z</time>
      </trkpt>
      <trkpt lat="43.62374" lon="6.60773">
        <ele>788.4</ele>
        <time>2023-11-26T10:40:50Z</time>
      </trkpt>
      <trkpt lat="43.62374" lon="6.60773">
        <ele>788.4</ele>
        <time>2023-11-26T10:40:51Z</time>
      </trkpt>
      <trkpt lat="43.62374" lon="6.60773">
        <ele>788.4</ele>
        <time>2023-11-26T10:40:52Z</time>
      </trkpt>
      <trkpt lat="43.62374" lon="6.60773">
        <ele>788.4</ele>
        <time>2023-11-26T10:40:53Z</time>
      </trkpt>
      <trkpt lat="43.62374" lon="6.60773">
        <ele>788.5</ele>
        <time>2023-11-26T10:40:54Z</time>
      </trkpt>
      <trkpt lat="43.62374" lon="6.60773">
        <ele>788.5</ele>
        <time>2023-11-26T10:40:55Z</time>
      </trkpt>
      <trkpt lat="43.62374" lon="6.60773">
        <ele>788.5</ele>
        <time>2023-11-26T10:40:56Z</time>
      </trkpt>
      <trkpt lat="43.62374" lon="6.60773">
        <ele>788.5</ele>
        <time>2023-11-26T10:40:57Z</time>
      </trkpt>
      <trkpt lat="43.62374" lon="6.60773">
        <ele>788.5</ele>
        <time>2023-11-26T10:40:58Z</time>
      </trkpt>
      <trkpt lat="43.62374" lon="6.60773">
        <ele>788.4</ele>
        <time>2023-11-26T10:40:59Z</time>
      </trkpt>
      <trkpt lat="43.62374" lon="6.60773">
        <ele>788.3</ele>
        <time>2023-11-26T10:41:00Z</time>
      </trkpt>
      <trkpt lat="43.62374" lon="6.60773">
        <ele>788.3</ele>
        <time>2023-11-26T10:41:01Z</time>
      </trkpt>
      <trkpt lat="43.62373" lon="6.60773">
        <ele>788.3</ele>
        <time>2023-11-26T10:41:02Z</time>
      </trkpt>
      <trkpt lat="43.62373" lon="6.60773">
        <ele>788.2</ele>
        <time>2023-11-26T10:41:03Z</time>
      </trkpt>
      <trkpt lat="43.62373" lon="6.60773">
        <ele>788.2</ele>
        <time>2023-11-26T10:41:04Z</time>
      </trkpt>
      <trkpt lat="43.62373" lon="6.60773">
        <ele>788.2</ele>
        <time>2023-11-26T10:41:05Z</time>
      </trkpt>
      <trkpt lat="43.62373" lon="6.60773">
        <ele>788.2</ele>
        <time>2023-11-26T10:41:06Z</time>
      </trkpt>
      <trkpt lat="43.62373" lon="6.60773">
        <ele>788.2</ele>
        <time>2023-11-26T10:41:07Z</time>
      </trkpt>
      <trkpt lat="43.62373" lon="6.60773">
        <ele>788.3</ele>
        <time>2023-11-26T10:41:08Z</time>
      </trkpt>
      <trkpt lat="43.62373" lon="6.60774">
        <ele>788.4</ele>
        <time>2023-11-26T10:41:09Z</time>
      </trkpt>
      <trkpt lat="43.62373" lon="6.60774">
        <ele>788.4</ele>
        <time>2023-11-26T10:41:10Z</time>
      </trkpt>
      <trkpt lat="43.62373" lon="6.60774">
        <ele>788.5</ele>
        <time>2023-11-26T10:41:11Z</time>
      </trkpt>
      <trkpt lat="43.62373" lon="6.60774">
        <ele>788.5</ele>
        <time>2023-11-26T10:41:12Z</time>
      </trkpt>
      <trkpt lat="43.62373" lon="6.60774">
        <ele>788.7</ele>
        <time>2023-11-26T10:41:13Z</time>
      </trkpt>
      <trkpt lat="43.62373" lon="6.60774">
        <ele>788.7</ele>
        <time>2023-11-26T10:41:14Z</time>
      </trkpt>
      <trkpt lat="43.62373" lon="6.60774">
        <ele>788.7</ele>
        <time>2023-11-26T10:41:15Z</time>
      </trkpt>
      <trkpt lat="43.62373" lon="6.60774">
        <ele>788.7</ele>
        <time>2023-11-26T10:41:16Z</time>
      </trkpt>
      <trkpt lat="43.62373" lon="6.60774">
        <ele>788.7</ele>
        <time>2023-11-26T10:41:17Z</time>
      </trkpt>
      <trkpt lat="43.62373" lon="6.60774">
        <ele>788.7</ele>
        <time>2023-11-26T10:41:18Z</time>
      </trkpt>
      <trkpt lat="43.62373" lon="6.60775">
        <ele>788.6</ele>
        <time>2023-11-26T10:41:19Z</time>
      </trkpt>
      <trkpt lat="43.62373" lon="6.60775">
        <ele>788.6</ele>
        <time>2023-11-26T10:41:20Z</time>
      </trkpt>
      <trkpt lat="43.62373" lon="6.60775">
        <ele>788.6</ele>
        <time>2023-11-26T10:41:21Z</time>
      </trkpt>
      <trkpt lat="43.62373" lon="6.60775">
        <ele>788.6</ele>
        <time>2023-11-26T10:41:22Z</time>
      </trkpt>
      <trkpt lat="43.62373" lon="6.60775">
        <ele>788.6</ele>
        <time>2023-11-26T10:41:23Z</time>
      </trkpt>
      <trkpt lat="43.62373" lon="6.60775">
        <ele>788.6</ele>
        <time>2023-11-26T10:41:24Z</time>
      </trkpt>
      <trkpt lat="43.62373" lon="6.60775">
        <ele>788.7</ele>
        <time>2023-11-26T10:41:25Z</time>
      </trkpt>
      <trkpt lat="43.62373" lon="6.60774">
        <ele>788.7</ele>
        <time>2023-11-26T10:41:26Z</time>
      </trkpt>
      <trkpt lat="43.62373" lon="6.60774">
        <ele>788.7</ele>
        <time>2023-11-26T10:41:27Z</time>
      </trkpt>
      <trkpt lat="43.62373" lon="6.60774">
        <ele>788.7</ele>
        <time>2023-11-26T10:41:28Z</time>
      </trkpt>
      <trkpt lat="43.62373" lon="6.60774">
        <ele>788.8</ele>
        <time>2023-11-26T10:41:29Z</time>
      </trkpt>
      <trkpt lat="43.62373" lon="6.60774">
        <ele>788.9</ele>
        <time>2023-11-26T10:41:30Z</time>
      </trkpt>
      <trkpt lat="43.62373" lon="6.60775">
        <ele>789</ele>
        <time>2023-11-26T10:41:31Z</time>
      </trkpt>
      <trkpt lat="43.62373" lon="6.60775">
        <ele>789.1</ele>
        <time>2023-11-26T10:41:32Z</time>
      </trkpt>
      <trkpt lat="43.62373" lon="6.60775">
        <ele>789.1</ele>
        <time>2023-11-26T10:41:33Z</time>
      </trkpt>
      <trkpt lat="43.62373" lon="6.60775">
        <ele>789.2</ele>
        <time>2023-11-26T10:41:34Z</time>
      </trkpt>
      <trkpt lat="43.62374" lon="6.60775">
        <ele>789.1</ele>
        <time>2023-11-26T10:41:35Z</time>
      </trkpt>
      <trkpt lat="43.62374" lon="6.60775">
        <ele>789.1</ele>
        <time>2023-11-26T10:41:36Z</time>
      </trkpt>
      <trkpt lat="43.62373" lon="6.60775">
        <ele>789</ele>
        <time>2023-11-26T10:41:37Z</time>
      </trkpt>
      <trkpt lat="43.62373" lon="6.60775">
        <ele>789.1</ele>
        <time>2023-11-26T10:41:38Z</time>
      </trkpt>
      <trkpt lat="43.62373" lon="6.60776">
        <ele>789.2</ele>
        <time>2023-11-26T10:41:39Z</time>
      </trkpt>
      <trkpt lat="43.62373" lon="6.60775">
        <ele>789.2</ele>
        <time>2023-11-26T10:41:40Z</time>
      </trkpt>
      <trkpt lat="43.62373" lon="6.60775">
        <ele>789.2</ele>
        <time>2023-11-26T10:41:41Z</time>
      </trkpt>
      <trkpt lat="43.62373" lon="6.60775">
        <ele>789.2</ele>
        <time>2023-11-26T10:41:42Z</time>
      </trkpt>
      <trkpt lat="43.62373" lon="6.60775">
        <ele>789.1</ele>
        <time>2023-11-26T10:41:43Z</time>
      </trkpt>
      <trkpt lat="43.62373" lon="6.60775">
        <ele>789.1</ele>
        <time>2023-11-26T10:41:44Z</time>
      </trkpt>
      <trkpt lat="43.62373" lon="6.60775">
        <ele>789.1</ele>
        <time>2023-11-26T10:41:45Z</time>
      </trkpt>
      <trkpt lat="43.62373" lon="6.60775">
        <ele>789.1</ele>
        <time>2023-11-26T10:41:46Z</time>
      </trkpt>
      <trkpt lat="43.62374" lon="6.60775">
        <ele>789.1</ele>
        <time>2023-11-26T10:41:47Z</time>
      </trkpt>
      <trkpt lat="43.62373" lon="6.60775">
        <ele>789.2</ele>
        <time>2023-11-26T10:41:48Z</time>
      </trkpt>
      <trkpt lat="43.62373" lon="6.60775">
        <ele>789.2</ele>
        <time>2023-11-26T10:41:49Z</time>
      </trkpt>
      <trkpt lat="43.62373" lon="6.60775">
        <ele>789</ele>
        <time>2023-11-26T10:41:50Z</time>
      </trkpt>
      <trkpt lat="43.62373" lon="6.60775">
        <ele>789</ele>
        <time>2023-11-26T10:41:51Z</time>
      </trkpt>
      <trkpt lat="43.62374" lon="6.60775">
        <ele>789</ele>
        <time>2023-11-26T10:41:52Z</time>
      </trkpt>
      <trkpt lat="43.62374" lon="6.60775">
        <ele>789</ele>
        <time>2023-11-26T10:41:53Z</time>
      </trkpt>
      <trkpt lat="43.62374" lon="6.60775">
        <ele>789</ele>
        <time>2023-11-26T10:41:54Z</time>
      </trkpt>
      <trkpt lat="43.62373" lon="6.60775">
        <ele>789</ele>
        <time>2023-11-26T10:41:55Z</time>
      </trkpt>
      <trkpt lat="43.62373" lon="6.60775">
        <ele>789.1</ele>
        <time>2023-11-26T10:41:56Z</time>
      </trkpt>
      <trkpt lat="43.62374" lon="6.60775">
        <ele>789.1</ele>
        <time>2023-11-26T10:41:57Z</time>
      </trkpt>
      <trkpt lat="43.62374" lon="6.60775">
        <ele>789.1</ele>
        <time>2023-11-26T10:41:58Z</time>
      </trkpt>
      <trkpt lat="43.62374" lon="6.60775">
        <ele>789.1</ele>
        <time>2023-11-26T10:41:59Z</time>
      </trkpt>
      <trkpt lat="43.62373" lon="6.60776">
        <ele>789.1</ele>
        <time>2023-11-26T10:42:00Z</time>
      </trkpt>
      <trkpt lat="43.62373" lon="6.60776">
        <ele>789</ele>
        <time>2023-11-26T10:42:01Z</time>
      </trkpt>
      <trkpt lat="43.62373" lon="6.60776">
        <ele>789</ele>
        <time>2023-11-26T10:42:02Z</time>
      </trkpt>
      <trkpt lat="43.62373" lon="6.60776">
        <ele>788.9</ele>
        <time>2023-11-26T10:42:03Z</time>
      </trkpt>
      <trkpt lat="43.62373" lon="6.60776">
        <ele>788.9</ele>
        <time>2023-11-26T10:42:04Z</time>
      </trkpt>
      <trkpt lat="43.62372" lon="6.60775">
        <ele>788.9</ele>
        <time>2023-11-26T10:42:05Z</time>
      </trkpt>
      <trkpt lat="43.62372" lon="6.60775">
        <ele>788.9</ele>
        <time>2023-11-26T10:42:06Z</time>
      </trkpt>
      <trkpt lat="43.62372" lon="6.60775">
        <ele>789</ele>
        <time>2023-11-26T10:42:07Z</time>
      </trkpt>
      <trkpt lat="43.62372" lon="6.60775">
        <ele>789</ele>
        <time>2023-11-26T10:42:08Z</time>
      </trkpt>
      <trkpt lat="43.62372" lon="6.60775">
        <ele>789</ele>
        <time>2023-11-26T10:42:09Z</time>
      </trkpt>
      <trkpt lat="43.62372" lon="6.60775">
        <ele>789</ele>
        <time>2023-11-26T10:42:10Z</time>
      </trkpt>
      <trkpt lat="43.62372" lon="6.60775">
        <ele>789</ele>
        <time>2023-11-26T10:42:11Z</time>
      </trkpt>
      <trkpt lat="43.62372" lon="6.60775">
        <ele>789</ele>
        <time>2023-11-26T10:42:12Z</time>
      </trkpt>
      <trkpt lat="43.62372" lon="6.60775">
        <ele>789</ele>
        <time>2023-11-26T10:42:13Z</time>
      </trkpt>
      <trkpt lat="43.62372" lon="6.60775">
        <ele>789</ele>
        <time>2023-11-26T10:42:14Z</time>
      </trkpt>
      <trkpt lat="43.62373" lon="6.60775">
        <ele>789</ele>
        <time>2023-11-26T10:42:15Z</time>
      </trkpt>
      <trkpt lat="43.62373" lon="6.60774">
        <ele>788.9</ele>
        <time>2023-11-26T10:42:16Z</time>
      </trkpt>
      <trkpt lat="43.62373" lon="6.60774">
        <ele>788.9</ele>
        <time>2023-11-26T10:42:17Z</time>
      </trkpt>
      <trkpt lat="43.62373" lon="6.60774">
        <ele>789</ele>
        <time>2023-11-26T10:42:18Z</time>
      </trkpt>
      <trkpt lat="43.62373" lon="6.60773">
        <ele>789</ele>
        <time>2023-11-26T10:42:19Z</time>
      </trkpt>
      <trkpt lat="43.62373" lon="6.60773">
        <ele>789</ele>
        <time>2023-11-26T10:42:20Z</time>
      </trkpt>
      <trkpt lat="43.62373" lon="6.60774">
        <ele>789</ele>
        <time>2023-11-26T10:42:21Z</time>
      </trkpt>
      <trkpt lat="43.62373" lon="6.60774">
        <ele>789.1</ele>
        <time>2023-11-26T10:42:22Z</time>
      </trkpt>
      <trkpt lat="43.62373" lon="6.60774">
        <ele>789.1</ele>
        <time>2023-11-26T10:42:23Z</time>
      </trkpt>
      <trkpt lat="43.62373" lon="6.60774">
        <ele>789.1</ele>
        <time>2023-11-26T10:42:24Z</time>
      </trkpt>
      <trkpt lat="43.62373" lon="6.60774">
        <ele>789.2</ele>
        <time>2023-11-26T10:42:25Z</time>
      </trkpt>
      <trkpt lat="43.62373" lon="6.60774">
        <ele>789.1</ele>
        <time>2023-11-26T10:42:26Z</time>
      </trkpt>
      <trkpt lat="43.62373" lon="6.60774">
        <ele>789.1</ele>
        <time>2023-11-26T10:42:27Z</time>
      </trkpt>
      <trkpt lat="43.62373" lon="6.60774">
        <ele>789.1</ele>
        <time>2023-11-26T10:42:28Z</time>
      </trkpt>
      <trkpt lat="43.62373" lon="6.60774">
        <ele>789.1</ele>
        <time>2023-11-26T10:42:29Z</time>
      </trkpt>
      <trkpt lat="43.62373" lon="6.60774">
        <ele>789.1</ele>
        <time>2023-11-26T10:42:30Z</time>
      </trkpt>
      <trkpt lat="43.62373" lon="6.60774">
        <ele>789.1</ele>
        <time>2023-11-26T10:42:31Z</time>
      </trkpt>
      <trkpt lat="43.62373" lon="6.60774">
        <ele>789.1</ele>
        <time>2023-11-26T10:42:32Z</time>
      </trkpt>
      <trkpt lat="43.62373" lon="6.60774">
        <ele>789.1</ele>
        <time>2023-11-26T10:42:33Z</time>
      </trkpt>
      <trkpt lat="43.62373" lon="6.60774">
        <ele>789.1</ele>
        <time>2023-11-26T10:42:34Z</time>
      </trkpt>
      <trkpt lat="43.62373" lon="6.60774">
        <ele>789.1</ele>
        <time>2023-11-26T10:42:35Z</time>
      </trkpt>
      <trkpt lat="43.62373" lon="6.60774">
        <ele>789.1</ele>
        <time>2023-11-26T10:42:36Z</time>
      </trkpt>
      <trkpt lat="43.62373" lon="6.60775">
        <ele>789</ele>
        <time>2023-11-26T10:42:37Z</time>
      </trkpt>
      <trkpt lat="43.62373" lon="6.60775">
        <ele>789</ele>
        <time>2023-11-26T10:42:38Z</time>
      </trkpt>
      <trkpt lat="43.62373" lon="6.60775">
        <ele>789</ele>
        <time>2023-11-26T10:42:39Z</time>
      </trkpt>
      <trkpt lat="43.62373" lon="6.60775">
        <ele>788.9</ele>
        <time>2023-11-26T10:42:40Z</time>
      </trkpt>
      <trkpt lat="43.62373" lon="6.60775">
        <ele>789</ele>
        <time>2023-11-26T10:42:41Z</time>
      </trkpt>
      <trkpt lat="43.62373" lon="6.60775">
        <ele>789</ele>
        <time>2023-11-26T10:42:42Z</time>
      </trkpt>
      <trkpt lat="43.62372" lon="6.60775">
        <ele>789.1</ele>
        <time>2023-11-26T10:42:43Z</time>
      </trkpt>
      <trkpt lat="43.62372" lon="6.60775">
        <ele>789.1</ele>
        <time>2023-11-26T10:42:44Z</time>
      </trkpt>
      <trkpt lat="43.62373" lon="6.60775">
        <ele>789.1</ele>
        <time>2023-11-26T10:42:45Z</time>
      </trkpt>
      <trkpt lat="43.62373" lon="6.60775">
        <ele>789.2</ele>
        <time>2023-11-26T10:42:46Z</time>
      </trkpt>
      <trkpt lat="43.62373" lon="6.60775">
        <ele>789.1</ele>
        <time>2023-11-26T10:42:47Z</time>
      </trkpt>
      <trkpt lat="43.62373" lon="6.60775">
        <ele>789</ele>
        <time>2023-11-26T10:42:48Z</time>
      </trkpt>
      <trkpt lat="43.62373" lon="6.60775">
        <ele>789</ele>
        <time>2023-11-26T10:42:49Z</time>
      </trkpt>
      <trkpt lat="43.62373" lon="6.60775">
        <ele>789</ele>
        <time>2023-11-26T10:42:50Z</time>
      </trkpt>
      <trkpt lat="43.62373" lon="6.60775">
        <ele>789.1</ele>
        <time>2023-11-26T10:42:51Z</time>
      </trkpt>
      <trkpt lat="43.62373" lon="6.60775">
        <ele>789.1</ele>
        <time>2023-11-26T10:42:52Z</time>
      </trkpt>
      <trkpt lat="43.62373" lon="6.60775">
        <ele>789.1</ele>
        <time>2023-11-26T10:42:53Z</time>
      </trkpt>
      <trkpt lat="43.62373" lon="6.60775">
        <ele>789.1</ele>
        <time>2023-11-26T10:42:54Z</time>
      </trkpt>
      <trkpt lat="43.62373" lon="6.60775">
        <ele>789.1</ele>
        <time>2023-11-26T10:42:55Z</time>
      </trkpt>
      <trkpt lat="43.62373" lon="6.60775">
        <ele>789.2</ele>
        <time>2023-11-26T10:42:56Z</time>
      </trkpt>
      <trkpt lat="43.62373" lon="6.60775">
        <ele>789.2</ele>
        <time>2023-11-26T10:42:57Z</time>
      </trkpt>
      <trkpt lat="43.62373" lon="6.60775">
        <ele>789.2</ele>
        <time>2023-11-26T10:42:58Z</time>
      </trkpt>
      <trkpt lat="43.62373" lon="6.60775">
        <ele>789.3</ele>
        <time>2023-11-26T10:42:59Z</time>
      </trkpt>
      <trkpt lat="43.62373" lon="6.60775">
        <ele>789.3</ele>
        <time>2023-11-26T10:43:00Z</time>
      </trkpt>
      <trkpt lat="43.62373" lon="6.60775">
        <ele>789.3</ele>
        <time>2023-11-26T10:43:01Z</time>
      </trkpt>
      <trkpt lat="43.62373" lon="6.60775">
        <ele>789.3</ele>
        <time>2023-11-26T10:43:02Z</time>
      </trkpt>
      <trkpt lat="43.62373" lon="6.60775">
        <ele>789.3</ele>
        <time>2023-11-26T10:43:03Z</time>
      </trkpt>
      <trkpt lat="43.62373" lon="6.60775">
        <ele>789.3</ele>
        <time>2023-11-26T10:43:04Z</time>
      </trkpt>
      <trkpt lat="43.62373" lon="6.60776">
        <ele>789.3</ele>
        <time>2023-11-26T10:43:05Z</time>
      </trkpt>
      <trkpt lat="43.62373" lon="6.60776">
        <ele>789.2</ele>
        <time>2023-11-26T10:43:06Z</time>
      </trkpt>
      <trkpt lat="43.62373" lon="6.60776">
        <ele>789.2</ele>
        <time>2023-11-26T10:43:07Z</time>
      </trkpt>
      <trkpt lat="43.62373" lon="6.60776">
        <ele>789.2</ele>
        <time>2023-11-26T10:43:08Z</time>
      </trkpt>
      <trkpt lat="43.62373" lon="6.60776">
        <ele>789.2</ele>
        <time>2023-11-26T10:43:09Z</time>
      </trkpt>
      <trkpt lat="43.62373" lon="6.60776">
        <ele>789.4</ele>
        <time>2023-11-26T10:43:10Z</time>
      </trkpt>
      <trkpt lat="43.62373" lon="6.60776">
        <ele>789.4</ele>
        <time>2023-11-26T10:43:11Z</time>
      </trkpt>
      <trkpt lat="43.62373" lon="6.60776">
        <ele>789.3</ele>
        <time>2023-11-26T10:43:12Z</time>
      </trkpt>
      <trkpt lat="43.62373" lon="6.60776">
        <ele>789.2</ele>
        <time>2023-11-26T10:43:13Z</time>
      </trkpt>
      <trkpt lat="43.62373" lon="6.60776">
        <ele>789.2</ele>
        <time>2023-11-26T10:43:14Z</time>
      </trkpt>
      <trkpt lat="43.62373" lon="6.60776">
        <ele>789.1</ele>
        <time>2023-11-26T10:43:15Z</time>
      </trkpt>
      <trkpt lat="43.62373" lon="6.60776">
        <ele>789.1</ele>
        <time>2023-11-26T10:43:16Z</time>
      </trkpt>
      <trkpt lat="43.62373" lon="6.60776">
        <ele>789.1</ele>
        <time>2023-11-26T10:43:17Z</time>
      </trkpt>
      <trkpt lat="43.62373" lon="6.60776">
        <ele>789.1</ele>
        <time>2023-11-26T10:43:18Z</time>
      </trkpt>
      <trkpt lat="43.62373" lon="6.60776">
        <ele>789.1</ele>
        <time>2023-11-26T10:43:19Z</time>
      </trkpt>
      <trkpt lat="43.62373" lon="6.60777">
        <ele>789</ele>
        <time>2023-11-26T10:43:20Z</time>
      </trkpt>
      <trkpt lat="43.62373" lon="6.60777">
        <ele>789.1</ele>
        <time>2023-11-26T10:43:21Z</time>
      </trkpt>
      <trkpt lat="43.62372" lon="6.60777">
        <ele>789.2</ele>
        <time>2023-11-26T10:43:22Z</time>
      </trkpt>
      <trkpt lat="43.62373" lon="6.60777">
        <ele>789.1</ele>
        <time>2023-11-26T10:43:23Z</time>
      </trkpt>
      <trkpt lat="43.62373" lon="6.60777">
        <ele>789.1</ele>
        <time>2023-11-26T10:43:24Z</time>
      </trkpt>
      <trkpt lat="43.62373" lon="6.60777">
        <ele>789.1</ele>
        <time>2023-11-26T10:43:25Z</time>
      </trkpt>
      <trkpt lat="43.62373" lon="6.60777">
        <ele>789.1</ele>
        <time>2023-11-26T10:43:26Z</time>
      </trkpt>
      <trkpt lat="43.62373" lon="6.60777">
        <ele>789.3</ele>
        <time>2023-11-26T10:43:27Z</time>
      </trkpt>
      <trkpt lat="43.62373" lon="6.60777">
        <ele>789.4</ele>
        <time>2023-11-26T10:43:28Z</time>
      </trkpt>
      <trkpt lat="43.62373" lon="6.60777">
        <ele>789.5</ele>
        <time>2023-11-26T10:43:29Z</time>
      </trkpt>
      <trkpt lat="43.62373" lon="6.60777">
        <ele>789.6</ele>
        <time>2023-11-26T10:43:30Z</time>
      </trkpt>
      <trkpt lat="43.62372" lon="6.60777">
        <ele>789.6</ele>
        <time>2023-11-26T10:43:31Z</time>
      </trkpt>
      <trkpt lat="43.62373" lon="6.60777">
        <ele>789.6</ele>
        <time>2023-11-26T10:43:32Z</time>
      </trkpt>
      <trkpt lat="43.62372" lon="6.60777">
        <ele>789.5</ele>
        <time>2023-11-26T10:43:33Z</time>
      </trkpt>
      <trkpt lat="43.62372" lon="6.60777">
        <ele>789.5</ele>
        <time>2023-11-26T10:43:34Z</time>
      </trkpt>
      <trkpt lat="43.62372" lon="6.60777">
        <ele>789.5</ele>
        <time>2023-11-26T10:43:35Z</time>
      </trkpt>
      <trkpt lat="43.62372" lon="6.60777">
        <ele>789.4</ele>
        <time>2023-11-26T10:43:36Z</time>
      </trkpt>
      <trkpt lat="43.62372" lon="6.60777">
        <ele>789.4</ele>
        <time>2023-11-26T10:43:37Z</time>
      </trkpt>
      <trkpt lat="43.62372" lon="6.60777">
        <ele>789.3</ele>
        <time>2023-11-26T10:43:38Z</time>
      </trkpt>
      <trkpt lat="43.62372" lon="6.60777">
        <ele>789.3</ele>
        <time>2023-11-26T10:43:39Z</time>
      </trkpt>
      <trkpt lat="43.62372" lon="6.60777">
        <ele>789.2</ele>
        <time>2023-11-26T10:43:40Z</time>
      </trkpt>
      <trkpt lat="43.62372" lon="6.60777">
        <ele>789.2</ele>
        <time>2023-11-26T10:43:41Z</time>
      </trkpt>
      <trkpt lat="43.62372" lon="6.60777">
        <ele>789.2</ele>
        <time>2023-11-26T10:43:42Z</time>
      </trkpt>
      <trkpt lat="43.62372" lon="6.60777">
        <ele>789.1</ele>
        <time>2023-11-26T10:43:43Z</time>
      </trkpt>
      <trkpt lat="43.62372" lon="6.60777">
        <ele>789.1</ele>
        <time>2023-11-26T10:43:44Z</time>
      </trkpt>
      <trkpt lat="43.62372" lon="6.60777">
        <ele>789.1</ele>
        <time>2023-11-26T10:43:45Z</time>
      </trkpt>
      <trkpt lat="43.62372" lon="6.60777">
        <ele>789</ele>
        <time>2023-11-26T10:43:46Z</time>
      </trkpt>
      <trkpt lat="43.62372" lon="6.60777">
        <ele>789</ele>
        <time>2023-11-26T10:43:47Z</time>
      </trkpt>
      <trkpt lat="43.62372" lon="6.60777">
        <ele>789</ele>
        <time>2023-11-26T10:43:48Z</time>
      </trkpt>
      <trkpt lat="43.62372" lon="6.60777">
        <ele>789</ele>
        <time>2023-11-26T10:43:49Z</time>
      </trkpt>
      <trkpt lat="43.62372" lon="6.60777">
        <ele>789.1</ele>
        <time>2023-11-26T10:43:50Z</time>
      </trkpt>
      <trkpt lat="43.62372" lon="6.60777">
        <ele>789.1</ele>
        <time>2023-11-26T10:43:51Z</time>
      </trkpt>
      <trkpt lat="43.62372" lon="6.60777">
        <ele>789.1</ele>
        <time>2023-11-26T10:43:52Z</time>
      </trkpt>
      <trkpt lat="43.62372" lon="6.60777">
        <ele>789.1</ele>
        <time>2023-11-26T10:43:53Z</time>
      </trkpt>
      <trkpt lat="43.62372" lon="6.60777">
        <ele>789.1</ele>
        <time>2023-11-26T10:43:54Z</time>
      </trkpt>
      <trkpt lat="43.62372" lon="6.60777">
        <ele>789.1</ele>
        <time>2023-11-26T10:43:55Z</time>
      </trkpt>
      <trkpt lat="43.62372" lon="6.60777">
        <ele>789</ele>
        <time>2023-11-26T10:43:56Z</time>
      </trkpt>
      <trkpt lat="43.62372" lon="6.60777">
        <ele>789</ele>
        <time>2023-11-26T10:43:57Z</time>
      </trkpt>
      <trkpt lat="43.62373" lon="6.60777">
        <ele>788.9</ele>
        <time>2023-11-26T10:43:58Z</time>
      </trkpt>
      <trkpt lat="43.62373" lon="6.60776">
        <ele>788.8</ele>
        <time>2023-11-26T10:43:59Z</time>
      </trkpt>
      <trkpt lat="43.62373" lon="6.60776">
        <ele>788.8</ele>
        <time>2023-11-26T10:44:00Z</time>
      </trkpt>
      <trkpt lat="43.62373" lon="6.60776">
        <ele>788.8</ele>
        <time>2023-11-26T10:44:01Z</time>
      </trkpt>
      <trkpt lat="43.62373" lon="6.60776">
        <ele>788.8</ele>
        <time>2023-11-26T10:44:02Z</time>
      </trkpt>
      <trkpt lat="43.62373" lon="6.60776">
        <ele>788.9</ele>
        <time>2023-11-26T10:44:03Z</time>
      </trkpt>
      <trkpt lat="43.62373" lon="6.60776">
        <ele>789</ele>
        <time>2023-11-26T10:44:04Z</time>
      </trkpt>
      <trkpt lat="43.62373" lon="6.60776">
        <ele>789</ele>
        <time>2023-11-26T10:44:05Z</time>
      </trkpt>
      <trkpt lat="43.62373" lon="6.60776">
        <ele>789</ele>
        <time>2023-11-26T10:44:06Z</time>
      </trkpt>
      <trkpt lat="43.62373" lon="6.60776">
        <ele>789</ele>
        <time>2023-11-26T10:44:07Z</time>
      </trkpt>
      <trkpt lat="43.62373" lon="6.60776">
        <ele>789</ele>
        <time>2023-11-26T10:44:08Z</time>
      </trkpt>
      <trkpt lat="43.62373" lon="6.60776">
        <ele>789</ele>
        <time>2023-11-26T10:44:09Z</time>
      </trkpt>
      <trkpt lat="43.62373" lon="6.60776">
        <ele>789</ele>
        <time>2023-11-26T10:44:10Z</time>
      </trkpt>
      <trkpt lat="43.62373" lon="6.60775">
        <ele>789.1</ele>
        <time>2023-11-26T10:44:11Z</time>
      </trkpt>
      <trkpt lat="43.62373" lon="6.60775">
        <ele>789.1</ele>
        <time>2023-11-26T10:44:12Z</time>
      </trkpt>
      <trkpt lat="43.62373" lon="6.60775">
        <ele>789.2</ele>
        <time>2023-11-26T10:44:13Z</time>
      </trkpt>
      <trkpt lat="43.62373" lon="6.60775">
        <ele>789.1</ele>
        <time>2023-11-26T10:44:14Z</time>
      </trkpt>
      <trkpt lat="43.62373" lon="6.60775">
        <ele>789.1</ele>
        <time>2023-11-26T10:44:15Z</time>
      </trkpt>
      <trkpt lat="43.62373" lon="6.60775">
        <ele>789</ele>
        <time>2023-11-26T10:44:16Z</time>
      </trkpt>
      <trkpt lat="43.62373" lon="6.60775">
        <ele>789</ele>
        <time>2023-11-26T10:44:17Z</time>
      </trkpt>
      <trkpt lat="43.62373" lon="6.60775">
        <ele>788.9</ele>
        <time>2023-11-26T10:44:18Z</time>
      </trkpt>
      <trkpt lat="43.62373" lon="6.60775">
        <ele>788.9</ele>
        <time>2023-11-26T10:44:19Z</time>
      </trkpt>
      <trkpt lat="43.62373" lon="6.60775">
        <ele>789</ele>
        <time>2023-11-26T10:44:20Z</time>
      </trkpt>
      <trkpt lat="43.62373" lon="6.60775">
        <ele>789.1</ele>
        <time>2023-11-26T10:44:21Z</time>
      </trkpt>
      <trkpt lat="43.62373" lon="6.60775">
        <ele>789.1</ele>
        <time>2023-11-26T10:44:22Z</time>
      </trkpt>
      <trkpt lat="43.62373" lon="6.60776">
        <ele>789.1</ele>
        <time>2023-11-26T10:44:23Z</time>
      </trkpt>
      <trkpt lat="43.62373" lon="6.60776">
        <ele>789.1</ele>
        <time>2023-11-26T10:44:24Z</time>
      </trkpt>
      <trkpt lat="43.62373" lon="6.60776">
        <ele>789</ele>
        <time>2023-11-26T10:44:25Z</time>
      </trkpt>
      <trkpt lat="43.62373" lon="6.60775">
        <ele>788.9</ele>
        <time>2023-11-26T10:44:26Z</time>
      </trkpt>
      <trkpt lat="43.62373" lon="6.60775">
        <ele>788.9</ele>
        <time>2023-11-26T10:44:27Z</time>
      </trkpt>
      <trkpt lat="43.62373" lon="6.60775">
        <ele>788.9</ele>
        <time>2023-11-26T10:44:28Z</time>
      </trkpt>
      <trkpt lat="43.62374" lon="6.60774">
        <ele>788.9</ele>
        <time>2023-11-26T10:44:29Z</time>
      </trkpt>
      <trkpt lat="43.62374" lon="6.60773">
        <ele>788.8</ele>
        <time>2023-11-26T10:44:30Z</time>
      </trkpt>
      <trkpt lat="43.62374" lon="6.60772">
        <ele>788.7</ele>
        <time>2023-11-26T10:44:31Z</time>
      </trkpt>
      <trkpt lat="43.62373" lon="6.6077">
        <ele>788.5</ele>
        <time>2023-11-26T10:44:32Z</time>
      </trkpt>
      <trkpt lat="43.62373" lon="6.60769">
        <ele>788.4</ele>
        <time>2023-11-26T10:44:33Z</time>
      </trkpt>
      <trkpt lat="43.62373" lon="6.60769">
        <ele>788.3</ele>
        <time>2023-11-26T10:44:34Z</time>
      </trkpt>
      <trkpt lat="43.62373" lon="6.60768">
        <ele>788.3</ele>
        <time>2023-11-26T10:44:35Z</time>
      </trkpt>
      <trkpt lat="43.62373" lon="6.60767">
        <ele>788.2</ele>
        <time>2023-11-26T10:44:36Z</time>
      </trkpt>
      <trkpt lat="43.62373" lon="6.60767">
        <ele>788.1</ele>
        <time>2023-11-26T10:44:37Z</time>
      </trkpt>
      <trkpt lat="43.62373" lon="6.60766">
        <ele>788</ele>
        <time>2023-11-26T10:44:38Z</time>
      </trkpt>
      <trkpt lat="43.62373" lon="6.60765">
        <ele>787.9</ele>
        <time>2023-11-26T10:44:39Z</time>
      </trkpt>
      <trkpt lat="43.62373" lon="6.60765">
        <ele>787.8</ele>
        <time>2023-11-26T10:44:40Z</time>
      </trkpt>
      <trkpt lat="43.62373" lon="6.60765">
        <ele>787.8</ele>
        <time>2023-11-26T10:44:41Z</time>
      </trkpt>
      <trkpt lat="43.62373" lon="6.60765">
        <ele>787.7</ele>
        <time>2023-11-26T10:44:42Z</time>
      </trkpt>
      <trkpt lat="43.62373" lon="6.60765">
        <ele>787.7</ele>
        <time>2023-11-26T10:44:43Z</time>
      </trkpt>
      <trkpt lat="43.62373" lon="6.60765">
        <ele>787.7</ele>
        <time>2023-11-26T10:44:44Z</time>
      </trkpt>
      <trkpt lat="43.62373" lon="6.60764">
        <ele>787.7</ele>
        <time>2023-11-26T10:44:45Z</time>
      </trkpt>
      <trkpt lat="43.62373" lon="6.60764">
        <ele>787.6</ele>
        <time>2023-11-26T10:44:46Z</time>
      </trkpt>
      <trkpt lat="43.62373" lon="6.60764">
        <ele>787.6</ele>
        <time>2023-11-26T10:44:47Z</time>
      </trkpt>
      <trkpt lat="43.62374" lon="6.60764">
        <ele>787.6</ele>
        <time>2023-11-26T10:44:48Z</time>
      </trkpt>
      <trkpt lat="43.62374" lon="6.60764">
        <ele>787.5</ele>
        <time>2023-11-26T10:44:49Z</time>
      </trkpt>
      <trkpt lat="43.62375" lon="6.60764">
        <ele>787.4</ele>
        <time>2023-11-26T10:44:50Z</time>
      </trkpt>
      <trkpt lat="43.62375" lon="6.60764">
        <ele>787.2</ele>
        <time>2023-11-26T10:44:51Z</time>
      </trkpt>
      <trkpt lat="43.62375" lon="6.60764">
        <ele>787.2</ele>
        <time>2023-11-26T10:44:52Z</time>
      </trkpt>
      <trkpt lat="43.62376" lon="6.60764">
        <ele>787.1</ele>
        <time>2023-11-26T10:44:53Z</time>
      </trkpt>
      <trkpt lat="43.62376" lon="6.60763">
        <ele>787</ele>
        <time>2023-11-26T10:44:54Z</time>
      </trkpt>
      <trkpt lat="43.62377" lon="6.60762">
        <ele>786.9</ele>
        <time>2023-11-26T10:44:55Z</time>
      </trkpt>
      <trkpt lat="43.62377" lon="6.60761">
        <ele>786.9</ele>
        <time>2023-11-26T10:44:56Z</time>
      </trkpt>
      <trkpt lat="43.62377" lon="6.6076">
        <ele>786.7</ele>
        <time>2023-11-26T10:44:57Z</time>
      </trkpt>
      <trkpt lat="43.62377" lon="6.60759">
        <ele>786.4</ele>
        <time>2023-11-26T10:44:58Z</time>
      </trkpt>
      <trkpt lat="43.62376" lon="6.60758">
        <ele>786.3</ele>
        <time>2023-11-26T10:44:59Z</time>
      </trkpt>
      <trkpt lat="43.62376" lon="6.60757">
        <ele>786.2</ele>
        <time>2023-11-26T10:45:00Z</time>
      </trkpt>
      <trkpt lat="43.62376" lon="6.60755">
        <ele>786</ele>
        <time>2023-11-26T10:45:01Z</time>
      </trkpt>
      <trkpt lat="43.62376" lon="6.60754">
        <ele>785.8</ele>
        <time>2023-11-26T10:45:02Z</time>
      </trkpt>
      <trkpt lat="43.62376" lon="6.60753">
        <ele>785.7</ele>
        <time>2023-11-26T10:45:03Z</time>
      </trkpt>
      <trkpt lat="43.62376" lon="6.60751">
        <ele>785.4</ele>
        <time>2023-11-26T10:45:04Z</time>
      </trkpt>
      <trkpt lat="43.62376" lon="6.6075">
        <ele>785.2</ele>
        <time>2023-11-26T10:45:05Z</time>
      </trkpt>
      <trkpt lat="43.62376" lon="6.60748">
        <ele>785.1</ele>
        <time>2023-11-26T10:45:06Z</time>
      </trkpt>
      <trkpt lat="43.62376" lon="6.60747">
        <ele>784.9</ele>
        <time>2023-11-26T10:45:07Z</time>
      </trkpt>
      <trkpt lat="43.62376" lon="6.60746">
        <ele>784.7</ele>
        <time>2023-11-26T10:45:08Z</time>
      </trkpt>
      <trkpt lat="43.62376" lon="6.60745">
        <ele>784.6</ele>
        <time>2023-11-26T10:45:09Z</time>
      </trkpt>
      <trkpt lat="43.62375" lon="6.60745">
        <ele>784.3</ele>
        <time>2023-11-26T10:45:10Z</time>
      </trkpt>
      <trkpt lat="43.62375" lon="6.60743">
        <ele>784.2</ele>
        <time>2023-11-26T10:45:11Z</time>
      </trkpt>
      <trkpt lat="43.62374" lon="6.60742">
        <ele>784</ele>
        <time>2023-11-26T10:45:12Z</time>
      </trkpt>
      <trkpt lat="43.62374" lon="6.60741">
        <ele>783.9</ele>
        <time>2023-11-26T10:45:13Z</time>
      </trkpt>
      <trkpt lat="43.62374" lon="6.6074">
        <ele>783.8</ele>
        <time>2023-11-26T10:45:14Z</time>
      </trkpt>
      <trkpt lat="43.62374" lon="6.60738">
        <ele>783.7</ele>
        <time>2023-11-26T10:45:15Z</time>
      </trkpt>
      <trkpt lat="43.62373" lon="6.60737">
        <ele>783.6</ele>
        <time>2023-11-26T10:45:16Z</time>
      </trkpt>
      <trkpt lat="43.62373" lon="6.60737">
        <ele>783.4</ele>
        <time>2023-11-26T10:45:17Z</time>
      </trkpt>
      <trkpt lat="43.62373" lon="6.60735">
        <ele>783.2</ele>
        <time>2023-11-26T10:45:18Z</time>
      </trkpt>
      <trkpt lat="43.62372" lon="6.60734">
        <ele>783.1</ele>
        <time>2023-11-26T10:45:19Z</time>
      </trkpt>
      <trkpt lat="43.62371" lon="6.60733">
        <ele>782.9</ele>
        <time>2023-11-26T10:45:20Z</time>
      </trkpt>
      <trkpt lat="43.62371" lon="6.60732">
        <ele>782.8</ele>
        <time>2023-11-26T10:45:21Z</time>
      </trkpt>
      <trkpt lat="43.6237" lon="6.60732">
        <ele>782.7</ele>
        <time>2023-11-26T10:45:22Z</time>
      </trkpt>
      <trkpt lat="43.62369" lon="6.60731">
        <ele>782.5</ele>
        <time>2023-11-26T10:45:23Z</time>
      </trkpt>
      <trkpt lat="43.62369" lon="6.60731">
        <ele>782.4</ele>
        <time>2023-11-26T10:45:24Z</time>
      </trkpt>
      <trkpt lat="43.62368" lon="6.60731">
        <ele>782.2</ele>
        <time>2023-11-26T10:45:25Z</time>
      </trkpt>
      <trkpt lat="43.62368" lon="6.6073">
        <ele>782.1</ele>
        <time>2023-11-26T10:45:26Z</time>
      </trkpt>
      <trkpt lat="43.62367" lon="6.6073">
        <ele>781.9</ele>
        <time>2023-11-26T10:45:27Z</time>
      </trkpt>
      <trkpt lat="43.62367" lon="6.60729">
        <ele>781.8</ele>
        <time>2023-11-26T10:45:28Z</time>
      </trkpt>
      <trkpt lat="43.62367" lon="6.60728">
        <ele>781.6</ele>
        <time>2023-11-26T10:45:29Z</time>
      </trkpt>
      <trkpt lat="43.62367" lon="6.60727">
        <ele>781.4</ele>
        <time>2023-11-26T10:45:30Z</time>
      </trkpt>
      <trkpt lat="43.62366" lon="6.60726">
        <ele>781.2</ele>
        <time>2023-11-26T10:45:31Z</time>
      </trkpt>
      <trkpt lat="43.62366" lon="6.60725">
        <ele>780.9</ele>
        <time>2023-11-26T10:45:32Z</time>
      </trkpt>
      <trkpt lat="43.62366" lon="6.60724">
        <ele>780.6</ele>
        <time>2023-11-26T10:45:33Z</time>
      </trkpt>
      <trkpt lat="43.62365" lon="6.60724">
        <ele>780.4</ele>
        <time>2023-11-26T10:45:34Z</time>
      </trkpt>
      <trkpt lat="43.62364" lon="6.60724">
        <ele>780.2</ele>
        <time>2023-11-26T10:45:35Z</time>
      </trkpt>
      <trkpt lat="43.62364" lon="6.60723">
        <ele>780</ele>
        <time>2023-11-26T10:45:36Z</time>
      </trkpt>
      <trkpt lat="43.62363" lon="6.60722">
        <ele>779.8</ele>
        <time>2023-11-26T10:45:37Z</time>
      </trkpt>
      <trkpt lat="43.62362" lon="6.60722">
        <ele>779.7</ele>
        <time>2023-11-26T10:45:38Z</time>
      </trkpt>
      <trkpt lat="43.62361" lon="6.60722">
        <ele>779.4</ele>
        <time>2023-11-26T10:45:39Z</time>
      </trkpt>
      <trkpt lat="43.6236" lon="6.60722">
        <ele>779.1</ele>
        <time>2023-11-26T10:45:40Z</time>
      </trkpt>
      <trkpt lat="43.6236" lon="6.60721">
        <ele>778.9</ele>
        <time>2023-11-26T10:45:41Z</time>
      </trkpt>
      <trkpt lat="43.62359" lon="6.60721">
        <ele>778.7</ele>
        <time>2023-11-26T10:45:42Z</time>
      </trkpt>
      <trkpt lat="43.62359" lon="6.6072">
        <ele>778.5</ele>
        <time>2023-11-26T10:45:43Z</time>
      </trkpt>
      <trkpt lat="43.62358" lon="6.60718">
        <ele>778.3</ele>
        <time>2023-11-26T10:45:44Z</time>
      </trkpt>
      <trkpt lat="43.62357" lon="6.60717">
        <ele>778.1</ele>
        <time>2023-11-26T10:45:45Z</time>
      </trkpt>
      <trkpt lat="43.62357" lon="6.60716">
        <ele>777.9</ele>
        <time>2023-11-26T10:45:46Z</time>
      </trkpt>
      <trkpt lat="43.62357" lon="6.60715">
        <ele>777.8</ele>
        <time>2023-11-26T10:45:47Z</time>
      </trkpt>
      <trkpt lat="43.62357" lon="6.60714">
        <ele>777.4</ele>
        <time>2023-11-26T10:45:48Z</time>
      </trkpt>
      <trkpt lat="43.62357" lon="6.60713">
        <ele>777.1</ele>
        <time>2023-11-26T10:45:49Z</time>
      </trkpt>
      <trkpt lat="43.62357" lon="6.60711">
        <ele>776.9</ele>
        <time>2023-11-26T10:45:50Z</time>
      </trkpt>
      <trkpt lat="43.62357" lon="6.6071">
        <ele>776.6</ele>
        <time>2023-11-26T10:45:51Z</time>
      </trkpt>
      <trkpt lat="43.62357" lon="6.60709">
        <ele>776.4</ele>
        <time>2023-11-26T10:45:52Z</time>
      </trkpt>
      <trkpt lat="43.62357" lon="6.60707">
        <ele>776.2</ele>
        <time>2023-11-26T10:45:53Z</time>
      </trkpt>
      <trkpt lat="43.62358" lon="6.60706">
        <ele>776.1</ele>
        <time>2023-11-26T10:45:54Z</time>
      </trkpt>
      <trkpt lat="43.62358" lon="6.60704">
        <ele>776</ele>
        <time>2023-11-26T10:45:55Z</time>
      </trkpt>
      <trkpt lat="43.62357" lon="6.60702">
        <ele>775.9</ele>
        <time>2023-11-26T10:45:56Z</time>
      </trkpt>
      <trkpt lat="43.62357" lon="6.607">
        <ele>775.9</ele>
        <time>2023-11-26T10:45:57Z</time>
      </trkpt>
      <trkpt lat="43.62356" lon="6.60699">
        <ele>775.9</ele>
        <time>2023-11-26T10:45:58Z</time>
      </trkpt>
      <trkpt lat="43.62356" lon="6.60697">
        <ele>775.8</ele>
        <time>2023-11-26T10:45:59Z</time>
      </trkpt>
      <trkpt lat="43.62355" lon="6.60696">
        <ele>775.9</ele>
        <time>2023-11-26T10:46:00Z</time>
      </trkpt>
      <trkpt lat="43.62354" lon="6.60695">
        <ele>776</ele>
        <time>2023-11-26T10:46:01Z</time>
      </trkpt>
      <trkpt lat="43.62353" lon="6.60694">
        <ele>776.2</ele>
        <time>2023-11-26T10:46:02Z</time>
      </trkpt>
      <trkpt lat="43.62352" lon="6.60693">
        <ele>776.3</ele>
        <time>2023-11-26T10:46:03Z</time>
      </trkpt>
      <trkpt lat="43.62351" lon="6.60692">
        <ele>776.4</ele>
        <time>2023-11-26T10:46:04Z</time>
      </trkpt>
      <trkpt lat="43.6235" lon="6.60691">
        <ele>776.6</ele>
        <time>2023-11-26T10:46:05Z</time>
      </trkpt>
      <trkpt lat="43.62349" lon="6.60691">
        <ele>776.8</ele>
        <time>2023-11-26T10:46:06Z</time>
      </trkpt>
      <trkpt lat="43.62349" lon="6.6069">
        <ele>777</ele>
        <time>2023-11-26T10:46:07Z</time>
      </trkpt>
      <trkpt lat="43.62348" lon="6.60688">
        <ele>777.3</ele>
        <time>2023-11-26T10:46:08Z</time>
      </trkpt>
      <trkpt lat="43.62348" lon="6.60687">
        <ele>777.4</ele>
        <time>2023-11-26T10:46:09Z</time>
      </trkpt>
      <trkpt lat="43.62347" lon="6.60687">
        <ele>777.5</ele>
        <time>2023-11-26T10:46:10Z</time>
      </trkpt>
      <trkpt lat="43.62347" lon="6.60686">
        <ele>777.6</ele>
        <time>2023-11-26T10:46:11Z</time>
      </trkpt>
      <trkpt lat="43.62346" lon="6.60685">
        <ele>777.8</ele>
        <time>2023-11-26T10:46:12Z</time>
      </trkpt>
      <trkpt lat="43.62345" lon="6.60684">
        <ele>778</ele>
        <time>2023-11-26T10:46:13Z</time>
      </trkpt>
      <trkpt lat="43.62344" lon="6.60683">
        <ele>778.2</ele>
        <time>2023-11-26T10:46:14Z</time>
      </trkpt>
      <trkpt lat="43.62343" lon="6.60682">
        <ele>778.3</ele>
        <time>2023-11-26T10:46:15Z</time>
      </trkpt>
      <trkpt lat="43.62341" lon="6.60681">
        <ele>778.5</ele>
        <time>2023-11-26T10:46:16Z</time>
      </trkpt>
      <trkpt lat="43.6234" lon="6.60681">
        <ele>778.7</ele>
        <time>2023-11-26T10:46:17Z</time>
      </trkpt>
      <trkpt lat="43.62339" lon="6.6068">
        <ele>778.9</ele>
        <time>2023-11-26T10:46:18Z</time>
      </trkpt>
      <trkpt lat="43.62338" lon="6.60679">
        <ele>779.1</ele>
        <time>2023-11-26T10:46:19Z</time>
      </trkpt>
      <trkpt lat="43.62337" lon="6.60679">
        <ele>779.3</ele>
        <time>2023-11-26T10:46:20Z</time>
      </trkpt>
      <trkpt lat="43.62336" lon="6.60678">
        <ele>779.5</ele>
        <time>2023-11-26T10:46:21Z</time>
      </trkpt>
      <trkpt lat="43.62335" lon="6.60677">
        <ele>779.7</ele>
        <time>2023-11-26T10:46:22Z</time>
      </trkpt>
      <trkpt lat="43.62333" lon="6.60676">
        <ele>780</ele>
        <time>2023-11-26T10:46:23Z</time>
      </trkpt>
      <trkpt lat="43.62332" lon="6.60675">
        <ele>780.2</ele>
        <time>2023-11-26T10:46:24Z</time>
      </trkpt>
      <trkpt lat="43.62331" lon="6.60673">
        <ele>780.4</ele>
        <time>2023-11-26T10:46:25Z</time>
      </trkpt>
      <trkpt lat="43.6233" lon="6.60672">
        <ele>780.6</ele>
        <time>2023-11-26T10:46:26Z</time>
      </trkpt>
      <trkpt lat="43.62329" lon="6.60672">
        <ele>780.8</ele>
        <time>2023-11-26T10:46:27Z</time>
      </trkpt>
      <trkpt lat="43.62328" lon="6.6067">
        <ele>781</ele>
        <time>2023-11-26T10:46:28Z</time>
      </trkpt>
      <trkpt lat="43.62327" lon="6.60669">
        <ele>781.1</ele>
        <time>2023-11-26T10:46:29Z</time>
      </trkpt>
      <trkpt lat="43.62327" lon="6.60668">
        <ele>781.3</ele>
        <time>2023-11-26T10:46:30Z</time>
      </trkpt>
      <trkpt lat="43.62326" lon="6.60667">
        <ele>781.4</ele>
        <time>2023-11-26T10:46:31Z</time>
      </trkpt>
      <trkpt lat="43.62325" lon="6.60666">
        <ele>781.7</ele>
        <time>2023-11-26T10:46:32Z</time>
      </trkpt>
      <trkpt lat="43.62324" lon="6.60666">
        <ele>781.9</ele>
        <time>2023-11-26T10:46:33Z</time>
      </trkpt>
      <trkpt lat="43.62324" lon="6.60665">
        <ele>782</ele>
        <time>2023-11-26T10:46:34Z</time>
      </trkpt>
      <trkpt lat="43.62323" lon="6.60664">
        <ele>782.3</ele>
        <time>2023-11-26T10:46:35Z</time>
      </trkpt>
      <trkpt lat="43.62322" lon="6.60663">
        <ele>782.5</ele>
        <time>2023-11-26T10:46:36Z</time>
      </trkpt>
      <trkpt lat="43.62321" lon="6.60662">
        <ele>782.8</ele>
        <time>2023-11-26T10:46:37Z</time>
      </trkpt>
      <trkpt lat="43.6232" lon="6.60661">
        <ele>782.9</ele>
        <time>2023-11-26T10:46:38Z</time>
      </trkpt>
      <trkpt lat="43.62318" lon="6.6066">
        <ele>783.1</ele>
        <time>2023-11-26T10:46:39Z</time>
      </trkpt>
      <trkpt lat="43.62317" lon="6.60659">
        <ele>783.2</ele>
        <time>2023-11-26T10:46:40Z</time>
      </trkpt>
      <trkpt lat="43.62316" lon="6.60659">
        <ele>783.3</ele>
        <time>2023-11-26T10:46:41Z</time>
      </trkpt>
      <trkpt lat="43.62316" lon="6.60658">
        <ele>783.5</ele>
        <time>2023-11-26T10:46:42Z</time>
      </trkpt>
      <trkpt lat="43.62315" lon="6.60657">
        <ele>783.7</ele>
        <time>2023-11-26T10:46:43Z</time>
      </trkpt>
      <trkpt lat="43.62315" lon="6.60656">
        <ele>783.8</ele>
        <time>2023-11-26T10:46:44Z</time>
      </trkpt>
      <trkpt lat="43.62315" lon="6.60655">
        <ele>784</ele>
        <time>2023-11-26T10:46:45Z</time>
      </trkpt>
      <trkpt lat="43.62314" lon="6.60654">
        <ele>784.1</ele>
        <time>2023-11-26T10:46:46Z</time>
      </trkpt>
      <trkpt lat="43.62314" lon="6.60652">
        <ele>784.3</ele>
        <time>2023-11-26T10:46:47Z</time>
      </trkpt>
      <trkpt lat="43.62314" lon="6.60651">
        <ele>784.4</ele>
        <time>2023-11-26T10:46:48Z</time>
      </trkpt>
      <trkpt lat="43.62314" lon="6.6065">
        <ele>784.5</ele>
        <time>2023-11-26T10:46:49Z</time>
      </trkpt>
      <trkpt lat="43.62313" lon="6.60649">
        <ele>784.5</ele>
        <time>2023-11-26T10:46:50Z</time>
      </trkpt>
      <trkpt lat="43.62313" lon="6.60648">
        <ele>784.6</ele>
        <time>2023-11-26T10:46:51Z</time>
      </trkpt>
      <trkpt lat="43.62312" lon="6.60646">
        <ele>784.6</ele>
        <time>2023-11-26T10:46:52Z</time>
      </trkpt>
      <trkpt lat="43.62312" lon="6.60644">
        <ele>784.6</ele>
        <time>2023-11-26T10:46:53Z</time>
      </trkpt>
      <trkpt lat="43.62311" lon="6.60642">
        <ele>784.6</ele>
        <time>2023-11-26T10:46:54Z</time>
      </trkpt>
      <trkpt lat="43.62311" lon="6.60641">
        <ele>784.6</ele>
        <time>2023-11-26T10:46:55Z</time>
      </trkpt>
      <trkpt lat="43.62311" lon="6.6064">
        <ele>784.6</ele>
        <time>2023-11-26T10:46:56Z</time>
      </trkpt>
      <trkpt lat="43.6231" lon="6.60638">
        <ele>784.6</ele>
        <time>2023-11-26T10:46:57Z</time>
      </trkpt>
      <trkpt lat="43.6231" lon="6.60637">
        <ele>784.5</ele>
        <time>2023-11-26T10:46:58Z</time>
      </trkpt>
      <trkpt lat="43.62309" lon="6.60636">
        <ele>784.4</ele>
        <time>2023-11-26T10:46:59Z</time>
      </trkpt>
      <trkpt lat="43.62308" lon="6.60634">
        <ele>784.4</ele>
        <time>2023-11-26T10:47:00Z</time>
      </trkpt>
      <trkpt lat="43.62307" lon="6.60633">
        <ele>784.3</ele>
        <time>2023-11-26T10:47:01Z</time>
      </trkpt>
      <trkpt lat="43.62307" lon="6.60631">
        <ele>784.3</ele>
        <time>2023-11-26T10:47:02Z</time>
      </trkpt>
      <trkpt lat="43.62306" lon="6.6063">
        <ele>784.3</ele>
        <time>2023-11-26T10:47:03Z</time>
      </trkpt>
      <trkpt lat="43.62306" lon="6.60628">
        <ele>784.3</ele>
        <time>2023-11-26T10:47:04Z</time>
      </trkpt>
      <trkpt lat="43.62306" lon="6.60627">
        <ele>784.1</ele>
        <time>2023-11-26T10:47:05Z</time>
      </trkpt>
      <trkpt lat="43.62305" lon="6.60626">
        <ele>783.9</ele>
        <time>2023-11-26T10:47:06Z</time>
      </trkpt>
      <trkpt lat="43.62305" lon="6.60625">
        <ele>783.8</ele>
        <time>2023-11-26T10:47:07Z</time>
      </trkpt>
      <trkpt lat="43.62304" lon="6.60624">
        <ele>783.7</ele>
        <time>2023-11-26T10:47:08Z</time>
      </trkpt>
      <trkpt lat="43.62304" lon="6.60623">
        <ele>783.5</ele>
        <time>2023-11-26T10:47:09Z</time>
      </trkpt>
      <trkpt lat="43.62303" lon="6.60621">
        <ele>783.4</ele>
        <time>2023-11-26T10:47:10Z</time>
      </trkpt>
      <trkpt lat="43.62303" lon="6.6062">
        <ele>783.2</ele>
        <time>2023-11-26T10:47:11Z</time>
      </trkpt>
      <trkpt lat="43.62302" lon="6.60618">
        <ele>783.1</ele>
        <time>2023-11-26T10:47:12Z</time>
      </trkpt>
      <trkpt lat="43.62301" lon="6.60617">
        <ele>782.9</ele>
        <time>2023-11-26T10:47:13Z</time>
      </trkpt>
      <trkpt lat="43.623" lon="6.60615">
        <ele>782.8</ele>
        <time>2023-11-26T10:47:14Z</time>
      </trkpt>
      <trkpt lat="43.62299" lon="6.60613">
        <ele>782.7</ele>
        <time>2023-11-26T10:47:15Z</time>
      </trkpt>
      <trkpt lat="43.62299" lon="6.60611">
        <ele>782.5</ele>
        <time>2023-11-26T10:47:16Z</time>
      </trkpt>
      <trkpt lat="43.62298" lon="6.6061">
        <ele>782.2</ele>
        <time>2023-11-26T10:47:17Z</time>
      </trkpt>
      <trkpt lat="43.62296" lon="6.60609">
        <ele>781.9</ele>
        <time>2023-11-26T10:47:18Z</time>
      </trkpt>
      <trkpt lat="43.62295" lon="6.60607">
        <ele>781.7</ele>
        <time>2023-11-26T10:47:19Z</time>
      </trkpt>
      <trkpt lat="43.62294" lon="6.60606">
        <ele>781.4</ele>
        <time>2023-11-26T10:47:20Z</time>
      </trkpt>
      <trkpt lat="43.62293" lon="6.60604">
        <ele>781.2</ele>
        <time>2023-11-26T10:47:21Z</time>
      </trkpt>
      <trkpt lat="43.62292" lon="6.60603">
        <ele>781</ele>
        <time>2023-11-26T10:47:22Z</time>
      </trkpt>
      <trkpt lat="43.62291" lon="6.60601">
        <ele>780.8</ele>
        <time>2023-11-26T10:47:23Z</time>
      </trkpt>
      <trkpt lat="43.6229" lon="6.606">
        <ele>780.6</ele>
        <time>2023-11-26T10:47:24Z</time>
      </trkpt>
      <trkpt lat="43.62289" lon="6.60599">
        <ele>780.4</ele>
        <time>2023-11-26T10:47:25Z</time>
      </trkpt>
      <trkpt lat="43.62288" lon="6.60597">
        <ele>780.2</ele>
        <time>2023-11-26T10:47:26Z</time>
      </trkpt>
      <trkpt lat="43.62287" lon="6.60596">
        <ele>780</ele>
        <time>2023-11-26T10:47:27Z</time>
      </trkpt>
      <trkpt lat="43.62286" lon="6.60595">
        <ele>780</ele>
        <time>2023-11-26T10:47:28Z</time>
      </trkpt>
      <trkpt lat="43.62286" lon="6.60594">
        <ele>779.9</ele>
        <time>2023-11-26T10:47:29Z</time>
      </trkpt>
      <trkpt lat="43.62285" lon="6.60593">
        <ele>779.7</ele>
        <time>2023-11-26T10:47:30Z</time>
      </trkpt>
      <trkpt lat="43.62284" lon="6.60592">
        <ele>779.6</ele>
        <time>2023-11-26T10:47:31Z</time>
      </trkpt>
      <trkpt lat="43.62283" lon="6.6059">
        <ele>779.5</ele>
        <time>2023-11-26T10:47:32Z</time>
      </trkpt>
      <trkpt lat="43.62283" lon="6.60589">
        <ele>779.4</ele>
        <time>2023-11-26T10:47:33Z</time>
      </trkpt>
      <trkpt lat="43.62282" lon="6.60588">
        <ele>779.3</ele>
        <time>2023-11-26T10:47:34Z</time>
      </trkpt>
      <trkpt lat="43.62281" lon="6.60587">
        <ele>779.2</ele>
        <time>2023-11-26T10:47:35Z</time>
      </trkpt>
      <trkpt lat="43.6228" lon="6.60586">
        <ele>779.2</ele>
        <time>2023-11-26T10:47:36Z</time>
      </trkpt>
      <trkpt lat="43.62279" lon="6.60585">
        <ele>779</ele>
        <time>2023-11-26T10:47:37Z</time>
      </trkpt>
      <trkpt lat="43.62278" lon="6.60583">
        <ele>778.8</ele>
        <time>2023-11-26T10:47:38Z</time>
      </trkpt>
      <trkpt lat="43.62277" lon="6.60582">
        <ele>778.7</ele>
        <time>2023-11-26T10:47:39Z</time>
      </trkpt>
      <trkpt lat="43.62276" lon="6.60581">
        <ele>778.5</ele>
        <time>2023-11-26T10:47:40Z</time>
      </trkpt>
      <trkpt lat="43.62275" lon="6.6058">
        <ele>778.3</ele>
        <time>2023-11-26T10:47:41Z</time>
      </trkpt>
      <trkpt lat="43.62275" lon="6.60579">
        <ele>778.2</ele>
        <time>2023-11-26T10:47:42Z</time>
      </trkpt>
      <trkpt lat="43.62273" lon="6.60578">
        <ele>778</ele>
        <time>2023-11-26T10:47:43Z</time>
      </trkpt>
      <trkpt lat="43.62273" lon="6.60577">
        <ele>777.8</ele>
        <time>2023-11-26T10:47:44Z</time>
      </trkpt>
      <trkpt lat="43.62272" lon="6.60576">
        <ele>777.6</ele>
        <time>2023-11-26T10:47:45Z</time>
      </trkpt>
      <trkpt lat="43.62271" lon="6.60574">
        <ele>777.4</ele>
        <time>2023-11-26T10:47:46Z</time>
      </trkpt>
      <trkpt lat="43.6227" lon="6.60573">
        <ele>777.2</ele>
        <time>2023-11-26T10:47:47Z</time>
      </trkpt>
      <trkpt lat="43.62269" lon="6.60572">
        <ele>777.1</ele>
        <time>2023-11-26T10:47:48Z</time>
      </trkpt>
      <trkpt lat="43.62269" lon="6.6057">
        <ele>776.8</ele>
        <time>2023-11-26T10:47:49Z</time>
      </trkpt>
      <trkpt lat="43.62268" lon="6.60569">
        <ele>776.6</ele>
        <time>2023-11-26T10:47:50Z</time>
      </trkpt>
      <trkpt lat="43.62266" lon="6.60567">
        <ele>776.4</ele>
        <time>2023-11-26T10:47:51Z</time>
      </trkpt>
      <trkpt lat="43.62266" lon="6.60566">
        <ele>776.3</ele>
        <time>2023-11-26T10:47:52Z</time>
      </trkpt>
      <trkpt lat="43.62265" lon="6.60564">
        <ele>776.3</ele>
        <time>2023-11-26T10:47:53Z</time>
      </trkpt>
      <trkpt lat="43.62264" lon="6.60562">
        <ele>776.2</ele>
        <time>2023-11-26T10:47:54Z</time>
      </trkpt>
      <trkpt lat="43.62263" lon="6.60561">
        <ele>776.1</ele>
        <time>2023-11-26T10:47:55Z</time>
      </trkpt>
      <trkpt lat="43.62262" lon="6.60559">
        <ele>776</ele>
        <time>2023-11-26T10:47:56Z</time>
      </trkpt>
      <trkpt lat="43.62261" lon="6.60557">
        <ele>776</ele>
        <time>2023-11-26T10:47:57Z</time>
      </trkpt>
      <trkpt lat="43.62261" lon="6.60556">
        <ele>776</ele>
        <time>2023-11-26T10:47:58Z</time>
      </trkpt>
      <trkpt lat="43.6226" lon="6.60555">
        <ele>775.9</ele>
        <time>2023-11-26T10:47:59Z</time>
      </trkpt>
      <trkpt lat="43.62259" lon="6.60553">
        <ele>775.9</ele>
        <time>2023-11-26T10:48:00Z</time>
      </trkpt>
      <trkpt lat="43.62259" lon="6.60552">
        <ele>775.9</ele>
        <time>2023-11-26T10:48:01Z</time>
      </trkpt>
      <trkpt lat="43.62258" lon="6.6055">
        <ele>775.8</ele>
        <time>2023-11-26T10:48:02Z</time>
      </trkpt>
      <trkpt lat="43.62257" lon="6.60548">
        <ele>775.8</ele>
        <time>2023-11-26T10:48:03Z</time>
      </trkpt>
      <trkpt lat="43.62256" lon="6.60547">
        <ele>775.8</ele>
        <time>2023-11-26T10:48:04Z</time>
      </trkpt>
      <trkpt lat="43.62255" lon="6.60545">
        <ele>775.8</ele>
        <time>2023-11-26T10:48:05Z</time>
      </trkpt>
      <trkpt lat="43.62255" lon="6.60543">
        <ele>775.9</ele>
        <time>2023-11-26T10:48:06Z</time>
      </trkpt>
      <trkpt lat="43.62254" lon="6.60541">
        <ele>775.9</ele>
        <time>2023-11-26T10:48:07Z</time>
      </trkpt>
      <trkpt lat="43.62253" lon="6.60539">
        <ele>775.9</ele>
        <time>2023-11-26T10:48:08Z</time>
      </trkpt>
      <trkpt lat="43.62251" lon="6.60537">
        <ele>775.9</ele>
        <time>2023-11-26T10:48:09Z</time>
      </trkpt>
      <trkpt lat="43.6225" lon="6.60536">
        <ele>775.9</ele>
        <time>2023-11-26T10:48:10Z</time>
      </trkpt>
      <trkpt lat="43.6225" lon="6.60534">
        <ele>775.8</ele>
        <time>2023-11-26T10:48:11Z</time>
      </trkpt>
      <trkpt lat="43.62249" lon="6.60532">
        <ele>775.8</ele>
        <time>2023-11-26T10:48:12Z</time>
      </trkpt>
      <trkpt lat="43.62248" lon="6.60531">
        <ele>775.9</ele>
        <time>2023-11-26T10:48:13Z</time>
      </trkpt>
      <trkpt lat="43.62247" lon="6.60529">
        <ele>776</ele>
        <time>2023-11-26T10:48:14Z</time>
      </trkpt>
      <trkpt lat="43.62246" lon="6.60527">
        <ele>776</ele>
        <time>2023-11-26T10:48:15Z</time>
      </trkpt>
      <trkpt lat="43.62245" lon="6.60526">
        <ele>776.1</ele>
        <time>2023-11-26T10:48:16Z</time>
      </trkpt>
      <trkpt lat="43.62244" lon="6.60524">
        <ele>776.2</ele>
        <time>2023-11-26T10:48:17Z</time>
      </trkpt>
      <trkpt lat="43.62243" lon="6.60522">
        <ele>776.2</ele>
        <time>2023-11-26T10:48:18Z</time>
      </trkpt>
      <trkpt lat="43.62242" lon="6.6052">
        <ele>776.3</ele>
        <time>2023-11-26T10:48:19Z</time>
      </trkpt>
      <trkpt lat="43.62241" lon="6.60518">
        <ele>776.3</ele>
        <time>2023-11-26T10:48:20Z</time>
      </trkpt>
      <trkpt lat="43.6224" lon="6.60517">
        <ele>776.3</ele>
        <time>2023-11-26T10:48:21Z</time>
      </trkpt>
      <trkpt lat="43.62238" lon="6.60515">
        <ele>776.3</ele>
        <time>2023-11-26T10:48:22Z</time>
      </trkpt>
      <trkpt lat="43.62237" lon="6.60514">
        <ele>776.4</ele>
        <time>2023-11-26T10:48:23Z</time>
      </trkpt>
      <trkpt lat="43.62236" lon="6.60512">
        <ele>776.4</ele>
        <time>2023-11-26T10:48:24Z</time>
      </trkpt>
      <trkpt lat="43.62235" lon="6.6051">
        <ele>776.5</ele>
        <time>2023-11-26T10:48:25Z</time>
      </trkpt>
      <trkpt lat="43.62235" lon="6.60509">
        <ele>776.6</ele>
        <time>2023-11-26T10:48:26Z</time>
      </trkpt>
      <trkpt lat="43.62233" lon="6.60508">
        <ele>776.6</ele>
        <time>2023-11-26T10:48:27Z</time>
      </trkpt>
      <trkpt lat="43.62233" lon="6.60507">
        <ele>776.6</ele>
        <time>2023-11-26T10:48:28Z</time>
      </trkpt>
      <trkpt lat="43.62231" lon="6.60506">
        <ele>776.6</ele>
        <time>2023-11-26T10:48:29Z</time>
      </trkpt>
      <trkpt lat="43.62231" lon="6.60505">
        <ele>776.6</ele>
        <time>2023-11-26T10:48:30Z</time>
      </trkpt>
      <trkpt lat="43.62229" lon="6.60504">
        <ele>776.6</ele>
        <time>2023-11-26T10:48:31Z</time>
      </trkpt>
      <trkpt lat="43.62228" lon="6.60503">
        <ele>776.7</ele>
        <time>2023-11-26T10:48:32Z</time>
      </trkpt>
      <trkpt lat="43.62226" lon="6.60502">
        <ele>776.7</ele>
        <time>2023-11-26T10:48:33Z</time>
      </trkpt>
      <trkpt lat="43.62224" lon="6.60501">
        <ele>776.7</ele>
        <time>2023-11-26T10:48:34Z</time>
      </trkpt>
      <trkpt lat="43.62223" lon="6.605">
        <ele>776.7</ele>
        <time>2023-11-26T10:48:35Z</time>
      </trkpt>
      <trkpt lat="43.62222" lon="6.60499">
        <ele>776.6</ele>
        <time>2023-11-26T10:48:36Z</time>
      </trkpt>
      <trkpt lat="43.62221" lon="6.60498">
        <ele>776.5</ele>
        <time>2023-11-26T10:48:37Z</time>
      </trkpt>
      <trkpt lat="43.6222" lon="6.60498">
        <ele>776.5</ele>
        <time>2023-11-26T10:48:38Z</time>
      </trkpt>
      <trkpt lat="43.62219" lon="6.60497">
        <ele>776.4</ele>
        <time>2023-11-26T10:48:39Z</time>
      </trkpt>
      <trkpt lat="43.62218" lon="6.60496">
        <ele>776.1</ele>
        <time>2023-11-26T10:48:40Z</time>
      </trkpt>
      <trkpt lat="43.62217" lon="6.60495">
        <ele>776.1</ele>
        <time>2023-11-26T10:48:41Z</time>
      </trkpt>
      <trkpt lat="43.62216" lon="6.60494">
        <ele>776</ele>
        <time>2023-11-26T10:48:42Z</time>
      </trkpt>
      <trkpt lat="43.62216" lon="6.60493">
        <ele>775.9</ele>
        <time>2023-11-26T10:48:43Z</time>
      </trkpt>
      <trkpt lat="43.62215" lon="6.60492">
        <ele>775.8</ele>
        <time>2023-11-26T10:48:44Z</time>
      </trkpt>
      <trkpt lat="43.62214" lon="6.60491">
        <ele>775.7</ele>
        <time>2023-11-26T10:48:45Z</time>
      </trkpt>
      <trkpt lat="43.62213" lon="6.6049">
        <ele>775.5</ele>
        <time>2023-11-26T10:48:46Z</time>
      </trkpt>
      <trkpt lat="43.62213" lon="6.60489">
        <ele>775.3</ele>
        <time>2023-11-26T10:48:47Z</time>
      </trkpt>
      <trkpt lat="43.62211" lon="6.60488">
        <ele>775.2</ele>
        <time>2023-11-26T10:48:48Z</time>
      </trkpt>
      <trkpt lat="43.6221" lon="6.60487">
        <ele>775.1</ele>
        <time>2023-11-26T10:48:49Z</time>
      </trkpt>
      <trkpt lat="43.62209" lon="6.60486">
        <ele>774.9</ele>
        <time>2023-11-26T10:48:50Z</time>
      </trkpt>
      <trkpt lat="43.62208" lon="6.60485">
        <ele>774.7</ele>
        <time>2023-11-26T10:48:51Z</time>
      </trkpt>
      <trkpt lat="43.62207" lon="6.60484">
        <ele>774.5</ele>
        <time>2023-11-26T10:48:52Z</time>
      </trkpt>
      <trkpt lat="43.62205" lon="6.60483">
        <ele>774.4</ele>
        <time>2023-11-26T10:48:53Z</time>
      </trkpt>
      <trkpt lat="43.62204" lon="6.60482">
        <ele>774.3</ele>
        <time>2023-11-26T10:48:54Z</time>
      </trkpt>
      <trkpt lat="43.62202" lon="6.60481">
        <ele>774.2</ele>
        <time>2023-11-26T10:48:55Z</time>
      </trkpt>
      <trkpt lat="43.62201" lon="6.6048">
        <ele>774</ele>
        <time>2023-11-26T10:48:56Z</time>
      </trkpt>
      <trkpt lat="43.622" lon="6.60479">
        <ele>773.8</ele>
        <time>2023-11-26T10:48:57Z</time>
      </trkpt>
      <trkpt lat="43.62199" lon="6.60478">
        <ele>773.7</ele>
        <time>2023-11-26T10:48:58Z</time>
      </trkpt>
      <trkpt lat="43.62198" lon="6.60477">
        <ele>773.5</ele>
        <time>2023-11-26T10:48:59Z</time>
      </trkpt>
      <trkpt lat="43.62197" lon="6.60477">
        <ele>773.4</ele>
        <time>2023-11-26T10:49:00Z</time>
      </trkpt>
      <trkpt lat="43.62197" lon="6.60476">
        <ele>773.2</ele>
        <time>2023-11-26T10:49:01Z</time>
      </trkpt>
      <trkpt lat="43.62196" lon="6.60475">
        <ele>773</ele>
        <time>2023-11-26T10:49:02Z</time>
      </trkpt>
      <trkpt lat="43.62196" lon="6.60474">
        <ele>772.9</ele>
        <time>2023-11-26T10:49:03Z</time>
      </trkpt>
      <trkpt lat="43.62195" lon="6.60473">
        <ele>772.8</ele>
        <time>2023-11-26T10:49:04Z</time>
      </trkpt>
      <trkpt lat="43.62194" lon="6.60472">
        <ele>772.5</ele>
        <time>2023-11-26T10:49:05Z</time>
      </trkpt>
      <trkpt lat="43.62193" lon="6.60471">
        <ele>772.3</ele>
        <time>2023-11-26T10:49:06Z</time>
      </trkpt>
      <trkpt lat="43.62192" lon="6.6047">
        <ele>772.2</ele>
        <time>2023-11-26T10:49:07Z</time>
      </trkpt>
      <trkpt lat="43.62191" lon="6.60468">
        <ele>772.1</ele>
        <time>2023-11-26T10:49:08Z</time>
      </trkpt>
      <trkpt lat="43.62191" lon="6.60468">
        <ele>771.8</ele>
        <time>2023-11-26T10:49:09Z</time>
      </trkpt>
      <trkpt lat="43.6219" lon="6.60466">
        <ele>771.6</ele>
        <time>2023-11-26T10:49:10Z</time>
      </trkpt>
      <trkpt lat="43.62189" lon="6.60465">
        <ele>771.5</ele>
        <time>2023-11-26T10:49:11Z</time>
      </trkpt>
      <trkpt lat="43.62188" lon="6.60463">
        <ele>771.3</ele>
        <time>2023-11-26T10:49:12Z</time>
      </trkpt>
      <trkpt lat="43.62187" lon="6.60462">
        <ele>770.9</ele>
        <time>2023-11-26T10:49:13Z</time>
      </trkpt>
      <trkpt lat="43.62186" lon="6.60461">
        <ele>770.6</ele>
        <time>2023-11-26T10:49:14Z</time>
      </trkpt>
      <trkpt lat="43.62185" lon="6.6046">
        <ele>770.4</ele>
        <time>2023-11-26T10:49:15Z</time>
      </trkpt>
      <trkpt lat="43.62184" lon="6.60459">
        <ele>770.3</ele>
        <time>2023-11-26T10:49:16Z</time>
      </trkpt>
      <trkpt lat="43.62183" lon="6.60458">
        <ele>770.1</ele>
        <time>2023-11-26T10:49:17Z</time>
      </trkpt>
      <trkpt lat="43.62182" lon="6.60457">
        <ele>769.9</ele>
        <time>2023-11-26T10:49:18Z</time>
      </trkpt>
      <trkpt lat="43.62181" lon="6.60455">
        <ele>769.7</ele>
        <time>2023-11-26T10:49:19Z</time>
      </trkpt>
      <trkpt lat="43.62181" lon="6.60454">
        <ele>769.4</ele>
        <time>2023-11-26T10:49:20Z</time>
      </trkpt>
      <trkpt lat="43.6218" lon="6.60453">
        <ele>769.1</ele>
        <time>2023-11-26T10:49:21Z</time>
      </trkpt>
      <trkpt lat="43.6218" lon="6.60452">
        <ele>768.9</ele>
        <time>2023-11-26T10:49:22Z</time>
      </trkpt>
      <trkpt lat="43.62179" lon="6.60451">
        <ele>768.7</ele>
        <time>2023-11-26T10:49:23Z</time>
      </trkpt>
      <trkpt lat="43.62179" lon="6.6045">
        <ele>768.5</ele>
        <time>2023-11-26T10:49:24Z</time>
      </trkpt>
      <trkpt lat="43.62178" lon="6.60449">
        <ele>768.2</ele>
        <time>2023-11-26T10:49:25Z</time>
      </trkpt>
      <trkpt lat="43.62176" lon="6.60447">
        <ele>768.1</ele>
        <time>2023-11-26T10:49:26Z</time>
      </trkpt>
      <trkpt lat="43.62175" lon="6.60446">
        <ele>767.9</ele>
        <time>2023-11-26T10:49:27Z</time>
      </trkpt>
      <trkpt lat="43.62175" lon="6.60445">
        <ele>767.8</ele>
        <time>2023-11-26T10:49:28Z</time>
      </trkpt>
      <trkpt lat="43.62174" lon="6.60444">
        <ele>767.7</ele>
        <time>2023-11-26T10:49:29Z</time>
      </trkpt>
      <trkpt lat="43.62173" lon="6.60443">
        <ele>767.4</ele>
        <time>2023-11-26T10:49:30Z</time>
      </trkpt>
      <trkpt lat="43.62173" lon="6.60441">
        <ele>767.3</ele>
        <time>2023-11-26T10:49:31Z</time>
      </trkpt>
      <trkpt lat="43.62172" lon="6.6044">
        <ele>767.1</ele>
        <time>2023-11-26T10:49:32Z</time>
      </trkpt>
      <trkpt lat="43.6217" lon="6.60438">
        <ele>767</ele>
        <time>2023-11-26T10:49:33Z</time>
      </trkpt>
      <trkpt lat="43.6217" lon="6.60437">
        <ele>766.9</ele>
        <time>2023-11-26T10:49:34Z</time>
      </trkpt>
      <trkpt lat="43.62169" lon="6.60435">
        <ele>766.8</ele>
        <time>2023-11-26T10:49:35Z</time>
      </trkpt>
      <trkpt lat="43.62169" lon="6.60434">
        <ele>766.7</ele>
        <time>2023-11-26T10:49:36Z</time>
      </trkpt>
      <trkpt lat="43.62168" lon="6.60433">
        <ele>766.6</ele>
        <time>2023-11-26T10:49:37Z</time>
      </trkpt>
      <trkpt lat="43.62168" lon="6.60432">
        <ele>766.4</ele>
        <time>2023-11-26T10:49:38Z</time>
      </trkpt>
      <trkpt lat="43.62167" lon="6.60431">
        <ele>766.3</ele>
        <time>2023-11-26T10:49:39Z</time>
      </trkpt>
      <trkpt lat="43.62166" lon="6.6043">
        <ele>766.1</ele>
        <time>2023-11-26T10:49:40Z</time>
      </trkpt>
      <trkpt lat="43.62166" lon="6.60429">
        <ele>766.1</ele>
        <time>2023-11-26T10:49:41Z</time>
      </trkpt>
      <trkpt lat="43.62165" lon="6.60427">
        <ele>766</ele>
        <time>2023-11-26T10:49:42Z</time>
      </trkpt>
      <trkpt lat="43.62164" lon="6.60426">
        <ele>765.9</ele>
        <time>2023-11-26T10:49:43Z</time>
      </trkpt>
      <trkpt lat="43.62164" lon="6.60425">
        <ele>765.8</ele>
        <time>2023-11-26T10:49:44Z</time>
      </trkpt>
      <trkpt lat="43.62163" lon="6.60423">
        <ele>765.7</ele>
        <time>2023-11-26T10:49:45Z</time>
      </trkpt>
      <trkpt lat="43.62163" lon="6.60421">
        <ele>765.6</ele>
        <time>2023-11-26T10:49:46Z</time>
      </trkpt>
      <trkpt lat="43.62162" lon="6.6042">
        <ele>765.4</ele>
        <time>2023-11-26T10:49:47Z</time>
      </trkpt>
      <trkpt lat="43.62161" lon="6.60418">
        <ele>765.3</ele>
        <time>2023-11-26T10:49:48Z</time>
      </trkpt>
      <trkpt lat="43.6216" lon="6.60416">
        <ele>765.3</ele>
        <time>2023-11-26T10:49:49Z</time>
      </trkpt>
      <trkpt lat="43.62159" lon="6.60415">
        <ele>765.2</ele>
        <time>2023-11-26T10:49:50Z</time>
      </trkpt>
      <trkpt lat="43.62159" lon="6.60414">
        <ele>765.1</ele>
        <time>2023-11-26T10:49:51Z</time>
      </trkpt>
      <trkpt lat="43.62158" lon="6.60412">
        <ele>765.1</ele>
        <time>2023-11-26T10:49:52Z</time>
      </trkpt>
      <trkpt lat="43.62158" lon="6.60411">
        <ele>765</ele>
        <time>2023-11-26T10:49:53Z</time>
      </trkpt>
      <trkpt lat="43.62157" lon="6.60409">
        <ele>764.9</ele>
        <time>2023-11-26T10:49:54Z</time>
      </trkpt>
      <trkpt lat="43.62156" lon="6.60407">
        <ele>764.8</ele>
        <time>2023-11-26T10:49:55Z</time>
      </trkpt>
      <trkpt lat="43.62156" lon="6.60406">
        <ele>764.7</ele>
        <time>2023-11-26T10:49:56Z</time>
      </trkpt>
      <trkpt lat="43.62155" lon="6.60404">
        <ele>764.7</ele>
        <time>2023-11-26T10:49:57Z</time>
      </trkpt>
      <trkpt lat="43.62154" lon="6.60402">
        <ele>764.6</ele>
        <time>2023-11-26T10:49:58Z</time>
      </trkpt>
      <trkpt lat="43.62153" lon="6.604">
        <ele>764.6</ele>
        <time>2023-11-26T10:49:59Z</time>
      </trkpt>
      <trkpt lat="43.62153" lon="6.60399">
        <ele>764.5</ele>
        <time>2023-11-26T10:50:00Z</time>
      </trkpt>
      <trkpt lat="43.62152" lon="6.60397">
        <ele>764.3</ele>
        <time>2023-11-26T10:50:01Z</time>
      </trkpt>
      <trkpt lat="43.62152" lon="6.60395">
        <ele>764.2</ele>
        <time>2023-11-26T10:50:02Z</time>
      </trkpt>
      <trkpt lat="43.62151" lon="6.60394">
        <ele>764.3</ele>
        <time>2023-11-26T10:50:03Z</time>
      </trkpt>
      <trkpt lat="43.6215" lon="6.60393">
        <ele>764.3</ele>
        <time>2023-11-26T10:50:04Z</time>
      </trkpt>
      <trkpt lat="43.6215" lon="6.60392">
        <ele>764.1</ele>
        <time>2023-11-26T10:50:05Z</time>
      </trkpt>
      <trkpt lat="43.6215" lon="6.6039">
        <ele>763.9</ele>
        <time>2023-11-26T10:50:06Z</time>
      </trkpt>
      <trkpt lat="43.6215" lon="6.60389">
        <ele>763.9</ele>
        <time>2023-11-26T10:50:07Z</time>
      </trkpt>
      <trkpt lat="43.62149" lon="6.60387">
        <ele>763.7</ele>
        <time>2023-11-26T10:50:08Z</time>
      </trkpt>
      <trkpt lat="43.62149" lon="6.60385">
        <ele>763.6</ele>
        <time>2023-11-26T10:50:09Z</time>
      </trkpt>
      <trkpt lat="43.62149" lon="6.60383">
        <ele>763.5</ele>
        <time>2023-11-26T10:50:10Z</time>
      </trkpt>
      <trkpt lat="43.62149" lon="6.60381">
        <ele>763.5</ele>
        <time>2023-11-26T10:50:11Z</time>
      </trkpt>
      <trkpt lat="43.62148" lon="6.60379">
        <ele>763.4</ele>
        <time>2023-11-26T10:50:12Z</time>
      </trkpt>
      <trkpt lat="43.62148" lon="6.60377">
        <ele>763.4</ele>
        <time>2023-11-26T10:50:13Z</time>
      </trkpt>
      <trkpt lat="43.62148" lon="6.60375">
        <ele>763.3</ele>
        <time>2023-11-26T10:50:14Z</time>
      </trkpt>
      <trkpt lat="43.62148" lon="6.60373">
        <ele>763.3</ele>
        <time>2023-11-26T10:50:15Z</time>
      </trkpt>
      <trkpt lat="43.62147" lon="6.60372">
        <ele>763.3</ele>
        <time>2023-11-26T10:50:16Z</time>
      </trkpt>
      <trkpt lat="43.62147" lon="6.6037">
        <ele>763.2</ele>
        <time>2023-11-26T10:50:17Z</time>
      </trkpt>
      <trkpt lat="43.62147" lon="6.60368">
        <ele>763.2</ele>
        <time>2023-11-26T10:50:18Z</time>
      </trkpt>
      <trkpt lat="43.62147" lon="6.60367">
        <ele>763</ele>
        <time>2023-11-26T10:50:19Z</time>
      </trkpt>
      <trkpt lat="43.62146" lon="6.60365">
        <ele>762.9</ele>
        <time>2023-11-26T10:50:20Z</time>
      </trkpt>
      <trkpt lat="43.62146" lon="6.60364">
        <ele>762.9</ele>
        <time>2023-11-26T10:50:21Z</time>
      </trkpt>
      <trkpt lat="43.62146" lon="6.60363">
        <ele>762.8</ele>
        <time>2023-11-26T10:50:22Z</time>
      </trkpt>
      <trkpt lat="43.62146" lon="6.60361">
        <ele>762.7</ele>
        <time>2023-11-26T10:50:23Z</time>
      </trkpt>
      <trkpt lat="43.62145" lon="6.60359">
        <ele>762.7</ele>
        <time>2023-11-26T10:50:24Z</time>
      </trkpt>
      <trkpt lat="43.62145" lon="6.60357">
        <ele>762.6</ele>
        <time>2023-11-26T10:50:25Z</time>
      </trkpt>
      <trkpt lat="43.62144" lon="6.60356">
        <ele>762.5</ele>
        <time>2023-11-26T10:50:26Z</time>
      </trkpt>
      <trkpt lat="43.62144" lon="6.60354">
        <ele>762.5</ele>
        <time>2023-11-26T10:50:27Z</time>
      </trkpt>
      <trkpt lat="43.62144" lon="6.60352">
        <ele>762.4</ele>
        <time>2023-11-26T10:50:28Z</time>
      </trkpt>
      <trkpt lat="43.62143" lon="6.60351">
        <ele>762.2</ele>
        <time>2023-11-26T10:50:29Z</time>
      </trkpt>
      <trkpt lat="43.62143" lon="6.60349">
        <ele>762.1</ele>
        <time>2023-11-26T10:50:30Z</time>
      </trkpt>
      <trkpt lat="43.62143" lon="6.60347">
        <ele>762</ele>
        <time>2023-11-26T10:50:31Z</time>
      </trkpt>
      <trkpt lat="43.62143" lon="6.60345">
        <ele>762</ele>
        <time>2023-11-26T10:50:32Z</time>
      </trkpt>
      <trkpt lat="43.62142" lon="6.60344">
        <ele>761.9</ele>
        <time>2023-11-26T10:50:33Z</time>
      </trkpt>
      <trkpt lat="43.62142" lon="6.60342">
        <ele>761.8</ele>
        <time>2023-11-26T10:50:34Z</time>
      </trkpt>
      <trkpt lat="43.62142" lon="6.6034">
        <ele>761.8</ele>
        <time>2023-11-26T10:50:35Z</time>
      </trkpt>
      <trkpt lat="43.62141" lon="6.60338">
        <ele>761.7</ele>
        <time>2023-11-26T10:50:36Z</time>
      </trkpt>
      <trkpt lat="43.62142" lon="6.60337">
        <ele>761.7</ele>
        <time>2023-11-26T10:50:37Z</time>
      </trkpt>
      <trkpt lat="43.62141" lon="6.60335">
        <ele>761.6</ele>
        <time>2023-11-26T10:50:38Z</time>
      </trkpt>
      <trkpt lat="43.62141" lon="6.60333">
        <ele>761.6</ele>
        <time>2023-11-26T10:50:39Z</time>
      </trkpt>
      <trkpt lat="43.62141" lon="6.60332">
        <ele>761.5</ele>
        <time>2023-11-26T10:50:40Z</time>
      </trkpt>
      <trkpt lat="43.62141" lon="6.6033">
        <ele>761.4</ele>
        <time>2023-11-26T10:50:41Z</time>
      </trkpt>
      <trkpt lat="43.62141" lon="6.60329">
        <ele>761.2</ele>
        <time>2023-11-26T10:50:42Z</time>
      </trkpt>
      <trkpt lat="43.62141" lon="6.60327">
        <ele>761.1</ele>
        <time>2023-11-26T10:50:43Z</time>
      </trkpt>
      <trkpt lat="43.62141" lon="6.60326">
        <ele>761</ele>
        <time>2023-11-26T10:50:44Z</time>
      </trkpt>
      <trkpt lat="43.62141" lon="6.60324">
        <ele>761</ele>
        <time>2023-11-26T10:50:45Z</time>
      </trkpt>
      <trkpt lat="43.6214" lon="6.60323">
        <ele>761.1</ele>
        <time>2023-11-26T10:50:46Z</time>
      </trkpt>
      <trkpt lat="43.6214" lon="6.60321">
        <ele>760.9</ele>
        <time>2023-11-26T10:50:47Z</time>
      </trkpt>
      <trkpt lat="43.6214" lon="6.6032">
        <ele>760.9</ele>
        <time>2023-11-26T10:50:48Z</time>
      </trkpt>
      <trkpt lat="43.6214" lon="6.60318">
        <ele>760.9</ele>
        <time>2023-11-26T10:50:49Z</time>
      </trkpt>
      <trkpt lat="43.6214" lon="6.60317">
        <ele>760.8</ele>
        <time>2023-11-26T10:50:50Z</time>
      </trkpt>
      <trkpt lat="43.6214" lon="6.60315">
        <ele>760.8</ele>
        <time>2023-11-26T10:50:51Z</time>
      </trkpt>
      <trkpt lat="43.6214" lon="6.60314">
        <ele>760.8</ele>
        <time>2023-11-26T10:50:52Z</time>
      </trkpt>
      <trkpt lat="43.6214" lon="6.60312">
        <ele>760.9</ele>
        <time>2023-11-26T10:50:53Z</time>
      </trkpt>
      <trkpt lat="43.62141" lon="6.60311">
        <ele>760.8</ele>
        <time>2023-11-26T10:50:54Z</time>
      </trkpt>
      <trkpt lat="43.62141" lon="6.60309">
        <ele>760.7</ele>
        <time>2023-11-26T10:50:55Z</time>
      </trkpt>
      <trkpt lat="43.6214" lon="6.60308">
        <ele>760.6</ele>
        <time>2023-11-26T10:50:56Z</time>
      </trkpt>
      <trkpt lat="43.6214" lon="6.60307">
        <ele>760.5</ele>
        <time>2023-11-26T10:50:57Z</time>
      </trkpt>
      <trkpt lat="43.62139" lon="6.60305">
        <ele>760.4</ele>
        <time>2023-11-26T10:50:58Z</time>
      </trkpt>
      <trkpt lat="43.62139" lon="6.60304">
        <ele>760.4</ele>
        <time>2023-11-26T10:50:59Z</time>
      </trkpt>
      <trkpt lat="43.62139" lon="6.60302">
        <ele>760.4</ele>
        <time>2023-11-26T10:51:00Z</time>
      </trkpt>
      <trkpt lat="43.62139" lon="6.603">
        <ele>760.5</ele>
        <time>2023-11-26T10:51:01Z</time>
      </trkpt>
      <trkpt lat="43.62138" lon="6.60298">
        <ele>760.4</ele>
        <time>2023-11-26T10:51:02Z</time>
      </trkpt>
      <trkpt lat="43.62138" lon="6.60297">
        <ele>760.3</ele>
        <time>2023-11-26T10:51:03Z</time>
      </trkpt>
      <trkpt lat="43.62138" lon="6.60296">
        <ele>760.2</ele>
        <time>2023-11-26T10:51:04Z</time>
      </trkpt>
      <trkpt lat="43.62138" lon="6.60294">
        <ele>760.1</ele>
        <time>2023-11-26T10:51:05Z</time>
      </trkpt>
      <trkpt lat="43.62137" lon="6.60292">
        <ele>759.9</ele>
        <time>2023-11-26T10:51:06Z</time>
      </trkpt>
      <trkpt lat="43.62137" lon="6.6029">
        <ele>759.9</ele>
        <time>2023-11-26T10:51:07Z</time>
      </trkpt>
      <trkpt lat="43.62137" lon="6.60289">
        <ele>759.9</ele>
        <time>2023-11-26T10:51:08Z</time>
      </trkpt>
      <trkpt lat="43.62137" lon="6.60287">
        <ele>759.7</ele>
        <time>2023-11-26T10:51:09Z</time>
      </trkpt>
      <trkpt lat="43.62136" lon="6.60286">
        <ele>759.6</ele>
        <time>2023-11-26T10:51:10Z</time>
      </trkpt>
      <trkpt lat="43.62136" lon="6.60284">
        <ele>759.5</ele>
        <time>2023-11-26T10:51:11Z</time>
      </trkpt>
      <trkpt lat="43.62135" lon="6.60282">
        <ele>759.4</ele>
        <time>2023-11-26T10:51:12Z</time>
      </trkpt>
      <trkpt lat="43.62135" lon="6.6028">
        <ele>759.3</ele>
        <time>2023-11-26T10:51:13Z</time>
      </trkpt>
      <trkpt lat="43.62135" lon="6.60279">
        <ele>759.3</ele>
        <time>2023-11-26T10:51:14Z</time>
      </trkpt>
      <trkpt lat="43.62135" lon="6.60277">
        <ele>759.2</ele>
        <time>2023-11-26T10:51:15Z</time>
      </trkpt>
      <trkpt lat="43.62135" lon="6.60276">
        <ele>759.2</ele>
        <time>2023-11-26T10:51:16Z</time>
      </trkpt>
      <trkpt lat="43.62136" lon="6.60274">
        <ele>759.1</ele>
        <time>2023-11-26T10:51:17Z</time>
      </trkpt>
      <trkpt lat="43.62136" lon="6.60273">
        <ele>759.1</ele>
        <time>2023-11-26T10:51:18Z</time>
      </trkpt>
      <trkpt lat="43.62135" lon="6.60271">
        <ele>758.9</ele>
        <time>2023-11-26T10:51:19Z</time>
      </trkpt>
      <trkpt lat="43.62135" lon="6.60269">
        <ele>758.8</ele>
        <time>2023-11-26T10:51:20Z</time>
      </trkpt>
      <trkpt lat="43.62135" lon="6.60267">
        <ele>758.6</ele>
        <time>2023-11-26T10:51:21Z</time>
      </trkpt>
      <trkpt lat="43.62135" lon="6.60265">
        <ele>758.4</ele>
        <time>2023-11-26T10:51:22Z</time>
      </trkpt>
      <trkpt lat="43.62135" lon="6.60264">
        <ele>758.3</ele>
        <time>2023-11-26T10:51:23Z</time>
      </trkpt>
      <trkpt lat="43.62135" lon="6.60262">
        <ele>758.3</ele>
        <time>2023-11-26T10:51:24Z</time>
      </trkpt>
      <trkpt lat="43.62135" lon="6.60261">
        <ele>758.2</ele>
        <time>2023-11-26T10:51:25Z</time>
      </trkpt>
      <trkpt lat="43.62134" lon="6.60259">
        <ele>758.2</ele>
        <time>2023-11-26T10:51:26Z</time>
      </trkpt>
      <trkpt lat="43.62134" lon="6.60258">
        <ele>758.1</ele>
        <time>2023-11-26T10:51:27Z</time>
      </trkpt>
      <trkpt lat="43.62133" lon="6.60257">
        <ele>758.1</ele>
        <time>2023-11-26T10:51:28Z</time>
      </trkpt>
      <trkpt lat="43.62133" lon="6.60255">
        <ele>758.1</ele>
        <time>2023-11-26T10:51:29Z</time>
      </trkpt>
      <trkpt lat="43.62132" lon="6.60254">
        <ele>758</ele>
        <time>2023-11-26T10:51:30Z</time>
      </trkpt>
      <trkpt lat="43.62132" lon="6.60252">
        <ele>758</ele>
        <time>2023-11-26T10:51:31Z</time>
      </trkpt>
      <trkpt lat="43.62131" lon="6.60251">
        <ele>757.9</ele>
        <time>2023-11-26T10:51:32Z</time>
      </trkpt>
      <trkpt lat="43.6213" lon="6.60249">
        <ele>757.9</ele>
        <time>2023-11-26T10:51:33Z</time>
      </trkpt>
      <trkpt lat="43.6213" lon="6.60248">
        <ele>757.8</ele>
        <time>2023-11-26T10:51:34Z</time>
      </trkpt>
      <trkpt lat="43.62129" lon="6.60245">
        <ele>757.7</ele>
        <time>2023-11-26T10:51:35Z</time>
      </trkpt>
      <trkpt lat="43.62129" lon="6.60243">
        <ele>757.7</ele>
        <time>2023-11-26T10:51:36Z</time>
      </trkpt>
      <trkpt lat="43.62128" lon="6.60242">
        <ele>757.6</ele>
        <time>2023-11-26T10:51:37Z</time>
      </trkpt>
      <trkpt lat="43.62128" lon="6.60241">
        <ele>757.5</ele>
        <time>2023-11-26T10:51:38Z</time>
      </trkpt>
      <trkpt lat="43.62128" lon="6.6024">
        <ele>757.5</ele>
        <time>2023-11-26T10:51:39Z</time>
      </trkpt>
      <trkpt lat="43.62127" lon="6.60238">
        <ele>757.5</ele>
        <time>2023-11-26T10:51:40Z</time>
      </trkpt>
      <trkpt lat="43.62127" lon="6.60236">
        <ele>757.5</ele>
        <time>2023-11-26T10:51:41Z</time>
      </trkpt>
      <trkpt lat="43.62126" lon="6.60235">
        <ele>757.4</ele>
        <time>2023-11-26T10:51:42Z</time>
      </trkpt>
      <trkpt lat="43.62126" lon="6.60234">
        <ele>757.4</ele>
        <time>2023-11-26T10:51:43Z</time>
      </trkpt>
      <trkpt lat="43.62126" lon="6.60232">
        <ele>757.4</ele>
        <time>2023-11-26T10:51:44Z</time>
      </trkpt>
      <trkpt lat="43.62125" lon="6.60231">
        <ele>757.4</ele>
        <time>2023-11-26T10:51:45Z</time>
      </trkpt>
      <trkpt lat="43.62125" lon="6.60229">
        <ele>757.5</ele>
        <time>2023-11-26T10:51:46Z</time>
      </trkpt>
      <trkpt lat="43.62124" lon="6.60227">
        <ele>757.4</ele>
        <time>2023-11-26T10:51:47Z</time>
      </trkpt>
      <trkpt lat="43.62124" lon="6.60225">
        <ele>757.3</ele>
        <time>2023-11-26T10:51:48Z</time>
      </trkpt>
      <trkpt lat="43.62123" lon="6.60223">
        <ele>757.2</ele>
        <time>2023-11-26T10:51:49Z</time>
      </trkpt>
      <trkpt lat="43.62123" lon="6.60222">
        <ele>757.2</ele>
        <time>2023-11-26T10:51:50Z</time>
      </trkpt>
      <trkpt lat="43.62122" lon="6.60221">
        <ele>757.3</ele>
        <time>2023-11-26T10:51:51Z</time>
      </trkpt>
      <trkpt lat="43.62122" lon="6.60219">
        <ele>757.4</ele>
        <time>2023-11-26T10:51:52Z</time>
      </trkpt>
      <trkpt lat="43.62122" lon="6.60218">
        <ele>757.4</ele>
        <time>2023-11-26T10:51:53Z</time>
      </trkpt>
      <trkpt lat="43.62121" lon="6.60216">
        <ele>757.3</ele>
        <time>2023-11-26T10:51:54Z</time>
      </trkpt>
      <trkpt lat="43.6212" lon="6.60215">
        <ele>757.3</ele>
        <time>2023-11-26T10:51:55Z</time>
      </trkpt>
      <trkpt lat="43.6212" lon="6.60214">
        <ele>757.2</ele>
        <time>2023-11-26T10:51:56Z</time>
      </trkpt>
      <trkpt lat="43.62119" lon="6.60212">
        <ele>757.2</ele>
        <time>2023-11-26T10:51:57Z</time>
      </trkpt>
      <trkpt lat="43.62119" lon="6.60211">
        <ele>757.2</ele>
        <time>2023-11-26T10:51:58Z</time>
      </trkpt>
      <trkpt lat="43.62118" lon="6.6021">
        <ele>757.2</ele>
        <time>2023-11-26T10:51:59Z</time>
      </trkpt>
      <trkpt lat="43.62118" lon="6.60209">
        <ele>757.1</ele>
        <time>2023-11-26T10:52:00Z</time>
      </trkpt>
      <trkpt lat="43.62117" lon="6.60207">
        <ele>757.1</ele>
        <time>2023-11-26T10:52:01Z</time>
      </trkpt>
      <trkpt lat="43.62116" lon="6.60205">
        <ele>757</ele>
        <time>2023-11-26T10:52:02Z</time>
      </trkpt>
      <trkpt lat="43.62115" lon="6.60204">
        <ele>756.9</ele>
        <time>2023-11-26T10:52:03Z</time>
      </trkpt>
      <trkpt lat="43.62115" lon="6.60202">
        <ele>756.9</ele>
        <time>2023-11-26T10:52:04Z</time>
      </trkpt>
      <trkpt lat="43.62115" lon="6.60201">
        <ele>756.8</ele>
        <time>2023-11-26T10:52:05Z</time>
      </trkpt>
      <trkpt lat="43.62115" lon="6.60199">
        <ele>756.6</ele>
        <time>2023-11-26T10:52:06Z</time>
      </trkpt>
      <trkpt lat="43.62114" lon="6.60198">
        <ele>756.5</ele>
        <time>2023-11-26T10:52:07Z</time>
      </trkpt>
      <trkpt lat="43.62113" lon="6.60196">
        <ele>756.4</ele>
        <time>2023-11-26T10:52:08Z</time>
      </trkpt>
      <trkpt lat="43.62112" lon="6.60195">
        <ele>756.2</ele>
        <time>2023-11-26T10:52:09Z</time>
      </trkpt>
      <trkpt lat="43.62111" lon="6.60194">
        <ele>756</ele>
        <time>2023-11-26T10:52:10Z</time>
      </trkpt>
      <trkpt lat="43.6211" lon="6.60193">
        <ele>756</ele>
        <time>2023-11-26T10:52:11Z</time>
      </trkpt>
      <trkpt lat="43.62109" lon="6.60192">
        <ele>756</ele>
        <time>2023-11-26T10:52:12Z</time>
      </trkpt>
      <trkpt lat="43.62108" lon="6.60191">
        <ele>755.8</ele>
        <time>2023-11-26T10:52:13Z</time>
      </trkpt>
      <trkpt lat="43.62107" lon="6.6019">
        <ele>755.8</ele>
        <time>2023-11-26T10:52:14Z</time>
      </trkpt>
      <trkpt lat="43.62107" lon="6.60189">
        <ele>755.8</ele>
        <time>2023-11-26T10:52:15Z</time>
      </trkpt>
      <trkpt lat="43.62106" lon="6.60188">
        <ele>755.8</ele>
        <time>2023-11-26T10:52:16Z</time>
      </trkpt>
      <trkpt lat="43.62105" lon="6.60187">
        <ele>755.8</ele>
        <time>2023-11-26T10:52:17Z</time>
      </trkpt>
      <trkpt lat="43.62104" lon="6.60186">
        <ele>755.8</ele>
        <time>2023-11-26T10:52:18Z</time>
      </trkpt>
      <trkpt lat="43.62104" lon="6.60186">
        <ele>755.8</ele>
        <time>2023-11-26T10:52:19Z</time>
      </trkpt>
      <trkpt lat="43.62103" lon="6.60184">
        <ele>755.8</ele>
        <time>2023-11-26T10:52:20Z</time>
      </trkpt>
      <trkpt lat="43.62103" lon="6.60183">
        <ele>755.8</ele>
        <time>2023-11-26T10:52:21Z</time>
      </trkpt>
      <trkpt lat="43.62102" lon="6.60182">
        <ele>755.8</ele>
        <time>2023-11-26T10:52:22Z</time>
      </trkpt>
      <trkpt lat="43.62101" lon="6.60181">
        <ele>755.8</ele>
        <time>2023-11-26T10:52:23Z</time>
      </trkpt>
      <trkpt lat="43.62101" lon="6.6018">
        <ele>755.8</ele>
        <time>2023-11-26T10:52:24Z</time>
      </trkpt>
      <trkpt lat="43.621" lon="6.6018">
        <ele>755.8</ele>
        <time>2023-11-26T10:52:25Z</time>
      </trkpt>
      <trkpt lat="43.621" lon="6.60179">
        <ele>755.8</ele>
        <time>2023-11-26T10:52:26Z</time>
      </trkpt>
      <trkpt lat="43.621" lon="6.60178">
        <ele>755.8</ele>
        <time>2023-11-26T10:52:27Z</time>
      </trkpt>
      <trkpt lat="43.62099" lon="6.60177">
        <ele>755.8</ele>
        <time>2023-11-26T10:52:28Z</time>
      </trkpt>
      <trkpt lat="43.62099" lon="6.60176">
        <ele>755.8</ele>
        <time>2023-11-26T10:52:29Z</time>
      </trkpt>
      <trkpt lat="43.62098" lon="6.60175">
        <ele>755.8</ele>
        <time>2023-11-26T10:52:30Z</time>
      </trkpt>
      <trkpt lat="43.62098" lon="6.60174">
        <ele>755.8</ele>
        <time>2023-11-26T10:52:31Z</time>
      </trkpt>
      <trkpt lat="43.62097" lon="6.60174">
        <ele>755.8</ele>
        <time>2023-11-26T10:52:32Z</time>
      </trkpt>
      <trkpt lat="43.62097" lon="6.60173">
        <ele>755.8</ele>
        <time>2023-11-26T10:52:33Z</time>
      </trkpt>
      <trkpt lat="43.62096" lon="6.60172">
        <ele>755.8</ele>
        <time>2023-11-26T10:52:34Z</time>
      </trkpt>
      <trkpt lat="43.62096" lon="6.60172">
        <ele>755.8</ele>
        <time>2023-11-26T10:52:35Z</time>
      </trkpt>
      <trkpt lat="43.62096" lon="6.60171">
        <ele>755.8</ele>
        <time>2023-11-26T10:52:36Z</time>
      </trkpt>
      <trkpt lat="43.62095" lon="6.60171">
        <ele>755.8</ele>
        <time>2023-11-26T10:52:37Z</time>
      </trkpt>
      <trkpt lat="43.62095" lon="6.60171">
        <ele>755.8</ele>
        <time>2023-11-26T10:52:38Z</time>
      </trkpt>
      <trkpt lat="43.62095" lon="6.60171">
        <ele>755.8</ele>
        <time>2023-11-26T10:52:39Z</time>
      </trkpt>
      <trkpt lat="43.62095" lon="6.60172">
        <ele>755.8</ele>
        <time>2023-11-26T10:52:40Z</time>
      </trkpt>
      <trkpt lat="43.62095" lon="6.60172">
        <ele>755.8</ele>
        <time>2023-11-26T10:52:41Z</time>
      </trkpt>
      <trkpt lat="43.62095" lon="6.60172">
        <ele>755.8</ele>
        <time>2023-11-26T10:52:42Z</time>
      </trkpt>
      <trkpt lat="43.62095" lon="6.60172">
        <ele>755.8</ele>
        <time>2023-11-26T10:52:43Z</time>
      </trkpt>
      <trkpt lat="43.62095" lon="6.60172">
        <ele>755.7</ele>
        <time>2023-11-26T10:52:44Z</time>
      </trkpt>
      <trkpt lat="43.62094" lon="6.60172">
        <ele>755.7</ele>
        <time>2023-11-26T10:52:45Z</time>
      </trkpt>
      <trkpt lat="43.62094" lon="6.60172">
        <ele>755.7</ele>
        <time>2023-11-26T10:52:46Z</time>
      </trkpt>
      <trkpt lat="43.62093" lon="6.60173">
        <ele>755.8</ele>
        <time>2023-11-26T10:52:47Z</time>
      </trkpt>
      <trkpt lat="43.62093" lon="6.60173">
        <ele>755.8</ele>
        <time>2023-11-26T10:52:48Z</time>
      </trkpt>
      <trkpt lat="43.62093" lon="6.60173">
        <ele>755.8</ele>
        <time>2023-11-26T10:52:49Z</time>
      </trkpt>
      <trkpt lat="43.62092" lon="6.60173">
        <ele>755.8</ele>
        <time>2023-11-26T10:52:50Z</time>
      </trkpt>
      <trkpt lat="43.62092" lon="6.60173">
        <ele>755.8</ele>
        <time>2023-11-26T10:52:51Z</time>
      </trkpt>
      <trkpt lat="43.62092" lon="6.60173">
        <ele>755.9</ele>
        <time>2023-11-26T10:52:52Z</time>
      </trkpt>
      <trkpt lat="43.62092" lon="6.60174">
        <ele>755.9</ele>
        <time>2023-11-26T10:52:53Z</time>
      </trkpt>
      <trkpt lat="43.62092" lon="6.60174">
        <ele>755.9</ele>
        <time>2023-11-26T10:52:54Z</time>
      </trkpt>
      <trkpt lat="43.62091" lon="6.60174">
        <ele>755.9</ele>
        <time>2023-11-26T10:52:55Z</time>
      </trkpt>
      <trkpt lat="43.62091" lon="6.60174">
        <ele>755.9</ele>
        <time>2023-11-26T10:52:56Z</time>
      </trkpt>
      <trkpt lat="43.62091" lon="6.60174">
        <ele>755.9</ele>
        <time>2023-11-26T10:52:57Z</time>
      </trkpt>
      <trkpt lat="43.62091" lon="6.60174">
        <ele>755.8</ele>
        <time>2023-11-26T10:52:58Z</time>
      </trkpt>
      <trkpt lat="43.62091" lon="6.60174">
        <ele>755.8</ele>
        <time>2023-11-26T10:52:59Z</time>
      </trkpt>
      <trkpt lat="43.62091" lon="6.60174">
        <ele>755.8</ele>
        <time>2023-11-26T10:53:00Z</time>
      </trkpt>
      <trkpt lat="43.62091" lon="6.60175">
        <ele>755.8</ele>
        <time>2023-11-26T10:53:01Z</time>
      </trkpt>
      <trkpt lat="43.62091" lon="6.60175">
        <ele>755.8</ele>
        <time>2023-11-26T10:53:02Z</time>
      </trkpt>
      <trkpt lat="43.62091" lon="6.60174">
        <ele>755.8</ele>
        <time>2023-11-26T10:53:03Z</time>
      </trkpt>
      <trkpt lat="43.62091" lon="6.60173">
        <ele>755.8</ele>
        <time>2023-11-26T10:53:04Z</time>
      </trkpt>
      <trkpt lat="43.6209" lon="6.60172">
        <ele>755.9</ele>
        <time>2023-11-26T10:53:05Z</time>
      </trkpt>
      <trkpt lat="43.62089" lon="6.60171">
        <ele>755.9</ele>
        <time>2023-11-26T10:53:06Z</time>
      </trkpt>
      <trkpt lat="43.62088" lon="6.6017">
        <ele>755.9</ele>
        <time>2023-11-26T10:53:07Z</time>
      </trkpt>
      <trkpt lat="43.62087" lon="6.60169">
        <ele>755.8</ele>
        <time>2023-11-26T10:53:08Z</time>
      </trkpt>
      <trkpt lat="43.62087" lon="6.60168">
        <ele>755.8</ele>
        <time>2023-11-26T10:53:09Z</time>
      </trkpt>
      <trkpt lat="43.62086" lon="6.60167">
        <ele>755.9</ele>
        <time>2023-11-26T10:53:10Z</time>
      </trkpt>
      <trkpt lat="43.62085" lon="6.60166">
        <ele>755.9</ele>
        <time>2023-11-26T10:53:11Z</time>
      </trkpt>
      <trkpt lat="43.62084" lon="6.60165">
        <ele>755.9</ele>
        <time>2023-11-26T10:53:12Z</time>
      </trkpt>
      <trkpt lat="43.62083" lon="6.60164">
        <ele>755.9</ele>
        <time>2023-11-26T10:53:13Z</time>
      </trkpt>
      <trkpt lat="43.62082" lon="6.60163">
        <ele>755.9</ele>
        <time>2023-11-26T10:53:14Z</time>
      </trkpt>
      <trkpt lat="43.62082" lon="6.60162">
        <ele>756</ele>
        <time>2023-11-26T10:53:15Z</time>
      </trkpt>
      <trkpt lat="43.62082" lon="6.6016">
        <ele>756</ele>
        <time>2023-11-26T10:53:16Z</time>
      </trkpt>
      <trkpt lat="43.62081" lon="6.60158">
        <ele>756</ele>
        <time>2023-11-26T10:53:17Z</time>
      </trkpt>
      <trkpt lat="43.62081" lon="6.60157">
        <ele>756</ele>
        <time>2023-11-26T10:53:18Z</time>
      </trkpt>
      <trkpt lat="43.62081" lon="6.60155">
        <ele>756</ele>
        <time>2023-11-26T10:53:19Z</time>
      </trkpt>
      <trkpt lat="43.6208" lon="6.60153">
        <ele>756.1</ele>
        <time>2023-11-26T10:53:20Z</time>
      </trkpt>
      <trkpt lat="43.6208" lon="6.60152">
        <ele>756.1</ele>
        <time>2023-11-26T10:53:21Z</time>
      </trkpt>
      <trkpt lat="43.62079" lon="6.6015">
        <ele>756.2</ele>
        <time>2023-11-26T10:53:22Z</time>
      </trkpt>
      <trkpt lat="43.62079" lon="6.60148">
        <ele>756.2</ele>
        <time>2023-11-26T10:53:23Z</time>
      </trkpt>
      <trkpt lat="43.62079" lon="6.60146">
        <ele>756.3</ele>
        <time>2023-11-26T10:53:24Z</time>
      </trkpt>
      <trkpt lat="43.62079" lon="6.60144">
        <ele>756.4</ele>
        <time>2023-11-26T10:53:25Z</time>
      </trkpt>
      <trkpt lat="43.62078" lon="6.60143">
        <ele>756.4</ele>
        <time>2023-11-26T10:53:26Z</time>
      </trkpt>
      <trkpt lat="43.62078" lon="6.60141">
        <ele>756.4</ele>
        <time>2023-11-26T10:53:27Z</time>
      </trkpt>
      <trkpt lat="43.62078" lon="6.60139">
        <ele>756.5</ele>
        <time>2023-11-26T10:53:28Z</time>
      </trkpt>
      <trkpt lat="43.62077" lon="6.60137">
        <ele>756.6</ele>
        <time>2023-11-26T10:53:29Z</time>
      </trkpt>
      <trkpt lat="43.62077" lon="6.60135">
        <ele>756.7</ele>
        <time>2023-11-26T10:53:30Z</time>
      </trkpt>
      <trkpt lat="43.62077" lon="6.60133">
        <ele>756.7</ele>
        <time>2023-11-26T10:53:31Z</time>
      </trkpt>
      <trkpt lat="43.62077" lon="6.60132">
        <ele>756.8</ele>
        <time>2023-11-26T10:53:32Z</time>
      </trkpt>
      <trkpt lat="43.62077" lon="6.6013">
        <ele>756.8</ele>
        <time>2023-11-26T10:53:33Z</time>
      </trkpt>
      <trkpt lat="43.62077" lon="6.60128">
        <ele>756.8</ele>
        <time>2023-11-26T10:53:34Z</time>
      </trkpt>
      <trkpt lat="43.62076" lon="6.60127">
        <ele>756.9</ele>
        <time>2023-11-26T10:53:35Z</time>
      </trkpt>
      <trkpt lat="43.62076" lon="6.60125">
        <ele>756.9</ele>
        <time>2023-11-26T10:53:36Z</time>
      </trkpt>
      <trkpt lat="43.62075" lon="6.60123">
        <ele>757</ele>
        <time>2023-11-26T10:53:37Z</time>
      </trkpt>
      <trkpt lat="43.62074" lon="6.60121">
        <ele>757.1</ele>
        <time>2023-11-26T10:53:38Z</time>
      </trkpt>
      <trkpt lat="43.62073" lon="6.6012">
        <ele>757.1</ele>
        <time>2023-11-26T10:53:39Z</time>
      </trkpt>
      <trkpt lat="43.62072" lon="6.60118">
        <ele>757.2</ele>
        <time>2023-11-26T10:53:40Z</time>
      </trkpt>
      <trkpt lat="43.62072" lon="6.60116">
        <ele>757.2</ele>
        <time>2023-11-26T10:53:41Z</time>
      </trkpt>
      <trkpt lat="43.62071" lon="6.60115">
        <ele>757.3</ele>
        <time>2023-11-26T10:53:42Z</time>
      </trkpt>
      <trkpt lat="43.6207" lon="6.60113">
        <ele>757.3</ele>
        <time>2023-11-26T10:53:43Z</time>
      </trkpt>
      <trkpt lat="43.6207" lon="6.60111">
        <ele>757.4</ele>
        <time>2023-11-26T10:53:44Z</time>
      </trkpt>
      <trkpt lat="43.62069" lon="6.60109">
        <ele>757.5</ele>
        <time>2023-11-26T10:53:45Z</time>
      </trkpt>
      <trkpt lat="43.62068" lon="6.60108">
        <ele>757.6</ele>
        <time>2023-11-26T10:53:46Z</time>
      </trkpt>
      <trkpt lat="43.62067" lon="6.60106">
        <ele>757.7</ele>
        <time>2023-11-26T10:53:47Z</time>
      </trkpt>
      <trkpt lat="43.62065" lon="6.60105">
        <ele>757.7</ele>
        <time>2023-11-26T10:53:48Z</time>
      </trkpt>
      <trkpt lat="43.62065" lon="6.60103">
        <ele>757.8</ele>
        <time>2023-11-26T10:53:49Z</time>
      </trkpt>
      <trkpt lat="43.62064" lon="6.60102">
        <ele>758</ele>
        <time>2023-11-26T10:53:50Z</time>
      </trkpt>
      <trkpt lat="43.62063" lon="6.601">
        <ele>758</ele>
        <time>2023-11-26T10:53:51Z</time>
      </trkpt>
      <trkpt lat="43.62062" lon="6.60099">
        <ele>758.1</ele>
        <time>2023-11-26T10:53:52Z</time>
      </trkpt>
      <trkpt lat="43.62061" lon="6.60097">
        <ele>758.2</ele>
        <time>2023-11-26T10:53:53Z</time>
      </trkpt>
      <trkpt lat="43.6206" lon="6.60096">
        <ele>758.3</ele>
        <time>2023-11-26T10:53:54Z</time>
      </trkpt>
      <trkpt lat="43.62059" lon="6.60094">
        <ele>758.4</ele>
        <time>2023-11-26T10:53:55Z</time>
      </trkpt>
      <trkpt lat="43.62059" lon="6.60093">
        <ele>758.5</ele>
        <time>2023-11-26T10:53:56Z</time>
      </trkpt>
      <trkpt lat="43.62058" lon="6.60092">
        <ele>758.5</ele>
        <time>2023-11-26T10:53:57Z</time>
      </trkpt>
      <trkpt lat="43.62057" lon="6.6009">
        <ele>758.6</ele>
        <time>2023-11-26T10:53:58Z</time>
      </trkpt>
      <trkpt lat="43.62056" lon="6.60089">
        <ele>758.8</ele>
        <time>2023-11-26T10:53:59Z</time>
      </trkpt>
      <trkpt lat="43.62055" lon="6.60087">
        <ele>758.9</ele>
        <time>2023-11-26T10:54:00Z</time>
      </trkpt>
      <trkpt lat="43.62055" lon="6.60085">
        <ele>759</ele>
        <time>2023-11-26T10:54:01Z</time>
      </trkpt>
      <trkpt lat="43.62054" lon="6.60084">
        <ele>759.1</ele>
        <time>2023-11-26T10:54:02Z</time>
      </trkpt>
      <trkpt lat="43.62053" lon="6.60083">
        <ele>759.1</ele>
        <time>2023-11-26T10:54:03Z</time>
      </trkpt>
      <trkpt lat="43.62052" lon="6.60081">
        <ele>759.2</ele>
        <time>2023-11-26T10:54:04Z</time>
      </trkpt>
      <trkpt lat="43.62051" lon="6.6008">
        <ele>759.3</ele>
        <time>2023-11-26T10:54:05Z</time>
      </trkpt>
      <trkpt lat="43.6205" lon="6.60078">
        <ele>759.5</ele>
        <time>2023-11-26T10:54:06Z</time>
      </trkpt>
      <trkpt lat="43.62049" lon="6.60076">
        <ele>759.6</ele>
        <time>2023-11-26T10:54:07Z</time>
      </trkpt>
      <trkpt lat="43.62048" lon="6.60075">
        <ele>759.8</ele>
        <time>2023-11-26T10:54:08Z</time>
      </trkpt>
      <trkpt lat="43.62048" lon="6.60073">
        <ele>759.8</ele>
        <time>2023-11-26T10:54:09Z</time>
      </trkpt>
      <trkpt lat="43.62047" lon="6.60072">
        <ele>759.8</ele>
        <time>2023-11-26T10:54:10Z</time>
      </trkpt>
      <trkpt lat="43.62047" lon="6.60071">
        <ele>759.7</ele>
        <time>2023-11-26T10:54:11Z</time>
      </trkpt>
      <trkpt lat="43.62046" lon="6.60069">
        <ele>759.7</ele>
        <time>2023-11-26T10:54:12Z</time>
      </trkpt>
      <trkpt lat="43.62045" lon="6.60068">
        <ele>759.7</ele>
        <time>2023-11-26T10:54:13Z</time>
      </trkpt>
      <trkpt lat="43.62044" lon="6.60066">
        <ele>759.8</ele>
        <time>2023-11-26T10:54:14Z</time>
      </trkpt>
      <trkpt lat="43.62044" lon="6.60065">
        <ele>759.7</ele>
        <time>2023-11-26T10:54:15Z</time>
      </trkpt>
      <trkpt lat="43.62043" lon="6.60063">
        <ele>759.8</ele>
        <time>2023-11-26T10:54:16Z</time>
      </trkpt>
      <trkpt lat="43.62042" lon="6.60062">
        <ele>759.9</ele>
        <time>2023-11-26T10:54:17Z</time>
      </trkpt>
      <trkpt lat="43.62041" lon="6.6006">
        <ele>760</ele>
        <time>2023-11-26T10:54:18Z</time>
      </trkpt>
      <trkpt lat="43.6204" lon="6.60058">
        <ele>760.2</ele>
        <time>2023-11-26T10:54:19Z</time>
      </trkpt>
      <trkpt lat="43.6204" lon="6.60057">
        <ele>760.3</ele>
        <time>2023-11-26T10:54:20Z</time>
      </trkpt>
      <trkpt lat="43.62039" lon="6.60056">
        <ele>760.3</ele>
        <time>2023-11-26T10:54:21Z</time>
      </trkpt>
      <trkpt lat="43.62038" lon="6.60054">
        <ele>760.4</ele>
        <time>2023-11-26T10:54:22Z</time>
      </trkpt>
      <trkpt lat="43.62037" lon="6.60053">
        <ele>760.5</ele>
        <time>2023-11-26T10:54:23Z</time>
      </trkpt>
      <trkpt lat="43.62036" lon="6.60051">
        <ele>760.6</ele>
        <time>2023-11-26T10:54:24Z</time>
      </trkpt>
      <trkpt lat="43.62036" lon="6.6005">
        <ele>760.6</ele>
        <time>2023-11-26T10:54:25Z</time>
      </trkpt>
      <trkpt lat="43.62035" lon="6.60049">
        <ele>760.7</ele>
        <time>2023-11-26T10:54:26Z</time>
      </trkpt>
      <trkpt lat="43.62034" lon="6.60047">
        <ele>760.8</ele>
        <time>2023-11-26T10:54:27Z</time>
      </trkpt>
      <trkpt lat="43.62034" lon="6.60046">
        <ele>760.8</ele>
        <time>2023-11-26T10:54:28Z</time>
      </trkpt>
      <trkpt lat="43.62033" lon="6.60045">
        <ele>760.9</ele>
        <time>2023-11-26T10:54:29Z</time>
      </trkpt>
      <trkpt lat="43.62033" lon="6.60043">
        <ele>761.1</ele>
        <time>2023-11-26T10:54:30Z</time>
      </trkpt>
      <trkpt lat="43.62032" lon="6.60042">
        <ele>761.2</ele>
        <time>2023-11-26T10:54:31Z</time>
      </trkpt>
      <trkpt lat="43.62032" lon="6.60041">
        <ele>761.3</ele>
        <time>2023-11-26T10:54:32Z</time>
      </trkpt>
      <trkpt lat="43.62032" lon="6.6004">
        <ele>761.4</ele>
        <time>2023-11-26T10:54:33Z</time>
      </trkpt>
      <trkpt lat="43.62031" lon="6.60038">
        <ele>761.6</ele>
        <time>2023-11-26T10:54:34Z</time>
      </trkpt>
      <trkpt lat="43.62031" lon="6.60037">
        <ele>761.7</ele>
        <time>2023-11-26T10:54:35Z</time>
      </trkpt>
      <trkpt lat="43.6203" lon="6.60036">
        <ele>762</ele>
        <time>2023-11-26T10:54:36Z</time>
      </trkpt>
      <trkpt lat="43.62029" lon="6.60034">
        <ele>762.2</ele>
        <time>2023-11-26T10:54:37Z</time>
      </trkpt>
      <trkpt lat="43.62029" lon="6.60033">
        <ele>762.2</ele>
        <time>2023-11-26T10:54:38Z</time>
      </trkpt>
      <trkpt lat="43.62028" lon="6.60031">
        <ele>762.2</ele>
        <time>2023-11-26T10:54:39Z</time>
      </trkpt>
      <trkpt lat="43.62027" lon="6.60029">
        <ele>762.3</ele>
        <time>2023-11-26T10:54:40Z</time>
      </trkpt>
      <trkpt lat="43.62027" lon="6.60028">
        <ele>762.4</ele>
        <time>2023-11-26T10:54:41Z</time>
      </trkpt>
      <trkpt lat="43.62026" lon="6.60026">
        <ele>762.5</ele>
        <time>2023-11-26T10:54:42Z</time>
      </trkpt>
      <trkpt lat="43.62025" lon="6.60025">
        <ele>762.7</ele>
        <time>2023-11-26T10:54:43Z</time>
      </trkpt>
      <trkpt lat="43.62024" lon="6.60023">
        <ele>762.8</ele>
        <time>2023-11-26T10:54:44Z</time>
      </trkpt>
      <trkpt lat="43.62024" lon="6.60022">
        <ele>763</ele>
        <time>2023-11-26T10:54:45Z</time>
      </trkpt>
      <trkpt lat="43.62023" lon="6.60021">
        <ele>763.1</ele>
        <time>2023-11-26T10:54:46Z</time>
      </trkpt>
      <trkpt lat="43.62022" lon="6.60019">
        <ele>763.3</ele>
        <time>2023-11-26T10:54:47Z</time>
      </trkpt>
      <trkpt lat="43.62021" lon="6.60018">
        <ele>763.4</ele>
        <time>2023-11-26T10:54:48Z</time>
      </trkpt>
      <trkpt lat="43.6202" lon="6.60017">
        <ele>763.5</ele>
        <time>2023-11-26T10:54:49Z</time>
      </trkpt>
      <trkpt lat="43.6202" lon="6.60016">
        <ele>763.7</ele>
        <time>2023-11-26T10:54:50Z</time>
      </trkpt>
      <trkpt lat="43.6202" lon="6.60014">
        <ele>763.8</ele>
        <time>2023-11-26T10:54:51Z</time>
      </trkpt>
      <trkpt lat="43.62019" lon="6.60013">
        <ele>763.9</ele>
        <time>2023-11-26T10:54:52Z</time>
      </trkpt>
      <trkpt lat="43.62019" lon="6.60011">
        <ele>764</ele>
        <time>2023-11-26T10:54:53Z</time>
      </trkpt>
      <trkpt lat="43.62018" lon="6.6001">
        <ele>764</ele>
        <time>2023-11-26T10:54:54Z</time>
      </trkpt>
      <trkpt lat="43.62017" lon="6.60009">
        <ele>764.2</ele>
        <time>2023-11-26T10:54:55Z</time>
      </trkpt>
      <trkpt lat="43.62017" lon="6.60007">
        <ele>764.3</ele>
        <time>2023-11-26T10:54:56Z</time>
      </trkpt>
      <trkpt lat="43.62016" lon="6.60006">
        <ele>764.4</ele>
        <time>2023-11-26T10:54:57Z</time>
      </trkpt>
      <trkpt lat="43.62016" lon="6.60005">
        <ele>764.5</ele>
        <time>2023-11-26T10:54:58Z</time>
      </trkpt>
      <trkpt lat="43.62015" lon="6.60004">
        <ele>764.8</ele>
        <time>2023-11-26T10:54:59Z</time>
      </trkpt>
      <trkpt lat="43.62015" lon="6.60003">
        <ele>764.9</ele>
        <time>2023-11-26T10:55:00Z</time>
      </trkpt>
      <trkpt lat="43.62014" lon="6.60002">
        <ele>765.1</ele>
        <time>2023-11-26T10:55:01Z</time>
      </trkpt>
      <trkpt lat="43.62013" lon="6.60001">
        <ele>765.2</ele>
        <time>2023-11-26T10:55:02Z</time>
      </trkpt>
      <trkpt lat="43.62013" lon="6.6">
        <ele>765.3</ele>
        <time>2023-11-26T10:55:03Z</time>
      </trkpt>
      <trkpt lat="43.62012" lon="6.59998">
        <ele>765.4</ele>
        <time>2023-11-26T10:55:04Z</time>
      </trkpt>
      <trkpt lat="43.62011" lon="6.59998">
        <ele>765.5</ele>
        <time>2023-11-26T10:55:05Z</time>
      </trkpt>
      <trkpt lat="43.62011" lon="6.59997">
        <ele>765.5</ele>
        <time>2023-11-26T10:55:06Z</time>
      </trkpt>
      <trkpt lat="43.6201" lon="6.59996">
        <ele>765.7</ele>
        <time>2023-11-26T10:55:07Z</time>
      </trkpt>
      <trkpt lat="43.6201" lon="6.59995">
        <ele>765.8</ele>
        <time>2023-11-26T10:55:08Z</time>
      </trkpt>
      <trkpt lat="43.62009" lon="6.59994">
        <ele>765.9</ele>
        <time>2023-11-26T10:55:09Z</time>
      </trkpt>
      <trkpt lat="43.62009" lon="6.59994">
        <ele>766.1</ele>
        <time>2023-11-26T10:55:10Z</time>
      </trkpt>
      <trkpt lat="43.62008" lon="6.59993">
        <ele>766.2</ele>
        <time>2023-11-26T10:55:11Z</time>
      </trkpt>
      <trkpt lat="43.62008" lon="6.59992">
        <ele>766.3</ele>
        <time>2023-11-26T10:55:12Z</time>
      </trkpt>
      <trkpt lat="43.62007" lon="6.59991">
        <ele>766.4</ele>
        <time>2023-11-26T10:55:13Z</time>
      </trkpt>
      <trkpt lat="43.62006" lon="6.5999">
        <ele>766.4</ele>
        <time>2023-11-26T10:55:14Z</time>
      </trkpt>
      <trkpt lat="43.62006" lon="6.59989">
        <ele>766.6</ele>
        <time>2023-11-26T10:55:15Z</time>
      </trkpt>
      <trkpt lat="43.62005" lon="6.59988">
        <ele>766.7</ele>
        <time>2023-11-26T10:55:16Z</time>
      </trkpt>
      <trkpt lat="43.62005" lon="6.59987">
        <ele>766.9</ele>
        <time>2023-11-26T10:55:17Z</time>
      </trkpt>
      <trkpt lat="43.62004" lon="6.59986">
        <ele>767</ele>
        <time>2023-11-26T10:55:18Z</time>
      </trkpt>
      <trkpt lat="43.62003" lon="6.59985">
        <ele>767.1</ele>
        <time>2023-11-26T10:55:19Z</time>
      </trkpt>
      <trkpt lat="43.62003" lon="6.59984">
        <ele>767.2</ele>
        <time>2023-11-26T10:55:20Z</time>
      </trkpt>
      <trkpt lat="43.62002" lon="6.59983">
        <ele>767.3</ele>
        <time>2023-11-26T10:55:21Z</time>
      </trkpt>
      <trkpt lat="43.62002" lon="6.59982">
        <ele>767.5</ele>
        <time>2023-11-26T10:55:22Z</time>
      </trkpt>
      <trkpt lat="43.62001" lon="6.59981">
        <ele>767.5</ele>
        <time>2023-11-26T10:55:23Z</time>
      </trkpt>
      <trkpt lat="43.62" lon="6.5998">
        <ele>767.7</ele>
        <time>2023-11-26T10:55:24Z</time>
      </trkpt>
      <trkpt lat="43.62" lon="6.59979">
        <ele>767.8</ele>
        <time>2023-11-26T10:55:25Z</time>
      </trkpt>
      <trkpt lat="43.61999" lon="6.59979">
        <ele>768.1</ele>
        <time>2023-11-26T10:55:26Z</time>
      </trkpt>
      <trkpt lat="43.61998" lon="6.59978">
        <ele>768.2</ele>
        <time>2023-11-26T10:55:27Z</time>
      </trkpt>
      <trkpt lat="43.61998" lon="6.59977">
        <ele>768.2</ele>
        <time>2023-11-26T10:55:28Z</time>
      </trkpt>
      <trkpt lat="43.61997" lon="6.59976">
        <ele>768.3</ele>
        <time>2023-11-26T10:55:29Z</time>
      </trkpt>
      <trkpt lat="43.61996" lon="6.59975">
        <ele>768.4</ele>
        <time>2023-11-26T10:55:30Z</time>
      </trkpt>
      <trkpt lat="43.61995" lon="6.59975">
        <ele>768.5</ele>
        <time>2023-11-26T10:55:31Z</time>
      </trkpt>
      <trkpt lat="43.61995" lon="6.59974">
        <ele>768.8</ele>
        <time>2023-11-26T10:55:32Z</time>
      </trkpt>
      <trkpt lat="43.61994" lon="6.59974">
        <ele>769.1</ele>
        <time>2023-11-26T10:55:33Z</time>
      </trkpt>
      <trkpt lat="43.61993" lon="6.59973">
        <ele>769.2</ele>
        <time>2023-11-26T10:55:34Z</time>
      </trkpt>
      <trkpt lat="43.61992" lon="6.59972">
        <ele>769.4</ele>
        <time>2023-11-26T10:55:35Z</time>
      </trkpt>
      <trkpt lat="43.61991" lon="6.59971">
        <ele>769.5</ele>
        <time>2023-11-26T10:55:36Z</time>
      </trkpt>
      <trkpt lat="43.6199" lon="6.59971">
        <ele>769.7</ele>
        <time>2023-11-26T10:55:37Z</time>
      </trkpt>
      <trkpt lat="43.6199" lon="6.5997">
        <ele>769.9</ele>
        <time>2023-11-26T10:55:38Z</time>
      </trkpt>
      <trkpt lat="43.61989" lon="6.59969">
        <ele>770</ele>
        <time>2023-11-26T10:55:39Z</time>
      </trkpt>
      <trkpt lat="43.61988" lon="6.59968">
        <ele>770.1</ele>
        <time>2023-11-26T10:55:40Z</time>
      </trkpt>
      <trkpt lat="43.61987" lon="6.59968">
        <ele>770.2</ele>
        <time>2023-11-26T10:55:41Z</time>
      </trkpt>
      <trkpt lat="43.61986" lon="6.59967">
        <ele>770.3</ele>
        <time>2023-11-26T10:55:42Z</time>
      </trkpt>
      <trkpt lat="43.61986" lon="6.59966">
        <ele>770.4</ele>
        <time>2023-11-26T10:55:43Z</time>
      </trkpt>
      <trkpt lat="43.61985" lon="6.59966">
        <ele>770.4</ele>
        <time>2023-11-26T10:55:44Z</time>
      </trkpt>
      <trkpt lat="43.61984" lon="6.59965">
        <ele>770.4</ele>
        <time>2023-11-26T10:55:45Z</time>
      </trkpt>
      <trkpt lat="43.61984" lon="6.59964">
        <ele>770.5</ele>
        <time>2023-11-26T10:55:46Z</time>
      </trkpt>
      <trkpt lat="43.61984" lon="6.59963">
        <ele>770.6</ele>
        <time>2023-11-26T10:55:47Z</time>
      </trkpt>
      <trkpt lat="43.61983" lon="6.59963">
        <ele>770.7</ele>
        <time>2023-11-26T10:55:48Z</time>
      </trkpt>
      <trkpt lat="43.61983" lon="6.59962">
        <ele>770.8</ele>
        <time>2023-11-26T10:55:49Z</time>
      </trkpt>
      <trkpt lat="43.61982" lon="6.59961">
        <ele>770.9</ele>
        <time>2023-11-26T10:55:50Z</time>
      </trkpt>
      <trkpt lat="43.61982" lon="6.5996">
        <ele>770.9</ele>
        <time>2023-11-26T10:55:51Z</time>
      </trkpt>
      <trkpt lat="43.61982" lon="6.5996">
        <ele>771</ele>
        <time>2023-11-26T10:55:52Z</time>
      </trkpt>
      <trkpt lat="43.61982" lon="6.59959">
        <ele>771</ele>
        <time>2023-11-26T10:55:53Z</time>
      </trkpt>
      <trkpt lat="43.61981" lon="6.59958">
        <ele>771</ele>
        <time>2023-11-26T10:55:54Z</time>
      </trkpt>
      <trkpt lat="43.61981" lon="6.59957">
        <ele>771.1</ele>
        <time>2023-11-26T10:55:55Z</time>
      </trkpt>
      <trkpt lat="43.6198" lon="6.59956">
        <ele>771.1</ele>
        <time>2023-11-26T10:55:56Z</time>
      </trkpt>
      <trkpt lat="43.6198" lon="6.59956">
        <ele>771.1</ele>
        <time>2023-11-26T10:55:57Z</time>
      </trkpt>
      <trkpt lat="43.61979" lon="6.59955">
        <ele>771.2</ele>
        <time>2023-11-26T10:55:58Z</time>
      </trkpt>
      <trkpt lat="43.61979" lon="6.59954">
        <ele>771.2</ele>
        <time>2023-11-26T10:55:59Z</time>
      </trkpt>
      <trkpt lat="43.61978" lon="6.59954">
        <ele>771.3</ele>
        <time>2023-11-26T10:56:00Z</time>
      </trkpt>
      <trkpt lat="43.61978" lon="6.59953">
        <ele>771.4</ele>
        <time>2023-11-26T10:56:01Z</time>
      </trkpt>
      <trkpt lat="43.61977" lon="6.59952">
        <ele>771.4</ele>
        <time>2023-11-26T10:56:02Z</time>
      </trkpt>
      <trkpt lat="43.61977" lon="6.59952">
        <ele>771.4</ele>
        <time>2023-11-26T10:56:03Z</time>
      </trkpt>
      <trkpt lat="43.61976" lon="6.59951">
        <ele>771.5</ele>
        <time>2023-11-26T10:56:04Z</time>
      </trkpt>
      <trkpt lat="43.61975" lon="6.5995">
        <ele>771.5</ele>
        <time>2023-11-26T10:56:05Z</time>
      </trkpt>
      <trkpt lat="43.61975" lon="6.5995">
        <ele>771.5</ele>
        <time>2023-11-26T10:56:06Z</time>
      </trkpt>
      <trkpt lat="43.61974" lon="6.59949">
        <ele>771.5</ele>
        <time>2023-11-26T10:56:07Z</time>
      </trkpt>
      <trkpt lat="43.61973" lon="6.59949">
        <ele>771.6</ele>
        <time>2023-11-26T10:56:08Z</time>
      </trkpt>
      <trkpt lat="43.61972" lon="6.59948">
        <ele>771.6</ele>
        <time>2023-11-26T10:56:09Z</time>
      </trkpt>
      <trkpt lat="43.61972" lon="6.59948">
        <ele>771.6</ele>
        <time>2023-11-26T10:56:10Z</time>
      </trkpt>
      <trkpt lat="43.61971" lon="6.59947">
        <ele>771.6</ele>
        <time>2023-11-26T10:56:11Z</time>
      </trkpt>
      <trkpt lat="43.61971" lon="6.59947">
        <ele>771.6</ele>
        <time>2023-11-26T10:56:12Z</time>
      </trkpt>
      <trkpt lat="43.61971" lon="6.59948">
        <ele>771.7</ele>
        <time>2023-11-26T10:56:13Z</time>
      </trkpt>
      <trkpt lat="43.61971" lon="6.59948">
        <ele>771.7</ele>
        <time>2023-11-26T10:56:14Z</time>
      </trkpt>
      <trkpt lat="43.61971" lon="6.59947">
        <ele>771.7</ele>
        <time>2023-11-26T10:56:15Z</time>
      </trkpt>
      <trkpt lat="43.6197" lon="6.59947">
        <ele>771.6</ele>
        <time>2023-11-26T10:56:16Z</time>
      </trkpt>
      <trkpt lat="43.6197" lon="6.59947">
        <ele>771.7</ele>
        <time>2023-11-26T10:56:17Z</time>
      </trkpt>
      <trkpt lat="43.6197" lon="6.59947">
        <ele>771.7</ele>
        <time>2023-11-26T10:56:18Z</time>
      </trkpt>
      <trkpt lat="43.6197" lon="6.59947">
        <ele>771.7</ele>
        <time>2023-11-26T10:56:19Z</time>
      </trkpt>
      <trkpt lat="43.6197" lon="6.59947">
        <ele>771.7</ele>
        <time>2023-11-26T10:56:20Z</time>
      </trkpt>
      <trkpt lat="43.6197" lon="6.59947">
        <ele>771.8</ele>
        <time>2023-11-26T10:56:21Z</time>
      </trkpt>
      <trkpt lat="43.6197" lon="6.59947">
        <ele>771.7</ele>
        <time>2023-11-26T10:56:22Z</time>
      </trkpt>
      <trkpt lat="43.6197" lon="6.59947">
        <ele>771.7</ele>
        <time>2023-11-26T10:56:23Z</time>
      </trkpt>
      <trkpt lat="43.6197" lon="6.59947">
        <ele>771.7</ele>
        <time>2023-11-26T10:56:24Z</time>
      </trkpt>
      <trkpt lat="43.6197" lon="6.59947">
        <ele>771.6</ele>
        <time>2023-11-26T10:56:25Z</time>
      </trkpt>
      <trkpt lat="43.6197" lon="6.59947">
        <ele>771.5</ele>
        <time>2023-11-26T10:56:26Z</time>
      </trkpt>
      <trkpt lat="43.6197" lon="6.59947">
        <ele>771.4</ele>
        <time>2023-11-26T10:56:27Z</time>
      </trkpt>
      <trkpt lat="43.6197" lon="6.59947">
        <ele>771.3</ele>
        <time>2023-11-26T10:56:28Z</time>
      </trkpt>
      <trkpt lat="43.6197" lon="6.59947">
        <ele>771.4</ele>
        <time>2023-11-26T10:56:29Z</time>
      </trkpt>
      <trkpt lat="43.6197" lon="6.59947">
        <ele>771.4</ele>
        <time>2023-11-26T10:56:30Z</time>
      </trkpt>
      <trkpt lat="43.6197" lon="6.59947">
        <ele>771.4</ele>
        <time>2023-11-26T10:56:31Z</time>
      </trkpt>
      <trkpt lat="43.6197" lon="6.59947">
        <ele>771.4</ele>
        <time>2023-11-26T10:56:32Z</time>
      </trkpt>
      <trkpt lat="43.6197" lon="6.59947">
        <ele>771.5</ele>
        <time>2023-11-26T10:56:33Z</time>
      </trkpt>
      <trkpt lat="43.6197" lon="6.59947">
        <ele>771.5</ele>
        <time>2023-11-26T10:56:34Z</time>
      </trkpt>
      <trkpt lat="43.6197" lon="6.59947">
        <ele>771.5</ele>
        <time>2023-11-26T10:56:35Z</time>
      </trkpt>
      <trkpt lat="43.6197" lon="6.59947">
        <ele>771.6</ele>
        <time>2023-11-26T10:56:36Z</time>
      </trkpt>
      <trkpt lat="43.6197" lon="6.59947">
        <ele>771.6</ele>
        <time>2023-11-26T10:56:37Z</time>
      </trkpt>
      <trkpt lat="43.6197" lon="6.59947">
        <ele>771.6</ele>
        <time>2023-11-26T10:56:38Z</time>
      </trkpt>
      <trkpt lat="43.6197" lon="6.59947">
        <ele>771.6</ele>
        <time>2023-11-26T10:56:39Z</time>
      </trkpt>
      <trkpt lat="43.6197" lon="6.59947">
        <ele>771.6</ele>
        <time>2023-11-26T10:56:40Z</time>
      </trkpt>
      <trkpt lat="43.61969" lon="6.59947">
        <ele>771.5</ele>
        <time>2023-11-26T10:56:41Z</time>
      </trkpt>
      <trkpt lat="43.6197" lon="6.59947">
        <ele>771.5</ele>
        <time>2023-11-26T10:56:42Z</time>
      </trkpt>
      <trkpt lat="43.6197" lon="6.59947">
        <ele>771.4</ele>
        <time>2023-11-26T10:56:43Z</time>
      </trkpt>
      <trkpt lat="43.61969" lon="6.59947">
        <ele>771.4</ele>
        <time>2023-11-26T10:56:44Z</time>
      </trkpt>
      <trkpt lat="43.61969" lon="6.59947">
        <ele>771.5</ele>
        <time>2023-11-26T10:56:45Z</time>
      </trkpt>
      <trkpt lat="43.61969" lon="6.59947">
        <ele>771.5</ele>
        <time>2023-11-26T10:56:46Z</time>
      </trkpt>
      <trkpt lat="43.61968" lon="6.59947">
        <ele>771.5</ele>
        <time>2023-11-26T10:56:47Z</time>
      </trkpt>
      <trkpt lat="43.61968" lon="6.59947">
        <ele>771.4</ele>
        <time>2023-11-26T10:56:48Z</time>
      </trkpt>
      <trkpt lat="43.61968" lon="6.59947">
        <ele>771.5</ele>
        <time>2023-11-26T10:56:49Z</time>
      </trkpt>
      <trkpt lat="43.61968" lon="6.59946">
        <ele>771.5</ele>
        <time>2023-11-26T10:56:50Z</time>
      </trkpt>
      <trkpt lat="43.61968" lon="6.59946">
        <ele>771.5</ele>
        <time>2023-11-26T10:56:51Z</time>
      </trkpt>
      <trkpt lat="43.61968" lon="6.59946">
        <ele>771.6</ele>
        <time>2023-11-26T10:56:52Z</time>
      </trkpt>
      <trkpt lat="43.61968" lon="6.59947">
        <ele>771.6</ele>
        <time>2023-11-26T10:56:53Z</time>
      </trkpt>
      <trkpt lat="43.61968" lon="6.59946">
        <ele>771.7</ele>
        <time>2023-11-26T10:56:54Z</time>
      </trkpt>
      <trkpt lat="43.61967" lon="6.59946">
        <ele>771.7</ele>
        <time>2023-11-26T10:56:55Z</time>
      </trkpt>
      <trkpt lat="43.61967" lon="6.59946">
        <ele>771.6</ele>
        <time>2023-11-26T10:56:56Z</time>
      </trkpt>
      <trkpt lat="43.61967" lon="6.59945">
        <ele>771.5</ele>
        <time>2023-11-26T10:56:57Z</time>
      </trkpt>
      <trkpt lat="43.61967" lon="6.59945">
        <ele>771.5</ele>
        <time>2023-11-26T10:56:58Z</time>
      </trkpt>
      <trkpt lat="43.61967" lon="6.59945">
        <ele>771.6</ele>
        <time>2023-11-26T10:56:59Z</time>
      </trkpt>
      <trkpt lat="43.61966" lon="6.59946">
        <ele>771.5</ele>
        <time>2023-11-26T10:57:00Z</time>
      </trkpt>
      <trkpt lat="43.61966" lon="6.59946">
        <ele>771.4</ele>
        <time>2023-11-26T10:57:01Z</time>
      </trkpt>
      <trkpt lat="43.61966" lon="6.59946">
        <ele>771.4</ele>
        <time>2023-11-26T10:57:02Z</time>
      </trkpt>
      <trkpt lat="43.61966" lon="6.59946">
        <ele>771.3</ele>
        <time>2023-11-26T10:57:03Z</time>
      </trkpt>
      <trkpt lat="43.61966" lon="6.59946">
        <ele>771.4</ele>
        <time>2023-11-26T10:57:04Z</time>
      </trkpt>
      <trkpt lat="43.61966" lon="6.59946">
        <ele>771.4</ele>
        <time>2023-11-26T10:57:05Z</time>
      </trkpt>
      <trkpt lat="43.61966" lon="6.59946">
        <ele>771.5</ele>
        <time>2023-11-26T10:57:06Z</time>
      </trkpt>
      <trkpt lat="43.61966" lon="6.59946">
        <ele>771.5</ele>
        <time>2023-11-26T10:57:07Z</time>
      </trkpt>
      <trkpt lat="43.61966" lon="6.59946">
        <ele>771.4</ele>
        <time>2023-11-26T10:57:08Z</time>
      </trkpt>
      <trkpt lat="43.61966" lon="6.59946">
        <ele>771.4</ele>
        <time>2023-11-26T10:57:09Z</time>
      </trkpt>
      <trkpt lat="43.61966" lon="6.59946">
        <ele>771.4</ele>
        <time>2023-11-26T10:57:10Z</time>
      </trkpt>
      <trkpt lat="43.61966" lon="6.59946">
        <ele>771.4</ele>
        <time>2023-11-26T10:57:11Z</time>
      </trkpt>
      <trkpt lat="43.61966" lon="6.59946">
        <ele>771.5</ele>
        <time>2023-11-26T10:57:12Z</time>
      </trkpt>
      <trkpt lat="43.61965" lon="6.59946">
        <ele>771.6</ele>
        <time>2023-11-26T10:57:13Z</time>
      </trkpt>
      <trkpt lat="43.61965" lon="6.59946">
        <ele>771.6</ele>
        <time>2023-11-26T10:57:14Z</time>
      </trkpt>
      <trkpt lat="43.61965" lon="6.59946">
        <ele>771.7</ele>
        <time>2023-11-26T10:57:15Z</time>
      </trkpt>
      <trkpt lat="43.61965" lon="6.59946">
        <ele>771.7</ele>
        <time>2023-11-26T10:57:16Z</time>
      </trkpt>
      <trkpt lat="43.61965" lon="6.59946">
        <ele>771.6</ele>
        <time>2023-11-26T10:57:17Z</time>
      </trkpt>
      <trkpt lat="43.61965" lon="6.59946">
        <ele>771.8</ele>
        <time>2023-11-26T10:57:18Z</time>
      </trkpt>
      <trkpt lat="43.61965" lon="6.59946">
        <ele>771.7</ele>
        <time>2023-11-26T10:57:19Z</time>
      </trkpt>
      <trkpt lat="43.61965" lon="6.59946">
        <ele>771.7</ele>
        <time>2023-11-26T10:57:20Z</time>
      </trkpt>
      <trkpt lat="43.61965" lon="6.59946">
        <ele>771.7</ele>
        <time>2023-11-26T10:57:21Z</time>
      </trkpt>
      <trkpt lat="43.61965" lon="6.59946">
        <ele>771.6</ele>
        <time>2023-11-26T10:57:22Z</time>
      </trkpt>
      <trkpt lat="43.61965" lon="6.59946">
        <ele>771.5</ele>
        <time>2023-11-26T10:57:23Z</time>
      </trkpt>
      <trkpt lat="43.61965" lon="6.59947">
        <ele>771.4</ele>
        <time>2023-11-26T10:57:24Z</time>
      </trkpt>
      <trkpt lat="43.61965" lon="6.59947">
        <ele>771.5</ele>
        <time>2023-11-26T10:57:25Z</time>
      </trkpt>
      <trkpt lat="43.61964" lon="6.59947">
        <ele>771.5</ele>
        <time>2023-11-26T10:57:26Z</time>
      </trkpt>
      <trkpt lat="43.61964" lon="6.59947">
        <ele>771.5</ele>
        <time>2023-11-26T10:57:27Z</time>
      </trkpt>
      <trkpt lat="43.61964" lon="6.59947">
        <ele>771.5</ele>
        <time>2023-11-26T10:57:28Z</time>
      </trkpt>
      <trkpt lat="43.61964" lon="6.59947">
        <ele>771.5</ele>
        <time>2023-11-26T10:57:29Z</time>
      </trkpt>
      <trkpt lat="43.61964" lon="6.59947">
        <ele>771.5</ele>
        <time>2023-11-26T10:57:30Z</time>
      </trkpt>
      <trkpt lat="43.61964" lon="6.59947">
        <ele>771.4</ele>
        <time>2023-11-26T10:57:31Z</time>
      </trkpt>
      <trkpt lat="43.61964" lon="6.59947">
        <ele>771.3</ele>
        <time>2023-11-26T10:57:32Z</time>
      </trkpt>
      <trkpt lat="43.61964" lon="6.59947">
        <ele>771.3</ele>
        <time>2023-11-26T10:57:33Z</time>
      </trkpt>
      <trkpt lat="43.61964" lon="6.59947">
        <ele>771.3</ele>
        <time>2023-11-26T10:57:34Z</time>
      </trkpt>
      <trkpt lat="43.61964" lon="6.59947">
        <ele>771.3</ele>
        <time>2023-11-26T10:57:35Z</time>
      </trkpt>
      <trkpt lat="43.61964" lon="6.59947">
        <ele>771.4</ele>
        <time>2023-11-26T10:57:36Z</time>
      </trkpt>
      <trkpt lat="43.61964" lon="6.59947">
        <ele>771.4</ele>
        <time>2023-11-26T10:57:37Z</time>
      </trkpt>
      <trkpt lat="43.61964" lon="6.59948">
        <ele>771.4</ele>
        <time>2023-11-26T10:57:38Z</time>
      </trkpt>
      <trkpt lat="43.61964" lon="6.59948">
        <ele>771.4</ele>
        <time>2023-11-26T10:57:39Z</time>
      </trkpt>
      <trkpt lat="43.61964" lon="6.59948">
        <ele>771.4</ele>
        <time>2023-11-26T10:57:40Z</time>
      </trkpt>
      <trkpt lat="43.61964" lon="6.59948">
        <ele>771.4</ele>
        <time>2023-11-26T10:57:41Z</time>
      </trkpt>
      <trkpt lat="43.61964" lon="6.59948">
        <ele>771.5</ele>
        <time>2023-11-26T10:57:42Z</time>
      </trkpt>
      <trkpt lat="43.61964" lon="6.59948">
        <ele>771.5</ele>
        <time>2023-11-26T10:57:43Z</time>
      </trkpt>
      <trkpt lat="43.61964" lon="6.59948">
        <ele>771.5</ele>
        <time>2023-11-26T10:57:44Z</time>
      </trkpt>
      <trkpt lat="43.61964" lon="6.59948">
        <ele>771.6</ele>
        <time>2023-11-26T10:57:45Z</time>
      </trkpt>
      <trkpt lat="43.61964" lon="6.59948">
        <ele>771.7</ele>
        <time>2023-11-26T10:57:46Z</time>
      </trkpt>
      <trkpt lat="43.61964" lon="6.59948">
        <ele>771.7</ele>
        <time>2023-11-26T10:57:47Z</time>
      </trkpt>
      <trkpt lat="43.61964" lon="6.59948">
        <ele>771.7</ele>
        <time>2023-11-26T10:57:48Z</time>
      </trkpt>
      <trkpt lat="43.61963" lon="6.59947">
        <ele>771.8</ele>
        <time>2023-11-26T10:57:49Z</time>
      </trkpt>
      <trkpt lat="43.61963" lon="6.59947">
        <ele>771.7</ele>
        <time>2023-11-26T10:57:50Z</time>
      </trkpt>
      <trkpt lat="43.61963" lon="6.59948">
        <ele>771.7</ele>
        <time>2023-11-26T10:57:51Z</time>
      </trkpt>
      <trkpt lat="43.61963" lon="6.59948">
        <ele>771.7</ele>
        <time>2023-11-26T10:57:52Z</time>
      </trkpt>
      <trkpt lat="43.61963" lon="6.59948">
        <ele>771.7</ele>
        <time>2023-11-26T10:57:53Z</time>
      </trkpt>
      <trkpt lat="43.61963" lon="6.59948">
        <ele>771.8</ele>
        <time>2023-11-26T10:57:54Z</time>
      </trkpt>
      <trkpt lat="43.61963" lon="6.59948">
        <ele>771.8</ele>
        <time>2023-11-26T10:57:55Z</time>
      </trkpt>
      <trkpt lat="43.61964" lon="6.59948">
        <ele>771.9</ele>
        <time>2023-11-26T10:57:56Z</time>
      </trkpt>
      <trkpt lat="43.61964" lon="6.59949">
        <ele>771.9</ele>
        <time>2023-11-26T10:57:57Z</time>
      </trkpt>
      <trkpt lat="43.61964" lon="6.59949">
        <ele>772</ele>
        <time>2023-11-26T10:57:58Z</time>
      </trkpt>
      <trkpt lat="43.61964" lon="6.59949">
        <ele>771.9</ele>
        <time>2023-11-26T10:57:59Z</time>
      </trkpt>
      <trkpt lat="43.61964" lon="6.59949">
        <ele>771.9</ele>
        <time>2023-11-26T10:58:00Z</time>
      </trkpt>
      <trkpt lat="43.61964" lon="6.59949">
        <ele>771.8</ele>
        <time>2023-11-26T10:58:01Z</time>
      </trkpt>
      <trkpt lat="43.61963" lon="6.59949">
        <ele>771.9</ele>
        <time>2023-11-26T10:58:02Z</time>
      </trkpt>
      <trkpt lat="43.61964" lon="6.59949">
        <ele>771.8</ele>
        <time>2023-11-26T10:58:03Z</time>
      </trkpt>
      <trkpt lat="43.61964" lon="6.59949">
        <ele>771.8</ele>
        <time>2023-11-26T10:58:04Z</time>
      </trkpt>
      <trkpt lat="43.61964" lon="6.59949">
        <ele>771.8</ele>
        <time>2023-11-26T10:58:05Z</time>
      </trkpt>
      <trkpt lat="43.61964" lon="6.59949">
        <ele>771.8</ele>
        <time>2023-11-26T10:58:06Z</time>
      </trkpt>
      <trkpt lat="43.61964" lon="6.59949">
        <ele>771.9</ele>
        <time>2023-11-26T10:58:07Z</time>
      </trkpt>
      <trkpt lat="43.61964" lon="6.59949">
        <ele>771.9</ele>
        <time>2023-11-26T10:58:08Z</time>
      </trkpt>
      <trkpt lat="43.61964" lon="6.59949">
        <ele>771.9</ele>
        <time>2023-11-26T10:58:09Z</time>
      </trkpt>
      <trkpt lat="43.61964" lon="6.59949">
        <ele>771.9</ele>
        <time>2023-11-26T10:58:10Z</time>
      </trkpt>
      <trkpt lat="43.61963" lon="6.59949">
        <ele>771.9</ele>
        <time>2023-11-26T10:58:11Z</time>
      </trkpt>
      <trkpt lat="43.61963" lon="6.59949">
        <ele>772</ele>
        <time>2023-11-26T10:58:12Z</time>
      </trkpt>
      <trkpt lat="43.61963" lon="6.59949">
        <ele>771.9</ele>
        <time>2023-11-26T10:58:13Z</time>
      </trkpt>
      <trkpt lat="43.61963" lon="6.59949">
        <ele>771.9</ele>
        <time>2023-11-26T10:58:14Z</time>
      </trkpt>
      <trkpt lat="43.61963" lon="6.59948">
        <ele>771.9</ele>
        <time>2023-11-26T10:58:15Z</time>
      </trkpt>
      <trkpt lat="43.61963" lon="6.59948">
        <ele>771.9</ele>
        <time>2023-11-26T10:58:16Z</time>
      </trkpt>
      <trkpt lat="43.61963" lon="6.59948">
        <ele>771.9</ele>
        <time>2023-11-26T10:58:17Z</time>
      </trkpt>
      <trkpt lat="43.61963" lon="6.59948">
        <ele>772</ele>
        <time>2023-11-26T10:58:18Z</time>
      </trkpt>
      <trkpt lat="43.61963" lon="6.59948">
        <ele>772.1</ele>
        <time>2023-11-26T10:58:19Z</time>
      </trkpt>
      <trkpt lat="43.61963" lon="6.59948">
        <ele>772.1</ele>
        <time>2023-11-26T10:58:20Z</time>
      </trkpt>
      <trkpt lat="43.61963" lon="6.59947">
        <ele>772.1</ele>
        <time>2023-11-26T10:58:21Z</time>
      </trkpt>
      <trkpt lat="43.61963" lon="6.59948">
        <ele>772.1</ele>
        <time>2023-11-26T10:58:22Z</time>
      </trkpt>
      <trkpt lat="43.61963" lon="6.59947">
        <ele>772.1</ele>
        <time>2023-11-26T10:58:23Z</time>
      </trkpt>
      <trkpt lat="43.61964" lon="6.59948">
        <ele>772</ele>
        <time>2023-11-26T10:58:24Z</time>
      </trkpt>
      <trkpt lat="43.61964" lon="6.59948">
        <ele>772.1</ele>
        <time>2023-11-26T10:58:25Z</time>
      </trkpt>
      <trkpt lat="43.61964" lon="6.59948">
        <ele>772.1</ele>
        <time>2023-11-26T10:58:26Z</time>
      </trkpt>
      <trkpt lat="43.61964" lon="6.59948">
        <ele>772.1</ele>
        <time>2023-11-26T10:58:27Z</time>
      </trkpt>
      <trkpt lat="43.61964" lon="6.59948">
        <ele>772.1</ele>
        <time>2023-11-26T10:58:28Z</time>
      </trkpt>
      <trkpt lat="43.61964" lon="6.59948">
        <ele>772.1</ele>
        <time>2023-11-26T10:58:29Z</time>
      </trkpt>
      <trkpt lat="43.61964" lon="6.59948">
        <ele>772.1</ele>
        <time>2023-11-26T10:58:30Z</time>
      </trkpt>
      <trkpt lat="43.61964" lon="6.59948">
        <ele>772</ele>
        <time>2023-11-26T10:58:31Z</time>
      </trkpt>
      <trkpt lat="43.61964" lon="6.59948">
        <ele>772.1</ele>
        <time>2023-11-26T10:58:32Z</time>
      </trkpt>
      <trkpt lat="43.61964" lon="6.59948">
        <ele>772.2</ele>
        <time>2023-11-26T10:58:33Z</time>
      </trkpt>
      <trkpt lat="43.61964" lon="6.59948">
        <ele>772.2</ele>
        <time>2023-11-26T10:58:34Z</time>
      </trkpt>
      <trkpt lat="43.61964" lon="6.59948">
        <ele>772.3</ele>
        <time>2023-11-26T10:58:35Z</time>
      </trkpt>
      <trkpt lat="43.61964" lon="6.59948">
        <ele>772.4</ele>
        <time>2023-11-26T10:58:36Z</time>
      </trkpt>
      <trkpt lat="43.61964" lon="6.59948">
        <ele>772.3</ele>
        <time>2023-11-26T10:58:37Z</time>
      </trkpt>
      <trkpt lat="43.61964" lon="6.59948">
        <ele>772.3</ele>
        <time>2023-11-26T10:58:38Z</time>
      </trkpt>
      <trkpt lat="43.61964" lon="6.59948">
        <ele>772.3</ele>
        <time>2023-11-26T10:58:39Z</time>
      </trkpt>
      <trkpt lat="43.61964" lon="6.59948">
        <ele>772.2</ele>
        <time>2023-11-26T10:58:40Z</time>
      </trkpt>
      <trkpt lat="43.61964" lon="6.59948">
        <ele>772.1</ele>
        <time>2023-11-26T10:58:41Z</time>
      </trkpt>
      <trkpt lat="43.61964" lon="6.59948">
        <ele>772.2</ele>
        <time>2023-11-26T10:58:42Z</time>
      </trkpt>
      <trkpt lat="43.61964" lon="6.59948">
        <ele>772.2</ele>
        <time>2023-11-26T10:58:43Z</time>
      </trkpt>
      <trkpt lat="43.61964" lon="6.59948">
        <ele>772.3</ele>
        <time>2023-11-26T10:58:44Z</time>
      </trkpt>
      <trkpt lat="43.61964" lon="6.59948">
        <ele>772.4</ele>
        <time>2023-11-26T10:58:45Z</time>
      </trkpt>
      <trkpt lat="43.61964" lon="6.59948">
        <ele>772.4</ele>
        <time>2023-11-26T10:58:46Z</time>
      </trkpt>
      <trkpt lat="43.61964" lon="6.59948">
        <ele>772.4</ele>
        <time>2023-11-26T10:58:47Z</time>
      </trkpt>
      <trkpt lat="43.61964" lon="6.59948">
        <ele>772.4</ele>
        <time>2023-11-26T10:58:48Z</time>
      </trkpt>
      <trkpt lat="43.61964" lon="6.59948">
        <ele>772.3</ele>
        <time>2023-11-26T10:58:49Z</time>
      </trkpt>
      <trkpt lat="43.61964" lon="6.59948">
        <ele>772.2</ele>
        <time>2023-11-26T10:58:50Z</time>
      </trkpt>
      <trkpt lat="43.61964" lon="6.59948">
        <ele>772.2</ele>
        <time>2023-11-26T10:58:51Z</time>
      </trkpt>
      <trkpt lat="43.61964" lon="6.59948">
        <ele>772</ele>
        <time>2023-11-26T10:58:52Z</time>
      </trkpt>
      <trkpt lat="43.61964" lon="6.59949">
        <ele>772</ele>
        <time>2023-11-26T10:58:53Z</time>
      </trkpt>
      <trkpt lat="43.61964" lon="6.59949">
        <ele>771.9</ele>
        <time>2023-11-26T10:58:54Z</time>
      </trkpt>
      <trkpt lat="43.61964" lon="6.59949">
        <ele>771.9</ele>
        <time>2023-11-26T10:58:55Z</time>
      </trkpt>
      <trkpt lat="43.61964" lon="6.59949">
        <ele>771.9</ele>
        <time>2023-11-26T10:58:56Z</time>
      </trkpt>
      <trkpt lat="43.61964" lon="6.59949">
        <ele>772</ele>
        <time>2023-11-26T10:58:57Z</time>
      </trkpt>
      <trkpt lat="43.61965" lon="6.59949">
        <ele>771.9</ele>
        <time>2023-11-26T10:58:58Z</time>
      </trkpt>
      <trkpt lat="43.61965" lon="6.59949">
        <ele>771.9</ele>
        <time>2023-11-26T10:58:59Z</time>
      </trkpt>
      <trkpt lat="43.61965" lon="6.59949">
        <ele>772</ele>
        <time>2023-11-26T10:59:00Z</time>
      </trkpt>
      <trkpt lat="43.61965" lon="6.59949">
        <ele>772</ele>
        <time>2023-11-26T10:59:01Z</time>
      </trkpt>
      <trkpt lat="43.61965" lon="6.59949">
        <ele>772</ele>
        <time>2023-11-26T10:59:02Z</time>
      </trkpt>
      <trkpt lat="43.61965" lon="6.5995">
        <ele>772</ele>
        <time>2023-11-26T10:59:03Z</time>
      </trkpt>
      <trkpt lat="43.61965" lon="6.5995">
        <ele>772</ele>
        <time>2023-11-26T10:59:04Z</time>
      </trkpt>
      <trkpt lat="43.61965" lon="6.5995">
        <ele>772.1</ele>
        <time>2023-11-26T10:59:05Z</time>
      </trkpt>
      <trkpt lat="43.61965" lon="6.5995">
        <ele>772.1</ele>
        <time>2023-11-26T10:59:06Z</time>
      </trkpt>
      <trkpt lat="43.61965" lon="6.59949">
        <ele>772.1</ele>
        <time>2023-11-26T10:59:07Z</time>
      </trkpt>
      <trkpt lat="43.61965" lon="6.59949">
        <ele>772</ele>
        <time>2023-11-26T10:59:08Z</time>
      </trkpt>
      <trkpt lat="43.61965" lon="6.59949">
        <ele>771.9</ele>
        <time>2023-11-26T10:59:09Z</time>
      </trkpt>
      <trkpt lat="43.61965" lon="6.59949">
        <ele>771.9</ele>
        <time>2023-11-26T10:59:10Z</time>
      </trkpt>
      <trkpt lat="43.61965" lon="6.59949">
        <ele>771.8</ele>
        <time>2023-11-26T10:59:11Z</time>
      </trkpt>
      <trkpt lat="43.61965" lon="6.59949">
        <ele>772</ele>
        <time>2023-11-26T10:59:12Z</time>
      </trkpt>
      <trkpt lat="43.61965" lon="6.59949">
        <ele>771.9</ele>
        <time>2023-11-26T10:59:13Z</time>
      </trkpt>
      <trkpt lat="43.61965" lon="6.59949">
        <ele>771.9</ele>
        <time>2023-11-26T10:59:14Z</time>
      </trkpt>
      <trkpt lat="43.61964" lon="6.59948">
        <ele>771.9</ele>
        <time>2023-11-26T10:59:15Z</time>
      </trkpt>
      <trkpt lat="43.61964" lon="6.59948">
        <ele>771.9</ele>
        <time>2023-11-26T10:59:16Z</time>
      </trkpt>
      <trkpt lat="43.61964" lon="6.59948">
        <ele>771.9</ele>
        <time>2023-11-26T10:59:17Z</time>
      </trkpt>
      <trkpt lat="43.61964" lon="6.59948">
        <ele>772</ele>
        <time>2023-11-26T10:59:18Z</time>
      </trkpt>
      <trkpt lat="43.61964" lon="6.59948">
        <ele>772</ele>
        <time>2023-11-26T10:59:19Z</time>
      </trkpt>
      <trkpt lat="43.61965" lon="6.59948">
        <ele>772</ele>
        <time>2023-11-26T10:59:20Z</time>
      </trkpt>
      <trkpt lat="43.61964" lon="6.59947">
        <ele>771.9</ele>
        <time>2023-11-26T10:59:21Z</time>
      </trkpt>
      <trkpt lat="43.61964" lon="6.59947">
        <ele>771.9</ele>
        <time>2023-11-26T10:59:22Z</time>
      </trkpt>
      <trkpt lat="43.61965" lon="6.59947">
        <ele>771.9</ele>
        <time>2023-11-26T10:59:23Z</time>
      </trkpt>
      <trkpt lat="43.61965" lon="6.59947">
        <ele>771.9</ele>
        <time>2023-11-26T10:59:24Z</time>
      </trkpt>
      <trkpt lat="43.61965" lon="6.59947">
        <ele>771.9</ele>
        <time>2023-11-26T10:59:25Z</time>
      </trkpt>
      <trkpt lat="43.61965" lon="6.59947">
        <ele>771.9</ele>
        <time>2023-11-26T10:59:26Z</time>
      </trkpt>
      <trkpt lat="43.61965" lon="6.59947">
        <ele>772</ele>
        <time>2023-11-26T10:59:27Z</time>
      </trkpt>
      <trkpt lat="43.61966" lon="6.59947">
        <ele>772</ele>
        <time>2023-11-26T10:59:28Z</time>
      </trkpt>
      <trkpt lat="43.61966" lon="6.59947">
        <ele>772</ele>
        <time>2023-11-26T10:59:29Z</time>
      </trkpt>
      <trkpt lat="43.61966" lon="6.59947">
        <ele>771.9</ele>
        <time>2023-11-26T10:59:30Z</time>
      </trkpt>
      <trkpt lat="43.61966" lon="6.59947">
        <ele>771.9</ele>
        <time>2023-11-26T10:59:31Z</time>
      </trkpt>
      <trkpt lat="43.61966" lon="6.59947">
        <ele>771.9</ele>
        <time>2023-11-26T10:59:32Z</time>
      </trkpt>
      <trkpt lat="43.61966" lon="6.59947">
        <ele>771.9</ele>
        <time>2023-11-26T10:59:33Z</time>
      </trkpt>
      <trkpt lat="43.61966" lon="6.59947">
        <ele>771.9</ele>
        <time>2023-11-26T10:59:34Z</time>
      </trkpt>
      <trkpt lat="43.61966" lon="6.59947">
        <ele>771.9</ele>
        <time>2023-11-26T10:59:35Z</time>
      </trkpt>
      <trkpt lat="43.61966" lon="6.59947">
        <ele>772</ele>
        <time>2023-11-26T10:59:36Z</time>
      </trkpt>
      <trkpt lat="43.61966" lon="6.59946">
        <ele>772</ele>
        <time>2023-11-26T10:59:37Z</time>
      </trkpt>
      <trkpt lat="43.61966" lon="6.59946">
        <ele>772</ele>
        <time>2023-11-26T10:59:38Z</time>
      </trkpt>
      <trkpt lat="43.61966" lon="6.59946">
        <ele>772</ele>
        <time>2023-11-26T10:59:39Z</time>
      </trkpt>
      <trkpt lat="43.61966" lon="6.59946">
        <ele>772.1</ele>
        <time>2023-11-26T10:59:40Z</time>
      </trkpt>
      <trkpt lat="43.61966" lon="6.59946">
        <ele>772.1</ele>
        <time>2023-11-26T10:59:41Z</time>
      </trkpt>
      <trkpt lat="43.61966" lon="6.59946">
        <ele>772</ele>
        <time>2023-11-26T10:59:42Z</time>
      </trkpt>
      <trkpt lat="43.61966" lon="6.59946">
        <ele>772</ele>
        <time>2023-11-26T10:59:43Z</time>
      </trkpt>
      <trkpt lat="43.61966" lon="6.59946">
        <ele>772</ele>
        <time>2023-11-26T10:59:44Z</time>
      </trkpt>
      <trkpt lat="43.61965" lon="6.59946">
        <ele>772.1</ele>
        <time>2023-11-26T10:59:45Z</time>
      </trkpt>
      <trkpt lat="43.61965" lon="6.59946">
        <ele>772.1</ele>
        <time>2023-11-26T10:59:46Z</time>
      </trkpt>
      <trkpt lat="43.61965" lon="6.59946">
        <ele>772.1</ele>
        <time>2023-11-26T10:59:47Z</time>
      </trkpt>
      <trkpt lat="43.61965" lon="6.59946">
        <ele>772.1</ele>
        <time>2023-11-26T10:59:48Z</time>
      </trkpt>
      <trkpt lat="43.61965" lon="6.59946">
        <ele>772.2</ele>
        <time>2023-11-26T10:59:49Z</time>
      </trkpt>
      <trkpt lat="43.61965" lon="6.59946">
        <ele>772.2</ele>
        <time>2023-11-26T10:59:50Z</time>
      </trkpt>
      <trkpt lat="43.61965" lon="6.59946">
        <ele>772.2</ele>
        <time>2023-11-26T10:59:51Z</time>
      </trkpt>
      <trkpt lat="43.61965" lon="6.59945">
        <ele>772.1</ele>
        <time>2023-11-26T10:59:52Z</time>
      </trkpt>
      <trkpt lat="43.61965" lon="6.59945">
        <ele>772.1</ele>
        <time>2023-11-26T10:59:53Z</time>
      </trkpt>
      <trkpt lat="43.61965" lon="6.59945">
        <ele>772.1</ele>
        <time>2023-11-26T10:59:54Z</time>
      </trkpt>
      <trkpt lat="43.61965" lon="6.59945">
        <ele>772.1</ele>
        <time>2023-11-26T10:59:55Z</time>
      </trkpt>
      <trkpt lat="43.61965" lon="6.59945">
        <ele>772.2</ele>
        <time>2023-11-26T10:59:56Z</time>
      </trkpt>
      <trkpt lat="43.61965" lon="6.59945">
        <ele>772.3</ele>
        <time>2023-11-26T10:59:57Z</time>
      </trkpt>
      <trkpt lat="43.61965" lon="6.59945">
        <ele>772.3</ele>
        <time>2023-11-26T10:59:58Z</time>
      </trkpt>
      <trkpt lat="43.61965" lon="6.59945">
        <ele>772.3</ele>
        <time>2023-11-26T10:59:59Z</time>
      </trkpt>
      <trkpt lat="43.61965" lon="6.59945">
        <ele>772.4</ele>
        <time>2023-11-26T11:00:00Z</time>
      </trkpt>
      <trkpt lat="43.61965" lon="6.59945">
        <ele>772.5</ele>
        <time>2023-11-26T11:00:01Z</time>
      </trkpt>
      <trkpt lat="43.61965" lon="6.59945">
        <ele>772.5</ele>
        <time>2023-11-26T11:00:02Z</time>
      </trkpt>
      <trkpt lat="43.61965" lon="6.59945">
        <ele>772.4</ele>
        <time>2023-11-26T11:00:03Z</time>
      </trkpt>
      <trkpt lat="43.61965" lon="6.59945">
        <ele>772.4</ele>
        <time>2023-11-26T11:00:04Z</time>
      </trkpt>
      <trkpt lat="43.61965" lon="6.59945">
        <ele>772.3</ele>
        <time>2023-11-26T11:00:05Z</time>
      </trkpt>
      <trkpt lat="43.61965" lon="6.59945">
        <ele>772.3</ele>
        <time>2023-11-26T11:00:06Z</time>
      </trkpt>
      <trkpt lat="43.61965" lon="6.59945">
        <ele>772.4</ele>
        <time>2023-11-26T11:00:07Z</time>
      </trkpt>
      <trkpt lat="43.61965" lon="6.59945">
        <ele>772.4</ele>
        <time>2023-11-26T11:00:08Z</time>
      </trkpt>
      <trkpt lat="43.61965" lon="6.59945">
        <ele>772.3</ele>
        <time>2023-11-26T11:00:09Z</time>
      </trkpt>
      <trkpt lat="43.61965" lon="6.59945">
        <ele>772.3</ele>
        <time>2023-11-26T11:00:10Z</time>
      </trkpt>
      <trkpt lat="43.61965" lon="6.59945">
        <ele>772.2</ele>
        <time>2023-11-26T11:00:11Z</time>
      </trkpt>
      <trkpt lat="43.61965" lon="6.59945">
        <ele>772.3</ele>
        <time>2023-11-26T11:00:12Z</time>
      </trkpt>
      <trkpt lat="43.61965" lon="6.59945">
        <ele>772.4</ele>
        <time>2023-11-26T11:00:13Z</time>
      </trkpt>
      <trkpt lat="43.61965" lon="6.59945">
        <ele>772.4</ele>
        <time>2023-11-26T11:00:14Z</time>
      </trkpt>
      <trkpt lat="43.61965" lon="6.59945">
        <ele>772.5</ele>
        <time>2023-11-26T11:00:15Z</time>
      </trkpt>
      <trkpt lat="43.61965" lon="6.59945">
        <ele>772.5</ele>
        <time>2023-11-26T11:00:16Z</time>
      </trkpt>
      <trkpt lat="43.61965" lon="6.59945">
        <ele>772.6</ele>
        <time>2023-11-26T11:00:17Z</time>
      </trkpt>
      <trkpt lat="43.61965" lon="6.59945">
        <ele>772.6</ele>
        <time>2023-11-26T11:00:18Z</time>
      </trkpt>
      <trkpt lat="43.61965" lon="6.59945">
        <ele>772.6</ele>
        <time>2023-11-26T11:00:19Z</time>
      </trkpt>
      <trkpt lat="43.61965" lon="6.59945">
        <ele>772.6</ele>
        <time>2023-11-26T11:00:20Z</time>
      </trkpt>
      <trkpt lat="43.61965" lon="6.59945">
        <ele>772.7</ele>
        <time>2023-11-26T11:00:21Z</time>
      </trkpt>
      <trkpt lat="43.61965" lon="6.59945">
        <ele>772.7</ele>
        <time>2023-11-26T11:00:22Z</time>
      </trkpt>
      <trkpt lat="43.61965" lon="6.59945">
        <ele>772.6</ele>
        <time>2023-11-26T11:00:23Z</time>
      </trkpt>
      <trkpt lat="43.61965" lon="6.59945">
        <ele>772.6</ele>
        <time>2023-11-26T11:00:24Z</time>
      </trkpt>
      <trkpt lat="43.61965" lon="6.59945">
        <ele>772.6</ele>
        <time>2023-11-26T11:00:25Z</time>
      </trkpt>
      <trkpt lat="43.61965" lon="6.59945">
        <ele>772.6</ele>
        <time>2023-11-26T11:00:26Z</time>
      </trkpt>
      <trkpt lat="43.61965" lon="6.59945">
        <ele>772.5</ele>
        <time>2023-11-26T11:00:27Z</time>
      </trkpt>
      <trkpt lat="43.61965" lon="6.59944">
        <ele>772.5</ele>
        <time>2023-11-26T11:00:28Z</time>
      </trkpt>
      <trkpt lat="43.61964" lon="6.59944">
        <ele>772.5</ele>
        <time>2023-11-26T11:00:29Z</time>
      </trkpt>
      <trkpt lat="43.61965" lon="6.59944">
        <ele>772.5</ele>
        <time>2023-11-26T11:00:30Z</time>
      </trkpt>
      <trkpt lat="43.61965" lon="6.59945">
        <ele>772.6</ele>
        <time>2023-11-26T11:00:31Z</time>
      </trkpt>
      <trkpt lat="43.61965" lon="6.59945">
        <ele>772.5</ele>
        <time>2023-11-26T11:00:32Z</time>
      </trkpt>
      <trkpt lat="43.61965" lon="6.59945">
        <ele>772.5</ele>
        <time>2023-11-26T11:00:33Z</time>
      </trkpt>
      <trkpt lat="43.61965" lon="6.59945">
        <ele>772.5</ele>
        <time>2023-11-26T11:00:34Z</time>
      </trkpt>
      <trkpt lat="43.61965" lon="6.59945">
        <ele>772.5</ele>
        <time>2023-11-26T11:00:35Z</time>
      </trkpt>
      <trkpt lat="43.61965" lon="6.59945">
        <ele>772.5</ele>
        <time>2023-11-26T11:00:36Z</time>
      </trkpt>
      <trkpt lat="43.61965" lon="6.59946">
        <ele>772.6</ele>
        <time>2023-11-26T11:00:37Z</time>
      </trkpt>
      <trkpt lat="43.61965" lon="6.59946">
        <ele>772.6</ele>
        <time>2023-11-26T11:00:38Z</time>
      </trkpt>
      <trkpt lat="43.61965" lon="6.59946">
        <ele>772.6</ele>
        <time>2023-11-26T11:00:39Z</time>
      </trkpt>
      <trkpt lat="43.61966" lon="6.59946">
        <ele>772.6</ele>
        <time>2023-11-26T11:00:40Z</time>
      </trkpt>
      <trkpt lat="43.61966" lon="6.59946">
        <ele>772.5</ele>
        <time>2023-11-26T11:00:41Z</time>
      </trkpt>
      <trkpt lat="43.61965" lon="6.59946">
        <ele>772.4</ele>
        <time>2023-11-26T11:00:42Z</time>
      </trkpt>
      <trkpt lat="43.61966" lon="6.59946">
        <ele>772.4</ele>
        <time>2023-11-26T11:00:43Z</time>
      </trkpt>
      <trkpt lat="43.61966" lon="6.59946">
        <ele>772.4</ele>
        <time>2023-11-26T11:00:44Z</time>
      </trkpt>
      <trkpt lat="43.61966" lon="6.59947">
        <ele>772.4</ele>
        <time>2023-11-26T11:00:45Z</time>
      </trkpt>
      <trkpt lat="43.61966" lon="6.59947">
        <ele>772.4</ele>
        <time>2023-11-26T11:00:46Z</time>
      </trkpt>
      <trkpt lat="43.61966" lon="6.59947">
        <ele>772.4</ele>
        <time>2023-11-26T11:00:47Z</time>
      </trkpt>
      <trkpt lat="43.61966" lon="6.59947">
        <ele>772.4</ele>
        <time>2023-11-26T11:00:48Z</time>
      </trkpt>
      <trkpt lat="43.61966" lon="6.59947">
        <ele>772.4</ele>
        <time>2023-11-26T11:00:49Z</time>
      </trkpt>
      <trkpt lat="43.61966" lon="6.59947">
        <ele>772.4</ele>
        <time>2023-11-26T11:00:50Z</time>
      </trkpt>
      <trkpt lat="43.61966" lon="6.59947">
        <ele>772.5</ele>
        <time>2023-11-26T11:00:51Z</time>
      </trkpt>
      <trkpt lat="43.61966" lon="6.59947">
        <ele>772.5</ele>
        <time>2023-11-26T11:00:52Z</time>
      </trkpt>
      <trkpt lat="43.61966" lon="6.59947">
        <ele>772.5</ele>
        <time>2023-11-26T11:00:53Z</time>
      </trkpt>
      <trkpt lat="43.61966" lon="6.59947">
        <ele>772.5</ele>
        <time>2023-11-26T11:00:54Z</time>
      </trkpt>
      <trkpt lat="43.61966" lon="6.59947">
        <ele>772.5</ele>
        <time>2023-11-26T11:00:55Z</time>
      </trkpt>
      <trkpt lat="43.61966" lon="6.59947">
        <ele>772.5</ele>
        <time>2023-11-26T11:00:56Z</time>
      </trkpt>
      <trkpt lat="43.61966" lon="6.59947">
        <ele>772.4</ele>
        <time>2023-11-26T11:00:57Z</time>
      </trkpt>
      <trkpt lat="43.61966" lon="6.59947">
        <ele>772.3</ele>
        <time>2023-11-26T11:00:58Z</time>
      </trkpt>
      <trkpt lat="43.61967" lon="6.59947">
        <ele>772.4</ele>
        <time>2023-11-26T11:00:59Z</time>
      </trkpt>
      <trkpt lat="43.61967" lon="6.59947">
        <ele>772.2</ele>
        <time>2023-11-26T11:01:00Z</time>
      </trkpt>
      <trkpt lat="43.61967" lon="6.59947">
        <ele>772.1</ele>
        <time>2023-11-26T11:01:01Z</time>
      </trkpt>
      <trkpt lat="43.61966" lon="6.59947">
        <ele>772</ele>
        <time>2023-11-26T11:01:02Z</time>
      </trkpt>
      <trkpt lat="43.61966" lon="6.59946">
        <ele>772</ele>
        <time>2023-11-26T11:01:03Z</time>
      </trkpt>
      <trkpt lat="43.61966" lon="6.59947">
        <ele>772</ele>
        <time>2023-11-26T11:01:04Z</time>
      </trkpt>
      <trkpt lat="43.61966" lon="6.59947">
        <ele>771.9</ele>
        <time>2023-11-26T11:01:05Z</time>
      </trkpt>
      <trkpt lat="43.61966" lon="6.59947">
        <ele>771.8</ele>
        <time>2023-11-26T11:01:06Z</time>
      </trkpt>
      <trkpt lat="43.61967" lon="6.59947">
        <ele>771.8</ele>
        <time>2023-11-26T11:01:07Z</time>
      </trkpt>
      <trkpt lat="43.61966" lon="6.59947">
        <ele>771.8</ele>
        <time>2023-11-26T11:01:08Z</time>
      </trkpt>
      <trkpt lat="43.61966" lon="6.59947">
        <ele>771.8</ele>
        <time>2023-11-26T11:01:09Z</time>
      </trkpt>
      <trkpt lat="43.61966" lon="6.59947">
        <ele>771.8</ele>
        <time>2023-11-26T11:01:10Z</time>
      </trkpt>
      <trkpt lat="43.61966" lon="6.59947">
        <ele>771.8</ele>
        <time>2023-11-26T11:01:11Z</time>
      </trkpt>
      <trkpt lat="43.61966" lon="6.59947">
        <ele>771.9</ele>
        <time>2023-11-26T11:01:12Z</time>
      </trkpt>
      <trkpt lat="43.61966" lon="6.59947">
        <ele>772</ele>
        <time>2023-11-26T11:01:13Z</time>
      </trkpt>
      <trkpt lat="43.61966" lon="6.59946">
        <ele>772</ele>
        <time>2023-11-26T11:01:14Z</time>
      </trkpt>
      <trkpt lat="43.61965" lon="6.59946">
        <ele>772.1</ele>
        <time>2023-11-26T11:01:15Z</time>
      </trkpt>
      <trkpt lat="43.61965" lon="6.59946">
        <ele>772.2</ele>
        <time>2023-11-26T11:01:16Z</time>
      </trkpt>
      <trkpt lat="43.61965" lon="6.59946">
        <ele>772.2</ele>
        <time>2023-11-26T11:01:17Z</time>
      </trkpt>
      <trkpt lat="43.61965" lon="6.59946">
        <ele>772.3</ele>
        <time>2023-11-26T11:01:18Z</time>
      </trkpt>
      <trkpt lat="43.61965" lon="6.59947">
        <ele>772.3</ele>
        <time>2023-11-26T11:01:19Z</time>
      </trkpt>
      <trkpt lat="43.61965" lon="6.59947">
        <ele>772.2</ele>
        <time>2023-11-26T11:01:20Z</time>
      </trkpt>
      <trkpt lat="43.61965" lon="6.59947">
        <ele>772.3</ele>
        <time>2023-11-26T11:01:21Z</time>
      </trkpt>
      <trkpt lat="43.61965" lon="6.59947">
        <ele>772.3</ele>
        <time>2023-11-26T11:01:22Z</time>
      </trkpt>
      <trkpt lat="43.61965" lon="6.59947">
        <ele>772.3</ele>
        <time>2023-11-26T11:01:23Z</time>
      </trkpt>
      <trkpt lat="43.61965" lon="6.59947">
        <ele>772.3</ele>
        <time>2023-11-26T11:01:24Z</time>
      </trkpt>
      <trkpt lat="43.61965" lon="6.59947">
        <ele>772.2</ele>
        <time>2023-11-26T11:01:25Z</time>
      </trkpt>
      <trkpt lat="43.61965" lon="6.59947">
        <ele>772.2</ele>
        <time>2023-11-26T11:01:26Z</time>
      </trkpt>
      <trkpt lat="43.61965" lon="6.59947">
        <ele>772.2</ele>
        <time>2023-11-26T11:01:27Z</time>
      </trkpt>
      <trkpt lat="43.61965" lon="6.59947">
        <ele>772.2</ele>
        <time>2023-11-26T11:01:28Z</time>
      </trkpt>
      <trkpt lat="43.61965" lon="6.59947">
        <ele>772.2</ele>
        <time>2023-11-26T11:01:29Z</time>
      </trkpt>
      <trkpt lat="43.61965" lon="6.59947">
        <ele>772.3</ele>
        <time>2023-11-26T11:01:30Z</time>
      </trkpt>
      <trkpt lat="43.61965" lon="6.59947">
        <ele>772.4</ele>
        <time>2023-11-26T11:01:31Z</time>
      </trkpt>
      <trkpt lat="43.61965" lon="6.59947">
        <ele>772.4</ele>
        <time>2023-11-26T11:01:32Z</time>
      </trkpt>
      <trkpt lat="43.61965" lon="6.59947">
        <ele>772.4</ele>
        <time>2023-11-26T11:01:33Z</time>
      </trkpt>
      <trkpt lat="43.61966" lon="6.59947">
        <ele>772.4</ele>
        <time>2023-11-26T11:01:34Z</time>
      </trkpt>
      <trkpt lat="43.61966" lon="6.59947">
        <ele>772.3</ele>
        <time>2023-11-26T11:01:35Z</time>
      </trkpt>
      <trkpt lat="43.61966" lon="6.59947">
        <ele>772.3</ele>
        <time>2023-11-26T11:01:36Z</time>
      </trkpt>
      <trkpt lat="43.61966" lon="6.59947">
        <ele>772.3</ele>
        <time>2023-11-26T11:01:37Z</time>
      </trkpt>
      <trkpt lat="43.61966" lon="6.59947">
        <ele>772.3</ele>
        <time>2023-11-26T11:01:38Z</time>
      </trkpt>
      <trkpt lat="43.61966" lon="6.59947">
        <ele>772.2</ele>
        <time>2023-11-26T11:01:39Z</time>
      </trkpt>
      <trkpt lat="43.61966" lon="6.59947">
        <ele>772.1</ele>
        <time>2023-11-26T11:01:40Z</time>
      </trkpt>
      <trkpt lat="43.61966" lon="6.59947">
        <ele>772.1</ele>
        <time>2023-11-26T11:01:41Z</time>
      </trkpt>
      <trkpt lat="43.61966" lon="6.59947">
        <ele>772</ele>
        <time>2023-11-26T11:01:42Z</time>
      </trkpt>
      <trkpt lat="43.61966" lon="6.59947">
        <ele>772</ele>
        <time>2023-11-26T11:01:43Z</time>
      </trkpt>
      <trkpt lat="43.61966" lon="6.59947">
        <ele>772</ele>
        <time>2023-11-26T11:01:44Z</time>
      </trkpt>
      <trkpt lat="43.61966" lon="6.59948">
        <ele>772.1</ele>
        <time>2023-11-26T11:01:45Z</time>
      </trkpt>
      <trkpt lat="43.61966" lon="6.59948">
        <ele>772.2</ele>
        <time>2023-11-26T11:01:46Z</time>
      </trkpt>
      <trkpt lat="43.61966" lon="6.59948">
        <ele>772.2</ele>
        <time>2023-11-26T11:01:47Z</time>
      </trkpt>
      <trkpt lat="43.61966" lon="6.59948">
        <ele>772.3</ele>
        <time>2023-11-26T11:01:48Z</time>
      </trkpt>
      <trkpt lat="43.61966" lon="6.59948">
        <ele>772.3</ele>
        <time>2023-11-26T11:01:49Z</time>
      </trkpt>
      <trkpt lat="43.61966" lon="6.59948">
        <ele>772.3</ele>
        <time>2023-11-26T11:01:50Z</time>
      </trkpt>
      <trkpt lat="43.61966" lon="6.59948">
        <ele>772.3</ele>
        <time>2023-11-26T11:01:51Z</time>
      </trkpt>
      <trkpt lat="43.61966" lon="6.59948">
        <ele>772.3</ele>
        <time>2023-11-26T11:01:52Z</time>
      </trkpt>
      <trkpt lat="43.61966" lon="6.59948">
        <ele>772.4</ele>
        <time>2023-11-26T11:01:53Z</time>
      </trkpt>
      <trkpt lat="43.61966" lon="6.59947">
        <ele>772.4</ele>
        <time>2023-11-26T11:01:54Z</time>
      </trkpt>
      <trkpt lat="43.61966" lon="6.59947">
        <ele>772.5</ele>
        <time>2023-11-26T11:01:55Z</time>
      </trkpt>
      <trkpt lat="43.61966" lon="6.59947">
        <ele>772.5</ele>
        <time>2023-11-26T11:01:56Z</time>
      </trkpt>
      <trkpt lat="43.61966" lon="6.59947">
        <ele>772.5</ele>
        <time>2023-11-26T11:01:57Z</time>
      </trkpt>
      <trkpt lat="43.61966" lon="6.59947">
        <ele>772.5</ele>
        <time>2023-11-26T11:01:58Z</time>
      </trkpt>
      <trkpt lat="43.61967" lon="6.59947">
        <ele>772.5</ele>
        <time>2023-11-26T11:01:59Z</time>
      </trkpt>
      <trkpt lat="43.61966" lon="6.59947">
        <ele>772.5</ele>
        <time>2023-11-26T11:02:00Z</time>
      </trkpt>
      <trkpt lat="43.61967" lon="6.59947">
        <ele>772.5</ele>
        <time>2023-11-26T11:02:01Z</time>
      </trkpt>
      <trkpt lat="43.61967" lon="6.59947">
        <ele>772.5</ele>
        <time>2023-11-26T11:02:02Z</time>
      </trkpt>
      <trkpt lat="43.61967" lon="6.59947">
        <ele>772.5</ele>
        <time>2023-11-26T11:02:03Z</time>
      </trkpt>
      <trkpt lat="43.61967" lon="6.59947">
        <ele>772.5</ele>
        <time>2023-11-26T11:02:04Z</time>
      </trkpt>
      <trkpt lat="43.61967" lon="6.59947">
        <ele>772.5</ele>
        <time>2023-11-26T11:02:05Z</time>
      </trkpt>
      <trkpt lat="43.61967" lon="6.59947">
        <ele>772.5</ele>
        <time>2023-11-26T11:02:06Z</time>
      </trkpt>
      <trkpt lat="43.61967" lon="6.59947">
        <ele>772.5</ele>
        <time>2023-11-26T11:02:07Z</time>
      </trkpt>
      <trkpt lat="43.61967" lon="6.59947">
        <ele>772.6</ele>
        <time>2023-11-26T11:02:08Z</time>
      </trkpt>
      <trkpt lat="43.61967" lon="6.59947">
        <ele>772.6</ele>
        <time>2023-11-26T11:02:09Z</time>
      </trkpt>
      <trkpt lat="43.61967" lon="6.59947">
        <ele>772.7</ele>
        <time>2023-11-26T11:02:10Z</time>
      </trkpt>
      <trkpt lat="43.61967" lon="6.59947">
        <ele>772.7</ele>
        <time>2023-11-26T11:02:11Z</time>
      </trkpt>
      <trkpt lat="43.61968" lon="6.59947">
        <ele>772.7</ele>
        <time>2023-11-26T11:02:12Z</time>
      </trkpt>
      <trkpt lat="43.61968" lon="6.59947">
        <ele>772.8</ele>
        <time>2023-11-26T11:02:13Z</time>
      </trkpt>
      <trkpt lat="43.61968" lon="6.59947">
        <ele>772.8</ele>
        <time>2023-11-26T11:02:14Z</time>
      </trkpt>
      <trkpt lat="43.61968" lon="6.59947">
        <ele>772.8</ele>
        <time>2023-11-26T11:02:15Z</time>
      </trkpt>
      <trkpt lat="43.61969" lon="6.59947">
        <ele>772.8</ele>
        <time>2023-11-26T11:02:16Z</time>
      </trkpt>
      <trkpt lat="43.61969" lon="6.59947">
        <ele>772.7</ele>
        <time>2023-11-26T11:02:17Z</time>
      </trkpt>
      <trkpt lat="43.61969" lon="6.59948">
        <ele>772.7</ele>
        <time>2023-11-26T11:02:18Z</time>
      </trkpt>
      <trkpt lat="43.61969" lon="6.59948">
        <ele>772.7</ele>
        <time>2023-11-26T11:02:19Z</time>
      </trkpt>
      <trkpt lat="43.6197" lon="6.59947">
        <ele>772.6</ele>
        <time>2023-11-26T11:02:20Z</time>
      </trkpt>
      <trkpt lat="43.6197" lon="6.59947">
        <ele>772.6</ele>
        <time>2023-11-26T11:02:21Z</time>
      </trkpt>
      <trkpt lat="43.6197" lon="6.59948">
        <ele>772.6</ele>
        <time>2023-11-26T11:02:22Z</time>
      </trkpt>
      <trkpt lat="43.6197" lon="6.59948">
        <ele>772.6</ele>
        <time>2023-11-26T11:02:23Z</time>
      </trkpt>
      <trkpt lat="43.6197" lon="6.59948">
        <ele>772.7</ele>
        <time>2023-11-26T11:02:24Z</time>
      </trkpt>
      <trkpt lat="43.6197" lon="6.59948">
        <ele>772.7</ele>
        <time>2023-11-26T11:02:25Z</time>
      </trkpt>
      <trkpt lat="43.6197" lon="6.59948">
        <ele>772.6</ele>
        <time>2023-11-26T11:02:26Z</time>
      </trkpt>
      <trkpt lat="43.6197" lon="6.59948">
        <ele>772.6</ele>
        <time>2023-11-26T11:02:27Z</time>
      </trkpt>
      <trkpt lat="43.6197" lon="6.59947">
        <ele>772.8</ele>
        <time>2023-11-26T11:02:28Z</time>
      </trkpt>
      <trkpt lat="43.61969" lon="6.59947">
        <ele>772.8</ele>
        <time>2023-11-26T11:02:29Z</time>
      </trkpt>
      <trkpt lat="43.61968" lon="6.59947">
        <ele>772.9</ele>
        <time>2023-11-26T11:02:30Z</time>
      </trkpt>
      <trkpt lat="43.61968" lon="6.59948">
        <ele>772.9</ele>
        <time>2023-11-26T11:02:31Z</time>
      </trkpt>
      <trkpt lat="43.61967" lon="6.59948">
        <ele>772.8</ele>
        <time>2023-11-26T11:02:32Z</time>
      </trkpt>
      <trkpt lat="43.61967" lon="6.59948">
        <ele>772.8</ele>
        <time>2023-11-26T11:02:33Z</time>
      </trkpt>
      <trkpt lat="43.61967" lon="6.59948">
        <ele>772.8</ele>
        <time>2023-11-26T11:02:34Z</time>
      </trkpt>
      <trkpt lat="43.61967" lon="6.59948">
        <ele>772.8</ele>
        <time>2023-11-26T11:02:35Z</time>
      </trkpt>
      <trkpt lat="43.61967" lon="6.59948">
        <ele>772.7</ele>
        <time>2023-11-26T11:02:36Z</time>
      </trkpt>
      <trkpt lat="43.61967" lon="6.59948">
        <ele>772.7</ele>
        <time>2023-11-26T11:02:37Z</time>
      </trkpt>
      <trkpt lat="43.61967" lon="6.59948">
        <ele>772.8</ele>
        <time>2023-11-26T11:02:38Z</time>
      </trkpt>
      <trkpt lat="43.61967" lon="6.59948">
        <ele>772.8</ele>
        <time>2023-11-26T11:02:39Z</time>
      </trkpt>
      <trkpt lat="43.61967" lon="6.59948">
        <ele>772.9</ele>
        <time>2023-11-26T11:02:40Z</time>
      </trkpt>
      <trkpt lat="43.61967" lon="6.59948">
        <ele>772.9</ele>
        <time>2023-11-26T11:02:41Z</time>
      </trkpt>
      <trkpt lat="43.61967" lon="6.59948">
        <ele>772.9</ele>
        <time>2023-11-26T11:02:42Z</time>
      </trkpt>
      <trkpt lat="43.61967" lon="6.59948">
        <ele>772.9</ele>
        <time>2023-11-26T11:02:43Z</time>
      </trkpt>
      <trkpt lat="43.61967" lon="6.59947">
        <ele>772.8</ele>
        <time>2023-11-26T11:02:44Z</time>
      </trkpt>
      <trkpt lat="43.61967" lon="6.59947">
        <ele>772.8</ele>
        <time>2023-11-26T11:02:45Z</time>
      </trkpt>
      <trkpt lat="43.61967" lon="6.59947">
        <ele>772.9</ele>
        <time>2023-11-26T11:02:46Z</time>
      </trkpt>
      <trkpt lat="43.61967" lon="6.59947">
        <ele>772.9</ele>
        <time>2023-11-26T11:02:47Z</time>
      </trkpt>
      <trkpt lat="43.61967" lon="6.59947">
        <ele>773</ele>
        <time>2023-11-26T11:02:48Z</time>
      </trkpt>
      <trkpt lat="43.61967" lon="6.59947">
        <ele>773</ele>
        <time>2023-11-26T11:02:49Z</time>
      </trkpt>
      <trkpt lat="43.61967" lon="6.59947">
        <ele>773</ele>
        <time>2023-11-26T11:02:50Z</time>
      </trkpt>
      <trkpt lat="43.61968" lon="6.59947">
        <ele>773</ele>
        <time>2023-11-26T11:02:51Z</time>
      </trkpt>
      <trkpt lat="43.61967" lon="6.59947">
        <ele>773</ele>
        <time>2023-11-26T11:02:52Z</time>
      </trkpt>
      <trkpt lat="43.61967" lon="6.59947">
        <ele>772.9</ele>
        <time>2023-11-26T11:02:53Z</time>
      </trkpt>
      <trkpt lat="43.61967" lon="6.59947">
        <ele>772.9</ele>
        <time>2023-11-26T11:02:54Z</time>
      </trkpt>
      <trkpt lat="43.61967" lon="6.59946">
        <ele>772.9</ele>
        <time>2023-11-26T11:02:55Z</time>
      </trkpt>
      <trkpt lat="43.61967" lon="6.59947">
        <ele>772.9</ele>
        <time>2023-11-26T11:02:56Z</time>
      </trkpt>
      <trkpt lat="43.61967" lon="6.59947">
        <ele>773</ele>
        <time>2023-11-26T11:02:57Z</time>
      </trkpt>
      <trkpt lat="43.61967" lon="6.59946">
        <ele>773</ele>
        <time>2023-11-26T11:02:58Z</time>
      </trkpt>
      <trkpt lat="43.61967" lon="6.59947">
        <ele>772.9</ele>
        <time>2023-11-26T11:02:59Z</time>
      </trkpt>
      <trkpt lat="43.61967" lon="6.59947">
        <ele>772.9</ele>
        <time>2023-11-26T11:03:00Z</time>
      </trkpt>
      <trkpt lat="43.61967" lon="6.59947">
        <ele>773.1</ele>
        <time>2023-11-26T11:03:01Z</time>
      </trkpt>
      <trkpt lat="43.61967" lon="6.59946">
        <ele>773.1</ele>
        <time>2023-11-26T11:03:02Z</time>
      </trkpt>
      <trkpt lat="43.61967" lon="6.59946">
        <ele>773.1</ele>
        <time>2023-11-26T11:03:03Z</time>
      </trkpt>
      <trkpt lat="43.61967" lon="6.59946">
        <ele>773.1</ele>
        <time>2023-11-26T11:03:04Z</time>
      </trkpt>
      <trkpt lat="43.61967" lon="6.59946">
        <ele>773.1</ele>
        <time>2023-11-26T11:03:05Z</time>
      </trkpt>
      <trkpt lat="43.61967" lon="6.59946">
        <ele>773.1</ele>
        <time>2023-11-26T11:03:06Z</time>
      </trkpt>
      <trkpt lat="43.61967" lon="6.59946">
        <ele>773.1</ele>
        <time>2023-11-26T11:03:07Z</time>
      </trkpt>
      <trkpt lat="43.61967" lon="6.59946">
        <ele>773.1</ele>
        <time>2023-11-26T11:03:08Z</time>
      </trkpt>
      <trkpt lat="43.61967" lon="6.59946">
        <ele>773.1</ele>
        <time>2023-11-26T11:03:09Z</time>
      </trkpt>
      <trkpt lat="43.61967" lon="6.59946">
        <ele>773.1</ele>
        <time>2023-11-26T11:03:10Z</time>
      </trkpt>
      <trkpt lat="43.61967" lon="6.59946">
        <ele>773.2</ele>
        <time>2023-11-26T11:03:11Z</time>
      </trkpt>
      <trkpt lat="43.61967" lon="6.59946">
        <ele>773.1</ele>
        <time>2023-11-26T11:03:12Z</time>
      </trkpt>
      <trkpt lat="43.61967" lon="6.59946">
        <ele>772.9</ele>
        <time>2023-11-26T11:03:13Z</time>
      </trkpt>
      <trkpt lat="43.61967" lon="6.59946">
        <ele>772.9</ele>
        <time>2023-11-26T11:03:14Z</time>
      </trkpt>
      <trkpt lat="43.61967" lon="6.59946">
        <ele>772.8</ele>
        <time>2023-11-26T11:03:15Z</time>
      </trkpt>
      <trkpt lat="43.61967" lon="6.59946">
        <ele>772.7</ele>
        <time>2023-11-26T11:03:16Z</time>
      </trkpt>
      <trkpt lat="43.61967" lon="6.59946">
        <ele>772.7</ele>
        <time>2023-11-26T11:03:17Z</time>
      </trkpt>
      <trkpt lat="43.61967" lon="6.59946">
        <ele>772.7</ele>
        <time>2023-11-26T11:03:18Z</time>
      </trkpt>
      <trkpt lat="43.61967" lon="6.59946">
        <ele>772.7</ele>
        <time>2023-11-26T11:03:19Z</time>
      </trkpt>
      <trkpt lat="43.61967" lon="6.59946">
        <ele>772.7</ele>
        <time>2023-11-26T11:03:20Z</time>
      </trkpt>
      <trkpt lat="43.61967" lon="6.59947">
        <ele>772.8</ele>
        <time>2023-11-26T11:03:21Z</time>
      </trkpt>
      <trkpt lat="43.61966" lon="6.59947">
        <ele>772.8</ele>
        <time>2023-11-26T11:03:22Z</time>
      </trkpt>
      <trkpt lat="43.61966" lon="6.59947">
        <ele>772.8</ele>
        <time>2023-11-26T11:03:23Z</time>
      </trkpt>
      <trkpt lat="43.61966" lon="6.59947">
        <ele>772.8</ele>
        <time>2023-11-26T11:03:24Z</time>
      </trkpt>
      <trkpt lat="43.61966" lon="6.59947">
        <ele>772.9</ele>
        <time>2023-11-26T11:03:25Z</time>
      </trkpt>
      <trkpt lat="43.61967" lon="6.59947">
        <ele>772.9</ele>
        <time>2023-11-26T11:03:26Z</time>
      </trkpt>
      <trkpt lat="43.61967" lon="6.59947">
        <ele>772.9</ele>
        <time>2023-11-26T11:03:27Z</time>
      </trkpt>
      <trkpt lat="43.61967" lon="6.59946">
        <ele>772.8</ele>
        <time>2023-11-26T11:03:28Z</time>
      </trkpt>
      <trkpt lat="43.61966" lon="6.59946">
        <ele>772.8</ele>
        <time>2023-11-26T11:03:29Z</time>
      </trkpt>
      <trkpt lat="43.61966" lon="6.59945">
        <ele>772.9</ele>
        <time>2023-11-26T11:03:30Z</time>
      </trkpt>
      <trkpt lat="43.61967" lon="6.59945">
        <ele>772.9</ele>
        <time>2023-11-26T11:03:31Z</time>
      </trkpt>
      <trkpt lat="43.61967" lon="6.59946">
        <ele>772.9</ele>
        <time>2023-11-26T11:03:32Z</time>
      </trkpt>
      <trkpt lat="43.61967" lon="6.59945">
        <ele>773.1</ele>
        <time>2023-11-26T11:03:33Z</time>
      </trkpt>
      <trkpt lat="43.61967" lon="6.59945">
        <ele>773.1</ele>
        <time>2023-11-26T11:03:34Z</time>
      </trkpt>
      <trkpt lat="43.61967" lon="6.59946">
        <ele>773.1</ele>
        <time>2023-11-26T11:03:35Z</time>
      </trkpt>
      <trkpt lat="43.61967" lon="6.59946">
        <ele>773.1</ele>
        <time>2023-11-26T11:03:36Z</time>
      </trkpt>
      <trkpt lat="43.61967" lon="6.59946">
        <ele>773</ele>
        <time>2023-11-26T11:03:37Z</time>
      </trkpt>
      <trkpt lat="43.61967" lon="6.59946">
        <ele>772.9</ele>
        <time>2023-11-26T11:03:38Z</time>
      </trkpt>
      <trkpt lat="43.61966" lon="6.59946">
        <ele>772.8</ele>
        <time>2023-11-26T11:03:39Z</time>
      </trkpt>
      <trkpt lat="43.61966" lon="6.59946">
        <ele>772.7</ele>
        <time>2023-11-26T11:03:40Z</time>
      </trkpt>
      <trkpt lat="43.61966" lon="6.59946">
        <ele>772.8</ele>
        <time>2023-11-26T11:03:41Z</time>
      </trkpt>
      <trkpt lat="43.61966" lon="6.59945">
        <ele>772.6</ele>
        <time>2023-11-26T11:03:42Z</time>
      </trkpt>
      <trkpt lat="43.61966" lon="6.59945">
        <ele>772.5</ele>
        <time>2023-11-26T11:03:43Z</time>
      </trkpt>
      <trkpt lat="43.61965" lon="6.59944">
        <ele>772.3</ele>
        <time>2023-11-26T11:03:44Z</time>
      </trkpt>
      <trkpt lat="43.61965" lon="6.59945">
        <ele>772.3</ele>
        <time>2023-11-26T11:03:45Z</time>
      </trkpt>
      <trkpt lat="43.61965" lon="6.59944">
        <ele>772.3</ele>
        <time>2023-11-26T11:03:46Z</time>
      </trkpt>
      <trkpt lat="43.61965" lon="6.59944">
        <ele>772.3</ele>
        <time>2023-11-26T11:03:47Z</time>
      </trkpt>
      <trkpt lat="43.61965" lon="6.59945">
        <ele>772.3</ele>
        <time>2023-11-26T11:03:48Z</time>
      </trkpt>
      <trkpt lat="43.61965" lon="6.59944">
        <ele>772.4</ele>
        <time>2023-11-26T11:03:49Z</time>
      </trkpt>
      <trkpt lat="43.61965" lon="6.59944">
        <ele>772.4</ele>
        <time>2023-11-26T11:03:50Z</time>
      </trkpt>
      <trkpt lat="43.61965" lon="6.59944">
        <ele>772.5</ele>
        <time>2023-11-26T11:03:51Z</time>
      </trkpt>
      <trkpt lat="43.61965" lon="6.59944">
        <ele>772.5</ele>
        <time>2023-11-26T11:03:52Z</time>
      </trkpt>
      <trkpt lat="43.61964" lon="6.59944">
        <ele>772.5</ele>
        <time>2023-11-26T11:03:53Z</time>
      </trkpt>
      <trkpt lat="43.61964" lon="6.59944">
        <ele>772.5</ele>
        <time>2023-11-26T11:03:54Z</time>
      </trkpt>
      <trkpt lat="43.61964" lon="6.59944">
        <ele>772.5</ele>
        <time>2023-11-26T11:03:55Z</time>
      </trkpt>
      <trkpt lat="43.61964" lon="6.59944">
        <ele>772.6</ele>
        <time>2023-11-26T11:03:56Z</time>
      </trkpt>
      <trkpt lat="43.61964" lon="6.59944">
        <ele>772.7</ele>
        <time>2023-11-26T11:03:57Z</time>
      </trkpt>
      <trkpt lat="43.61964" lon="6.59944">
        <ele>772.7</ele>
        <time>2023-11-26T11:03:58Z</time>
      </trkpt>
      <trkpt lat="43.61964" lon="6.59944">
        <ele>772.7</ele>
        <time>2023-11-26T11:03:59Z</time>
      </trkpt>
      <trkpt lat="43.61964" lon="6.59945">
        <ele>772.8</ele>
        <time>2023-11-26T11:04:00Z</time>
      </trkpt>
      <trkpt lat="43.61964" lon="6.59944">
        <ele>772.8</ele>
        <time>2023-11-26T11:04:01Z</time>
      </trkpt>
      <trkpt lat="43.61964" lon="6.59944">
        <ele>772.9</ele>
        <time>2023-11-26T11:04:02Z</time>
      </trkpt>
      <trkpt lat="43.61964" lon="6.59944">
        <ele>772.8</ele>
        <time>2023-11-26T11:04:03Z</time>
      </trkpt>
      <trkpt lat="43.61963" lon="6.59944">
        <ele>772.8</ele>
        <time>2023-11-26T11:04:04Z</time>
      </trkpt>
      <trkpt lat="43.61963" lon="6.59944">
        <ele>772.8</ele>
        <time>2023-11-26T11:04:05Z</time>
      </trkpt>
      <trkpt lat="43.61963" lon="6.59944">
        <ele>772.7</ele>
        <time>2023-11-26T11:04:06Z</time>
      </trkpt>
      <trkpt lat="43.61963" lon="6.59944">
        <ele>772.7</ele>
        <time>2023-11-26T11:04:07Z</time>
      </trkpt>
      <trkpt lat="43.61963" lon="6.59944">
        <ele>772.8</ele>
        <time>2023-11-26T11:04:08Z</time>
      </trkpt>
      <trkpt lat="43.61963" lon="6.59945">
        <ele>772.8</ele>
        <time>2023-11-26T11:04:09Z</time>
      </trkpt>
      <trkpt lat="43.61963" lon="6.59945">
        <ele>772.9</ele>
        <time>2023-11-26T11:04:10Z</time>
      </trkpt>
      <trkpt lat="43.61963" lon="6.59945">
        <ele>772.9</ele>
        <time>2023-11-26T11:04:11Z</time>
      </trkpt>
      <trkpt lat="43.61963" lon="6.59945">
        <ele>772.9</ele>
        <time>2023-11-26T11:04:12Z</time>
      </trkpt>
      <trkpt lat="43.61963" lon="6.59945">
        <ele>772.8</ele>
        <time>2023-11-26T11:04:13Z</time>
      </trkpt>
      <trkpt lat="43.61963" lon="6.59946">
        <ele>772.8</ele>
        <time>2023-11-26T11:04:14Z</time>
      </trkpt>
      <trkpt lat="43.61963" lon="6.59946">
        <ele>772.8</ele>
        <time>2023-11-26T11:04:15Z</time>
      </trkpt>
      <trkpt lat="43.61963" lon="6.59946">
        <ele>772.8</ele>
        <time>2023-11-26T11:04:16Z</time>
      </trkpt>
      <trkpt lat="43.61963" lon="6.59946">
        <ele>773</ele>
        <time>2023-11-26T11:04:17Z</time>
      </trkpt>
      <trkpt lat="43.61963" lon="6.59946">
        <ele>773</ele>
        <time>2023-11-26T11:04:18Z</time>
      </trkpt>
      <trkpt lat="43.61963" lon="6.59946">
        <ele>773</ele>
        <time>2023-11-26T11:04:19Z</time>
      </trkpt>
      <trkpt lat="43.61963" lon="6.59946">
        <ele>772.9</ele>
        <time>2023-11-26T11:04:20Z</time>
      </trkpt>
      <trkpt lat="43.61962" lon="6.59946">
        <ele>772.9</ele>
        <time>2023-11-26T11:04:21Z</time>
      </trkpt>
      <trkpt lat="43.61962" lon="6.59945">
        <ele>772.9</ele>
        <time>2023-11-26T11:04:22Z</time>
      </trkpt>
      <trkpt lat="43.61962" lon="6.59945">
        <ele>773</ele>
        <time>2023-11-26T11:04:23Z</time>
      </trkpt>
      <trkpt lat="43.61962" lon="6.59945">
        <ele>773.1</ele>
        <time>2023-11-26T11:04:24Z</time>
      </trkpt>
      <trkpt lat="43.61962" lon="6.59944">
        <ele>772.9</ele>
        <time>2023-11-26T11:04:25Z</time>
      </trkpt>
      <trkpt lat="43.61962" lon="6.59944">
        <ele>772.9</ele>
        <time>2023-11-26T11:04:26Z</time>
      </trkpt>
      <trkpt lat="43.61962" lon="6.59944">
        <ele>772.9</ele>
        <time>2023-11-26T11:04:27Z</time>
      </trkpt>
      <trkpt lat="43.61962" lon="6.59944">
        <ele>772.9</ele>
        <time>2023-11-26T11:04:28Z</time>
      </trkpt>
      <trkpt lat="43.61962" lon="6.59944">
        <ele>772.9</ele>
        <time>2023-11-26T11:04:29Z</time>
      </trkpt>
      <trkpt lat="43.61962" lon="6.59944">
        <ele>772.8</ele>
        <time>2023-11-26T11:04:30Z</time>
      </trkpt>
      <trkpt lat="43.61961" lon="6.59943">
        <ele>772.8</ele>
        <time>2023-11-26T11:04:31Z</time>
      </trkpt>
      <trkpt lat="43.61961" lon="6.59944">
        <ele>772.8</ele>
        <time>2023-11-26T11:04:32Z</time>
      </trkpt>
      <trkpt lat="43.61961" lon="6.59943">
        <ele>772.8</ele>
        <time>2023-11-26T11:04:33Z</time>
      </trkpt>
      <trkpt lat="43.61961" lon="6.59944">
        <ele>772.9</ele>
        <time>2023-11-26T11:04:34Z</time>
      </trkpt>
      <trkpt lat="43.61961" lon="6.59944">
        <ele>773</ele>
        <time>2023-11-26T11:04:35Z</time>
      </trkpt>
      <trkpt lat="43.61962" lon="6.59944">
        <ele>773</ele>
        <time>2023-11-26T11:04:36Z</time>
      </trkpt>
      <trkpt lat="43.61962" lon="6.59944">
        <ele>773.1</ele>
        <time>2023-11-26T11:04:37Z</time>
      </trkpt>
      <trkpt lat="43.61962" lon="6.59944">
        <ele>773.1</ele>
        <time>2023-11-26T11:04:38Z</time>
      </trkpt>
      <trkpt lat="43.61962" lon="6.59944">
        <ele>773.1</ele>
        <time>2023-11-26T11:04:39Z</time>
      </trkpt>
      <trkpt lat="43.61962" lon="6.59944">
        <ele>773.1</ele>
        <time>2023-11-26T11:04:40Z</time>
      </trkpt>
      <trkpt lat="43.61962" lon="6.59944">
        <ele>772.9</ele>
        <time>2023-11-26T11:04:41Z</time>
      </trkpt>
      <trkpt lat="43.61962" lon="6.59944">
        <ele>772.9</ele>
        <time>2023-11-26T11:04:42Z</time>
      </trkpt>
      <trkpt lat="43.61962" lon="6.59944">
        <ele>772.9</ele>
        <time>2023-11-26T11:04:43Z</time>
      </trkpt>
      <trkpt lat="43.61962" lon="6.59944">
        <ele>772.9</ele>
        <time>2023-11-26T11:04:44Z</time>
      </trkpt>
      <trkpt lat="43.61962" lon="6.59944">
        <ele>772.9</ele>
        <time>2023-11-26T11:04:45Z</time>
      </trkpt>
      <trkpt lat="43.61962" lon="6.59944">
        <ele>773</ele>
        <time>2023-11-26T11:04:46Z</time>
      </trkpt>
      <trkpt lat="43.61962" lon="6.59944">
        <ele>773</ele>
        <time>2023-11-26T11:04:47Z</time>
      </trkpt>
      <trkpt lat="43.61962" lon="6.59945">
        <ele>773</ele>
        <time>2023-11-26T11:04:48Z</time>
      </trkpt>
      <trkpt lat="43.61962" lon="6.59945">
        <ele>773</ele>
        <time>2023-11-26T11:04:49Z</time>
      </trkpt>
      <trkpt lat="43.61962" lon="6.59946">
        <ele>772.9</ele>
        <time>2023-11-26T11:04:50Z</time>
      </trkpt>
      <trkpt lat="43.61962" lon="6.59946">
        <ele>772.9</ele>
        <time>2023-11-26T11:04:51Z</time>
      </trkpt>
      <trkpt lat="43.61962" lon="6.59946">
        <ele>772.9</ele>
        <time>2023-11-26T11:04:52Z</time>
      </trkpt>
      <trkpt lat="43.61962" lon="6.59945">
        <ele>772.8</ele>
        <time>2023-11-26T11:04:53Z</time>
      </trkpt>
      <trkpt lat="43.61963" lon="6.59945">
        <ele>772.8</ele>
        <time>2023-11-26T11:04:54Z</time>
      </trkpt>
      <trkpt lat="43.61963" lon="6.59945">
        <ele>772.8</ele>
        <time>2023-11-26T11:04:55Z</time>
      </trkpt>
      <trkpt lat="43.61963" lon="6.59945">
        <ele>772.8</ele>
        <time>2023-11-26T11:04:56Z</time>
      </trkpt>
      <trkpt lat="43.61963" lon="6.59945">
        <ele>772.8</ele>
        <time>2023-11-26T11:04:57Z</time>
      </trkpt>
      <trkpt lat="43.61963" lon="6.59945">
        <ele>772.8</ele>
        <time>2023-11-26T11:04:58Z</time>
      </trkpt>
      <trkpt lat="43.61963" lon="6.59945">
        <ele>772.8</ele>
        <time>2023-11-26T11:04:59Z</time>
      </trkpt>
      <trkpt lat="43.61963" lon="6.59945">
        <ele>772.8</ele>
        <time>2023-11-26T11:05:00Z</time>
      </trkpt>
      <trkpt lat="43.61963" lon="6.59945">
        <ele>772.9</ele>
        <time>2023-11-26T11:05:01Z</time>
      </trkpt>
      <trkpt lat="43.61963" lon="6.59945">
        <ele>772.9</ele>
        <time>2023-11-26T11:05:02Z</time>
      </trkpt>
      <trkpt lat="43.61963" lon="6.59945">
        <ele>773</ele>
        <time>2023-11-26T11:05:03Z</time>
      </trkpt>
      <trkpt lat="43.61963" lon="6.59945">
        <ele>773</ele>
        <time>2023-11-26T11:05:04Z</time>
      </trkpt>
      <trkpt lat="43.61963" lon="6.59945">
        <ele>773</ele>
        <time>2023-11-26T11:05:05Z</time>
      </trkpt>
      <trkpt lat="43.61963" lon="6.59945">
        <ele>773.1</ele>
        <time>2023-11-26T11:05:06Z</time>
      </trkpt>
      <trkpt lat="43.61963" lon="6.59945">
        <ele>773.1</ele>
        <time>2023-11-26T11:05:07Z</time>
      </trkpt>
      <trkpt lat="43.61963" lon="6.59945">
        <ele>773.1</ele>
        <time>2023-11-26T11:05:08Z</time>
      </trkpt>
      <trkpt lat="43.61963" lon="6.59944">
        <ele>773.1</ele>
        <time>2023-11-26T11:05:09Z</time>
      </trkpt>
      <trkpt lat="43.61963" lon="6.59944">
        <ele>773.1</ele>
        <time>2023-11-26T11:05:10Z</time>
      </trkpt>
      <trkpt lat="43.61963" lon="6.59944">
        <ele>773.1</ele>
        <time>2023-11-26T11:05:11Z</time>
      </trkpt>
      <trkpt lat="43.61963" lon="6.59944">
        <ele>773.1</ele>
        <time>2023-11-26T11:05:12Z</time>
      </trkpt>
      <trkpt lat="43.61963" lon="6.59944">
        <ele>773</ele>
        <time>2023-11-26T11:05:13Z</time>
      </trkpt>
      <trkpt lat="43.61963" lon="6.59944">
        <ele>772.9</ele>
        <time>2023-11-26T11:05:14Z</time>
      </trkpt>
      <trkpt lat="43.61963" lon="6.59943">
        <ele>772.8</ele>
        <time>2023-11-26T11:05:15Z</time>
      </trkpt>
      <trkpt lat="43.61963" lon="6.59943">
        <ele>772.8</ele>
        <time>2023-11-26T11:05:16Z</time>
      </trkpt>
      <trkpt lat="43.61963" lon="6.59943">
        <ele>772.7</ele>
        <time>2023-11-26T11:05:17Z</time>
      </trkpt>
      <trkpt lat="43.61962" lon="6.59943">
        <ele>772.7</ele>
        <time>2023-11-26T11:05:18Z</time>
      </trkpt>
      <trkpt lat="43.61962" lon="6.59943">
        <ele>772.7</ele>
        <time>2023-11-26T11:05:19Z</time>
      </trkpt>
      <trkpt lat="43.61963" lon="6.59944">
        <ele>772.7</ele>
        <time>2023-11-26T11:05:20Z</time>
      </trkpt>
      <trkpt lat="43.61963" lon="6.59943">
        <ele>772.6</ele>
        <time>2023-11-26T11:05:21Z</time>
      </trkpt>
      <trkpt lat="43.61963" lon="6.59943">
        <ele>772.7</ele>
        <time>2023-11-26T11:05:22Z</time>
      </trkpt>
      <trkpt lat="43.61963" lon="6.59944">
        <ele>772.7</ele>
        <time>2023-11-26T11:05:23Z</time>
      </trkpt>
      <trkpt lat="43.61963" lon="6.59944">
        <ele>772.7</ele>
        <time>2023-11-26T11:05:24Z</time>
      </trkpt>
      <trkpt lat="43.61963" lon="6.59943">
        <ele>772.6</ele>
        <time>2023-11-26T11:05:25Z</time>
      </trkpt>
      <trkpt lat="43.61963" lon="6.59943">
        <ele>772.6</ele>
        <time>2023-11-26T11:05:26Z</time>
      </trkpt>
      <trkpt lat="43.61963" lon="6.59943">
        <ele>772.6</ele>
        <time>2023-11-26T11:05:27Z</time>
      </trkpt>
      <trkpt lat="43.61963" lon="6.59942">
        <ele>772.5</ele>
        <time>2023-11-26T11:05:28Z</time>
      </trkpt>
      <trkpt lat="43.61962" lon="6.59942">
        <ele>772.6</ele>
        <time>2023-11-26T11:05:29Z</time>
      </trkpt>
      <trkpt lat="43.61962" lon="6.59942">
        <ele>772.6</ele>
        <time>2023-11-26T11:05:30Z</time>
      </trkpt>
      <trkpt lat="43.61962" lon="6.59942">
        <ele>772.6</ele>
        <time>2023-11-26T11:05:31Z</time>
      </trkpt>
      <trkpt lat="43.61962" lon="6.59942">
        <ele>772.6</ele>
        <time>2023-11-26T11:05:32Z</time>
      </trkpt>
      <trkpt lat="43.61963" lon="6.59942">
        <ele>772.6</ele>
        <time>2023-11-26T11:05:33Z</time>
      </trkpt>
      <trkpt lat="43.61963" lon="6.59942">
        <ele>772.6</ele>
        <time>2023-11-26T11:05:34Z</time>
      </trkpt>
      <trkpt lat="43.61963" lon="6.59942">
        <ele>772.6</ele>
        <time>2023-11-26T11:05:35Z</time>
      </trkpt>
      <trkpt lat="43.61964" lon="6.59942">
        <ele>772.6</ele>
        <time>2023-11-26T11:05:36Z</time>
      </trkpt>
      <trkpt lat="43.61964" lon="6.59942">
        <ele>772.7</ele>
        <time>2023-11-26T11:05:37Z</time>
      </trkpt>
      <trkpt lat="43.61964" lon="6.59942">
        <ele>772.7</ele>
        <time>2023-11-26T11:05:38Z</time>
      </trkpt>
      <trkpt lat="43.61964" lon="6.59942">
        <ele>772.6</ele>
        <time>2023-11-26T11:05:39Z</time>
      </trkpt>
      <trkpt lat="43.61964" lon="6.59943">
        <ele>772.7</ele>
        <time>2023-11-26T11:05:40Z</time>
      </trkpt>
      <trkpt lat="43.61964" lon="6.59943">
        <ele>772.7</ele>
        <time>2023-11-26T11:05:41Z</time>
      </trkpt>
      <trkpt lat="43.61964" lon="6.59943">
        <ele>772.8</ele>
        <time>2023-11-26T11:05:42Z</time>
      </trkpt>
      <trkpt lat="43.61965" lon="6.59944">
        <ele>772.8</ele>
        <time>2023-11-26T11:05:43Z</time>
      </trkpt>
      <trkpt lat="43.61965" lon="6.59944">
        <ele>772.9</ele>
        <time>2023-11-26T11:05:44Z</time>
      </trkpt>
      <trkpt lat="43.61965" lon="6.59945">
        <ele>772.8</ele>
        <time>2023-11-26T11:05:45Z</time>
      </trkpt>
      <trkpt lat="43.61966" lon="6.59946">
        <ele>772.8</ele>
        <time>2023-11-26T11:05:46Z</time>
      </trkpt>
      <trkpt lat="43.61965" lon="6.59946">
        <ele>772.8</ele>
        <time>2023-11-26T11:05:47Z</time>
      </trkpt>
      <trkpt lat="43.61965" lon="6.59946">
        <ele>772.8</ele>
        <time>2023-11-26T11:05:48Z</time>
      </trkpt>
      <trkpt lat="43.61965" lon="6.59946">
        <ele>772.7</ele>
        <time>2023-11-26T11:05:49Z</time>
      </trkpt>
      <trkpt lat="43.61966" lon="6.59945">
        <ele>772.6</ele>
        <time>2023-11-26T11:05:50Z</time>
      </trkpt>
      <trkpt lat="43.61965" lon="6.59945">
        <ele>772.7</ele>
        <time>2023-11-26T11:05:51Z</time>
      </trkpt>
      <trkpt lat="43.61965" lon="6.59945">
        <ele>772.8</ele>
        <time>2023-11-26T11:05:52Z</time>
      </trkpt>
      <trkpt lat="43.61965" lon="6.59946">
        <ele>772.9</ele>
        <time>2023-11-26T11:05:53Z</time>
      </trkpt>
      <trkpt lat="43.61966" lon="6.59946">
        <ele>773</ele>
        <time>2023-11-26T11:05:54Z</time>
      </trkpt>
      <trkpt lat="43.61966" lon="6.59946">
        <ele>773.1</ele>
        <time>2023-11-26T11:05:55Z</time>
      </trkpt>
      <trkpt lat="43.61966" lon="6.59946">
        <ele>773</ele>
        <time>2023-11-26T11:05:56Z</time>
      </trkpt>
      <trkpt lat="43.61966" lon="6.59946">
        <ele>773</ele>
        <time>2023-11-26T11:05:57Z</time>
      </trkpt>
      <trkpt lat="43.61966" lon="6.59946">
        <ele>773</ele>
        <time>2023-11-26T11:05:58Z</time>
      </trkpt>
      <trkpt lat="43.61966" lon="6.59946">
        <ele>773</ele>
        <time>2023-11-26T11:05:59Z</time>
      </trkpt>
      <trkpt lat="43.61966" lon="6.59946">
        <ele>773</ele>
        <time>2023-11-26T11:06:00Z</time>
      </trkpt>
      <trkpt lat="43.61966" lon="6.59947">
        <ele>773</ele>
        <time>2023-11-26T11:06:01Z</time>
      </trkpt>
      <trkpt lat="43.61966" lon="6.59947">
        <ele>773.1</ele>
        <time>2023-11-26T11:06:02Z</time>
      </trkpt>
      <trkpt lat="43.61966" lon="6.59947">
        <ele>773.1</ele>
        <time>2023-11-26T11:06:03Z</time>
      </trkpt>
      <trkpt lat="43.61966" lon="6.59947">
        <ele>773</ele>
        <time>2023-11-26T11:06:04Z</time>
      </trkpt>
      <trkpt lat="43.61966" lon="6.59947">
        <ele>773.1</ele>
        <time>2023-11-26T11:06:05Z</time>
      </trkpt>
      <trkpt lat="43.61966" lon="6.59947">
        <ele>773</ele>
        <time>2023-11-26T11:06:06Z</time>
      </trkpt>
      <trkpt lat="43.61966" lon="6.59946">
        <ele>773</ele>
        <time>2023-11-26T11:06:07Z</time>
      </trkpt>
      <trkpt lat="43.61966" lon="6.59946">
        <ele>772.9</ele>
        <time>2023-11-26T11:06:08Z</time>
      </trkpt>
      <trkpt lat="43.61966" lon="6.59946">
        <ele>772.9</ele>
        <time>2023-11-26T11:06:09Z</time>
      </trkpt>
      <trkpt lat="43.61966" lon="6.59946">
        <ele>772.8</ele>
        <time>2023-11-26T11:06:10Z</time>
      </trkpt>
      <trkpt lat="43.61966" lon="6.59946">
        <ele>772.8</ele>
        <time>2023-11-26T11:06:11Z</time>
      </trkpt>
      <trkpt lat="43.61966" lon="6.59946">
        <ele>772.8</ele>
        <time>2023-11-26T11:06:12Z</time>
      </trkpt>
      <trkpt lat="43.61966" lon="6.59946">
        <ele>772.9</ele>
        <time>2023-11-26T11:06:13Z</time>
      </trkpt>
      <trkpt lat="43.61966" lon="6.59946">
        <ele>772.9</ele>
        <time>2023-11-26T11:06:14Z</time>
      </trkpt>
      <trkpt lat="43.61966" lon="6.59946">
        <ele>772.9</ele>
        <time>2023-11-26T11:06:15Z</time>
      </trkpt>
      <trkpt lat="43.61966" lon="6.59946">
        <ele>773</ele>
        <time>2023-11-26T11:06:16Z</time>
      </trkpt>
      <trkpt lat="43.61966" lon="6.59946">
        <ele>773</ele>
        <time>2023-11-26T11:06:17Z</time>
      </trkpt>
      <trkpt lat="43.61966" lon="6.59946">
        <ele>773</ele>
        <time>2023-11-26T11:06:18Z</time>
      </trkpt>
      <trkpt lat="43.61966" lon="6.59947">
        <ele>773.1</ele>
        <time>2023-11-26T11:06:19Z</time>
      </trkpt>
      <trkpt lat="43.61965" lon="6.59947">
        <ele>773.1</ele>
        <time>2023-11-26T11:06:20Z</time>
      </trkpt>
      <trkpt lat="43.61965" lon="6.59947">
        <ele>773.2</ele>
        <time>2023-11-26T11:06:21Z</time>
      </trkpt>
      <trkpt lat="43.61965" lon="6.59947">
        <ele>773.2</ele>
        <time>2023-11-26T11:06:22Z</time>
      </trkpt>
      <trkpt lat="43.61965" lon="6.59947">
        <ele>773.3</ele>
        <time>2023-11-26T11:06:23Z</time>
      </trkpt>
      <trkpt lat="43.61965" lon="6.59947">
        <ele>773.3</ele>
        <time>2023-11-26T11:06:24Z</time>
      </trkpt>
      <trkpt lat="43.61965" lon="6.59947">
        <ele>773.3</ele>
        <time>2023-11-26T11:06:25Z</time>
      </trkpt>
      <trkpt lat="43.61965" lon="6.59947">
        <ele>773.3</ele>
        <time>2023-11-26T11:06:26Z</time>
      </trkpt>
      <trkpt lat="43.61965" lon="6.59947">
        <ele>773.3</ele>
        <time>2023-11-26T11:06:27Z</time>
      </trkpt>
      <trkpt lat="43.61965" lon="6.59948">
        <ele>773.3</ele>
        <time>2023-11-26T11:06:28Z</time>
      </trkpt>
      <trkpt lat="43.61965" lon="6.59948">
        <ele>773.3</ele>
        <time>2023-11-26T11:06:29Z</time>
      </trkpt>
      <trkpt lat="43.61965" lon="6.59948">
        <ele>773.3</ele>
        <time>2023-11-26T11:06:30Z</time>
      </trkpt>
      <trkpt lat="43.61965" lon="6.59948">
        <ele>773.3</ele>
        <time>2023-11-26T11:06:31Z</time>
      </trkpt>
      <trkpt lat="43.61965" lon="6.59948">
        <ele>773.3</ele>
        <time>2023-11-26T11:06:32Z</time>
      </trkpt>
      <trkpt lat="43.61965" lon="6.59948">
        <ele>773.4</ele>
        <time>2023-11-26T11:06:33Z</time>
      </trkpt>
      <trkpt lat="43.61965" lon="6.59948">
        <ele>773.3</ele>
        <time>2023-11-26T11:06:34Z</time>
      </trkpt>
      <trkpt lat="43.61965" lon="6.59948">
        <ele>773.3</ele>
        <time>2023-11-26T11:06:35Z</time>
      </trkpt>
      <trkpt lat="43.61965" lon="6.59949">
        <ele>773.2</ele>
        <time>2023-11-26T11:06:36Z</time>
      </trkpt>
      <trkpt lat="43.61965" lon="6.59949">
        <ele>773.2</ele>
        <time>2023-11-26T11:06:37Z</time>
      </trkpt>
      <trkpt lat="43.61965" lon="6.59949">
        <ele>773.1</ele>
        <time>2023-11-26T11:06:38Z</time>
      </trkpt>
      <trkpt lat="43.61965" lon="6.59949">
        <ele>773.1</ele>
        <time>2023-11-26T11:06:39Z</time>
      </trkpt>
      <trkpt lat="43.61965" lon="6.59949">
        <ele>773</ele>
        <time>2023-11-26T11:06:40Z</time>
      </trkpt>
      <trkpt lat="43.61965" lon="6.59949">
        <ele>773.1</ele>
        <time>2023-11-26T11:06:41Z</time>
      </trkpt>
      <trkpt lat="43.61965" lon="6.59949">
        <ele>773.2</ele>
        <time>2023-11-26T11:06:42Z</time>
      </trkpt>
      <trkpt lat="43.61965" lon="6.59949">
        <ele>773.2</ele>
        <time>2023-11-26T11:06:43Z</time>
      </trkpt>
      <trkpt lat="43.61965" lon="6.59949">
        <ele>773.2</ele>
        <time>2023-11-26T11:06:44Z</time>
      </trkpt>
      <trkpt lat="43.61964" lon="6.59949">
        <ele>773.2</ele>
        <time>2023-11-26T11:06:45Z</time>
      </trkpt>
      <trkpt lat="43.61964" lon="6.59949">
        <ele>773.2</ele>
        <time>2023-11-26T11:06:46Z</time>
      </trkpt>
      <trkpt lat="43.61964" lon="6.59949">
        <ele>773.2</ele>
        <time>2023-11-26T11:06:47Z</time>
      </trkpt>
      <trkpt lat="43.61964" lon="6.59949">
        <ele>773.2</ele>
        <time>2023-11-26T11:06:48Z</time>
      </trkpt>
      <trkpt lat="43.61964" lon="6.59949">
        <ele>773.2</ele>
        <time>2023-11-26T11:06:49Z</time>
      </trkpt>
      <trkpt lat="43.61964" lon="6.59949">
        <ele>773.2</ele>
        <time>2023-11-26T11:06:50Z</time>
      </trkpt>
      <trkpt lat="43.61964" lon="6.59949">
        <ele>773.2</ele>
        <time>2023-11-26T11:06:51Z</time>
      </trkpt>
      <trkpt lat="43.61964" lon="6.59949">
        <ele>773.3</ele>
        <time>2023-11-26T11:06:52Z</time>
      </trkpt>
      <trkpt lat="43.61964" lon="6.59949">
        <ele>773.3</ele>
        <time>2023-11-26T11:06:53Z</time>
      </trkpt>
      <trkpt lat="43.61964" lon="6.59949">
        <ele>773.3</ele>
        <time>2023-11-26T11:06:54Z</time>
      </trkpt>
      <trkpt lat="43.61964" lon="6.59949">
        <ele>773.3</ele>
        <time>2023-11-26T11:06:55Z</time>
      </trkpt>
      <trkpt lat="43.61964" lon="6.59949">
        <ele>773.2</ele>
        <time>2023-11-26T11:06:56Z</time>
      </trkpt>
      <trkpt lat="43.61964" lon="6.59949">
        <ele>773.2</ele>
        <time>2023-11-26T11:06:57Z</time>
      </trkpt>
      <trkpt lat="43.61964" lon="6.59949">
        <ele>773.2</ele>
        <time>2023-11-26T11:06:58Z</time>
      </trkpt>
      <trkpt lat="43.61964" lon="6.59949">
        <ele>773.1</ele>
        <time>2023-11-26T11:06:59Z</time>
      </trkpt>
      <trkpt lat="43.61964" lon="6.5995">
        <ele>773.1</ele>
        <time>2023-11-26T11:07:00Z</time>
      </trkpt>
      <trkpt lat="43.61964" lon="6.5995">
        <ele>773.2</ele>
        <time>2023-11-26T11:07:01Z</time>
      </trkpt>
      <trkpt lat="43.61964" lon="6.5995">
        <ele>773.2</ele>
        <time>2023-11-26T11:07:02Z</time>
      </trkpt>
      <trkpt lat="43.61964" lon="6.5995">
        <ele>773.2</ele>
        <time>2023-11-26T11:07:03Z</time>
      </trkpt>
      <trkpt lat="43.61964" lon="6.5995">
        <ele>773.1</ele>
        <time>2023-11-26T11:07:04Z</time>
      </trkpt>
      <trkpt lat="43.61964" lon="6.5995">
        <ele>773.1</ele>
        <time>2023-11-26T11:07:05Z</time>
      </trkpt>
      <trkpt lat="43.61964" lon="6.5995">
        <ele>773.1</ele>
        <time>2023-11-26T11:07:06Z</time>
      </trkpt>
      <trkpt lat="43.61964" lon="6.5995">
        <ele>773</ele>
        <time>2023-11-26T11:07:07Z</time>
      </trkpt>
      <trkpt lat="43.61964" lon="6.5995">
        <ele>773</ele>
        <time>2023-11-26T11:07:08Z</time>
      </trkpt>
      <trkpt lat="43.61964" lon="6.5995">
        <ele>773</ele>
        <time>2023-11-26T11:07:09Z</time>
      </trkpt>
      <trkpt lat="43.61964" lon="6.5995">
        <ele>772.9</ele>
        <time>2023-11-26T11:07:10Z</time>
      </trkpt>
      <trkpt lat="43.61964" lon="6.5995">
        <ele>772.9</ele>
        <time>2023-11-26T11:07:11Z</time>
      </trkpt>
      <trkpt lat="43.61964" lon="6.5995">
        <ele>772.9</ele>
        <time>2023-11-26T11:07:12Z</time>
      </trkpt>
      <trkpt lat="43.61964" lon="6.5995">
        <ele>772.9</ele>
        <time>2023-11-26T11:07:13Z</time>
      </trkpt>
      <trkpt lat="43.61964" lon="6.5995">
        <ele>772.9</ele>
        <time>2023-11-26T11:07:14Z</time>
      </trkpt>
      <trkpt lat="43.61964" lon="6.59949">
        <ele>772.9</ele>
        <time>2023-11-26T11:07:15Z</time>
      </trkpt>
      <trkpt lat="43.61964" lon="6.59949">
        <ele>773</ele>
        <time>2023-11-26T11:07:16Z</time>
      </trkpt>
      <trkpt lat="43.61964" lon="6.59949">
        <ele>773</ele>
        <time>2023-11-26T11:07:17Z</time>
      </trkpt>
      <trkpt lat="43.61964" lon="6.59949">
        <ele>773</ele>
        <time>2023-11-26T11:07:18Z</time>
      </trkpt>
      <trkpt lat="43.61964" lon="6.59949">
        <ele>773.1</ele>
        <time>2023-11-26T11:07:19Z</time>
      </trkpt>
      <trkpt lat="43.61964" lon="6.59949">
        <ele>773.1</ele>
        <time>2023-11-26T11:07:20Z</time>
      </trkpt>
      <trkpt lat="43.61964" lon="6.59949">
        <ele>773.1</ele>
        <time>2023-11-26T11:07:21Z</time>
      </trkpt>
      <trkpt lat="43.61964" lon="6.59949">
        <ele>773.1</ele>
        <time>2023-11-26T11:07:22Z</time>
      </trkpt>
      <trkpt lat="43.61964" lon="6.59949">
        <ele>773.1</ele>
        <time>2023-11-26T11:07:23Z</time>
      </trkpt>
      <trkpt lat="43.61964" lon="6.59949">
        <ele>773.1</ele>
        <time>2023-11-26T11:07:24Z</time>
      </trkpt>
      <trkpt lat="43.61964" lon="6.59949">
        <ele>773.1</ele>
        <time>2023-11-26T11:07:25Z</time>
      </trkpt>
      <trkpt lat="43.61964" lon="6.59949">
        <ele>773.1</ele>
        <time>2023-11-26T11:07:26Z</time>
      </trkpt>
      <trkpt lat="43.61964" lon="6.59949">
        <ele>773</ele>
        <time>2023-11-26T11:07:27Z</time>
      </trkpt>
      <trkpt lat="43.61964" lon="6.59949">
        <ele>772.9</ele>
        <time>2023-11-26T11:07:28Z</time>
      </trkpt>
      <trkpt lat="43.61964" lon="6.59949">
        <ele>772.9</ele>
        <time>2023-11-26T11:07:29Z</time>
      </trkpt>
      <trkpt lat="43.61964" lon="6.59949">
        <ele>772.8</ele>
        <time>2023-11-26T11:07:30Z</time>
      </trkpt>
      <trkpt lat="43.61964" lon="6.59949">
        <ele>772.8</ele>
        <time>2023-11-26T11:07:31Z</time>
      </trkpt>
      <trkpt lat="43.61964" lon="6.59949">
        <ele>772.7</ele>
        <time>2023-11-26T11:07:32Z</time>
      </trkpt>
      <trkpt lat="43.61964" lon="6.59949">
        <ele>772.7</ele>
        <time>2023-11-26T11:07:33Z</time>
      </trkpt>
      <trkpt lat="43.61964" lon="6.59949">
        <ele>772.7</ele>
        <time>2023-11-26T11:07:34Z</time>
      </trkpt>
      <trkpt lat="43.61964" lon="6.59949">
        <ele>772.8</ele>
        <time>2023-11-26T11:07:35Z</time>
      </trkpt>
      <trkpt lat="43.61964" lon="6.59949">
        <ele>772.8</ele>
        <time>2023-11-26T11:07:36Z</time>
      </trkpt>
      <trkpt lat="43.61964" lon="6.59949">
        <ele>772.8</ele>
        <time>2023-11-26T11:07:37Z</time>
      </trkpt>
      <trkpt lat="43.61964" lon="6.59948">
        <ele>772.8</ele>
        <time>2023-11-26T11:07:38Z</time>
      </trkpt>
      <trkpt lat="43.61964" lon="6.59948">
        <ele>772.8</ele>
        <time>2023-11-26T11:07:39Z</time>
      </trkpt>
      <trkpt lat="43.61964" lon="6.59948">
        <ele>772.8</ele>
        <time>2023-11-26T11:07:40Z</time>
      </trkpt>
      <trkpt lat="43.61964" lon="6.59948">
        <ele>772.7</ele>
        <time>2023-11-26T11:07:41Z</time>
      </trkpt>
      <trkpt lat="43.61964" lon="6.59948">
        <ele>772.6</ele>
        <time>2023-11-26T11:07:42Z</time>
      </trkpt>
      <trkpt lat="43.61965" lon="6.59948">
        <ele>772.6</ele>
        <time>2023-11-26T11:07:43Z</time>
      </trkpt>
      <trkpt lat="43.61965" lon="6.59948">
        <ele>772.5</ele>
        <time>2023-11-26T11:07:44Z</time>
      </trkpt>
      <trkpt lat="43.61965" lon="6.59947">
        <ele>772.6</ele>
        <time>2023-11-26T11:07:45Z</time>
      </trkpt>
      <trkpt lat="43.61965" lon="6.59947">
        <ele>772.6</ele>
        <time>2023-11-26T11:07:46Z</time>
      </trkpt>
      <trkpt lat="43.61964" lon="6.59947">
        <ele>772.6</ele>
        <time>2023-11-26T11:07:47Z</time>
      </trkpt>
      <trkpt lat="43.61964" lon="6.59947">
        <ele>772.6</ele>
        <time>2023-11-26T11:07:48Z</time>
      </trkpt>
      <trkpt lat="43.61964" lon="6.59947">
        <ele>772.6</ele>
        <time>2023-11-26T11:07:49Z</time>
      </trkpt>
      <trkpt lat="43.61964" lon="6.59947">
        <ele>772.7</ele>
        <time>2023-11-26T11:07:50Z</time>
      </trkpt>
      <trkpt lat="43.61964" lon="6.59947">
        <ele>772.7</ele>
        <time>2023-11-26T11:07:51Z</time>
      </trkpt>
      <trkpt lat="43.61964" lon="6.59946">
        <ele>772.6</ele>
        <time>2023-11-26T11:07:52Z</time>
      </trkpt>
      <trkpt lat="43.61965" lon="6.59947">
        <ele>772.5</ele>
        <time>2023-11-26T11:07:53Z</time>
      </trkpt>
      <trkpt lat="43.61965" lon="6.59947">
        <ele>772.5</ele>
        <time>2023-11-26T11:07:54Z</time>
      </trkpt>
      <trkpt lat="43.61965" lon="6.59947">
        <ele>772.5</ele>
        <time>2023-11-26T11:07:55Z</time>
      </trkpt>
      <trkpt lat="43.61965" lon="6.59947">
        <ele>772.5</ele>
        <time>2023-11-26T11:07:56Z</time>
      </trkpt>
      <trkpt lat="43.61965" lon="6.59946">
        <ele>772.5</ele>
        <time>2023-11-26T11:07:57Z</time>
      </trkpt>
      <trkpt lat="43.61965" lon="6.59946">
        <ele>772.6</ele>
        <time>2023-11-26T11:07:58Z</time>
      </trkpt>
      <trkpt lat="43.61965" lon="6.59946">
        <ele>772.7</ele>
        <time>2023-11-26T11:07:59Z</time>
      </trkpt>
      <trkpt lat="43.61965" lon="6.59946">
        <ele>772.7</ele>
        <time>2023-11-26T11:08:00Z</time>
      </trkpt>
      <trkpt lat="43.61965" lon="6.59946">
        <ele>772.8</ele>
        <time>2023-11-26T11:08:01Z</time>
      </trkpt>
      <trkpt lat="43.61965" lon="6.59946">
        <ele>772.7</ele>
        <time>2023-11-26T11:08:02Z</time>
      </trkpt>
      <trkpt lat="43.61965" lon="6.59946">
        <ele>772.7</ele>
        <time>2023-11-26T11:08:03Z</time>
      </trkpt>
      <trkpt lat="43.61965" lon="6.59946">
        <ele>772.6</ele>
        <time>2023-11-26T11:08:04Z</time>
      </trkpt>
      <trkpt lat="43.61965" lon="6.59946">
        <ele>772.6</ele>
        <time>2023-11-26T11:08:05Z</time>
      </trkpt>
      <trkpt lat="43.61965" lon="6.59946">
        <ele>772.6</ele>
        <time>2023-11-26T11:08:06Z</time>
      </trkpt>
      <trkpt lat="43.61965" lon="6.59946">
        <ele>772.6</ele>
        <time>2023-11-26T11:08:07Z</time>
      </trkpt>
      <trkpt lat="43.61965" lon="6.59946">
        <ele>772.6</ele>
        <time>2023-11-26T11:08:08Z</time>
      </trkpt>
      <trkpt lat="43.61965" lon="6.59946">
        <ele>772.6</ele>
        <time>2023-11-26T11:08:09Z</time>
      </trkpt>
      <trkpt lat="43.61965" lon="6.59946">
        <ele>772.7</ele>
        <time>2023-11-26T11:08:10Z</time>
      </trkpt>
      <trkpt lat="43.61965" lon="6.59947">
        <ele>772.7</ele>
        <time>2023-11-26T11:08:11Z</time>
      </trkpt>
      <trkpt lat="43.61965" lon="6.59947">
        <ele>772.7</ele>
        <time>2023-11-26T11:08:12Z</time>
      </trkpt>
      <trkpt lat="43.61965" lon="6.59947">
        <ele>772.7</ele>
        <time>2023-11-26T11:08:13Z</time>
      </trkpt>
      <trkpt lat="43.61965" lon="6.59947">
        <ele>772.6</ele>
        <time>2023-11-26T11:08:14Z</time>
      </trkpt>
      <trkpt lat="43.61966" lon="6.59947">
        <ele>772.7</ele>
        <time>2023-11-26T11:08:15Z</time>
      </trkpt>
      <trkpt lat="43.61966" lon="6.59947">
        <ele>772.6</ele>
        <time>2023-11-26T11:08:16Z</time>
      </trkpt>
      <trkpt lat="43.61966" lon="6.59947">
        <ele>772.6</ele>
        <time>2023-11-26T11:08:17Z</time>
      </trkpt>
      <trkpt lat="43.61966" lon="6.59948">
        <ele>772.5</ele>
        <time>2023-11-26T11:08:18Z</time>
      </trkpt>
      <trkpt lat="43.61966" lon="6.59948">
        <ele>772.4</ele>
        <time>2023-11-26T11:08:19Z</time>
      </trkpt>
      <trkpt lat="43.61966" lon="6.59948">
        <ele>772.4</ele>
        <time>2023-11-26T11:08:20Z</time>
      </trkpt>
      <trkpt lat="43.61966" lon="6.59948">
        <ele>772.5</ele>
        <time>2023-11-26T11:08:21Z</time>
      </trkpt>
      <trkpt lat="43.61966" lon="6.59948">
        <ele>772.6</ele>
        <time>2023-11-26T11:08:22Z</time>
      </trkpt>
      <trkpt lat="43.61966" lon="6.59948">
        <ele>772.7</ele>
        <time>2023-11-26T11:08:23Z</time>
      </trkpt>
      <trkpt lat="43.61966" lon="6.59948">
        <ele>772.7</ele>
        <time>2023-11-26T11:08:24Z</time>
      </trkpt>
      <trkpt lat="43.61966" lon="6.59948">
        <ele>772.7</ele>
        <time>2023-11-26T11:08:25Z</time>
      </trkpt>
      <trkpt lat="43.61966" lon="6.59948">
        <ele>772.6</ele>
        <time>2023-11-26T11:08:26Z</time>
      </trkpt>
      <trkpt lat="43.61966" lon="6.59948">
        <ele>772.7</ele>
        <time>2023-11-26T11:08:27Z</time>
      </trkpt>
      <trkpt lat="43.61966" lon="6.59948">
        <ele>772.8</ele>
        <time>2023-11-26T11:08:28Z</time>
      </trkpt>
      <trkpt lat="43.61966" lon="6.59948">
        <ele>772.8</ele>
        <time>2023-11-26T11:08:29Z</time>
      </trkpt>
      <trkpt lat="43.61967" lon="6.59948">
        <ele>772.8</ele>
        <time>2023-11-26T11:08:30Z</time>
      </trkpt>
      <trkpt lat="43.61967" lon="6.59948">
        <ele>772.8</ele>
        <time>2023-11-26T11:08:31Z</time>
      </trkpt>
      <trkpt lat="43.61966" lon="6.59948">
        <ele>772.8</ele>
        <time>2023-11-26T11:08:32Z</time>
      </trkpt>
      <trkpt lat="43.61967" lon="6.59948">
        <ele>772.9</ele>
        <time>2023-11-26T11:08:33Z</time>
      </trkpt>
      <trkpt lat="43.61967" lon="6.59948">
        <ele>773</ele>
        <time>2023-11-26T11:08:34Z</time>
      </trkpt>
      <trkpt lat="43.61967" lon="6.59948">
        <ele>772.9</ele>
        <time>2023-11-26T11:08:35Z</time>
      </trkpt>
      <trkpt lat="43.61966" lon="6.59947">
        <ele>773</ele>
        <time>2023-11-26T11:08:36Z</time>
      </trkpt>
      <trkpt lat="43.61966" lon="6.59947">
        <ele>773</ele>
        <time>2023-11-26T11:08:37Z</time>
      </trkpt>
      <trkpt lat="43.61966" lon="6.59946">
        <ele>773.1</ele>
        <time>2023-11-26T11:08:38Z</time>
      </trkpt>
      <trkpt lat="43.61966" lon="6.59946">
        <ele>773.1</ele>
        <time>2023-11-26T11:08:39Z</time>
      </trkpt>
      <trkpt lat="43.61966" lon="6.59946">
        <ele>773</ele>
        <time>2023-11-26T11:08:40Z</time>
      </trkpt>
      <trkpt lat="43.61966" lon="6.59945">
        <ele>773.1</ele>
        <time>2023-11-26T11:08:41Z</time>
      </trkpt>
      <trkpt lat="43.61966" lon="6.59945">
        <ele>773.1</ele>
        <time>2023-11-26T11:08:42Z</time>
      </trkpt>
      <trkpt lat="43.61966" lon="6.59945">
        <ele>773.1</ele>
        <time>2023-11-26T11:08:43Z</time>
      </trkpt>
      <trkpt lat="43.61966" lon="6.59945">
        <ele>773</ele>
        <time>2023-11-26T11:08:44Z</time>
      </trkpt>
      <trkpt lat="43.61966" lon="6.59945">
        <ele>772.9</ele>
        <time>2023-11-26T11:08:45Z</time>
      </trkpt>
      <trkpt lat="43.61966" lon="6.59945">
        <ele>772.9</ele>
        <time>2023-11-26T11:08:46Z</time>
      </trkpt>
      <trkpt lat="43.61966" lon="6.59946">
        <ele>772.9</ele>
        <time>2023-11-26T11:08:47Z</time>
      </trkpt>
      <trkpt lat="43.61966" lon="6.59946">
        <ele>772.9</ele>
        <time>2023-11-26T11:08:48Z</time>
      </trkpt>
      <trkpt lat="43.61966" lon="6.59946">
        <ele>772.9</ele>
        <time>2023-11-26T11:08:49Z</time>
      </trkpt>
      <trkpt lat="43.61966" lon="6.59946">
        <ele>772.9</ele>
        <time>2023-11-26T11:08:50Z</time>
      </trkpt>
      <trkpt lat="43.61966" lon="6.59947">
        <ele>772.9</ele>
        <time>2023-11-26T11:08:51Z</time>
      </trkpt>
      <trkpt lat="43.61966" lon="6.59947">
        <ele>772.9</ele>
        <time>2023-11-26T11:08:52Z</time>
      </trkpt>
      <trkpt lat="43.61967" lon="6.59947">
        <ele>772.8</ele>
        <time>2023-11-26T11:08:53Z</time>
      </trkpt>
      <trkpt lat="43.61967" lon="6.59947">
        <ele>772.7</ele>
        <time>2023-11-26T11:08:54Z</time>
      </trkpt>
      <trkpt lat="43.61967" lon="6.59948">
        <ele>772.6</ele>
        <time>2023-11-26T11:08:55Z</time>
      </trkpt>
      <trkpt lat="43.61967" lon="6.59948">
        <ele>772.6</ele>
        <time>2023-11-26T11:08:56Z</time>
      </trkpt>
      <trkpt lat="43.61967" lon="6.59949">
        <ele>772.6</ele>
        <time>2023-11-26T11:08:57Z</time>
      </trkpt>
      <trkpt lat="43.61967" lon="6.59949">
        <ele>772.6</ele>
        <time>2023-11-26T11:08:58Z</time>
      </trkpt>
      <trkpt lat="43.61967" lon="6.59949">
        <ele>772.6</ele>
        <time>2023-11-26T11:08:59Z</time>
      </trkpt>
      <trkpt lat="43.61967" lon="6.59949">
        <ele>772.6</ele>
        <time>2023-11-26T11:09:00Z</time>
      </trkpt>
      <trkpt lat="43.61968" lon="6.59949">
        <ele>772.6</ele>
        <time>2023-11-26T11:09:01Z</time>
      </trkpt>
      <trkpt lat="43.61968" lon="6.59949">
        <ele>772.6</ele>
        <time>2023-11-26T11:09:02Z</time>
      </trkpt>
      <trkpt lat="43.61968" lon="6.5995">
        <ele>772.7</ele>
        <time>2023-11-26T11:09:03Z</time>
      </trkpt>
      <trkpt lat="43.61968" lon="6.5995">
        <ele>772.7</ele>
        <time>2023-11-26T11:09:04Z</time>
      </trkpt>
      <trkpt lat="43.61968" lon="6.5995">
        <ele>772.7</ele>
        <time>2023-11-26T11:09:05Z</time>
      </trkpt>
      <trkpt lat="43.61968" lon="6.5995">
        <ele>772.7</ele>
        <time>2023-11-26T11:09:06Z</time>
      </trkpt>
      <trkpt lat="43.61968" lon="6.5995">
        <ele>772.6</ele>
        <time>2023-11-26T11:09:07Z</time>
      </trkpt>
      <trkpt lat="43.61968" lon="6.59949">
        <ele>772.6</ele>
        <time>2023-11-26T11:09:08Z</time>
      </trkpt>
      <trkpt lat="43.61968" lon="6.59949">
        <ele>772.7</ele>
        <time>2023-11-26T11:09:09Z</time>
      </trkpt>
      <trkpt lat="43.61968" lon="6.59949">
        <ele>772.7</ele>
        <time>2023-11-26T11:09:10Z</time>
      </trkpt>
      <trkpt lat="43.61968" lon="6.59948">
        <ele>772.6</ele>
        <time>2023-11-26T11:09:11Z</time>
      </trkpt>
      <trkpt lat="43.61968" lon="6.59949">
        <ele>772.6</ele>
        <time>2023-11-26T11:09:12Z</time>
      </trkpt>
      <trkpt lat="43.61968" lon="6.59948">
        <ele>772.6</ele>
        <time>2023-11-26T11:09:13Z</time>
      </trkpt>
      <trkpt lat="43.61968" lon="6.59948">
        <ele>772.6</ele>
        <time>2023-11-26T11:09:14Z</time>
      </trkpt>
      <trkpt lat="43.61968" lon="6.59948">
        <ele>772.6</ele>
        <time>2023-11-26T11:09:15Z</time>
      </trkpt>
      <trkpt lat="43.61968" lon="6.59948">
        <ele>772.5</ele>
        <time>2023-11-26T11:09:16Z</time>
      </trkpt>
      <trkpt lat="43.61968" lon="6.59948">
        <ele>772.4</ele>
        <time>2023-11-26T11:09:17Z</time>
      </trkpt>
      <trkpt lat="43.61968" lon="6.59948">
        <ele>772.4</ele>
        <time>2023-11-26T11:09:18Z</time>
      </trkpt>
      <trkpt lat="43.61968" lon="6.59948">
        <ele>772.4</ele>
        <time>2023-11-26T11:09:19Z</time>
      </trkpt>
      <trkpt lat="43.61968" lon="6.59948">
        <ele>772.4</ele>
        <time>2023-11-26T11:09:20Z</time>
      </trkpt>
      <trkpt lat="43.61968" lon="6.59948">
        <ele>772.4</ele>
        <time>2023-11-26T11:09:21Z</time>
      </trkpt>
      <trkpt lat="43.61968" lon="6.59948">
        <ele>772.5</ele>
        <time>2023-11-26T11:09:22Z</time>
      </trkpt>
      <trkpt lat="43.61968" lon="6.59948">
        <ele>772.5</ele>
        <time>2023-11-26T11:09:23Z</time>
      </trkpt>
      <trkpt lat="43.61968" lon="6.59948">
        <ele>772.6</ele>
        <time>2023-11-26T11:09:24Z</time>
      </trkpt>
      <trkpt lat="43.61968" lon="6.59948">
        <ele>772.6</ele>
        <time>2023-11-26T11:09:25Z</time>
      </trkpt>
      <trkpt lat="43.61968" lon="6.59948">
        <ele>772.7</ele>
        <time>2023-11-26T11:09:26Z</time>
      </trkpt>
      <trkpt lat="43.61968" lon="6.59948">
        <ele>772.7</ele>
        <time>2023-11-26T11:09:27Z</time>
      </trkpt>
      <trkpt lat="43.61968" lon="6.59948">
        <ele>772.7</ele>
        <time>2023-11-26T11:09:28Z</time>
      </trkpt>
      <trkpt lat="43.61968" lon="6.59948">
        <ele>772.6</ele>
        <time>2023-11-26T11:09:29Z</time>
      </trkpt>
      <trkpt lat="43.61968" lon="6.59948">
        <ele>772.6</ele>
        <time>2023-11-26T11:09:30Z</time>
      </trkpt>
      <trkpt lat="43.61968" lon="6.59948">
        <ele>772.6</ele>
        <time>2023-11-26T11:09:31Z</time>
      </trkpt>
      <trkpt lat="43.61968" lon="6.59948">
        <ele>772.5</ele>
        <time>2023-11-26T11:09:32Z</time>
      </trkpt>
      <trkpt lat="43.61968" lon="6.59948">
        <ele>772.5</ele>
        <time>2023-11-26T11:09:33Z</time>
      </trkpt>
      <trkpt lat="43.61968" lon="6.59948">
        <ele>772.5</ele>
        <time>2023-11-26T11:09:34Z</time>
      </trkpt>
      <trkpt lat="43.61968" lon="6.59948">
        <ele>772.5</ele>
        <time>2023-11-26T11:09:35Z</time>
      </trkpt>
      <trkpt lat="43.61967" lon="6.59948">
        <ele>772.5</ele>
        <time>2023-11-26T11:09:36Z</time>
      </trkpt>
      <trkpt lat="43.61967" lon="6.59948">
        <ele>772.6</ele>
        <time>2023-11-26T11:09:37Z</time>
      </trkpt>
      <trkpt lat="43.61967" lon="6.59948">
        <ele>772.5</ele>
        <time>2023-11-26T11:09:38Z</time>
      </trkpt>
      <trkpt lat="43.61967" lon="6.59948">
        <ele>772.5</ele>
        <time>2023-11-26T11:09:39Z</time>
      </trkpt>
      <trkpt lat="43.61967" lon="6.59948">
        <ele>772.5</ele>
        <time>2023-11-26T11:09:40Z</time>
      </trkpt>
      <trkpt lat="43.61967" lon="6.59948">
        <ele>772.5</ele>
        <time>2023-11-26T11:09:41Z</time>
      </trkpt>
      <trkpt lat="43.61967" lon="6.59948">
        <ele>772.4</ele>
        <time>2023-11-26T11:09:42Z</time>
      </trkpt>
      <trkpt lat="43.61967" lon="6.59948">
        <ele>772.4</ele>
        <time>2023-11-26T11:09:43Z</time>
      </trkpt>
      <trkpt lat="43.61967" lon="6.59948">
        <ele>772.3</ele>
        <time>2023-11-26T11:09:44Z</time>
      </trkpt>
      <trkpt lat="43.61967" lon="6.59948">
        <ele>772.2</ele>
        <time>2023-11-26T11:09:45Z</time>
      </trkpt>
      <trkpt lat="43.61967" lon="6.59948">
        <ele>772.3</ele>
        <time>2023-11-26T11:09:46Z</time>
      </trkpt>
      <trkpt lat="43.61967" lon="6.59948">
        <ele>772.2</ele>
        <time>2023-11-26T11:09:47Z</time>
      </trkpt>
      <trkpt lat="43.61967" lon="6.59948">
        <ele>772.1</ele>
        <time>2023-11-26T11:09:48Z</time>
      </trkpt>
      <trkpt lat="43.61967" lon="6.59948">
        <ele>772.1</ele>
        <time>2023-11-26T11:09:49Z</time>
      </trkpt>
      <trkpt lat="43.61967" lon="6.59948">
        <ele>772.1</ele>
        <time>2023-11-26T11:09:50Z</time>
      </trkpt>
      <trkpt lat="43.61967" lon="6.59948">
        <ele>772.1</ele>
        <time>2023-11-26T11:09:51Z</time>
      </trkpt>
      <trkpt lat="43.61967" lon="6.59948">
        <ele>772.1</ele>
        <time>2023-11-26T11:09:52Z</time>
      </trkpt>
      <trkpt lat="43.61967" lon="6.59948">
        <ele>772</ele>
        <time>2023-11-26T11:09:53Z</time>
      </trkpt>
      <trkpt lat="43.61967" lon="6.59948">
        <ele>772.1</ele>
        <time>2023-11-26T11:09:54Z</time>
      </trkpt>
      <trkpt lat="43.61967" lon="6.59948">
        <ele>772.2</ele>
        <time>2023-11-26T11:09:55Z</time>
      </trkpt>
      <trkpt lat="43.61967" lon="6.59948">
        <ele>772.2</ele>
        <time>2023-11-26T11:09:56Z</time>
      </trkpt>
      <trkpt lat="43.61967" lon="6.59948">
        <ele>772.2</ele>
        <time>2023-11-26T11:09:57Z</time>
      </trkpt>
      <trkpt lat="43.61967" lon="6.59948">
        <ele>772.2</ele>
        <time>2023-11-26T11:09:58Z</time>
      </trkpt>
      <trkpt lat="43.61967" lon="6.59948">
        <ele>772.2</ele>
        <time>2023-11-26T11:09:59Z</time>
      </trkpt>
      <trkpt lat="43.61967" lon="6.59948">
        <ele>772.2</ele>
        <time>2023-11-26T11:10:00Z</time>
      </trkpt>
      <trkpt lat="43.61968" lon="6.59948">
        <ele>772.1</ele>
        <time>2023-11-26T11:10:01Z</time>
      </trkpt>
      <trkpt lat="43.61968" lon="6.59948">
        <ele>772.1</ele>
        <time>2023-11-26T11:10:02Z</time>
      </trkpt>
      <trkpt lat="43.61968" lon="6.59948">
        <ele>772.1</ele>
        <time>2023-11-26T11:10:03Z</time>
      </trkpt>
      <trkpt lat="43.61967" lon="6.59948">
        <ele>772</ele>
        <time>2023-11-26T11:10:04Z</time>
      </trkpt>
      <trkpt lat="43.61968" lon="6.59948">
        <ele>772</ele>
        <time>2023-11-26T11:10:05Z</time>
      </trkpt>
      <trkpt lat="43.61968" lon="6.59948">
        <ele>772</ele>
        <time>2023-11-26T11:10:06Z</time>
      </trkpt>
      <trkpt lat="43.61968" lon="6.59948">
        <ele>772.1</ele>
        <time>2023-11-26T11:10:07Z</time>
      </trkpt>
      <trkpt lat="43.61968" lon="6.59948">
        <ele>772.1</ele>
        <time>2023-11-26T11:10:08Z</time>
      </trkpt>
      <trkpt lat="43.61968" lon="6.59948">
        <ele>772.2</ele>
        <time>2023-11-26T11:10:09Z</time>
      </trkpt>
      <trkpt lat="43.61968" lon="6.59948">
        <ele>772.1</ele>
        <time>2023-11-26T11:10:10Z</time>
      </trkpt>
      <trkpt lat="43.61968" lon="6.59948">
        <ele>772</ele>
        <time>2023-11-26T11:10:11Z</time>
      </trkpt>
      <trkpt lat="43.61968" lon="6.59948">
        <ele>771.9</ele>
        <time>2023-11-26T11:10:12Z</time>
      </trkpt>
      <trkpt lat="43.61968" lon="6.59948">
        <ele>771.9</ele>
        <time>2023-11-26T11:10:13Z</time>
      </trkpt>
      <trkpt lat="43.61968" lon="6.59948">
        <ele>771.9</ele>
        <time>2023-11-26T11:10:14Z</time>
      </trkpt>
      <trkpt lat="43.61968" lon="6.59948">
        <ele>771.8</ele>
        <time>2023-11-26T11:10:15Z</time>
      </trkpt>
      <trkpt lat="43.61967" lon="6.59948">
        <ele>771.7</ele>
        <time>2023-11-26T11:10:16Z</time>
      </trkpt>
      <trkpt lat="43.61967" lon="6.59947">
        <ele>771.7</ele>
        <time>2023-11-26T11:10:17Z</time>
      </trkpt>
      <trkpt lat="43.61967" lon="6.59948">
        <ele>771.7</ele>
        <time>2023-11-26T11:10:18Z</time>
      </trkpt>
      <trkpt lat="43.61968" lon="6.59948">
        <ele>771.7</ele>
        <time>2023-11-26T11:10:19Z</time>
      </trkpt>
      <trkpt lat="43.61968" lon="6.59948">
        <ele>771.7</ele>
        <time>2023-11-26T11:10:20Z</time>
      </trkpt>
      <trkpt lat="43.61967" lon="6.59948">
        <ele>771.8</ele>
        <time>2023-11-26T11:10:21Z</time>
      </trkpt>
      <trkpt lat="43.61967" lon="6.59948">
        <ele>771.8</ele>
        <time>2023-11-26T11:10:22Z</time>
      </trkpt>
      <trkpt lat="43.61967" lon="6.59948">
        <ele>771.8</ele>
        <time>2023-11-26T11:10:23Z</time>
      </trkpt>
      <trkpt lat="43.61967" lon="6.59948">
        <ele>771.8</ele>
        <time>2023-11-26T11:10:24Z</time>
      </trkpt>
      <trkpt lat="43.61967" lon="6.59948">
        <ele>771.9</ele>
        <time>2023-11-26T11:10:25Z</time>
      </trkpt>
      <trkpt lat="43.61967" lon="6.59948">
        <ele>771.9</ele>
        <time>2023-11-26T11:10:26Z</time>
      </trkpt>
      <trkpt lat="43.61967" lon="6.59948">
        <ele>771.9</ele>
        <time>2023-11-26T11:10:27Z</time>
      </trkpt>
      <trkpt lat="43.61967" lon="6.59948">
        <ele>771.9</ele>
        <time>2023-11-26T11:10:28Z</time>
      </trkpt>
      <trkpt lat="43.61967" lon="6.59948">
        <ele>771.9</ele>
        <time>2023-11-26T11:10:29Z</time>
      </trkpt>
      <trkpt lat="43.61967" lon="6.59948">
        <ele>771.9</ele>
        <time>2023-11-26T11:10:30Z</time>
      </trkpt>
      <trkpt lat="43.61967" lon="6.59948">
        <ele>771.9</ele>
        <time>2023-11-26T11:10:31Z</time>
      </trkpt>
      <trkpt lat="43.61967" lon="6.59948">
        <ele>771.9</ele>
        <time>2023-11-26T11:10:32Z</time>
      </trkpt>
      <trkpt lat="43.61968" lon="6.59948">
        <ele>771.9</ele>
        <time>2023-11-26T11:10:33Z</time>
      </trkpt>
      <trkpt lat="43.61968" lon="6.59948">
        <ele>772</ele>
        <time>2023-11-26T11:10:34Z</time>
      </trkpt>
      <trkpt lat="43.61968" lon="6.59948">
        <ele>772.1</ele>
        <time>2023-11-26T11:10:35Z</time>
      </trkpt>
      <trkpt lat="43.61968" lon="6.59948">
        <ele>772.2</ele>
        <time>2023-11-26T11:10:36Z</time>
      </trkpt>
      <trkpt lat="43.61968" lon="6.59948">
        <ele>772.1</ele>
        <time>2023-11-26T11:10:37Z</time>
      </trkpt>
      <trkpt lat="43.61968" lon="6.59948">
        <ele>772.1</ele>
        <time>2023-11-26T11:10:38Z</time>
      </trkpt>
      <trkpt lat="43.61968" lon="6.59948">
        <ele>772.2</ele>
        <time>2023-11-26T11:10:39Z</time>
      </trkpt>
      <trkpt lat="43.61968" lon="6.59948">
        <ele>772.2</ele>
        <time>2023-11-26T11:10:40Z</time>
      </trkpt>
      <trkpt lat="43.61968" lon="6.59949">
        <ele>772.2</ele>
        <time>2023-11-26T11:10:41Z</time>
      </trkpt>
      <trkpt lat="43.61968" lon="6.59949">
        <ele>772.1</ele>
        <time>2023-11-26T11:10:42Z</time>
      </trkpt>
      <trkpt lat="43.61968" lon="6.59949">
        <ele>772.1</ele>
        <time>2023-11-26T11:10:43Z</time>
      </trkpt>
      <trkpt lat="43.61968" lon="6.59949">
        <ele>772.1</ele>
        <time>2023-11-26T11:10:44Z</time>
      </trkpt>
      <trkpt lat="43.61968" lon="6.59949">
        <ele>772.1</ele>
        <time>2023-11-26T11:10:45Z</time>
      </trkpt>
      <trkpt lat="43.61968" lon="6.59949">
        <ele>772.1</ele>
        <time>2023-11-26T11:10:46Z</time>
      </trkpt>
      <trkpt lat="43.61968" lon="6.59949">
        <ele>772.1</ele>
        <time>2023-11-26T11:10:47Z</time>
      </trkpt>
      <trkpt lat="43.61968" lon="6.59949">
        <ele>772.2</ele>
        <time>2023-11-26T11:10:48Z</time>
      </trkpt>
      <trkpt lat="43.61969" lon="6.59949">
        <ele>772.2</ele>
        <time>2023-11-26T11:10:49Z</time>
      </trkpt>
      <trkpt lat="43.61969" lon="6.59949">
        <ele>772.2</ele>
        <time>2023-11-26T11:10:50Z</time>
      </trkpt>
      <trkpt lat="43.61969" lon="6.59949">
        <ele>772.2</ele>
        <time>2023-11-26T11:10:51Z</time>
      </trkpt>
      <trkpt lat="43.61969" lon="6.59949">
        <ele>772.2</ele>
        <time>2023-11-26T11:10:52Z</time>
      </trkpt>
      <trkpt lat="43.61969" lon="6.59949">
        <ele>772.2</ele>
        <time>2023-11-26T11:10:53Z</time>
      </trkpt>
      <trkpt lat="43.61969" lon="6.59949">
        <ele>772.1</ele>
        <time>2023-11-26T11:10:54Z</time>
      </trkpt>
      <trkpt lat="43.61969" lon="6.59948">
        <ele>772.1</ele>
        <time>2023-11-26T11:10:55Z</time>
      </trkpt>
      <trkpt lat="43.61969" lon="6.59949">
        <ele>772.1</ele>
        <time>2023-11-26T11:10:56Z</time>
      </trkpt>
      <trkpt lat="43.61969" lon="6.59948">
        <ele>772.1</ele>
        <time>2023-11-26T11:10:57Z</time>
      </trkpt>
      <trkpt lat="43.61969" lon="6.59948">
        <ele>772.1</ele>
        <time>2023-11-26T11:10:58Z</time>
      </trkpt>
      <trkpt lat="43.61969" lon="6.59948">
        <ele>772.1</ele>
        <time>2023-11-26T11:10:59Z</time>
      </trkpt>
      <trkpt lat="43.61969" lon="6.59948">
        <ele>772.1</ele>
        <time>2023-11-26T11:11:00Z</time>
      </trkpt>
      <trkpt lat="43.6197" lon="6.59948">
        <ele>772.1</ele>
        <time>2023-11-26T11:11:01Z</time>
      </trkpt>
      <trkpt lat="43.6197" lon="6.59948">
        <ele>772.2</ele>
        <time>2023-11-26T11:11:02Z</time>
      </trkpt>
      <trkpt lat="43.6197" lon="6.59948">
        <ele>772.3</ele>
        <time>2023-11-26T11:11:03Z</time>
      </trkpt>
      <trkpt lat="43.6197" lon="6.59948">
        <ele>772.3</ele>
        <time>2023-11-26T11:11:04Z</time>
      </trkpt>
      <trkpt lat="43.6197" lon="6.59948">
        <ele>772.3</ele>
        <time>2023-11-26T11:11:05Z</time>
      </trkpt>
      <trkpt lat="43.6197" lon="6.59948">
        <ele>772.5</ele>
        <time>2023-11-26T11:11:06Z</time>
      </trkpt>
      <trkpt lat="43.6197" lon="6.59949">
        <ele>772.4</ele>
        <time>2023-11-26T11:11:07Z</time>
      </trkpt>
      <trkpt lat="43.6197" lon="6.59949">
        <ele>772.4</ele>
        <time>2023-11-26T11:11:08Z</time>
      </trkpt>
      <trkpt lat="43.6197" lon="6.59949">
        <ele>772.4</ele>
        <time>2023-11-26T11:11:09Z</time>
      </trkpt>
      <trkpt lat="43.6197" lon="6.59949">
        <ele>772.4</ele>
        <time>2023-11-26T11:11:10Z</time>
      </trkpt>
      <trkpt lat="43.61969" lon="6.59949">
        <ele>772.4</ele>
        <time>2023-11-26T11:11:11Z</time>
      </trkpt>
      <trkpt lat="43.61969" lon="6.59948">
        <ele>772.2</ele>
        <time>2023-11-26T11:11:12Z</time>
      </trkpt>
      <trkpt lat="43.61969" lon="6.59948">
        <ele>772.2</ele>
        <time>2023-11-26T11:11:13Z</time>
      </trkpt>
      <trkpt lat="43.61969" lon="6.59948">
        <ele>772.1</ele>
        <time>2023-11-26T11:11:14Z</time>
      </trkpt>
      <trkpt lat="43.61969" lon="6.59948">
        <ele>772.1</ele>
        <time>2023-11-26T11:11:15Z</time>
      </trkpt>
      <trkpt lat="43.61969" lon="6.59948">
        <ele>772.1</ele>
        <time>2023-11-26T11:11:16Z</time>
      </trkpt>
      <trkpt lat="43.61969" lon="6.59948">
        <ele>772.2</ele>
        <time>2023-11-26T11:11:17Z</time>
      </trkpt>
      <trkpt lat="43.61969" lon="6.59948">
        <ele>772.2</ele>
        <time>2023-11-26T11:11:18Z</time>
      </trkpt>
      <trkpt lat="43.61969" lon="6.59948">
        <ele>772.2</ele>
        <time>2023-11-26T11:11:19Z</time>
      </trkpt>
      <trkpt lat="43.61969" lon="6.59948">
        <ele>772.2</ele>
        <time>2023-11-26T11:11:20Z</time>
      </trkpt>
      <trkpt lat="43.61969" lon="6.59948">
        <ele>772.3</ele>
        <time>2023-11-26T11:11:21Z</time>
      </trkpt>
      <trkpt lat="43.61969" lon="6.59948">
        <ele>772.2</ele>
        <time>2023-11-26T11:11:22Z</time>
      </trkpt>
      <trkpt lat="43.61969" lon="6.59948">
        <ele>772.1</ele>
        <time>2023-11-26T11:11:23Z</time>
      </trkpt>
      <trkpt lat="43.61969" lon="6.59948">
        <ele>772.1</ele>
        <time>2023-11-26T11:11:24Z</time>
      </trkpt>
      <trkpt lat="43.61969" lon="6.59948">
        <ele>772.1</ele>
        <time>2023-11-26T11:11:25Z</time>
      </trkpt>
      <trkpt lat="43.61969" lon="6.59948">
        <ele>772.1</ele>
        <time>2023-11-26T11:11:26Z</time>
      </trkpt>
      <trkpt lat="43.61969" lon="6.59948">
        <ele>772.1</ele>
        <time>2023-11-26T11:11:27Z</time>
      </trkpt>
      <trkpt lat="43.61969" lon="6.59948">
        <ele>772.2</ele>
        <time>2023-11-26T11:11:28Z</time>
      </trkpt>
      <trkpt lat="43.61969" lon="6.59948">
        <ele>772.2</ele>
        <time>2023-11-26T11:11:29Z</time>
      </trkpt>
      <trkpt lat="43.61969" lon="6.59948">
        <ele>772.2</ele>
        <time>2023-11-26T11:11:30Z</time>
      </trkpt>
      <trkpt lat="43.61969" lon="6.59948">
        <ele>772.1</ele>
        <time>2023-11-26T11:11:31Z</time>
      </trkpt>
      <trkpt lat="43.61969" lon="6.59948">
        <ele>772.1</ele>
        <time>2023-11-26T11:11:32Z</time>
      </trkpt>
      <trkpt lat="43.61969" lon="6.59948">
        <ele>772.1</ele>
        <time>2023-11-26T11:11:33Z</time>
      </trkpt>
      <trkpt lat="43.61969" lon="6.59948">
        <ele>772</ele>
        <time>2023-11-26T11:11:34Z</time>
      </trkpt>
      <trkpt lat="43.61969" lon="6.59948">
        <ele>772</ele>
        <time>2023-11-26T11:11:35Z</time>
      </trkpt>
      <trkpt lat="43.61969" lon="6.59947">
        <ele>772</ele>
        <time>2023-11-26T11:11:36Z</time>
      </trkpt>
      <trkpt lat="43.61969" lon="6.59947">
        <ele>772</ele>
        <time>2023-11-26T11:11:37Z</time>
      </trkpt>
      <trkpt lat="43.61969" lon="6.59947">
        <ele>771.9</ele>
        <time>2023-11-26T11:11:38Z</time>
      </trkpt>
      <trkpt lat="43.61969" lon="6.59947">
        <ele>772</ele>
        <time>2023-11-26T11:11:39Z</time>
      </trkpt>
      <trkpt lat="43.6197" lon="6.59947">
        <ele>772</ele>
        <time>2023-11-26T11:11:40Z</time>
      </trkpt>
      <trkpt lat="43.61969" lon="6.59947">
        <ele>772</ele>
        <time>2023-11-26T11:11:41Z</time>
      </trkpt>
      <trkpt lat="43.61969" lon="6.59947">
        <ele>772.1</ele>
        <time>2023-11-26T11:11:42Z</time>
      </trkpt>
      <trkpt lat="43.61969" lon="6.59947">
        <ele>772.1</ele>
        <time>2023-11-26T11:11:43Z</time>
      </trkpt>
      <trkpt lat="43.61969" lon="6.59947">
        <ele>772.1</ele>
        <time>2023-11-26T11:11:44Z</time>
      </trkpt>
      <trkpt lat="43.61969" lon="6.59947">
        <ele>772.2</ele>
        <time>2023-11-26T11:11:45Z</time>
      </trkpt>
      <trkpt lat="43.61969" lon="6.59947">
        <ele>772.2</ele>
        <time>2023-11-26T11:11:46Z</time>
      </trkpt>
      <trkpt lat="43.61969" lon="6.59947">
        <ele>772.3</ele>
        <time>2023-11-26T11:11:47Z</time>
      </trkpt>
      <trkpt lat="43.61969" lon="6.59947">
        <ele>772.3</ele>
        <time>2023-11-26T11:11:48Z</time>
      </trkpt>
      <trkpt lat="43.61969" lon="6.59947">
        <ele>772.3</ele>
        <time>2023-11-26T11:11:49Z</time>
      </trkpt>
      <trkpt lat="43.61969" lon="6.59947">
        <ele>772.3</ele>
        <time>2023-11-26T11:11:50Z</time>
      </trkpt>
      <trkpt lat="43.61969" lon="6.59947">
        <ele>772.4</ele>
        <time>2023-11-26T11:11:51Z</time>
      </trkpt>
      <trkpt lat="43.61969" lon="6.59947">
        <ele>772.4</ele>
        <time>2023-11-26T11:11:52Z</time>
      </trkpt>
      <trkpt lat="43.61969" lon="6.59946">
        <ele>772.5</ele>
        <time>2023-11-26T11:11:53Z</time>
      </trkpt>
      <trkpt lat="43.61969" lon="6.59946">
        <ele>772.5</ele>
        <time>2023-11-26T11:11:54Z</time>
      </trkpt>
      <trkpt lat="43.61969" lon="6.59946">
        <ele>772.6</ele>
        <time>2023-11-26T11:11:55Z</time>
      </trkpt>
      <trkpt lat="43.61969" lon="6.59946">
        <ele>772.6</ele>
        <time>2023-11-26T11:11:56Z</time>
      </trkpt>
      <trkpt lat="43.61969" lon="6.59946">
        <ele>772.7</ele>
        <time>2023-11-26T11:11:57Z</time>
      </trkpt>
      <trkpt lat="43.61969" lon="6.59946">
        <ele>772.6</ele>
        <time>2023-11-26T11:11:58Z</time>
      </trkpt>
      <trkpt lat="43.61969" lon="6.59946">
        <ele>772.5</ele>
        <time>2023-11-26T11:11:59Z</time>
      </trkpt>
      <trkpt lat="43.61969" lon="6.59946">
        <ele>772.5</ele>
        <time>2023-11-26T11:12:00Z</time>
      </trkpt>
      <trkpt lat="43.61968" lon="6.59946">
        <ele>772.5</ele>
        <time>2023-11-26T11:12:01Z</time>
      </trkpt>
      <trkpt lat="43.61968" lon="6.59946">
        <ele>772.5</ele>
        <time>2023-11-26T11:12:02Z</time>
      </trkpt>
      <trkpt lat="43.61968" lon="6.59946">
        <ele>772.4</ele>
        <time>2023-11-26T11:12:03Z</time>
      </trkpt>
      <trkpt lat="43.61968" lon="6.59946">
        <ele>772.4</ele>
        <time>2023-11-26T11:12:04Z</time>
      </trkpt>
      <trkpt lat="43.61968" lon="6.59946">
        <ele>772.3</ele>
        <time>2023-11-26T11:12:05Z</time>
      </trkpt>
      <trkpt lat="43.61968" lon="6.59946">
        <ele>772.3</ele>
        <time>2023-11-26T11:12:06Z</time>
      </trkpt>
      <trkpt lat="43.61968" lon="6.59946">
        <ele>772.3</ele>
        <time>2023-11-26T11:12:07Z</time>
      </trkpt>
      <trkpt lat="43.61968" lon="6.59946">
        <ele>772.3</ele>
        <time>2023-11-26T11:12:08Z</time>
      </trkpt>
      <trkpt lat="43.61968" lon="6.59946">
        <ele>772.3</ele>
        <time>2023-11-26T11:12:09Z</time>
      </trkpt>
      <trkpt lat="43.61968" lon="6.59946">
        <ele>772.3</ele>
        <time>2023-11-26T11:12:10Z</time>
      </trkpt>
      <trkpt lat="43.61968" lon="6.59946">
        <ele>772.3</ele>
        <time>2023-11-26T11:12:11Z</time>
      </trkpt>
      <trkpt lat="43.61968" lon="6.59946">
        <ele>772.3</ele>
        <time>2023-11-26T11:12:12Z</time>
      </trkpt>
      <trkpt lat="43.61968" lon="6.59946">
        <ele>772.4</ele>
        <time>2023-11-26T11:12:13Z</time>
      </trkpt>
      <trkpt lat="43.61968" lon="6.59946">
        <ele>772.4</ele>
        <time>2023-11-26T11:12:14Z</time>
      </trkpt>
      <trkpt lat="43.61968" lon="6.59946">
        <ele>772.4</ele>
        <time>2023-11-26T11:12:15Z</time>
      </trkpt>
      <trkpt lat="43.61968" lon="6.59946">
        <ele>772.4</ele>
        <time>2023-11-26T11:12:16Z</time>
      </trkpt>
      <trkpt lat="43.61968" lon="6.59945">
        <ele>772.4</ele>
        <time>2023-11-26T11:12:17Z</time>
      </trkpt>
      <trkpt lat="43.61968" lon="6.59945">
        <ele>772.4</ele>
        <time>2023-11-26T11:12:18Z</time>
      </trkpt>
      <trkpt lat="43.61968" lon="6.59945">
        <ele>772.4</ele>
        <time>2023-11-26T11:12:19Z</time>
      </trkpt>
      <trkpt lat="43.61968" lon="6.59945">
        <ele>772.4</ele>
        <time>2023-11-26T11:12:20Z</time>
      </trkpt>
      <trkpt lat="43.61968" lon="6.59945">
        <ele>772.3</ele>
        <time>2023-11-26T11:12:21Z</time>
      </trkpt>
      <trkpt lat="43.61968" lon="6.59945">
        <ele>772.3</ele>
        <time>2023-11-26T11:12:22Z</time>
      </trkpt>
      <trkpt lat="43.61968" lon="6.59945">
        <ele>772.2</ele>
        <time>2023-11-26T11:12:23Z</time>
      </trkpt>
      <trkpt lat="43.61968" lon="6.59945">
        <ele>772.2</ele>
        <time>2023-11-26T11:12:24Z</time>
      </trkpt>
      <trkpt lat="43.61968" lon="6.59945">
        <ele>772.1</ele>
        <time>2023-11-26T11:12:25Z</time>
      </trkpt>
      <trkpt lat="43.61968" lon="6.59945">
        <ele>772.1</ele>
        <time>2023-11-26T11:12:26Z</time>
      </trkpt>
      <trkpt lat="43.61968" lon="6.59945">
        <ele>772.1</ele>
        <time>2023-11-26T11:12:27Z</time>
      </trkpt>
      <trkpt lat="43.61968" lon="6.59945">
        <ele>772.1</ele>
        <time>2023-11-26T11:12:28Z</time>
      </trkpt>
      <trkpt lat="43.61968" lon="6.59945">
        <ele>772.1</ele>
        <time>2023-11-26T11:12:29Z</time>
      </trkpt>
      <trkpt lat="43.61968" lon="6.59944">
        <ele>772.1</ele>
        <time>2023-11-26T11:12:30Z</time>
      </trkpt>
      <trkpt lat="43.61968" lon="6.59944">
        <ele>772.1</ele>
        <time>2023-11-26T11:12:31Z</time>
      </trkpt>
      <trkpt lat="43.61968" lon="6.59944">
        <ele>772.1</ele>
        <time>2023-11-26T11:12:32Z</time>
      </trkpt>
      <trkpt lat="43.61968" lon="6.59944">
        <ele>772.1</ele>
        <time>2023-11-26T11:12:33Z</time>
      </trkpt>
      <trkpt lat="43.61969" lon="6.59944">
        <ele>772.1</ele>
        <time>2023-11-26T11:12:34Z</time>
      </trkpt>
      <trkpt lat="43.61969" lon="6.59944">
        <ele>772.2</ele>
        <time>2023-11-26T11:12:35Z</time>
      </trkpt>
      <trkpt lat="43.61969" lon="6.59944">
        <ele>772.3</ele>
        <time>2023-11-26T11:12:36Z</time>
      </trkpt>
      <trkpt lat="43.61969" lon="6.59944">
        <ele>772.3</ele>
        <time>2023-11-26T11:12:37Z</time>
      </trkpt>
      <trkpt lat="43.61969" lon="6.59944">
        <ele>772.3</ele>
        <time>2023-11-26T11:12:38Z</time>
      </trkpt>
      <trkpt lat="43.61969" lon="6.59944">
        <ele>772.4</ele>
        <time>2023-11-26T11:12:39Z</time>
      </trkpt>
      <trkpt lat="43.61969" lon="6.59944">
        <ele>772.5</ele>
        <time>2023-11-26T11:12:40Z</time>
      </trkpt>
      <trkpt lat="43.61969" lon="6.59944">
        <ele>772.5</ele>
        <time>2023-11-26T11:12:41Z</time>
      </trkpt>
      <trkpt lat="43.61969" lon="6.59944">
        <ele>772.6</ele>
        <time>2023-11-26T11:12:42Z</time>
      </trkpt>
      <trkpt lat="43.61969" lon="6.59944">
        <ele>772.5</ele>
        <time>2023-11-26T11:12:43Z</time>
      </trkpt>
      <trkpt lat="43.61969" lon="6.59944">
        <ele>772.5</ele>
        <time>2023-11-26T11:12:44Z</time>
      </trkpt>
      <trkpt lat="43.61969" lon="6.59944">
        <ele>772.5</ele>
        <time>2023-11-26T11:12:45Z</time>
      </trkpt>
      <trkpt lat="43.61969" lon="6.59944">
        <ele>772.6</ele>
        <time>2023-11-26T11:12:46Z</time>
      </trkpt>
      <trkpt lat="43.61969" lon="6.59944">
        <ele>772.7</ele>
        <time>2023-11-26T11:12:47Z</time>
      </trkpt>
      <trkpt lat="43.61969" lon="6.59944">
        <ele>772.6</ele>
        <time>2023-11-26T11:12:48Z</time>
      </trkpt>
      <trkpt lat="43.61968" lon="6.59944">
        <ele>772.6</ele>
        <time>2023-11-26T11:12:49Z</time>
      </trkpt>
      <trkpt lat="43.61968" lon="6.59944">
        <ele>772.7</ele>
        <time>2023-11-26T11:12:50Z</time>
      </trkpt>
      <trkpt lat="43.61968" lon="6.59944">
        <ele>772.8</ele>
        <time>2023-11-26T11:12:51Z</time>
      </trkpt>
      <trkpt lat="43.61968" lon="6.59944">
        <ele>772.8</ele>
        <time>2023-11-26T11:12:52Z</time>
      </trkpt>
      <trkpt lat="43.61968" lon="6.59944">
        <ele>772.7</ele>
        <time>2023-11-26T11:12:53Z</time>
      </trkpt>
      <trkpt lat="43.61968" lon="6.59945">
        <ele>772.6</ele>
        <time>2023-11-26T11:12:54Z</time>
      </trkpt>
      <trkpt lat="43.61968" lon="6.59945">
        <ele>772.5</ele>
        <time>2023-11-26T11:12:55Z</time>
      </trkpt>
      <trkpt lat="43.61968" lon="6.59945">
        <ele>772.5</ele>
        <time>2023-11-26T11:12:56Z</time>
      </trkpt>
      <trkpt lat="43.61968" lon="6.59945">
        <ele>772.4</ele>
        <time>2023-11-26T11:12:57Z</time>
      </trkpt>
      <trkpt lat="43.61968" lon="6.59945">
        <ele>772.3</ele>
        <time>2023-11-26T11:12:58Z</time>
      </trkpt>
      <trkpt lat="43.61968" lon="6.59945">
        <ele>772.2</ele>
        <time>2023-11-26T11:12:59Z</time>
      </trkpt>
      <trkpt lat="43.61968" lon="6.59945">
        <ele>772.2</ele>
        <time>2023-11-26T11:13:00Z</time>
      </trkpt>
      <trkpt lat="43.61968" lon="6.59945">
        <ele>772.1</ele>
        <time>2023-11-26T11:13:01Z</time>
      </trkpt>
      <trkpt lat="43.61968" lon="6.59945">
        <ele>772.2</ele>
        <time>2023-11-26T11:13:02Z</time>
      </trkpt>
      <trkpt lat="43.61968" lon="6.59945">
        <ele>772.2</ele>
        <time>2023-11-26T11:13:03Z</time>
      </trkpt>
      <trkpt lat="43.61968" lon="6.59945">
        <ele>772.2</ele>
        <time>2023-11-26T11:13:04Z</time>
      </trkpt>
      <trkpt lat="43.61968" lon="6.59945">
        <ele>772.2</ele>
        <time>2023-11-26T11:13:05Z</time>
      </trkpt>
      <trkpt lat="43.61968" lon="6.59945">
        <ele>772.2</ele>
        <time>2023-11-26T11:13:06Z</time>
      </trkpt>
      <trkpt lat="43.61968" lon="6.59945">
        <ele>772.2</ele>
        <time>2023-11-26T11:13:07Z</time>
      </trkpt>
      <trkpt lat="43.61968" lon="6.59945">
        <ele>772.2</ele>
        <time>2023-11-26T11:13:08Z</time>
      </trkpt>
      <trkpt lat="43.61968" lon="6.59946">
        <ele>772.2</ele>
        <time>2023-11-26T11:13:09Z</time>
      </trkpt>
      <trkpt lat="43.61968" lon="6.59946">
        <ele>772.3</ele>
        <time>2023-11-26T11:13:10Z</time>
      </trkpt>
      <trkpt lat="43.61968" lon="6.59946">
        <ele>772.4</ele>
        <time>2023-11-26T11:13:11Z</time>
      </trkpt>
      <trkpt lat="43.61968" lon="6.59946">
        <ele>772.4</ele>
        <time>2023-11-26T11:13:12Z</time>
      </trkpt>
      <trkpt lat="43.61968" lon="6.59946">
        <ele>772.4</ele>
        <time>2023-11-26T11:13:13Z</time>
      </trkpt>
      <trkpt lat="43.61968" lon="6.59946">
        <ele>772.5</ele>
        <time>2023-11-26T11:13:14Z</time>
      </trkpt>
      <trkpt lat="43.61968" lon="6.59946">
        <ele>772.5</ele>
        <time>2023-11-26T11:13:15Z</time>
      </trkpt>
      <trkpt lat="43.61968" lon="6.59946">
        <ele>772.6</ele>
        <time>2023-11-26T11:13:16Z</time>
      </trkpt>
      <trkpt lat="43.61968" lon="6.59946">
        <ele>772.5</ele>
        <time>2023-11-26T11:13:17Z</time>
      </trkpt>
      <trkpt lat="43.61968" lon="6.59945">
        <ele>772.5</ele>
        <time>2023-11-26T11:13:18Z</time>
      </trkpt>
      <trkpt lat="43.61968" lon="6.59945">
        <ele>772.6</ele>
        <time>2023-11-26T11:13:19Z</time>
      </trkpt>
      <trkpt lat="43.61968" lon="6.59945">
        <ele>772.5</ele>
        <time>2023-11-26T11:13:20Z</time>
      </trkpt>
      <trkpt lat="43.61968" lon="6.59945">
        <ele>772.4</ele>
        <time>2023-11-26T11:13:21Z</time>
      </trkpt>
      <trkpt lat="43.61968" lon="6.59945">
        <ele>772.4</ele>
        <time>2023-11-26T11:13:22Z</time>
      </trkpt>
      <trkpt lat="43.61968" lon="6.59945">
        <ele>772.4</ele>
        <time>2023-11-26T11:13:23Z</time>
      </trkpt>
      <trkpt lat="43.61968" lon="6.59946">
        <ele>772.4</ele>
        <time>2023-11-26T11:13:24Z</time>
      </trkpt>
      <trkpt lat="43.61968" lon="6.59946">
        <ele>772.4</ele>
        <time>2023-11-26T11:13:25Z</time>
      </trkpt>
      <trkpt lat="43.61968" lon="6.59946">
        <ele>772.4</ele>
        <time>2023-11-26T11:13:26Z</time>
      </trkpt>
      <trkpt lat="43.61968" lon="6.59946">
        <ele>772.3</ele>
        <time>2023-11-26T11:13:27Z</time>
      </trkpt>
      <trkpt lat="43.61968" lon="6.59946">
        <ele>772.3</ele>
        <time>2023-11-26T11:13:28Z</time>
      </trkpt>
      <trkpt lat="43.61968" lon="6.59946">
        <ele>772.2</ele>
        <time>2023-11-26T11:13:29Z</time>
      </trkpt>
      <trkpt lat="43.61968" lon="6.59946">
        <ele>772.2</ele>
        <time>2023-11-26T11:13:30Z</time>
      </trkpt>
      <trkpt lat="43.61968" lon="6.59946">
        <ele>772.2</ele>
        <time>2023-11-26T11:13:31Z</time>
      </trkpt>
      <trkpt lat="43.61968" lon="6.59946">
        <ele>772.2</ele>
        <time>2023-11-26T11:13:32Z</time>
      </trkpt>
      <trkpt lat="43.61968" lon="6.59946">
        <ele>772.1</ele>
        <time>2023-11-26T11:13:33Z</time>
      </trkpt>
      <trkpt lat="43.61968" lon="6.59946">
        <ele>772.1</ele>
        <time>2023-11-26T11:13:34Z</time>
      </trkpt>
      <trkpt lat="43.61969" lon="6.59946">
        <ele>772.1</ele>
        <time>2023-11-26T11:13:35Z</time>
      </trkpt>
      <trkpt lat="43.61969" lon="6.59946">
        <ele>772.1</ele>
        <time>2023-11-26T11:13:36Z</time>
      </trkpt>
      <trkpt lat="43.61969" lon="6.59946">
        <ele>772.1</ele>
        <time>2023-11-26T11:13:37Z</time>
      </trkpt>
      <trkpt lat="43.61969" lon="6.59946">
        <ele>772.1</ele>
        <time>2023-11-26T11:13:38Z</time>
      </trkpt>
      <trkpt lat="43.61969" lon="6.59946">
        <ele>772.1</ele>
        <time>2023-11-26T11:13:39Z</time>
      </trkpt>
      <trkpt lat="43.61969" lon="6.59946">
        <ele>772.1</ele>
        <time>2023-11-26T11:13:40Z</time>
      </trkpt>
      <trkpt lat="43.61969" lon="6.59946">
        <ele>772.1</ele>
        <time>2023-11-26T11:13:41Z</time>
      </trkpt>
      <trkpt lat="43.61969" lon="6.59946">
        <ele>772.1</ele>
        <time>2023-11-26T11:13:42Z</time>
      </trkpt>
      <trkpt lat="43.61969" lon="6.59946">
        <ele>772.1</ele>
        <time>2023-11-26T11:13:43Z</time>
      </trkpt>
      <trkpt lat="43.61969" lon="6.59946">
        <ele>772.1</ele>
        <time>2023-11-26T11:13:44Z</time>
      </trkpt>
      <trkpt lat="43.61969" lon="6.59946">
        <ele>772.1</ele>
        <time>2023-11-26T11:13:45Z</time>
      </trkpt>
      <trkpt lat="43.61969" lon="6.59946">
        <ele>772.1</ele>
        <time>2023-11-26T11:13:46Z</time>
      </trkpt>
      <trkpt lat="43.61969" lon="6.59946">
        <ele>772.1</ele>
        <time>2023-11-26T11:13:47Z</time>
      </trkpt>
      <trkpt lat="43.61969" lon="6.59946">
        <ele>772.1</ele>
        <time>2023-11-26T11:13:48Z</time>
      </trkpt>
      <trkpt lat="43.61969" lon="6.59946">
        <ele>772.2</ele>
        <time>2023-11-26T11:13:49Z</time>
      </trkpt>
      <trkpt lat="43.61969" lon="6.59946">
        <ele>772.2</ele>
        <time>2023-11-26T11:13:50Z</time>
      </trkpt>
      <trkpt lat="43.61969" lon="6.59946">
        <ele>772.2</ele>
        <time>2023-11-26T11:13:51Z</time>
      </trkpt>
      <trkpt lat="43.61969" lon="6.59946">
        <ele>772.2</ele>
        <time>2023-11-26T11:13:52Z</time>
      </trkpt>
      <trkpt lat="43.6197" lon="6.59946">
        <ele>772.1</ele>
        <time>2023-11-26T11:13:53Z</time>
      </trkpt>
      <trkpt lat="43.6197" lon="6.59946">
        <ele>772.1</ele>
        <time>2023-11-26T11:13:54Z</time>
      </trkpt>
      <trkpt lat="43.6197" lon="6.59946">
        <ele>772.2</ele>
        <time>2023-11-26T11:13:55Z</time>
      </trkpt>
      <trkpt lat="43.6197" lon="6.59946">
        <ele>772.4</ele>
        <time>2023-11-26T11:13:56Z</time>
      </trkpt>
      <trkpt lat="43.6197" lon="6.59946">
        <ele>772.3</ele>
        <time>2023-11-26T11:13:57Z</time>
      </trkpt>
      <trkpt lat="43.6197" lon="6.59946">
        <ele>772.3</ele>
        <time>2023-11-26T11:13:58Z</time>
      </trkpt>
      <trkpt lat="43.6197" lon="6.59947">
        <ele>772.4</ele>
        <time>2023-11-26T11:13:59Z</time>
      </trkpt>
      <trkpt lat="43.6197" lon="6.59947">
        <ele>772.4</ele>
        <time>2023-11-26T11:14:00Z</time>
      </trkpt>
      <trkpt lat="43.6197" lon="6.59947">
        <ele>772.5</ele>
        <time>2023-11-26T11:14:01Z</time>
      </trkpt>
      <trkpt lat="43.6197" lon="6.59947">
        <ele>772.5</ele>
        <time>2023-11-26T11:14:02Z</time>
      </trkpt>
      <trkpt lat="43.6197" lon="6.59947">
        <ele>772.5</ele>
        <time>2023-11-26T11:14:03Z</time>
      </trkpt>
      <trkpt lat="43.6197" lon="6.59947">
        <ele>772.4</ele>
        <time>2023-11-26T11:14:04Z</time>
      </trkpt>
      <trkpt lat="43.6197" lon="6.59946">
        <ele>772.5</ele>
        <time>2023-11-26T11:14:05Z</time>
      </trkpt>
      <trkpt lat="43.6197" lon="6.59946">
        <ele>772.5</ele>
        <time>2023-11-26T11:14:06Z</time>
      </trkpt>
      <trkpt lat="43.6197" lon="6.59946">
        <ele>772.6</ele>
        <time>2023-11-26T11:14:07Z</time>
      </trkpt>
      <trkpt lat="43.6197" lon="6.59946">
        <ele>772.6</ele>
        <time>2023-11-26T11:14:08Z</time>
      </trkpt>
      <trkpt lat="43.6197" lon="6.59946">
        <ele>772.6</ele>
        <time>2023-11-26T11:14:09Z</time>
      </trkpt>
      <trkpt lat="43.6197" lon="6.59946">
        <ele>772.5</ele>
        <time>2023-11-26T11:14:10Z</time>
      </trkpt>
      <trkpt lat="43.6197" lon="6.59946">
        <ele>772.5</ele>
        <time>2023-11-26T11:14:11Z</time>
      </trkpt>
      <trkpt lat="43.6197" lon="6.59946">
        <ele>772.5</ele>
        <time>2023-11-26T11:14:12Z</time>
      </trkpt>
      <trkpt lat="43.6197" lon="6.59946">
        <ele>772.5</ele>
        <time>2023-11-26T11:14:13Z</time>
      </trkpt>
      <trkpt lat="43.6197" lon="6.59946">
        <ele>772.5</ele>
        <time>2023-11-26T11:14:14Z</time>
      </trkpt>
      <trkpt lat="43.6197" lon="6.59946">
        <ele>772.5</ele>
        <time>2023-11-26T11:14:15Z</time>
      </trkpt>
      <trkpt lat="43.6197" lon="6.59946">
        <ele>772.5</ele>
        <time>2023-11-26T11:14:16Z</time>
      </trkpt>
      <trkpt lat="43.6197" lon="6.59946">
        <ele>772.6</ele>
        <time>2023-11-26T11:14:17Z</time>
      </trkpt>
      <trkpt lat="43.6197" lon="6.59946">
        <ele>772.6</ele>
        <time>2023-11-26T11:14:18Z</time>
      </trkpt>
      <trkpt lat="43.6197" lon="6.59946">
        <ele>772.6</ele>
        <time>2023-11-26T11:14:19Z</time>
      </trkpt>
      <trkpt lat="43.6197" lon="6.59946">
        <ele>772.7</ele>
        <time>2023-11-26T11:14:20Z</time>
      </trkpt>
      <trkpt lat="43.6197" lon="6.59946">
        <ele>772.7</ele>
        <time>2023-11-26T11:14:21Z</time>
      </trkpt>
      <trkpt lat="43.61971" lon="6.59946">
        <ele>772.8</ele>
        <time>2023-11-26T11:14:22Z</time>
      </trkpt>
      <trkpt lat="43.61971" lon="6.59946">
        <ele>772.8</ele>
        <time>2023-11-26T11:14:23Z</time>
      </trkpt>
      <trkpt lat="43.61971" lon="6.59946">
        <ele>772.8</ele>
        <time>2023-11-26T11:14:24Z</time>
      </trkpt>
      <trkpt lat="43.61971" lon="6.59946">
        <ele>772.8</ele>
        <time>2023-11-26T11:14:25Z</time>
      </trkpt>
      <trkpt lat="43.61971" lon="6.59946">
        <ele>772.8</ele>
        <time>2023-11-26T11:14:26Z</time>
      </trkpt>
      <trkpt lat="43.61971" lon="6.59946">
        <ele>772.8</ele>
        <time>2023-11-26T11:14:27Z</time>
      </trkpt>
      <trkpt lat="43.61971" lon="6.59946">
        <ele>772.8</ele>
        <time>2023-11-26T11:14:28Z</time>
      </trkpt>
      <trkpt lat="43.61971" lon="6.59946">
        <ele>772.8</ele>
        <time>2023-11-26T11:14:29Z</time>
      </trkpt>
      <trkpt lat="43.61971" lon="6.59946">
        <ele>772.8</ele>
        <time>2023-11-26T11:14:30Z</time>
      </trkpt>
      <trkpt lat="43.61971" lon="6.59946">
        <ele>772.8</ele>
        <time>2023-11-26T11:14:31Z</time>
      </trkpt>
      <trkpt lat="43.61971" lon="6.59946">
        <ele>772.8</ele>
        <time>2023-11-26T11:14:32Z</time>
      </trkpt>
      <trkpt lat="43.61971" lon="6.59946">
        <ele>772.8</ele>
        <time>2023-11-26T11:14:33Z</time>
      </trkpt>
      <trkpt lat="43.61971" lon="6.59946">
        <ele>772.7</ele>
        <time>2023-11-26T11:14:34Z</time>
      </trkpt>
      <trkpt lat="43.61971" lon="6.59946">
        <ele>772.7</ele>
        <time>2023-11-26T11:14:35Z</time>
      </trkpt>
      <trkpt lat="43.61971" lon="6.59946">
        <ele>772.7</ele>
        <time>2023-11-26T11:14:36Z</time>
      </trkpt>
      <trkpt lat="43.61971" lon="6.59946">
        <ele>772.8</ele>
        <time>2023-11-26T11:14:37Z</time>
      </trkpt>
      <trkpt lat="43.61971" lon="6.59946">
        <ele>772.8</ele>
        <time>2023-11-26T11:14:38Z</time>
      </trkpt>
      <trkpt lat="43.61971" lon="6.59946">
        <ele>772.8</ele>
        <time>2023-11-26T11:14:39Z</time>
      </trkpt>
      <trkpt lat="43.61971" lon="6.59945">
        <ele>772.7</ele>
        <time>2023-11-26T11:14:40Z</time>
      </trkpt>
      <trkpt lat="43.61971" lon="6.59945">
        <ele>772.8</ele>
        <time>2023-11-26T11:14:41Z</time>
      </trkpt>
      <trkpt lat="43.61971" lon="6.59945">
        <ele>772.8</ele>
        <time>2023-11-26T11:14:42Z</time>
      </trkpt>
      <trkpt lat="43.61971" lon="6.59945">
        <ele>772.8</ele>
        <time>2023-11-26T11:14:43Z</time>
      </trkpt>
      <trkpt lat="43.61971" lon="6.59945">
        <ele>772.7</ele>
        <time>2023-11-26T11:14:44Z</time>
      </trkpt>
      <trkpt lat="43.61971" lon="6.59945">
        <ele>772.7</ele>
        <time>2023-11-26T11:14:45Z</time>
      </trkpt>
      <trkpt lat="43.61971" lon="6.59945">
        <ele>772.7</ele>
        <time>2023-11-26T11:14:46Z</time>
      </trkpt>
      <trkpt lat="43.61971" lon="6.59945">
        <ele>772.7</ele>
        <time>2023-11-26T11:14:47Z</time>
      </trkpt>
      <trkpt lat="43.61971" lon="6.59945">
        <ele>772.7</ele>
        <time>2023-11-26T11:14:48Z</time>
      </trkpt>
      <trkpt lat="43.61971" lon="6.59945">
        <ele>772.6</ele>
        <time>2023-11-26T11:14:49Z</time>
      </trkpt>
      <trkpt lat="43.61971" lon="6.59945">
        <ele>772.6</ele>
        <time>2023-11-26T11:14:50Z</time>
      </trkpt>
      <trkpt lat="43.61971" lon="6.59945">
        <ele>772.6</ele>
        <time>2023-11-26T11:14:51Z</time>
      </trkpt>
      <trkpt lat="43.61971" lon="6.59945">
        <ele>772.6</ele>
        <time>2023-11-26T11:14:52Z</time>
      </trkpt>
      <trkpt lat="43.61971" lon="6.59945">
        <ele>772.6</ele>
        <time>2023-11-26T11:14:53Z</time>
      </trkpt>
      <trkpt lat="43.61971" lon="6.59945">
        <ele>772.6</ele>
        <time>2023-11-26T11:14:54Z</time>
      </trkpt>
      <trkpt lat="43.61971" lon="6.59945">
        <ele>772.6</ele>
        <time>2023-11-26T11:14:55Z</time>
      </trkpt>
      <trkpt lat="43.61971" lon="6.59945">
        <ele>772.7</ele>
        <time>2023-11-26T11:14:56Z</time>
      </trkpt>
      <trkpt lat="43.61971" lon="6.59945">
        <ele>772.8</ele>
        <time>2023-11-26T11:14:57Z</time>
      </trkpt>
      <trkpt lat="43.61971" lon="6.59945">
        <ele>772.8</ele>
        <time>2023-11-26T11:14:58Z</time>
      </trkpt>
      <trkpt lat="43.61972" lon="6.59945">
        <ele>772.8</ele>
        <time>2023-11-26T11:14:59Z</time>
      </trkpt>
      <trkpt lat="43.61971" lon="6.59945">
        <ele>772.8</ele>
        <time>2023-11-26T11:15:00Z</time>
      </trkpt>
      <trkpt lat="43.61971" lon="6.59945">
        <ele>772.8</ele>
        <time>2023-11-26T11:15:01Z</time>
      </trkpt>
      <trkpt lat="43.61971" lon="6.59945">
        <ele>772.8</ele>
        <time>2023-11-26T11:15:02Z</time>
      </trkpt>
      <trkpt lat="43.61971" lon="6.59945">
        <ele>772.7</ele>
        <time>2023-11-26T11:15:03Z</time>
      </trkpt>
      <trkpt lat="43.61971" lon="6.59945">
        <ele>772.8</ele>
        <time>2023-11-26T11:15:04Z</time>
      </trkpt>
      <trkpt lat="43.61971" lon="6.59945">
        <ele>772.8</ele>
        <time>2023-11-26T11:15:05Z</time>
      </trkpt>
      <trkpt lat="43.61971" lon="6.59945">
        <ele>772.9</ele>
        <time>2023-11-26T11:15:06Z</time>
      </trkpt>
      <trkpt lat="43.61971" lon="6.59945">
        <ele>772.8</ele>
        <time>2023-11-26T11:15:07Z</time>
      </trkpt>
      <trkpt lat="43.61971" lon="6.59945">
        <ele>772.8</ele>
        <time>2023-11-26T11:15:08Z</time>
      </trkpt>
      <trkpt lat="43.61971" lon="6.59945">
        <ele>772.8</ele>
        <time>2023-11-26T11:15:09Z</time>
      </trkpt>
      <trkpt lat="43.61971" lon="6.59945">
        <ele>772.7</ele>
        <time>2023-11-26T11:15:10Z</time>
      </trkpt>
      <trkpt lat="43.61971" lon="6.59945">
        <ele>772.7</ele>
        <time>2023-11-26T11:15:11Z</time>
      </trkpt>
      <trkpt lat="43.61971" lon="6.59946">
        <ele>772.7</ele>
        <time>2023-11-26T11:15:12Z</time>
      </trkpt>
      <trkpt lat="43.61971" lon="6.59946">
        <ele>772.7</ele>
        <time>2023-11-26T11:15:13Z</time>
      </trkpt>
      <trkpt lat="43.61971" lon="6.59946">
        <ele>772.7</ele>
        <time>2023-11-26T11:15:14Z</time>
      </trkpt>
      <trkpt lat="43.6197" lon="6.59946">
        <ele>772.7</ele>
        <time>2023-11-26T11:15:15Z</time>
      </trkpt>
      <trkpt lat="43.6197" lon="6.59946">
        <ele>772.6</ele>
        <time>2023-11-26T11:15:16Z</time>
      </trkpt>
      <trkpt lat="43.6197" lon="6.59946">
        <ele>772.6</ele>
        <time>2023-11-26T11:15:17Z</time>
      </trkpt>
      <trkpt lat="43.6197" lon="6.59946">
        <ele>772.6</ele>
        <time>2023-11-26T11:15:18Z</time>
      </trkpt>
      <trkpt lat="43.6197" lon="6.59946">
        <ele>772.7</ele>
        <time>2023-11-26T11:15:19Z</time>
      </trkpt>
      <trkpt lat="43.6197" lon="6.59946">
        <ele>772.7</ele>
        <time>2023-11-26T11:15:20Z</time>
      </trkpt>
      <trkpt lat="43.6197" lon="6.59946">
        <ele>772.7</ele>
        <time>2023-11-26T11:15:21Z</time>
      </trkpt>
      <trkpt lat="43.6197" lon="6.59946">
        <ele>772.8</ele>
        <time>2023-11-26T11:15:22Z</time>
      </trkpt>
      <trkpt lat="43.6197" lon="6.59947">
        <ele>772.8</ele>
        <time>2023-11-26T11:15:23Z</time>
      </trkpt>
      <trkpt lat="43.6197" lon="6.59947">
        <ele>772.9</ele>
        <time>2023-11-26T11:15:24Z</time>
      </trkpt>
      <trkpt lat="43.6197" lon="6.59947">
        <ele>772.9</ele>
        <time>2023-11-26T11:15:25Z</time>
      </trkpt>
      <trkpt lat="43.6197" lon="6.59946">
        <ele>772.9</ele>
        <time>2023-11-26T11:15:26Z</time>
      </trkpt>
      <trkpt lat="43.6197" lon="6.59947">
        <ele>773</ele>
        <time>2023-11-26T11:15:27Z</time>
      </trkpt>
      <trkpt lat="43.6197" lon="6.59947">
        <ele>773</ele>
        <time>2023-11-26T11:15:28Z</time>
      </trkpt>
      <trkpt lat="43.6197" lon="6.59947">
        <ele>773.1</ele>
        <time>2023-11-26T11:15:29Z</time>
      </trkpt>
      <trkpt lat="43.6197" lon="6.59946">
        <ele>773.1</ele>
        <time>2023-11-26T11:15:30Z</time>
      </trkpt>
      <trkpt lat="43.6197" lon="6.59946">
        <ele>773.1</ele>
        <time>2023-11-26T11:15:31Z</time>
      </trkpt>
      <trkpt lat="43.6197" lon="6.59947">
        <ele>773.1</ele>
        <time>2023-11-26T11:15:32Z</time>
      </trkpt>
      <trkpt lat="43.6197" lon="6.59946">
        <ele>773.1</ele>
        <time>2023-11-26T11:15:33Z</time>
      </trkpt>
      <trkpt lat="43.6197" lon="6.59946">
        <ele>773.1</ele>
        <time>2023-11-26T11:15:34Z</time>
      </trkpt>
      <trkpt lat="43.6197" lon="6.59947">
        <ele>773.1</ele>
        <time>2023-11-26T11:15:35Z</time>
      </trkpt>
      <trkpt lat="43.6197" lon="6.59947">
        <ele>773.1</ele>
        <time>2023-11-26T11:15:36Z</time>
      </trkpt>
      <trkpt lat="43.6197" lon="6.59947">
        <ele>773.1</ele>
        <time>2023-11-26T11:15:37Z</time>
      </trkpt>
      <trkpt lat="43.6197" lon="6.59947">
        <ele>773</ele>
        <time>2023-11-26T11:15:38Z</time>
      </trkpt>
      <trkpt lat="43.6197" lon="6.59947">
        <ele>773</ele>
        <time>2023-11-26T11:15:39Z</time>
      </trkpt>
      <trkpt lat="43.6197" lon="6.59947">
        <ele>773</ele>
        <time>2023-11-26T11:15:40Z</time>
      </trkpt>
      <trkpt lat="43.6197" lon="6.59947">
        <ele>773</ele>
        <time>2023-11-26T11:15:41Z</time>
      </trkpt>
      <trkpt lat="43.6197" lon="6.59947">
        <ele>773.1</ele>
        <time>2023-11-26T11:15:42Z</time>
      </trkpt>
      <trkpt lat="43.6197" lon="6.59947">
        <ele>773.1</ele>
        <time>2023-11-26T11:15:43Z</time>
      </trkpt>
      <trkpt lat="43.6197" lon="6.59947">
        <ele>773</ele>
        <time>2023-11-26T11:15:44Z</time>
      </trkpt>
      <trkpt lat="43.6197" lon="6.59947">
        <ele>772.9</ele>
        <time>2023-11-26T11:15:45Z</time>
      </trkpt>
      <trkpt lat="43.6197" lon="6.59947">
        <ele>772.9</ele>
        <time>2023-11-26T11:15:46Z</time>
      </trkpt>
      <trkpt lat="43.6197" lon="6.59947">
        <ele>772.9</ele>
        <time>2023-11-26T11:15:47Z</time>
      </trkpt>
      <trkpt lat="43.61969" lon="6.59947">
        <ele>773</ele>
        <time>2023-11-26T11:15:48Z</time>
      </trkpt>
      <trkpt lat="43.61969" lon="6.59947">
        <ele>773</ele>
        <time>2023-11-26T11:15:49Z</time>
      </trkpt>
      <trkpt lat="43.61969" lon="6.59947">
        <ele>773.1</ele>
        <time>2023-11-26T11:15:50Z</time>
      </trkpt>
      <trkpt lat="43.61969" lon="6.59947">
        <ele>773.1</ele>
        <time>2023-11-26T11:15:51Z</time>
      </trkpt>
      <trkpt lat="43.61969" lon="6.59947">
        <ele>773.1</ele>
        <time>2023-11-26T11:15:52Z</time>
      </trkpt>
      <trkpt lat="43.61969" lon="6.59947">
        <ele>773</ele>
        <time>2023-11-26T11:15:53Z</time>
      </trkpt>
      <trkpt lat="43.61969" lon="6.59947">
        <ele>773</ele>
        <time>2023-11-26T11:15:54Z</time>
      </trkpt>
      <trkpt lat="43.61969" lon="6.59947">
        <ele>773</ele>
        <time>2023-11-26T11:15:55Z</time>
      </trkpt>
      <trkpt lat="43.61969" lon="6.59947">
        <ele>773</ele>
        <time>2023-11-26T11:15:56Z</time>
      </trkpt>
      <trkpt lat="43.61969" lon="6.59948">
        <ele>773.1</ele>
        <time>2023-11-26T11:15:57Z</time>
      </trkpt>
      <trkpt lat="43.61969" lon="6.59948">
        <ele>773</ele>
        <time>2023-11-26T11:15:58Z</time>
      </trkpt>
      <trkpt lat="43.61969" lon="6.59948">
        <ele>773</ele>
        <time>2023-11-26T11:15:59Z</time>
      </trkpt>
      <trkpt lat="43.61969" lon="6.59948">
        <ele>773</ele>
        <time>2023-11-26T11:16:00Z</time>
      </trkpt>
      <trkpt lat="43.61969" lon="6.59947">
        <ele>773</ele>
        <time>2023-11-26T11:16:01Z</time>
      </trkpt>
      <trkpt lat="43.61969" lon="6.59947">
        <ele>773</ele>
        <time>2023-11-26T11:16:02Z</time>
      </trkpt>
      <trkpt lat="43.61969" lon="6.59947">
        <ele>773</ele>
        <time>2023-11-26T11:16:03Z</time>
      </trkpt>
      <trkpt lat="43.61968" lon="6.59947">
        <ele>772.9</ele>
        <time>2023-11-26T11:16:04Z</time>
      </trkpt>
      <trkpt lat="43.61969" lon="6.59947">
        <ele>773</ele>
        <time>2023-11-26T11:16:05Z</time>
      </trkpt>
      <trkpt lat="43.61969" lon="6.59947">
        <ele>772.9</ele>
        <time>2023-11-26T11:16:06Z</time>
      </trkpt>
      <trkpt lat="43.61969" lon="6.59947">
        <ele>772.8</ele>
        <time>2023-11-26T11:16:07Z</time>
      </trkpt>
      <trkpt lat="43.61969" lon="6.59947">
        <ele>772.8</ele>
        <time>2023-11-26T11:16:08Z</time>
      </trkpt>
      <trkpt lat="43.61969" lon="6.59947">
        <ele>772.8</ele>
        <time>2023-11-26T11:16:09Z</time>
      </trkpt>
      <trkpt lat="43.61969" lon="6.59947">
        <ele>772.8</ele>
        <time>2023-11-26T11:16:10Z</time>
      </trkpt>
      <trkpt lat="43.61969" lon="6.59947">
        <ele>773</ele>
        <time>2023-11-26T11:16:11Z</time>
      </trkpt>
      <trkpt lat="43.61969" lon="6.59947">
        <ele>773</ele>
        <time>2023-11-26T11:16:12Z</time>
      </trkpt>
      <trkpt lat="43.61969" lon="6.59946">
        <ele>773.1</ele>
        <time>2023-11-26T11:16:13Z</time>
      </trkpt>
      <trkpt lat="43.61969" lon="6.59946">
        <ele>773.1</ele>
        <time>2023-11-26T11:16:14Z</time>
      </trkpt>
      <trkpt lat="43.61969" lon="6.59946">
        <ele>773.1</ele>
        <time>2023-11-26T11:16:15Z</time>
      </trkpt>
      <trkpt lat="43.61969" lon="6.59947">
        <ele>773.2</ele>
        <time>2023-11-26T11:16:16Z</time>
      </trkpt>
      <trkpt lat="43.61969" lon="6.59947">
        <ele>773.2</ele>
        <time>2023-11-26T11:16:17Z</time>
      </trkpt>
      <trkpt lat="43.61969" lon="6.59947">
        <ele>773.3</ele>
        <time>2023-11-26T11:16:18Z</time>
      </trkpt>
      <trkpt lat="43.61969" lon="6.59947">
        <ele>773.3</ele>
        <time>2023-11-26T11:16:19Z</time>
      </trkpt>
      <trkpt lat="43.61969" lon="6.59947">
        <ele>773.3</ele>
        <time>2023-11-26T11:16:20Z</time>
      </trkpt>
      <trkpt lat="43.61968" lon="6.59947">
        <ele>773.2</ele>
        <time>2023-11-26T11:16:21Z</time>
      </trkpt>
      <trkpt lat="43.61969" lon="6.59947">
        <ele>773.2</ele>
        <time>2023-11-26T11:16:22Z</time>
      </trkpt>
      <trkpt lat="43.61969" lon="6.59947">
        <ele>773</ele>
        <time>2023-11-26T11:16:23Z</time>
      </trkpt>
      <trkpt lat="43.61969" lon="6.59946">
        <ele>772.9</ele>
        <time>2023-11-26T11:16:24Z</time>
      </trkpt>
      <trkpt lat="43.61969" lon="6.59946">
        <ele>772.9</ele>
        <time>2023-11-26T11:16:25Z</time>
      </trkpt>
      <trkpt lat="43.61969" lon="6.59946">
        <ele>772.8</ele>
        <time>2023-11-26T11:16:26Z</time>
      </trkpt>
      <trkpt lat="43.61969" lon="6.59946">
        <ele>772.7</ele>
        <time>2023-11-26T11:16:27Z</time>
      </trkpt>
      <trkpt lat="43.61969" lon="6.59946">
        <ele>772.8</ele>
        <time>2023-11-26T11:16:28Z</time>
      </trkpt>
      <trkpt lat="43.61969" lon="6.59946">
        <ele>772.7</ele>
        <time>2023-11-26T11:16:29Z</time>
      </trkpt>
      <trkpt lat="43.61969" lon="6.59946">
        <ele>772.8</ele>
        <time>2023-11-26T11:16:30Z</time>
      </trkpt>
      <trkpt lat="43.61969" lon="6.59946">
        <ele>772.9</ele>
        <time>2023-11-26T11:16:31Z</time>
      </trkpt>
      <trkpt lat="43.61969" lon="6.59946">
        <ele>772.8</ele>
        <time>2023-11-26T11:16:32Z</time>
      </trkpt>
      <trkpt lat="43.6197" lon="6.59946">
        <ele>772.7</ele>
        <time>2023-11-26T11:16:33Z</time>
      </trkpt>
      <trkpt lat="43.6197" lon="6.59946">
        <ele>772.7</ele>
        <time>2023-11-26T11:16:34Z</time>
      </trkpt>
      <trkpt lat="43.6197" lon="6.59946">
        <ele>772.6</ele>
        <time>2023-11-26T11:16:35Z</time>
      </trkpt>
      <trkpt lat="43.6197" lon="6.59946">
        <ele>772.5</ele>
        <time>2023-11-26T11:16:36Z</time>
      </trkpt>
      <trkpt lat="43.6197" lon="6.59946">
        <ele>772.5</ele>
        <time>2023-11-26T11:16:37Z</time>
      </trkpt>
      <trkpt lat="43.6197" lon="6.59946">
        <ele>772.5</ele>
        <time>2023-11-26T11:16:38Z</time>
      </trkpt>
      <trkpt lat="43.6197" lon="6.59946">
        <ele>772.5</ele>
        <time>2023-11-26T11:16:39Z</time>
      </trkpt>
      <trkpt lat="43.6197" lon="6.59946">
        <ele>772.6</ele>
        <time>2023-11-26T11:16:40Z</time>
      </trkpt>
      <trkpt lat="43.6197" lon="6.59946">
        <ele>772.6</ele>
        <time>2023-11-26T11:16:41Z</time>
      </trkpt>
      <trkpt lat="43.6197" lon="6.59946">
        <ele>772.6</ele>
        <time>2023-11-26T11:16:42Z</time>
      </trkpt>
      <trkpt lat="43.6197" lon="6.59946">
        <ele>772.6</ele>
        <time>2023-11-26T11:16:43Z</time>
      </trkpt>
      <trkpt lat="43.6197" lon="6.59946">
        <ele>772.6</ele>
        <time>2023-11-26T11:16:44Z</time>
      </trkpt>
      <trkpt lat="43.6197" lon="6.59946">
        <ele>772.6</ele>
        <time>2023-11-26T11:16:45Z</time>
      </trkpt>
      <trkpt lat="43.6197" lon="6.59946">
        <ele>772.6</ele>
        <time>2023-11-26T11:16:46Z</time>
      </trkpt>
      <trkpt lat="43.6197" lon="6.59946">
        <ele>772.6</ele>
        <time>2023-11-26T11:16:47Z</time>
      </trkpt>
      <trkpt lat="43.61971" lon="6.59946">
        <ele>772.7</ele>
        <time>2023-11-26T11:16:48Z</time>
      </trkpt>
      <trkpt lat="43.61971" lon="6.59946">
        <ele>772.8</ele>
        <time>2023-11-26T11:16:49Z</time>
      </trkpt>
      <trkpt lat="43.61971" lon="6.59946">
        <ele>772.8</ele>
        <time>2023-11-26T11:16:50Z</time>
      </trkpt>
      <trkpt lat="43.61971" lon="6.59946">
        <ele>772.8</ele>
        <time>2023-11-26T11:16:51Z</time>
      </trkpt>
      <trkpt lat="43.61971" lon="6.59946">
        <ele>772.8</ele>
        <time>2023-11-26T11:16:52Z</time>
      </trkpt>
      <trkpt lat="43.61971" lon="6.59946">
        <ele>772.7</ele>
        <time>2023-11-26T11:16:53Z</time>
      </trkpt>
      <trkpt lat="43.6197" lon="6.59946">
        <ele>772.7</ele>
        <time>2023-11-26T11:16:54Z</time>
      </trkpt>
      <trkpt lat="43.6197" lon="6.59947">
        <ele>772.7</ele>
        <time>2023-11-26T11:16:55Z</time>
      </trkpt>
      <trkpt lat="43.6197" lon="6.59947">
        <ele>772.7</ele>
        <time>2023-11-26T11:16:56Z</time>
      </trkpt>
      <trkpt lat="43.6197" lon="6.59947">
        <ele>772.6</ele>
        <time>2023-11-26T11:16:57Z</time>
      </trkpt>
      <trkpt lat="43.6197" lon="6.59947">
        <ele>772.6</ele>
        <time>2023-11-26T11:16:58Z</time>
      </trkpt>
      <trkpt lat="43.61969" lon="6.59947">
        <ele>772.6</ele>
        <time>2023-11-26T11:16:59Z</time>
      </trkpt>
      <trkpt lat="43.61969" lon="6.59947">
        <ele>772.6</ele>
        <time>2023-11-26T11:17:00Z</time>
      </trkpt>
      <trkpt lat="43.61969" lon="6.59948">
        <ele>772.5</ele>
        <time>2023-11-26T11:17:01Z</time>
      </trkpt>
      <trkpt lat="43.61969" lon="6.59948">
        <ele>772.5</ele>
        <time>2023-11-26T11:17:02Z</time>
      </trkpt>
      <trkpt lat="43.61969" lon="6.59948">
        <ele>772.5</ele>
        <time>2023-11-26T11:17:03Z</time>
      </trkpt>
      <trkpt lat="43.61968" lon="6.59948">
        <ele>772.4</ele>
        <time>2023-11-26T11:17:04Z</time>
      </trkpt>
      <trkpt lat="43.61968" lon="6.59948">
        <ele>772.5</ele>
        <time>2023-11-26T11:17:05Z</time>
      </trkpt>
      <trkpt lat="43.61968" lon="6.59948">
        <ele>772.4</ele>
        <time>2023-11-26T11:17:06Z</time>
      </trkpt>
      <trkpt lat="43.61968" lon="6.59948">
        <ele>772.4</ele>
        <time>2023-11-26T11:17:07Z</time>
      </trkpt>
      <trkpt lat="43.61968" lon="6.59948">
        <ele>772.4</ele>
        <time>2023-11-26T11:17:08Z</time>
      </trkpt>
      <trkpt lat="43.61968" lon="6.59948">
        <ele>772.4</ele>
        <time>2023-11-26T11:17:09Z</time>
      </trkpt>
      <trkpt lat="43.61968" lon="6.59948">
        <ele>772.4</ele>
        <time>2023-11-26T11:17:10Z</time>
      </trkpt>
      <trkpt lat="43.61968" lon="6.59948">
        <ele>772.4</ele>
        <time>2023-11-26T11:17:11Z</time>
      </trkpt>
      <trkpt lat="43.61968" lon="6.59948">
        <ele>772.4</ele>
        <time>2023-11-26T11:17:12Z</time>
      </trkpt>
      <trkpt lat="43.61968" lon="6.59948">
        <ele>772.4</ele>
        <time>2023-11-26T11:17:13Z</time>
      </trkpt>
      <trkpt lat="43.61968" lon="6.59948">
        <ele>772.4</ele>
        <time>2023-11-26T11:17:14Z</time>
      </trkpt>
      <trkpt lat="43.61968" lon="6.59949">
        <ele>772.4</ele>
        <time>2023-11-26T11:17:15Z</time>
      </trkpt>
      <trkpt lat="43.61968" lon="6.59949">
        <ele>772.4</ele>
        <time>2023-11-26T11:17:16Z</time>
      </trkpt>
      <trkpt lat="43.61968" lon="6.59949">
        <ele>772.4</ele>
        <time>2023-11-26T11:17:17Z</time>
      </trkpt>
      <trkpt lat="43.61968" lon="6.59949">
        <ele>772.5</ele>
        <time>2023-11-26T11:17:18Z</time>
      </trkpt>
      <trkpt lat="43.61969" lon="6.59949">
        <ele>772.6</ele>
        <time>2023-11-26T11:17:19Z</time>
      </trkpt>
      <trkpt lat="43.61969" lon="6.59949">
        <ele>772.7</ele>
        <time>2023-11-26T11:17:20Z</time>
      </trkpt>
      <trkpt lat="43.61969" lon="6.59949">
        <ele>772.7</ele>
        <time>2023-11-26T11:17:21Z</time>
      </trkpt>
      <trkpt lat="43.61969" lon="6.59949">
        <ele>772.7</ele>
        <time>2023-11-26T11:17:22Z</time>
      </trkpt>
      <trkpt lat="43.61969" lon="6.59949">
        <ele>772.8</ele>
        <time>2023-11-26T11:17:23Z</time>
      </trkpt>
      <trkpt lat="43.61968" lon="6.59949">
        <ele>772.7</ele>
        <time>2023-11-26T11:17:24Z</time>
      </trkpt>
      <trkpt lat="43.61968" lon="6.59949">
        <ele>772.6</ele>
        <time>2023-11-26T11:17:25Z</time>
      </trkpt>
      <trkpt lat="43.61968" lon="6.5995">
        <ele>772.6</ele>
        <time>2023-11-26T11:17:26Z</time>
      </trkpt>
      <trkpt lat="43.61968" lon="6.5995">
        <ele>772.6</ele>
        <time>2023-11-26T11:17:27Z</time>
      </trkpt>
      <trkpt lat="43.61968" lon="6.5995">
        <ele>772.6</ele>
        <time>2023-11-26T11:17:28Z</time>
      </trkpt>
      <trkpt lat="43.61968" lon="6.5995">
        <ele>772.7</ele>
        <time>2023-11-26T11:17:29Z</time>
      </trkpt>
      <trkpt lat="43.61968" lon="6.5995">
        <ele>772.7</ele>
        <time>2023-11-26T11:17:30Z</time>
      </trkpt>
      <trkpt lat="43.61968" lon="6.5995">
        <ele>772.7</ele>
        <time>2023-11-26T11:17:31Z</time>
      </trkpt>
      <trkpt lat="43.61968" lon="6.5995">
        <ele>772.7</ele>
        <time>2023-11-26T11:17:32Z</time>
      </trkpt>
      <trkpt lat="43.61968" lon="6.5995">
        <ele>772.7</ele>
        <time>2023-11-26T11:17:33Z</time>
      </trkpt>
      <trkpt lat="43.61968" lon="6.5995">
        <ele>772.6</ele>
        <time>2023-11-26T11:17:34Z</time>
      </trkpt>
      <trkpt lat="43.61968" lon="6.5995">
        <ele>772.7</ele>
        <time>2023-11-26T11:17:35Z</time>
      </trkpt>
      <trkpt lat="43.61968" lon="6.5995">
        <ele>772.7</ele>
        <time>2023-11-26T11:17:36Z</time>
      </trkpt>
      <trkpt lat="43.61968" lon="6.59949">
        <ele>772.7</ele>
        <time>2023-11-26T11:17:37Z</time>
      </trkpt>
      <trkpt lat="43.61968" lon="6.59949">
        <ele>772.7</ele>
        <time>2023-11-26T11:17:38Z</time>
      </trkpt>
      <trkpt lat="43.61968" lon="6.59949">
        <ele>772.8</ele>
        <time>2023-11-26T11:17:39Z</time>
      </trkpt>
      <trkpt lat="43.61968" lon="6.59949">
        <ele>772.8</ele>
        <time>2023-11-26T11:17:40Z</time>
      </trkpt>
      <trkpt lat="43.61968" lon="6.59949">
        <ele>772.8</ele>
        <time>2023-11-26T11:17:41Z</time>
      </trkpt>
      <trkpt lat="43.61968" lon="6.59949">
        <ele>772.9</ele>
        <time>2023-11-26T11:17:42Z</time>
      </trkpt>
      <trkpt lat="43.61968" lon="6.59949">
        <ele>772.8</ele>
        <time>2023-11-26T11:17:43Z</time>
      </trkpt>
      <trkpt lat="43.61969" lon="6.59949">
        <ele>772.9</ele>
        <time>2023-11-26T11:17:44Z</time>
      </trkpt>
      <trkpt lat="43.61968" lon="6.59949">
        <ele>772.9</ele>
        <time>2023-11-26T11:17:45Z</time>
      </trkpt>
      <trkpt lat="43.61969" lon="6.59948">
        <ele>772.9</ele>
        <time>2023-11-26T11:17:46Z</time>
      </trkpt>
      <trkpt lat="43.61969" lon="6.59948">
        <ele>772.9</ele>
        <time>2023-11-26T11:17:47Z</time>
      </trkpt>
      <trkpt lat="43.61968" lon="6.59949">
        <ele>772.8</ele>
        <time>2023-11-26T11:17:48Z</time>
      </trkpt>
      <trkpt lat="43.61968" lon="6.59949">
        <ele>772.8</ele>
        <time>2023-11-26T11:17:49Z</time>
      </trkpt>
      <trkpt lat="43.61968" lon="6.59949">
        <ele>772.8</ele>
        <time>2023-11-26T11:17:50Z</time>
      </trkpt>
      <trkpt lat="43.61968" lon="6.59949">
        <ele>772.7</ele>
        <time>2023-11-26T11:17:51Z</time>
      </trkpt>
      <trkpt lat="43.61968" lon="6.59949">
        <ele>772.7</ele>
        <time>2023-11-26T11:17:52Z</time>
      </trkpt>
      <trkpt lat="43.61968" lon="6.59949">
        <ele>772.6</ele>
        <time>2023-11-26T11:17:53Z</time>
      </trkpt>
      <trkpt lat="43.61968" lon="6.59949">
        <ele>772.6</ele>
        <time>2023-11-26T11:17:54Z</time>
      </trkpt>
      <trkpt lat="43.61968" lon="6.59949">
        <ele>772.5</ele>
        <time>2023-11-26T11:17:55Z</time>
      </trkpt>
      <trkpt lat="43.61968" lon="6.59949">
        <ele>772.5</ele>
        <time>2023-11-26T11:17:56Z</time>
      </trkpt>
      <trkpt lat="43.61968" lon="6.59949">
        <ele>772.5</ele>
        <time>2023-11-26T11:17:57Z</time>
      </trkpt>
      <trkpt lat="43.61968" lon="6.59949">
        <ele>772.5</ele>
        <time>2023-11-26T11:17:58Z</time>
      </trkpt>
      <trkpt lat="43.61968" lon="6.59949">
        <ele>772.6</ele>
        <time>2023-11-26T11:17:59Z</time>
      </trkpt>
      <trkpt lat="43.61968" lon="6.59949">
        <ele>772.6</ele>
        <time>2023-11-26T11:18:00Z</time>
      </trkpt>
      <trkpt lat="43.61968" lon="6.59949">
        <ele>772.6</ele>
        <time>2023-11-26T11:18:01Z</time>
      </trkpt>
      <trkpt lat="43.61968" lon="6.59949">
        <ele>772.6</ele>
        <time>2023-11-26T11:18:02Z</time>
      </trkpt>
      <trkpt lat="43.61968" lon="6.59949">
        <ele>772.6</ele>
        <time>2023-11-26T11:18:03Z</time>
      </trkpt>
      <trkpt lat="43.61968" lon="6.59949">
        <ele>772.5</ele>
        <time>2023-11-26T11:18:04Z</time>
      </trkpt>
      <trkpt lat="43.61968" lon="6.59948">
        <ele>772.5</ele>
        <time>2023-11-26T11:18:05Z</time>
      </trkpt>
      <trkpt lat="43.61968" lon="6.59949">
        <ele>772.6</ele>
        <time>2023-11-26T11:18:06Z</time>
      </trkpt>
      <trkpt lat="43.61968" lon="6.59949">
        <ele>772.7</ele>
        <time>2023-11-26T11:18:07Z</time>
      </trkpt>
      <trkpt lat="43.61968" lon="6.59949">
        <ele>772.6</ele>
        <time>2023-11-26T11:18:08Z</time>
      </trkpt>
      <trkpt lat="43.61968" lon="6.59949">
        <ele>772.6</ele>
        <time>2023-11-26T11:18:09Z</time>
      </trkpt>
      <trkpt lat="43.61968" lon="6.59949">
        <ele>772.6</ele>
        <time>2023-11-26T11:18:10Z</time>
      </trkpt>
      <trkpt lat="43.61968" lon="6.59949">
        <ele>772.6</ele>
        <time>2023-11-26T11:18:11Z</time>
      </trkpt>
      <trkpt lat="43.61968" lon="6.59949">
        <ele>772.6</ele>
        <time>2023-11-26T11:18:12Z</time>
      </trkpt>
      <trkpt lat="43.61968" lon="6.59949">
        <ele>772.6</ele>
        <time>2023-11-26T11:18:13Z</time>
      </trkpt>
      <trkpt lat="43.61968" lon="6.59949">
        <ele>772.6</ele>
        <time>2023-11-26T11:18:14Z</time>
      </trkpt>
      <trkpt lat="43.61968" lon="6.59949">
        <ele>772.6</ele>
        <time>2023-11-26T11:18:15Z</time>
      </trkpt>
      <trkpt lat="43.61968" lon="6.59949">
        <ele>772.5</ele>
        <time>2023-11-26T11:18:16Z</time>
      </trkpt>
      <trkpt lat="43.61968" lon="6.59949">
        <ele>772.5</ele>
        <time>2023-11-26T11:18:17Z</time>
      </trkpt>
      <trkpt lat="43.61968" lon="6.59949">
        <ele>772.5</ele>
        <time>2023-11-26T11:18:18Z</time>
      </trkpt>
      <trkpt lat="43.61968" lon="6.59949">
        <ele>772.5</ele>
        <time>2023-11-26T11:18:19Z</time>
      </trkpt>
      <trkpt lat="43.61968" lon="6.59949">
        <ele>772.5</ele>
        <time>2023-11-26T11:18:20Z</time>
      </trkpt>
      <trkpt lat="43.61968" lon="6.59949">
        <ele>772.4</ele>
        <time>2023-11-26T11:18:21Z</time>
      </trkpt>
      <trkpt lat="43.61968" lon="6.59949">
        <ele>772.4</ele>
        <time>2023-11-26T11:18:22Z</time>
      </trkpt>
      <trkpt lat="43.61968" lon="6.59949">
        <ele>772.5</ele>
        <time>2023-11-26T11:18:23Z</time>
      </trkpt>
      <trkpt lat="43.61968" lon="6.59949">
        <ele>772.5</ele>
        <time>2023-11-26T11:18:24Z</time>
      </trkpt>
      <trkpt lat="43.61968" lon="6.59949">
        <ele>772.6</ele>
        <time>2023-11-26T11:18:25Z</time>
      </trkpt>
      <trkpt lat="43.61968" lon="6.59949">
        <ele>772.6</ele>
        <time>2023-11-26T11:18:26Z</time>
      </trkpt>
      <trkpt lat="43.61968" lon="6.59949">
        <ele>772.6</ele>
        <time>2023-11-26T11:18:27Z</time>
      </trkpt>
      <trkpt lat="43.61968" lon="6.59949">
        <ele>772.7</ele>
        <time>2023-11-26T11:18:28Z</time>
      </trkpt>
      <trkpt lat="43.61968" lon="6.59949">
        <ele>772.7</ele>
        <time>2023-11-26T11:18:29Z</time>
      </trkpt>
      <trkpt lat="43.61968" lon="6.59949">
        <ele>772.7</ele>
        <time>2023-11-26T11:18:30Z</time>
      </trkpt>
      <trkpt lat="43.61968" lon="6.59948">
        <ele>772.9</ele>
        <time>2023-11-26T11:18:31Z</time>
      </trkpt>
      <trkpt lat="43.61968" lon="6.59948">
        <ele>772.8</ele>
        <time>2023-11-26T11:18:32Z</time>
      </trkpt>
      <trkpt lat="43.61969" lon="6.59948">
        <ele>772.8</ele>
        <time>2023-11-26T11:18:33Z</time>
      </trkpt>
      <trkpt lat="43.61969" lon="6.59948">
        <ele>772.8</ele>
        <time>2023-11-26T11:18:34Z</time>
      </trkpt>
      <trkpt lat="43.61969" lon="6.59948">
        <ele>772.9</ele>
        <time>2023-11-26T11:18:35Z</time>
      </trkpt>
      <trkpt lat="43.61969" lon="6.59948">
        <ele>772.9</ele>
        <time>2023-11-26T11:18:36Z</time>
      </trkpt>
      <trkpt lat="43.61969" lon="6.59948">
        <ele>772.9</ele>
        <time>2023-11-26T11:18:37Z</time>
      </trkpt>
      <trkpt lat="43.61969" lon="6.59948">
        <ele>772.8</ele>
        <time>2023-11-26T11:18:38Z</time>
      </trkpt>
      <trkpt lat="43.61969" lon="6.59948">
        <ele>772.7</ele>
        <time>2023-11-26T11:18:39Z</time>
      </trkpt>
      <trkpt lat="43.61969" lon="6.59948">
        <ele>772.6</ele>
        <time>2023-11-26T11:18:40Z</time>
      </trkpt>
      <trkpt lat="43.6197" lon="6.59948">
        <ele>772.6</ele>
        <time>2023-11-26T11:18:41Z</time>
      </trkpt>
      <trkpt lat="43.6197" lon="6.59948">
        <ele>772.5</ele>
        <time>2023-11-26T11:18:42Z</time>
      </trkpt>
      <trkpt lat="43.6197" lon="6.59948">
        <ele>772.4</ele>
        <time>2023-11-26T11:18:43Z</time>
      </trkpt>
      <trkpt lat="43.6197" lon="6.59948">
        <ele>772.4</ele>
        <time>2023-11-26T11:18:44Z</time>
      </trkpt>
      <trkpt lat="43.6197" lon="6.59948">
        <ele>772.3</ele>
        <time>2023-11-26T11:18:45Z</time>
      </trkpt>
      <trkpt lat="43.6197" lon="6.59948">
        <ele>772.3</ele>
        <time>2023-11-26T11:18:46Z</time>
      </trkpt>
      <trkpt lat="43.6197" lon="6.59948">
        <ele>772.3</ele>
        <time>2023-11-26T11:18:47Z</time>
      </trkpt>
      <trkpt lat="43.6197" lon="6.59947">
        <ele>772.4</ele>
        <time>2023-11-26T11:18:48Z</time>
      </trkpt>
      <trkpt lat="43.61971" lon="6.59948">
        <ele>772.4</ele>
        <time>2023-11-26T11:18:49Z</time>
      </trkpt>
      <trkpt lat="43.61971" lon="6.59948">
        <ele>772.5</ele>
        <time>2023-11-26T11:18:50Z</time>
      </trkpt>
      <trkpt lat="43.6197" lon="6.59948">
        <ele>772.5</ele>
        <time>2023-11-26T11:18:51Z</time>
      </trkpt>
      <trkpt lat="43.6197" lon="6.59947">
        <ele>772.5</ele>
        <time>2023-11-26T11:18:52Z</time>
      </trkpt>
      <trkpt lat="43.6197" lon="6.59948">
        <ele>772.6</ele>
        <time>2023-11-26T11:18:53Z</time>
      </trkpt>
      <trkpt lat="43.6197" lon="6.59948">
        <ele>772.7</ele>
        <time>2023-11-26T11:18:54Z</time>
      </trkpt>
      <trkpt lat="43.6197" lon="6.59948">
        <ele>772.6</ele>
        <time>2023-11-26T11:18:55Z</time>
      </trkpt>
      <trkpt lat="43.6197" lon="6.59948">
        <ele>772.6</ele>
        <time>2023-11-26T11:18:56Z</time>
      </trkpt>
      <trkpt lat="43.6197" lon="6.59948">
        <ele>772.6</ele>
        <time>2023-11-26T11:18:57Z</time>
      </trkpt>
      <trkpt lat="43.6197" lon="6.59948">
        <ele>772.7</ele>
        <time>2023-11-26T11:18:58Z</time>
      </trkpt>
      <trkpt lat="43.6197" lon="6.59948">
        <ele>772.6</ele>
        <time>2023-11-26T11:18:59Z</time>
      </trkpt>
      <trkpt lat="43.6197" lon="6.59949">
        <ele>772.7</ele>
        <time>2023-11-26T11:19:00Z</time>
      </trkpt>
      <trkpt lat="43.6197" lon="6.59949">
        <ele>772.8</ele>
        <time>2023-11-26T11:19:01Z</time>
      </trkpt>
      <trkpt lat="43.61969" lon="6.59949">
        <ele>772.7</ele>
        <time>2023-11-26T11:19:02Z</time>
      </trkpt>
      <trkpt lat="43.61969" lon="6.59949">
        <ele>772.6</ele>
        <time>2023-11-26T11:19:03Z</time>
      </trkpt>
      <trkpt lat="43.61969" lon="6.59949">
        <ele>772.6</ele>
        <time>2023-11-26T11:19:04Z</time>
      </trkpt>
      <trkpt lat="43.61969" lon="6.59949">
        <ele>772.5</ele>
        <time>2023-11-26T11:19:05Z</time>
      </trkpt>
      <trkpt lat="43.61969" lon="6.59948">
        <ele>772.5</ele>
        <time>2023-11-26T11:19:06Z</time>
      </trkpt>
      <trkpt lat="43.61969" lon="6.59948">
        <ele>772.5</ele>
        <time>2023-11-26T11:19:07Z</time>
      </trkpt>
      <trkpt lat="43.61969" lon="6.59948">
        <ele>772.6</ele>
        <time>2023-11-26T11:19:08Z</time>
      </trkpt>
      <trkpt lat="43.61969" lon="6.59948">
        <ele>772.6</ele>
        <time>2023-11-26T11:19:09Z</time>
      </trkpt>
      <trkpt lat="43.61969" lon="6.59948">
        <ele>772.6</ele>
        <time>2023-11-26T11:19:10Z</time>
      </trkpt>
      <trkpt lat="43.61969" lon="6.59948">
        <ele>772.5</ele>
        <time>2023-11-26T11:19:11Z</time>
      </trkpt>
      <trkpt lat="43.61969" lon="6.59948">
        <ele>772.5</ele>
        <time>2023-11-26T11:19:12Z</time>
      </trkpt>
      <trkpt lat="43.61969" lon="6.59948">
        <ele>772.5</ele>
        <time>2023-11-26T11:19:13Z</time>
      </trkpt>
      <trkpt lat="43.61969" lon="6.59948">
        <ele>772.5</ele>
        <time>2023-11-26T11:19:14Z</time>
      </trkpt>
      <trkpt lat="43.61969" lon="6.59948">
        <ele>772.5</ele>
        <time>2023-11-26T11:19:15Z</time>
      </trkpt>
      <trkpt lat="43.61969" lon="6.59947">
        <ele>772.5</ele>
        <time>2023-11-26T11:19:16Z</time>
      </trkpt>
      <trkpt lat="43.61969" lon="6.59947">
        <ele>772.5</ele>
        <time>2023-11-26T11:19:17Z</time>
      </trkpt>
      <trkpt lat="43.61969" lon="6.59947">
        <ele>772.5</ele>
        <time>2023-11-26T11:19:18Z</time>
      </trkpt>
      <trkpt lat="43.61969" lon="6.59947">
        <ele>772.5</ele>
        <time>2023-11-26T11:19:19Z</time>
      </trkpt>
      <trkpt lat="43.61969" lon="6.59947">
        <ele>772.6</ele>
        <time>2023-11-26T11:19:20Z</time>
      </trkpt>
      <trkpt lat="43.61969" lon="6.59947">
        <ele>772.6</ele>
        <time>2023-11-26T11:19:21Z</time>
      </trkpt>
      <trkpt lat="43.61969" lon="6.59947">
        <ele>772.7</ele>
        <time>2023-11-26T11:19:22Z</time>
      </trkpt>
      <trkpt lat="43.61969" lon="6.59947">
        <ele>772.7</ele>
        <time>2023-11-26T11:19:23Z</time>
      </trkpt>
      <trkpt lat="43.61968" lon="6.59947">
        <ele>772.7</ele>
        <time>2023-11-26T11:19:24Z</time>
      </trkpt>
      <trkpt lat="43.61968" lon="6.59947">
        <ele>772.6</ele>
        <time>2023-11-26T11:19:25Z</time>
      </trkpt>
      <trkpt lat="43.61968" lon="6.59946">
        <ele>772.6</ele>
        <time>2023-11-26T11:19:26Z</time>
      </trkpt>
      <trkpt lat="43.61969" lon="6.59946">
        <ele>772.6</ele>
        <time>2023-11-26T11:19:27Z</time>
      </trkpt>
      <trkpt lat="43.61969" lon="6.59947">
        <ele>772.6</ele>
        <time>2023-11-26T11:19:28Z</time>
      </trkpt>
      <trkpt lat="43.61969" lon="6.59947">
        <ele>772.7</ele>
        <time>2023-11-26T11:19:29Z</time>
      </trkpt>
      <trkpt lat="43.61969" lon="6.59947">
        <ele>772.6</ele>
        <time>2023-11-26T11:19:30Z</time>
      </trkpt>
      <trkpt lat="43.61969" lon="6.59947">
        <ele>772.6</ele>
        <time>2023-11-26T11:19:31Z</time>
      </trkpt>
      <trkpt lat="43.61969" lon="6.59947">
        <ele>772.5</ele>
        <time>2023-11-26T11:19:32Z</time>
      </trkpt>
      <trkpt lat="43.61969" lon="6.59946">
        <ele>772.5</ele>
        <time>2023-11-26T11:19:33Z</time>
      </trkpt>
      <trkpt lat="43.61969" lon="6.59946">
        <ele>772.4</ele>
        <time>2023-11-26T11:19:34Z</time>
      </trkpt>
      <trkpt lat="43.61969" lon="6.59946">
        <ele>772.4</ele>
        <time>2023-11-26T11:19:35Z</time>
      </trkpt>
      <trkpt lat="43.61969" lon="6.59947">
        <ele>772.5</ele>
        <time>2023-11-26T11:19:36Z</time>
      </trkpt>
      <trkpt lat="43.61969" lon="6.59947">
        <ele>772.4</ele>
        <time>2023-11-26T11:19:37Z</time>
      </trkpt>
      <trkpt lat="43.61969" lon="6.59947">
        <ele>772.4</ele>
        <time>2023-11-26T11:19:38Z</time>
      </trkpt>
      <trkpt lat="43.61969" lon="6.59947">
        <ele>772.3</ele>
        <time>2023-11-26T11:19:39Z</time>
      </trkpt>
      <trkpt lat="43.61969" lon="6.59947">
        <ele>772.3</ele>
        <time>2023-11-26T11:19:40Z</time>
      </trkpt>
      <trkpt lat="43.61969" lon="6.59947">
        <ele>772.3</ele>
        <time>2023-11-26T11:19:41Z</time>
      </trkpt>
      <trkpt lat="43.61969" lon="6.59947">
        <ele>772.4</ele>
        <time>2023-11-26T11:19:42Z</time>
      </trkpt>
      <trkpt lat="43.61969" lon="6.59947">
        <ele>772.4</ele>
        <time>2023-11-26T11:19:43Z</time>
      </trkpt>
      <trkpt lat="43.61969" lon="6.59947">
        <ele>772.4</ele>
        <time>2023-11-26T11:19:44Z</time>
      </trkpt>
      <trkpt lat="43.61969" lon="6.59947">
        <ele>772.4</ele>
        <time>2023-11-26T11:19:45Z</time>
      </trkpt>
      <trkpt lat="43.61969" lon="6.59947">
        <ele>772.4</ele>
        <time>2023-11-26T11:19:46Z</time>
      </trkpt>
      <trkpt lat="43.61969" lon="6.59947">
        <ele>772.4</ele>
        <time>2023-11-26T11:19:47Z</time>
      </trkpt>
      <trkpt lat="43.61969" lon="6.59947">
        <ele>772.3</ele>
        <time>2023-11-26T11:19:48Z</time>
      </trkpt>
      <trkpt lat="43.61969" lon="6.59947">
        <ele>772.3</ele>
        <time>2023-11-26T11:19:49Z</time>
      </trkpt>
      <trkpt lat="43.61969" lon="6.59947">
        <ele>772.3</ele>
        <time>2023-11-26T11:19:50Z</time>
      </trkpt>
      <trkpt lat="43.61969" lon="6.59947">
        <ele>772.2</ele>
        <time>2023-11-26T11:19:51Z</time>
      </trkpt>
      <trkpt lat="43.61969" lon="6.59947">
        <ele>772.2</ele>
        <time>2023-11-26T11:19:52Z</time>
      </trkpt>
      <trkpt lat="43.61969" lon="6.59947">
        <ele>772.3</ele>
        <time>2023-11-26T11:19:53Z</time>
      </trkpt>
      <trkpt lat="43.61968" lon="6.59947">
        <ele>772.2</ele>
        <time>2023-11-26T11:19:54Z</time>
      </trkpt>
      <trkpt lat="43.61968" lon="6.59947">
        <ele>772.2</ele>
        <time>2023-11-26T11:19:55Z</time>
      </trkpt>
      <trkpt lat="43.61968" lon="6.59947">
        <ele>772.2</ele>
        <time>2023-11-26T11:19:56Z</time>
      </trkpt>
      <trkpt lat="43.61968" lon="6.59947">
        <ele>772.1</ele>
        <time>2023-11-26T11:19:57Z</time>
      </trkpt>
      <trkpt lat="43.61968" lon="6.59947">
        <ele>772.1</ele>
        <time>2023-11-26T11:19:58Z</time>
      </trkpt>
      <trkpt lat="43.61969" lon="6.59947">
        <ele>772.1</ele>
        <time>2023-11-26T11:19:59Z</time>
      </trkpt>
      <trkpt lat="43.61969" lon="6.59947">
        <ele>772.2</ele>
        <time>2023-11-26T11:20:00Z</time>
      </trkpt>
      <trkpt lat="43.61969" lon="6.59947">
        <ele>772.2</ele>
        <time>2023-11-26T11:20:01Z</time>
      </trkpt>
      <trkpt lat="43.61969" lon="6.59946">
        <ele>772.2</ele>
        <time>2023-11-26T11:20:02Z</time>
      </trkpt>
      <trkpt lat="43.61968" lon="6.59946">
        <ele>772.2</ele>
        <time>2023-11-26T11:20:03Z</time>
      </trkpt>
      <trkpt lat="43.61969" lon="6.59946">
        <ele>772.2</ele>
        <time>2023-11-26T11:20:04Z</time>
      </trkpt>
      <trkpt lat="43.61969" lon="6.59946">
        <ele>772.2</ele>
        <time>2023-11-26T11:20:05Z</time>
      </trkpt>
      <trkpt lat="43.61969" lon="6.59947">
        <ele>772.1</ele>
        <time>2023-11-26T11:20:06Z</time>
      </trkpt>
      <trkpt lat="43.61968" lon="6.59947">
        <ele>772.1</ele>
        <time>2023-11-26T11:20:07Z</time>
      </trkpt>
      <trkpt lat="43.61968" lon="6.59947">
        <ele>772</ele>
        <time>2023-11-26T11:20:08Z</time>
      </trkpt>
      <trkpt lat="43.61968" lon="6.59947">
        <ele>771.9</ele>
        <time>2023-11-26T11:20:09Z</time>
      </trkpt>
      <trkpt lat="43.61968" lon="6.59947">
        <ele>771.9</ele>
        <time>2023-11-26T11:20:10Z</time>
      </trkpt>
      <trkpt lat="43.61968" lon="6.59947">
        <ele>771.9</ele>
        <time>2023-11-26T11:20:11Z</time>
      </trkpt>
      <trkpt lat="43.61968" lon="6.59947">
        <ele>772</ele>
        <time>2023-11-26T11:20:12Z</time>
      </trkpt>
      <trkpt lat="43.61968" lon="6.59947">
        <ele>772</ele>
        <time>2023-11-26T11:20:13Z</time>
      </trkpt>
      <trkpt lat="43.61968" lon="6.59947">
        <ele>772</ele>
        <time>2023-11-26T11:20:14Z</time>
      </trkpt>
      <trkpt lat="43.61968" lon="6.59947">
        <ele>772</ele>
        <time>2023-11-26T11:20:15Z</time>
      </trkpt>
      <trkpt lat="43.61968" lon="6.59947">
        <ele>772</ele>
        <time>2023-11-26T11:20:16Z</time>
      </trkpt>
      <trkpt lat="43.61968" lon="6.59947">
        <ele>772.1</ele>
        <time>2023-11-26T11:20:17Z</time>
      </trkpt>
      <trkpt lat="43.61968" lon="6.59947">
        <ele>772</ele>
        <time>2023-11-26T11:20:18Z</time>
      </trkpt>
      <trkpt lat="43.61967" lon="6.59947">
        <ele>772</ele>
        <time>2023-11-26T11:20:19Z</time>
      </trkpt>
      <trkpt lat="43.61968" lon="6.59948">
        <ele>771.9</ele>
        <time>2023-11-26T11:20:20Z</time>
      </trkpt>
      <trkpt lat="43.61967" lon="6.59948">
        <ele>771.9</ele>
        <time>2023-11-26T11:20:21Z</time>
      </trkpt>
      <trkpt lat="43.61968" lon="6.59948">
        <ele>771.9</ele>
        <time>2023-11-26T11:20:22Z</time>
      </trkpt>
      <trkpt lat="43.61968" lon="6.59948">
        <ele>771.7</ele>
        <time>2023-11-26T11:20:23Z</time>
      </trkpt>
      <trkpt lat="43.61967" lon="6.59948">
        <ele>771.7</ele>
        <time>2023-11-26T11:20:24Z</time>
      </trkpt>
      <trkpt lat="43.61967" lon="6.59948">
        <ele>771.6</ele>
        <time>2023-11-26T11:20:25Z</time>
      </trkpt>
      <trkpt lat="43.61967" lon="6.59948">
        <ele>771.7</ele>
        <time>2023-11-26T11:20:26Z</time>
      </trkpt>
      <trkpt lat="43.61967" lon="6.59948">
        <ele>771.7</ele>
        <time>2023-11-26T11:20:27Z</time>
      </trkpt>
      <trkpt lat="43.61967" lon="6.59948">
        <ele>771.7</ele>
        <time>2023-11-26T11:20:28Z</time>
      </trkpt>
      <trkpt lat="43.61967" lon="6.59948">
        <ele>771.7</ele>
        <time>2023-11-26T11:20:29Z</time>
      </trkpt>
      <trkpt lat="43.61967" lon="6.59948">
        <ele>771.7</ele>
        <time>2023-11-26T11:20:30Z</time>
      </trkpt>
      <trkpt lat="43.61967" lon="6.59948">
        <ele>771.7</ele>
        <time>2023-11-26T11:20:31Z</time>
      </trkpt>
      <trkpt lat="43.61968" lon="6.59948">
        <ele>771.7</ele>
        <time>2023-11-26T11:20:32Z</time>
      </trkpt>
      <trkpt lat="43.61968" lon="6.59948">
        <ele>771.8</ele>
        <time>2023-11-26T11:20:33Z</time>
      </trkpt>
      <trkpt lat="43.61967" lon="6.59948">
        <ele>771.9</ele>
        <time>2023-11-26T11:20:34Z</time>
      </trkpt>
      <trkpt lat="43.61967" lon="6.59947">
        <ele>771.9</ele>
        <time>2023-11-26T11:20:35Z</time>
      </trkpt>
      <trkpt lat="43.61967" lon="6.59947">
        <ele>771.9</ele>
        <time>2023-11-26T11:20:36Z</time>
      </trkpt>
      <trkpt lat="43.61967" lon="6.59947">
        <ele>772</ele>
        <time>2023-11-26T11:20:37Z</time>
      </trkpt>
      <trkpt lat="43.61967" lon="6.59947">
        <ele>772.1</ele>
        <time>2023-11-26T11:20:38Z</time>
      </trkpt>
      <trkpt lat="43.61967" lon="6.59947">
        <ele>772.1</ele>
        <time>2023-11-26T11:20:39Z</time>
      </trkpt>
      <trkpt lat="43.61967" lon="6.59947">
        <ele>772.1</ele>
        <time>2023-11-26T11:20:40Z</time>
      </trkpt>
      <trkpt lat="43.61967" lon="6.59946">
        <ele>772.1</ele>
        <time>2023-11-26T11:20:41Z</time>
      </trkpt>
      <trkpt lat="43.61967" lon="6.59946">
        <ele>772.2</ele>
        <time>2023-11-26T11:20:42Z</time>
      </trkpt>
      <trkpt lat="43.61967" lon="6.59946">
        <ele>772.2</ele>
        <time>2023-11-26T11:20:43Z</time>
      </trkpt>
      <trkpt lat="43.61967" lon="6.59946">
        <ele>772.2</ele>
        <time>2023-11-26T11:20:44Z</time>
      </trkpt>
      <trkpt lat="43.61967" lon="6.59946">
        <ele>772.1</ele>
        <time>2023-11-26T11:20:45Z</time>
      </trkpt>
      <trkpt lat="43.61967" lon="6.59946">
        <ele>772.2</ele>
        <time>2023-11-26T11:20:46Z</time>
      </trkpt>
      <trkpt lat="43.61967" lon="6.59946">
        <ele>772.3</ele>
        <time>2023-11-26T11:20:47Z</time>
      </trkpt>
      <trkpt lat="43.61967" lon="6.59946">
        <ele>772.4</ele>
        <time>2023-11-26T11:20:48Z</time>
      </trkpt>
      <trkpt lat="43.61967" lon="6.59946">
        <ele>772.3</ele>
        <time>2023-11-26T11:20:49Z</time>
      </trkpt>
      <trkpt lat="43.61967" lon="6.59946">
        <ele>772.3</ele>
        <time>2023-11-26T11:20:50Z</time>
      </trkpt>
      <trkpt lat="43.61967" lon="6.59946">
        <ele>772.3</ele>
        <time>2023-11-26T11:20:51Z</time>
      </trkpt>
      <trkpt lat="43.61967" lon="6.59945">
        <ele>772.3</ele>
        <time>2023-11-26T11:20:52Z</time>
      </trkpt>
      <trkpt lat="43.61967" lon="6.59945">
        <ele>772.3</ele>
        <time>2023-11-26T11:20:53Z</time>
      </trkpt>
      <trkpt lat="43.61966" lon="6.59945">
        <ele>772.3</ele>
        <time>2023-11-26T11:20:54Z</time>
      </trkpt>
      <trkpt lat="43.61966" lon="6.59945">
        <ele>772.3</ele>
        <time>2023-11-26T11:20:55Z</time>
      </trkpt>
      <trkpt lat="43.61966" lon="6.59945">
        <ele>772.4</ele>
        <time>2023-11-26T11:20:56Z</time>
      </trkpt>
      <trkpt lat="43.61966" lon="6.59945">
        <ele>772.5</ele>
        <time>2023-11-26T11:20:57Z</time>
      </trkpt>
      <trkpt lat="43.61966" lon="6.59945">
        <ele>772.5</ele>
        <time>2023-11-26T11:20:58Z</time>
      </trkpt>
      <trkpt lat="43.61966" lon="6.59945">
        <ele>772.5</ele>
        <time>2023-11-26T11:20:59Z</time>
      </trkpt>
      <trkpt lat="43.61966" lon="6.59945">
        <ele>772.5</ele>
        <time>2023-11-26T11:21:00Z</time>
      </trkpt>
      <trkpt lat="43.61966" lon="6.59945">
        <ele>772.6</ele>
        <time>2023-11-26T11:21:01Z</time>
      </trkpt>
      <trkpt lat="43.61966" lon="6.59945">
        <ele>772.5</ele>
        <time>2023-11-26T11:21:02Z</time>
      </trkpt>
      <trkpt lat="43.61966" lon="6.59945">
        <ele>772.5</ele>
        <time>2023-11-26T11:21:03Z</time>
      </trkpt>
      <trkpt lat="43.61966" lon="6.59945">
        <ele>772.5</ele>
        <time>2023-11-26T11:21:04Z</time>
      </trkpt>
      <trkpt lat="43.61966" lon="6.59945">
        <ele>772.5</ele>
        <time>2023-11-26T11:21:05Z</time>
      </trkpt>
      <trkpt lat="43.61966" lon="6.59945">
        <ele>772.5</ele>
        <time>2023-11-26T11:21:06Z</time>
      </trkpt>
      <trkpt lat="43.61966" lon="6.59945">
        <ele>772.4</ele>
        <time>2023-11-26T11:21:07Z</time>
      </trkpt>
      <trkpt lat="43.61966" lon="6.59945">
        <ele>772.4</ele>
        <time>2023-11-26T11:21:08Z</time>
      </trkpt>
      <trkpt lat="43.61966" lon="6.59945">
        <ele>772.3</ele>
        <time>2023-11-26T11:21:09Z</time>
      </trkpt>
      <trkpt lat="43.61966" lon="6.59945">
        <ele>772.3</ele>
        <time>2023-11-26T11:21:10Z</time>
      </trkpt>
      <trkpt lat="43.61966" lon="6.59945">
        <ele>772.3</ele>
        <time>2023-11-26T11:21:11Z</time>
      </trkpt>
      <trkpt lat="43.61966" lon="6.59945">
        <ele>772.2</ele>
        <time>2023-11-26T11:21:12Z</time>
      </trkpt>
      <trkpt lat="43.61967" lon="6.59945">
        <ele>772.2</ele>
        <time>2023-11-26T11:21:13Z</time>
      </trkpt>
      <trkpt lat="43.61967" lon="6.59945">
        <ele>772.2</ele>
        <time>2023-11-26T11:21:14Z</time>
      </trkpt>
      <trkpt lat="43.61967" lon="6.59945">
        <ele>772.2</ele>
        <time>2023-11-26T11:21:15Z</time>
      </trkpt>
      <trkpt lat="43.61966" lon="6.59945">
        <ele>772.2</ele>
        <time>2023-11-26T11:21:16Z</time>
      </trkpt>
      <trkpt lat="43.61967" lon="6.59946">
        <ele>772.2</ele>
        <time>2023-11-26T11:21:17Z</time>
      </trkpt>
      <trkpt lat="43.61966" lon="6.59945">
        <ele>772.2</ele>
        <time>2023-11-26T11:21:18Z</time>
      </trkpt>
      <trkpt lat="43.61966" lon="6.59946">
        <ele>772.3</ele>
        <time>2023-11-26T11:21:19Z</time>
      </trkpt>
      <trkpt lat="43.61965" lon="6.59946">
        <ele>772.3</ele>
        <time>2023-11-26T11:21:20Z</time>
      </trkpt>
      <trkpt lat="43.61965" lon="6.59946">
        <ele>772.3</ele>
        <time>2023-11-26T11:21:21Z</time>
      </trkpt>
      <trkpt lat="43.61965" lon="6.59946">
        <ele>772.3</ele>
        <time>2023-11-26T11:21:22Z</time>
      </trkpt>
      <trkpt lat="43.61965" lon="6.59946">
        <ele>772.3</ele>
        <time>2023-11-26T11:21:23Z</time>
      </trkpt>
      <trkpt lat="43.61965" lon="6.59946">
        <ele>772.3</ele>
        <time>2023-11-26T11:21:24Z</time>
      </trkpt>
      <trkpt lat="43.61965" lon="6.59946">
        <ele>772.2</ele>
        <time>2023-11-26T11:21:25Z</time>
      </trkpt>
      <trkpt lat="43.61965" lon="6.59945">
        <ele>772.3</ele>
        <time>2023-11-26T11:21:26Z</time>
      </trkpt>
      <trkpt lat="43.61965" lon="6.59945">
        <ele>772.3</ele>
        <time>2023-11-26T11:21:27Z</time>
      </trkpt>
      <trkpt lat="43.61965" lon="6.59945">
        <ele>772.3</ele>
        <time>2023-11-26T11:21:28Z</time>
      </trkpt>
      <trkpt lat="43.61965" lon="6.59945">
        <ele>772.5</ele>
        <time>2023-11-26T11:21:29Z</time>
      </trkpt>
      <trkpt lat="43.61965" lon="6.59945">
        <ele>772.4</ele>
        <time>2023-11-26T11:21:30Z</time>
      </trkpt>
      <trkpt lat="43.61965" lon="6.59945">
        <ele>772.4</ele>
        <time>2023-11-26T11:21:31Z</time>
      </trkpt>
      <trkpt lat="43.61965" lon="6.59945">
        <ele>772.4</ele>
        <time>2023-11-26T11:21:32Z</time>
      </trkpt>
      <trkpt lat="43.61966" lon="6.59944">
        <ele>772.4</ele>
        <time>2023-11-26T11:21:33Z</time>
      </trkpt>
      <trkpt lat="43.61966" lon="6.59944">
        <ele>772.3</ele>
        <time>2023-11-26T11:21:34Z</time>
      </trkpt>
      <trkpt lat="43.61966" lon="6.59945">
        <ele>772.3</ele>
        <time>2023-11-26T11:21:35Z</time>
      </trkpt>
      <trkpt lat="43.61965" lon="6.59945">
        <ele>772.3</ele>
        <time>2023-11-26T11:21:36Z</time>
      </trkpt>
      <trkpt lat="43.61966" lon="6.59945">
        <ele>772.3</ele>
        <time>2023-11-26T11:21:37Z</time>
      </trkpt>
      <trkpt lat="43.61966" lon="6.59945">
        <ele>772.3</ele>
        <time>2023-11-26T11:21:38Z</time>
      </trkpt>
      <trkpt lat="43.61966" lon="6.59945">
        <ele>772.3</ele>
        <time>2023-11-26T11:21:39Z</time>
      </trkpt>
      <trkpt lat="43.61966" lon="6.59945">
        <ele>772.3</ele>
        <time>2023-11-26T11:21:40Z</time>
      </trkpt>
      <trkpt lat="43.61966" lon="6.59945">
        <ele>772.3</ele>
        <time>2023-11-26T11:21:41Z</time>
      </trkpt>
      <trkpt lat="43.61966" lon="6.59945">
        <ele>772.3</ele>
        <time>2023-11-26T11:21:42Z</time>
      </trkpt>
      <trkpt lat="43.61966" lon="6.59945">
        <ele>772.3</ele>
        <time>2023-11-26T11:21:43Z</time>
      </trkpt>
      <trkpt lat="43.61966" lon="6.59945">
        <ele>772.3</ele>
        <time>2023-11-26T11:21:44Z</time>
      </trkpt>
      <trkpt lat="43.61966" lon="6.59945">
        <ele>772.3</ele>
        <time>2023-11-26T11:21:45Z</time>
      </trkpt>
      <trkpt lat="43.61966" lon="6.59945">
        <ele>772.4</ele>
        <time>2023-11-26T11:21:46Z</time>
      </trkpt>
      <trkpt lat="43.61966" lon="6.59945">
        <ele>772.5</ele>
        <time>2023-11-26T11:21:47Z</time>
      </trkpt>
      <trkpt lat="43.61966" lon="6.59945">
        <ele>772.5</ele>
        <time>2023-11-26T11:21:48Z</time>
      </trkpt>
      <trkpt lat="43.61966" lon="6.59945">
        <ele>772.4</ele>
        <time>2023-11-26T11:21:49Z</time>
      </trkpt>
      <trkpt lat="43.61966" lon="6.59945">
        <ele>772.4</ele>
        <time>2023-11-26T11:21:50Z</time>
      </trkpt>
      <trkpt lat="43.61966" lon="6.59946">
        <ele>772.4</ele>
        <time>2023-11-26T11:21:51Z</time>
      </trkpt>
      <trkpt lat="43.61966" lon="6.59946">
        <ele>772.4</ele>
        <time>2023-11-26T11:21:52Z</time>
      </trkpt>
      <trkpt lat="43.61966" lon="6.59946">
        <ele>772.5</ele>
        <time>2023-11-26T11:21:53Z</time>
      </trkpt>
      <trkpt lat="43.61966" lon="6.59946">
        <ele>772.5</ele>
        <time>2023-11-26T11:21:54Z</time>
      </trkpt>
      <trkpt lat="43.61966" lon="6.59946">
        <ele>772.5</ele>
        <time>2023-11-26T11:21:55Z</time>
      </trkpt>
      <trkpt lat="43.61966" lon="6.59947">
        <ele>772.5</ele>
        <time>2023-11-26T11:21:56Z</time>
      </trkpt>
      <trkpt lat="43.61966" lon="6.59947">
        <ele>772.5</ele>
        <time>2023-11-26T11:21:57Z</time>
      </trkpt>
      <trkpt lat="43.61966" lon="6.59947">
        <ele>772.5</ele>
        <time>2023-11-26T11:21:58Z</time>
      </trkpt>
      <trkpt lat="43.61966" lon="6.59947">
        <ele>772.5</ele>
        <time>2023-11-26T11:21:59Z</time>
      </trkpt>
      <trkpt lat="43.61966" lon="6.59947">
        <ele>772.5</ele>
        <time>2023-11-26T11:22:00Z</time>
      </trkpt>
      <trkpt lat="43.61966" lon="6.59947">
        <ele>772.5</ele>
        <time>2023-11-26T11:22:01Z</time>
      </trkpt>
      <trkpt lat="43.61966" lon="6.59947">
        <ele>772.5</ele>
        <time>2023-11-26T11:22:02Z</time>
      </trkpt>
      <trkpt lat="43.61966" lon="6.59948">
        <ele>772.5</ele>
        <time>2023-11-26T11:22:03Z</time>
      </trkpt>
      <trkpt lat="43.61966" lon="6.59948">
        <ele>772.5</ele>
        <time>2023-11-26T11:22:04Z</time>
      </trkpt>
      <trkpt lat="43.61966" lon="6.59948">
        <ele>772.5</ele>
        <time>2023-11-26T11:22:05Z</time>
      </trkpt>
      <trkpt lat="43.61966" lon="6.59948">
        <ele>772.5</ele>
        <time>2023-11-26T11:22:06Z</time>
      </trkpt>
      <trkpt lat="43.61966" lon="6.59948">
        <ele>772.6</ele>
        <time>2023-11-26T11:22:07Z</time>
      </trkpt>
      <trkpt lat="43.61966" lon="6.59949">
        <ele>772.6</ele>
        <time>2023-11-26T11:22:08Z</time>
      </trkpt>
      <trkpt lat="43.61966" lon="6.59949">
        <ele>772.6</ele>
        <time>2023-11-26T11:22:09Z</time>
      </trkpt>
      <trkpt lat="43.61966" lon="6.59949">
        <ele>772.6</ele>
        <time>2023-11-26T11:22:10Z</time>
      </trkpt>
      <trkpt lat="43.61966" lon="6.59949">
        <ele>772.6</ele>
        <time>2023-11-26T11:22:11Z</time>
      </trkpt>
      <trkpt lat="43.61966" lon="6.59949">
        <ele>772.6</ele>
        <time>2023-11-26T11:22:12Z</time>
      </trkpt>
      <trkpt lat="43.61966" lon="6.59949">
        <ele>772.5</ele>
        <time>2023-11-26T11:22:13Z</time>
      </trkpt>
      <trkpt lat="43.61967" lon="6.59949">
        <ele>772.5</ele>
        <time>2023-11-26T11:22:14Z</time>
      </trkpt>
      <trkpt lat="43.61967" lon="6.59949">
        <ele>772.5</ele>
        <time>2023-11-26T11:22:15Z</time>
      </trkpt>
      <trkpt lat="43.61967" lon="6.59949">
        <ele>772.4</ele>
        <time>2023-11-26T11:22:16Z</time>
      </trkpt>
      <trkpt lat="43.61967" lon="6.59949">
        <ele>772.5</ele>
        <time>2023-11-26T11:22:17Z</time>
      </trkpt>
      <trkpt lat="43.61967" lon="6.5995">
        <ele>772.5</ele>
        <time>2023-11-26T11:22:18Z</time>
      </trkpt>
      <trkpt lat="43.61967" lon="6.59949">
        <ele>772.6</ele>
        <time>2023-11-26T11:22:19Z</time>
      </trkpt>
      <trkpt lat="43.61967" lon="6.59949">
        <ele>772.5</ele>
        <time>2023-11-26T11:22:20Z</time>
      </trkpt>
      <trkpt lat="43.61968" lon="6.59949">
        <ele>772.5</ele>
        <time>2023-11-26T11:22:21Z</time>
      </trkpt>
      <trkpt lat="43.61968" lon="6.59949">
        <ele>772.5</ele>
        <time>2023-11-26T11:22:22Z</time>
      </trkpt>
      <trkpt lat="43.61968" lon="6.59949">
        <ele>772.5</ele>
        <time>2023-11-26T11:22:23Z</time>
      </trkpt>
      <trkpt lat="43.61968" lon="6.59949">
        <ele>772.5</ele>
        <time>2023-11-26T11:22:24Z</time>
      </trkpt>
      <trkpt lat="43.61968" lon="6.59949">
        <ele>772.4</ele>
        <time>2023-11-26T11:22:25Z</time>
      </trkpt>
      <trkpt lat="43.61968" lon="6.59949">
        <ele>772.4</ele>
        <time>2023-11-26T11:22:26Z</time>
      </trkpt>
      <trkpt lat="43.61968" lon="6.59949">
        <ele>772.4</ele>
        <time>2023-11-26T11:22:27Z</time>
      </trkpt>
      <trkpt lat="43.61968" lon="6.59949">
        <ele>772.4</ele>
        <time>2023-11-26T11:22:28Z</time>
      </trkpt>
      <trkpt lat="43.61968" lon="6.59949">
        <ele>772.3</ele>
        <time>2023-11-26T11:22:29Z</time>
      </trkpt>
      <trkpt lat="43.61968" lon="6.59949">
        <ele>772.3</ele>
        <time>2023-11-26T11:22:30Z</time>
      </trkpt>
      <trkpt lat="43.61968" lon="6.59949">
        <ele>772.3</ele>
        <time>2023-11-26T11:22:31Z</time>
      </trkpt>
      <trkpt lat="43.61968" lon="6.59949">
        <ele>772.4</ele>
        <time>2023-11-26T11:22:32Z</time>
      </trkpt>
      <trkpt lat="43.61968" lon="6.59948">
        <ele>772.4</ele>
        <time>2023-11-26T11:22:33Z</time>
      </trkpt>
      <trkpt lat="43.61968" lon="6.59948">
        <ele>772.4</ele>
        <time>2023-11-26T11:22:34Z</time>
      </trkpt>
      <trkpt lat="43.61968" lon="6.59948">
        <ele>772.4</ele>
        <time>2023-11-26T11:22:35Z</time>
      </trkpt>
      <trkpt lat="43.61968" lon="6.59948">
        <ele>772.4</ele>
        <time>2023-11-26T11:22:36Z</time>
      </trkpt>
      <trkpt lat="43.61968" lon="6.59949">
        <ele>772.4</ele>
        <time>2023-11-26T11:22:37Z</time>
      </trkpt>
      <trkpt lat="43.61968" lon="6.59949">
        <ele>772.4</ele>
        <time>2023-11-26T11:22:38Z</time>
      </trkpt>
      <trkpt lat="43.61968" lon="6.59949">
        <ele>772.3</ele>
        <time>2023-11-26T11:22:39Z</time>
      </trkpt>
      <trkpt lat="43.61968" lon="6.59949">
        <ele>772.4</ele>
        <time>2023-11-26T11:22:40Z</time>
      </trkpt>
      <trkpt lat="43.61968" lon="6.59949">
        <ele>772.5</ele>
        <time>2023-11-26T11:22:41Z</time>
      </trkpt>
      <trkpt lat="43.61968" lon="6.59949">
        <ele>772.5</ele>
        <time>2023-11-26T11:22:42Z</time>
      </trkpt>
      <trkpt lat="43.61968" lon="6.5995">
        <ele>772.4</ele>
        <time>2023-11-26T11:22:43Z</time>
      </trkpt>
      <trkpt lat="43.61967" lon="6.5995">
        <ele>772.3</ele>
        <time>2023-11-26T11:22:44Z</time>
      </trkpt>
      <trkpt lat="43.61967" lon="6.5995">
        <ele>772.3</ele>
        <time>2023-11-26T11:22:45Z</time>
      </trkpt>
      <trkpt lat="43.61967" lon="6.5995">
        <ele>772.3</ele>
        <time>2023-11-26T11:22:46Z</time>
      </trkpt>
      <trkpt lat="43.61967" lon="6.5995">
        <ele>772.5</ele>
        <time>2023-11-26T11:22:47Z</time>
      </trkpt>
      <trkpt lat="43.61967" lon="6.5995">
        <ele>772.5</ele>
        <time>2023-11-26T11:22:48Z</time>
      </trkpt>
      <trkpt lat="43.61967" lon="6.5995">
        <ele>772.5</ele>
        <time>2023-11-26T11:22:49Z</time>
      </trkpt>
      <trkpt lat="43.61967" lon="6.5995">
        <ele>772.5</ele>
        <time>2023-11-26T11:22:50Z</time>
      </trkpt>
      <trkpt lat="43.61967" lon="6.5995">
        <ele>772.5</ele>
        <time>2023-11-26T11:22:51Z</time>
      </trkpt>
      <trkpt lat="43.61967" lon="6.5995">
        <ele>772.5</ele>
        <time>2023-11-26T11:22:52Z</time>
      </trkpt>
      <trkpt lat="43.61966" lon="6.5995">
        <ele>772.5</ele>
        <time>2023-11-26T11:22:53Z</time>
      </trkpt>
      <trkpt lat="43.61966" lon="6.5995">
        <ele>772.5</ele>
        <time>2023-11-26T11:22:54Z</time>
      </trkpt>
      <trkpt lat="43.61966" lon="6.5995">
        <ele>772.4</ele>
        <time>2023-11-26T11:22:55Z</time>
      </trkpt>
      <trkpt lat="43.61966" lon="6.5995">
        <ele>772.4</ele>
        <time>2023-11-26T11:22:56Z</time>
      </trkpt>
      <trkpt lat="43.61966" lon="6.5995">
        <ele>772.4</ele>
        <time>2023-11-26T11:22:57Z</time>
      </trkpt>
      <trkpt lat="43.61966" lon="6.5995">
        <ele>772.5</ele>
        <time>2023-11-26T11:22:58Z</time>
      </trkpt>
      <trkpt lat="43.61966" lon="6.5995">
        <ele>772.4</ele>
        <time>2023-11-26T11:22:59Z</time>
      </trkpt>
      <trkpt lat="43.61966" lon="6.5995">
        <ele>772.3</ele>
        <time>2023-11-26T11:23:00Z</time>
      </trkpt>
      <trkpt lat="43.61966" lon="6.5995">
        <ele>772.2</ele>
        <time>2023-11-26T11:23:01Z</time>
      </trkpt>
      <trkpt lat="43.61966" lon="6.5995">
        <ele>772.1</ele>
        <time>2023-11-26T11:23:02Z</time>
      </trkpt>
      <trkpt lat="43.61966" lon="6.5995">
        <ele>772.1</ele>
        <time>2023-11-26T11:23:03Z</time>
      </trkpt>
      <trkpt lat="43.61966" lon="6.5995">
        <ele>772.1</ele>
        <time>2023-11-26T11:23:04Z</time>
      </trkpt>
      <trkpt lat="43.61966" lon="6.5995">
        <ele>772.1</ele>
        <time>2023-11-26T11:23:05Z</time>
      </trkpt>
      <trkpt lat="43.61966" lon="6.59951">
        <ele>772.2</ele>
        <time>2023-11-26T11:23:06Z</time>
      </trkpt>
      <trkpt lat="43.61966" lon="6.5995">
        <ele>772.2</ele>
        <time>2023-11-26T11:23:07Z</time>
      </trkpt>
      <trkpt lat="43.61966" lon="6.5995">
        <ele>772.2</ele>
        <time>2023-11-26T11:23:08Z</time>
      </trkpt>
      <trkpt lat="43.61966" lon="6.59951">
        <ele>772.3</ele>
        <time>2023-11-26T11:23:09Z</time>
      </trkpt>
      <trkpt lat="43.61966" lon="6.5995">
        <ele>772.3</ele>
        <time>2023-11-26T11:23:10Z</time>
      </trkpt>
      <trkpt lat="43.61966" lon="6.5995">
        <ele>772.4</ele>
        <time>2023-11-26T11:23:11Z</time>
      </trkpt>
      <trkpt lat="43.61967" lon="6.5995">
        <ele>772.4</ele>
        <time>2023-11-26T11:23:12Z</time>
      </trkpt>
      <trkpt lat="43.61967" lon="6.5995">
        <ele>772.4</ele>
        <time>2023-11-26T11:23:13Z</time>
      </trkpt>
      <trkpt lat="43.61967" lon="6.5995">
        <ele>772.4</ele>
        <time>2023-11-26T11:23:14Z</time>
      </trkpt>
      <trkpt lat="43.61967" lon="6.5995">
        <ele>772.4</ele>
        <time>2023-11-26T11:23:15Z</time>
      </trkpt>
      <trkpt lat="43.61967" lon="6.5995">
        <ele>772.4</ele>
        <time>2023-11-26T11:23:16Z</time>
      </trkpt>
      <trkpt lat="43.61967" lon="6.5995">
        <ele>772.4</ele>
        <time>2023-11-26T11:23:17Z</time>
      </trkpt>
      <trkpt lat="43.61967" lon="6.5995">
        <ele>772.4</ele>
        <time>2023-11-26T11:23:18Z</time>
      </trkpt>
      <trkpt lat="43.61967" lon="6.5995">
        <ele>772.5</ele>
        <time>2023-11-26T11:23:19Z</time>
      </trkpt>
      <trkpt lat="43.61967" lon="6.5995">
        <ele>772.5</ele>
        <time>2023-11-26T11:23:20Z</time>
      </trkpt>
      <trkpt lat="43.61967" lon="6.5995">
        <ele>772.4</ele>
        <time>2023-11-26T11:23:21Z</time>
      </trkpt>
      <trkpt lat="43.61967" lon="6.5995">
        <ele>772.4</ele>
        <time>2023-11-26T11:23:22Z</time>
      </trkpt>
      <trkpt lat="43.61967" lon="6.5995">
        <ele>772.4</ele>
        <time>2023-11-26T11:23:23Z</time>
      </trkpt>
      <trkpt lat="43.61967" lon="6.5995">
        <ele>772.4</ele>
        <time>2023-11-26T11:23:24Z</time>
      </trkpt>
      <trkpt lat="43.61967" lon="6.5995">
        <ele>772.4</ele>
        <time>2023-11-26T11:23:25Z</time>
      </trkpt>
      <trkpt lat="43.61967" lon="6.5995">
        <ele>772.4</ele>
        <time>2023-11-26T11:23:26Z</time>
      </trkpt>
      <trkpt lat="43.61967" lon="6.5995">
        <ele>772.3</ele>
        <time>2023-11-26T11:23:27Z</time>
      </trkpt>
      <trkpt lat="43.61967" lon="6.59949">
        <ele>772.2</ele>
        <time>2023-11-26T11:23:28Z</time>
      </trkpt>
      <trkpt lat="43.61967" lon="6.5995">
        <ele>772.1</ele>
        <time>2023-11-26T11:23:29Z</time>
      </trkpt>
      <trkpt lat="43.61967" lon="6.59949">
        <ele>772.1</ele>
        <time>2023-11-26T11:23:30Z</time>
      </trkpt>
      <trkpt lat="43.61967" lon="6.5995">
        <ele>772</ele>
        <time>2023-11-26T11:23:31Z</time>
      </trkpt>
      <trkpt lat="43.61967" lon="6.5995">
        <ele>772.1</ele>
        <time>2023-11-26T11:23:32Z</time>
      </trkpt>
      <trkpt lat="43.61967" lon="6.5995">
        <ele>772</ele>
        <time>2023-11-26T11:23:33Z</time>
      </trkpt>
      <trkpt lat="43.61967" lon="6.59949">
        <ele>772</ele>
        <time>2023-11-26T11:23:34Z</time>
      </trkpt>
      <trkpt lat="43.61967" lon="6.59949">
        <ele>772</ele>
        <time>2023-11-26T11:23:35Z</time>
      </trkpt>
      <trkpt lat="43.61967" lon="6.59949">
        <ele>772</ele>
        <time>2023-11-26T11:23:36Z</time>
      </trkpt>
      <trkpt lat="43.61967" lon="6.59949">
        <ele>772</ele>
        <time>2023-11-26T11:23:37Z</time>
      </trkpt>
      <trkpt lat="43.61967" lon="6.5995">
        <ele>772.1</ele>
        <time>2023-11-26T11:23:38Z</time>
      </trkpt>
      <trkpt lat="43.61966" lon="6.59949">
        <ele>772.1</ele>
        <time>2023-11-26T11:23:39Z</time>
      </trkpt>
      <trkpt lat="43.61966" lon="6.59949">
        <ele>772.1</ele>
        <time>2023-11-26T11:23:40Z</time>
      </trkpt>
      <trkpt lat="43.61966" lon="6.59949">
        <ele>772.2</ele>
        <time>2023-11-26T11:23:41Z</time>
      </trkpt>
      <trkpt lat="43.61966" lon="6.59949">
        <ele>772.2</ele>
        <time>2023-11-26T11:23:42Z</time>
      </trkpt>
      <trkpt lat="43.61966" lon="6.59949">
        <ele>772.2</ele>
        <time>2023-11-26T11:23:43Z</time>
      </trkpt>
      <trkpt lat="43.61966" lon="6.59949">
        <ele>772.2</ele>
        <time>2023-11-26T11:23:44Z</time>
      </trkpt>
      <trkpt lat="43.61966" lon="6.59949">
        <ele>772.1</ele>
        <time>2023-11-26T11:23:45Z</time>
      </trkpt>
      <trkpt lat="43.61967" lon="6.59949">
        <ele>772</ele>
        <time>2023-11-26T11:23:46Z</time>
      </trkpt>
      <trkpt lat="43.61967" lon="6.59949">
        <ele>772</ele>
        <time>2023-11-26T11:23:47Z</time>
      </trkpt>
      <trkpt lat="43.61967" lon="6.59949">
        <ele>772.1</ele>
        <time>2023-11-26T11:23:48Z</time>
      </trkpt>
      <trkpt lat="43.61967" lon="6.5995">
        <ele>772.2</ele>
        <time>2023-11-26T11:23:49Z</time>
      </trkpt>
      <trkpt lat="43.61967" lon="6.5995">
        <ele>772.2</ele>
        <time>2023-11-26T11:23:50Z</time>
      </trkpt>
      <trkpt lat="43.61968" lon="6.5995">
        <ele>772.3</ele>
        <time>2023-11-26T11:23:51Z</time>
      </trkpt>
      <trkpt lat="43.61968" lon="6.5995">
        <ele>772.3</ele>
        <time>2023-11-26T11:23:52Z</time>
      </trkpt>
      <trkpt lat="43.61968" lon="6.5995">
        <ele>772.3</ele>
        <time>2023-11-26T11:23:53Z</time>
      </trkpt>
      <trkpt lat="43.61968" lon="6.5995">
        <ele>772.3</ele>
        <time>2023-11-26T11:23:54Z</time>
      </trkpt>
      <trkpt lat="43.61968" lon="6.5995">
        <ele>772.3</ele>
        <time>2023-11-26T11:23:55Z</time>
      </trkpt>
      <trkpt lat="43.61968" lon="6.5995">
        <ele>772.3</ele>
        <time>2023-11-26T11:23:56Z</time>
      </trkpt>
      <trkpt lat="43.61968" lon="6.5995">
        <ele>772.2</ele>
        <time>2023-11-26T11:23:57Z</time>
      </trkpt>
      <trkpt lat="43.61968" lon="6.5995">
        <ele>772.1</ele>
        <time>2023-11-26T11:23:58Z</time>
      </trkpt>
      <trkpt lat="43.61968" lon="6.5995">
        <ele>772.1</ele>
        <time>2023-11-26T11:23:59Z</time>
      </trkpt>
      <trkpt lat="43.61968" lon="6.5995">
        <ele>772.1</ele>
        <time>2023-11-26T11:24:00Z</time>
      </trkpt>
      <trkpt lat="43.61968" lon="6.5995">
        <ele>772.1</ele>
        <time>2023-11-26T11:24:01Z</time>
      </trkpt>
      <trkpt lat="43.61968" lon="6.5995">
        <ele>772.1</ele>
        <time>2023-11-26T11:24:02Z</time>
      </trkpt>
      <trkpt lat="43.61969" lon="6.5995">
        <ele>772.1</ele>
        <time>2023-11-26T11:24:03Z</time>
      </trkpt>
      <trkpt lat="43.61969" lon="6.5995">
        <ele>772.1</ele>
        <time>2023-11-26T11:24:04Z</time>
      </trkpt>
      <trkpt lat="43.61969" lon="6.5995">
        <ele>772</ele>
        <time>2023-11-26T11:24:05Z</time>
      </trkpt>
      <trkpt lat="43.61969" lon="6.5995">
        <ele>772.1</ele>
        <time>2023-11-26T11:24:06Z</time>
      </trkpt>
      <trkpt lat="43.61969" lon="6.5995">
        <ele>772.1</ele>
        <time>2023-11-26T11:24:07Z</time>
      </trkpt>
      <trkpt lat="43.61969" lon="6.5995">
        <ele>772.2</ele>
        <time>2023-11-26T11:24:08Z</time>
      </trkpt>
      <trkpt lat="43.61969" lon="6.5995">
        <ele>772.2</ele>
        <time>2023-11-26T11:24:09Z</time>
      </trkpt>
      <trkpt lat="43.61969" lon="6.5995">
        <ele>772.2</ele>
        <time>2023-11-26T11:24:10Z</time>
      </trkpt>
      <trkpt lat="43.61969" lon="6.59949">
        <ele>772.2</ele>
        <time>2023-11-26T11:24:11Z</time>
      </trkpt>
      <trkpt lat="43.61969" lon="6.59949">
        <ele>772.2</ele>
        <time>2023-11-26T11:24:12Z</time>
      </trkpt>
      <trkpt lat="43.61969" lon="6.59949">
        <ele>772.2</ele>
        <time>2023-11-26T11:24:13Z</time>
      </trkpt>
      <trkpt lat="43.61969" lon="6.59949">
        <ele>772.1</ele>
        <time>2023-11-26T11:24:14Z</time>
      </trkpt>
      <trkpt lat="43.61969" lon="6.59949">
        <ele>772.1</ele>
        <time>2023-11-26T11:24:15Z</time>
      </trkpt>
      <trkpt lat="43.61969" lon="6.59949">
        <ele>772.1</ele>
        <time>2023-11-26T11:24:16Z</time>
      </trkpt>
      <trkpt lat="43.61969" lon="6.59949">
        <ele>772.1</ele>
        <time>2023-11-26T11:24:17Z</time>
      </trkpt>
      <trkpt lat="43.61969" lon="6.59949">
        <ele>772.1</ele>
        <time>2023-11-26T11:24:18Z</time>
      </trkpt>
      <trkpt lat="43.61969" lon="6.59949">
        <ele>772</ele>
        <time>2023-11-26T11:24:19Z</time>
      </trkpt>
      <trkpt lat="43.61969" lon="6.59949">
        <ele>772</ele>
        <time>2023-11-26T11:24:20Z</time>
      </trkpt>
      <trkpt lat="43.6197" lon="6.59949">
        <ele>772</ele>
        <time>2023-11-26T11:24:21Z</time>
      </trkpt>
      <trkpt lat="43.6197" lon="6.59949">
        <ele>771.9</ele>
        <time>2023-11-26T11:24:22Z</time>
      </trkpt>
      <trkpt lat="43.61969" lon="6.59949">
        <ele>772</ele>
        <time>2023-11-26T11:24:23Z</time>
      </trkpt>
      <trkpt lat="43.61969" lon="6.59948">
        <ele>772</ele>
        <time>2023-11-26T11:24:24Z</time>
      </trkpt>
      <trkpt lat="43.61969" lon="6.59949">
        <ele>772.1</ele>
        <time>2023-11-26T11:24:25Z</time>
      </trkpt>
      <trkpt lat="43.61969" lon="6.59949">
        <ele>772</ele>
        <time>2023-11-26T11:24:26Z</time>
      </trkpt>
      <trkpt lat="43.61969" lon="6.59949">
        <ele>772</ele>
        <time>2023-11-26T11:24:27Z</time>
      </trkpt>
      <trkpt lat="43.61969" lon="6.59949">
        <ele>772</ele>
        <time>2023-11-26T11:24:28Z</time>
      </trkpt>
      <trkpt lat="43.61969" lon="6.59949">
        <ele>772.1</ele>
        <time>2023-11-26T11:24:29Z</time>
      </trkpt>
      <trkpt lat="43.61969" lon="6.59948">
        <ele>772</ele>
        <time>2023-11-26T11:24:30Z</time>
      </trkpt>
      <trkpt lat="43.61969" lon="6.59948">
        <ele>772</ele>
        <time>2023-11-26T11:24:31Z</time>
      </trkpt>
      <trkpt lat="43.61969" lon="6.59948">
        <ele>772</ele>
        <time>2023-11-26T11:24:32Z</time>
      </trkpt>
      <trkpt lat="43.61969" lon="6.59948">
        <ele>771.9</ele>
        <time>2023-11-26T11:24:33Z</time>
      </trkpt>
      <trkpt lat="43.61969" lon="6.59948">
        <ele>772</ele>
        <time>2023-11-26T11:24:34Z</time>
      </trkpt>
      <trkpt lat="43.61969" lon="6.59948">
        <ele>772</ele>
        <time>2023-11-26T11:24:35Z</time>
      </trkpt>
      <trkpt lat="43.61969" lon="6.59948">
        <ele>772.1</ele>
        <time>2023-11-26T11:24:36Z</time>
      </trkpt>
      <trkpt lat="43.61969" lon="6.59948">
        <ele>772.1</ele>
        <time>2023-11-26T11:24:37Z</time>
      </trkpt>
      <trkpt lat="43.61969" lon="6.59948">
        <ele>772</ele>
        <time>2023-11-26T11:24:38Z</time>
      </trkpt>
      <trkpt lat="43.61969" lon="6.59948">
        <ele>772</ele>
        <time>2023-11-26T11:24:39Z</time>
      </trkpt>
      <trkpt lat="43.61969" lon="6.59948">
        <ele>772</ele>
        <time>2023-11-26T11:24:40Z</time>
      </trkpt>
      <trkpt lat="43.61969" lon="6.59948">
        <ele>772</ele>
        <time>2023-11-26T11:24:41Z</time>
      </trkpt>
      <trkpt lat="43.61968" lon="6.59948">
        <ele>772</ele>
        <time>2023-11-26T11:24:42Z</time>
      </trkpt>
      <trkpt lat="43.61968" lon="6.59948">
        <ele>771.9</ele>
        <time>2023-11-26T11:24:43Z</time>
      </trkpt>
      <trkpt lat="43.61968" lon="6.59947">
        <ele>772</ele>
        <time>2023-11-26T11:24:44Z</time>
      </trkpt>
      <trkpt lat="43.61968" lon="6.59947">
        <ele>772</ele>
        <time>2023-11-26T11:24:45Z</time>
      </trkpt>
      <trkpt lat="43.61968" lon="6.59947">
        <ele>772</ele>
        <time>2023-11-26T11:24:46Z</time>
      </trkpt>
      <trkpt lat="43.61968" lon="6.59947">
        <ele>772</ele>
        <time>2023-11-26T11:24:47Z</time>
      </trkpt>
      <trkpt lat="43.61968" lon="6.59947">
        <ele>772</ele>
        <time>2023-11-26T11:24:48Z</time>
      </trkpt>
      <trkpt lat="43.61968" lon="6.59947">
        <ele>772</ele>
        <time>2023-11-26T11:24:49Z</time>
      </trkpt>
      <trkpt lat="43.61968" lon="6.59947">
        <ele>772</ele>
        <time>2023-11-26T11:24:50Z</time>
      </trkpt>
      <trkpt lat="43.61968" lon="6.59948">
        <ele>772</ele>
        <time>2023-11-26T11:24:51Z</time>
      </trkpt>
      <trkpt lat="43.61967" lon="6.59948">
        <ele>772</ele>
        <time>2023-11-26T11:24:52Z</time>
      </trkpt>
      <trkpt lat="43.61967" lon="6.59948">
        <ele>772</ele>
        <time>2023-11-26T11:24:53Z</time>
      </trkpt>
      <trkpt lat="43.61967" lon="6.59948">
        <ele>771.9</ele>
        <time>2023-11-26T11:24:54Z</time>
      </trkpt>
      <trkpt lat="43.61967" lon="6.59948">
        <ele>771.9</ele>
        <time>2023-11-26T11:24:55Z</time>
      </trkpt>
      <trkpt lat="43.61967" lon="6.59948">
        <ele>771.9</ele>
        <time>2023-11-26T11:24:56Z</time>
      </trkpt>
      <trkpt lat="43.61967" lon="6.59948">
        <ele>771.9</ele>
        <time>2023-11-26T11:24:57Z</time>
      </trkpt>
      <trkpt lat="43.61967" lon="6.59948">
        <ele>772</ele>
        <time>2023-11-26T11:24:58Z</time>
      </trkpt>
      <trkpt lat="43.61967" lon="6.59948">
        <ele>772</ele>
        <time>2023-11-26T11:24:59Z</time>
      </trkpt>
      <trkpt lat="43.61967" lon="6.59948">
        <ele>772</ele>
        <time>2023-11-26T11:25:00Z</time>
      </trkpt>
      <trkpt lat="43.61967" lon="6.59948">
        <ele>772</ele>
        <time>2023-11-26T11:25:01Z</time>
      </trkpt>
      <trkpt lat="43.61967" lon="6.59948">
        <ele>772</ele>
        <time>2023-11-26T11:25:02Z</time>
      </trkpt>
      <trkpt lat="43.61967" lon="6.59948">
        <ele>772</ele>
        <time>2023-11-26T11:25:03Z</time>
      </trkpt>
      <trkpt lat="43.61967" lon="6.59948">
        <ele>772.1</ele>
        <time>2023-11-26T11:25:04Z</time>
      </trkpt>
      <trkpt lat="43.61967" lon="6.59948">
        <ele>772.1</ele>
        <time>2023-11-26T11:25:05Z</time>
      </trkpt>
      <trkpt lat="43.61967" lon="6.59948">
        <ele>772</ele>
        <time>2023-11-26T11:25:06Z</time>
      </trkpt>
      <trkpt lat="43.61967" lon="6.59948">
        <ele>772</ele>
        <time>2023-11-26T11:25:07Z</time>
      </trkpt>
      <trkpt lat="43.61967" lon="6.59948">
        <ele>772</ele>
        <time>2023-11-26T11:25:08Z</time>
      </trkpt>
      <trkpt lat="43.61967" lon="6.59948">
        <ele>772</ele>
        <time>2023-11-26T11:25:09Z</time>
      </trkpt>
      <trkpt lat="43.61967" lon="6.59948">
        <ele>772.2</ele>
        <time>2023-11-26T11:25:10Z</time>
      </trkpt>
      <trkpt lat="43.61967" lon="6.59947">
        <ele>772.2</ele>
        <time>2023-11-26T11:25:11Z</time>
      </trkpt>
      <trkpt lat="43.61967" lon="6.59947">
        <ele>772.2</ele>
        <time>2023-11-26T11:25:12Z</time>
      </trkpt>
      <trkpt lat="43.61967" lon="6.59947">
        <ele>772.2</ele>
        <time>2023-11-26T11:25:13Z</time>
      </trkpt>
      <trkpt lat="43.61967" lon="6.59947">
        <ele>772.2</ele>
        <time>2023-11-26T11:25:14Z</time>
      </trkpt>
      <trkpt lat="43.61967" lon="6.59947">
        <ele>772.1</ele>
        <time>2023-11-26T11:25:15Z</time>
      </trkpt>
      <trkpt lat="43.61967" lon="6.59947">
        <ele>772</ele>
        <time>2023-11-26T11:25:16Z</time>
      </trkpt>
      <trkpt lat="43.61967" lon="6.59947">
        <ele>771.9</ele>
        <time>2023-11-26T11:25:17Z</time>
      </trkpt>
      <trkpt lat="43.61967" lon="6.59947">
        <ele>771.9</ele>
        <time>2023-11-26T11:25:18Z</time>
      </trkpt>
      <trkpt lat="43.61967" lon="6.59947">
        <ele>771.8</ele>
        <time>2023-11-26T11:25:19Z</time>
      </trkpt>
      <trkpt lat="43.61967" lon="6.59947">
        <ele>771.8</ele>
        <time>2023-11-26T11:25:20Z</time>
      </trkpt>
      <trkpt lat="43.61967" lon="6.59947">
        <ele>771.7</ele>
        <time>2023-11-26T11:25:21Z</time>
      </trkpt>
      <trkpt lat="43.61967" lon="6.59947">
        <ele>771.7</ele>
        <time>2023-11-26T11:25:22Z</time>
      </trkpt>
      <trkpt lat="43.61967" lon="6.59946">
        <ele>771.7</ele>
        <time>2023-11-26T11:25:23Z</time>
      </trkpt>
      <trkpt lat="43.61967" lon="6.59946">
        <ele>771.9</ele>
        <time>2023-11-26T11:25:24Z</time>
      </trkpt>
      <trkpt lat="43.61966" lon="6.59946">
        <ele>772</ele>
        <time>2023-11-26T11:25:25Z</time>
      </trkpt>
      <trkpt lat="43.61966" lon="6.59946">
        <ele>772.1</ele>
        <time>2023-11-26T11:25:26Z</time>
      </trkpt>
      <trkpt lat="43.61966" lon="6.59946">
        <ele>772.2</ele>
        <time>2023-11-26T11:25:27Z</time>
      </trkpt>
      <trkpt lat="43.61966" lon="6.59946">
        <ele>772.1</ele>
        <time>2023-11-26T11:25:28Z</time>
      </trkpt>
      <trkpt lat="43.61966" lon="6.59946">
        <ele>772.1</ele>
        <time>2023-11-26T11:25:29Z</time>
      </trkpt>
      <trkpt lat="43.61966" lon="6.59946">
        <ele>772.1</ele>
        <time>2023-11-26T11:25:30Z</time>
      </trkpt>
      <trkpt lat="43.61966" lon="6.59946">
        <ele>772.1</ele>
        <time>2023-11-26T11:25:31Z</time>
      </trkpt>
      <trkpt lat="43.61966" lon="6.59946">
        <ele>772.1</ele>
        <time>2023-11-26T11:25:32Z</time>
      </trkpt>
      <trkpt lat="43.61966" lon="6.59946">
        <ele>772.1</ele>
        <time>2023-11-26T11:25:33Z</time>
      </trkpt>
      <trkpt lat="43.61966" lon="6.59946">
        <ele>772.1</ele>
        <time>2023-11-26T11:25:34Z</time>
      </trkpt>
      <trkpt lat="43.61966" lon="6.59946">
        <ele>772</ele>
        <time>2023-11-26T11:25:35Z</time>
      </trkpt>
      <trkpt lat="43.61966" lon="6.59946">
        <ele>772.1</ele>
        <time>2023-11-26T11:25:36Z</time>
      </trkpt>
      <trkpt lat="43.61966" lon="6.59946">
        <ele>772.1</ele>
        <time>2023-11-26T11:25:37Z</time>
      </trkpt>
      <trkpt lat="43.61966" lon="6.59945">
        <ele>772.1</ele>
        <time>2023-11-26T11:25:38Z</time>
      </trkpt>
      <trkpt lat="43.61966" lon="6.59945">
        <ele>772.1</ele>
        <time>2023-11-26T11:25:39Z</time>
      </trkpt>
      <trkpt lat="43.61966" lon="6.59945">
        <ele>772.1</ele>
        <time>2023-11-26T11:25:40Z</time>
      </trkpt>
      <trkpt lat="43.61966" lon="6.59945">
        <ele>772</ele>
        <time>2023-11-26T11:25:41Z</time>
      </trkpt>
      <trkpt lat="43.61966" lon="6.59945">
        <ele>772.1</ele>
        <time>2023-11-26T11:25:42Z</time>
      </trkpt>
      <trkpt lat="43.61966" lon="6.59945">
        <ele>772.1</ele>
        <time>2023-11-26T11:25:43Z</time>
      </trkpt>
      <trkpt lat="43.61966" lon="6.59945">
        <ele>772.1</ele>
        <time>2023-11-26T11:25:44Z</time>
      </trkpt>
      <trkpt lat="43.61966" lon="6.59945">
        <ele>772.1</ele>
        <time>2023-11-26T11:25:45Z</time>
      </trkpt>
      <trkpt lat="43.61966" lon="6.59945">
        <ele>772.2</ele>
        <time>2023-11-26T11:25:46Z</time>
      </trkpt>
      <trkpt lat="43.61966" lon="6.59945">
        <ele>772.1</ele>
        <time>2023-11-26T11:25:47Z</time>
      </trkpt>
      <trkpt lat="43.61966" lon="6.59945">
        <ele>772.1</ele>
        <time>2023-11-26T11:25:48Z</time>
      </trkpt>
      <trkpt lat="43.61966" lon="6.59945">
        <ele>772.1</ele>
        <time>2023-11-26T11:25:49Z</time>
      </trkpt>
      <trkpt lat="43.61966" lon="6.59945">
        <ele>772.2</ele>
        <time>2023-11-26T11:25:50Z</time>
      </trkpt>
      <trkpt lat="43.61966" lon="6.59945">
        <ele>772.2</ele>
        <time>2023-11-26T11:25:51Z</time>
      </trkpt>
      <trkpt lat="43.61966" lon="6.59945">
        <ele>772.1</ele>
        <time>2023-11-26T11:25:52Z</time>
      </trkpt>
      <trkpt lat="43.61966" lon="6.59945">
        <ele>772</ele>
        <time>2023-11-26T11:25:53Z</time>
      </trkpt>
      <trkpt lat="43.61966" lon="6.59945">
        <ele>772</ele>
        <time>2023-11-26T11:25:54Z</time>
      </trkpt>
      <trkpt lat="43.61966" lon="6.59945">
        <ele>772</ele>
        <time>2023-11-26T11:25:55Z</time>
      </trkpt>
      <trkpt lat="43.61966" lon="6.59945">
        <ele>772</ele>
        <time>2023-11-26T11:25:56Z</time>
      </trkpt>
      <trkpt lat="43.61966" lon="6.59945">
        <ele>772</ele>
        <time>2023-11-26T11:25:57Z</time>
      </trkpt>
      <trkpt lat="43.61966" lon="6.59945">
        <ele>772</ele>
        <time>2023-11-26T11:25:58Z</time>
      </trkpt>
      <trkpt lat="43.61966" lon="6.59945">
        <ele>771.9</ele>
        <time>2023-11-26T11:25:59Z</time>
      </trkpt>
      <trkpt lat="43.61966" lon="6.59945">
        <ele>772</ele>
        <time>2023-11-26T11:26:00Z</time>
      </trkpt>
      <trkpt lat="43.61966" lon="6.59945">
        <ele>772.1</ele>
        <time>2023-11-26T11:26:01Z</time>
      </trkpt>
      <trkpt lat="43.61966" lon="6.59945">
        <ele>772.2</ele>
        <time>2023-11-26T11:26:02Z</time>
      </trkpt>
      <trkpt lat="43.61966" lon="6.59945">
        <ele>772.3</ele>
        <time>2023-11-26T11:26:03Z</time>
      </trkpt>
      <trkpt lat="43.61966" lon="6.59945">
        <ele>772.4</ele>
        <time>2023-11-26T11:26:04Z</time>
      </trkpt>
      <trkpt lat="43.61966" lon="6.59945">
        <ele>772.6</ele>
        <time>2023-11-26T11:26:05Z</time>
      </trkpt>
      <trkpt lat="43.61966" lon="6.59945">
        <ele>772.5</ele>
        <time>2023-11-26T11:26:06Z</time>
      </trkpt>
      <trkpt lat="43.61966" lon="6.59945">
        <ele>772.5</ele>
        <time>2023-11-26T11:26:07Z</time>
      </trkpt>
      <trkpt lat="43.61966" lon="6.59945">
        <ele>772.4</ele>
        <time>2023-11-26T11:26:08Z</time>
      </trkpt>
      <trkpt lat="43.61966" lon="6.59945">
        <ele>772.4</ele>
        <time>2023-11-26T11:26:09Z</time>
      </trkpt>
      <trkpt lat="43.61966" lon="6.59945">
        <ele>772.4</ele>
        <time>2023-11-26T11:26:10Z</time>
      </trkpt>
      <trkpt lat="43.61966" lon="6.59945">
        <ele>772.4</ele>
        <time>2023-11-26T11:26:11Z</time>
      </trkpt>
      <trkpt lat="43.61966" lon="6.59945">
        <ele>772.3</ele>
        <time>2023-11-26T11:26:12Z</time>
      </trkpt>
      <trkpt lat="43.61966" lon="6.59945">
        <ele>772.3</ele>
        <time>2023-11-26T11:26:13Z</time>
      </trkpt>
      <trkpt lat="43.61966" lon="6.59945">
        <ele>772.3</ele>
        <time>2023-11-26T11:26:14Z</time>
      </trkpt>
      <trkpt lat="43.61966" lon="6.59945">
        <ele>772.3</ele>
        <time>2023-11-26T11:26:15Z</time>
      </trkpt>
      <trkpt lat="43.61966" lon="6.59945">
        <ele>772.2</ele>
        <time>2023-11-26T11:26:16Z</time>
      </trkpt>
      <trkpt lat="43.61966" lon="6.59945">
        <ele>772.2</ele>
        <time>2023-11-26T11:26:17Z</time>
      </trkpt>
      <trkpt lat="43.61966" lon="6.59945">
        <ele>772.2</ele>
        <time>2023-11-26T11:26:18Z</time>
      </trkpt>
      <trkpt lat="43.61966" lon="6.59945">
        <ele>772.1</ele>
        <time>2023-11-26T11:26:19Z</time>
      </trkpt>
      <trkpt lat="43.61966" lon="6.59945">
        <ele>772.1</ele>
        <time>2023-11-26T11:26:20Z</time>
      </trkpt>
      <trkpt lat="43.61966" lon="6.59945">
        <ele>772</ele>
        <time>2023-11-26T11:26:21Z</time>
      </trkpt>
      <trkpt lat="43.61966" lon="6.59945">
        <ele>772</ele>
        <time>2023-11-26T11:26:22Z</time>
      </trkpt>
      <trkpt lat="43.61966" lon="6.59945">
        <ele>772</ele>
        <time>2023-11-26T11:26:23Z</time>
      </trkpt>
      <trkpt lat="43.61966" lon="6.59945">
        <ele>771.9</ele>
        <time>2023-11-26T11:26:24Z</time>
      </trkpt>
      <trkpt lat="43.61966" lon="6.59945">
        <ele>771.9</ele>
        <time>2023-11-26T11:26:25Z</time>
      </trkpt>
      <trkpt lat="43.61966" lon="6.59945">
        <ele>771.9</ele>
        <time>2023-11-26T11:26:26Z</time>
      </trkpt>
      <trkpt lat="43.61966" lon="6.59945">
        <ele>771.9</ele>
        <time>2023-11-26T11:26:27Z</time>
      </trkpt>
      <trkpt lat="43.61966" lon="6.59945">
        <ele>771.9</ele>
        <time>2023-11-26T11:26:28Z</time>
      </trkpt>
      <trkpt lat="43.61966" lon="6.59945">
        <ele>771.9</ele>
        <time>2023-11-26T11:26:29Z</time>
      </trkpt>
      <trkpt lat="43.61966" lon="6.59945">
        <ele>772</ele>
        <time>2023-11-26T11:26:30Z</time>
      </trkpt>
      <trkpt lat="43.61966" lon="6.59945">
        <ele>772</ele>
        <time>2023-11-26T11:26:31Z</time>
      </trkpt>
      <trkpt lat="43.61966" lon="6.59945">
        <ele>772</ele>
        <time>2023-11-26T11:26:32Z</time>
      </trkpt>
      <trkpt lat="43.61966" lon="6.59945">
        <ele>772</ele>
        <time>2023-11-26T11:26:33Z</time>
      </trkpt>
      <trkpt lat="43.61966" lon="6.59945">
        <ele>772</ele>
        <time>2023-11-26T11:26:34Z</time>
      </trkpt>
      <trkpt lat="43.61966" lon="6.59945">
        <ele>772</ele>
        <time>2023-11-26T11:26:35Z</time>
      </trkpt>
      <trkpt lat="43.61966" lon="6.59945">
        <ele>772.1</ele>
        <time>2023-11-26T11:26:36Z</time>
      </trkpt>
      <trkpt lat="43.61966" lon="6.59945">
        <ele>772.1</ele>
        <time>2023-11-26T11:26:37Z</time>
      </trkpt>
      <trkpt lat="43.61966" lon="6.59945">
        <ele>772.2</ele>
        <time>2023-11-26T11:26:38Z</time>
      </trkpt>
      <trkpt lat="43.61966" lon="6.59945">
        <ele>772.2</ele>
        <time>2023-11-26T11:26:39Z</time>
      </trkpt>
      <trkpt lat="43.61966" lon="6.59945">
        <ele>772.3</ele>
        <time>2023-11-26T11:26:40Z</time>
      </trkpt>
      <trkpt lat="43.61966" lon="6.59945">
        <ele>772.3</ele>
        <time>2023-11-26T11:26:41Z</time>
      </trkpt>
      <trkpt lat="43.61966" lon="6.59945">
        <ele>772.4</ele>
        <time>2023-11-26T11:26:42Z</time>
      </trkpt>
      <trkpt lat="43.61966" lon="6.59945">
        <ele>772.4</ele>
        <time>2023-11-26T11:26:43Z</time>
      </trkpt>
      <trkpt lat="43.61966" lon="6.59945">
        <ele>772.4</ele>
        <time>2023-11-26T11:26:44Z</time>
      </trkpt>
      <trkpt lat="43.61966" lon="6.59945">
        <ele>772.4</ele>
        <time>2023-11-26T11:26:45Z</time>
      </trkpt>
      <trkpt lat="43.61966" lon="6.59945">
        <ele>772.5</ele>
        <time>2023-11-26T11:26:46Z</time>
      </trkpt>
      <trkpt lat="43.61966" lon="6.59945">
        <ele>772.5</ele>
        <time>2023-11-26T11:26:47Z</time>
      </trkpt>
      <trkpt lat="43.61966" lon="6.59945">
        <ele>772.5</ele>
        <time>2023-11-26T11:26:48Z</time>
      </trkpt>
      <trkpt lat="43.61966" lon="6.59945">
        <ele>772.5</ele>
        <time>2023-11-26T11:26:49Z</time>
      </trkpt>
      <trkpt lat="43.61966" lon="6.59945">
        <ele>772.5</ele>
        <time>2023-11-26T11:26:50Z</time>
      </trkpt>
      <trkpt lat="43.61966" lon="6.59945">
        <ele>772.5</ele>
        <time>2023-11-26T11:26:51Z</time>
      </trkpt>
      <trkpt lat="43.61967" lon="6.59945">
        <ele>772.5</ele>
        <time>2023-11-26T11:26:52Z</time>
      </trkpt>
      <trkpt lat="43.61967" lon="6.59945">
        <ele>772.5</ele>
        <time>2023-11-26T11:26:53Z</time>
      </trkpt>
      <trkpt lat="43.61967" lon="6.59945">
        <ele>772.4</ele>
        <time>2023-11-26T11:26:54Z</time>
      </trkpt>
      <trkpt lat="43.61967" lon="6.59945">
        <ele>772.4</ele>
        <time>2023-11-26T11:26:55Z</time>
      </trkpt>
      <trkpt lat="43.61967" lon="6.59945">
        <ele>772.4</ele>
        <time>2023-11-26T11:26:56Z</time>
      </trkpt>
      <trkpt lat="43.61967" lon="6.59945">
        <ele>772.5</ele>
        <time>2023-11-26T11:26:57Z</time>
      </trkpt>
      <trkpt lat="43.61967" lon="6.59945">
        <ele>772.5</ele>
        <time>2023-11-26T11:26:58Z</time>
      </trkpt>
      <trkpt lat="43.61967" lon="6.59945">
        <ele>772.6</ele>
        <time>2023-11-26T11:26:59Z</time>
      </trkpt>
      <trkpt lat="43.61967" lon="6.59945">
        <ele>772.7</ele>
        <time>2023-11-26T11:27:00Z</time>
      </trkpt>
      <trkpt lat="43.61967" lon="6.59945">
        <ele>772.5</ele>
        <time>2023-11-26T11:27:01Z</time>
      </trkpt>
      <trkpt lat="43.61967" lon="6.59945">
        <ele>772.5</ele>
        <time>2023-11-26T11:27:02Z</time>
      </trkpt>
      <trkpt lat="43.61967" lon="6.59945">
        <ele>772.5</ele>
        <time>2023-11-26T11:27:03Z</time>
      </trkpt>
      <trkpt lat="43.61967" lon="6.59945">
        <ele>772.4</ele>
        <time>2023-11-26T11:27:04Z</time>
      </trkpt>
      <trkpt lat="43.61967" lon="6.59945">
        <ele>772.3</ele>
        <time>2023-11-26T11:27:05Z</time>
      </trkpt>
      <trkpt lat="43.61967" lon="6.59945">
        <ele>772.3</ele>
        <time>2023-11-26T11:27:06Z</time>
      </trkpt>
      <trkpt lat="43.61967" lon="6.59945">
        <ele>772.3</ele>
        <time>2023-11-26T11:27:07Z</time>
      </trkpt>
      <trkpt lat="43.61967" lon="6.59945">
        <ele>772.3</ele>
        <time>2023-11-26T11:27:08Z</time>
      </trkpt>
      <trkpt lat="43.61967" lon="6.59945">
        <ele>772.3</ele>
        <time>2023-11-26T11:27:09Z</time>
      </trkpt>
      <trkpt lat="43.61967" lon="6.59945">
        <ele>772.3</ele>
        <time>2023-11-26T11:27:10Z</time>
      </trkpt>
      <trkpt lat="43.61967" lon="6.59945">
        <ele>772.2</ele>
        <time>2023-11-26T11:27:11Z</time>
      </trkpt>
      <trkpt lat="43.61967" lon="6.59945">
        <ele>772.2</ele>
        <time>2023-11-26T11:27:12Z</time>
      </trkpt>
      <trkpt lat="43.61967" lon="6.59945">
        <ele>772.2</ele>
        <time>2023-11-26T11:27:13Z</time>
      </trkpt>
      <trkpt lat="43.61967" lon="6.59945">
        <ele>772.2</ele>
        <time>2023-11-26T11:27:14Z</time>
      </trkpt>
      <trkpt lat="43.61967" lon="6.59945">
        <ele>772.3</ele>
        <time>2023-11-26T11:27:15Z</time>
      </trkpt>
      <trkpt lat="43.61967" lon="6.59945">
        <ele>772.2</ele>
        <time>2023-11-26T11:27:16Z</time>
      </trkpt>
      <trkpt lat="43.61967" lon="6.59945">
        <ele>772.2</ele>
        <time>2023-11-26T11:27:17Z</time>
      </trkpt>
      <trkpt lat="43.61967" lon="6.59945">
        <ele>772.1</ele>
        <time>2023-11-26T11:27:18Z</time>
      </trkpt>
      <trkpt lat="43.61967" lon="6.59945">
        <ele>772.1</ele>
        <time>2023-11-26T11:27:19Z</time>
      </trkpt>
      <trkpt lat="43.61967" lon="6.59945">
        <ele>772.1</ele>
        <time>2023-11-26T11:27:20Z</time>
      </trkpt>
      <trkpt lat="43.61967" lon="6.59945">
        <ele>772.1</ele>
        <time>2023-11-26T11:27:21Z</time>
      </trkpt>
      <trkpt lat="43.61967" lon="6.59945">
        <ele>772.1</ele>
        <time>2023-11-26T11:27:22Z</time>
      </trkpt>
      <trkpt lat="43.61967" lon="6.59945">
        <ele>772.1</ele>
        <time>2023-11-26T11:27:23Z</time>
      </trkpt>
      <trkpt lat="43.61967" lon="6.59945">
        <ele>772.1</ele>
        <time>2023-11-26T11:27:24Z</time>
      </trkpt>
      <trkpt lat="43.61967" lon="6.59945">
        <ele>772.1</ele>
        <time>2023-11-26T11:27:25Z</time>
      </trkpt>
      <trkpt lat="43.61967" lon="6.59945">
        <ele>772.1</ele>
        <time>2023-11-26T11:27:26Z</time>
      </trkpt>
      <trkpt lat="43.61967" lon="6.59945">
        <ele>772.1</ele>
        <time>2023-11-26T11:27:27Z</time>
      </trkpt>
      <trkpt lat="43.61967" lon="6.59945">
        <ele>772.1</ele>
        <time>2023-11-26T11:27:28Z</time>
      </trkpt>
      <trkpt lat="43.61967" lon="6.59945">
        <ele>772.1</ele>
        <time>2023-11-26T11:27:29Z</time>
      </trkpt>
      <trkpt lat="43.61967" lon="6.59945">
        <ele>772.2</ele>
        <time>2023-11-26T11:27:30Z</time>
      </trkpt>
      <trkpt lat="43.61967" lon="6.59945">
        <ele>772.2</ele>
        <time>2023-11-26T11:27:31Z</time>
      </trkpt>
      <trkpt lat="43.61967" lon="6.59945">
        <ele>772.2</ele>
        <time>2023-11-26T11:27:32Z</time>
      </trkpt>
      <trkpt lat="43.61967" lon="6.59945">
        <ele>772.2</ele>
        <time>2023-11-26T11:27:33Z</time>
      </trkpt>
      <trkpt lat="43.61967" lon="6.59945">
        <ele>772.3</ele>
        <time>2023-11-26T11:27:34Z</time>
      </trkpt>
      <trkpt lat="43.61967" lon="6.59945">
        <ele>772.3</ele>
        <time>2023-11-26T11:27:35Z</time>
      </trkpt>
      <trkpt lat="43.61968" lon="6.59945">
        <ele>772.2</ele>
        <time>2023-11-26T11:27:36Z</time>
      </trkpt>
      <trkpt lat="43.61968" lon="6.59945">
        <ele>772.2</ele>
        <time>2023-11-26T11:27:37Z</time>
      </trkpt>
      <trkpt lat="43.61968" lon="6.59945">
        <ele>772.2</ele>
        <time>2023-11-26T11:27:38Z</time>
      </trkpt>
      <trkpt lat="43.61968" lon="6.59945">
        <ele>772.1</ele>
        <time>2023-11-26T11:27:39Z</time>
      </trkpt>
      <trkpt lat="43.61968" lon="6.59945">
        <ele>772.1</ele>
        <time>2023-11-26T11:27:40Z</time>
      </trkpt>
      <trkpt lat="43.61968" lon="6.59945">
        <ele>772.1</ele>
        <time>2023-11-26T11:27:41Z</time>
      </trkpt>
      <trkpt lat="43.61968" lon="6.59945">
        <ele>772.1</ele>
        <time>2023-11-26T11:27:42Z</time>
      </trkpt>
      <trkpt lat="43.61968" lon="6.59945">
        <ele>772.1</ele>
        <time>2023-11-26T11:27:43Z</time>
      </trkpt>
      <trkpt lat="43.61968" lon="6.59945">
        <ele>772.1</ele>
        <time>2023-11-26T11:27:44Z</time>
      </trkpt>
      <trkpt lat="43.61968" lon="6.59945">
        <ele>772.1</ele>
        <time>2023-11-26T11:27:45Z</time>
      </trkpt>
      <trkpt lat="43.61968" lon="6.59945">
        <ele>772.1</ele>
        <time>2023-11-26T11:27:46Z</time>
      </trkpt>
      <trkpt lat="43.61968" lon="6.59945">
        <ele>772.2</ele>
        <time>2023-11-26T11:27:47Z</time>
      </trkpt>
      <trkpt lat="43.61968" lon="6.59945">
        <ele>772.3</ele>
        <time>2023-11-26T11:27:48Z</time>
      </trkpt>
      <trkpt lat="43.61968" lon="6.59945">
        <ele>772.3</ele>
        <time>2023-11-26T11:27:49Z</time>
      </trkpt>
      <trkpt lat="43.61968" lon="6.59945">
        <ele>772.4</ele>
        <time>2023-11-26T11:27:50Z</time>
      </trkpt>
      <trkpt lat="43.61968" lon="6.59945">
        <ele>772.4</ele>
        <time>2023-11-26T11:27:51Z</time>
      </trkpt>
      <trkpt lat="43.61968" lon="6.59945">
        <ele>772.3</ele>
        <time>2023-11-26T11:27:52Z</time>
      </trkpt>
      <trkpt lat="43.61968" lon="6.59945">
        <ele>772.3</ele>
        <time>2023-11-26T11:27:53Z</time>
      </trkpt>
      <trkpt lat="43.61968" lon="6.59945">
        <ele>772.3</ele>
        <time>2023-11-26T11:27:54Z</time>
      </trkpt>
      <trkpt lat="43.61968" lon="6.59945">
        <ele>772.2</ele>
        <time>2023-11-26T11:27:55Z</time>
      </trkpt>
      <trkpt lat="43.61968" lon="6.59945">
        <ele>772.2</ele>
        <time>2023-11-26T11:27:56Z</time>
      </trkpt>
      <trkpt lat="43.61968" lon="6.59945">
        <ele>772.2</ele>
        <time>2023-11-26T11:27:57Z</time>
      </trkpt>
      <trkpt lat="43.61968" lon="6.59946">
        <ele>772.3</ele>
        <time>2023-11-26T11:27:58Z</time>
      </trkpt>
      <trkpt lat="43.61968" lon="6.59946">
        <ele>772.3</ele>
        <time>2023-11-26T11:27:59Z</time>
      </trkpt>
      <trkpt lat="43.61968" lon="6.59946">
        <ele>772.3</ele>
        <time>2023-11-26T11:28:00Z</time>
      </trkpt>
      <trkpt lat="43.61968" lon="6.59946">
        <ele>772.4</ele>
        <time>2023-11-26T11:28:01Z</time>
      </trkpt>
      <trkpt lat="43.61968" lon="6.59946">
        <ele>772.4</ele>
        <time>2023-11-26T11:28:02Z</time>
      </trkpt>
      <trkpt lat="43.61968" lon="6.59946">
        <ele>772.4</ele>
        <time>2023-11-26T11:28:03Z</time>
      </trkpt>
      <trkpt lat="43.61968" lon="6.59946">
        <ele>772.5</ele>
        <time>2023-11-26T11:28:04Z</time>
      </trkpt>
      <trkpt lat="43.61968" lon="6.59946">
        <ele>772.5</ele>
        <time>2023-11-26T11:28:05Z</time>
      </trkpt>
      <trkpt lat="43.61968" lon="6.59946">
        <ele>772.5</ele>
        <time>2023-11-26T11:28:06Z</time>
      </trkpt>
      <trkpt lat="43.61967" lon="6.59946">
        <ele>772.5</ele>
        <time>2023-11-26T11:28:07Z</time>
      </trkpt>
      <trkpt lat="43.61967" lon="6.59946">
        <ele>772.5</ele>
        <time>2023-11-26T11:28:08Z</time>
      </trkpt>
      <trkpt lat="43.61967" lon="6.59946">
        <ele>772.5</ele>
        <time>2023-11-26T11:28:09Z</time>
      </trkpt>
      <trkpt lat="43.61967" lon="6.59946">
        <ele>772.5</ele>
        <time>2023-11-26T11:28:10Z</time>
      </trkpt>
      <trkpt lat="43.61967" lon="6.59946">
        <ele>772.5</ele>
        <time>2023-11-26T11:28:11Z</time>
      </trkpt>
      <trkpt lat="43.61967" lon="6.59946">
        <ele>772.4</ele>
        <time>2023-11-26T11:28:12Z</time>
      </trkpt>
      <trkpt lat="43.61967" lon="6.59945">
        <ele>772.4</ele>
        <time>2023-11-26T11:28:13Z</time>
      </trkpt>
      <trkpt lat="43.61967" lon="6.59945">
        <ele>772.4</ele>
        <time>2023-11-26T11:28:14Z</time>
      </trkpt>
      <trkpt lat="43.61967" lon="6.59945">
        <ele>772.5</ele>
        <time>2023-11-26T11:28:15Z</time>
      </trkpt>
      <trkpt lat="43.61967" lon="6.59945">
        <ele>772.4</ele>
        <time>2023-11-26T11:28:16Z</time>
      </trkpt>
      <trkpt lat="43.61967" lon="6.59945">
        <ele>772.4</ele>
        <time>2023-11-26T11:28:17Z</time>
      </trkpt>
      <trkpt lat="43.61967" lon="6.59945">
        <ele>772.3</ele>
        <time>2023-11-26T11:28:18Z</time>
      </trkpt>
      <trkpt lat="43.61967" lon="6.59945">
        <ele>772.4</ele>
        <time>2023-11-26T11:28:19Z</time>
      </trkpt>
      <trkpt lat="43.61968" lon="6.59945">
        <ele>772.3</ele>
        <time>2023-11-26T11:28:20Z</time>
      </trkpt>
      <trkpt lat="43.61968" lon="6.59945">
        <ele>772.4</ele>
        <time>2023-11-26T11:28:21Z</time>
      </trkpt>
      <trkpt lat="43.61968" lon="6.59945">
        <ele>772.4</ele>
        <time>2023-11-26T11:28:22Z</time>
      </trkpt>
      <trkpt lat="43.61968" lon="6.59945">
        <ele>772.4</ele>
        <time>2023-11-26T11:28:23Z</time>
      </trkpt>
      <trkpt lat="43.61968" lon="6.59945">
        <ele>772.4</ele>
        <time>2023-11-26T11:28:24Z</time>
      </trkpt>
      <trkpt lat="43.61968" lon="6.59945">
        <ele>772.3</ele>
        <time>2023-11-26T11:28:25Z</time>
      </trkpt>
      <trkpt lat="43.61968" lon="6.59945">
        <ele>772.2</ele>
        <time>2023-11-26T11:28:26Z</time>
      </trkpt>
      <trkpt lat="43.61968" lon="6.59945">
        <ele>772.1</ele>
        <time>2023-11-26T11:28:27Z</time>
      </trkpt>
      <trkpt lat="43.61968" lon="6.59945">
        <ele>772.2</ele>
        <time>2023-11-26T11:28:28Z</time>
      </trkpt>
      <trkpt lat="43.61968" lon="6.59945">
        <ele>772.2</ele>
        <time>2023-11-26T11:28:29Z</time>
      </trkpt>
      <trkpt lat="43.61968" lon="6.59945">
        <ele>772.2</ele>
        <time>2023-11-26T11:28:30Z</time>
      </trkpt>
      <trkpt lat="43.61968" lon="6.59945">
        <ele>772.1</ele>
        <time>2023-11-26T11:28:31Z</time>
      </trkpt>
      <trkpt lat="43.61968" lon="6.59946">
        <ele>772.1</ele>
        <time>2023-11-26T11:28:32Z</time>
      </trkpt>
      <trkpt lat="43.61968" lon="6.59946">
        <ele>772.1</ele>
        <time>2023-11-26T11:28:33Z</time>
      </trkpt>
      <trkpt lat="43.61968" lon="6.59946">
        <ele>772.1</ele>
        <time>2023-11-26T11:28:34Z</time>
      </trkpt>
      <trkpt lat="43.61968" lon="6.59946">
        <ele>772.1</ele>
        <time>2023-11-26T11:28:35Z</time>
      </trkpt>
      <trkpt lat="43.61968" lon="6.59946">
        <ele>772.2</ele>
        <time>2023-11-26T11:28:36Z</time>
      </trkpt>
      <trkpt lat="43.61968" lon="6.59946">
        <ele>772.2</ele>
        <time>2023-11-26T11:28:37Z</time>
      </trkpt>
      <trkpt lat="43.61968" lon="6.59946">
        <ele>772.1</ele>
        <time>2023-11-26T11:28:38Z</time>
      </trkpt>
      <trkpt lat="43.61968" lon="6.59946">
        <ele>772.1</ele>
        <time>2023-11-26T11:28:39Z</time>
      </trkpt>
      <trkpt lat="43.61968" lon="6.59946">
        <ele>772.1</ele>
        <time>2023-11-26T11:28:40Z</time>
      </trkpt>
      <trkpt lat="43.61968" lon="6.59946">
        <ele>772</ele>
        <time>2023-11-26T11:28:41Z</time>
      </trkpt>
      <trkpt lat="43.61968" lon="6.59946">
        <ele>772</ele>
        <time>2023-11-26T11:28:42Z</time>
      </trkpt>
      <trkpt lat="43.61967" lon="6.59946">
        <ele>772</ele>
        <time>2023-11-26T11:28:43Z</time>
      </trkpt>
      <trkpt lat="43.61967" lon="6.59946">
        <ele>772.1</ele>
        <time>2023-11-26T11:28:44Z</time>
      </trkpt>
      <trkpt lat="43.61967" lon="6.59947">
        <ele>772.1</ele>
        <time>2023-11-26T11:28:45Z</time>
      </trkpt>
      <trkpt lat="43.61967" lon="6.59947">
        <ele>772.1</ele>
        <time>2023-11-26T11:28:46Z</time>
      </trkpt>
      <trkpt lat="43.61967" lon="6.59947">
        <ele>772.1</ele>
        <time>2023-11-26T11:28:47Z</time>
      </trkpt>
      <trkpt lat="43.61967" lon="6.59947">
        <ele>772.1</ele>
        <time>2023-11-26T11:28:48Z</time>
      </trkpt>
      <trkpt lat="43.61967" lon="6.59947">
        <ele>772.1</ele>
        <time>2023-11-26T11:28:49Z</time>
      </trkpt>
      <trkpt lat="43.61967" lon="6.59947">
        <ele>772</ele>
        <time>2023-11-26T11:28:50Z</time>
      </trkpt>
      <trkpt lat="43.61967" lon="6.59947">
        <ele>772.1</ele>
        <time>2023-11-26T11:28:51Z</time>
      </trkpt>
      <trkpt lat="43.61967" lon="6.59947">
        <ele>772.1</ele>
        <time>2023-11-26T11:28:52Z</time>
      </trkpt>
      <trkpt lat="43.61967" lon="6.59947">
        <ele>772.1</ele>
        <time>2023-11-26T11:28:53Z</time>
      </trkpt>
      <trkpt lat="43.61967" lon="6.59947">
        <ele>772.1</ele>
        <time>2023-11-26T11:28:54Z</time>
      </trkpt>
      <trkpt lat="43.61967" lon="6.59946">
        <ele>772.1</ele>
        <time>2023-11-26T11:28:55Z</time>
      </trkpt>
      <trkpt lat="43.61967" lon="6.59946">
        <ele>772.1</ele>
        <time>2023-11-26T11:28:56Z</time>
      </trkpt>
      <trkpt lat="43.61967" lon="6.59946">
        <ele>772.1</ele>
        <time>2023-11-26T11:28:57Z</time>
      </trkpt>
      <trkpt lat="43.61967" lon="6.59946">
        <ele>772.1</ele>
        <time>2023-11-26T11:28:58Z</time>
      </trkpt>
      <trkpt lat="43.61967" lon="6.59946">
        <ele>772.1</ele>
        <time>2023-11-26T11:28:59Z</time>
      </trkpt>
      <trkpt lat="43.61966" lon="6.59946">
        <ele>772.2</ele>
        <time>2023-11-26T11:29:00Z</time>
      </trkpt>
      <trkpt lat="43.61966" lon="6.59946">
        <ele>772.2</ele>
        <time>2023-11-26T11:29:01Z</time>
      </trkpt>
      <trkpt lat="43.61966" lon="6.59946">
        <ele>772.2</ele>
        <time>2023-11-26T11:29:02Z</time>
      </trkpt>
      <trkpt lat="43.61966" lon="6.59946">
        <ele>772.3</ele>
        <time>2023-11-26T11:29:03Z</time>
      </trkpt>
      <trkpt lat="43.61966" lon="6.59946">
        <ele>772.3</ele>
        <time>2023-11-26T11:29:04Z</time>
      </trkpt>
      <trkpt lat="43.61966" lon="6.59946">
        <ele>772.3</ele>
        <time>2023-11-26T11:29:05Z</time>
      </trkpt>
      <trkpt lat="43.61966" lon="6.59946">
        <ele>772.3</ele>
        <time>2023-11-26T11:29:06Z</time>
      </trkpt>
      <trkpt lat="43.61966" lon="6.59946">
        <ele>772.3</ele>
        <time>2023-11-26T11:29:07Z</time>
      </trkpt>
      <trkpt lat="43.61966" lon="6.59946">
        <ele>772.3</ele>
        <time>2023-11-26T11:29:08Z</time>
      </trkpt>
      <trkpt lat="43.61966" lon="6.59946">
        <ele>772.4</ele>
        <time>2023-11-26T11:29:09Z</time>
      </trkpt>
      <trkpt lat="43.61966" lon="6.59946">
        <ele>772.5</ele>
        <time>2023-11-26T11:29:10Z</time>
      </trkpt>
      <trkpt lat="43.61966" lon="6.59946">
        <ele>772.6</ele>
        <time>2023-11-26T11:29:11Z</time>
      </trkpt>
      <trkpt lat="43.61966" lon="6.59946">
        <ele>772.6</ele>
        <time>2023-11-26T11:29:12Z</time>
      </trkpt>
      <trkpt lat="43.61966" lon="6.59946">
        <ele>772.6</ele>
        <time>2023-11-26T11:29:13Z</time>
      </trkpt>
      <trkpt lat="43.61966" lon="6.59946">
        <ele>772.5</ele>
        <time>2023-11-26T11:29:14Z</time>
      </trkpt>
      <trkpt lat="43.61966" lon="6.59946">
        <ele>772.5</ele>
        <time>2023-11-26T11:29:15Z</time>
      </trkpt>
      <trkpt lat="43.61965" lon="6.59946">
        <ele>772.5</ele>
        <time>2023-11-26T11:29:16Z</time>
      </trkpt>
      <trkpt lat="43.61965" lon="6.59946">
        <ele>772.3</ele>
        <time>2023-11-26T11:29:17Z</time>
      </trkpt>
      <trkpt lat="43.61965" lon="6.59946">
        <ele>772.3</ele>
        <time>2023-11-26T11:29:18Z</time>
      </trkpt>
      <trkpt lat="43.61965" lon="6.59946">
        <ele>772.3</ele>
        <time>2023-11-26T11:29:19Z</time>
      </trkpt>
      <trkpt lat="43.61965" lon="6.59946">
        <ele>772.4</ele>
        <time>2023-11-26T11:29:20Z</time>
      </trkpt>
      <trkpt lat="43.61965" lon="6.59946">
        <ele>772.3</ele>
        <time>2023-11-26T11:29:21Z</time>
      </trkpt>
      <trkpt lat="43.61965" lon="6.59946">
        <ele>772.3</ele>
        <time>2023-11-26T11:29:22Z</time>
      </trkpt>
      <trkpt lat="43.61965" lon="6.59946">
        <ele>772.2</ele>
        <time>2023-11-26T11:29:23Z</time>
      </trkpt>
      <trkpt lat="43.61965" lon="6.59946">
        <ele>772.4</ele>
        <time>2023-11-26T11:29:24Z</time>
      </trkpt>
      <trkpt lat="43.61965" lon="6.59946">
        <ele>772.4</ele>
        <time>2023-11-26T11:29:25Z</time>
      </trkpt>
      <trkpt lat="43.61965" lon="6.59946">
        <ele>772.5</ele>
        <time>2023-11-26T11:29:26Z</time>
      </trkpt>
      <trkpt lat="43.61965" lon="6.59946">
        <ele>772.4</ele>
        <time>2023-11-26T11:29:27Z</time>
      </trkpt>
      <trkpt lat="43.61965" lon="6.59946">
        <ele>772.3</ele>
        <time>2023-11-26T11:29:28Z</time>
      </trkpt>
      <trkpt lat="43.61965" lon="6.59946">
        <ele>772.2</ele>
        <time>2023-11-26T11:29:29Z</time>
      </trkpt>
      <trkpt lat="43.61965" lon="6.59946">
        <ele>772</ele>
        <time>2023-11-26T11:29:30Z</time>
      </trkpt>
      <trkpt lat="43.61965" lon="6.59946">
        <ele>772</ele>
        <time>2023-11-26T11:29:31Z</time>
      </trkpt>
      <trkpt lat="43.61965" lon="6.59946">
        <ele>772</ele>
        <time>2023-11-26T11:29:32Z</time>
      </trkpt>
      <trkpt lat="43.61965" lon="6.59946">
        <ele>772.1</ele>
        <time>2023-11-26T11:29:33Z</time>
      </trkpt>
      <trkpt lat="43.61965" lon="6.59946">
        <ele>772.2</ele>
        <time>2023-11-26T11:29:34Z</time>
      </trkpt>
      <trkpt lat="43.61965" lon="6.59946">
        <ele>772.2</ele>
        <time>2023-11-26T11:29:35Z</time>
      </trkpt>
      <trkpt lat="43.61965" lon="6.59946">
        <ele>772.2</ele>
        <time>2023-11-26T11:29:36Z</time>
      </trkpt>
      <trkpt lat="43.61965" lon="6.59946">
        <ele>772.2</ele>
        <time>2023-11-26T11:29:37Z</time>
      </trkpt>
      <trkpt lat="43.61965" lon="6.59946">
        <ele>772.2</ele>
        <time>2023-11-26T11:29:38Z</time>
      </trkpt>
      <trkpt lat="43.61965" lon="6.59946">
        <ele>772.2</ele>
        <time>2023-11-26T11:29:39Z</time>
      </trkpt>
      <trkpt lat="43.61965" lon="6.59946">
        <ele>772.2</ele>
        <time>2023-11-26T11:29:40Z</time>
      </trkpt>
      <trkpt lat="43.61965" lon="6.59946">
        <ele>772.1</ele>
        <time>2023-11-26T11:29:41Z</time>
      </trkpt>
      <trkpt lat="43.61965" lon="6.59945">
        <ele>772.1</ele>
        <time>2023-11-26T11:29:42Z</time>
      </trkpt>
      <trkpt lat="43.61965" lon="6.59945">
        <ele>772.1</ele>
        <time>2023-11-26T11:29:43Z</time>
      </trkpt>
      <trkpt lat="43.61965" lon="6.59945">
        <ele>772.2</ele>
        <time>2023-11-26T11:29:44Z</time>
      </trkpt>
      <trkpt lat="43.61965" lon="6.59945">
        <ele>772.2</ele>
        <time>2023-11-26T11:29:45Z</time>
      </trkpt>
      <trkpt lat="43.61965" lon="6.59946">
        <ele>772.2</ele>
        <time>2023-11-26T11:29:46Z</time>
      </trkpt>
      <trkpt lat="43.61965" lon="6.59946">
        <ele>772.2</ele>
        <time>2023-11-26T11:29:47Z</time>
      </trkpt>
      <trkpt lat="43.61965" lon="6.59946">
        <ele>772.2</ele>
        <time>2023-11-26T11:29:48Z</time>
      </trkpt>
      <trkpt lat="43.61965" lon="6.59946">
        <ele>772.2</ele>
        <time>2023-11-26T11:29:49Z</time>
      </trkpt>
      <trkpt lat="43.61965" lon="6.59945">
        <ele>772.2</ele>
        <time>2023-11-26T11:29:50Z</time>
      </trkpt>
      <trkpt lat="43.61965" lon="6.59945">
        <ele>772.2</ele>
        <time>2023-11-26T11:29:51Z</time>
      </trkpt>
      <trkpt lat="43.61965" lon="6.59945">
        <ele>772.2</ele>
        <time>2023-11-26T11:29:52Z</time>
      </trkpt>
      <trkpt lat="43.61965" lon="6.59945">
        <ele>772.2</ele>
        <time>2023-11-26T11:29:53Z</time>
      </trkpt>
      <trkpt lat="43.61965" lon="6.59944">
        <ele>772.2</ele>
        <time>2023-11-26T11:29:54Z</time>
      </trkpt>
      <trkpt lat="43.61965" lon="6.59944">
        <ele>772.2</ele>
        <time>2023-11-26T11:29:55Z</time>
      </trkpt>
      <trkpt lat="43.61966" lon="6.59944">
        <ele>772.1</ele>
        <time>2023-11-26T11:29:56Z</time>
      </trkpt>
      <trkpt lat="43.61966" lon="6.59944">
        <ele>772.1</ele>
        <time>2023-11-26T11:29:57Z</time>
      </trkpt>
      <trkpt lat="43.61966" lon="6.59944">
        <ele>772.1</ele>
        <time>2023-11-26T11:29:58Z</time>
      </trkpt>
      <trkpt lat="43.61966" lon="6.59944">
        <ele>772.1</ele>
        <time>2023-11-26T11:29:59Z</time>
      </trkpt>
      <trkpt lat="43.61966" lon="6.59944">
        <ele>772.2</ele>
        <time>2023-11-26T11:30:00Z</time>
      </trkpt>
      <trkpt lat="43.61966" lon="6.59944">
        <ele>772.2</ele>
        <time>2023-11-26T11:30:01Z</time>
      </trkpt>
      <trkpt lat="43.61965" lon="6.59943">
        <ele>772.2</ele>
        <time>2023-11-26T11:30:02Z</time>
      </trkpt>
      <trkpt lat="43.61966" lon="6.59943">
        <ele>772.3</ele>
        <time>2023-11-26T11:30:03Z</time>
      </trkpt>
      <trkpt lat="43.61966" lon="6.59943">
        <ele>772.3</ele>
        <time>2023-11-26T11:30:04Z</time>
      </trkpt>
      <trkpt lat="43.61966" lon="6.59943">
        <ele>772.4</ele>
        <time>2023-11-26T11:30:05Z</time>
      </trkpt>
      <trkpt lat="43.61965" lon="6.59943">
        <ele>772.4</ele>
        <time>2023-11-26T11:30:06Z</time>
      </trkpt>
      <trkpt lat="43.61965" lon="6.59944">
        <ele>772.4</ele>
        <time>2023-11-26T11:30:07Z</time>
      </trkpt>
      <trkpt lat="43.61965" lon="6.59944">
        <ele>772.4</ele>
        <time>2023-11-26T11:30:08Z</time>
      </trkpt>
      <trkpt lat="43.61966" lon="6.59944">
        <ele>772.4</ele>
        <time>2023-11-26T11:30:09Z</time>
      </trkpt>
      <trkpt lat="43.61966" lon="6.59944">
        <ele>772.4</ele>
        <time>2023-11-26T11:30:10Z</time>
      </trkpt>
      <trkpt lat="43.61966" lon="6.59944">
        <ele>772.3</ele>
        <time>2023-11-26T11:30:11Z</time>
      </trkpt>
      <trkpt lat="43.61966" lon="6.59944">
        <ele>772.3</ele>
        <time>2023-11-26T11:30:12Z</time>
      </trkpt>
      <trkpt lat="43.61965" lon="6.59944">
        <ele>772.3</ele>
        <time>2023-11-26T11:30:13Z</time>
      </trkpt>
      <trkpt lat="43.61965" lon="6.59944">
        <ele>772.3</ele>
        <time>2023-11-26T11:30:14Z</time>
      </trkpt>
      <trkpt lat="43.61965" lon="6.59944">
        <ele>772.4</ele>
        <time>2023-11-26T11:30:15Z</time>
      </trkpt>
      <trkpt lat="43.61965" lon="6.59945">
        <ele>772.4</ele>
        <time>2023-11-26T11:30:16Z</time>
      </trkpt>
      <trkpt lat="43.61965" lon="6.59945">
        <ele>772.4</ele>
        <time>2023-11-26T11:30:17Z</time>
      </trkpt>
      <trkpt lat="43.61965" lon="6.59944">
        <ele>772.4</ele>
        <time>2023-11-26T11:30:18Z</time>
      </trkpt>
      <trkpt lat="43.61965" lon="6.59944">
        <ele>772.5</ele>
        <time>2023-11-26T11:30:19Z</time>
      </trkpt>
      <trkpt lat="43.61965" lon="6.59944">
        <ele>772.6</ele>
        <time>2023-11-26T11:30:20Z</time>
      </trkpt>
      <trkpt lat="43.61965" lon="6.59944">
        <ele>772.5</ele>
        <time>2023-11-26T11:30:21Z</time>
      </trkpt>
      <trkpt lat="43.61966" lon="6.59944">
        <ele>772.5</ele>
        <time>2023-11-26T11:30:22Z</time>
      </trkpt>
      <trkpt lat="43.61966" lon="6.59944">
        <ele>772.5</ele>
        <time>2023-11-26T11:30:23Z</time>
      </trkpt>
      <trkpt lat="43.61966" lon="6.59944">
        <ele>772.5</ele>
        <time>2023-11-26T11:30:24Z</time>
      </trkpt>
      <trkpt lat="43.61966" lon="6.59944">
        <ele>772.5</ele>
        <time>2023-11-26T11:30:25Z</time>
      </trkpt>
      <trkpt lat="43.61966" lon="6.59944">
        <ele>772.5</ele>
        <time>2023-11-26T11:30:26Z</time>
      </trkpt>
      <trkpt lat="43.61966" lon="6.59944">
        <ele>772.4</ele>
        <time>2023-11-26T11:30:27Z</time>
      </trkpt>
      <trkpt lat="43.61967" lon="6.59943">
        <ele>772.4</ele>
        <time>2023-11-26T11:30:28Z</time>
      </trkpt>
      <trkpt lat="43.61967" lon="6.59943">
        <ele>772.4</ele>
        <time>2023-11-26T11:30:29Z</time>
      </trkpt>
      <trkpt lat="43.61967" lon="6.59943">
        <ele>772.4</ele>
        <time>2023-11-26T11:30:30Z</time>
      </trkpt>
      <trkpt lat="43.61967" lon="6.59943">
        <ele>772.5</ele>
        <time>2023-11-26T11:30:31Z</time>
      </trkpt>
      <trkpt lat="43.61967" lon="6.59943">
        <ele>772.5</ele>
        <time>2023-11-26T11:30:32Z</time>
      </trkpt>
      <trkpt lat="43.61967" lon="6.59943">
        <ele>772.6</ele>
        <time>2023-11-26T11:30:33Z</time>
      </trkpt>
      <trkpt lat="43.61966" lon="6.59943">
        <ele>772.6</ele>
        <time>2023-11-26T11:30:34Z</time>
      </trkpt>
      <trkpt lat="43.61966" lon="6.59943">
        <ele>772.6</ele>
        <time>2023-11-26T11:30:35Z</time>
      </trkpt>
      <trkpt lat="43.61966" lon="6.59943">
        <ele>772.6</ele>
        <time>2023-11-26T11:30:36Z</time>
      </trkpt>
      <trkpt lat="43.61966" lon="6.59943">
        <ele>772.5</ele>
        <time>2023-11-26T11:30:37Z</time>
      </trkpt>
      <trkpt lat="43.61966" lon="6.59943">
        <ele>772.5</ele>
        <time>2023-11-26T11:30:38Z</time>
      </trkpt>
      <trkpt lat="43.61966" lon="6.59943">
        <ele>772.4</ele>
        <time>2023-11-26T11:30:39Z</time>
      </trkpt>
      <trkpt lat="43.61966" lon="6.59943">
        <ele>772.4</ele>
        <time>2023-11-26T11:30:40Z</time>
      </trkpt>
      <trkpt lat="43.61966" lon="6.59943">
        <ele>772.4</ele>
        <time>2023-11-26T11:30:41Z</time>
      </trkpt>
      <trkpt lat="43.61967" lon="6.59943">
        <ele>772.4</ele>
        <time>2023-11-26T11:30:42Z</time>
      </trkpt>
      <trkpt lat="43.61967" lon="6.59943">
        <ele>772.5</ele>
        <time>2023-11-26T11:30:43Z</time>
      </trkpt>
      <trkpt lat="43.61967" lon="6.59943">
        <ele>772.6</ele>
        <time>2023-11-26T11:30:44Z</time>
      </trkpt>
      <trkpt lat="43.61967" lon="6.59943">
        <ele>772.5</ele>
        <time>2023-11-26T11:30:45Z</time>
      </trkpt>
      <trkpt lat="43.61967" lon="6.59943">
        <ele>772.4</ele>
        <time>2023-11-26T11:30:46Z</time>
      </trkpt>
      <trkpt lat="43.61967" lon="6.59943">
        <ele>772.4</ele>
        <time>2023-11-26T11:30:47Z</time>
      </trkpt>
      <trkpt lat="43.61967" lon="6.59943">
        <ele>772.4</ele>
        <time>2023-11-26T11:30:48Z</time>
      </trkpt>
      <trkpt lat="43.61967" lon="6.59943">
        <ele>772.4</ele>
        <time>2023-11-26T11:30:49Z</time>
      </trkpt>
      <trkpt lat="43.61966" lon="6.59943">
        <ele>772.4</ele>
        <time>2023-11-26T11:30:50Z</time>
      </trkpt>
      <trkpt lat="43.61966" lon="6.59943">
        <ele>772.4</ele>
        <time>2023-11-26T11:30:51Z</time>
      </trkpt>
      <trkpt lat="43.61966" lon="6.59943">
        <ele>772.4</ele>
        <time>2023-11-26T11:30:52Z</time>
      </trkpt>
      <trkpt lat="43.61966" lon="6.59943">
        <ele>772.4</ele>
        <time>2023-11-26T11:30:53Z</time>
      </trkpt>
      <trkpt lat="43.61966" lon="6.59943">
        <ele>772.3</ele>
        <time>2023-11-26T11:30:54Z</time>
      </trkpt>
      <trkpt lat="43.61966" lon="6.59943">
        <ele>772.3</ele>
        <time>2023-11-26T11:30:55Z</time>
      </trkpt>
      <trkpt lat="43.61966" lon="6.59943">
        <ele>772.4</ele>
        <time>2023-11-26T11:30:56Z</time>
      </trkpt>
      <trkpt lat="43.61966" lon="6.59943">
        <ele>772.4</ele>
        <time>2023-11-26T11:30:57Z</time>
      </trkpt>
      <trkpt lat="43.61966" lon="6.59943">
        <ele>772.4</ele>
        <time>2023-11-26T11:30:58Z</time>
      </trkpt>
      <trkpt lat="43.61965" lon="6.59943">
        <ele>772.4</ele>
        <time>2023-11-26T11:30:59Z</time>
      </trkpt>
      <trkpt lat="43.61966" lon="6.59943">
        <ele>772.4</ele>
        <time>2023-11-26T11:31:00Z</time>
      </trkpt>
      <trkpt lat="43.61966" lon="6.59943">
        <ele>772.5</ele>
        <time>2023-11-26T11:31:01Z</time>
      </trkpt>
      <trkpt lat="43.61966" lon="6.59943">
        <ele>772.5</ele>
        <time>2023-11-26T11:31:02Z</time>
      </trkpt>
      <trkpt lat="43.61966" lon="6.59943">
        <ele>772.5</ele>
        <time>2023-11-26T11:31:03Z</time>
      </trkpt>
      <trkpt lat="43.61966" lon="6.59943">
        <ele>772.5</ele>
        <time>2023-11-26T11:31:04Z</time>
      </trkpt>
      <trkpt lat="43.61966" lon="6.59944">
        <ele>772.5</ele>
        <time>2023-11-26T11:31:05Z</time>
      </trkpt>
      <trkpt lat="43.61966" lon="6.59944">
        <ele>772.5</ele>
        <time>2023-11-26T11:31:06Z</time>
      </trkpt>
      <trkpt lat="43.61966" lon="6.59944">
        <ele>772.5</ele>
        <time>2023-11-26T11:31:07Z</time>
      </trkpt>
      <trkpt lat="43.61966" lon="6.59944">
        <ele>772.5</ele>
        <time>2023-11-26T11:31:08Z</time>
      </trkpt>
      <trkpt lat="43.61966" lon="6.59944">
        <ele>772.5</ele>
        <time>2023-11-26T11:31:09Z</time>
      </trkpt>
      <trkpt lat="43.61966" lon="6.59944">
        <ele>772.4</ele>
        <time>2023-11-26T11:31:10Z</time>
      </trkpt>
      <trkpt lat="43.61966" lon="6.59944">
        <ele>772.4</ele>
        <time>2023-11-26T11:31:11Z</time>
      </trkpt>
      <trkpt lat="43.61966" lon="6.59944">
        <ele>772.4</ele>
        <time>2023-11-26T11:31:12Z</time>
      </trkpt>
      <trkpt lat="43.61966" lon="6.59944">
        <ele>772.4</ele>
        <time>2023-11-26T11:31:13Z</time>
      </trkpt>
      <trkpt lat="43.61966" lon="6.59944">
        <ele>772.3</ele>
        <time>2023-11-26T11:31:14Z</time>
      </trkpt>
      <trkpt lat="43.61966" lon="6.59944">
        <ele>772.3</ele>
        <time>2023-11-26T11:31:15Z</time>
      </trkpt>
      <trkpt lat="43.61966" lon="6.59944">
        <ele>772.3</ele>
        <time>2023-11-26T11:31:16Z</time>
      </trkpt>
      <trkpt lat="43.61966" lon="6.59944">
        <ele>772.2</ele>
        <time>2023-11-26T11:31:17Z</time>
      </trkpt>
      <trkpt lat="43.61966" lon="6.59944">
        <ele>772.2</ele>
        <time>2023-11-26T11:31:18Z</time>
      </trkpt>
      <trkpt lat="43.61966" lon="6.59944">
        <ele>772.3</ele>
        <time>2023-11-26T11:31:19Z</time>
      </trkpt>
      <trkpt lat="43.61966" lon="6.59944">
        <ele>772.3</ele>
        <time>2023-11-26T11:31:20Z</time>
      </trkpt>
      <trkpt lat="43.61966" lon="6.59944">
        <ele>772.3</ele>
        <time>2023-11-26T11:31:21Z</time>
      </trkpt>
      <trkpt lat="43.61966" lon="6.59944">
        <ele>772.4</ele>
        <time>2023-11-26T11:31:22Z</time>
      </trkpt>
      <trkpt lat="43.61966" lon="6.59944">
        <ele>772.4</ele>
        <time>2023-11-26T11:31:23Z</time>
      </trkpt>
      <trkpt lat="43.61966" lon="6.59944">
        <ele>772.4</ele>
        <time>2023-11-26T11:31:24Z</time>
      </trkpt>
      <trkpt lat="43.61966" lon="6.59944">
        <ele>772.3</ele>
        <time>2023-11-26T11:31:25Z</time>
      </trkpt>
      <trkpt lat="43.61966" lon="6.59944">
        <ele>772.3</ele>
        <time>2023-11-26T11:31:26Z</time>
      </trkpt>
      <trkpt lat="43.61966" lon="6.59944">
        <ele>772.2</ele>
        <time>2023-11-26T11:31:27Z</time>
      </trkpt>
      <trkpt lat="43.61966" lon="6.59944">
        <ele>772.2</ele>
        <time>2023-11-26T11:31:28Z</time>
      </trkpt>
      <trkpt lat="43.61966" lon="6.59944">
        <ele>772.2</ele>
        <time>2023-11-26T11:31:29Z</time>
      </trkpt>
      <trkpt lat="43.61967" lon="6.59944">
        <ele>772.2</ele>
        <time>2023-11-26T11:31:30Z</time>
      </trkpt>
      <trkpt lat="43.61967" lon="6.59944">
        <ele>772.3</ele>
        <time>2023-11-26T11:31:31Z</time>
      </trkpt>
      <trkpt lat="43.61967" lon="6.59944">
        <ele>772.3</ele>
        <time>2023-11-26T11:31:32Z</time>
      </trkpt>
      <trkpt lat="43.61967" lon="6.59944">
        <ele>772.3</ele>
        <time>2023-11-26T11:31:33Z</time>
      </trkpt>
      <trkpt lat="43.61967" lon="6.59944">
        <ele>772.3</ele>
        <time>2023-11-26T11:31:34Z</time>
      </trkpt>
      <trkpt lat="43.61967" lon="6.59944">
        <ele>772.3</ele>
        <time>2023-11-26T11:31:35Z</time>
      </trkpt>
      <trkpt lat="43.61967" lon="6.59945">
        <ele>772.3</ele>
        <time>2023-11-26T11:31:36Z</time>
      </trkpt>
      <trkpt lat="43.61967" lon="6.59945">
        <ele>772.3</ele>
        <time>2023-11-26T11:31:37Z</time>
      </trkpt>
      <trkpt lat="43.61967" lon="6.59945">
        <ele>772.3</ele>
        <time>2023-11-26T11:31:38Z</time>
      </trkpt>
      <trkpt lat="43.61967" lon="6.59945">
        <ele>772.3</ele>
        <time>2023-11-26T11:31:39Z</time>
      </trkpt>
      <trkpt lat="43.61967" lon="6.59944">
        <ele>772.4</ele>
        <time>2023-11-26T11:31:40Z</time>
      </trkpt>
      <trkpt lat="43.61967" lon="6.59944">
        <ele>772.4</ele>
        <time>2023-11-26T11:31:41Z</time>
      </trkpt>
      <trkpt lat="43.61967" lon="6.59944">
        <ele>772.5</ele>
        <time>2023-11-26T11:31:42Z</time>
      </trkpt>
      <trkpt lat="43.61967" lon="6.59944">
        <ele>772.6</ele>
        <time>2023-11-26T11:31:43Z</time>
      </trkpt>
      <trkpt lat="43.61967" lon="6.59944">
        <ele>772.6</ele>
        <time>2023-11-26T11:31:44Z</time>
      </trkpt>
      <trkpt lat="43.61967" lon="6.59944">
        <ele>772.7</ele>
        <time>2023-11-26T11:31:45Z</time>
      </trkpt>
      <trkpt lat="43.61966" lon="6.59944">
        <ele>772.7</ele>
        <time>2023-11-26T11:31:46Z</time>
      </trkpt>
      <trkpt lat="43.61966" lon="6.59944">
        <ele>772.7</ele>
        <time>2023-11-26T11:31:47Z</time>
      </trkpt>
      <trkpt lat="43.61965" lon="6.59944">
        <ele>772.8</ele>
        <time>2023-11-26T11:31:48Z</time>
      </trkpt>
      <trkpt lat="43.61965" lon="6.59944">
        <ele>772.8</ele>
        <time>2023-11-26T11:31:49Z</time>
      </trkpt>
      <trkpt lat="43.61965" lon="6.59944">
        <ele>772.8</ele>
        <time>2023-11-26T11:31:50Z</time>
      </trkpt>
      <trkpt lat="43.61965" lon="6.59944">
        <ele>772.9</ele>
        <time>2023-11-26T11:31:51Z</time>
      </trkpt>
      <trkpt lat="43.61965" lon="6.59944">
        <ele>772.9</ele>
        <time>2023-11-26T11:31:52Z</time>
      </trkpt>
      <trkpt lat="43.61965" lon="6.59944">
        <ele>772.9</ele>
        <time>2023-11-26T11:31:53Z</time>
      </trkpt>
      <trkpt lat="43.61965" lon="6.59944">
        <ele>772.9</ele>
        <time>2023-11-26T11:31:54Z</time>
      </trkpt>
      <trkpt lat="43.61965" lon="6.59944">
        <ele>772.8</ele>
        <time>2023-11-26T11:31:55Z</time>
      </trkpt>
      <trkpt lat="43.61965" lon="6.59944">
        <ele>772.7</ele>
        <time>2023-11-26T11:31:56Z</time>
      </trkpt>
      <trkpt lat="43.61965" lon="6.59944">
        <ele>772.7</ele>
        <time>2023-11-26T11:31:57Z</time>
      </trkpt>
      <trkpt lat="43.61965" lon="6.59943">
        <ele>772.8</ele>
        <time>2023-11-26T11:31:58Z</time>
      </trkpt>
      <trkpt lat="43.61965" lon="6.59944">
        <ele>772.8</ele>
        <time>2023-11-26T11:31:59Z</time>
      </trkpt>
      <trkpt lat="43.61965" lon="6.59944">
        <ele>772.7</ele>
        <time>2023-11-26T11:32:00Z</time>
      </trkpt>
      <trkpt lat="43.61965" lon="6.59944">
        <ele>772.8</ele>
        <time>2023-11-26T11:32:01Z</time>
      </trkpt>
      <trkpt lat="43.61965" lon="6.59944">
        <ele>772.8</ele>
        <time>2023-11-26T11:32:02Z</time>
      </trkpt>
      <trkpt lat="43.61965" lon="6.59944">
        <ele>772.8</ele>
        <time>2023-11-26T11:32:03Z</time>
      </trkpt>
      <trkpt lat="43.61965" lon="6.59944">
        <ele>772.8</ele>
        <time>2023-11-26T11:32:04Z</time>
      </trkpt>
      <trkpt lat="43.61965" lon="6.59944">
        <ele>772.8</ele>
        <time>2023-11-26T11:32:05Z</time>
      </trkpt>
      <trkpt lat="43.61965" lon="6.59943">
        <ele>772.8</ele>
        <time>2023-11-26T11:32:06Z</time>
      </trkpt>
      <trkpt lat="43.61965" lon="6.59943">
        <ele>772.9</ele>
        <time>2023-11-26T11:32:07Z</time>
      </trkpt>
      <trkpt lat="43.61965" lon="6.59943">
        <ele>772.9</ele>
        <time>2023-11-26T11:32:08Z</time>
      </trkpt>
      <trkpt lat="43.61965" lon="6.59943">
        <ele>772.9</ele>
        <time>2023-11-26T11:32:09Z</time>
      </trkpt>
      <trkpt lat="43.61965" lon="6.59943">
        <ele>772.9</ele>
        <time>2023-11-26T11:32:10Z</time>
      </trkpt>
      <trkpt lat="43.61965" lon="6.59943">
        <ele>772.9</ele>
        <time>2023-11-26T11:32:11Z</time>
      </trkpt>
      <trkpt lat="43.61965" lon="6.59943">
        <ele>772.9</ele>
        <time>2023-11-26T11:32:12Z</time>
      </trkpt>
      <trkpt lat="43.61965" lon="6.59943">
        <ele>772.9</ele>
        <time>2023-11-26T11:32:13Z</time>
      </trkpt>
      <trkpt lat="43.61965" lon="6.59943">
        <ele>772.8</ele>
        <time>2023-11-26T11:32:14Z</time>
      </trkpt>
      <trkpt lat="43.61965" lon="6.59943">
        <ele>772.8</ele>
        <time>2023-11-26T11:32:15Z</time>
      </trkpt>
      <trkpt lat="43.61965" lon="6.59943">
        <ele>772.8</ele>
        <time>2023-11-26T11:32:16Z</time>
      </trkpt>
      <trkpt lat="43.61965" lon="6.59943">
        <ele>772.8</ele>
        <time>2023-11-26T11:32:17Z</time>
      </trkpt>
      <trkpt lat="43.61965" lon="6.59943">
        <ele>772.8</ele>
        <time>2023-11-26T11:32:18Z</time>
      </trkpt>
      <trkpt lat="43.61965" lon="6.59942">
        <ele>772.8</ele>
        <time>2023-11-26T11:32:19Z</time>
      </trkpt>
      <trkpt lat="43.61965" lon="6.59942">
        <ele>772.8</ele>
        <time>2023-11-26T11:32:20Z</time>
      </trkpt>
      <trkpt lat="43.61965" lon="6.59942">
        <ele>772.8</ele>
        <time>2023-11-26T11:32:21Z</time>
      </trkpt>
      <trkpt lat="43.61965" lon="6.59942">
        <ele>772.8</ele>
        <time>2023-11-26T11:32:22Z</time>
      </trkpt>
      <trkpt lat="43.61965" lon="6.59942">
        <ele>772.8</ele>
        <time>2023-11-26T11:32:23Z</time>
      </trkpt>
      <trkpt lat="43.61965" lon="6.59942">
        <ele>772.7</ele>
        <time>2023-11-26T11:32:24Z</time>
      </trkpt>
      <trkpt lat="43.61965" lon="6.59942">
        <ele>772.7</ele>
        <time>2023-11-26T11:32:25Z</time>
      </trkpt>
      <trkpt lat="43.61966" lon="6.59942">
        <ele>772.7</ele>
        <time>2023-11-26T11:32:26Z</time>
      </trkpt>
      <trkpt lat="43.61966" lon="6.59942">
        <ele>772.6</ele>
        <time>2023-11-26T11:32:27Z</time>
      </trkpt>
      <trkpt lat="43.61966" lon="6.59942">
        <ele>772.6</ele>
        <time>2023-11-26T11:32:28Z</time>
      </trkpt>
      <trkpt lat="43.61966" lon="6.59942">
        <ele>772.5</ele>
        <time>2023-11-26T11:32:29Z</time>
      </trkpt>
      <trkpt lat="43.61966" lon="6.59942">
        <ele>772.5</ele>
        <time>2023-11-26T11:32:30Z</time>
      </trkpt>
      <trkpt lat="43.61966" lon="6.59942">
        <ele>772.5</ele>
        <time>2023-11-26T11:32:31Z</time>
      </trkpt>
      <trkpt lat="43.61966" lon="6.59942">
        <ele>772.5</ele>
        <time>2023-11-26T11:32:32Z</time>
      </trkpt>
      <trkpt lat="43.61966" lon="6.59942">
        <ele>772.4</ele>
        <time>2023-11-26T11:32:33Z</time>
      </trkpt>
      <trkpt lat="43.61966" lon="6.59942">
        <ele>772.5</ele>
        <time>2023-11-26T11:32:34Z</time>
      </trkpt>
      <trkpt lat="43.61966" lon="6.59941">
        <ele>772.5</ele>
        <time>2023-11-26T11:32:35Z</time>
      </trkpt>
      <trkpt lat="43.61966" lon="6.59941">
        <ele>772.4</ele>
        <time>2023-11-26T11:32:36Z</time>
      </trkpt>
      <trkpt lat="43.61966" lon="6.59941">
        <ele>772.3</ele>
        <time>2023-11-26T11:32:37Z</time>
      </trkpt>
      <trkpt lat="43.61966" lon="6.59941">
        <ele>772.2</ele>
        <time>2023-11-26T11:32:38Z</time>
      </trkpt>
      <trkpt lat="43.61966" lon="6.59941">
        <ele>772.2</ele>
        <time>2023-11-26T11:32:39Z</time>
      </trkpt>
      <trkpt lat="43.61966" lon="6.59941">
        <ele>772.1</ele>
        <time>2023-11-26T11:32:40Z</time>
      </trkpt>
      <trkpt lat="43.61966" lon="6.59941">
        <ele>772.2</ele>
        <time>2023-11-26T11:32:41Z</time>
      </trkpt>
      <trkpt lat="43.61966" lon="6.59941">
        <ele>772.1</ele>
        <time>2023-11-26T11:32:42Z</time>
      </trkpt>
      <trkpt lat="43.61966" lon="6.59941">
        <ele>772.1</ele>
        <time>2023-11-26T11:32:43Z</time>
      </trkpt>
      <trkpt lat="43.61966" lon="6.59941">
        <ele>772.1</ele>
        <time>2023-11-26T11:32:44Z</time>
      </trkpt>
      <trkpt lat="43.61966" lon="6.59941">
        <ele>772.3</ele>
        <time>2023-11-26T11:32:45Z</time>
      </trkpt>
      <trkpt lat="43.61966" lon="6.59941">
        <ele>772.4</ele>
        <time>2023-11-26T11:32:46Z</time>
      </trkpt>
      <trkpt lat="43.61966" lon="6.59941">
        <ele>772.4</ele>
        <time>2023-11-26T11:32:47Z</time>
      </trkpt>
      <trkpt lat="43.61966" lon="6.59941">
        <ele>772.5</ele>
        <time>2023-11-26T11:32:48Z</time>
      </trkpt>
      <trkpt lat="43.61966" lon="6.59941">
        <ele>772.5</ele>
        <time>2023-11-26T11:32:49Z</time>
      </trkpt>
      <trkpt lat="43.61966" lon="6.59941">
        <ele>772.6</ele>
        <time>2023-11-26T11:32:50Z</time>
      </trkpt>
      <trkpt lat="43.61966" lon="6.59941">
        <ele>772.6</ele>
        <time>2023-11-26T11:32:51Z</time>
      </trkpt>
      <trkpt lat="43.61966" lon="6.59941">
        <ele>772.6</ele>
        <time>2023-11-26T11:32:52Z</time>
      </trkpt>
      <trkpt lat="43.61966" lon="6.59941">
        <ele>772.6</ele>
        <time>2023-11-26T11:32:53Z</time>
      </trkpt>
      <trkpt lat="43.61966" lon="6.59941">
        <ele>772.7</ele>
        <time>2023-11-26T11:32:54Z</time>
      </trkpt>
      <trkpt lat="43.61966" lon="6.59941">
        <ele>772.6</ele>
        <time>2023-11-26T11:32:55Z</time>
      </trkpt>
      <trkpt lat="43.61966" lon="6.59941">
        <ele>772.6</ele>
        <time>2023-11-26T11:32:56Z</time>
      </trkpt>
      <trkpt lat="43.61966" lon="6.59941">
        <ele>772.5</ele>
        <time>2023-11-26T11:32:57Z</time>
      </trkpt>
      <trkpt lat="43.61966" lon="6.59941">
        <ele>772.5</ele>
        <time>2023-11-26T11:32:58Z</time>
      </trkpt>
      <trkpt lat="43.61966" lon="6.59942">
        <ele>772.5</ele>
        <time>2023-11-26T11:32:59Z</time>
      </trkpt>
      <trkpt lat="43.61966" lon="6.59942">
        <ele>772.6</ele>
        <time>2023-11-26T11:33:00Z</time>
      </trkpt>
      <trkpt lat="43.61966" lon="6.59942">
        <ele>772.6</ele>
        <time>2023-11-26T11:33:01Z</time>
      </trkpt>
      <trkpt lat="43.61967" lon="6.59942">
        <ele>772.6</ele>
        <time>2023-11-26T11:33:02Z</time>
      </trkpt>
      <trkpt lat="43.61967" lon="6.59942">
        <ele>772.5</ele>
        <time>2023-11-26T11:33:03Z</time>
      </trkpt>
      <trkpt lat="43.61967" lon="6.59942">
        <ele>772.5</ele>
        <time>2023-11-26T11:33:04Z</time>
      </trkpt>
      <trkpt lat="43.61967" lon="6.59943">
        <ele>772.4</ele>
        <time>2023-11-26T11:33:05Z</time>
      </trkpt>
      <trkpt lat="43.61967" lon="6.59943">
        <ele>772.3</ele>
        <time>2023-11-26T11:33:06Z</time>
      </trkpt>
      <trkpt lat="43.61967" lon="6.59943">
        <ele>772.3</ele>
        <time>2023-11-26T11:33:07Z</time>
      </trkpt>
      <trkpt lat="43.61967" lon="6.59943">
        <ele>772.3</ele>
        <time>2023-11-26T11:33:08Z</time>
      </trkpt>
      <trkpt lat="43.61967" lon="6.59943">
        <ele>772.2</ele>
        <time>2023-11-26T11:33:09Z</time>
      </trkpt>
      <trkpt lat="43.61967" lon="6.59944">
        <ele>772.3</ele>
        <time>2023-11-26T11:33:10Z</time>
      </trkpt>
      <trkpt lat="43.61967" lon="6.59944">
        <ele>772.3</ele>
        <time>2023-11-26T11:33:11Z</time>
      </trkpt>
      <trkpt lat="43.61966" lon="6.59943">
        <ele>772.3</ele>
        <time>2023-11-26T11:33:12Z</time>
      </trkpt>
      <trkpt lat="43.61966" lon="6.59943">
        <ele>772.3</ele>
        <time>2023-11-26T11:33:13Z</time>
      </trkpt>
      <trkpt lat="43.61965" lon="6.59943">
        <ele>772.5</ele>
        <time>2023-11-26T11:33:14Z</time>
      </trkpt>
      <trkpt lat="43.61965" lon="6.59943">
        <ele>772.5</ele>
        <time>2023-11-26T11:33:15Z</time>
      </trkpt>
      <trkpt lat="43.61965" lon="6.59943">
        <ele>772.5</ele>
        <time>2023-11-26T11:33:16Z</time>
      </trkpt>
      <trkpt lat="43.61965" lon="6.59943">
        <ele>772.5</ele>
        <time>2023-11-26T11:33:17Z</time>
      </trkpt>
      <trkpt lat="43.61966" lon="6.59943">
        <ele>772.5</ele>
        <time>2023-11-26T11:33:18Z</time>
      </trkpt>
      <trkpt lat="43.61966" lon="6.59943">
        <ele>772.6</ele>
        <time>2023-11-26T11:33:19Z</time>
      </trkpt>
      <trkpt lat="43.61966" lon="6.59942">
        <ele>772.6</ele>
        <time>2023-11-26T11:33:20Z</time>
      </trkpt>
      <trkpt lat="43.61966" lon="6.59942">
        <ele>772.6</ele>
        <time>2023-11-26T11:33:21Z</time>
      </trkpt>
      <trkpt lat="43.61966" lon="6.59942">
        <ele>772.6</ele>
        <time>2023-11-26T11:33:22Z</time>
      </trkpt>
      <trkpt lat="43.61966" lon="6.59942">
        <ele>772.6</ele>
        <time>2023-11-26T11:33:23Z</time>
      </trkpt>
      <trkpt lat="43.61966" lon="6.59942">
        <ele>772.7</ele>
        <time>2023-11-26T11:33:24Z</time>
      </trkpt>
      <trkpt lat="43.61966" lon="6.59942">
        <ele>772.8</ele>
        <time>2023-11-26T11:33:25Z</time>
      </trkpt>
      <trkpt lat="43.61966" lon="6.59942">
        <ele>772.9</ele>
        <time>2023-11-26T11:33:26Z</time>
      </trkpt>
      <trkpt lat="43.61966" lon="6.59942">
        <ele>772.9</ele>
        <time>2023-11-26T11:33:27Z</time>
      </trkpt>
      <trkpt lat="43.61966" lon="6.59942">
        <ele>772.9</ele>
        <time>2023-11-26T11:33:28Z</time>
      </trkpt>
      <trkpt lat="43.61966" lon="6.59942">
        <ele>772.9</ele>
        <time>2023-11-26T11:33:29Z</time>
      </trkpt>
      <trkpt lat="43.61966" lon="6.59942">
        <ele>772.9</ele>
        <time>2023-11-26T11:33:30Z</time>
      </trkpt>
      <trkpt lat="43.61966" lon="6.59942">
        <ele>772.9</ele>
        <time>2023-11-26T11:33:31Z</time>
      </trkpt>
      <trkpt lat="43.61966" lon="6.59942">
        <ele>772.9</ele>
        <time>2023-11-26T11:33:32Z</time>
      </trkpt>
      <trkpt lat="43.61966" lon="6.59941">
        <ele>772.9</ele>
        <time>2023-11-26T11:33:33Z</time>
      </trkpt>
      <trkpt lat="43.61966" lon="6.59941">
        <ele>772.9</ele>
        <time>2023-11-26T11:33:34Z</time>
      </trkpt>
      <trkpt lat="43.61966" lon="6.59942">
        <ele>772.9</ele>
        <time>2023-11-26T11:33:35Z</time>
      </trkpt>
      <trkpt lat="43.61966" lon="6.59942">
        <ele>772.9</ele>
        <time>2023-11-26T11:33:36Z</time>
      </trkpt>
      <trkpt lat="43.61966" lon="6.59942">
        <ele>773</ele>
        <time>2023-11-26T11:33:37Z</time>
      </trkpt>
      <trkpt lat="43.61966" lon="6.59942">
        <ele>772.9</ele>
        <time>2023-11-26T11:33:38Z</time>
      </trkpt>
      <trkpt lat="43.61966" lon="6.59942">
        <ele>772.9</ele>
        <time>2023-11-26T11:33:39Z</time>
      </trkpt>
      <trkpt lat="43.61966" lon="6.59942">
        <ele>772.9</ele>
        <time>2023-11-26T11:33:40Z</time>
      </trkpt>
      <trkpt lat="43.61966" lon="6.59942">
        <ele>772.8</ele>
        <time>2023-11-26T11:33:41Z</time>
      </trkpt>
      <trkpt lat="43.61966" lon="6.59942">
        <ele>772.7</ele>
        <time>2023-11-26T11:33:42Z</time>
      </trkpt>
      <trkpt lat="43.61966" lon="6.59942">
        <ele>772.7</ele>
        <time>2023-11-26T11:33:43Z</time>
      </trkpt>
      <trkpt lat="43.61966" lon="6.59942">
        <ele>772.7</ele>
        <time>2023-11-26T11:33:44Z</time>
      </trkpt>
      <trkpt lat="43.61966" lon="6.59942">
        <ele>772.7</ele>
        <time>2023-11-26T11:33:45Z</time>
      </trkpt>
      <trkpt lat="43.61966" lon="6.59942">
        <ele>772.6</ele>
        <time>2023-11-26T11:33:46Z</time>
      </trkpt>
      <trkpt lat="43.61966" lon="6.59942">
        <ele>772.7</ele>
        <time>2023-11-26T11:33:47Z</time>
      </trkpt>
      <trkpt lat="43.61966" lon="6.59942">
        <ele>772.7</ele>
        <time>2023-11-26T11:33:48Z</time>
      </trkpt>
      <trkpt lat="43.61965" lon="6.59942">
        <ele>772.7</ele>
        <time>2023-11-26T11:33:49Z</time>
      </trkpt>
      <trkpt lat="43.61965" lon="6.59942">
        <ele>772.7</ele>
        <time>2023-11-26T11:33:50Z</time>
      </trkpt>
      <trkpt lat="43.61965" lon="6.59942">
        <ele>772.8</ele>
        <time>2023-11-26T11:33:51Z</time>
      </trkpt>
      <trkpt lat="43.61965" lon="6.59942">
        <ele>772.7</ele>
        <time>2023-11-26T11:33:52Z</time>
      </trkpt>
      <trkpt lat="43.61965" lon="6.59942">
        <ele>772.8</ele>
        <time>2023-11-26T11:33:53Z</time>
      </trkpt>
      <trkpt lat="43.61965" lon="6.59942">
        <ele>772.7</ele>
        <time>2023-11-26T11:33:54Z</time>
      </trkpt>
      <trkpt lat="43.61965" lon="6.59942">
        <ele>772.7</ele>
        <time>2023-11-26T11:33:55Z</time>
      </trkpt>
      <trkpt lat="43.61965" lon="6.59942">
        <ele>772.7</ele>
        <time>2023-11-26T11:33:56Z</time>
      </trkpt>
      <trkpt lat="43.61965" lon="6.59942">
        <ele>772.7</ele>
        <time>2023-11-26T11:33:57Z</time>
      </trkpt>
      <trkpt lat="43.61965" lon="6.59942">
        <ele>772.8</ele>
        <time>2023-11-26T11:33:58Z</time>
      </trkpt>
      <trkpt lat="43.61965" lon="6.59942">
        <ele>772.8</ele>
        <time>2023-11-26T11:33:59Z</time>
      </trkpt>
      <trkpt lat="43.61965" lon="6.59942">
        <ele>772.8</ele>
        <time>2023-11-26T11:34:00Z</time>
      </trkpt>
      <trkpt lat="43.61965" lon="6.59942">
        <ele>772.7</ele>
        <time>2023-11-26T11:34:01Z</time>
      </trkpt>
      <trkpt lat="43.61966" lon="6.59942">
        <ele>772.7</ele>
        <time>2023-11-26T11:34:02Z</time>
      </trkpt>
      <trkpt lat="43.61966" lon="6.59942">
        <ele>772.6</ele>
        <time>2023-11-26T11:34:03Z</time>
      </trkpt>
      <trkpt lat="43.61966" lon="6.59942">
        <ele>772.5</ele>
        <time>2023-11-26T11:34:04Z</time>
      </trkpt>
      <trkpt lat="43.61966" lon="6.59942">
        <ele>772.5</ele>
        <time>2023-11-26T11:34:05Z</time>
      </trkpt>
      <trkpt lat="43.61966" lon="6.59942">
        <ele>772.4</ele>
        <time>2023-11-26T11:34:06Z</time>
      </trkpt>
      <trkpt lat="43.61966" lon="6.59942">
        <ele>772.5</ele>
        <time>2023-11-26T11:34:07Z</time>
      </trkpt>
      <trkpt lat="43.61966" lon="6.59942">
        <ele>772.5</ele>
        <time>2023-11-26T11:34:08Z</time>
      </trkpt>
      <trkpt lat="43.61966" lon="6.59942">
        <ele>772.6</ele>
        <time>2023-11-26T11:34:09Z</time>
      </trkpt>
      <trkpt lat="43.61966" lon="6.59942">
        <ele>772.7</ele>
        <time>2023-11-26T11:34:10Z</time>
      </trkpt>
      <trkpt lat="43.61967" lon="6.59942">
        <ele>772.7</ele>
        <time>2023-11-26T11:34:11Z</time>
      </trkpt>
      <trkpt lat="43.61967" lon="6.59941">
        <ele>772.7</ele>
        <time>2023-11-26T11:34:12Z</time>
      </trkpt>
      <trkpt lat="43.61967" lon="6.59941">
        <ele>772.7</ele>
        <time>2023-11-26T11:34:13Z</time>
      </trkpt>
      <trkpt lat="43.61967" lon="6.59941">
        <ele>772.7</ele>
        <time>2023-11-26T11:34:14Z</time>
      </trkpt>
      <trkpt lat="43.61966" lon="6.59942">
        <ele>772.8</ele>
        <time>2023-11-26T11:34:15Z</time>
      </trkpt>
      <trkpt lat="43.61967" lon="6.59942">
        <ele>772.8</ele>
        <time>2023-11-26T11:34:16Z</time>
      </trkpt>
      <trkpt lat="43.61966" lon="6.59942">
        <ele>772.8</ele>
        <time>2023-11-26T11:34:17Z</time>
      </trkpt>
      <trkpt lat="43.61966" lon="6.59942">
        <ele>772.9</ele>
        <time>2023-11-26T11:34:18Z</time>
      </trkpt>
      <trkpt lat="43.61966" lon="6.59942">
        <ele>772.9</ele>
        <time>2023-11-26T11:34:19Z</time>
      </trkpt>
      <trkpt lat="43.61966" lon="6.59942">
        <ele>772.8</ele>
        <time>2023-11-26T11:34:20Z</time>
      </trkpt>
      <trkpt lat="43.61966" lon="6.59942">
        <ele>772.7</ele>
        <time>2023-11-26T11:34:21Z</time>
      </trkpt>
      <trkpt lat="43.61966" lon="6.59942">
        <ele>772.6</ele>
        <time>2023-11-26T11:34:22Z</time>
      </trkpt>
      <trkpt lat="43.61966" lon="6.59942">
        <ele>772.5</ele>
        <time>2023-11-26T11:34:23Z</time>
      </trkpt>
      <trkpt lat="43.61966" lon="6.59942">
        <ele>772.5</ele>
        <time>2023-11-26T11:34:24Z</time>
      </trkpt>
      <trkpt lat="43.61966" lon="6.59942">
        <ele>772.5</ele>
        <time>2023-11-26T11:34:25Z</time>
      </trkpt>
      <trkpt lat="43.61966" lon="6.59942">
        <ele>772.4</ele>
        <time>2023-11-26T11:34:26Z</time>
      </trkpt>
      <trkpt lat="43.61966" lon="6.59942">
        <ele>772.4</ele>
        <time>2023-11-26T11:34:27Z</time>
      </trkpt>
      <trkpt lat="43.61966" lon="6.59942">
        <ele>772.5</ele>
        <time>2023-11-26T11:34:28Z</time>
      </trkpt>
      <trkpt lat="43.61967" lon="6.59942">
        <ele>772.6</ele>
        <time>2023-11-26T11:34:29Z</time>
      </trkpt>
      <trkpt lat="43.61967" lon="6.59942">
        <ele>772.6</ele>
        <time>2023-11-26T11:34:30Z</time>
      </trkpt>
      <trkpt lat="43.61967" lon="6.59942">
        <ele>772.6</ele>
        <time>2023-11-26T11:34:31Z</time>
      </trkpt>
      <trkpt lat="43.61967" lon="6.59942">
        <ele>772.7</ele>
        <time>2023-11-26T11:34:32Z</time>
      </trkpt>
      <trkpt lat="43.61967" lon="6.59942">
        <ele>772.7</ele>
        <time>2023-11-26T11:34:33Z</time>
      </trkpt>
      <trkpt lat="43.61967" lon="6.59942">
        <ele>772.7</ele>
        <time>2023-11-26T11:34:34Z</time>
      </trkpt>
      <trkpt lat="43.61967" lon="6.59942">
        <ele>772.7</ele>
        <time>2023-11-26T11:34:35Z</time>
      </trkpt>
      <trkpt lat="43.61967" lon="6.59942">
        <ele>772.8</ele>
        <time>2023-11-26T11:34:36Z</time>
      </trkpt>
      <trkpt lat="43.61967" lon="6.59942">
        <ele>772.9</ele>
        <time>2023-11-26T11:34:37Z</time>
      </trkpt>
      <trkpt lat="43.61967" lon="6.59942">
        <ele>773</ele>
        <time>2023-11-26T11:34:38Z</time>
      </trkpt>
      <trkpt lat="43.61967" lon="6.59942">
        <ele>773.1</ele>
        <time>2023-11-26T11:34:39Z</time>
      </trkpt>
      <trkpt lat="43.61967" lon="6.59942">
        <ele>773.2</ele>
        <time>2023-11-26T11:34:40Z</time>
      </trkpt>
      <trkpt lat="43.61967" lon="6.59942">
        <ele>773.2</ele>
        <time>2023-11-26T11:34:41Z</time>
      </trkpt>
      <trkpt lat="43.61967" lon="6.59942">
        <ele>773.2</ele>
        <time>2023-11-26T11:34:42Z</time>
      </trkpt>
      <trkpt lat="43.61967" lon="6.59942">
        <ele>773.1</ele>
        <time>2023-11-26T11:34:43Z</time>
      </trkpt>
      <trkpt lat="43.61967" lon="6.59942">
        <ele>773</ele>
        <time>2023-11-26T11:34:44Z</time>
      </trkpt>
      <trkpt lat="43.61967" lon="6.59942">
        <ele>773</ele>
        <time>2023-11-26T11:34:45Z</time>
      </trkpt>
      <trkpt lat="43.61967" lon="6.59942">
        <ele>773</ele>
        <time>2023-11-26T11:34:46Z</time>
      </trkpt>
      <trkpt lat="43.61967" lon="6.59942">
        <ele>773.1</ele>
        <time>2023-11-26T11:34:47Z</time>
      </trkpt>
      <trkpt lat="43.61967" lon="6.59942">
        <ele>773.1</ele>
        <time>2023-11-26T11:34:48Z</time>
      </trkpt>
      <trkpt lat="43.61967" lon="6.59942">
        <ele>773.2</ele>
        <time>2023-11-26T11:34:49Z</time>
      </trkpt>
      <trkpt lat="43.61967" lon="6.59942">
        <ele>773.2</ele>
        <time>2023-11-26T11:34:50Z</time>
      </trkpt>
      <trkpt lat="43.61967" lon="6.59942">
        <ele>773.2</ele>
        <time>2023-11-26T11:34:51Z</time>
      </trkpt>
      <trkpt lat="43.61967" lon="6.59942">
        <ele>773.2</ele>
        <time>2023-11-26T11:34:52Z</time>
      </trkpt>
      <trkpt lat="43.61967" lon="6.59942">
        <ele>773.2</ele>
        <time>2023-11-26T11:34:53Z</time>
      </trkpt>
      <trkpt lat="43.61967" lon="6.59942">
        <ele>773.3</ele>
        <time>2023-11-26T11:34:54Z</time>
      </trkpt>
      <trkpt lat="43.61967" lon="6.59942">
        <ele>773.3</ele>
        <time>2023-11-26T11:34:55Z</time>
      </trkpt>
      <trkpt lat="43.61966" lon="6.59942">
        <ele>773.3</ele>
        <time>2023-11-26T11:34:56Z</time>
      </trkpt>
      <trkpt lat="43.61967" lon="6.59942">
        <ele>773.3</ele>
        <time>2023-11-26T11:34:57Z</time>
      </trkpt>
      <trkpt lat="43.61967" lon="6.59942">
        <ele>773.3</ele>
        <time>2023-11-26T11:34:58Z</time>
      </trkpt>
      <trkpt lat="43.61967" lon="6.59942">
        <ele>773.2</ele>
        <time>2023-11-26T11:34:59Z</time>
      </trkpt>
      <trkpt lat="43.61967" lon="6.59942">
        <ele>773.2</ele>
        <time>2023-11-26T11:35:00Z</time>
      </trkpt>
      <trkpt lat="43.61967" lon="6.59943">
        <ele>773.2</ele>
        <time>2023-11-26T11:35:01Z</time>
      </trkpt>
      <trkpt lat="43.61967" lon="6.59943">
        <ele>773.2</ele>
        <time>2023-11-26T11:35:02Z</time>
      </trkpt>
      <trkpt lat="43.61967" lon="6.59943">
        <ele>773.2</ele>
        <time>2023-11-26T11:35:03Z</time>
      </trkpt>
      <trkpt lat="43.61967" lon="6.59943">
        <ele>773.2</ele>
        <time>2023-11-26T11:35:04Z</time>
      </trkpt>
      <trkpt lat="43.61967" lon="6.59943">
        <ele>773.2</ele>
        <time>2023-11-26T11:35:05Z</time>
      </trkpt>
      <trkpt lat="43.61967" lon="6.59943">
        <ele>773.2</ele>
        <time>2023-11-26T11:35:06Z</time>
      </trkpt>
      <trkpt lat="43.61967" lon="6.59943">
        <ele>773.2</ele>
        <time>2023-11-26T11:35:07Z</time>
      </trkpt>
      <trkpt lat="43.61967" lon="6.59943">
        <ele>773.3</ele>
        <time>2023-11-26T11:35:08Z</time>
      </trkpt>
      <trkpt lat="43.61967" lon="6.59942">
        <ele>773.4</ele>
        <time>2023-11-26T11:35:09Z</time>
      </trkpt>
      <trkpt lat="43.61967" lon="6.59942">
        <ele>773.5</ele>
        <time>2023-11-26T11:35:10Z</time>
      </trkpt>
      <trkpt lat="43.61967" lon="6.59943">
        <ele>773.5</ele>
        <time>2023-11-26T11:35:11Z</time>
      </trkpt>
      <trkpt lat="43.61967" lon="6.59943">
        <ele>773.5</ele>
        <time>2023-11-26T11:35:12Z</time>
      </trkpt>
      <trkpt lat="43.61967" lon="6.59943">
        <ele>773.4</ele>
        <time>2023-11-26T11:35:13Z</time>
      </trkpt>
      <trkpt lat="43.61967" lon="6.59943">
        <ele>773.6</ele>
        <time>2023-11-26T11:35:14Z</time>
      </trkpt>
      <trkpt lat="43.61967" lon="6.59943">
        <ele>773.6</ele>
        <time>2023-11-26T11:35:15Z</time>
      </trkpt>
      <trkpt lat="43.61967" lon="6.59943">
        <ele>773.5</ele>
        <time>2023-11-26T11:35:16Z</time>
      </trkpt>
      <trkpt lat="43.61967" lon="6.59942">
        <ele>773.5</ele>
        <time>2023-11-26T11:35:17Z</time>
      </trkpt>
      <trkpt lat="43.61967" lon="6.59942">
        <ele>773.6</ele>
        <time>2023-11-26T11:35:18Z</time>
      </trkpt>
      <trkpt lat="43.61967" lon="6.59942">
        <ele>773.6</ele>
        <time>2023-11-26T11:35:19Z</time>
      </trkpt>
      <trkpt lat="43.61967" lon="6.59942">
        <ele>773.6</ele>
        <time>2023-11-26T11:35:20Z</time>
      </trkpt>
      <trkpt lat="43.61967" lon="6.59943">
        <ele>773.6</ele>
        <time>2023-11-26T11:35:21Z</time>
      </trkpt>
      <trkpt lat="43.61967" lon="6.59943">
        <ele>773.6</ele>
        <time>2023-11-26T11:35:22Z</time>
      </trkpt>
      <trkpt lat="43.61967" lon="6.59943">
        <ele>773.6</ele>
        <time>2023-11-26T11:35:23Z</time>
      </trkpt>
      <trkpt lat="43.61967" lon="6.59943">
        <ele>773.6</ele>
        <time>2023-11-26T11:35:24Z</time>
      </trkpt>
      <trkpt lat="43.61967" lon="6.59943">
        <ele>773.6</ele>
        <time>2023-11-26T11:35:25Z</time>
      </trkpt>
      <trkpt lat="43.61967" lon="6.59943">
        <ele>773.6</ele>
        <time>2023-11-26T11:35:26Z</time>
      </trkpt>
      <trkpt lat="43.61967" lon="6.59943">
        <ele>773.7</ele>
        <time>2023-11-26T11:35:27Z</time>
      </trkpt>
      <trkpt lat="43.61967" lon="6.59944">
        <ele>773.7</ele>
        <time>2023-11-26T11:35:28Z</time>
      </trkpt>
      <trkpt lat="43.61967" lon="6.59944">
        <ele>773.7</ele>
        <time>2023-11-26T11:35:29Z</time>
      </trkpt>
      <trkpt lat="43.61967" lon="6.59944">
        <ele>773.7</ele>
        <time>2023-11-26T11:35:30Z</time>
      </trkpt>
      <trkpt lat="43.61967" lon="6.59945">
        <ele>773.7</ele>
        <time>2023-11-26T11:35:31Z</time>
      </trkpt>
      <trkpt lat="43.61967" lon="6.59945">
        <ele>773.7</ele>
        <time>2023-11-26T11:35:32Z</time>
      </trkpt>
      <trkpt lat="43.61967" lon="6.59945">
        <ele>773.8</ele>
        <time>2023-11-26T11:35:33Z</time>
      </trkpt>
      <trkpt lat="43.61967" lon="6.59945">
        <ele>773.8</ele>
        <time>2023-11-26T11:35:34Z</time>
      </trkpt>
      <trkpt lat="43.61967" lon="6.59945">
        <ele>773.8</ele>
        <time>2023-11-26T11:35:35Z</time>
      </trkpt>
      <trkpt lat="43.61967" lon="6.59945">
        <ele>773.8</ele>
        <time>2023-11-26T11:35:36Z</time>
      </trkpt>
      <trkpt lat="43.61967" lon="6.59945">
        <ele>773.7</ele>
        <time>2023-11-26T11:35:37Z</time>
      </trkpt>
      <trkpt lat="43.61967" lon="6.59945">
        <ele>773.7</ele>
        <time>2023-11-26T11:35:38Z</time>
      </trkpt>
      <trkpt lat="43.61967" lon="6.59945">
        <ele>773.6</ele>
        <time>2023-11-26T11:35:39Z</time>
      </trkpt>
      <trkpt lat="43.61967" lon="6.59945">
        <ele>773.6</ele>
        <time>2023-11-26T11:35:40Z</time>
      </trkpt>
      <trkpt lat="43.61967" lon="6.59945">
        <ele>773.6</ele>
        <time>2023-11-26T11:35:41Z</time>
      </trkpt>
      <trkpt lat="43.61967" lon="6.59945">
        <ele>773.6</ele>
        <time>2023-11-26T11:35:42Z</time>
      </trkpt>
      <trkpt lat="43.61967" lon="6.59945">
        <ele>773.6</ele>
        <time>2023-11-26T11:35:43Z</time>
      </trkpt>
      <trkpt lat="43.61967" lon="6.59945">
        <ele>773.6</ele>
        <time>2023-11-26T11:35:44Z</time>
      </trkpt>
      <trkpt lat="43.61967" lon="6.59945">
        <ele>773.6</ele>
        <time>2023-11-26T11:35:45Z</time>
      </trkpt>
      <trkpt lat="43.61967" lon="6.59945">
        <ele>773.6</ele>
        <time>2023-11-26T11:35:46Z</time>
      </trkpt>
      <trkpt lat="43.61967" lon="6.59945">
        <ele>773.7</ele>
        <time>2023-11-26T11:35:47Z</time>
      </trkpt>
      <trkpt lat="43.61967" lon="6.59945">
        <ele>773.6</ele>
        <time>2023-11-26T11:35:48Z</time>
      </trkpt>
      <trkpt lat="43.61967" lon="6.59945">
        <ele>773.5</ele>
        <time>2023-11-26T11:35:49Z</time>
      </trkpt>
      <trkpt lat="43.61967" lon="6.59945">
        <ele>773.5</ele>
        <time>2023-11-26T11:35:50Z</time>
      </trkpt>
      <trkpt lat="43.61967" lon="6.59945">
        <ele>773.6</ele>
        <time>2023-11-26T11:35:51Z</time>
      </trkpt>
      <trkpt lat="43.61967" lon="6.59945">
        <ele>773.7</ele>
        <time>2023-11-26T11:35:52Z</time>
      </trkpt>
      <trkpt lat="43.61967" lon="6.59945">
        <ele>773.7</ele>
        <time>2023-11-26T11:35:53Z</time>
      </trkpt>
      <trkpt lat="43.61967" lon="6.59945">
        <ele>773.7</ele>
        <time>2023-11-26T11:35:54Z</time>
      </trkpt>
      <trkpt lat="43.61967" lon="6.59945">
        <ele>773.8</ele>
        <time>2023-11-26T11:35:55Z</time>
      </trkpt>
      <trkpt lat="43.61967" lon="6.59945">
        <ele>773.8</ele>
        <time>2023-11-26T11:35:56Z</time>
      </trkpt>
      <trkpt lat="43.61967" lon="6.59945">
        <ele>773.8</ele>
        <time>2023-11-26T11:35:57Z</time>
      </trkpt>
      <trkpt lat="43.61967" lon="6.59945">
        <ele>773.8</ele>
        <time>2023-11-26T11:35:58Z</time>
      </trkpt>
      <trkpt lat="43.61967" lon="6.59945">
        <ele>773.8</ele>
        <time>2023-11-26T11:35:59Z</time>
      </trkpt>
      <trkpt lat="43.61967" lon="6.59945">
        <ele>773.9</ele>
        <time>2023-11-26T11:36:00Z</time>
      </trkpt>
      <trkpt lat="43.61967" lon="6.59945">
        <ele>773.8</ele>
        <time>2023-11-26T11:36:01Z</time>
      </trkpt>
      <trkpt lat="43.61967" lon="6.59945">
        <ele>773.7</ele>
        <time>2023-11-26T11:36:02Z</time>
      </trkpt>
      <trkpt lat="43.61967" lon="6.59945">
        <ele>773.8</ele>
        <time>2023-11-26T11:36:03Z</time>
      </trkpt>
      <trkpt lat="43.61967" lon="6.59945">
        <ele>773.9</ele>
        <time>2023-11-26T11:36:04Z</time>
      </trkpt>
      <trkpt lat="43.61967" lon="6.59945">
        <ele>773.9</ele>
        <time>2023-11-26T11:36:05Z</time>
      </trkpt>
      <trkpt lat="43.61967" lon="6.59945">
        <ele>773.9</ele>
        <time>2023-11-26T11:36:06Z</time>
      </trkpt>
      <trkpt lat="43.61967" lon="6.59945">
        <ele>774</ele>
        <time>2023-11-26T11:36:07Z</time>
      </trkpt>
      <trkpt lat="43.61967" lon="6.59944">
        <ele>774</ele>
        <time>2023-11-26T11:36:08Z</time>
      </trkpt>
      <trkpt lat="43.61967" lon="6.59944">
        <ele>774</ele>
        <time>2023-11-26T11:36:09Z</time>
      </trkpt>
      <trkpt lat="43.61967" lon="6.59944">
        <ele>773.9</ele>
        <time>2023-11-26T11:36:10Z</time>
      </trkpt>
      <trkpt lat="43.61967" lon="6.59944">
        <ele>773.9</ele>
        <time>2023-11-26T11:36:11Z</time>
      </trkpt>
      <trkpt lat="43.61967" lon="6.59944">
        <ele>774</ele>
        <time>2023-11-26T11:36:12Z</time>
      </trkpt>
      <trkpt lat="43.61967" lon="6.59944">
        <ele>774</ele>
        <time>2023-11-26T11:36:13Z</time>
      </trkpt>
      <trkpt lat="43.61967" lon="6.59944">
        <ele>774.1</ele>
        <time>2023-11-26T11:36:14Z</time>
      </trkpt>
      <trkpt lat="43.61967" lon="6.59944">
        <ele>774</ele>
        <time>2023-11-26T11:36:15Z</time>
      </trkpt>
      <trkpt lat="43.61967" lon="6.59944">
        <ele>774</ele>
        <time>2023-11-26T11:36:16Z</time>
      </trkpt>
      <trkpt lat="43.61967" lon="6.59944">
        <ele>773.9</ele>
        <time>2023-11-26T11:36:17Z</time>
      </trkpt>
      <trkpt lat="43.61967" lon="6.59943">
        <ele>773.9</ele>
        <time>2023-11-26T11:36:18Z</time>
      </trkpt>
      <trkpt lat="43.61966" lon="6.59943">
        <ele>773.9</ele>
        <time>2023-11-26T11:36:19Z</time>
      </trkpt>
      <trkpt lat="43.61966" lon="6.59943">
        <ele>773.9</ele>
        <time>2023-11-26T11:36:20Z</time>
      </trkpt>
      <trkpt lat="43.61966" lon="6.59943">
        <ele>773.9</ele>
        <time>2023-11-26T11:36:21Z</time>
      </trkpt>
      <trkpt lat="43.61966" lon="6.59943">
        <ele>774</ele>
        <time>2023-11-26T11:36:22Z</time>
      </trkpt>
      <trkpt lat="43.61966" lon="6.59943">
        <ele>774.1</ele>
        <time>2023-11-26T11:36:23Z</time>
      </trkpt>
      <trkpt lat="43.61966" lon="6.59943">
        <ele>774.2</ele>
        <time>2023-11-26T11:36:24Z</time>
      </trkpt>
      <trkpt lat="43.61966" lon="6.59943">
        <ele>774.2</ele>
        <time>2023-11-26T11:36:25Z</time>
      </trkpt>
      <trkpt lat="43.61966" lon="6.59943">
        <ele>774.3</ele>
        <time>2023-11-26T11:36:26Z</time>
      </trkpt>
      <trkpt lat="43.61966" lon="6.59943">
        <ele>774.3</ele>
        <time>2023-11-26T11:36:27Z</time>
      </trkpt>
      <trkpt lat="43.61966" lon="6.59943">
        <ele>774.2</ele>
        <time>2023-11-26T11:36:28Z</time>
      </trkpt>
      <trkpt lat="43.61966" lon="6.59943">
        <ele>774.2</ele>
        <time>2023-11-26T11:36:29Z</time>
      </trkpt>
      <trkpt lat="43.61966" lon="6.59943">
        <ele>774.2</ele>
        <time>2023-11-26T11:36:30Z</time>
      </trkpt>
      <trkpt lat="43.61966" lon="6.59943">
        <ele>774.1</ele>
        <time>2023-11-26T11:36:31Z</time>
      </trkpt>
      <trkpt lat="43.61966" lon="6.59943">
        <ele>774.1</ele>
        <time>2023-11-26T11:36:32Z</time>
      </trkpt>
      <trkpt lat="43.61966" lon="6.59943">
        <ele>774</ele>
        <time>2023-11-26T11:36:33Z</time>
      </trkpt>
      <trkpt lat="43.61966" lon="6.59943">
        <ele>774</ele>
        <time>2023-11-26T11:36:34Z</time>
      </trkpt>
      <trkpt lat="43.61966" lon="6.59943">
        <ele>773.9</ele>
        <time>2023-11-26T11:36:35Z</time>
      </trkpt>
      <trkpt lat="43.61966" lon="6.59943">
        <ele>773.8</ele>
        <time>2023-11-26T11:36:36Z</time>
      </trkpt>
      <trkpt lat="43.61966" lon="6.59942">
        <ele>773.9</ele>
        <time>2023-11-26T11:36:37Z</time>
      </trkpt>
      <trkpt lat="43.61966" lon="6.59942">
        <ele>773.9</ele>
        <time>2023-11-26T11:36:38Z</time>
      </trkpt>
      <trkpt lat="43.61966" lon="6.59942">
        <ele>773.8</ele>
        <time>2023-11-26T11:36:39Z</time>
      </trkpt>
      <trkpt lat="43.61966" lon="6.59942">
        <ele>773.8</ele>
        <time>2023-11-26T11:36:40Z</time>
      </trkpt>
      <trkpt lat="43.61966" lon="6.59942">
        <ele>773.7</ele>
        <time>2023-11-26T11:36:41Z</time>
      </trkpt>
      <trkpt lat="43.61966" lon="6.59943">
        <ele>773.6</ele>
        <time>2023-11-26T11:36:42Z</time>
      </trkpt>
      <trkpt lat="43.61966" lon="6.59942">
        <ele>773.5</ele>
        <time>2023-11-26T11:36:43Z</time>
      </trkpt>
      <trkpt lat="43.61966" lon="6.59942">
        <ele>773.4</ele>
        <time>2023-11-26T11:36:44Z</time>
      </trkpt>
      <trkpt lat="43.61966" lon="6.59942">
        <ele>773.4</ele>
        <time>2023-11-26T11:36:45Z</time>
      </trkpt>
      <trkpt lat="43.61966" lon="6.59942">
        <ele>773.4</ele>
        <time>2023-11-26T11:36:46Z</time>
      </trkpt>
      <trkpt lat="43.61966" lon="6.59942">
        <ele>773.3</ele>
        <time>2023-11-26T11:36:47Z</time>
      </trkpt>
      <trkpt lat="43.61966" lon="6.59942">
        <ele>773.3</ele>
        <time>2023-11-26T11:36:48Z</time>
      </trkpt>
      <trkpt lat="43.61966" lon="6.59942">
        <ele>773.4</ele>
        <time>2023-11-26T11:36:49Z</time>
      </trkpt>
      <trkpt lat="43.61966" lon="6.59942">
        <ele>773.4</ele>
        <time>2023-11-26T11:36:50Z</time>
      </trkpt>
      <trkpt lat="43.61966" lon="6.59942">
        <ele>773.4</ele>
        <time>2023-11-26T11:36:51Z</time>
      </trkpt>
      <trkpt lat="43.61966" lon="6.59942">
        <ele>773.4</ele>
        <time>2023-11-26T11:36:52Z</time>
      </trkpt>
      <trkpt lat="43.61966" lon="6.59942">
        <ele>773.3</ele>
        <time>2023-11-26T11:36:53Z</time>
      </trkpt>
      <trkpt lat="43.61966" lon="6.59942">
        <ele>773.2</ele>
        <time>2023-11-26T11:36:54Z</time>
      </trkpt>
      <trkpt lat="43.61965" lon="6.59942">
        <ele>773.2</ele>
        <time>2023-11-26T11:36:55Z</time>
      </trkpt>
      <trkpt lat="43.61965" lon="6.59942">
        <ele>773.2</ele>
        <time>2023-11-26T11:36:56Z</time>
      </trkpt>
      <trkpt lat="43.61965" lon="6.59942">
        <ele>773.2</ele>
        <time>2023-11-26T11:36:57Z</time>
      </trkpt>
      <trkpt lat="43.61965" lon="6.59942">
        <ele>773.3</ele>
        <time>2023-11-26T11:36:58Z</time>
      </trkpt>
      <trkpt lat="43.61965" lon="6.59942">
        <ele>773.3</ele>
        <time>2023-11-26T11:36:59Z</time>
      </trkpt>
      <trkpt lat="43.61965" lon="6.59942">
        <ele>773.3</ele>
        <time>2023-11-26T11:37:00Z</time>
      </trkpt>
      <trkpt lat="43.61965" lon="6.59942">
        <ele>773.4</ele>
        <time>2023-11-26T11:37:01Z</time>
      </trkpt>
      <trkpt lat="43.61965" lon="6.59942">
        <ele>773.4</ele>
        <time>2023-11-26T11:37:02Z</time>
      </trkpt>
      <trkpt lat="43.61965" lon="6.59942">
        <ele>773.3</ele>
        <time>2023-11-26T11:37:03Z</time>
      </trkpt>
      <trkpt lat="43.61965" lon="6.59942">
        <ele>773.3</ele>
        <time>2023-11-26T11:37:04Z</time>
      </trkpt>
      <trkpt lat="43.61965" lon="6.59942">
        <ele>773.3</ele>
        <time>2023-11-26T11:37:05Z</time>
      </trkpt>
      <trkpt lat="43.61965" lon="6.59942">
        <ele>773.3</ele>
        <time>2023-11-26T11:37:06Z</time>
      </trkpt>
      <trkpt lat="43.61965" lon="6.59942">
        <ele>773.3</ele>
        <time>2023-11-26T11:37:07Z</time>
      </trkpt>
      <trkpt lat="43.61965" lon="6.59941">
        <ele>773.3</ele>
        <time>2023-11-26T11:37:08Z</time>
      </trkpt>
      <trkpt lat="43.61965" lon="6.59941">
        <ele>773.4</ele>
        <time>2023-11-26T11:37:09Z</time>
      </trkpt>
      <trkpt lat="43.61965" lon="6.59941">
        <ele>773.4</ele>
        <time>2023-11-26T11:37:10Z</time>
      </trkpt>
      <trkpt lat="43.61965" lon="6.59941">
        <ele>773.4</ele>
        <time>2023-11-26T11:37:11Z</time>
      </trkpt>
      <trkpt lat="43.61965" lon="6.59942">
        <ele>773.4</ele>
        <time>2023-11-26T11:37:12Z</time>
      </trkpt>
      <trkpt lat="43.61965" lon="6.59941">
        <ele>773.4</ele>
        <time>2023-11-26T11:37:13Z</time>
      </trkpt>
      <trkpt lat="43.61965" lon="6.59941">
        <ele>773.4</ele>
        <time>2023-11-26T11:37:14Z</time>
      </trkpt>
      <trkpt lat="43.61965" lon="6.59941">
        <ele>773.5</ele>
        <time>2023-11-26T11:37:15Z</time>
      </trkpt>
      <trkpt lat="43.61965" lon="6.59941">
        <ele>773.5</ele>
        <time>2023-11-26T11:37:16Z</time>
      </trkpt>
      <trkpt lat="43.61965" lon="6.59941">
        <ele>773.5</ele>
        <time>2023-11-26T11:37:17Z</time>
      </trkpt>
      <trkpt lat="43.61965" lon="6.59941">
        <ele>773.5</ele>
        <time>2023-11-26T11:37:18Z</time>
      </trkpt>
      <trkpt lat="43.61965" lon="6.59941">
        <ele>773.5</ele>
        <time>2023-11-26T11:37:19Z</time>
      </trkpt>
      <trkpt lat="43.61965" lon="6.59941">
        <ele>773.5</ele>
        <time>2023-11-26T11:37:20Z</time>
      </trkpt>
      <trkpt lat="43.61965" lon="6.59941">
        <ele>773.5</ele>
        <time>2023-11-26T11:37:21Z</time>
      </trkpt>
      <trkpt lat="43.61965" lon="6.59941">
        <ele>773.6</ele>
        <time>2023-11-26T11:37:22Z</time>
      </trkpt>
      <trkpt lat="43.61965" lon="6.59941">
        <ele>773.6</ele>
        <time>2023-11-26T11:37:23Z</time>
      </trkpt>
      <trkpt lat="43.61965" lon="6.59941">
        <ele>773.6</ele>
        <time>2023-11-26T11:37:24Z</time>
      </trkpt>
      <trkpt lat="43.61965" lon="6.59941">
        <ele>773.6</ele>
        <time>2023-11-26T11:37:25Z</time>
      </trkpt>
      <trkpt lat="43.61965" lon="6.59941">
        <ele>773.6</ele>
        <time>2023-11-26T11:37:26Z</time>
      </trkpt>
      <trkpt lat="43.61965" lon="6.59941">
        <ele>773.5</ele>
        <time>2023-11-26T11:37:27Z</time>
      </trkpt>
      <trkpt lat="43.61965" lon="6.59941">
        <ele>773.5</ele>
        <time>2023-11-26T11:37:28Z</time>
      </trkpt>
      <trkpt lat="43.61965" lon="6.59941">
        <ele>773.5</ele>
        <time>2023-11-26T11:37:29Z</time>
      </trkpt>
      <trkpt lat="43.61965" lon="6.59941">
        <ele>773.5</ele>
        <time>2023-11-26T11:37:30Z</time>
      </trkpt>
      <trkpt lat="43.61965" lon="6.59941">
        <ele>773.5</ele>
        <time>2023-11-26T11:37:31Z</time>
      </trkpt>
      <trkpt lat="43.61965" lon="6.59941">
        <ele>773.5</ele>
        <time>2023-11-26T11:37:32Z</time>
      </trkpt>
      <trkpt lat="43.61964" lon="6.59941">
        <ele>773.5</ele>
        <time>2023-11-26T11:37:33Z</time>
      </trkpt>
      <trkpt lat="43.61964" lon="6.59941">
        <ele>773.5</ele>
        <time>2023-11-26T11:37:34Z</time>
      </trkpt>
      <trkpt lat="43.61964" lon="6.59941">
        <ele>773.5</ele>
        <time>2023-11-26T11:37:35Z</time>
      </trkpt>
      <trkpt lat="43.61965" lon="6.59941">
        <ele>773.5</ele>
        <time>2023-11-26T11:37:36Z</time>
      </trkpt>
      <trkpt lat="43.61964" lon="6.59941">
        <ele>773.5</ele>
        <time>2023-11-26T11:37:37Z</time>
      </trkpt>
      <trkpt lat="43.61964" lon="6.59941">
        <ele>773.5</ele>
        <time>2023-11-26T11:37:38Z</time>
      </trkpt>
      <trkpt lat="43.61964" lon="6.59941">
        <ele>773.4</ele>
        <time>2023-11-26T11:37:39Z</time>
      </trkpt>
      <trkpt lat="43.61964" lon="6.59941">
        <ele>773.4</ele>
        <time>2023-11-26T11:37:40Z</time>
      </trkpt>
      <trkpt lat="43.61964" lon="6.59941">
        <ele>773.4</ele>
        <time>2023-11-26T11:37:41Z</time>
      </trkpt>
      <trkpt lat="43.61964" lon="6.59941">
        <ele>773.4</ele>
        <time>2023-11-26T11:37:42Z</time>
      </trkpt>
      <trkpt lat="43.61964" lon="6.59941">
        <ele>773.4</ele>
        <time>2023-11-26T11:37:43Z</time>
      </trkpt>
      <trkpt lat="43.61964" lon="6.59941">
        <ele>773.3</ele>
        <time>2023-11-26T11:37:44Z</time>
      </trkpt>
      <trkpt lat="43.61964" lon="6.59941">
        <ele>773.3</ele>
        <time>2023-11-26T11:37:45Z</time>
      </trkpt>
      <trkpt lat="43.61964" lon="6.59941">
        <ele>773.2</ele>
        <time>2023-11-26T11:37:46Z</time>
      </trkpt>
      <trkpt lat="43.61965" lon="6.59941">
        <ele>773.2</ele>
        <time>2023-11-26T11:37:47Z</time>
      </trkpt>
      <trkpt lat="43.61965" lon="6.59941">
        <ele>773.2</ele>
        <time>2023-11-26T11:37:48Z</time>
      </trkpt>
      <trkpt lat="43.61965" lon="6.59941">
        <ele>773.2</ele>
        <time>2023-11-26T11:37:49Z</time>
      </trkpt>
      <trkpt lat="43.61965" lon="6.59941">
        <ele>773.2</ele>
        <time>2023-11-26T11:37:50Z</time>
      </trkpt>
      <trkpt lat="43.61965" lon="6.59941">
        <ele>773.2</ele>
        <time>2023-11-26T11:37:51Z</time>
      </trkpt>
      <trkpt lat="43.61965" lon="6.59941">
        <ele>773.1</ele>
        <time>2023-11-26T11:37:52Z</time>
      </trkpt>
      <trkpt lat="43.61965" lon="6.5994">
        <ele>773.2</ele>
        <time>2023-11-26T11:37:53Z</time>
      </trkpt>
      <trkpt lat="43.61965" lon="6.5994">
        <ele>773.2</ele>
        <time>2023-11-26T11:37:54Z</time>
      </trkpt>
      <trkpt lat="43.61965" lon="6.5994">
        <ele>773.3</ele>
        <time>2023-11-26T11:37:55Z</time>
      </trkpt>
      <trkpt lat="43.61965" lon="6.5994">
        <ele>773.3</ele>
        <time>2023-11-26T11:37:56Z</time>
      </trkpt>
      <trkpt lat="43.61965" lon="6.5994">
        <ele>773.3</ele>
        <time>2023-11-26T11:37:57Z</time>
      </trkpt>
      <trkpt lat="43.61965" lon="6.5994">
        <ele>773.2</ele>
        <time>2023-11-26T11:37:58Z</time>
      </trkpt>
      <trkpt lat="43.61965" lon="6.5994">
        <ele>773.3</ele>
        <time>2023-11-26T11:37:59Z</time>
      </trkpt>
      <trkpt lat="43.61965" lon="6.5994">
        <ele>773.3</ele>
        <time>2023-11-26T11:38:00Z</time>
      </trkpt>
      <trkpt lat="43.61965" lon="6.5994">
        <ele>773.2</ele>
        <time>2023-11-26T11:38:01Z</time>
      </trkpt>
      <trkpt lat="43.61965" lon="6.5994">
        <ele>773.2</ele>
        <time>2023-11-26T11:38:02Z</time>
      </trkpt>
      <trkpt lat="43.61965" lon="6.5994">
        <ele>773.2</ele>
        <time>2023-11-26T11:38:03Z</time>
      </trkpt>
      <trkpt lat="43.61965" lon="6.5994">
        <ele>773.1</ele>
        <time>2023-11-26T11:38:04Z</time>
      </trkpt>
      <trkpt lat="43.61965" lon="6.5994">
        <ele>773.2</ele>
        <time>2023-11-26T11:38:05Z</time>
      </trkpt>
      <trkpt lat="43.61965" lon="6.5994">
        <ele>773.2</ele>
        <time>2023-11-26T11:38:06Z</time>
      </trkpt>
      <trkpt lat="43.61965" lon="6.5994">
        <ele>773.3</ele>
        <time>2023-11-26T11:38:07Z</time>
      </trkpt>
      <trkpt lat="43.61965" lon="6.5994">
        <ele>773.3</ele>
        <time>2023-11-26T11:38:08Z</time>
      </trkpt>
      <trkpt lat="43.61965" lon="6.5994">
        <ele>773.4</ele>
        <time>2023-11-26T11:38:09Z</time>
      </trkpt>
      <trkpt lat="43.61965" lon="6.5994">
        <ele>773.4</ele>
        <time>2023-11-26T11:38:10Z</time>
      </trkpt>
      <trkpt lat="43.61965" lon="6.5994">
        <ele>773.3</ele>
        <time>2023-11-26T11:38:11Z</time>
      </trkpt>
      <trkpt lat="43.61965" lon="6.5994">
        <ele>773.2</ele>
        <time>2023-11-26T11:38:12Z</time>
      </trkpt>
      <trkpt lat="43.61965" lon="6.5994">
        <ele>773.1</ele>
        <time>2023-11-26T11:38:13Z</time>
      </trkpt>
      <trkpt lat="43.61965" lon="6.5994">
        <ele>773.1</ele>
        <time>2023-11-26T11:38:14Z</time>
      </trkpt>
      <trkpt lat="43.61965" lon="6.59939">
        <ele>773.1</ele>
        <time>2023-11-26T11:38:15Z</time>
      </trkpt>
      <trkpt lat="43.61965" lon="6.59939">
        <ele>773.1</ele>
        <time>2023-11-26T11:38:16Z</time>
      </trkpt>
      <trkpt lat="43.61965" lon="6.59939">
        <ele>773.1</ele>
        <time>2023-11-26T11:38:17Z</time>
      </trkpt>
      <trkpt lat="43.61965" lon="6.59939">
        <ele>773.1</ele>
        <time>2023-11-26T11:38:18Z</time>
      </trkpt>
      <trkpt lat="43.61965" lon="6.59939">
        <ele>773.1</ele>
        <time>2023-11-26T11:38:19Z</time>
      </trkpt>
      <trkpt lat="43.61965" lon="6.59939">
        <ele>773.2</ele>
        <time>2023-11-26T11:38:20Z</time>
      </trkpt>
      <trkpt lat="43.61965" lon="6.59939">
        <ele>773.2</ele>
        <time>2023-11-26T11:38:21Z</time>
      </trkpt>
      <trkpt lat="43.61965" lon="6.59939">
        <ele>773.3</ele>
        <time>2023-11-26T11:38:22Z</time>
      </trkpt>
      <trkpt lat="43.61965" lon="6.59939">
        <ele>773.2</ele>
        <time>2023-11-26T11:38:23Z</time>
      </trkpt>
      <trkpt lat="43.61965" lon="6.59939">
        <ele>773.2</ele>
        <time>2023-11-26T11:38:24Z</time>
      </trkpt>
      <trkpt lat="43.61965" lon="6.59939">
        <ele>773.2</ele>
        <time>2023-11-26T11:38:25Z</time>
      </trkpt>
      <trkpt lat="43.61965" lon="6.59939">
        <ele>773.2</ele>
        <time>2023-11-26T11:38:26Z</time>
      </trkpt>
      <trkpt lat="43.61965" lon="6.59938">
        <ele>773.2</ele>
        <time>2023-11-26T11:38:27Z</time>
      </trkpt>
      <trkpt lat="43.61965" lon="6.59938">
        <ele>773.2</ele>
        <time>2023-11-26T11:38:28Z</time>
      </trkpt>
      <trkpt lat="43.61965" lon="6.59938">
        <ele>773.2</ele>
        <time>2023-11-26T11:38:29Z</time>
      </trkpt>
      <trkpt lat="43.61965" lon="6.59938">
        <ele>773.3</ele>
        <time>2023-11-26T11:38:30Z</time>
      </trkpt>
      <trkpt lat="43.61965" lon="6.59938">
        <ele>773.2</ele>
        <time>2023-11-26T11:38:31Z</time>
      </trkpt>
      <trkpt lat="43.61965" lon="6.59938">
        <ele>773.1</ele>
        <time>2023-11-26T11:38:32Z</time>
      </trkpt>
      <trkpt lat="43.61965" lon="6.59938">
        <ele>773.1</ele>
        <time>2023-11-26T11:38:33Z</time>
      </trkpt>
      <trkpt lat="43.61965" lon="6.59938">
        <ele>773.1</ele>
        <time>2023-11-26T11:38:34Z</time>
      </trkpt>
      <trkpt lat="43.61965" lon="6.59938">
        <ele>773.1</ele>
        <time>2023-11-26T11:38:35Z</time>
      </trkpt>
      <trkpt lat="43.61965" lon="6.59938">
        <ele>773.1</ele>
        <time>2023-11-26T11:38:36Z</time>
      </trkpt>
      <trkpt lat="43.61965" lon="6.59938">
        <ele>773.2</ele>
        <time>2023-11-26T11:38:37Z</time>
      </trkpt>
      <trkpt lat="43.61965" lon="6.59938">
        <ele>773.3</ele>
        <time>2023-11-26T11:38:38Z</time>
      </trkpt>
      <trkpt lat="43.61965" lon="6.59938">
        <ele>773.3</ele>
        <time>2023-11-26T11:38:39Z</time>
      </trkpt>
      <trkpt lat="43.61965" lon="6.59938">
        <ele>773.3</ele>
        <time>2023-11-26T11:38:40Z</time>
      </trkpt>
      <trkpt lat="43.61965" lon="6.59938">
        <ele>773.3</ele>
        <time>2023-11-26T11:38:41Z</time>
      </trkpt>
      <trkpt lat="43.61965" lon="6.59937">
        <ele>773.3</ele>
        <time>2023-11-26T11:38:42Z</time>
      </trkpt>
      <trkpt lat="43.61965" lon="6.59937">
        <ele>773.5</ele>
        <time>2023-11-26T11:38:43Z</time>
      </trkpt>
      <trkpt lat="43.61965" lon="6.59937">
        <ele>773.5</ele>
        <time>2023-11-26T11:38:44Z</time>
      </trkpt>
      <trkpt lat="43.61965" lon="6.59937">
        <ele>773.5</ele>
        <time>2023-11-26T11:38:45Z</time>
      </trkpt>
      <trkpt lat="43.61965" lon="6.59937">
        <ele>773.5</ele>
        <time>2023-11-26T11:38:46Z</time>
      </trkpt>
      <trkpt lat="43.61965" lon="6.59937">
        <ele>773.5</ele>
        <time>2023-11-26T11:38:47Z</time>
      </trkpt>
      <trkpt lat="43.61965" lon="6.59937">
        <ele>773.4</ele>
        <time>2023-11-26T11:38:48Z</time>
      </trkpt>
      <trkpt lat="43.61965" lon="6.59937">
        <ele>773.3</ele>
        <time>2023-11-26T11:38:49Z</time>
      </trkpt>
      <trkpt lat="43.61965" lon="6.59937">
        <ele>773.3</ele>
        <time>2023-11-26T11:38:50Z</time>
      </trkpt>
      <trkpt lat="43.61965" lon="6.59937">
        <ele>773.3</ele>
        <time>2023-11-26T11:38:51Z</time>
      </trkpt>
      <trkpt lat="43.61965" lon="6.59937">
        <ele>773.2</ele>
        <time>2023-11-26T11:38:52Z</time>
      </trkpt>
      <trkpt lat="43.61965" lon="6.59938">
        <ele>773.2</ele>
        <time>2023-11-26T11:38:53Z</time>
      </trkpt>
      <trkpt lat="43.61965" lon="6.59938">
        <ele>773.1</ele>
        <time>2023-11-26T11:38:54Z</time>
      </trkpt>
      <trkpt lat="43.61964" lon="6.59938">
        <ele>773.2</ele>
        <time>2023-11-26T11:38:55Z</time>
      </trkpt>
      <trkpt lat="43.61964" lon="6.59938">
        <ele>773.3</ele>
        <time>2023-11-26T11:38:56Z</time>
      </trkpt>
      <trkpt lat="43.61965" lon="6.59938">
        <ele>773.3</ele>
        <time>2023-11-26T11:38:57Z</time>
      </trkpt>
      <trkpt lat="43.61965" lon="6.59938">
        <ele>773.4</ele>
        <time>2023-11-26T11:38:58Z</time>
      </trkpt>
      <trkpt lat="43.61964" lon="6.59938">
        <ele>773.5</ele>
        <time>2023-11-26T11:38:59Z</time>
      </trkpt>
      <trkpt lat="43.61964" lon="6.59938">
        <ele>773.5</ele>
        <time>2023-11-26T11:39:00Z</time>
      </trkpt>
      <trkpt lat="43.61965" lon="6.59938">
        <ele>773.6</ele>
        <time>2023-11-26T11:39:01Z</time>
      </trkpt>
      <trkpt lat="43.61965" lon="6.59938">
        <ele>773.6</ele>
        <time>2023-11-26T11:39:02Z</time>
      </trkpt>
      <trkpt lat="43.61965" lon="6.59938">
        <ele>773.5</ele>
        <time>2023-11-26T11:39:03Z</time>
      </trkpt>
      <trkpt lat="43.61965" lon="6.59938">
        <ele>773.5</ele>
        <time>2023-11-26T11:39:04Z</time>
      </trkpt>
      <trkpt lat="43.61965" lon="6.59938">
        <ele>773.5</ele>
        <time>2023-11-26T11:39:05Z</time>
      </trkpt>
      <trkpt lat="43.61965" lon="6.59938">
        <ele>773.6</ele>
        <time>2023-11-26T11:39:06Z</time>
      </trkpt>
      <trkpt lat="43.61965" lon="6.59938">
        <ele>773.5</ele>
        <time>2023-11-26T11:39:07Z</time>
      </trkpt>
      <trkpt lat="43.61965" lon="6.59938">
        <ele>773.4</ele>
        <time>2023-11-26T11:39:08Z</time>
      </trkpt>
      <trkpt lat="43.61965" lon="6.59938">
        <ele>773.4</ele>
        <time>2023-11-26T11:39:09Z</time>
      </trkpt>
      <trkpt lat="43.61965" lon="6.59938">
        <ele>773.4</ele>
        <time>2023-11-26T11:39:10Z</time>
      </trkpt>
      <trkpt lat="43.61965" lon="6.59938">
        <ele>773.3</ele>
        <time>2023-11-26T11:39:11Z</time>
      </trkpt>
      <trkpt lat="43.61965" lon="6.59938">
        <ele>773.3</ele>
        <time>2023-11-26T11:39:12Z</time>
      </trkpt>
      <trkpt lat="43.61965" lon="6.59938">
        <ele>773.3</ele>
        <time>2023-11-26T11:39:13Z</time>
      </trkpt>
      <trkpt lat="43.61965" lon="6.59938">
        <ele>773.3</ele>
        <time>2023-11-26T11:39:14Z</time>
      </trkpt>
      <trkpt lat="43.61965" lon="6.59938">
        <ele>773.3</ele>
        <time>2023-11-26T11:39:15Z</time>
      </trkpt>
      <trkpt lat="43.61965" lon="6.59938">
        <ele>773.3</ele>
        <time>2023-11-26T11:39:16Z</time>
      </trkpt>
      <trkpt lat="43.61965" lon="6.59938">
        <ele>773.4</ele>
        <time>2023-11-26T11:39:17Z</time>
      </trkpt>
      <trkpt lat="43.61965" lon="6.59938">
        <ele>773.4</ele>
        <time>2023-11-26T11:39:18Z</time>
      </trkpt>
      <trkpt lat="43.61965" lon="6.59938">
        <ele>773.4</ele>
        <time>2023-11-26T11:39:19Z</time>
      </trkpt>
      <trkpt lat="43.61965" lon="6.59938">
        <ele>773.4</ele>
        <time>2023-11-26T11:39:20Z</time>
      </trkpt>
      <trkpt lat="43.61965" lon="6.59938">
        <ele>773.5</ele>
        <time>2023-11-26T11:39:21Z</time>
      </trkpt>
      <trkpt lat="43.61965" lon="6.59938">
        <ele>773.4</ele>
        <time>2023-11-26T11:39:22Z</time>
      </trkpt>
      <trkpt lat="43.61965" lon="6.59938">
        <ele>773.4</ele>
        <time>2023-11-26T11:39:23Z</time>
      </trkpt>
      <trkpt lat="43.61965" lon="6.59938">
        <ele>773.4</ele>
        <time>2023-11-26T11:39:24Z</time>
      </trkpt>
      <trkpt lat="43.61965" lon="6.59938">
        <ele>773.4</ele>
        <time>2023-11-26T11:39:25Z</time>
      </trkpt>
      <trkpt lat="43.61965" lon="6.59938">
        <ele>773.4</ele>
        <time>2023-11-26T11:39:26Z</time>
      </trkpt>
      <trkpt lat="43.61965" lon="6.59938">
        <ele>773.4</ele>
        <time>2023-11-26T11:39:27Z</time>
      </trkpt>
      <trkpt lat="43.61965" lon="6.59938">
        <ele>773.5</ele>
        <time>2023-11-26T11:39:28Z</time>
      </trkpt>
      <trkpt lat="43.61965" lon="6.59938">
        <ele>773.5</ele>
        <time>2023-11-26T11:39:29Z</time>
      </trkpt>
      <trkpt lat="43.61965" lon="6.59938">
        <ele>773.5</ele>
        <time>2023-11-26T11:39:30Z</time>
      </trkpt>
      <trkpt lat="43.61965" lon="6.59938">
        <ele>773.6</ele>
        <time>2023-11-26T11:39:31Z</time>
      </trkpt>
      <trkpt lat="43.61965" lon="6.59937">
        <ele>773.5</ele>
        <time>2023-11-26T11:39:32Z</time>
      </trkpt>
      <trkpt lat="43.61965" lon="6.59937">
        <ele>773.5</ele>
        <time>2023-11-26T11:39:33Z</time>
      </trkpt>
      <trkpt lat="43.61965" lon="6.59937">
        <ele>773.5</ele>
        <time>2023-11-26T11:39:34Z</time>
      </trkpt>
      <trkpt lat="43.61964" lon="6.59937">
        <ele>773.5</ele>
        <time>2023-11-26T11:39:35Z</time>
      </trkpt>
      <trkpt lat="43.61964" lon="6.59937">
        <ele>773.4</ele>
        <time>2023-11-26T11:39:36Z</time>
      </trkpt>
      <trkpt lat="43.61964" lon="6.59937">
        <ele>773.4</ele>
        <time>2023-11-26T11:39:37Z</time>
      </trkpt>
      <trkpt lat="43.61964" lon="6.59937">
        <ele>773.3</ele>
        <time>2023-11-26T11:39:38Z</time>
      </trkpt>
      <trkpt lat="43.61964" lon="6.59937">
        <ele>773.3</ele>
        <time>2023-11-26T11:39:39Z</time>
      </trkpt>
      <trkpt lat="43.61964" lon="6.59937">
        <ele>773.3</ele>
        <time>2023-11-26T11:39:40Z</time>
      </trkpt>
      <trkpt lat="43.61964" lon="6.59937">
        <ele>773.3</ele>
        <time>2023-11-26T11:39:41Z</time>
      </trkpt>
      <trkpt lat="43.61964" lon="6.59937">
        <ele>773.3</ele>
        <time>2023-11-26T11:39:42Z</time>
      </trkpt>
      <trkpt lat="43.61964" lon="6.59937">
        <ele>773.4</ele>
        <time>2023-11-26T11:39:43Z</time>
      </trkpt>
      <trkpt lat="43.61964" lon="6.59937">
        <ele>773.4</ele>
        <time>2023-11-26T11:39:44Z</time>
      </trkpt>
      <trkpt lat="43.61964" lon="6.59937">
        <ele>773.4</ele>
        <time>2023-11-26T11:39:45Z</time>
      </trkpt>
      <trkpt lat="43.61964" lon="6.59937">
        <ele>773.5</ele>
        <time>2023-11-26T11:39:46Z</time>
      </trkpt>
      <trkpt lat="43.61964" lon="6.59938">
        <ele>773.5</ele>
        <time>2023-11-26T11:39:47Z</time>
      </trkpt>
      <trkpt lat="43.61964" lon="6.59937">
        <ele>773.5</ele>
        <time>2023-11-26T11:39:48Z</time>
      </trkpt>
      <trkpt lat="43.61964" lon="6.59938">
        <ele>773.4</ele>
        <time>2023-11-26T11:39:49Z</time>
      </trkpt>
      <trkpt lat="43.61964" lon="6.59938">
        <ele>773.3</ele>
        <time>2023-11-26T11:39:50Z</time>
      </trkpt>
      <trkpt lat="43.61964" lon="6.59938">
        <ele>773.2</ele>
        <time>2023-11-26T11:39:51Z</time>
      </trkpt>
      <trkpt lat="43.61964" lon="6.59938">
        <ele>773.2</ele>
        <time>2023-11-26T11:39:52Z</time>
      </trkpt>
      <trkpt lat="43.61964" lon="6.59938">
        <ele>773.2</ele>
        <time>2023-11-26T11:39:53Z</time>
      </trkpt>
      <trkpt lat="43.61964" lon="6.59938">
        <ele>773.1</ele>
        <time>2023-11-26T11:39:54Z</time>
      </trkpt>
      <trkpt lat="43.61964" lon="6.59938">
        <ele>773.1</ele>
        <time>2023-11-26T11:39:55Z</time>
      </trkpt>
      <trkpt lat="43.61964" lon="6.59938">
        <ele>773.2</ele>
        <time>2023-11-26T11:39:56Z</time>
      </trkpt>
      <trkpt lat="43.61964" lon="6.59938">
        <ele>773.2</ele>
        <time>2023-11-26T11:39:57Z</time>
      </trkpt>
      <trkpt lat="43.61964" lon="6.59938">
        <ele>773.3</ele>
        <time>2023-11-26T11:39:58Z</time>
      </trkpt>
      <trkpt lat="43.61964" lon="6.59938">
        <ele>773.3</ele>
        <time>2023-11-26T11:39:59Z</time>
      </trkpt>
      <trkpt lat="43.61964" lon="6.59938">
        <ele>773.2</ele>
        <time>2023-11-26T11:40:00Z</time>
      </trkpt>
      <trkpt lat="43.61964" lon="6.59938">
        <ele>773.2</ele>
        <time>2023-11-26T11:40:01Z</time>
      </trkpt>
      <trkpt lat="43.61964" lon="6.59938">
        <ele>773.2</ele>
        <time>2023-11-26T11:40:02Z</time>
      </trkpt>
      <trkpt lat="43.61964" lon="6.59938">
        <ele>773.3</ele>
        <time>2023-11-26T11:40:03Z</time>
      </trkpt>
      <trkpt lat="43.61964" lon="6.59939">
        <ele>773.3</ele>
        <time>2023-11-26T11:40:04Z</time>
      </trkpt>
      <trkpt lat="43.61964" lon="6.59939">
        <ele>773.4</ele>
        <time>2023-11-26T11:40:05Z</time>
      </trkpt>
      <trkpt lat="43.61964" lon="6.59939">
        <ele>773.4</ele>
        <time>2023-11-26T11:40:06Z</time>
      </trkpt>
      <trkpt lat="43.61964" lon="6.59939">
        <ele>773.3</ele>
        <time>2023-11-26T11:40:07Z</time>
      </trkpt>
      <trkpt lat="43.61964" lon="6.59939">
        <ele>773.3</ele>
        <time>2023-11-26T11:40:08Z</time>
      </trkpt>
      <trkpt lat="43.61964" lon="6.59939">
        <ele>773.4</ele>
        <time>2023-11-26T11:40:09Z</time>
      </trkpt>
      <trkpt lat="43.61964" lon="6.59939">
        <ele>773.4</ele>
        <time>2023-11-26T11:40:10Z</time>
      </trkpt>
      <trkpt lat="43.61964" lon="6.5994">
        <ele>773.5</ele>
        <time>2023-11-26T11:40:11Z</time>
      </trkpt>
      <trkpt lat="43.61964" lon="6.5994">
        <ele>773.6</ele>
        <time>2023-11-26T11:40:12Z</time>
      </trkpt>
      <trkpt lat="43.61964" lon="6.5994">
        <ele>773.6</ele>
        <time>2023-11-26T11:40:13Z</time>
      </trkpt>
      <trkpt lat="43.61964" lon="6.5994">
        <ele>773.7</ele>
        <time>2023-11-26T11:40:14Z</time>
      </trkpt>
      <trkpt lat="43.61964" lon="6.5994">
        <ele>773.5</ele>
        <time>2023-11-26T11:40:15Z</time>
      </trkpt>
      <trkpt lat="43.61964" lon="6.5994">
        <ele>773.5</ele>
        <time>2023-11-26T11:40:16Z</time>
      </trkpt>
      <trkpt lat="43.61964" lon="6.5994">
        <ele>773.5</ele>
        <time>2023-11-26T11:40:17Z</time>
      </trkpt>
      <trkpt lat="43.61964" lon="6.5994">
        <ele>773.4</ele>
        <time>2023-11-26T11:40:18Z</time>
      </trkpt>
      <trkpt lat="43.61964" lon="6.5994">
        <ele>773.5</ele>
        <time>2023-11-26T11:40:19Z</time>
      </trkpt>
      <trkpt lat="43.61964" lon="6.5994">
        <ele>773.4</ele>
        <time>2023-11-26T11:40:20Z</time>
      </trkpt>
      <trkpt lat="43.61964" lon="6.5994">
        <ele>773.3</ele>
        <time>2023-11-26T11:40:21Z</time>
      </trkpt>
      <trkpt lat="43.61964" lon="6.59941">
        <ele>773.3</ele>
        <time>2023-11-26T11:40:22Z</time>
      </trkpt>
      <trkpt lat="43.61964" lon="6.59941">
        <ele>773.3</ele>
        <time>2023-11-26T11:40:23Z</time>
      </trkpt>
      <trkpt lat="43.61964" lon="6.59941">
        <ele>773.4</ele>
        <time>2023-11-26T11:40:24Z</time>
      </trkpt>
      <trkpt lat="43.61964" lon="6.59941">
        <ele>773.4</ele>
        <time>2023-11-26T11:40:25Z</time>
      </trkpt>
      <trkpt lat="43.61964" lon="6.59941">
        <ele>773.3</ele>
        <time>2023-11-26T11:40:26Z</time>
      </trkpt>
      <trkpt lat="43.61964" lon="6.59941">
        <ele>773.3</ele>
        <time>2023-11-26T11:40:27Z</time>
      </trkpt>
      <trkpt lat="43.61964" lon="6.59941">
        <ele>773.4</ele>
        <time>2023-11-26T11:40:28Z</time>
      </trkpt>
      <trkpt lat="43.61964" lon="6.59941">
        <ele>773.3</ele>
        <time>2023-11-26T11:40:29Z</time>
      </trkpt>
      <trkpt lat="43.61964" lon="6.59941">
        <ele>773.4</ele>
        <time>2023-11-26T11:40:30Z</time>
      </trkpt>
      <trkpt lat="43.61964" lon="6.59941">
        <ele>773.3</ele>
        <time>2023-11-26T11:40:31Z</time>
      </trkpt>
      <trkpt lat="43.61964" lon="6.59941">
        <ele>773.3</ele>
        <time>2023-11-26T11:40:32Z</time>
      </trkpt>
      <trkpt lat="43.61964" lon="6.59941">
        <ele>773.2</ele>
        <time>2023-11-26T11:40:33Z</time>
      </trkpt>
      <trkpt lat="43.61964" lon="6.59941">
        <ele>773.2</ele>
        <time>2023-11-26T11:40:34Z</time>
      </trkpt>
      <trkpt lat="43.61964" lon="6.59941">
        <ele>773.2</ele>
        <time>2023-11-26T11:40:35Z</time>
      </trkpt>
      <trkpt lat="43.61964" lon="6.59941">
        <ele>773.2</ele>
        <time>2023-11-26T11:40:36Z</time>
      </trkpt>
      <trkpt lat="43.61964" lon="6.59941">
        <ele>773.3</ele>
        <time>2023-11-26T11:40:37Z</time>
      </trkpt>
      <trkpt lat="43.61964" lon="6.59941">
        <ele>773.3</ele>
        <time>2023-11-26T11:40:38Z</time>
      </trkpt>
      <trkpt lat="43.61964" lon="6.59941">
        <ele>773.4</ele>
        <time>2023-11-26T11:40:39Z</time>
      </trkpt>
      <trkpt lat="43.61964" lon="6.59941">
        <ele>773.5</ele>
        <time>2023-11-26T11:40:40Z</time>
      </trkpt>
      <trkpt lat="43.61964" lon="6.59941">
        <ele>773.6</ele>
        <time>2023-11-26T11:40:41Z</time>
      </trkpt>
      <trkpt lat="43.61964" lon="6.59941">
        <ele>773.5</ele>
        <time>2023-11-26T11:40:42Z</time>
      </trkpt>
      <trkpt lat="43.61964" lon="6.59941">
        <ele>773.5</ele>
        <time>2023-11-26T11:40:43Z</time>
      </trkpt>
      <trkpt lat="43.61964" lon="6.59941">
        <ele>773.5</ele>
        <time>2023-11-26T11:40:44Z</time>
      </trkpt>
      <trkpt lat="43.61964" lon="6.59941">
        <ele>773.5</ele>
        <time>2023-11-26T11:40:45Z</time>
      </trkpt>
      <trkpt lat="43.61964" lon="6.59941">
        <ele>773.6</ele>
        <time>2023-11-26T11:40:46Z</time>
      </trkpt>
      <trkpt lat="43.61964" lon="6.59941">
        <ele>773.5</ele>
        <time>2023-11-26T11:40:47Z</time>
      </trkpt>
      <trkpt lat="43.61964" lon="6.59941">
        <ele>773.5</ele>
        <time>2023-11-26T11:40:48Z</time>
      </trkpt>
      <trkpt lat="43.61964" lon="6.59941">
        <ele>773.4</ele>
        <time>2023-11-26T11:40:49Z</time>
      </trkpt>
      <trkpt lat="43.61964" lon="6.59941">
        <ele>773.4</ele>
        <time>2023-11-26T11:40:50Z</time>
      </trkpt>
      <trkpt lat="43.61964" lon="6.59941">
        <ele>773.4</ele>
        <time>2023-11-26T11:40:51Z</time>
      </trkpt>
      <trkpt lat="43.61964" lon="6.59941">
        <ele>773.4</ele>
        <time>2023-11-26T11:40:52Z</time>
      </trkpt>
      <trkpt lat="43.61964" lon="6.59941">
        <ele>773.5</ele>
        <time>2023-11-26T11:40:53Z</time>
      </trkpt>
      <trkpt lat="43.61964" lon="6.59941">
        <ele>773.5</ele>
        <time>2023-11-26T11:40:54Z</time>
      </trkpt>
      <trkpt lat="43.61964" lon="6.59941">
        <ele>773.5</ele>
        <time>2023-11-26T11:40:55Z</time>
      </trkpt>
      <trkpt lat="43.61964" lon="6.59941">
        <ele>773.5</ele>
        <time>2023-11-26T11:40:56Z</time>
      </trkpt>
      <trkpt lat="43.61964" lon="6.59941">
        <ele>773.5</ele>
        <time>2023-11-26T11:40:57Z</time>
      </trkpt>
      <trkpt lat="43.61964" lon="6.59941">
        <ele>773.4</ele>
        <time>2023-11-26T11:40:58Z</time>
      </trkpt>
      <trkpt lat="43.61964" lon="6.59941">
        <ele>773.4</ele>
        <time>2023-11-26T11:40:59Z</time>
      </trkpt>
      <trkpt lat="43.61964" lon="6.59941">
        <ele>773.5</ele>
        <time>2023-11-26T11:41:00Z</time>
      </trkpt>
      <trkpt lat="43.61964" lon="6.59941">
        <ele>773.5</ele>
        <time>2023-11-26T11:41:01Z</time>
      </trkpt>
      <trkpt lat="43.61964" lon="6.59941">
        <ele>773.5</ele>
        <time>2023-11-26T11:41:02Z</time>
      </trkpt>
      <trkpt lat="43.61964" lon="6.59942">
        <ele>773.4</ele>
        <time>2023-11-26T11:41:03Z</time>
      </trkpt>
      <trkpt lat="43.61964" lon="6.59942">
        <ele>773.3</ele>
        <time>2023-11-26T11:41:04Z</time>
      </trkpt>
      <trkpt lat="43.61964" lon="6.59942">
        <ele>773.3</ele>
        <time>2023-11-26T11:41:05Z</time>
      </trkpt>
      <trkpt lat="43.61964" lon="6.59942">
        <ele>773.2</ele>
        <time>2023-11-26T11:41:06Z</time>
      </trkpt>
      <trkpt lat="43.61964" lon="6.59942">
        <ele>773.2</ele>
        <time>2023-11-26T11:41:07Z</time>
      </trkpt>
      <trkpt lat="43.61964" lon="6.59942">
        <ele>773.1</ele>
        <time>2023-11-26T11:41:08Z</time>
      </trkpt>
      <trkpt lat="43.61964" lon="6.59942">
        <ele>773.1</ele>
        <time>2023-11-26T11:41:09Z</time>
      </trkpt>
      <trkpt lat="43.61964" lon="6.59942">
        <ele>773</ele>
        <time>2023-11-26T11:41:10Z</time>
      </trkpt>
      <trkpt lat="43.61964" lon="6.59942">
        <ele>773</ele>
        <time>2023-11-26T11:41:11Z</time>
      </trkpt>
      <trkpt lat="43.61964" lon="6.59942">
        <ele>773</ele>
        <time>2023-11-26T11:41:12Z</time>
      </trkpt>
      <trkpt lat="43.61964" lon="6.59942">
        <ele>772.9</ele>
        <time>2023-11-26T11:41:13Z</time>
      </trkpt>
      <trkpt lat="43.61964" lon="6.59942">
        <ele>772.9</ele>
        <time>2023-11-26T11:41:14Z</time>
      </trkpt>
      <trkpt lat="43.61964" lon="6.59942">
        <ele>772.8</ele>
        <time>2023-11-26T11:41:15Z</time>
      </trkpt>
      <trkpt lat="43.61964" lon="6.59942">
        <ele>772.8</ele>
        <time>2023-11-26T11:41:16Z</time>
      </trkpt>
      <trkpt lat="43.61964" lon="6.59942">
        <ele>772.8</ele>
        <time>2023-11-26T11:41:17Z</time>
      </trkpt>
      <trkpt lat="43.61964" lon="6.59942">
        <ele>772.8</ele>
        <time>2023-11-26T11:41:18Z</time>
      </trkpt>
      <trkpt lat="43.61964" lon="6.59942">
        <ele>772.9</ele>
        <time>2023-11-26T11:41:19Z</time>
      </trkpt>
      <trkpt lat="43.61964" lon="6.59942">
        <ele>772.9</ele>
        <time>2023-11-26T11:41:20Z</time>
      </trkpt>
      <trkpt lat="43.61964" lon="6.59942">
        <ele>773</ele>
        <time>2023-11-26T11:41:21Z</time>
      </trkpt>
      <trkpt lat="43.61964" lon="6.59942">
        <ele>773.1</ele>
        <time>2023-11-26T11:41:22Z</time>
      </trkpt>
      <trkpt lat="43.61964" lon="6.59942">
        <ele>773.1</ele>
        <time>2023-11-26T11:41:23Z</time>
      </trkpt>
      <trkpt lat="43.61964" lon="6.59942">
        <ele>773.1</ele>
        <time>2023-11-26T11:41:24Z</time>
      </trkpt>
      <trkpt lat="43.61964" lon="6.59942">
        <ele>773.1</ele>
        <time>2023-11-26T11:41:25Z</time>
      </trkpt>
      <trkpt lat="43.61964" lon="6.59942">
        <ele>773.1</ele>
        <time>2023-11-26T11:41:26Z</time>
      </trkpt>
      <trkpt lat="43.61964" lon="6.59943">
        <ele>773.2</ele>
        <time>2023-11-26T11:41:27Z</time>
      </trkpt>
      <trkpt lat="43.61964" lon="6.59943">
        <ele>773.3</ele>
        <time>2023-11-26T11:41:28Z</time>
      </trkpt>
      <trkpt lat="43.61965" lon="6.59943">
        <ele>773.4</ele>
        <time>2023-11-26T11:41:29Z</time>
      </trkpt>
      <trkpt lat="43.61964" lon="6.59943">
        <ele>773.3</ele>
        <time>2023-11-26T11:41:30Z</time>
      </trkpt>
      <trkpt lat="43.61964" lon="6.59943">
        <ele>773.3</ele>
        <time>2023-11-26T11:41:31Z</time>
      </trkpt>
      <trkpt lat="43.61964" lon="6.59943">
        <ele>773.3</ele>
        <time>2023-11-26T11:41:32Z</time>
      </trkpt>
      <trkpt lat="43.61964" lon="6.59943">
        <ele>773.3</ele>
        <time>2023-11-26T11:41:33Z</time>
      </trkpt>
      <trkpt lat="43.61965" lon="6.59943">
        <ele>773.2</ele>
        <time>2023-11-26T11:41:34Z</time>
      </trkpt>
      <trkpt lat="43.61965" lon="6.59943">
        <ele>773.2</ele>
        <time>2023-11-26T11:41:35Z</time>
      </trkpt>
      <trkpt lat="43.61965" lon="6.59943">
        <ele>773.2</ele>
        <time>2023-11-26T11:41:36Z</time>
      </trkpt>
      <trkpt lat="43.61965" lon="6.59943">
        <ele>773.2</ele>
        <time>2023-11-26T11:41:37Z</time>
      </trkpt>
      <trkpt lat="43.61965" lon="6.59943">
        <ele>773.1</ele>
        <time>2023-11-26T11:41:38Z</time>
      </trkpt>
      <trkpt lat="43.61965" lon="6.59943">
        <ele>773.1</ele>
        <time>2023-11-26T11:41:39Z</time>
      </trkpt>
      <trkpt lat="43.61965" lon="6.59943">
        <ele>773.1</ele>
        <time>2023-11-26T11:41:40Z</time>
      </trkpt>
      <trkpt lat="43.61965" lon="6.59943">
        <ele>773.2</ele>
        <time>2023-11-26T11:41:41Z</time>
      </trkpt>
      <trkpt lat="43.61965" lon="6.59943">
        <ele>773.2</ele>
        <time>2023-11-26T11:41:42Z</time>
      </trkpt>
      <trkpt lat="43.61965" lon="6.59943">
        <ele>773.3</ele>
        <time>2023-11-26T11:41:43Z</time>
      </trkpt>
      <trkpt lat="43.61965" lon="6.59943">
        <ele>773.3</ele>
        <time>2023-11-26T11:41:44Z</time>
      </trkpt>
      <trkpt lat="43.61965" lon="6.59943">
        <ele>773.4</ele>
        <time>2023-11-26T11:41:45Z</time>
      </trkpt>
      <trkpt lat="43.61965" lon="6.59943">
        <ele>773.4</ele>
        <time>2023-11-26T11:41:46Z</time>
      </trkpt>
      <trkpt lat="43.61965" lon="6.59944">
        <ele>773.4</ele>
        <time>2023-11-26T11:41:47Z</time>
      </trkpt>
      <trkpt lat="43.61965" lon="6.59944">
        <ele>773.4</ele>
        <time>2023-11-26T11:41:48Z</time>
      </trkpt>
      <trkpt lat="43.61965" lon="6.59944">
        <ele>773.4</ele>
        <time>2023-11-26T11:41:49Z</time>
      </trkpt>
      <trkpt lat="43.61965" lon="6.59944">
        <ele>773.3</ele>
        <time>2023-11-26T11:41:50Z</time>
      </trkpt>
      <trkpt lat="43.61965" lon="6.59944">
        <ele>773.3</ele>
        <time>2023-11-26T11:41:51Z</time>
      </trkpt>
      <trkpt lat="43.61965" lon="6.59944">
        <ele>773.3</ele>
        <time>2023-11-26T11:41:52Z</time>
      </trkpt>
      <trkpt lat="43.61965" lon="6.59944">
        <ele>773.3</ele>
        <time>2023-11-26T11:41:53Z</time>
      </trkpt>
      <trkpt lat="43.61965" lon="6.59944">
        <ele>773.4</ele>
        <time>2023-11-26T11:41:54Z</time>
      </trkpt>
      <trkpt lat="43.61965" lon="6.59944">
        <ele>773.4</ele>
        <time>2023-11-26T11:41:55Z</time>
      </trkpt>
      <trkpt lat="43.61965" lon="6.59944">
        <ele>773.4</ele>
        <time>2023-11-26T11:41:56Z</time>
      </trkpt>
      <trkpt lat="43.61965" lon="6.59944">
        <ele>773.4</ele>
        <time>2023-11-26T11:41:57Z</time>
      </trkpt>
      <trkpt lat="43.61965" lon="6.59944">
        <ele>773.4</ele>
        <time>2023-11-26T11:41:58Z</time>
      </trkpt>
      <trkpt lat="43.61965" lon="6.59944">
        <ele>773.5</ele>
        <time>2023-11-26T11:41:59Z</time>
      </trkpt>
      <trkpt lat="43.61965" lon="6.59944">
        <ele>773.5</ele>
        <time>2023-11-26T11:42:00Z</time>
      </trkpt>
      <trkpt lat="43.61965" lon="6.59944">
        <ele>773.4</ele>
        <time>2023-11-26T11:42:01Z</time>
      </trkpt>
      <trkpt lat="43.61965" lon="6.59944">
        <ele>773.4</ele>
        <time>2023-11-26T11:42:02Z</time>
      </trkpt>
      <trkpt lat="43.61965" lon="6.59944">
        <ele>773.4</ele>
        <time>2023-11-26T11:42:03Z</time>
      </trkpt>
      <trkpt lat="43.61964" lon="6.59944">
        <ele>773.3</ele>
        <time>2023-11-26T11:42:04Z</time>
      </trkpt>
      <trkpt lat="43.61964" lon="6.59943">
        <ele>773.3</ele>
        <time>2023-11-26T11:42:05Z</time>
      </trkpt>
      <trkpt lat="43.61964" lon="6.59943">
        <ele>773.3</ele>
        <time>2023-11-26T11:42:06Z</time>
      </trkpt>
      <trkpt lat="43.61964" lon="6.59943">
        <ele>773.3</ele>
        <time>2023-11-26T11:42:07Z</time>
      </trkpt>
      <trkpt lat="43.61964" lon="6.59943">
        <ele>773.3</ele>
        <time>2023-11-26T11:42:08Z</time>
      </trkpt>
      <trkpt lat="43.61964" lon="6.59943">
        <ele>773.3</ele>
        <time>2023-11-26T11:42:09Z</time>
      </trkpt>
      <trkpt lat="43.61964" lon="6.59943">
        <ele>773.2</ele>
        <time>2023-11-26T11:42:10Z</time>
      </trkpt>
      <trkpt lat="43.61964" lon="6.59943">
        <ele>773</ele>
        <time>2023-11-26T11:42:11Z</time>
      </trkpt>
      <trkpt lat="43.61964" lon="6.59943">
        <ele>773</ele>
        <time>2023-11-26T11:42:12Z</time>
      </trkpt>
      <trkpt lat="43.61964" lon="6.59943">
        <ele>772.9</ele>
        <time>2023-11-26T11:42:13Z</time>
      </trkpt>
      <trkpt lat="43.61964" lon="6.59943">
        <ele>772.9</ele>
        <time>2023-11-26T11:42:14Z</time>
      </trkpt>
      <trkpt lat="43.61964" lon="6.59943">
        <ele>772.8</ele>
        <time>2023-11-26T11:42:15Z</time>
      </trkpt>
      <trkpt lat="43.61964" lon="6.59943">
        <ele>772.9</ele>
        <time>2023-11-26T11:42:16Z</time>
      </trkpt>
      <trkpt lat="43.61964" lon="6.59943">
        <ele>772.8</ele>
        <time>2023-11-26T11:42:17Z</time>
      </trkpt>
      <trkpt lat="43.61964" lon="6.59943">
        <ele>772.8</ele>
        <time>2023-11-26T11:42:18Z</time>
      </trkpt>
      <trkpt lat="43.61964" lon="6.59943">
        <ele>772.8</ele>
        <time>2023-11-26T11:42:19Z</time>
      </trkpt>
      <trkpt lat="43.61964" lon="6.59943">
        <ele>772.8</ele>
        <time>2023-11-26T11:42:20Z</time>
      </trkpt>
      <trkpt lat="43.61964" lon="6.59943">
        <ele>772.9</ele>
        <time>2023-11-26T11:42:21Z</time>
      </trkpt>
      <trkpt lat="43.61964" lon="6.59943">
        <ele>772.9</ele>
        <time>2023-11-26T11:42:22Z</time>
      </trkpt>
      <trkpt lat="43.61964" lon="6.59943">
        <ele>773</ele>
        <time>2023-11-26T11:42:23Z</time>
      </trkpt>
      <trkpt lat="43.61964" lon="6.59943">
        <ele>773.1</ele>
        <time>2023-11-26T11:42:24Z</time>
      </trkpt>
      <trkpt lat="43.61964" lon="6.59943">
        <ele>773.1</ele>
        <time>2023-11-26T11:42:25Z</time>
      </trkpt>
      <trkpt lat="43.61964" lon="6.59943">
        <ele>773.1</ele>
        <time>2023-11-26T11:42:26Z</time>
      </trkpt>
      <trkpt lat="43.61964" lon="6.59943">
        <ele>773.1</ele>
        <time>2023-11-26T11:42:27Z</time>
      </trkpt>
      <trkpt lat="43.61964" lon="6.59943">
        <ele>773.1</ele>
        <time>2023-11-26T11:42:28Z</time>
      </trkpt>
      <trkpt lat="43.61964" lon="6.59943">
        <ele>773.1</ele>
        <time>2023-11-26T11:42:29Z</time>
      </trkpt>
      <trkpt lat="43.61964" lon="6.59943">
        <ele>773.2</ele>
        <time>2023-11-26T11:42:30Z</time>
      </trkpt>
      <trkpt lat="43.61964" lon="6.59943">
        <ele>773.2</ele>
        <time>2023-11-26T11:42:31Z</time>
      </trkpt>
      <trkpt lat="43.61964" lon="6.59943">
        <ele>773.4</ele>
        <time>2023-11-26T11:42:32Z</time>
      </trkpt>
      <trkpt lat="43.61964" lon="6.59943">
        <ele>773.4</ele>
        <time>2023-11-26T11:42:33Z</time>
      </trkpt>
      <trkpt lat="43.61964" lon="6.59943">
        <ele>773.5</ele>
        <time>2023-11-26T11:42:34Z</time>
      </trkpt>
      <trkpt lat="43.61964" lon="6.59943">
        <ele>773.5</ele>
        <time>2023-11-26T11:42:35Z</time>
      </trkpt>
      <trkpt lat="43.61964" lon="6.59942">
        <ele>773.5</ele>
        <time>2023-11-26T11:42:36Z</time>
      </trkpt>
      <trkpt lat="43.61964" lon="6.59943">
        <ele>773.4</ele>
        <time>2023-11-26T11:42:37Z</time>
      </trkpt>
      <trkpt lat="43.61964" lon="6.59943">
        <ele>773.4</ele>
        <time>2023-11-26T11:42:38Z</time>
      </trkpt>
      <trkpt lat="43.61964" lon="6.59942">
        <ele>773.4</ele>
        <time>2023-11-26T11:42:39Z</time>
      </trkpt>
      <trkpt lat="43.61964" lon="6.59942">
        <ele>773.3</ele>
        <time>2023-11-26T11:42:40Z</time>
      </trkpt>
      <trkpt lat="43.61964" lon="6.59942">
        <ele>773.2</ele>
        <time>2023-11-26T11:42:41Z</time>
      </trkpt>
      <trkpt lat="43.61964" lon="6.59942">
        <ele>773.3</ele>
        <time>2023-11-26T11:42:42Z</time>
      </trkpt>
      <trkpt lat="43.61964" lon="6.59942">
        <ele>773.3</ele>
        <time>2023-11-26T11:42:43Z</time>
      </trkpt>
      <trkpt lat="43.61964" lon="6.59942">
        <ele>773.3</ele>
        <time>2023-11-26T11:42:44Z</time>
      </trkpt>
      <trkpt lat="43.61964" lon="6.59943">
        <ele>773.4</ele>
        <time>2023-11-26T11:42:45Z</time>
      </trkpt>
      <trkpt lat="43.61964" lon="6.59943">
        <ele>773.5</ele>
        <time>2023-11-26T11:42:46Z</time>
      </trkpt>
      <trkpt lat="43.61964" lon="6.59943">
        <ele>773.5</ele>
        <time>2023-11-26T11:42:47Z</time>
      </trkpt>
      <trkpt lat="43.61964" lon="6.59943">
        <ele>773.5</ele>
        <time>2023-11-26T11:42:48Z</time>
      </trkpt>
      <trkpt lat="43.61964" lon="6.59943">
        <ele>773.5</ele>
        <time>2023-11-26T11:42:49Z</time>
      </trkpt>
      <trkpt lat="43.61964" lon="6.59943">
        <ele>773.5</ele>
        <time>2023-11-26T11:42:50Z</time>
      </trkpt>
      <trkpt lat="43.61964" lon="6.59943">
        <ele>773.5</ele>
        <time>2023-11-26T11:42:51Z</time>
      </trkpt>
      <trkpt lat="43.61964" lon="6.59943">
        <ele>773.5</ele>
        <time>2023-11-26T11:42:52Z</time>
      </trkpt>
      <trkpt lat="43.61964" lon="6.59943">
        <ele>773.5</ele>
        <time>2023-11-26T11:42:53Z</time>
      </trkpt>
      <trkpt lat="43.61964" lon="6.59943">
        <ele>773.5</ele>
        <time>2023-11-26T11:42:54Z</time>
      </trkpt>
      <trkpt lat="43.61964" lon="6.59943">
        <ele>773.4</ele>
        <time>2023-11-26T11:42:55Z</time>
      </trkpt>
      <trkpt lat="43.61964" lon="6.59943">
        <ele>773.4</ele>
        <time>2023-11-26T11:42:56Z</time>
      </trkpt>
      <trkpt lat="43.61964" lon="6.59943">
        <ele>773.4</ele>
        <time>2023-11-26T11:42:57Z</time>
      </trkpt>
      <trkpt lat="43.61964" lon="6.59943">
        <ele>773.4</ele>
        <time>2023-11-26T11:42:58Z</time>
      </trkpt>
      <trkpt lat="43.61964" lon="6.59943">
        <ele>773.4</ele>
        <time>2023-11-26T11:42:59Z</time>
      </trkpt>
      <trkpt lat="43.61965" lon="6.59943">
        <ele>773.4</ele>
        <time>2023-11-26T11:43:00Z</time>
      </trkpt>
      <trkpt lat="43.61964" lon="6.59943">
        <ele>773.3</ele>
        <time>2023-11-26T11:43:01Z</time>
      </trkpt>
      <trkpt lat="43.61964" lon="6.59943">
        <ele>773.2</ele>
        <time>2023-11-26T11:43:02Z</time>
      </trkpt>
      <trkpt lat="43.61964" lon="6.59943">
        <ele>773.2</ele>
        <time>2023-11-26T11:43:03Z</time>
      </trkpt>
      <trkpt lat="43.61964" lon="6.59943">
        <ele>773.3</ele>
        <time>2023-11-26T11:43:04Z</time>
      </trkpt>
      <trkpt lat="43.61964" lon="6.59943">
        <ele>773.3</ele>
        <time>2023-11-26T11:43:05Z</time>
      </trkpt>
      <trkpt lat="43.61964" lon="6.59943">
        <ele>773.2</ele>
        <time>2023-11-26T11:43:06Z</time>
      </trkpt>
      <trkpt lat="43.61965" lon="6.59943">
        <ele>773.2</ele>
        <time>2023-11-26T11:43:07Z</time>
      </trkpt>
      <trkpt lat="43.61964" lon="6.59943">
        <ele>773.2</ele>
        <time>2023-11-26T11:43:08Z</time>
      </trkpt>
      <trkpt lat="43.61964" lon="6.59943">
        <ele>773.2</ele>
        <time>2023-11-26T11:43:09Z</time>
      </trkpt>
      <trkpt lat="43.61964" lon="6.59943">
        <ele>773.1</ele>
        <time>2023-11-26T11:43:10Z</time>
      </trkpt>
      <trkpt lat="43.61964" lon="6.59943">
        <ele>773.2</ele>
        <time>2023-11-26T11:43:11Z</time>
      </trkpt>
      <trkpt lat="43.61964" lon="6.59943">
        <ele>773.2</ele>
        <time>2023-11-26T11:43:12Z</time>
      </trkpt>
      <trkpt lat="43.61965" lon="6.59943">
        <ele>773.2</ele>
        <time>2023-11-26T11:43:13Z</time>
      </trkpt>
      <trkpt lat="43.61964" lon="6.59943">
        <ele>773.3</ele>
        <time>2023-11-26T11:43:14Z</time>
      </trkpt>
      <trkpt lat="43.61964" lon="6.59943">
        <ele>773.3</ele>
        <time>2023-11-26T11:43:15Z</time>
      </trkpt>
      <trkpt lat="43.61964" lon="6.59943">
        <ele>773.3</ele>
        <time>2023-11-26T11:43:16Z</time>
      </trkpt>
      <trkpt lat="43.61964" lon="6.59943">
        <ele>773.4</ele>
        <time>2023-11-26T11:43:17Z</time>
      </trkpt>
      <trkpt lat="43.61965" lon="6.59943">
        <ele>773.4</ele>
        <time>2023-11-26T11:43:18Z</time>
      </trkpt>
      <trkpt lat="43.61965" lon="6.59943">
        <ele>773.4</ele>
        <time>2023-11-26T11:43:19Z</time>
      </trkpt>
      <trkpt lat="43.61965" lon="6.59943">
        <ele>773.4</ele>
        <time>2023-11-26T11:43:20Z</time>
      </trkpt>
      <trkpt lat="43.61965" lon="6.59943">
        <ele>773.4</ele>
        <time>2023-11-26T11:43:21Z</time>
      </trkpt>
      <trkpt lat="43.61965" lon="6.59943">
        <ele>773.4</ele>
        <time>2023-11-26T11:43:22Z</time>
      </trkpt>
      <trkpt lat="43.61965" lon="6.59943">
        <ele>773.5</ele>
        <time>2023-11-26T11:43:23Z</time>
      </trkpt>
      <trkpt lat="43.61965" lon="6.59943">
        <ele>773.5</ele>
        <time>2023-11-26T11:43:24Z</time>
      </trkpt>
      <trkpt lat="43.61965" lon="6.59943">
        <ele>773.5</ele>
        <time>2023-11-26T11:43:25Z</time>
      </trkpt>
      <trkpt lat="43.61965" lon="6.59943">
        <ele>773.5</ele>
        <time>2023-11-26T11:43:26Z</time>
      </trkpt>
      <trkpt lat="43.61965" lon="6.59943">
        <ele>773.5</ele>
        <time>2023-11-26T11:43:27Z</time>
      </trkpt>
      <trkpt lat="43.61965" lon="6.59943">
        <ele>773.4</ele>
        <time>2023-11-26T11:43:28Z</time>
      </trkpt>
      <trkpt lat="43.61965" lon="6.59943">
        <ele>773.4</ele>
        <time>2023-11-26T11:43:29Z</time>
      </trkpt>
      <trkpt lat="43.61965" lon="6.59943">
        <ele>773.4</ele>
        <time>2023-11-26T11:43:30Z</time>
      </trkpt>
      <trkpt lat="43.61965" lon="6.59943">
        <ele>773.4</ele>
        <time>2023-11-26T11:43:31Z</time>
      </trkpt>
      <trkpt lat="43.61965" lon="6.59943">
        <ele>773.3</ele>
        <time>2023-11-26T11:43:32Z</time>
      </trkpt>
      <trkpt lat="43.61965" lon="6.59943">
        <ele>773.3</ele>
        <time>2023-11-26T11:43:33Z</time>
      </trkpt>
      <trkpt lat="43.61965" lon="6.59943">
        <ele>773.3</ele>
        <time>2023-11-26T11:43:34Z</time>
      </trkpt>
      <trkpt lat="43.61965" lon="6.59943">
        <ele>773.4</ele>
        <time>2023-11-26T11:43:35Z</time>
      </trkpt>
      <trkpt lat="43.61965" lon="6.59943">
        <ele>773.4</ele>
        <time>2023-11-26T11:43:36Z</time>
      </trkpt>
      <trkpt lat="43.61965" lon="6.59943">
        <ele>773.5</ele>
        <time>2023-11-26T11:43:37Z</time>
      </trkpt>
      <trkpt lat="43.61965" lon="6.59943">
        <ele>773.5</ele>
        <time>2023-11-26T11:43:38Z</time>
      </trkpt>
      <trkpt lat="43.61965" lon="6.59943">
        <ele>773.5</ele>
        <time>2023-11-26T11:43:39Z</time>
      </trkpt>
      <trkpt lat="43.61965" lon="6.59943">
        <ele>773.4</ele>
        <time>2023-11-26T11:43:40Z</time>
      </trkpt>
      <trkpt lat="43.61965" lon="6.59943">
        <ele>773.4</ele>
        <time>2023-11-26T11:43:41Z</time>
      </trkpt>
      <trkpt lat="43.61965" lon="6.59943">
        <ele>773.4</ele>
        <time>2023-11-26T11:43:42Z</time>
      </trkpt>
      <trkpt lat="43.61965" lon="6.59943">
        <ele>773.4</ele>
        <time>2023-11-26T11:43:43Z</time>
      </trkpt>
      <trkpt lat="43.61965" lon="6.59943">
        <ele>773.4</ele>
        <time>2023-11-26T11:43:44Z</time>
      </trkpt>
      <trkpt lat="43.61965" lon="6.59943">
        <ele>773.5</ele>
        <time>2023-11-26T11:43:45Z</time>
      </trkpt>
      <trkpt lat="43.61965" lon="6.59943">
        <ele>773.6</ele>
        <time>2023-11-26T11:43:46Z</time>
      </trkpt>
      <trkpt lat="43.61965" lon="6.59943">
        <ele>773.6</ele>
        <time>2023-11-26T11:43:47Z</time>
      </trkpt>
      <trkpt lat="43.61965" lon="6.59943">
        <ele>773.6</ele>
        <time>2023-11-26T11:43:48Z</time>
      </trkpt>
      <trkpt lat="43.61965" lon="6.59943">
        <ele>773.6</ele>
        <time>2023-11-26T11:43:49Z</time>
      </trkpt>
      <trkpt lat="43.61965" lon="6.59943">
        <ele>773.6</ele>
        <time>2023-11-26T11:43:50Z</time>
      </trkpt>
      <trkpt lat="43.61965" lon="6.59943">
        <ele>773.6</ele>
        <time>2023-11-26T11:43:51Z</time>
      </trkpt>
      <trkpt lat="43.61965" lon="6.59943">
        <ele>773.6</ele>
        <time>2023-11-26T11:43:52Z</time>
      </trkpt>
      <trkpt lat="43.61965" lon="6.59943">
        <ele>773.6</ele>
        <time>2023-11-26T11:43:53Z</time>
      </trkpt>
      <trkpt lat="43.61965" lon="6.59943">
        <ele>773.6</ele>
        <time>2023-11-26T11:43:54Z</time>
      </trkpt>
      <trkpt lat="43.61965" lon="6.59943">
        <ele>773.6</ele>
        <time>2023-11-26T11:43:55Z</time>
      </trkpt>
      <trkpt lat="43.61965" lon="6.59943">
        <ele>773.6</ele>
        <time>2023-11-26T11:43:56Z</time>
      </trkpt>
      <trkpt lat="43.61965" lon="6.59943">
        <ele>773.6</ele>
        <time>2023-11-26T11:43:57Z</time>
      </trkpt>
      <trkpt lat="43.61965" lon="6.59943">
        <ele>773.6</ele>
        <time>2023-11-26T11:43:58Z</time>
      </trkpt>
      <trkpt lat="43.61965" lon="6.59943">
        <ele>773.5</ele>
        <time>2023-11-26T11:43:59Z</time>
      </trkpt>
      <trkpt lat="43.61965" lon="6.59943">
        <ele>773.5</ele>
        <time>2023-11-26T11:44:00Z</time>
      </trkpt>
      <trkpt lat="43.61965" lon="6.59943">
        <ele>773.5</ele>
        <time>2023-11-26T11:44:01Z</time>
      </trkpt>
      <trkpt lat="43.61965" lon="6.59943">
        <ele>773.5</ele>
        <time>2023-11-26T11:44:02Z</time>
      </trkpt>
      <trkpt lat="43.61965" lon="6.59943">
        <ele>773.5</ele>
        <time>2023-11-26T11:44:03Z</time>
      </trkpt>
      <trkpt lat="43.61965" lon="6.59943">
        <ele>773.5</ele>
        <time>2023-11-26T11:44:04Z</time>
      </trkpt>
      <trkpt lat="43.61965" lon="6.59943">
        <ele>773.6</ele>
        <time>2023-11-26T11:44:05Z</time>
      </trkpt>
      <trkpt lat="43.61965" lon="6.59943">
        <ele>773.6</ele>
        <time>2023-11-26T11:44:06Z</time>
      </trkpt>
      <trkpt lat="43.61965" lon="6.59943">
        <ele>773.6</ele>
        <time>2023-11-26T11:44:07Z</time>
      </trkpt>
      <trkpt lat="43.61965" lon="6.59943">
        <ele>773.6</ele>
        <time>2023-11-26T11:44:08Z</time>
      </trkpt>
      <trkpt lat="43.61965" lon="6.59943">
        <ele>773.7</ele>
        <time>2023-11-26T11:44:09Z</time>
      </trkpt>
      <trkpt lat="43.61965" lon="6.59943">
        <ele>773.7</ele>
        <time>2023-11-26T11:44:10Z</time>
      </trkpt>
      <trkpt lat="43.61965" lon="6.59944">
        <ele>773.7</ele>
        <time>2023-11-26T11:44:11Z</time>
      </trkpt>
      <trkpt lat="43.61965" lon="6.59944">
        <ele>773.7</ele>
        <time>2023-11-26T11:44:12Z</time>
      </trkpt>
      <trkpt lat="43.61965" lon="6.59944">
        <ele>773.7</ele>
        <time>2023-11-26T11:44:13Z</time>
      </trkpt>
      <trkpt lat="43.61965" lon="6.59944">
        <ele>773.7</ele>
        <time>2023-11-26T11:44:14Z</time>
      </trkpt>
      <trkpt lat="43.61965" lon="6.59944">
        <ele>773.7</ele>
        <time>2023-11-26T11:44:15Z</time>
      </trkpt>
      <trkpt lat="43.61965" lon="6.59944">
        <ele>773.8</ele>
        <time>2023-11-26T11:44:16Z</time>
      </trkpt>
      <trkpt lat="43.61965" lon="6.59944">
        <ele>773.8</ele>
        <time>2023-11-26T11:44:17Z</time>
      </trkpt>
      <trkpt lat="43.61965" lon="6.59944">
        <ele>773.7</ele>
        <time>2023-11-26T11:44:18Z</time>
      </trkpt>
      <trkpt lat="43.61965" lon="6.59943">
        <ele>773.8</ele>
        <time>2023-11-26T11:44:19Z</time>
      </trkpt>
      <trkpt lat="43.61965" lon="6.59943">
        <ele>773.9</ele>
        <time>2023-11-26T11:44:20Z</time>
      </trkpt>
      <trkpt lat="43.61965" lon="6.59943">
        <ele>773.9</ele>
        <time>2023-11-26T11:44:21Z</time>
      </trkpt>
      <trkpt lat="43.61965" lon="6.59943">
        <ele>773.9</ele>
        <time>2023-11-26T11:44:22Z</time>
      </trkpt>
      <trkpt lat="43.61965" lon="6.59943">
        <ele>773.9</ele>
        <time>2023-11-26T11:44:23Z</time>
      </trkpt>
      <trkpt lat="43.61965" lon="6.59943">
        <ele>773.8</ele>
        <time>2023-11-26T11:44:24Z</time>
      </trkpt>
      <trkpt lat="43.61965" lon="6.59943">
        <ele>773.8</ele>
        <time>2023-11-26T11:44:25Z</time>
      </trkpt>
      <trkpt lat="43.61965" lon="6.59943">
        <ele>773.8</ele>
        <time>2023-11-26T11:44:26Z</time>
      </trkpt>
      <trkpt lat="43.61965" lon="6.59943">
        <ele>773.7</ele>
        <time>2023-11-26T11:44:27Z</time>
      </trkpt>
      <trkpt lat="43.61965" lon="6.59943">
        <ele>773.7</ele>
        <time>2023-11-26T11:44:28Z</time>
      </trkpt>
      <trkpt lat="43.61965" lon="6.59943">
        <ele>773.7</ele>
        <time>2023-11-26T11:44:29Z</time>
      </trkpt>
      <trkpt lat="43.61965" lon="6.59943">
        <ele>773.6</ele>
        <time>2023-11-26T11:44:30Z</time>
      </trkpt>
      <trkpt lat="43.61965" lon="6.59943">
        <ele>773.6</ele>
        <time>2023-11-26T11:44:31Z</time>
      </trkpt>
      <trkpt lat="43.61965" lon="6.59943">
        <ele>773.6</ele>
        <time>2023-11-26T11:44:32Z</time>
      </trkpt>
      <trkpt lat="43.61965" lon="6.59942">
        <ele>773.6</ele>
        <time>2023-11-26T11:44:33Z</time>
      </trkpt>
      <trkpt lat="43.61965" lon="6.59942">
        <ele>773.6</ele>
        <time>2023-11-26T11:44:34Z</time>
      </trkpt>
      <trkpt lat="43.61965" lon="6.59942">
        <ele>773.6</ele>
        <time>2023-11-26T11:44:35Z</time>
      </trkpt>
      <trkpt lat="43.61965" lon="6.59942">
        <ele>773.6</ele>
        <time>2023-11-26T11:44:36Z</time>
      </trkpt>
      <trkpt lat="43.61965" lon="6.59942">
        <ele>773.6</ele>
        <time>2023-11-26T11:44:37Z</time>
      </trkpt>
      <trkpt lat="43.61965" lon="6.59942">
        <ele>773.7</ele>
        <time>2023-11-26T11:44:38Z</time>
      </trkpt>
      <trkpt lat="43.61965" lon="6.59942">
        <ele>773.7</ele>
        <time>2023-11-26T11:44:39Z</time>
      </trkpt>
      <trkpt lat="43.61965" lon="6.59942">
        <ele>773.7</ele>
        <time>2023-11-26T11:44:40Z</time>
      </trkpt>
      <trkpt lat="43.61965" lon="6.59942">
        <ele>773.7</ele>
        <time>2023-11-26T11:44:41Z</time>
      </trkpt>
      <trkpt lat="43.61965" lon="6.59942">
        <ele>773.7</ele>
        <time>2023-11-26T11:44:42Z</time>
      </trkpt>
      <trkpt lat="43.61965" lon="6.59942">
        <ele>773.6</ele>
        <time>2023-11-26T11:44:43Z</time>
      </trkpt>
      <trkpt lat="43.61965" lon="6.59942">
        <ele>773.7</ele>
        <time>2023-11-26T11:44:44Z</time>
      </trkpt>
      <trkpt lat="43.61965" lon="6.59942">
        <ele>773.7</ele>
        <time>2023-11-26T11:44:45Z</time>
      </trkpt>
      <trkpt lat="43.61965" lon="6.59942">
        <ele>773.7</ele>
        <time>2023-11-26T11:44:46Z</time>
      </trkpt>
      <trkpt lat="43.61965" lon="6.59942">
        <ele>773.7</ele>
        <time>2023-11-26T11:44:47Z</time>
      </trkpt>
      <trkpt lat="43.61965" lon="6.59942">
        <ele>773.6</ele>
        <time>2023-11-26T11:44:48Z</time>
      </trkpt>
      <trkpt lat="43.61965" lon="6.59942">
        <ele>773.6</ele>
        <time>2023-11-26T11:44:49Z</time>
      </trkpt>
      <trkpt lat="43.61965" lon="6.59942">
        <ele>773.6</ele>
        <time>2023-11-26T11:44:50Z</time>
      </trkpt>
      <trkpt lat="43.61965" lon="6.59942">
        <ele>773.6</ele>
        <time>2023-11-26T11:44:51Z</time>
      </trkpt>
      <trkpt lat="43.61965" lon="6.59942">
        <ele>773.6</ele>
        <time>2023-11-26T11:44:52Z</time>
      </trkpt>
      <trkpt lat="43.61965" lon="6.59942">
        <ele>773.5</ele>
        <time>2023-11-26T11:44:53Z</time>
      </trkpt>
      <trkpt lat="43.61965" lon="6.59942">
        <ele>773.5</ele>
        <time>2023-11-26T11:44:54Z</time>
      </trkpt>
      <trkpt lat="43.61965" lon="6.59942">
        <ele>773.6</ele>
        <time>2023-11-26T11:44:55Z</time>
      </trkpt>
      <trkpt lat="43.61965" lon="6.59942">
        <ele>773.6</ele>
        <time>2023-11-26T11:44:56Z</time>
      </trkpt>
      <trkpt lat="43.61966" lon="6.59942">
        <ele>773.7</ele>
        <time>2023-11-26T11:44:57Z</time>
      </trkpt>
      <trkpt lat="43.61966" lon="6.59942">
        <ele>773.7</ele>
        <time>2023-11-26T11:44:58Z</time>
      </trkpt>
      <trkpt lat="43.61966" lon="6.59943">
        <ele>773.8</ele>
        <time>2023-11-26T11:44:59Z</time>
      </trkpt>
      <trkpt lat="43.61966" lon="6.59943">
        <ele>773.7</ele>
        <time>2023-11-26T11:45:00Z</time>
      </trkpt>
      <trkpt lat="43.61966" lon="6.59943">
        <ele>773.6</ele>
        <time>2023-11-26T11:45:01Z</time>
      </trkpt>
      <trkpt lat="43.61965" lon="6.59943">
        <ele>773.5</ele>
        <time>2023-11-26T11:45:02Z</time>
      </trkpt>
      <trkpt lat="43.61966" lon="6.59943">
        <ele>773.4</ele>
        <time>2023-11-26T11:45:03Z</time>
      </trkpt>
      <trkpt lat="43.61966" lon="6.59944">
        <ele>773.3</ele>
        <time>2023-11-26T11:45:04Z</time>
      </trkpt>
      <trkpt lat="43.61966" lon="6.59944">
        <ele>773.3</ele>
        <time>2023-11-26T11:45:05Z</time>
      </trkpt>
      <trkpt lat="43.61966" lon="6.59944">
        <ele>773.3</ele>
        <time>2023-11-26T11:45:06Z</time>
      </trkpt>
      <trkpt lat="43.61966" lon="6.59944">
        <ele>773.3</ele>
        <time>2023-11-26T11:45:07Z</time>
      </trkpt>
      <trkpt lat="43.61966" lon="6.59945">
        <ele>773.2</ele>
        <time>2023-11-26T11:45:08Z</time>
      </trkpt>
      <trkpt lat="43.61966" lon="6.59945">
        <ele>773.2</ele>
        <time>2023-11-26T11:45:09Z</time>
      </trkpt>
      <trkpt lat="43.61966" lon="6.59945">
        <ele>773.2</ele>
        <time>2023-11-26T11:45:10Z</time>
      </trkpt>
      <trkpt lat="43.61966" lon="6.59946">
        <ele>773.2</ele>
        <time>2023-11-26T11:45:11Z</time>
      </trkpt>
      <trkpt lat="43.61966" lon="6.59946">
        <ele>773.2</ele>
        <time>2023-11-26T11:45:12Z</time>
      </trkpt>
      <trkpt lat="43.61966" lon="6.59946">
        <ele>773.1</ele>
        <time>2023-11-26T11:45:13Z</time>
      </trkpt>
      <trkpt lat="43.61966" lon="6.59946">
        <ele>773</ele>
        <time>2023-11-26T11:45:14Z</time>
      </trkpt>
      <trkpt lat="43.61966" lon="6.59946">
        <ele>773</ele>
        <time>2023-11-26T11:45:15Z</time>
      </trkpt>
      <trkpt lat="43.61966" lon="6.59947">
        <ele>772.9</ele>
        <time>2023-11-26T11:45:16Z</time>
      </trkpt>
      <trkpt lat="43.61966" lon="6.59947">
        <ele>772.9</ele>
        <time>2023-11-26T11:45:17Z</time>
      </trkpt>
      <trkpt lat="43.61966" lon="6.59947">
        <ele>772.9</ele>
        <time>2023-11-26T11:45:18Z</time>
      </trkpt>
      <trkpt lat="43.61965" lon="6.59946">
        <ele>772.9</ele>
        <time>2023-11-26T11:45:19Z</time>
      </trkpt>
      <trkpt lat="43.61965" lon="6.59946">
        <ele>773</ele>
        <time>2023-11-26T11:45:20Z</time>
      </trkpt>
      <trkpt lat="43.61965" lon="6.59946">
        <ele>773</ele>
        <time>2023-11-26T11:45:21Z</time>
      </trkpt>
      <trkpt lat="43.61965" lon="6.59946">
        <ele>773</ele>
        <time>2023-11-26T11:45:22Z</time>
      </trkpt>
      <trkpt lat="43.61965" lon="6.59946">
        <ele>773.1</ele>
        <time>2023-11-26T11:45:23Z</time>
      </trkpt>
      <trkpt lat="43.61965" lon="6.59946">
        <ele>773.1</ele>
        <time>2023-11-26T11:45:24Z</time>
      </trkpt>
      <trkpt lat="43.61965" lon="6.59946">
        <ele>773.2</ele>
        <time>2023-11-26T11:45:25Z</time>
      </trkpt>
      <trkpt lat="43.61965" lon="6.59946">
        <ele>773.1</ele>
        <time>2023-11-26T11:45:26Z</time>
      </trkpt>
      <trkpt lat="43.61965" lon="6.59946">
        <ele>773.1</ele>
        <time>2023-11-26T11:45:27Z</time>
      </trkpt>
      <trkpt lat="43.61965" lon="6.59946">
        <ele>773.1</ele>
        <time>2023-11-26T11:45:28Z</time>
      </trkpt>
      <trkpt lat="43.61965" lon="6.59947">
        <ele>773.2</ele>
        <time>2023-11-26T11:45:29Z</time>
      </trkpt>
      <trkpt lat="43.61965" lon="6.59947">
        <ele>773.2</ele>
        <time>2023-11-26T11:45:30Z</time>
      </trkpt>
      <trkpt lat="43.61965" lon="6.59947">
        <ele>773.1</ele>
        <time>2023-11-26T11:45:31Z</time>
      </trkpt>
      <trkpt lat="43.61965" lon="6.59947">
        <ele>773.1</ele>
        <time>2023-11-26T11:45:32Z</time>
      </trkpt>
      <trkpt lat="43.61965" lon="6.59947">
        <ele>773.1</ele>
        <time>2023-11-26T11:45:33Z</time>
      </trkpt>
      <trkpt lat="43.61965" lon="6.59947">
        <ele>773.1</ele>
        <time>2023-11-26T11:45:34Z</time>
      </trkpt>
      <trkpt lat="43.61964" lon="6.59947">
        <ele>773.1</ele>
        <time>2023-11-26T11:45:35Z</time>
      </trkpt>
      <trkpt lat="43.61964" lon="6.59947">
        <ele>773.2</ele>
        <time>2023-11-26T11:45:36Z</time>
      </trkpt>
      <trkpt lat="43.61964" lon="6.59947">
        <ele>773.3</ele>
        <time>2023-11-26T11:45:37Z</time>
      </trkpt>
      <trkpt lat="43.61965" lon="6.59947">
        <ele>773.3</ele>
        <time>2023-11-26T11:45:38Z</time>
      </trkpt>
      <trkpt lat="43.61965" lon="6.59946">
        <ele>773.3</ele>
        <time>2023-11-26T11:45:39Z</time>
      </trkpt>
      <trkpt lat="43.61964" lon="6.59946">
        <ele>773.4</ele>
        <time>2023-11-26T11:45:40Z</time>
      </trkpt>
      <trkpt lat="43.61964" lon="6.59946">
        <ele>773.4</ele>
        <time>2023-11-26T11:45:41Z</time>
      </trkpt>
      <trkpt lat="43.61964" lon="6.59945">
        <ele>773.4</ele>
        <time>2023-11-26T11:45:42Z</time>
      </trkpt>
      <trkpt lat="43.61964" lon="6.59945">
        <ele>773.4</ele>
        <time>2023-11-26T11:45:43Z</time>
      </trkpt>
      <trkpt lat="43.61964" lon="6.59945">
        <ele>773.5</ele>
        <time>2023-11-26T11:45:44Z</time>
      </trkpt>
      <trkpt lat="43.61964" lon="6.59945">
        <ele>773.5</ele>
        <time>2023-11-26T11:45:45Z</time>
      </trkpt>
      <trkpt lat="43.61964" lon="6.59945">
        <ele>773.7</ele>
        <time>2023-11-26T11:45:46Z</time>
      </trkpt>
      <trkpt lat="43.61964" lon="6.59945">
        <ele>773.8</ele>
        <time>2023-11-26T11:45:47Z</time>
      </trkpt>
      <trkpt lat="43.61964" lon="6.59945">
        <ele>773.8</ele>
        <time>2023-11-26T11:45:48Z</time>
      </trkpt>
      <trkpt lat="43.61964" lon="6.59945">
        <ele>773.9</ele>
        <time>2023-11-26T11:45:49Z</time>
      </trkpt>
      <trkpt lat="43.61964" lon="6.59945">
        <ele>773.9</ele>
        <time>2023-11-26T11:45:50Z</time>
      </trkpt>
      <trkpt lat="43.61964" lon="6.59945">
        <ele>774</ele>
        <time>2023-11-26T11:45:51Z</time>
      </trkpt>
      <trkpt lat="43.61964" lon="6.59945">
        <ele>774</ele>
        <time>2023-11-26T11:45:52Z</time>
      </trkpt>
      <trkpt lat="43.61964" lon="6.59945">
        <ele>774</ele>
        <time>2023-11-26T11:45:53Z</time>
      </trkpt>
      <trkpt lat="43.61963" lon="6.59945">
        <ele>774</ele>
        <time>2023-11-26T11:45:54Z</time>
      </trkpt>
      <trkpt lat="43.61963" lon="6.59945">
        <ele>774</ele>
        <time>2023-11-26T11:45:55Z</time>
      </trkpt>
      <trkpt lat="43.61963" lon="6.59945">
        <ele>774.1</ele>
        <time>2023-11-26T11:45:56Z</time>
      </trkpt>
      <trkpt lat="43.61963" lon="6.59945">
        <ele>774.1</ele>
        <time>2023-11-26T11:45:57Z</time>
      </trkpt>
      <trkpt lat="43.61963" lon="6.59945">
        <ele>774.1</ele>
        <time>2023-11-26T11:45:58Z</time>
      </trkpt>
      <trkpt lat="43.61963" lon="6.59945">
        <ele>774.2</ele>
        <time>2023-11-26T11:45:59Z</time>
      </trkpt>
      <trkpt lat="43.61963" lon="6.59945">
        <ele>774.2</ele>
        <time>2023-11-26T11:46:00Z</time>
      </trkpt>
      <trkpt lat="43.61963" lon="6.59945">
        <ele>774.3</ele>
        <time>2023-11-26T11:46:01Z</time>
      </trkpt>
      <trkpt lat="43.61963" lon="6.59946">
        <ele>774.3</ele>
        <time>2023-11-26T11:46:02Z</time>
      </trkpt>
      <trkpt lat="43.61963" lon="6.59946">
        <ele>774.3</ele>
        <time>2023-11-26T11:46:03Z</time>
      </trkpt>
      <trkpt lat="43.61963" lon="6.59946">
        <ele>774.3</ele>
        <time>2023-11-26T11:46:04Z</time>
      </trkpt>
      <trkpt lat="43.61964" lon="6.59946">
        <ele>774.3</ele>
        <time>2023-11-26T11:46:05Z</time>
      </trkpt>
      <trkpt lat="43.61964" lon="6.59945">
        <ele>774.4</ele>
        <time>2023-11-26T11:46:06Z</time>
      </trkpt>
      <trkpt lat="43.61964" lon="6.59945">
        <ele>774.4</ele>
        <time>2023-11-26T11:46:07Z</time>
      </trkpt>
      <trkpt lat="43.61964" lon="6.59945">
        <ele>774.4</ele>
        <time>2023-11-26T11:46:08Z</time>
      </trkpt>
      <trkpt lat="43.61963" lon="6.59945">
        <ele>774.3</ele>
        <time>2023-11-26T11:46:09Z</time>
      </trkpt>
      <trkpt lat="43.61963" lon="6.59945">
        <ele>774.3</ele>
        <time>2023-11-26T11:46:10Z</time>
      </trkpt>
      <trkpt lat="43.61963" lon="6.59945">
        <ele>774.3</ele>
        <time>2023-11-26T11:46:11Z</time>
      </trkpt>
      <trkpt lat="43.61963" lon="6.59945">
        <ele>774.2</ele>
        <time>2023-11-26T11:46:12Z</time>
      </trkpt>
      <trkpt lat="43.61963" lon="6.59945">
        <ele>774.2</ele>
        <time>2023-11-26T11:46:13Z</time>
      </trkpt>
      <trkpt lat="43.61963" lon="6.59945">
        <ele>774.2</ele>
        <time>2023-11-26T11:46:14Z</time>
      </trkpt>
      <trkpt lat="43.61963" lon="6.59945">
        <ele>774.2</ele>
        <time>2023-11-26T11:46:15Z</time>
      </trkpt>
      <trkpt lat="43.61963" lon="6.59945">
        <ele>774.2</ele>
        <time>2023-11-26T11:46:16Z</time>
      </trkpt>
      <trkpt lat="43.61963" lon="6.59945">
        <ele>774.2</ele>
        <time>2023-11-26T11:46:17Z</time>
      </trkpt>
      <trkpt lat="43.61963" lon="6.59945">
        <ele>774.2</ele>
        <time>2023-11-26T11:46:18Z</time>
      </trkpt>
      <trkpt lat="43.61963" lon="6.59945">
        <ele>774.1</ele>
        <time>2023-11-26T11:46:19Z</time>
      </trkpt>
      <trkpt lat="43.61963" lon="6.59945">
        <ele>774.1</ele>
        <time>2023-11-26T11:46:20Z</time>
      </trkpt>
      <trkpt lat="43.61963" lon="6.59946">
        <ele>774.1</ele>
        <time>2023-11-26T11:46:21Z</time>
      </trkpt>
      <trkpt lat="43.61963" lon="6.59946">
        <ele>774</ele>
        <time>2023-11-26T11:46:22Z</time>
      </trkpt>
      <trkpt lat="43.61963" lon="6.59946">
        <ele>774</ele>
        <time>2023-11-26T11:46:23Z</time>
      </trkpt>
      <trkpt lat="43.61963" lon="6.59946">
        <ele>774</ele>
        <time>2023-11-26T11:46:24Z</time>
      </trkpt>
      <trkpt lat="43.61963" lon="6.59946">
        <ele>774</ele>
        <time>2023-11-26T11:46:25Z</time>
      </trkpt>
      <trkpt lat="43.61963" lon="6.59946">
        <ele>774</ele>
        <time>2023-11-26T11:46:26Z</time>
      </trkpt>
      <trkpt lat="43.61963" lon="6.59946">
        <ele>774</ele>
        <time>2023-11-26T11:46:27Z</time>
      </trkpt>
      <trkpt lat="43.61963" lon="6.59945">
        <ele>774</ele>
        <time>2023-11-26T11:46:28Z</time>
      </trkpt>
      <trkpt lat="43.61963" lon="6.59945">
        <ele>774</ele>
        <time>2023-11-26T11:46:29Z</time>
      </trkpt>
      <trkpt lat="43.61963" lon="6.59945">
        <ele>774</ele>
        <time>2023-11-26T11:46:30Z</time>
      </trkpt>
      <trkpt lat="43.61963" lon="6.59945">
        <ele>774.1</ele>
        <time>2023-11-26T11:46:31Z</time>
      </trkpt>
      <trkpt lat="43.61963" lon="6.59945">
        <ele>774.1</ele>
        <time>2023-11-26T11:46:32Z</time>
      </trkpt>
      <trkpt lat="43.61963" lon="6.59945">
        <ele>774.2</ele>
        <time>2023-11-26T11:46:33Z</time>
      </trkpt>
      <trkpt lat="43.61963" lon="6.59945">
        <ele>774.2</ele>
        <time>2023-11-26T11:46:34Z</time>
      </trkpt>
      <trkpt lat="43.61964" lon="6.59945">
        <ele>774.3</ele>
        <time>2023-11-26T11:46:35Z</time>
      </trkpt>
      <trkpt lat="43.61964" lon="6.59946">
        <ele>774.3</ele>
        <time>2023-11-26T11:46:36Z</time>
      </trkpt>
      <trkpt lat="43.61964" lon="6.59946">
        <ele>774.3</ele>
        <time>2023-11-26T11:46:37Z</time>
      </trkpt>
      <trkpt lat="43.61964" lon="6.59946">
        <ele>774.4</ele>
        <time>2023-11-26T11:46:38Z</time>
      </trkpt>
      <trkpt lat="43.61964" lon="6.59946">
        <ele>774.3</ele>
        <time>2023-11-26T11:46:39Z</time>
      </trkpt>
      <trkpt lat="43.61964" lon="6.59946">
        <ele>774.3</ele>
        <time>2023-11-26T11:46:40Z</time>
      </trkpt>
      <trkpt lat="43.61964" lon="6.59946">
        <ele>774.2</ele>
        <time>2023-11-26T11:46:41Z</time>
      </trkpt>
      <trkpt lat="43.61964" lon="6.59946">
        <ele>774.2</ele>
        <time>2023-11-26T11:46:42Z</time>
      </trkpt>
      <trkpt lat="43.61964" lon="6.59946">
        <ele>774.1</ele>
        <time>2023-11-26T11:46:43Z</time>
      </trkpt>
      <trkpt lat="43.61964" lon="6.59946">
        <ele>774.1</ele>
        <time>2023-11-26T11:46:44Z</time>
      </trkpt>
      <trkpt lat="43.61964" lon="6.59946">
        <ele>774</ele>
        <time>2023-11-26T11:46:45Z</time>
      </trkpt>
      <trkpt lat="43.61964" lon="6.59946">
        <ele>774</ele>
        <time>2023-11-26T11:46:46Z</time>
      </trkpt>
      <trkpt lat="43.61964" lon="6.59946">
        <ele>774</ele>
        <time>2023-11-26T11:46:47Z</time>
      </trkpt>
      <trkpt lat="43.61964" lon="6.59946">
        <ele>774.1</ele>
        <time>2023-11-26T11:46:48Z</time>
      </trkpt>
      <trkpt lat="43.61964" lon="6.59946">
        <ele>774.1</ele>
        <time>2023-11-26T11:46:49Z</time>
      </trkpt>
      <trkpt lat="43.61964" lon="6.59946">
        <ele>774.2</ele>
        <time>2023-11-26T11:46:50Z</time>
      </trkpt>
      <trkpt lat="43.61965" lon="6.59947">
        <ele>774.2</ele>
        <time>2023-11-26T11:46:51Z</time>
      </trkpt>
      <trkpt lat="43.61965" lon="6.59947">
        <ele>774.1</ele>
        <time>2023-11-26T11:46:52Z</time>
      </trkpt>
      <trkpt lat="43.61966" lon="6.59947">
        <ele>774.1</ele>
        <time>2023-11-26T11:46:53Z</time>
      </trkpt>
      <trkpt lat="43.61966" lon="6.59947">
        <ele>774.1</ele>
        <time>2023-11-26T11:46:54Z</time>
      </trkpt>
      <trkpt lat="43.61967" lon="6.59947">
        <ele>774.1</ele>
        <time>2023-11-26T11:46:55Z</time>
      </trkpt>
      <trkpt lat="43.61967" lon="6.59948">
        <ele>774.1</ele>
        <time>2023-11-26T11:46:56Z</time>
      </trkpt>
      <trkpt lat="43.61967" lon="6.59948">
        <ele>774.2</ele>
        <time>2023-11-26T11:46:57Z</time>
      </trkpt>
      <trkpt lat="43.61967" lon="6.59948">
        <ele>774.1</ele>
        <time>2023-11-26T11:46:58Z</time>
      </trkpt>
      <trkpt lat="43.61967" lon="6.59948">
        <ele>774.1</ele>
        <time>2023-11-26T11:46:59Z</time>
      </trkpt>
      <trkpt lat="43.61967" lon="6.59948">
        <ele>774.1</ele>
        <time>2023-11-26T11:47:00Z</time>
      </trkpt>
      <trkpt lat="43.61967" lon="6.59948">
        <ele>774.2</ele>
        <time>2023-11-26T11:47:01Z</time>
      </trkpt>
      <trkpt lat="43.61967" lon="6.59948">
        <ele>774.4</ele>
        <time>2023-11-26T11:47:02Z</time>
      </trkpt>
      <trkpt lat="43.61967" lon="6.59948">
        <ele>774.5</ele>
        <time>2023-11-26T11:47:03Z</time>
      </trkpt>
      <trkpt lat="43.61966" lon="6.59948">
        <ele>774.7</ele>
        <time>2023-11-26T11:47:04Z</time>
      </trkpt>
      <trkpt lat="43.61966" lon="6.59948">
        <ele>774.9</ele>
        <time>2023-11-26T11:47:05Z</time>
      </trkpt>
      <trkpt lat="43.61966" lon="6.59948">
        <ele>775</ele>
        <time>2023-11-26T11:47:06Z</time>
      </trkpt>
      <trkpt lat="43.61966" lon="6.59948">
        <ele>775.2</ele>
        <time>2023-11-26T11:47:07Z</time>
      </trkpt>
      <trkpt lat="43.61966" lon="6.59948">
        <ele>775.4</ele>
        <time>2023-11-26T11:47:08Z</time>
      </trkpt>
      <trkpt lat="43.61966" lon="6.59948">
        <ele>775.5</ele>
        <time>2023-11-26T11:47:09Z</time>
      </trkpt>
      <trkpt lat="43.61966" lon="6.59948">
        <ele>775.7</ele>
        <time>2023-11-26T11:47:10Z</time>
      </trkpt>
      <trkpt lat="43.61966" lon="6.59948">
        <ele>775.8</ele>
        <time>2023-11-26T11:47:11Z</time>
      </trkpt>
      <trkpt lat="43.61966" lon="6.59948">
        <ele>775.9</ele>
        <time>2023-11-26T11:47:12Z</time>
      </trkpt>
      <trkpt lat="43.61966" lon="6.59947">
        <ele>776.1</ele>
        <time>2023-11-26T11:47:13Z</time>
      </trkpt>
      <trkpt lat="43.61966" lon="6.59947">
        <ele>776.3</ele>
        <time>2023-11-26T11:47:14Z</time>
      </trkpt>
      <trkpt lat="43.61966" lon="6.59947">
        <ele>776.4</ele>
        <time>2023-11-26T11:47:15Z</time>
      </trkpt>
      <trkpt lat="43.61966" lon="6.59947">
        <ele>776.5</ele>
        <time>2023-11-26T11:47:16Z</time>
      </trkpt>
      <trkpt lat="43.61967" lon="6.59947">
        <ele>776.6</ele>
        <time>2023-11-26T11:47:17Z</time>
      </trkpt>
      <trkpt lat="43.61967" lon="6.59948">
        <ele>776.7</ele>
        <time>2023-11-26T11:47:18Z</time>
      </trkpt>
      <trkpt lat="43.61967" lon="6.59948">
        <ele>776.8</ele>
        <time>2023-11-26T11:47:19Z</time>
      </trkpt>
      <trkpt lat="43.61967" lon="6.59948">
        <ele>776.9</ele>
        <time>2023-11-26T11:47:20Z</time>
      </trkpt>
      <trkpt lat="43.61966" lon="6.59948">
        <ele>777</ele>
        <time>2023-11-26T11:47:21Z</time>
      </trkpt>
      <trkpt lat="43.61966" lon="6.59949">
        <ele>777</ele>
        <time>2023-11-26T11:47:22Z</time>
      </trkpt>
      <trkpt lat="43.61966" lon="6.59949">
        <ele>777.1</ele>
        <time>2023-11-26T11:47:23Z</time>
      </trkpt>
      <trkpt lat="43.61966" lon="6.59949">
        <ele>777.1</ele>
        <time>2023-11-26T11:47:24Z</time>
      </trkpt>
      <trkpt lat="43.61966" lon="6.59949">
        <ele>777.1</ele>
        <time>2023-11-26T11:47:25Z</time>
      </trkpt>
      <trkpt lat="43.61966" lon="6.59949">
        <ele>777.2</ele>
        <time>2023-11-26T11:47:26Z</time>
      </trkpt>
      <trkpt lat="43.61966" lon="6.59949">
        <ele>777.3</ele>
        <time>2023-11-26T11:47:27Z</time>
      </trkpt>
      <trkpt lat="43.61966" lon="6.59949">
        <ele>777.3</ele>
        <time>2023-11-26T11:47:28Z</time>
      </trkpt>
      <trkpt lat="43.61966" lon="6.59949">
        <ele>777.4</ele>
        <time>2023-11-26T11:47:29Z</time>
      </trkpt>
      <trkpt lat="43.61966" lon="6.59949">
        <ele>777.4</ele>
        <time>2023-11-26T11:47:30Z</time>
      </trkpt>
      <trkpt lat="43.61966" lon="6.59949">
        <ele>777.5</ele>
        <time>2023-11-26T11:47:31Z</time>
      </trkpt>
      <trkpt lat="43.61966" lon="6.59949">
        <ele>777.5</ele>
        <time>2023-11-26T11:47:32Z</time>
      </trkpt>
      <trkpt lat="43.61966" lon="6.59949">
        <ele>777.5</ele>
        <time>2023-11-26T11:47:33Z</time>
      </trkpt>
      <trkpt lat="43.61966" lon="6.59949">
        <ele>777.4</ele>
        <time>2023-11-26T11:47:34Z</time>
      </trkpt>
      <trkpt lat="43.61966" lon="6.59949">
        <ele>777.4</ele>
        <time>2023-11-26T11:47:35Z</time>
      </trkpt>
      <trkpt lat="43.61966" lon="6.59949">
        <ele>777.4</ele>
        <time>2023-11-26T11:47:36Z</time>
      </trkpt>
      <trkpt lat="43.61966" lon="6.59949">
        <ele>777.5</ele>
        <time>2023-11-26T11:47:37Z</time>
      </trkpt>
      <trkpt lat="43.61966" lon="6.59949">
        <ele>777.4</ele>
        <time>2023-11-26T11:47:38Z</time>
      </trkpt>
      <trkpt lat="43.61966" lon="6.59949">
        <ele>777.3</ele>
        <time>2023-11-26T11:47:39Z</time>
      </trkpt>
      <trkpt lat="43.61966" lon="6.59949">
        <ele>777.3</ele>
        <time>2023-11-26T11:47:40Z</time>
      </trkpt>
      <trkpt lat="43.61966" lon="6.59949">
        <ele>777.4</ele>
        <time>2023-11-26T11:47:41Z</time>
      </trkpt>
      <trkpt lat="43.61966" lon="6.59949">
        <ele>777.4</ele>
        <time>2023-11-26T11:47:42Z</time>
      </trkpt>
      <trkpt lat="43.61966" lon="6.59949">
        <ele>777.4</ele>
        <time>2023-11-26T11:47:43Z</time>
      </trkpt>
      <trkpt lat="43.61966" lon="6.59949">
        <ele>777.4</ele>
        <time>2023-11-26T11:47:44Z</time>
      </trkpt>
      <trkpt lat="43.61966" lon="6.59949">
        <ele>777.5</ele>
        <time>2023-11-26T11:47:45Z</time>
      </trkpt>
      <trkpt lat="43.61966" lon="6.59949">
        <ele>777.5</ele>
        <time>2023-11-26T11:47:46Z</time>
      </trkpt>
      <trkpt lat="43.61966" lon="6.59949">
        <ele>777.5</ele>
        <time>2023-11-26T11:47:47Z</time>
      </trkpt>
      <trkpt lat="43.61966" lon="6.59949">
        <ele>777.5</ele>
        <time>2023-11-26T11:47:48Z</time>
      </trkpt>
      <trkpt lat="43.61966" lon="6.59949">
        <ele>777.5</ele>
        <time>2023-11-26T11:47:49Z</time>
      </trkpt>
      <trkpt lat="43.61966" lon="6.59949">
        <ele>777.6</ele>
        <time>2023-11-26T11:47:50Z</time>
      </trkpt>
      <trkpt lat="43.61965" lon="6.59949">
        <ele>777.6</ele>
        <time>2023-11-26T11:47:51Z</time>
      </trkpt>
      <trkpt lat="43.61965" lon="6.59949">
        <ele>777.5</ele>
        <time>2023-11-26T11:47:52Z</time>
      </trkpt>
      <trkpt lat="43.61965" lon="6.59949">
        <ele>777.5</ele>
        <time>2023-11-26T11:47:53Z</time>
      </trkpt>
      <trkpt lat="43.61965" lon="6.59949">
        <ele>777.5</ele>
        <time>2023-11-26T11:47:54Z</time>
      </trkpt>
      <trkpt lat="43.61965" lon="6.59949">
        <ele>777.4</ele>
        <time>2023-11-26T11:47:55Z</time>
      </trkpt>
      <trkpt lat="43.61965" lon="6.59949">
        <ele>777.4</ele>
        <time>2023-11-26T11:47:56Z</time>
      </trkpt>
      <trkpt lat="43.61965" lon="6.59949">
        <ele>777.4</ele>
        <time>2023-11-26T11:47:57Z</time>
      </trkpt>
      <trkpt lat="43.61965" lon="6.59949">
        <ele>777.4</ele>
        <time>2023-11-26T11:47:58Z</time>
      </trkpt>
      <trkpt lat="43.61965" lon="6.59949">
        <ele>777.3</ele>
        <time>2023-11-26T11:47:59Z</time>
      </trkpt>
      <trkpt lat="43.61965" lon="6.59949">
        <ele>777.3</ele>
        <time>2023-11-26T11:48:00Z</time>
      </trkpt>
      <trkpt lat="43.61965" lon="6.5995">
        <ele>777.3</ele>
        <time>2023-11-26T11:48:01Z</time>
      </trkpt>
      <trkpt lat="43.61965" lon="6.5995">
        <ele>777.2</ele>
        <time>2023-11-26T11:48:02Z</time>
      </trkpt>
      <trkpt lat="43.61965" lon="6.5995">
        <ele>777.2</ele>
        <time>2023-11-26T11:48:03Z</time>
      </trkpt>
      <trkpt lat="43.61965" lon="6.5995">
        <ele>777.2</ele>
        <time>2023-11-26T11:48:04Z</time>
      </trkpt>
      <trkpt lat="43.61965" lon="6.5995">
        <ele>777.2</ele>
        <time>2023-11-26T11:48:05Z</time>
      </trkpt>
      <trkpt lat="43.61965" lon="6.5995">
        <ele>777.1</ele>
        <time>2023-11-26T11:48:06Z</time>
      </trkpt>
      <trkpt lat="43.61965" lon="6.5995">
        <ele>777</ele>
        <time>2023-11-26T11:48:07Z</time>
      </trkpt>
      <trkpt lat="43.61965" lon="6.5995">
        <ele>777</ele>
        <time>2023-11-26T11:48:08Z</time>
      </trkpt>
      <trkpt lat="43.61965" lon="6.5995">
        <ele>777</ele>
        <time>2023-11-26T11:48:09Z</time>
      </trkpt>
      <trkpt lat="43.61965" lon="6.59949">
        <ele>777.1</ele>
        <time>2023-11-26T11:48:10Z</time>
      </trkpt>
      <trkpt lat="43.61965" lon="6.5995">
        <ele>777.1</ele>
        <time>2023-11-26T11:48:11Z</time>
      </trkpt>
      <trkpt lat="43.61965" lon="6.5995">
        <ele>777.1</ele>
        <time>2023-11-26T11:48:12Z</time>
      </trkpt>
      <trkpt lat="43.61965" lon="6.5995">
        <ele>777.1</ele>
        <time>2023-11-26T11:48:13Z</time>
      </trkpt>
      <trkpt lat="43.61965" lon="6.5995">
        <ele>777.1</ele>
        <time>2023-11-26T11:48:14Z</time>
      </trkpt>
      <trkpt lat="43.61965" lon="6.5995">
        <ele>777.1</ele>
        <time>2023-11-26T11:48:15Z</time>
      </trkpt>
      <trkpt lat="43.61965" lon="6.5995">
        <ele>777</ele>
        <time>2023-11-26T11:48:16Z</time>
      </trkpt>
      <trkpt lat="43.61965" lon="6.5995">
        <ele>777.1</ele>
        <time>2023-11-26T11:48:17Z</time>
      </trkpt>
      <trkpt lat="43.61965" lon="6.5995">
        <ele>777.2</ele>
        <time>2023-11-26T11:48:18Z</time>
      </trkpt>
      <trkpt lat="43.61965" lon="6.5995">
        <ele>777.2</ele>
        <time>2023-11-26T11:48:19Z</time>
      </trkpt>
      <trkpt lat="43.61965" lon="6.5995">
        <ele>777.3</ele>
        <time>2023-11-26T11:48:20Z</time>
      </trkpt>
      <trkpt lat="43.61965" lon="6.5995">
        <ele>777.2</ele>
        <time>2023-11-26T11:48:21Z</time>
      </trkpt>
      <trkpt lat="43.61965" lon="6.5995">
        <ele>777.1</ele>
        <time>2023-11-26T11:48:22Z</time>
      </trkpt>
      <trkpt lat="43.61965" lon="6.59949">
        <ele>777.1</ele>
        <time>2023-11-26T11:48:23Z</time>
      </trkpt>
      <trkpt lat="43.61965" lon="6.59949">
        <ele>777.1</ele>
        <time>2023-11-26T11:48:24Z</time>
      </trkpt>
      <trkpt lat="43.61965" lon="6.59949">
        <ele>777.1</ele>
        <time>2023-11-26T11:48:25Z</time>
      </trkpt>
      <trkpt lat="43.61964" lon="6.5995">
        <ele>777.1</ele>
        <time>2023-11-26T11:48:26Z</time>
      </trkpt>
      <trkpt lat="43.61964" lon="6.5995">
        <ele>777.2</ele>
        <time>2023-11-26T11:48:27Z</time>
      </trkpt>
      <trkpt lat="43.61964" lon="6.5995">
        <ele>777.1</ele>
        <time>2023-11-26T11:48:28Z</time>
      </trkpt>
      <trkpt lat="43.61964" lon="6.5995">
        <ele>777.1</ele>
        <time>2023-11-26T11:48:29Z</time>
      </trkpt>
      <trkpt lat="43.61964" lon="6.5995">
        <ele>777.1</ele>
        <time>2023-11-26T11:48:30Z</time>
      </trkpt>
      <trkpt lat="43.61964" lon="6.5995">
        <ele>777.1</ele>
        <time>2023-11-26T11:48:31Z</time>
      </trkpt>
      <trkpt lat="43.61964" lon="6.5995">
        <ele>777.1</ele>
        <time>2023-11-26T11:48:32Z</time>
      </trkpt>
      <trkpt lat="43.61964" lon="6.5995">
        <ele>777.1</ele>
        <time>2023-11-26T11:48:33Z</time>
      </trkpt>
      <trkpt lat="43.61964" lon="6.5995">
        <ele>777.2</ele>
        <time>2023-11-26T11:48:34Z</time>
      </trkpt>
      <trkpt lat="43.61964" lon="6.5995">
        <ele>777.3</ele>
        <time>2023-11-26T11:48:35Z</time>
      </trkpt>
      <trkpt lat="43.61964" lon="6.5995">
        <ele>777.4</ele>
        <time>2023-11-26T11:48:36Z</time>
      </trkpt>
      <trkpt lat="43.61965" lon="6.5995">
        <ele>777.6</ele>
        <time>2023-11-26T11:48:37Z</time>
      </trkpt>
      <trkpt lat="43.61965" lon="6.5995">
        <ele>777.5</ele>
        <time>2023-11-26T11:48:38Z</time>
      </trkpt>
      <trkpt lat="43.61965" lon="6.5995">
        <ele>777.5</ele>
        <time>2023-11-26T11:48:39Z</time>
      </trkpt>
      <trkpt lat="43.61965" lon="6.5995">
        <ele>777.6</ele>
        <time>2023-11-26T11:48:40Z</time>
      </trkpt>
      <trkpt lat="43.61965" lon="6.5995">
        <ele>777.5</ele>
        <time>2023-11-26T11:48:41Z</time>
      </trkpt>
      <trkpt lat="43.61965" lon="6.5995">
        <ele>777.5</ele>
        <time>2023-11-26T11:48:42Z</time>
      </trkpt>
      <trkpt lat="43.61965" lon="6.5995">
        <ele>777.4</ele>
        <time>2023-11-26T11:48:43Z</time>
      </trkpt>
      <trkpt lat="43.61965" lon="6.5995">
        <ele>777.4</ele>
        <time>2023-11-26T11:48:44Z</time>
      </trkpt>
      <trkpt lat="43.61965" lon="6.5995">
        <ele>777.4</ele>
        <time>2023-11-26T11:48:45Z</time>
      </trkpt>
      <trkpt lat="43.61965" lon="6.5995">
        <ele>777.4</ele>
        <time>2023-11-26T11:48:46Z</time>
      </trkpt>
      <trkpt lat="43.61965" lon="6.5995">
        <ele>777.4</ele>
        <time>2023-11-26T11:48:47Z</time>
      </trkpt>
      <trkpt lat="43.61965" lon="6.5995">
        <ele>777.3</ele>
        <time>2023-11-26T11:48:48Z</time>
      </trkpt>
      <trkpt lat="43.61965" lon="6.59949">
        <ele>777.3</ele>
        <time>2023-11-26T11:48:49Z</time>
      </trkpt>
      <trkpt lat="43.61965" lon="6.5995">
        <ele>777.3</ele>
        <time>2023-11-26T11:48:50Z</time>
      </trkpt>
      <trkpt lat="43.61965" lon="6.5995">
        <ele>777.3</ele>
        <time>2023-11-26T11:48:51Z</time>
      </trkpt>
      <trkpt lat="43.61965" lon="6.5995">
        <ele>777.3</ele>
        <time>2023-11-26T11:48:52Z</time>
      </trkpt>
      <trkpt lat="43.61965" lon="6.5995">
        <ele>777.3</ele>
        <time>2023-11-26T11:48:53Z</time>
      </trkpt>
      <trkpt lat="43.61965" lon="6.5995">
        <ele>777.3</ele>
        <time>2023-11-26T11:48:54Z</time>
      </trkpt>
      <trkpt lat="43.61966" lon="6.5995">
        <ele>777.2</ele>
        <time>2023-11-26T11:48:55Z</time>
      </trkpt>
      <trkpt lat="43.61966" lon="6.5995">
        <ele>777.2</ele>
        <time>2023-11-26T11:48:56Z</time>
      </trkpt>
      <trkpt lat="43.61966" lon="6.5995">
        <ele>777.1</ele>
        <time>2023-11-26T11:48:57Z</time>
      </trkpt>
      <trkpt lat="43.61966" lon="6.5995">
        <ele>777</ele>
        <time>2023-11-26T11:48:58Z</time>
      </trkpt>
      <trkpt lat="43.61966" lon="6.59951">
        <ele>777</ele>
        <time>2023-11-26T11:48:59Z</time>
      </trkpt>
      <trkpt lat="43.61966" lon="6.5995">
        <ele>776.7</ele>
        <time>2023-11-26T11:49:00Z</time>
      </trkpt>
      <trkpt lat="43.61966" lon="6.5995">
        <ele>776.4</ele>
        <time>2023-11-26T11:49:01Z</time>
      </trkpt>
      <trkpt lat="43.61966" lon="6.5995">
        <ele>776.1</ele>
        <time>2023-11-26T11:49:02Z</time>
      </trkpt>
      <trkpt lat="43.61966" lon="6.5995">
        <ele>775.8</ele>
        <time>2023-11-26T11:49:03Z</time>
      </trkpt>
      <trkpt lat="43.61967" lon="6.5995">
        <ele>775.6</ele>
        <time>2023-11-26T11:49:04Z</time>
      </trkpt>
      <trkpt lat="43.61967" lon="6.5995">
        <ele>775.3</ele>
        <time>2023-11-26T11:49:05Z</time>
      </trkpt>
      <trkpt lat="43.61967" lon="6.5995">
        <ele>775</ele>
        <time>2023-11-26T11:49:06Z</time>
      </trkpt>
      <trkpt lat="43.61967" lon="6.5995">
        <ele>774.7</ele>
        <time>2023-11-26T11:49:07Z</time>
      </trkpt>
      <trkpt lat="43.61967" lon="6.5995">
        <ele>774.4</ele>
        <time>2023-11-26T11:49:08Z</time>
      </trkpt>
      <trkpt lat="43.61968" lon="6.59951">
        <ele>774.3</ele>
        <time>2023-11-26T11:49:09Z</time>
      </trkpt>
      <trkpt lat="43.61968" lon="6.59951">
        <ele>774.2</ele>
        <time>2023-11-26T11:49:10Z</time>
      </trkpt>
      <trkpt lat="43.61969" lon="6.59952">
        <ele>774.2</ele>
        <time>2023-11-26T11:49:11Z</time>
      </trkpt>
      <trkpt lat="43.61969" lon="6.59953">
        <ele>774.1</ele>
        <time>2023-11-26T11:49:12Z</time>
      </trkpt>
      <trkpt lat="43.6197" lon="6.59954">
        <ele>774.1</ele>
        <time>2023-11-26T11:49:13Z</time>
      </trkpt>
      <trkpt lat="43.61971" lon="6.59956">
        <ele>774.1</ele>
        <time>2023-11-26T11:49:14Z</time>
      </trkpt>
      <trkpt lat="43.61971" lon="6.59957">
        <ele>774.1</ele>
        <time>2023-11-26T11:49:15Z</time>
      </trkpt>
      <trkpt lat="43.61972" lon="6.59958">
        <ele>774</ele>
        <time>2023-11-26T11:49:16Z</time>
      </trkpt>
      <trkpt lat="43.61972" lon="6.5996">
        <ele>773.9</ele>
        <time>2023-11-26T11:49:17Z</time>
      </trkpt>
      <trkpt lat="43.61973" lon="6.59961">
        <ele>773.8</ele>
        <time>2023-11-26T11:49:18Z</time>
      </trkpt>
      <trkpt lat="43.61974" lon="6.59963">
        <ele>773.7</ele>
        <time>2023-11-26T11:49:19Z</time>
      </trkpt>
      <trkpt lat="43.61974" lon="6.59964">
        <ele>773.6</ele>
        <time>2023-11-26T11:49:20Z</time>
      </trkpt>
      <trkpt lat="43.61975" lon="6.59966">
        <ele>773.5</ele>
        <time>2023-11-26T11:49:21Z</time>
      </trkpt>
      <trkpt lat="43.61976" lon="6.59967">
        <ele>773.4</ele>
        <time>2023-11-26T11:49:22Z</time>
      </trkpt>
      <trkpt lat="43.61977" lon="6.59968">
        <ele>773.3</ele>
        <time>2023-11-26T11:49:23Z</time>
      </trkpt>
      <trkpt lat="43.61978" lon="6.59969">
        <ele>773.1</ele>
        <time>2023-11-26T11:49:24Z</time>
      </trkpt>
      <trkpt lat="43.61978" lon="6.5997">
        <ele>773</ele>
        <time>2023-11-26T11:49:25Z</time>
      </trkpt>
      <trkpt lat="43.61979" lon="6.59971">
        <ele>772.9</ele>
        <time>2023-11-26T11:49:26Z</time>
      </trkpt>
      <trkpt lat="43.6198" lon="6.59972">
        <ele>772.9</ele>
        <time>2023-11-26T11:49:27Z</time>
      </trkpt>
      <trkpt lat="43.6198" lon="6.59973">
        <ele>772.8</ele>
        <time>2023-11-26T11:49:28Z</time>
      </trkpt>
      <trkpt lat="43.6198" lon="6.59973">
        <ele>772.8</ele>
        <time>2023-11-26T11:49:29Z</time>
      </trkpt>
      <trkpt lat="43.6198" lon="6.59973">
        <ele>772.7</ele>
        <time>2023-11-26T11:49:30Z</time>
      </trkpt>
      <trkpt lat="43.6198" lon="6.59973">
        <ele>772.7</ele>
        <time>2023-11-26T11:49:31Z</time>
      </trkpt>
      <trkpt lat="43.6198" lon="6.59974">
        <ele>772.7</ele>
        <time>2023-11-26T11:49:32Z</time>
      </trkpt>
      <trkpt lat="43.6198" lon="6.59974">
        <ele>772.7</ele>
        <time>2023-11-26T11:49:33Z</time>
      </trkpt>
      <trkpt lat="43.6198" lon="6.59974">
        <ele>772.6</ele>
        <time>2023-11-26T11:49:34Z</time>
      </trkpt>
      <trkpt lat="43.6198" lon="6.59975">
        <ele>772.6</ele>
        <time>2023-11-26T11:49:35Z</time>
      </trkpt>
      <trkpt lat="43.6198" lon="6.59975">
        <ele>772.6</ele>
        <time>2023-11-26T11:49:36Z</time>
      </trkpt>
      <trkpt lat="43.61981" lon="6.59975">
        <ele>772.6</ele>
        <time>2023-11-26T11:49:37Z</time>
      </trkpt>
      <trkpt lat="43.61981" lon="6.59975">
        <ele>772.6</ele>
        <time>2023-11-26T11:49:38Z</time>
      </trkpt>
      <trkpt lat="43.61981" lon="6.59975">
        <ele>772.6</ele>
        <time>2023-11-26T11:49:39Z</time>
      </trkpt>
      <trkpt lat="43.61982" lon="6.59975">
        <ele>772.5</ele>
        <time>2023-11-26T11:49:40Z</time>
      </trkpt>
      <trkpt lat="43.61982" lon="6.59975">
        <ele>772.5</ele>
        <time>2023-11-26T11:49:41Z</time>
      </trkpt>
      <trkpt lat="43.61982" lon="6.59975">
        <ele>772.5</ele>
        <time>2023-11-26T11:49:42Z</time>
      </trkpt>
      <trkpt lat="43.61983" lon="6.59975">
        <ele>772.5</ele>
        <time>2023-11-26T11:49:43Z</time>
      </trkpt>
      <trkpt lat="43.61983" lon="6.59975">
        <ele>772.5</ele>
        <time>2023-11-26T11:49:44Z</time>
      </trkpt>
      <trkpt lat="43.61983" lon="6.59976">
        <ele>772.5</ele>
        <time>2023-11-26T11:49:45Z</time>
      </trkpt>
      <trkpt lat="43.61983" lon="6.59976">
        <ele>772.5</ele>
        <time>2023-11-26T11:49:46Z</time>
      </trkpt>
      <trkpt lat="43.61984" lon="6.59976">
        <ele>772.5</ele>
        <time>2023-11-26T11:49:47Z</time>
      </trkpt>
      <trkpt lat="43.61984" lon="6.59977">
        <ele>772.5</ele>
        <time>2023-11-26T11:49:48Z</time>
      </trkpt>
      <trkpt lat="43.61985" lon="6.59977">
        <ele>772.4</ele>
        <time>2023-11-26T11:49:49Z</time>
      </trkpt>
      <trkpt lat="43.61985" lon="6.59978">
        <ele>772.3</ele>
        <time>2023-11-26T11:49:50Z</time>
      </trkpt>
      <trkpt lat="43.61986" lon="6.59979">
        <ele>772.2</ele>
        <time>2023-11-26T11:49:51Z</time>
      </trkpt>
      <trkpt lat="43.61988" lon="6.5998">
        <ele>772.2</ele>
        <time>2023-11-26T11:49:52Z</time>
      </trkpt>
      <trkpt lat="43.61989" lon="6.59981">
        <ele>772.2</ele>
        <time>2023-11-26T11:49:53Z</time>
      </trkpt>
      <trkpt lat="43.6199" lon="6.59982">
        <ele>772</ele>
        <time>2023-11-26T11:49:54Z</time>
      </trkpt>
      <trkpt lat="43.6199" lon="6.59983">
        <ele>771.8</ele>
        <time>2023-11-26T11:49:55Z</time>
      </trkpt>
      <trkpt lat="43.61991" lon="6.59985">
        <ele>771.6</ele>
        <time>2023-11-26T11:49:56Z</time>
      </trkpt>
      <trkpt lat="43.61992" lon="6.59986">
        <ele>771.3</ele>
        <time>2023-11-26T11:49:57Z</time>
      </trkpt>
      <trkpt lat="43.61993" lon="6.59987">
        <ele>771.1</ele>
        <time>2023-11-26T11:49:58Z</time>
      </trkpt>
      <trkpt lat="43.61994" lon="6.59988">
        <ele>770.9</ele>
        <time>2023-11-26T11:49:59Z</time>
      </trkpt>
      <trkpt lat="43.61995" lon="6.59989">
        <ele>770.7</ele>
        <time>2023-11-26T11:50:00Z</time>
      </trkpt>
      <trkpt lat="43.61996" lon="6.5999">
        <ele>770.4</ele>
        <time>2023-11-26T11:50:01Z</time>
      </trkpt>
      <trkpt lat="43.61997" lon="6.59991">
        <ele>770.1</ele>
        <time>2023-11-26T11:50:02Z</time>
      </trkpt>
      <trkpt lat="43.61998" lon="6.59992">
        <ele>769.9</ele>
        <time>2023-11-26T11:50:03Z</time>
      </trkpt>
      <trkpt lat="43.61998" lon="6.59994">
        <ele>769.6</ele>
        <time>2023-11-26T11:50:04Z</time>
      </trkpt>
      <trkpt lat="43.61999" lon="6.59995">
        <ele>769.2</ele>
        <time>2023-11-26T11:50:05Z</time>
      </trkpt>
      <trkpt lat="43.62" lon="6.59997">
        <ele>769</ele>
        <time>2023-11-26T11:50:06Z</time>
      </trkpt>
      <trkpt lat="43.62" lon="6.59998">
        <ele>768.8</ele>
        <time>2023-11-26T11:50:07Z</time>
      </trkpt>
      <trkpt lat="43.62001" lon="6.59999">
        <ele>768.6</ele>
        <time>2023-11-26T11:50:08Z</time>
      </trkpt>
      <trkpt lat="43.62002" lon="6.6">
        <ele>768.4</ele>
        <time>2023-11-26T11:50:09Z</time>
      </trkpt>
      <trkpt lat="43.62003" lon="6.6">
        <ele>768.3</ele>
        <time>2023-11-26T11:50:10Z</time>
      </trkpt>
      <trkpt lat="43.62004" lon="6.60002">
        <ele>768.2</ele>
        <time>2023-11-26T11:50:11Z</time>
      </trkpt>
      <trkpt lat="43.62004" lon="6.60003">
        <ele>768</ele>
        <time>2023-11-26T11:50:12Z</time>
      </trkpt>
      <trkpt lat="43.62005" lon="6.60005">
        <ele>767.9</ele>
        <time>2023-11-26T11:50:13Z</time>
      </trkpt>
      <trkpt lat="43.62006" lon="6.60006">
        <ele>767.7</ele>
        <time>2023-11-26T11:50:14Z</time>
      </trkpt>
      <trkpt lat="43.62007" lon="6.60008">
        <ele>767.7</ele>
        <time>2023-11-26T11:50:15Z</time>
      </trkpt>
      <trkpt lat="43.62008" lon="6.60009">
        <ele>767.5</ele>
        <time>2023-11-26T11:50:16Z</time>
      </trkpt>
      <trkpt lat="43.62009" lon="6.6001">
        <ele>767.3</ele>
        <time>2023-11-26T11:50:17Z</time>
      </trkpt>
      <trkpt lat="43.6201" lon="6.60011">
        <ele>767.1</ele>
        <time>2023-11-26T11:50:18Z</time>
      </trkpt>
      <trkpt lat="43.6201" lon="6.60013">
        <ele>766.9</ele>
        <time>2023-11-26T11:50:19Z</time>
      </trkpt>
      <trkpt lat="43.62011" lon="6.60014">
        <ele>766.8</ele>
        <time>2023-11-26T11:50:20Z</time>
      </trkpt>
      <trkpt lat="43.62012" lon="6.60016">
        <ele>766.7</ele>
        <time>2023-11-26T11:50:21Z</time>
      </trkpt>
      <trkpt lat="43.62013" lon="6.60017">
        <ele>766.6</ele>
        <time>2023-11-26T11:50:22Z</time>
      </trkpt>
      <trkpt lat="43.62014" lon="6.60019">
        <ele>766.5</ele>
        <time>2023-11-26T11:50:23Z</time>
      </trkpt>
      <trkpt lat="43.62015" lon="6.6002">
        <ele>766.3</ele>
        <time>2023-11-26T11:50:24Z</time>
      </trkpt>
      <trkpt lat="43.62015" lon="6.60022">
        <ele>766.1</ele>
        <time>2023-11-26T11:50:25Z</time>
      </trkpt>
      <trkpt lat="43.62016" lon="6.60023">
        <ele>765.9</ele>
        <time>2023-11-26T11:50:26Z</time>
      </trkpt>
      <trkpt lat="43.62017" lon="6.60024">
        <ele>765.7</ele>
        <time>2023-11-26T11:50:27Z</time>
      </trkpt>
      <trkpt lat="43.62018" lon="6.60026">
        <ele>765.6</ele>
        <time>2023-11-26T11:50:28Z</time>
      </trkpt>
      <trkpt lat="43.62019" lon="6.60027">
        <ele>765.4</ele>
        <time>2023-11-26T11:50:29Z</time>
      </trkpt>
      <trkpt lat="43.62019" lon="6.60029">
        <ele>765.3</ele>
        <time>2023-11-26T11:50:30Z</time>
      </trkpt>
      <trkpt lat="43.6202" lon="6.60031">
        <ele>765.2</ele>
        <time>2023-11-26T11:50:31Z</time>
      </trkpt>
      <trkpt lat="43.6202" lon="6.60032">
        <ele>765.2</ele>
        <time>2023-11-26T11:50:32Z</time>
      </trkpt>
      <trkpt lat="43.62021" lon="6.60034">
        <ele>765</ele>
        <time>2023-11-26T11:50:33Z</time>
      </trkpt>
      <trkpt lat="43.62022" lon="6.60036">
        <ele>764.9</ele>
        <time>2023-11-26T11:50:34Z</time>
      </trkpt>
      <trkpt lat="43.62022" lon="6.60037">
        <ele>764.8</ele>
        <time>2023-11-26T11:50:35Z</time>
      </trkpt>
      <trkpt lat="43.62023" lon="6.60039">
        <ele>764.6</ele>
        <time>2023-11-26T11:50:36Z</time>
      </trkpt>
      <trkpt lat="43.62024" lon="6.6004">
        <ele>764.4</ele>
        <time>2023-11-26T11:50:37Z</time>
      </trkpt>
      <trkpt lat="43.62025" lon="6.60042">
        <ele>764.2</ele>
        <time>2023-11-26T11:50:38Z</time>
      </trkpt>
      <trkpt lat="43.62025" lon="6.60043">
        <ele>764.1</ele>
        <time>2023-11-26T11:50:39Z</time>
      </trkpt>
      <trkpt lat="43.62026" lon="6.60045">
        <ele>763.9</ele>
        <time>2023-11-26T11:50:40Z</time>
      </trkpt>
      <trkpt lat="43.62027" lon="6.60047">
        <ele>763.8</ele>
        <time>2023-11-26T11:50:41Z</time>
      </trkpt>
      <trkpt lat="43.62027" lon="6.60049">
        <ele>763.8</ele>
        <time>2023-11-26T11:50:42Z</time>
      </trkpt>
      <trkpt lat="43.62028" lon="6.6005">
        <ele>763.7</ele>
        <time>2023-11-26T11:50:43Z</time>
      </trkpt>
      <trkpt lat="43.62029" lon="6.60052">
        <ele>763.5</ele>
        <time>2023-11-26T11:50:44Z</time>
      </trkpt>
      <trkpt lat="43.62029" lon="6.60054">
        <ele>763.4</ele>
        <time>2023-11-26T11:50:45Z</time>
      </trkpt>
      <trkpt lat="43.6203" lon="6.60055">
        <ele>763.3</ele>
        <time>2023-11-26T11:50:46Z</time>
      </trkpt>
      <trkpt lat="43.62031" lon="6.60057">
        <ele>763.1</ele>
        <time>2023-11-26T11:50:47Z</time>
      </trkpt>
      <trkpt lat="43.62031" lon="6.60059">
        <ele>763</ele>
        <time>2023-11-26T11:50:48Z</time>
      </trkpt>
      <trkpt lat="43.62032" lon="6.6006">
        <ele>762.9</ele>
        <time>2023-11-26T11:50:49Z</time>
      </trkpt>
      <trkpt lat="43.62033" lon="6.60061">
        <ele>762.9</ele>
        <time>2023-11-26T11:50:50Z</time>
      </trkpt>
      <trkpt lat="43.62034" lon="6.60063">
        <ele>762.9</ele>
        <time>2023-11-26T11:50:51Z</time>
      </trkpt>
      <trkpt lat="43.62035" lon="6.60065">
        <ele>762.9</ele>
        <time>2023-11-26T11:50:52Z</time>
      </trkpt>
      <trkpt lat="43.62035" lon="6.60066">
        <ele>762.8</ele>
        <time>2023-11-26T11:50:53Z</time>
      </trkpt>
      <trkpt lat="43.62036" lon="6.60068">
        <ele>762.7</ele>
        <time>2023-11-26T11:50:54Z</time>
      </trkpt>
      <trkpt lat="43.62037" lon="6.60069">
        <ele>762.6</ele>
        <time>2023-11-26T11:50:55Z</time>
      </trkpt>
      <trkpt lat="43.62038" lon="6.60071">
        <ele>762.5</ele>
        <time>2023-11-26T11:50:56Z</time>
      </trkpt>
      <trkpt lat="43.62039" lon="6.60073">
        <ele>762.4</ele>
        <time>2023-11-26T11:50:57Z</time>
      </trkpt>
      <trkpt lat="43.6204" lon="6.60074">
        <ele>762.3</ele>
        <time>2023-11-26T11:50:58Z</time>
      </trkpt>
      <trkpt lat="43.62041" lon="6.60076">
        <ele>762.2</ele>
        <time>2023-11-26T11:50:59Z</time>
      </trkpt>
      <trkpt lat="43.62042" lon="6.60078">
        <ele>762</ele>
        <time>2023-11-26T11:51:00Z</time>
      </trkpt>
      <trkpt lat="43.62043" lon="6.60079">
        <ele>761.9</ele>
        <time>2023-11-26T11:51:01Z</time>
      </trkpt>
      <trkpt lat="43.62044" lon="6.60081">
        <ele>761.9</ele>
        <time>2023-11-26T11:51:02Z</time>
      </trkpt>
      <trkpt lat="43.62045" lon="6.60082">
        <ele>761.8</ele>
        <time>2023-11-26T11:51:03Z</time>
      </trkpt>
      <trkpt lat="43.62046" lon="6.60084">
        <ele>761.7</ele>
        <time>2023-11-26T11:51:04Z</time>
      </trkpt>
      <trkpt lat="43.62047" lon="6.60086">
        <ele>761.6</ele>
        <time>2023-11-26T11:51:05Z</time>
      </trkpt>
      <trkpt lat="43.62047" lon="6.60087">
        <ele>761.5</ele>
        <time>2023-11-26T11:51:06Z</time>
      </trkpt>
      <trkpt lat="43.62048" lon="6.60089">
        <ele>761.4</ele>
        <time>2023-11-26T11:51:07Z</time>
      </trkpt>
      <trkpt lat="43.62049" lon="6.6009">
        <ele>761.4</ele>
        <time>2023-11-26T11:51:08Z</time>
      </trkpt>
      <trkpt lat="43.6205" lon="6.60092">
        <ele>761.3</ele>
        <time>2023-11-26T11:51:09Z</time>
      </trkpt>
      <trkpt lat="43.6205" lon="6.60093">
        <ele>761.2</ele>
        <time>2023-11-26T11:51:10Z</time>
      </trkpt>
      <trkpt lat="43.62051" lon="6.60095">
        <ele>761.2</ele>
        <time>2023-11-26T11:51:11Z</time>
      </trkpt>
      <trkpt lat="43.62052" lon="6.60097">
        <ele>761.3</ele>
        <time>2023-11-26T11:51:12Z</time>
      </trkpt>
      <trkpt lat="43.62053" lon="6.60098">
        <ele>761.2</ele>
        <time>2023-11-26T11:51:13Z</time>
      </trkpt>
      <trkpt lat="43.62055" lon="6.60099">
        <ele>761.2</ele>
        <time>2023-11-26T11:51:14Z</time>
      </trkpt>
      <trkpt lat="43.62056" lon="6.60101">
        <ele>761.2</ele>
        <time>2023-11-26T11:51:15Z</time>
      </trkpt>
      <trkpt lat="43.62057" lon="6.60103">
        <ele>761.1</ele>
        <time>2023-11-26T11:51:16Z</time>
      </trkpt>
      <trkpt lat="43.62058" lon="6.60104">
        <ele>761</ele>
        <time>2023-11-26T11:51:17Z</time>
      </trkpt>
      <trkpt lat="43.62058" lon="6.60106">
        <ele>760.9</ele>
        <time>2023-11-26T11:51:18Z</time>
      </trkpt>
      <trkpt lat="43.62059" lon="6.60108">
        <ele>760.9</ele>
        <time>2023-11-26T11:51:19Z</time>
      </trkpt>
      <trkpt lat="43.6206" lon="6.60109">
        <ele>760.8</ele>
        <time>2023-11-26T11:51:20Z</time>
      </trkpt>
      <trkpt lat="43.62061" lon="6.60111">
        <ele>760.8</ele>
        <time>2023-11-26T11:51:21Z</time>
      </trkpt>
      <trkpt lat="43.62062" lon="6.60113">
        <ele>760.7</ele>
        <time>2023-11-26T11:51:22Z</time>
      </trkpt>
      <trkpt lat="43.62062" lon="6.60115">
        <ele>760.7</ele>
        <time>2023-11-26T11:51:23Z</time>
      </trkpt>
      <trkpt lat="43.62063" lon="6.60116">
        <ele>760.7</ele>
        <time>2023-11-26T11:51:24Z</time>
      </trkpt>
      <trkpt lat="43.62064" lon="6.60118">
        <ele>760.6</ele>
        <time>2023-11-26T11:51:25Z</time>
      </trkpt>
      <trkpt lat="43.62065" lon="6.6012">
        <ele>760.5</ele>
        <time>2023-11-26T11:51:26Z</time>
      </trkpt>
      <trkpt lat="43.62066" lon="6.60121">
        <ele>760.5</ele>
        <time>2023-11-26T11:51:27Z</time>
      </trkpt>
      <trkpt lat="43.62067" lon="6.60123">
        <ele>760.4</ele>
        <time>2023-11-26T11:51:28Z</time>
      </trkpt>
      <trkpt lat="43.62067" lon="6.60125">
        <ele>760.4</ele>
        <time>2023-11-26T11:51:29Z</time>
      </trkpt>
      <trkpt lat="43.62068" lon="6.60127">
        <ele>760.4</ele>
        <time>2023-11-26T11:51:30Z</time>
      </trkpt>
      <trkpt lat="43.62069" lon="6.60129">
        <ele>760.2</ele>
        <time>2023-11-26T11:51:31Z</time>
      </trkpt>
      <trkpt lat="43.62069" lon="6.60131">
        <ele>760</ele>
        <time>2023-11-26T11:51:32Z</time>
      </trkpt>
      <trkpt lat="43.6207" lon="6.60133">
        <ele>760</ele>
        <time>2023-11-26T11:51:33Z</time>
      </trkpt>
      <trkpt lat="43.6207" lon="6.60135">
        <ele>759.8</ele>
        <time>2023-11-26T11:51:34Z</time>
      </trkpt>
      <trkpt lat="43.62071" lon="6.60136">
        <ele>759.6</ele>
        <time>2023-11-26T11:51:35Z</time>
      </trkpt>
      <trkpt lat="43.62071" lon="6.60138">
        <ele>759.5</ele>
        <time>2023-11-26T11:51:36Z</time>
      </trkpt>
      <trkpt lat="43.62071" lon="6.6014">
        <ele>759.5</ele>
        <time>2023-11-26T11:51:37Z</time>
      </trkpt>
      <trkpt lat="43.62071" lon="6.60142">
        <ele>759.5</ele>
        <time>2023-11-26T11:51:38Z</time>
      </trkpt>
      <trkpt lat="43.62072" lon="6.60144">
        <ele>759.4</ele>
        <time>2023-11-26T11:51:39Z</time>
      </trkpt>
      <trkpt lat="43.62072" lon="6.60146">
        <ele>759.4</ele>
        <time>2023-11-26T11:51:40Z</time>
      </trkpt>
      <trkpt lat="43.62072" lon="6.60148">
        <ele>759.3</ele>
        <time>2023-11-26T11:51:41Z</time>
      </trkpt>
      <trkpt lat="43.62073" lon="6.6015">
        <ele>759.3</ele>
        <time>2023-11-26T11:51:42Z</time>
      </trkpt>
      <trkpt lat="43.62073" lon="6.60151">
        <ele>759.1</ele>
        <time>2023-11-26T11:51:43Z</time>
      </trkpt>
      <trkpt lat="43.62073" lon="6.60153">
        <ele>759</ele>
        <time>2023-11-26T11:51:44Z</time>
      </trkpt>
      <trkpt lat="43.62074" lon="6.60155">
        <ele>758.9</ele>
        <time>2023-11-26T11:51:45Z</time>
      </trkpt>
      <trkpt lat="43.62074" lon="6.60157">
        <ele>758.8</ele>
        <time>2023-11-26T11:51:46Z</time>
      </trkpt>
      <trkpt lat="43.62075" lon="6.60159">
        <ele>758.7</ele>
        <time>2023-11-26T11:51:47Z</time>
      </trkpt>
      <trkpt lat="43.62075" lon="6.60161">
        <ele>758.7</ele>
        <time>2023-11-26T11:51:48Z</time>
      </trkpt>
      <trkpt lat="43.62075" lon="6.60163">
        <ele>758.5</ele>
        <time>2023-11-26T11:51:49Z</time>
      </trkpt>
      <trkpt lat="43.62075" lon="6.60165">
        <ele>758.3</ele>
        <time>2023-11-26T11:51:50Z</time>
      </trkpt>
      <trkpt lat="43.62075" lon="6.60167">
        <ele>758.2</ele>
        <time>2023-11-26T11:51:51Z</time>
      </trkpt>
      <trkpt lat="43.62075" lon="6.60169">
        <ele>758.1</ele>
        <time>2023-11-26T11:51:52Z</time>
      </trkpt>
      <trkpt lat="43.62075" lon="6.60171">
        <ele>758</ele>
        <time>2023-11-26T11:51:53Z</time>
      </trkpt>
      <trkpt lat="43.62075" lon="6.60173">
        <ele>757.9</ele>
        <time>2023-11-26T11:51:54Z</time>
      </trkpt>
      <trkpt lat="43.62075" lon="6.60174">
        <ele>757.9</ele>
        <time>2023-11-26T11:51:55Z</time>
      </trkpt>
      <trkpt lat="43.62075" lon="6.60176">
        <ele>757.7</ele>
        <time>2023-11-26T11:51:56Z</time>
      </trkpt>
      <trkpt lat="43.62074" lon="6.60178">
        <ele>757.6</ele>
        <time>2023-11-26T11:51:57Z</time>
      </trkpt>
      <trkpt lat="43.62075" lon="6.60179">
        <ele>757.4</ele>
        <time>2023-11-26T11:51:58Z</time>
      </trkpt>
      <trkpt lat="43.62075" lon="6.60181">
        <ele>757.3</ele>
        <time>2023-11-26T11:51:59Z</time>
      </trkpt>
      <trkpt lat="43.62074" lon="6.60183">
        <ele>757.2</ele>
        <time>2023-11-26T11:52:00Z</time>
      </trkpt>
      <trkpt lat="43.62074" lon="6.60185">
        <ele>757.1</ele>
        <time>2023-11-26T11:52:01Z</time>
      </trkpt>
      <trkpt lat="43.62074" lon="6.60186">
        <ele>757</ele>
        <time>2023-11-26T11:52:02Z</time>
      </trkpt>
      <trkpt lat="43.62073" lon="6.60188">
        <ele>756.9</ele>
        <time>2023-11-26T11:52:03Z</time>
      </trkpt>
      <trkpt lat="43.62073" lon="6.60189">
        <ele>756.7</ele>
        <time>2023-11-26T11:52:04Z</time>
      </trkpt>
      <trkpt lat="43.62073" lon="6.60191">
        <ele>756.6</ele>
        <time>2023-11-26T11:52:05Z</time>
      </trkpt>
      <trkpt lat="43.62073" lon="6.60192">
        <ele>756.4</ele>
        <time>2023-11-26T11:52:06Z</time>
      </trkpt>
      <trkpt lat="43.62073" lon="6.60193">
        <ele>756.2</ele>
        <time>2023-11-26T11:52:07Z</time>
      </trkpt>
      <trkpt lat="43.62073" lon="6.60195">
        <ele>756.2</ele>
        <time>2023-11-26T11:52:08Z</time>
      </trkpt>
      <trkpt lat="43.62073" lon="6.60197">
        <ele>756.1</ele>
        <time>2023-11-26T11:52:09Z</time>
      </trkpt>
      <trkpt lat="43.62074" lon="6.60199">
        <ele>755.9</ele>
        <time>2023-11-26T11:52:10Z</time>
      </trkpt>
      <trkpt lat="43.62073" lon="6.60201">
        <ele>755.7</ele>
        <time>2023-11-26T11:52:11Z</time>
      </trkpt>
      <trkpt lat="43.62073" lon="6.60202">
        <ele>755.6</ele>
        <time>2023-11-26T11:52:12Z</time>
      </trkpt>
      <trkpt lat="43.62073" lon="6.60204">
        <ele>755.3</ele>
        <time>2023-11-26T11:52:13Z</time>
      </trkpt>
      <trkpt lat="43.62073" lon="6.60206">
        <ele>755.1</ele>
        <time>2023-11-26T11:52:14Z</time>
      </trkpt>
      <trkpt lat="43.62073" lon="6.60207">
        <ele>754.9</ele>
        <time>2023-11-26T11:52:15Z</time>
      </trkpt>
      <trkpt lat="43.62072" lon="6.60209">
        <ele>754.8</ele>
        <time>2023-11-26T11:52:16Z</time>
      </trkpt>
      <trkpt lat="43.62072" lon="6.60211">
        <ele>754.6</ele>
        <time>2023-11-26T11:52:17Z</time>
      </trkpt>
      <trkpt lat="43.62072" lon="6.60213">
        <ele>754.5</ele>
        <time>2023-11-26T11:52:18Z</time>
      </trkpt>
      <trkpt lat="43.62071" lon="6.60214">
        <ele>754.3</ele>
        <time>2023-11-26T11:52:19Z</time>
      </trkpt>
      <trkpt lat="43.62071" lon="6.60216">
        <ele>754</ele>
        <time>2023-11-26T11:52:20Z</time>
      </trkpt>
      <trkpt lat="43.62071" lon="6.60219">
        <ele>753.6</ele>
        <time>2023-11-26T11:52:21Z</time>
      </trkpt>
      <trkpt lat="43.6207" lon="6.6022">
        <ele>753.4</ele>
        <time>2023-11-26T11:52:22Z</time>
      </trkpt>
      <trkpt lat="43.6207" lon="6.60222">
        <ele>753.2</ele>
        <time>2023-11-26T11:52:23Z</time>
      </trkpt>
      <trkpt lat="43.6207" lon="6.60224">
        <ele>753</ele>
        <time>2023-11-26T11:52:24Z</time>
      </trkpt>
      <trkpt lat="43.6207" lon="6.60226">
        <ele>752.8</ele>
        <time>2023-11-26T11:52:25Z</time>
      </trkpt>
      <trkpt lat="43.6207" lon="6.60228">
        <ele>752.6</ele>
        <time>2023-11-26T11:52:26Z</time>
      </trkpt>
      <trkpt lat="43.6207" lon="6.60231">
        <ele>752.4</ele>
        <time>2023-11-26T11:52:27Z</time>
      </trkpt>
      <trkpt lat="43.6207" lon="6.60234">
        <ele>752.3</ele>
        <time>2023-11-26T11:52:28Z</time>
      </trkpt>
      <trkpt lat="43.6207" lon="6.60237">
        <ele>752</ele>
        <time>2023-11-26T11:52:29Z</time>
      </trkpt>
      <trkpt lat="43.6207" lon="6.6024">
        <ele>751.7</ele>
        <time>2023-11-26T11:52:30Z</time>
      </trkpt>
      <trkpt lat="43.62069" lon="6.60242">
        <ele>751.5</ele>
        <time>2023-11-26T11:52:31Z</time>
      </trkpt>
      <trkpt lat="43.62069" lon="6.60244">
        <ele>751</ele>
        <time>2023-11-26T11:52:32Z</time>
      </trkpt>
      <trkpt lat="43.62069" lon="6.60247">
        <ele>750.6</ele>
        <time>2023-11-26T11:52:33Z</time>
      </trkpt>
      <trkpt lat="43.62068" lon="6.6025">
        <ele>750.7</ele>
        <time>2023-11-26T11:52:34Z</time>
      </trkpt>
      <trkpt lat="43.62068" lon="6.60252">
        <ele>750.4</ele>
        <time>2023-11-26T11:52:35Z</time>
      </trkpt>
      <trkpt lat="43.62068" lon="6.60254">
        <ele>750.2</ele>
        <time>2023-11-26T11:52:36Z</time>
      </trkpt>
      <trkpt lat="43.62068" lon="6.60257">
        <ele>750</ele>
        <time>2023-11-26T11:52:37Z</time>
      </trkpt>
      <trkpt lat="43.62068" lon="6.60259">
        <ele>749.7</ele>
        <time>2023-11-26T11:52:38Z</time>
      </trkpt>
      <trkpt lat="43.62068" lon="6.60262">
        <ele>749.4</ele>
        <time>2023-11-26T11:52:39Z</time>
      </trkpt>
      <trkpt lat="43.62069" lon="6.60264">
        <ele>749.2</ele>
        <time>2023-11-26T11:52:40Z</time>
      </trkpt>
      <trkpt lat="43.62069" lon="6.60267">
        <ele>749</ele>
        <time>2023-11-26T11:52:41Z</time>
      </trkpt>
      <trkpt lat="43.62069" lon="6.60269">
        <ele>748.8</ele>
        <time>2023-11-26T11:52:42Z</time>
      </trkpt>
      <trkpt lat="43.62069" lon="6.60271">
        <ele>748.7</ele>
        <time>2023-11-26T11:52:43Z</time>
      </trkpt>
      <trkpt lat="43.62069" lon="6.60272">
        <ele>748.6</ele>
        <time>2023-11-26T11:52:44Z</time>
      </trkpt>
      <trkpt lat="43.62069" lon="6.60274">
        <ele>748.3</ele>
        <time>2023-11-26T11:52:45Z</time>
      </trkpt>
      <trkpt lat="43.6207" lon="6.60276">
        <ele>748.2</ele>
        <time>2023-11-26T11:52:46Z</time>
      </trkpt>
      <trkpt lat="43.6207" lon="6.60278">
        <ele>748</ele>
        <time>2023-11-26T11:52:47Z</time>
      </trkpt>
      <trkpt lat="43.6207" lon="6.6028">
        <ele>747.9</ele>
        <time>2023-11-26T11:52:48Z</time>
      </trkpt>
      <trkpt lat="43.6207" lon="6.60282">
        <ele>747.7</ele>
        <time>2023-11-26T11:52:49Z</time>
      </trkpt>
      <trkpt lat="43.62071" lon="6.60284">
        <ele>747.5</ele>
        <time>2023-11-26T11:52:50Z</time>
      </trkpt>
      <trkpt lat="43.62071" lon="6.60285">
        <ele>747.3</ele>
        <time>2023-11-26T11:52:51Z</time>
      </trkpt>
      <trkpt lat="43.62071" lon="6.60287">
        <ele>747.2</ele>
        <time>2023-11-26T11:52:52Z</time>
      </trkpt>
      <trkpt lat="43.62072" lon="6.60289">
        <ele>747</ele>
        <time>2023-11-26T11:52:53Z</time>
      </trkpt>
      <trkpt lat="43.62072" lon="6.60291">
        <ele>746.9</ele>
        <time>2023-11-26T11:52:54Z</time>
      </trkpt>
      <trkpt lat="43.62072" lon="6.60293">
        <ele>746.9</ele>
        <time>2023-11-26T11:52:55Z</time>
      </trkpt>
      <trkpt lat="43.62072" lon="6.60295">
        <ele>746.7</ele>
        <time>2023-11-26T11:52:56Z</time>
      </trkpt>
      <trkpt lat="43.62072" lon="6.60297">
        <ele>746.6</ele>
        <time>2023-11-26T11:52:57Z</time>
      </trkpt>
      <trkpt lat="43.62072" lon="6.60299">
        <ele>746.5</ele>
        <time>2023-11-26T11:52:58Z</time>
      </trkpt>
      <trkpt lat="43.62072" lon="6.60301">
        <ele>746.3</ele>
        <time>2023-11-26T11:52:59Z</time>
      </trkpt>
      <trkpt lat="43.62072" lon="6.60302">
        <ele>746.2</ele>
        <time>2023-11-26T11:53:00Z</time>
      </trkpt>
      <trkpt lat="43.62073" lon="6.60304">
        <ele>746</ele>
        <time>2023-11-26T11:53:01Z</time>
      </trkpt>
      <trkpt lat="43.62073" lon="6.60305">
        <ele>745.9</ele>
        <time>2023-11-26T11:53:02Z</time>
      </trkpt>
      <trkpt lat="43.62073" lon="6.60306">
        <ele>745.8</ele>
        <time>2023-11-26T11:53:03Z</time>
      </trkpt>
      <trkpt lat="43.62073" lon="6.60307">
        <ele>745.6</ele>
        <time>2023-11-26T11:53:04Z</time>
      </trkpt>
      <trkpt lat="43.62074" lon="6.60309">
        <ele>745.5</ele>
        <time>2023-11-26T11:53:05Z</time>
      </trkpt>
      <trkpt lat="43.62073" lon="6.6031">
        <ele>745.3</ele>
        <time>2023-11-26T11:53:06Z</time>
      </trkpt>
      <trkpt lat="43.62073" lon="6.60311">
        <ele>745.2</ele>
        <time>2023-11-26T11:53:07Z</time>
      </trkpt>
      <trkpt lat="43.62073" lon="6.60312">
        <ele>745.1</ele>
        <time>2023-11-26T11:53:08Z</time>
      </trkpt>
      <trkpt lat="43.62073" lon="6.60314">
        <ele>745</ele>
        <time>2023-11-26T11:53:09Z</time>
      </trkpt>
      <trkpt lat="43.62073" lon="6.60315">
        <ele>744.9</ele>
        <time>2023-11-26T11:53:10Z</time>
      </trkpt>
      <trkpt lat="43.62073" lon="6.60317">
        <ele>744.8</ele>
        <time>2023-11-26T11:53:11Z</time>
      </trkpt>
      <trkpt lat="43.62073" lon="6.60319">
        <ele>744.7</ele>
        <time>2023-11-26T11:53:12Z</time>
      </trkpt>
      <trkpt lat="43.62074" lon="6.6032">
        <ele>744.6</ele>
        <time>2023-11-26T11:53:13Z</time>
      </trkpt>
      <trkpt lat="43.62074" lon="6.60322">
        <ele>744.5</ele>
        <time>2023-11-26T11:53:14Z</time>
      </trkpt>
      <trkpt lat="43.62074" lon="6.60323">
        <ele>744.4</ele>
        <time>2023-11-26T11:53:15Z</time>
      </trkpt>
      <trkpt lat="43.62074" lon="6.60325">
        <ele>744.3</ele>
        <time>2023-11-26T11:53:16Z</time>
      </trkpt>
      <trkpt lat="43.62074" lon="6.60326">
        <ele>744.2</ele>
        <time>2023-11-26T11:53:17Z</time>
      </trkpt>
      <trkpt lat="43.62074" lon="6.60328">
        <ele>744</ele>
        <time>2023-11-26T11:53:18Z</time>
      </trkpt>
      <trkpt lat="43.62074" lon="6.60329">
        <ele>743.9</ele>
        <time>2023-11-26T11:53:19Z</time>
      </trkpt>
      <trkpt lat="43.62074" lon="6.60331">
        <ele>743.8</ele>
        <time>2023-11-26T11:53:20Z</time>
      </trkpt>
      <trkpt lat="43.62074" lon="6.60332">
        <ele>743.6</ele>
        <time>2023-11-26T11:53:21Z</time>
      </trkpt>
      <trkpt lat="43.62073" lon="6.60334">
        <ele>743.5</ele>
        <time>2023-11-26T11:53:22Z</time>
      </trkpt>
      <trkpt lat="43.62073" lon="6.60336">
        <ele>743.3</ele>
        <time>2023-11-26T11:53:23Z</time>
      </trkpt>
      <trkpt lat="43.62074" lon="6.60338">
        <ele>743.1</ele>
        <time>2023-11-26T11:53:24Z</time>
      </trkpt>
      <trkpt lat="43.62073" lon="6.6034">
        <ele>743</ele>
        <time>2023-11-26T11:53:25Z</time>
      </trkpt>
      <trkpt lat="43.62073" lon="6.60342">
        <ele>742.9</ele>
        <time>2023-11-26T11:53:26Z</time>
      </trkpt>
      <trkpt lat="43.62073" lon="6.60344">
        <ele>742.8</ele>
        <time>2023-11-26T11:53:27Z</time>
      </trkpt>
      <trkpt lat="43.62073" lon="6.60345">
        <ele>742.7</ele>
        <time>2023-11-26T11:53:28Z</time>
      </trkpt>
      <trkpt lat="43.62073" lon="6.60347">
        <ele>742.6</ele>
        <time>2023-11-26T11:53:29Z</time>
      </trkpt>
      <trkpt lat="43.62073" lon="6.60349">
        <ele>742.6</ele>
        <time>2023-11-26T11:53:30Z</time>
      </trkpt>
      <trkpt lat="43.62073" lon="6.60351">
        <ele>742.5</ele>
        <time>2023-11-26T11:53:31Z</time>
      </trkpt>
      <trkpt lat="43.62073" lon="6.60352">
        <ele>742.4</ele>
        <time>2023-11-26T11:53:32Z</time>
      </trkpt>
      <trkpt lat="43.62072" lon="6.60354">
        <ele>742.3</ele>
        <time>2023-11-26T11:53:33Z</time>
      </trkpt>
      <trkpt lat="43.62072" lon="6.60356">
        <ele>742.2</ele>
        <time>2023-11-26T11:53:34Z</time>
      </trkpt>
      <trkpt lat="43.62072" lon="6.60358">
        <ele>742.1</ele>
        <time>2023-11-26T11:53:35Z</time>
      </trkpt>
      <trkpt lat="43.62072" lon="6.6036">
        <ele>742</ele>
        <time>2023-11-26T11:53:36Z</time>
      </trkpt>
      <trkpt lat="43.62072" lon="6.60361">
        <ele>742</ele>
        <time>2023-11-26T11:53:37Z</time>
      </trkpt>
      <trkpt lat="43.62072" lon="6.60363">
        <ele>741.9</ele>
        <time>2023-11-26T11:53:38Z</time>
      </trkpt>
      <trkpt lat="43.62072" lon="6.60365">
        <ele>741.7</ele>
        <time>2023-11-26T11:53:39Z</time>
      </trkpt>
      <trkpt lat="43.62073" lon="6.60366">
        <ele>741.6</ele>
        <time>2023-11-26T11:53:40Z</time>
      </trkpt>
      <trkpt lat="43.62073" lon="6.60368">
        <ele>741.4</ele>
        <time>2023-11-26T11:53:41Z</time>
      </trkpt>
      <trkpt lat="43.62072" lon="6.60369">
        <ele>741.2</ele>
        <time>2023-11-26T11:53:42Z</time>
      </trkpt>
      <trkpt lat="43.62072" lon="6.6037">
        <ele>741.1</ele>
        <time>2023-11-26T11:53:43Z</time>
      </trkpt>
      <trkpt lat="43.62072" lon="6.60372">
        <ele>740.9</ele>
        <time>2023-11-26T11:53:44Z</time>
      </trkpt>
      <trkpt lat="43.62073" lon="6.60373">
        <ele>740.8</ele>
        <time>2023-11-26T11:53:45Z</time>
      </trkpt>
      <trkpt lat="43.62073" lon="6.60375">
        <ele>740.7</ele>
        <time>2023-11-26T11:53:46Z</time>
      </trkpt>
      <trkpt lat="43.62073" lon="6.60377">
        <ele>740.5</ele>
        <time>2023-11-26T11:53:47Z</time>
      </trkpt>
      <trkpt lat="43.62073" lon="6.60378">
        <ele>740.4</ele>
        <time>2023-11-26T11:53:48Z</time>
      </trkpt>
      <trkpt lat="43.62073" lon="6.6038">
        <ele>740.3</ele>
        <time>2023-11-26T11:53:49Z</time>
      </trkpt>
      <trkpt lat="43.62074" lon="6.60382">
        <ele>740.1</ele>
        <time>2023-11-26T11:53:50Z</time>
      </trkpt>
      <trkpt lat="43.62074" lon="6.60383">
        <ele>740</ele>
        <time>2023-11-26T11:53:51Z</time>
      </trkpt>
      <trkpt lat="43.62074" lon="6.60385">
        <ele>739.8</ele>
        <time>2023-11-26T11:53:52Z</time>
      </trkpt>
      <trkpt lat="43.62074" lon="6.60387">
        <ele>739.7</ele>
        <time>2023-11-26T11:53:53Z</time>
      </trkpt>
      <trkpt lat="43.62074" lon="6.60389">
        <ele>739.6</ele>
        <time>2023-11-26T11:53:54Z</time>
      </trkpt>
      <trkpt lat="43.62074" lon="6.6039">
        <ele>739.5</ele>
        <time>2023-11-26T11:53:55Z</time>
      </trkpt>
      <trkpt lat="43.62074" lon="6.60392">
        <ele>739.4</ele>
        <time>2023-11-26T11:53:56Z</time>
      </trkpt>
      <trkpt lat="43.62074" lon="6.60394">
        <ele>739.3</ele>
        <time>2023-11-26T11:53:57Z</time>
      </trkpt>
      <trkpt lat="43.62074" lon="6.60396">
        <ele>739.2</ele>
        <time>2023-11-26T11:53:58Z</time>
      </trkpt>
      <trkpt lat="43.62074" lon="6.60398">
        <ele>739.1</ele>
        <time>2023-11-26T11:53:59Z</time>
      </trkpt>
      <trkpt lat="43.62074" lon="6.60399">
        <ele>739</ele>
        <time>2023-11-26T11:54:00Z</time>
      </trkpt>
      <trkpt lat="43.62074" lon="6.60401">
        <ele>738.9</ele>
        <time>2023-11-26T11:54:01Z</time>
      </trkpt>
      <trkpt lat="43.62075" lon="6.60403">
        <ele>738.7</ele>
        <time>2023-11-26T11:54:02Z</time>
      </trkpt>
      <trkpt lat="43.62075" lon="6.60405">
        <ele>738.6</ele>
        <time>2023-11-26T11:54:03Z</time>
      </trkpt>
      <trkpt lat="43.62075" lon="6.60407">
        <ele>738.4</ele>
        <time>2023-11-26T11:54:04Z</time>
      </trkpt>
      <trkpt lat="43.62075" lon="6.60409">
        <ele>738.3</ele>
        <time>2023-11-26T11:54:05Z</time>
      </trkpt>
      <trkpt lat="43.62075" lon="6.6041">
        <ele>738.1</ele>
        <time>2023-11-26T11:54:06Z</time>
      </trkpt>
      <trkpt lat="43.62075" lon="6.60412">
        <ele>738</ele>
        <time>2023-11-26T11:54:07Z</time>
      </trkpt>
      <trkpt lat="43.62076" lon="6.60414">
        <ele>738</ele>
        <time>2023-11-26T11:54:08Z</time>
      </trkpt>
      <trkpt lat="43.62076" lon="6.60415">
        <ele>737.9</ele>
        <time>2023-11-26T11:54:09Z</time>
      </trkpt>
      <trkpt lat="43.62076" lon="6.60417">
        <ele>737.8</ele>
        <time>2023-11-26T11:54:10Z</time>
      </trkpt>
      <trkpt lat="43.62076" lon="6.60419">
        <ele>737.8</ele>
        <time>2023-11-26T11:54:11Z</time>
      </trkpt>
      <trkpt lat="43.62077" lon="6.6042">
        <ele>737.6</ele>
        <time>2023-11-26T11:54:12Z</time>
      </trkpt>
      <trkpt lat="43.62077" lon="6.60422">
        <ele>737.5</ele>
        <time>2023-11-26T11:54:13Z</time>
      </trkpt>
      <trkpt lat="43.62077" lon="6.60424">
        <ele>737.4</ele>
        <time>2023-11-26T11:54:14Z</time>
      </trkpt>
      <trkpt lat="43.62077" lon="6.60425">
        <ele>737.3</ele>
        <time>2023-11-26T11:54:15Z</time>
      </trkpt>
      <trkpt lat="43.62078" lon="6.60427">
        <ele>737.1</ele>
        <time>2023-11-26T11:54:16Z</time>
      </trkpt>
      <trkpt lat="43.62078" lon="6.60429">
        <ele>736.9</ele>
        <time>2023-11-26T11:54:17Z</time>
      </trkpt>
      <trkpt lat="43.62078" lon="6.6043">
        <ele>736.8</ele>
        <time>2023-11-26T11:54:18Z</time>
      </trkpt>
      <trkpt lat="43.62079" lon="6.60432">
        <ele>736.7</ele>
        <time>2023-11-26T11:54:19Z</time>
      </trkpt>
      <trkpt lat="43.62079" lon="6.60434">
        <ele>736.5</ele>
        <time>2023-11-26T11:54:20Z</time>
      </trkpt>
      <trkpt lat="43.62079" lon="6.60435">
        <ele>736.4</ele>
        <time>2023-11-26T11:54:21Z</time>
      </trkpt>
      <trkpt lat="43.6208" lon="6.60437">
        <ele>736.2</ele>
        <time>2023-11-26T11:54:22Z</time>
      </trkpt>
      <trkpt lat="43.6208" lon="6.60438">
        <ele>736.2</ele>
        <time>2023-11-26T11:54:23Z</time>
      </trkpt>
      <trkpt lat="43.62081" lon="6.6044">
        <ele>736</ele>
        <time>2023-11-26T11:54:24Z</time>
      </trkpt>
      <trkpt lat="43.62081" lon="6.60441">
        <ele>735.8</ele>
        <time>2023-11-26T11:54:25Z</time>
      </trkpt>
      <trkpt lat="43.62081" lon="6.60443">
        <ele>735.7</ele>
        <time>2023-11-26T11:54:26Z</time>
      </trkpt>
      <trkpt lat="43.62081" lon="6.60445">
        <ele>735.6</ele>
        <time>2023-11-26T11:54:27Z</time>
      </trkpt>
      <trkpt lat="43.62081" lon="6.60447">
        <ele>735.5</ele>
        <time>2023-11-26T11:54:28Z</time>
      </trkpt>
      <trkpt lat="43.62081" lon="6.60448">
        <ele>735.4</ele>
        <time>2023-11-26T11:54:29Z</time>
      </trkpt>
      <trkpt lat="43.62082" lon="6.6045">
        <ele>735.5</ele>
        <time>2023-11-26T11:54:30Z</time>
      </trkpt>
      <trkpt lat="43.62082" lon="6.60451">
        <ele>735.3</ele>
        <time>2023-11-26T11:54:31Z</time>
      </trkpt>
      <trkpt lat="43.62082" lon="6.60453">
        <ele>735.2</ele>
        <time>2023-11-26T11:54:32Z</time>
      </trkpt>
      <trkpt lat="43.62083" lon="6.60455">
        <ele>735.1</ele>
        <time>2023-11-26T11:54:33Z</time>
      </trkpt>
      <trkpt lat="43.62083" lon="6.60456">
        <ele>735</ele>
        <time>2023-11-26T11:54:34Z</time>
      </trkpt>
      <trkpt lat="43.62083" lon="6.60458">
        <ele>734.9</ele>
        <time>2023-11-26T11:54:35Z</time>
      </trkpt>
      <trkpt lat="43.62083" lon="6.60459">
        <ele>734.8</ele>
        <time>2023-11-26T11:54:36Z</time>
      </trkpt>
      <trkpt lat="43.62083" lon="6.60461">
        <ele>734.6</ele>
        <time>2023-11-26T11:54:37Z</time>
      </trkpt>
      <trkpt lat="43.62083" lon="6.60462">
        <ele>734.5</ele>
        <time>2023-11-26T11:54:38Z</time>
      </trkpt>
      <trkpt lat="43.62084" lon="6.60463">
        <ele>734.3</ele>
        <time>2023-11-26T11:54:39Z</time>
      </trkpt>
      <trkpt lat="43.62084" lon="6.60464">
        <ele>734.2</ele>
        <time>2023-11-26T11:54:40Z</time>
      </trkpt>
      <trkpt lat="43.62085" lon="6.60466">
        <ele>734.1</ele>
        <time>2023-11-26T11:54:41Z</time>
      </trkpt>
      <trkpt lat="43.62085" lon="6.60468">
        <ele>733.8</ele>
        <time>2023-11-26T11:54:42Z</time>
      </trkpt>
      <trkpt lat="43.62085" lon="6.60469">
        <ele>733.7</ele>
        <time>2023-11-26T11:54:43Z</time>
      </trkpt>
      <trkpt lat="43.62085" lon="6.60471">
        <ele>733.6</ele>
        <time>2023-11-26T11:54:44Z</time>
      </trkpt>
      <trkpt lat="43.62086" lon="6.60472">
        <ele>733.6</ele>
        <time>2023-11-26T11:54:45Z</time>
      </trkpt>
      <trkpt lat="43.62086" lon="6.60474">
        <ele>733.5</ele>
        <time>2023-11-26T11:54:46Z</time>
      </trkpt>
      <trkpt lat="43.62086" lon="6.60475">
        <ele>733.4</ele>
        <time>2023-11-26T11:54:47Z</time>
      </trkpt>
      <trkpt lat="43.62086" lon="6.60477">
        <ele>733.4</ele>
        <time>2023-11-26T11:54:48Z</time>
      </trkpt>
      <trkpt lat="43.62086" lon="6.60479">
        <ele>733.2</ele>
        <time>2023-11-26T11:54:49Z</time>
      </trkpt>
      <trkpt lat="43.62086" lon="6.60481">
        <ele>733</ele>
        <time>2023-11-26T11:54:50Z</time>
      </trkpt>
      <trkpt lat="43.62086" lon="6.60482">
        <ele>732.9</ele>
        <time>2023-11-26T11:54:51Z</time>
      </trkpt>
      <trkpt lat="43.62086" lon="6.60484">
        <ele>732.8</ele>
        <time>2023-11-26T11:54:52Z</time>
      </trkpt>
      <trkpt lat="43.62086" lon="6.60486">
        <ele>732.5</ele>
        <time>2023-11-26T11:54:53Z</time>
      </trkpt>
      <trkpt lat="43.62086" lon="6.60488">
        <ele>732.3</ele>
        <time>2023-11-26T11:54:54Z</time>
      </trkpt>
      <trkpt lat="43.62085" lon="6.6049">
        <ele>732.1</ele>
        <time>2023-11-26T11:54:55Z</time>
      </trkpt>
      <trkpt lat="43.62085" lon="6.60492">
        <ele>731.9</ele>
        <time>2023-11-26T11:54:56Z</time>
      </trkpt>
      <trkpt lat="43.62085" lon="6.60494">
        <ele>731.8</ele>
        <time>2023-11-26T11:54:57Z</time>
      </trkpt>
      <trkpt lat="43.62084" lon="6.60495">
        <ele>731.7</ele>
        <time>2023-11-26T11:54:58Z</time>
      </trkpt>
      <trkpt lat="43.62084" lon="6.60497">
        <ele>731.6</ele>
        <time>2023-11-26T11:54:59Z</time>
      </trkpt>
      <trkpt lat="43.62084" lon="6.60498">
        <ele>731.5</ele>
        <time>2023-11-26T11:55:00Z</time>
      </trkpt>
      <trkpt lat="43.62084" lon="6.60499">
        <ele>731.4</ele>
        <time>2023-11-26T11:55:01Z</time>
      </trkpt>
      <trkpt lat="43.62083" lon="6.605">
        <ele>731.2</ele>
        <time>2023-11-26T11:55:02Z</time>
      </trkpt>
      <trkpt lat="43.62083" lon="6.60502">
        <ele>731.1</ele>
        <time>2023-11-26T11:55:03Z</time>
      </trkpt>
      <trkpt lat="43.62083" lon="6.60503">
        <ele>730.9</ele>
        <time>2023-11-26T11:55:04Z</time>
      </trkpt>
      <trkpt lat="43.62082" lon="6.60504">
        <ele>730.8</ele>
        <time>2023-11-26T11:55:05Z</time>
      </trkpt>
      <trkpt lat="43.62082" lon="6.60505">
        <ele>730.6</ele>
        <time>2023-11-26T11:55:06Z</time>
      </trkpt>
      <trkpt lat="43.62081" lon="6.60505">
        <ele>730.3</ele>
        <time>2023-11-26T11:55:07Z</time>
      </trkpt>
      <trkpt lat="43.62081" lon="6.60506">
        <ele>730.1</ele>
        <time>2023-11-26T11:55:08Z</time>
      </trkpt>
      <trkpt lat="43.6208" lon="6.60506">
        <ele>729.9</ele>
        <time>2023-11-26T11:55:09Z</time>
      </trkpt>
      <trkpt lat="43.62079" lon="6.60506">
        <ele>729.6</ele>
        <time>2023-11-26T11:55:10Z</time>
      </trkpt>
      <trkpt lat="43.62078" lon="6.60506">
        <ele>729.4</ele>
        <time>2023-11-26T11:55:11Z</time>
      </trkpt>
      <trkpt lat="43.62078" lon="6.60505">
        <ele>729.2</ele>
        <time>2023-11-26T11:55:12Z</time>
      </trkpt>
      <trkpt lat="43.62079" lon="6.60504">
        <ele>729.1</ele>
        <time>2023-11-26T11:55:13Z</time>
      </trkpt>
      <trkpt lat="43.62079" lon="6.60503">
        <ele>729</ele>
        <time>2023-11-26T11:55:14Z</time>
      </trkpt>
      <trkpt lat="43.62079" lon="6.60501">
        <ele>728.9</ele>
        <time>2023-11-26T11:55:15Z</time>
      </trkpt>
      <trkpt lat="43.62079" lon="6.605">
        <ele>728.9</ele>
        <time>2023-11-26T11:55:16Z</time>
      </trkpt>
      <trkpt lat="43.62079" lon="6.60499">
        <ele>728.8</ele>
        <time>2023-11-26T11:55:17Z</time>
      </trkpt>
      <trkpt lat="43.62078" lon="6.60498">
        <ele>728.7</ele>
        <time>2023-11-26T11:55:18Z</time>
      </trkpt>
      <trkpt lat="43.62078" lon="6.60497">
        <ele>728.7</ele>
        <time>2023-11-26T11:55:19Z</time>
      </trkpt>
      <trkpt lat="43.62078" lon="6.60495">
        <ele>728.7</ele>
        <time>2023-11-26T11:55:20Z</time>
      </trkpt>
      <trkpt lat="43.62078" lon="6.60494">
        <ele>728.7</ele>
        <time>2023-11-26T11:55:21Z</time>
      </trkpt>
      <trkpt lat="43.62078" lon="6.60493">
        <ele>728.7</ele>
        <time>2023-11-26T11:55:22Z</time>
      </trkpt>
      <trkpt lat="43.62078" lon="6.60492">
        <ele>728.6</ele>
        <time>2023-11-26T11:55:23Z</time>
      </trkpt>
      <trkpt lat="43.62078" lon="6.60491">
        <ele>728.6</ele>
        <time>2023-11-26T11:55:24Z</time>
      </trkpt>
      <trkpt lat="43.62078" lon="6.60489">
        <ele>728.5</ele>
        <time>2023-11-26T11:55:25Z</time>
      </trkpt>
      <trkpt lat="43.62079" lon="6.60487">
        <ele>728.5</ele>
        <time>2023-11-26T11:55:26Z</time>
      </trkpt>
      <trkpt lat="43.62079" lon="6.60486">
        <ele>728.6</ele>
        <time>2023-11-26T11:55:27Z</time>
      </trkpt>
      <trkpt lat="43.62079" lon="6.60484">
        <ele>728.5</ele>
        <time>2023-11-26T11:55:28Z</time>
      </trkpt>
      <trkpt lat="43.62079" lon="6.60482">
        <ele>728.3</ele>
        <time>2023-11-26T11:55:29Z</time>
      </trkpt>
      <trkpt lat="43.62079" lon="6.60481">
        <ele>728.3</ele>
        <time>2023-11-26T11:55:30Z</time>
      </trkpt>
      <trkpt lat="43.62079" lon="6.60479">
        <ele>728.2</ele>
        <time>2023-11-26T11:55:31Z</time>
      </trkpt>
      <trkpt lat="43.62079" lon="6.60478">
        <ele>728.2</ele>
        <time>2023-11-26T11:55:32Z</time>
      </trkpt>
      <trkpt lat="43.62079" lon="6.60477">
        <ele>728.1</ele>
        <time>2023-11-26T11:55:33Z</time>
      </trkpt>
      <trkpt lat="43.62079" lon="6.60475">
        <ele>728.1</ele>
        <time>2023-11-26T11:55:34Z</time>
      </trkpt>
      <trkpt lat="43.62078" lon="6.60474">
        <ele>728.1</ele>
        <time>2023-11-26T11:55:35Z</time>
      </trkpt>
      <trkpt lat="43.62078" lon="6.60472">
        <ele>728.1</ele>
        <time>2023-11-26T11:55:36Z</time>
      </trkpt>
      <trkpt lat="43.62078" lon="6.60471">
        <ele>728.1</ele>
        <time>2023-11-26T11:55:37Z</time>
      </trkpt>
      <trkpt lat="43.62077" lon="6.6047">
        <ele>728.1</ele>
        <time>2023-11-26T11:55:38Z</time>
      </trkpt>
      <trkpt lat="43.62077" lon="6.60468">
        <ele>728.1</ele>
        <time>2023-11-26T11:55:39Z</time>
      </trkpt>
      <trkpt lat="43.62076" lon="6.60467">
        <ele>728.2</ele>
        <time>2023-11-26T11:55:40Z</time>
      </trkpt>
      <trkpt lat="43.62076" lon="6.60466">
        <ele>728.3</ele>
        <time>2023-11-26T11:55:41Z</time>
      </trkpt>
      <trkpt lat="43.62075" lon="6.60465">
        <ele>728.3</ele>
        <time>2023-11-26T11:55:42Z</time>
      </trkpt>
      <trkpt lat="43.62075" lon="6.60463">
        <ele>728.4</ele>
        <time>2023-11-26T11:55:43Z</time>
      </trkpt>
      <trkpt lat="43.62075" lon="6.60461">
        <ele>728.3</ele>
        <time>2023-11-26T11:55:44Z</time>
      </trkpt>
      <trkpt lat="43.62075" lon="6.6046">
        <ele>728.3</ele>
        <time>2023-11-26T11:55:45Z</time>
      </trkpt>
      <trkpt lat="43.62075" lon="6.60458">
        <ele>728.4</ele>
        <time>2023-11-26T11:55:46Z</time>
      </trkpt>
      <trkpt lat="43.62074" lon="6.60456">
        <ele>728.5</ele>
        <time>2023-11-26T11:55:47Z</time>
      </trkpt>
      <trkpt lat="43.62073" lon="6.60455">
        <ele>728.5</ele>
        <time>2023-11-26T11:55:48Z</time>
      </trkpt>
      <trkpt lat="43.62073" lon="6.60454">
        <ele>728.5</ele>
        <time>2023-11-26T11:55:49Z</time>
      </trkpt>
      <trkpt lat="43.62073" lon="6.60453">
        <ele>728.5</ele>
        <time>2023-11-26T11:55:50Z</time>
      </trkpt>
      <trkpt lat="43.62073" lon="6.60451">
        <ele>728.6</ele>
        <time>2023-11-26T11:55:51Z</time>
      </trkpt>
      <trkpt lat="43.62072" lon="6.6045">
        <ele>728.6</ele>
        <time>2023-11-26T11:55:52Z</time>
      </trkpt>
      <trkpt lat="43.62072" lon="6.60449">
        <ele>728.6</ele>
        <time>2023-11-26T11:55:53Z</time>
      </trkpt>
      <trkpt lat="43.62071" lon="6.60447">
        <ele>728.5</ele>
        <time>2023-11-26T11:55:54Z</time>
      </trkpt>
      <trkpt lat="43.6207" lon="6.60446">
        <ele>728.6</ele>
        <time>2023-11-26T11:55:55Z</time>
      </trkpt>
      <trkpt lat="43.62069" lon="6.60445">
        <ele>728.6</ele>
        <time>2023-11-26T11:55:56Z</time>
      </trkpt>
      <trkpt lat="43.62068" lon="6.60443">
        <ele>728.6</ele>
        <time>2023-11-26T11:55:57Z</time>
      </trkpt>
      <trkpt lat="43.62068" lon="6.60442">
        <ele>728.7</ele>
        <time>2023-11-26T11:55:58Z</time>
      </trkpt>
      <trkpt lat="43.62068" lon="6.60441">
        <ele>728.8</ele>
        <time>2023-11-26T11:55:59Z</time>
      </trkpt>
      <trkpt lat="43.62067" lon="6.60439">
        <ele>728.9</ele>
        <time>2023-11-26T11:56:00Z</time>
      </trkpt>
      <trkpt lat="43.62066" lon="6.60438">
        <ele>728.8</ele>
        <time>2023-11-26T11:56:01Z</time>
      </trkpt>
      <trkpt lat="43.62066" lon="6.60437">
        <ele>728.8</ele>
        <time>2023-11-26T11:56:02Z</time>
      </trkpt>
      <trkpt lat="43.62065" lon="6.60436">
        <ele>728.8</ele>
        <time>2023-11-26T11:56:03Z</time>
      </trkpt>
      <trkpt lat="43.62064" lon="6.60434">
        <ele>728.7</ele>
        <time>2023-11-26T11:56:04Z</time>
      </trkpt>
      <trkpt lat="43.62063" lon="6.60433">
        <ele>728.7</ele>
        <time>2023-11-26T11:56:05Z</time>
      </trkpt>
      <trkpt lat="43.62063" lon="6.60431">
        <ele>728.7</ele>
        <time>2023-11-26T11:56:06Z</time>
      </trkpt>
      <trkpt lat="43.62062" lon="6.6043">
        <ele>728.6</ele>
        <time>2023-11-26T11:56:07Z</time>
      </trkpt>
      <trkpt lat="43.62062" lon="6.60428">
        <ele>728.5</ele>
        <time>2023-11-26T11:56:08Z</time>
      </trkpt>
      <trkpt lat="43.62061" lon="6.60427">
        <ele>728.5</ele>
        <time>2023-11-26T11:56:09Z</time>
      </trkpt>
      <trkpt lat="43.62061" lon="6.60425">
        <ele>728.4</ele>
        <time>2023-11-26T11:56:10Z</time>
      </trkpt>
      <trkpt lat="43.6206" lon="6.60424">
        <ele>728.3</ele>
        <time>2023-11-26T11:56:11Z</time>
      </trkpt>
      <trkpt lat="43.6206" lon="6.60422">
        <ele>728.3</ele>
        <time>2023-11-26T11:56:12Z</time>
      </trkpt>
      <trkpt lat="43.62059" lon="6.6042">
        <ele>728.3</ele>
        <time>2023-11-26T11:56:13Z</time>
      </trkpt>
      <trkpt lat="43.62058" lon="6.60419">
        <ele>728.3</ele>
        <time>2023-11-26T11:56:14Z</time>
      </trkpt>
      <trkpt lat="43.62058" lon="6.60417">
        <ele>728.2</ele>
        <time>2023-11-26T11:56:15Z</time>
      </trkpt>
      <trkpt lat="43.62058" lon="6.60415">
        <ele>728.1</ele>
        <time>2023-11-26T11:56:16Z</time>
      </trkpt>
      <trkpt lat="43.62058" lon="6.60414">
        <ele>728</ele>
        <time>2023-11-26T11:56:17Z</time>
      </trkpt>
      <trkpt lat="43.62057" lon="6.60412">
        <ele>727.9</ele>
        <time>2023-11-26T11:56:18Z</time>
      </trkpt>
      <trkpt lat="43.62057" lon="6.60411">
        <ele>727.8</ele>
        <time>2023-11-26T11:56:19Z</time>
      </trkpt>
      <trkpt lat="43.62056" lon="6.60409">
        <ele>727.8</ele>
        <time>2023-11-26T11:56:20Z</time>
      </trkpt>
      <trkpt lat="43.62055" lon="6.60407">
        <ele>727.7</ele>
        <time>2023-11-26T11:56:21Z</time>
      </trkpt>
      <trkpt lat="43.62055" lon="6.60406">
        <ele>727.6</ele>
        <time>2023-11-26T11:56:22Z</time>
      </trkpt>
      <trkpt lat="43.62055" lon="6.60404">
        <ele>727.5</ele>
        <time>2023-11-26T11:56:23Z</time>
      </trkpt>
      <trkpt lat="43.62054" lon="6.60402">
        <ele>727.5</ele>
        <time>2023-11-26T11:56:24Z</time>
      </trkpt>
      <trkpt lat="43.62054" lon="6.60401">
        <ele>727.5</ele>
        <time>2023-11-26T11:56:25Z</time>
      </trkpt>
      <trkpt lat="43.62054" lon="6.60399">
        <ele>727.6</ele>
        <time>2023-11-26T11:56:26Z</time>
      </trkpt>
      <trkpt lat="43.62054" lon="6.60397">
        <ele>727.6</ele>
        <time>2023-11-26T11:56:27Z</time>
      </trkpt>
      <trkpt lat="43.62054" lon="6.60396">
        <ele>727.6</ele>
        <time>2023-11-26T11:56:28Z</time>
      </trkpt>
      <trkpt lat="43.62054" lon="6.60394">
        <ele>727.4</ele>
        <time>2023-11-26T11:56:29Z</time>
      </trkpt>
      <trkpt lat="43.62054" lon="6.60392">
        <ele>727.3</ele>
        <time>2023-11-26T11:56:30Z</time>
      </trkpt>
      <trkpt lat="43.62054" lon="6.60391">
        <ele>727.2</ele>
        <time>2023-11-26T11:56:31Z</time>
      </trkpt>
      <trkpt lat="43.62054" lon="6.60389">
        <ele>727.1</ele>
        <time>2023-11-26T11:56:32Z</time>
      </trkpt>
      <trkpt lat="43.62053" lon="6.60387">
        <ele>727</ele>
        <time>2023-11-26T11:56:33Z</time>
      </trkpt>
      <trkpt lat="43.62053" lon="6.60385">
        <ele>727</ele>
        <time>2023-11-26T11:56:34Z</time>
      </trkpt>
      <trkpt lat="43.62053" lon="6.60384">
        <ele>726.9</ele>
        <time>2023-11-26T11:56:35Z</time>
      </trkpt>
      <trkpt lat="43.62052" lon="6.60382">
        <ele>726.8</ele>
        <time>2023-11-26T11:56:36Z</time>
      </trkpt>
      <trkpt lat="43.62052" lon="6.6038">
        <ele>726.9</ele>
        <time>2023-11-26T11:56:37Z</time>
      </trkpt>
      <trkpt lat="43.62052" lon="6.60378">
        <ele>726.9</ele>
        <time>2023-11-26T11:56:38Z</time>
      </trkpt>
      <trkpt lat="43.62051" lon="6.60377">
        <ele>726.8</ele>
        <time>2023-11-26T11:56:39Z</time>
      </trkpt>
      <trkpt lat="43.62051" lon="6.60375">
        <ele>726.8</ele>
        <time>2023-11-26T11:56:40Z</time>
      </trkpt>
      <trkpt lat="43.62051" lon="6.60373">
        <ele>726.7</ele>
        <time>2023-11-26T11:56:41Z</time>
      </trkpt>
      <trkpt lat="43.6205" lon="6.60372">
        <ele>726.6</ele>
        <time>2023-11-26T11:56:42Z</time>
      </trkpt>
      <trkpt lat="43.6205" lon="6.6037">
        <ele>726.5</ele>
        <time>2023-11-26T11:56:43Z</time>
      </trkpt>
      <trkpt lat="43.62049" lon="6.60369">
        <ele>726.5</ele>
        <time>2023-11-26T11:56:44Z</time>
      </trkpt>
      <trkpt lat="43.62049" lon="6.60367">
        <ele>726.5</ele>
        <time>2023-11-26T11:56:45Z</time>
      </trkpt>
      <trkpt lat="43.62049" lon="6.60366">
        <ele>726.5</ele>
        <time>2023-11-26T11:56:46Z</time>
      </trkpt>
      <trkpt lat="43.62049" lon="6.60364">
        <ele>726.4</ele>
        <time>2023-11-26T11:56:47Z</time>
      </trkpt>
      <trkpt lat="43.62049" lon="6.60362">
        <ele>726.3</ele>
        <time>2023-11-26T11:56:48Z</time>
      </trkpt>
      <trkpt lat="43.62049" lon="6.6036">
        <ele>726.3</ele>
        <time>2023-11-26T11:56:49Z</time>
      </trkpt>
      <trkpt lat="43.62048" lon="6.60359">
        <ele>726.3</ele>
        <time>2023-11-26T11:56:50Z</time>
      </trkpt>
      <trkpt lat="43.62048" lon="6.60357">
        <ele>726.5</ele>
        <time>2023-11-26T11:56:51Z</time>
      </trkpt>
      <trkpt lat="43.62047" lon="6.60356">
        <ele>726.4</ele>
        <time>2023-11-26T11:56:52Z</time>
      </trkpt>
      <trkpt lat="43.62047" lon="6.60354">
        <ele>726.4</ele>
        <time>2023-11-26T11:56:53Z</time>
      </trkpt>
      <trkpt lat="43.62046" lon="6.60352">
        <ele>726.4</ele>
        <time>2023-11-26T11:56:54Z</time>
      </trkpt>
      <trkpt lat="43.62046" lon="6.60351">
        <ele>726.5</ele>
        <time>2023-11-26T11:56:55Z</time>
      </trkpt>
      <trkpt lat="43.62046" lon="6.60349">
        <ele>726.5</ele>
        <time>2023-11-26T11:56:56Z</time>
      </trkpt>
      <trkpt lat="43.62045" lon="6.60347">
        <ele>726.5</ele>
        <time>2023-11-26T11:56:57Z</time>
      </trkpt>
      <trkpt lat="43.62045" lon="6.60346">
        <ele>726.5</ele>
        <time>2023-11-26T11:56:58Z</time>
      </trkpt>
      <trkpt lat="43.62045" lon="6.60344">
        <ele>726.6</ele>
        <time>2023-11-26T11:56:59Z</time>
      </trkpt>
      <trkpt lat="43.62044" lon="6.60342">
        <ele>726.7</ele>
        <time>2023-11-26T11:57:00Z</time>
      </trkpt>
      <trkpt lat="43.62044" lon="6.60341">
        <ele>726.7</ele>
        <time>2023-11-26T11:57:01Z</time>
      </trkpt>
      <trkpt lat="43.62044" lon="6.60339">
        <ele>726.8</ele>
        <time>2023-11-26T11:57:02Z</time>
      </trkpt>
      <trkpt lat="43.62044" lon="6.60337">
        <ele>726.8</ele>
        <time>2023-11-26T11:57:03Z</time>
      </trkpt>
      <trkpt lat="43.62045" lon="6.60335">
        <ele>726.9</ele>
        <time>2023-11-26T11:57:04Z</time>
      </trkpt>
      <trkpt lat="43.62046" lon="6.60333">
        <ele>726.9</ele>
        <time>2023-11-26T11:57:05Z</time>
      </trkpt>
      <trkpt lat="43.62045" lon="6.60332">
        <ele>726.9</ele>
        <time>2023-11-26T11:57:06Z</time>
      </trkpt>
      <trkpt lat="43.62045" lon="6.6033">
        <ele>726.9</ele>
        <time>2023-11-26T11:57:07Z</time>
      </trkpt>
      <trkpt lat="43.62044" lon="6.60329">
        <ele>726.9</ele>
        <time>2023-11-26T11:57:08Z</time>
      </trkpt>
      <trkpt lat="43.62044" lon="6.60327">
        <ele>726.8</ele>
        <time>2023-11-26T11:57:09Z</time>
      </trkpt>
      <trkpt lat="43.62043" lon="6.60326">
        <ele>726.7</ele>
        <time>2023-11-26T11:57:10Z</time>
      </trkpt>
      <trkpt lat="43.62042" lon="6.60324">
        <ele>726.7</ele>
        <time>2023-11-26T11:57:11Z</time>
      </trkpt>
      <trkpt lat="43.62042" lon="6.60323">
        <ele>726.6</ele>
        <time>2023-11-26T11:57:12Z</time>
      </trkpt>
      <trkpt lat="43.62041" lon="6.60322">
        <ele>726.6</ele>
        <time>2023-11-26T11:57:13Z</time>
      </trkpt>
      <trkpt lat="43.62041" lon="6.6032">
        <ele>726.6</ele>
        <time>2023-11-26T11:57:14Z</time>
      </trkpt>
      <trkpt lat="43.6204" lon="6.60319">
        <ele>726.6</ele>
        <time>2023-11-26T11:57:15Z</time>
      </trkpt>
      <trkpt lat="43.6204" lon="6.60317">
        <ele>726.6</ele>
        <time>2023-11-26T11:57:16Z</time>
      </trkpt>
      <trkpt lat="43.62041" lon="6.60315">
        <ele>726.5</ele>
        <time>2023-11-26T11:57:17Z</time>
      </trkpt>
      <trkpt lat="43.62041" lon="6.60314">
        <ele>726.4</ele>
        <time>2023-11-26T11:57:18Z</time>
      </trkpt>
      <trkpt lat="43.62041" lon="6.60312">
        <ele>726.4</ele>
        <time>2023-11-26T11:57:19Z</time>
      </trkpt>
      <trkpt lat="43.6204" lon="6.6031">
        <ele>726.4</ele>
        <time>2023-11-26T11:57:20Z</time>
      </trkpt>
      <trkpt lat="43.6204" lon="6.60309">
        <ele>726.3</ele>
        <time>2023-11-26T11:57:21Z</time>
      </trkpt>
      <trkpt lat="43.6204" lon="6.60307">
        <ele>726.3</ele>
        <time>2023-11-26T11:57:22Z</time>
      </trkpt>
      <trkpt lat="43.6204" lon="6.60305">
        <ele>726.2</ele>
        <time>2023-11-26T11:57:23Z</time>
      </trkpt>
      <trkpt lat="43.62039" lon="6.60303">
        <ele>726.3</ele>
        <time>2023-11-26T11:57:24Z</time>
      </trkpt>
      <trkpt lat="43.62039" lon="6.60301">
        <ele>726.4</ele>
        <time>2023-11-26T11:57:25Z</time>
      </trkpt>
      <trkpt lat="43.62039" lon="6.60299">
        <ele>726.4</ele>
        <time>2023-11-26T11:57:26Z</time>
      </trkpt>
      <trkpt lat="43.62039" lon="6.60298">
        <ele>726.4</ele>
        <time>2023-11-26T11:57:27Z</time>
      </trkpt>
      <trkpt lat="43.62038" lon="6.60297">
        <ele>726.4</ele>
        <time>2023-11-26T11:57:28Z</time>
      </trkpt>
      <trkpt lat="43.62038" lon="6.60295">
        <ele>726.4</ele>
        <time>2023-11-26T11:57:29Z</time>
      </trkpt>
      <trkpt lat="43.62037" lon="6.60294">
        <ele>726.4</ele>
        <time>2023-11-26T11:57:30Z</time>
      </trkpt>
      <trkpt lat="43.62037" lon="6.60292">
        <ele>726.4</ele>
        <time>2023-11-26T11:57:31Z</time>
      </trkpt>
      <trkpt lat="43.62036" lon="6.60291">
        <ele>726.4</ele>
        <time>2023-11-26T11:57:32Z</time>
      </trkpt>
      <trkpt lat="43.62036" lon="6.6029">
        <ele>726.4</ele>
        <time>2023-11-26T11:57:33Z</time>
      </trkpt>
      <trkpt lat="43.62035" lon="6.60288">
        <ele>726.4</ele>
        <time>2023-11-26T11:57:34Z</time>
      </trkpt>
      <trkpt lat="43.62034" lon="6.60287">
        <ele>726.4</ele>
        <time>2023-11-26T11:57:35Z</time>
      </trkpt>
      <trkpt lat="43.62034" lon="6.60285">
        <ele>726.4</ele>
        <time>2023-11-26T11:57:36Z</time>
      </trkpt>
      <trkpt lat="43.62034" lon="6.60284">
        <ele>726.4</ele>
        <time>2023-11-26T11:57:37Z</time>
      </trkpt>
      <trkpt lat="43.62034" lon="6.60283">
        <ele>726.3</ele>
        <time>2023-11-26T11:57:38Z</time>
      </trkpt>
      <trkpt lat="43.62034" lon="6.60281">
        <ele>726.3</ele>
        <time>2023-11-26T11:57:39Z</time>
      </trkpt>
      <trkpt lat="43.62033" lon="6.60279">
        <ele>726.2</ele>
        <time>2023-11-26T11:57:40Z</time>
      </trkpt>
      <trkpt lat="43.62032" lon="6.60278">
        <ele>726.2</ele>
        <time>2023-11-26T11:57:41Z</time>
      </trkpt>
      <trkpt lat="43.62032" lon="6.60276">
        <ele>726.1</ele>
        <time>2023-11-26T11:57:42Z</time>
      </trkpt>
      <trkpt lat="43.62032" lon="6.60275">
        <ele>726.1</ele>
        <time>2023-11-26T11:57:43Z</time>
      </trkpt>
      <trkpt lat="43.62031" lon="6.60274">
        <ele>726.1</ele>
        <time>2023-11-26T11:57:44Z</time>
      </trkpt>
      <trkpt lat="43.62031" lon="6.60273">
        <ele>726.1</ele>
        <time>2023-11-26T11:57:45Z</time>
      </trkpt>
      <trkpt lat="43.6203" lon="6.60271">
        <ele>726.1</ele>
        <time>2023-11-26T11:57:46Z</time>
      </trkpt>
      <trkpt lat="43.62029" lon="6.6027">
        <ele>726.1</ele>
        <time>2023-11-26T11:57:47Z</time>
      </trkpt>
      <trkpt lat="43.62029" lon="6.60269">
        <ele>726</ele>
        <time>2023-11-26T11:57:48Z</time>
      </trkpt>
      <trkpt lat="43.62028" lon="6.60267">
        <ele>726</ele>
        <time>2023-11-26T11:57:49Z</time>
      </trkpt>
      <trkpt lat="43.62028" lon="6.60266">
        <ele>726.1</ele>
        <time>2023-11-26T11:57:50Z</time>
      </trkpt>
      <trkpt lat="43.62027" lon="6.60265">
        <ele>726</ele>
        <time>2023-11-26T11:57:51Z</time>
      </trkpt>
      <trkpt lat="43.62027" lon="6.60263">
        <ele>726</ele>
        <time>2023-11-26T11:57:52Z</time>
      </trkpt>
      <trkpt lat="43.62027" lon="6.60261">
        <ele>726</ele>
        <time>2023-11-26T11:57:53Z</time>
      </trkpt>
      <trkpt lat="43.62026" lon="6.6026">
        <ele>726</ele>
        <time>2023-11-26T11:57:54Z</time>
      </trkpt>
      <trkpt lat="43.62025" lon="6.60258">
        <ele>726</ele>
        <time>2023-11-26T11:57:55Z</time>
      </trkpt>
      <trkpt lat="43.62025" lon="6.60256">
        <ele>725.9</ele>
        <time>2023-11-26T11:57:56Z</time>
      </trkpt>
      <trkpt lat="43.62024" lon="6.60255">
        <ele>725.9</ele>
        <time>2023-11-26T11:57:57Z</time>
      </trkpt>
      <trkpt lat="43.62023" lon="6.60253">
        <ele>725.9</ele>
        <time>2023-11-26T11:57:58Z</time>
      </trkpt>
      <trkpt lat="43.62023" lon="6.60252">
        <ele>725.7</ele>
        <time>2023-11-26T11:57:59Z</time>
      </trkpt>
      <trkpt lat="43.62022" lon="6.60251">
        <ele>725.7</ele>
        <time>2023-11-26T11:58:00Z</time>
      </trkpt>
      <trkpt lat="43.62022" lon="6.60249">
        <ele>725.7</ele>
        <time>2023-11-26T11:58:01Z</time>
      </trkpt>
      <trkpt lat="43.62021" lon="6.60248">
        <ele>725.7</ele>
        <time>2023-11-26T11:58:02Z</time>
      </trkpt>
      <trkpt lat="43.6202" lon="6.60246">
        <ele>725.8</ele>
        <time>2023-11-26T11:58:03Z</time>
      </trkpt>
      <trkpt lat="43.6202" lon="6.60244">
        <ele>725.8</ele>
        <time>2023-11-26T11:58:04Z</time>
      </trkpt>
      <trkpt lat="43.62019" lon="6.60243">
        <ele>725.8</ele>
        <time>2023-11-26T11:58:05Z</time>
      </trkpt>
      <trkpt lat="43.62018" lon="6.60241">
        <ele>725.8</ele>
        <time>2023-11-26T11:58:06Z</time>
      </trkpt>
      <trkpt lat="43.62017" lon="6.60239">
        <ele>725.8</ele>
        <time>2023-11-26T11:58:07Z</time>
      </trkpt>
      <trkpt lat="43.62017" lon="6.60238">
        <ele>725.8</ele>
        <time>2023-11-26T11:58:08Z</time>
      </trkpt>
      <trkpt lat="43.62017" lon="6.60236">
        <ele>725.8</ele>
        <time>2023-11-26T11:58:09Z</time>
      </trkpt>
      <trkpt lat="43.62017" lon="6.60234">
        <ele>725.8</ele>
        <time>2023-11-26T11:58:10Z</time>
      </trkpt>
      <trkpt lat="43.62016" lon="6.60232">
        <ele>725.8</ele>
        <time>2023-11-26T11:58:11Z</time>
      </trkpt>
      <trkpt lat="43.62016" lon="6.60231">
        <ele>725.7</ele>
        <time>2023-11-26T11:58:12Z</time>
      </trkpt>
      <trkpt lat="43.62015" lon="6.60229">
        <ele>725.7</ele>
        <time>2023-11-26T11:58:13Z</time>
      </trkpt>
      <trkpt lat="43.62015" lon="6.60228">
        <ele>725.7</ele>
        <time>2023-11-26T11:58:14Z</time>
      </trkpt>
      <trkpt lat="43.62014" lon="6.60227">
        <ele>725.7</ele>
        <time>2023-11-26T11:58:15Z</time>
      </trkpt>
      <trkpt lat="43.62013" lon="6.60225">
        <ele>725.7</ele>
        <time>2023-11-26T11:58:16Z</time>
      </trkpt>
      <trkpt lat="43.62013" lon="6.60223">
        <ele>725.7</ele>
        <time>2023-11-26T11:58:17Z</time>
      </trkpt>
      <trkpt lat="43.62013" lon="6.60222">
        <ele>725.7</ele>
        <time>2023-11-26T11:58:18Z</time>
      </trkpt>
      <trkpt lat="43.62012" lon="6.6022">
        <ele>725.9</ele>
        <time>2023-11-26T11:58:19Z</time>
      </trkpt>
      <trkpt lat="43.62012" lon="6.60218">
        <ele>726</ele>
        <time>2023-11-26T11:58:20Z</time>
      </trkpt>
      <trkpt lat="43.62011" lon="6.60217">
        <ele>726</ele>
        <time>2023-11-26T11:58:21Z</time>
      </trkpt>
      <trkpt lat="43.62011" lon="6.60215">
        <ele>726.1</ele>
        <time>2023-11-26T11:58:22Z</time>
      </trkpt>
      <trkpt lat="43.62011" lon="6.60213">
        <ele>726</ele>
        <time>2023-11-26T11:58:23Z</time>
      </trkpt>
      <trkpt lat="43.6201" lon="6.60211">
        <ele>726</ele>
        <time>2023-11-26T11:58:24Z</time>
      </trkpt>
      <trkpt lat="43.6201" lon="6.60209">
        <ele>725.9</ele>
        <time>2023-11-26T11:58:25Z</time>
      </trkpt>
      <trkpt lat="43.6201" lon="6.60207">
        <ele>725.9</ele>
        <time>2023-11-26T11:58:26Z</time>
      </trkpt>
      <trkpt lat="43.6201" lon="6.60205">
        <ele>725.9</ele>
        <time>2023-11-26T11:58:27Z</time>
      </trkpt>
      <trkpt lat="43.6201" lon="6.60204">
        <ele>726</ele>
        <time>2023-11-26T11:58:28Z</time>
      </trkpt>
      <trkpt lat="43.62009" lon="6.60202">
        <ele>726.1</ele>
        <time>2023-11-26T11:58:29Z</time>
      </trkpt>
      <trkpt lat="43.62009" lon="6.60201">
        <ele>726.1</ele>
        <time>2023-11-26T11:58:30Z</time>
      </trkpt>
      <trkpt lat="43.62008" lon="6.60199">
        <ele>726.1</ele>
        <time>2023-11-26T11:58:31Z</time>
      </trkpt>
      <trkpt lat="43.62008" lon="6.60198">
        <ele>726.2</ele>
        <time>2023-11-26T11:58:32Z</time>
      </trkpt>
      <trkpt lat="43.62007" lon="6.60196">
        <ele>726.2</ele>
        <time>2023-11-26T11:58:33Z</time>
      </trkpt>
      <trkpt lat="43.62007" lon="6.60195">
        <ele>726.1</ele>
        <time>2023-11-26T11:58:34Z</time>
      </trkpt>
      <trkpt lat="43.62007" lon="6.60193">
        <ele>726.1</ele>
        <time>2023-11-26T11:58:35Z</time>
      </trkpt>
      <trkpt lat="43.62006" lon="6.60192">
        <ele>726.1</ele>
        <time>2023-11-26T11:58:36Z</time>
      </trkpt>
      <trkpt lat="43.62006" lon="6.6019">
        <ele>726</ele>
        <time>2023-11-26T11:58:37Z</time>
      </trkpt>
      <trkpt lat="43.62006" lon="6.60189">
        <ele>725.9</ele>
        <time>2023-11-26T11:58:38Z</time>
      </trkpt>
      <trkpt lat="43.62005" lon="6.60187">
        <ele>725.8</ele>
        <time>2023-11-26T11:58:39Z</time>
      </trkpt>
      <trkpt lat="43.62005" lon="6.60185">
        <ele>725.8</ele>
        <time>2023-11-26T11:58:40Z</time>
      </trkpt>
      <trkpt lat="43.62004" lon="6.60184">
        <ele>725.7</ele>
        <time>2023-11-26T11:58:41Z</time>
      </trkpt>
      <trkpt lat="43.62004" lon="6.60183">
        <ele>725.5</ele>
        <time>2023-11-26T11:58:42Z</time>
      </trkpt>
      <trkpt lat="43.62004" lon="6.60182">
        <ele>725.5</ele>
        <time>2023-11-26T11:58:43Z</time>
      </trkpt>
      <trkpt lat="43.62003" lon="6.60181">
        <ele>725.4</ele>
        <time>2023-11-26T11:58:44Z</time>
      </trkpt>
      <trkpt lat="43.62003" lon="6.6018">
        <ele>725.4</ele>
        <time>2023-11-26T11:58:45Z</time>
      </trkpt>
      <trkpt lat="43.62002" lon="6.60179">
        <ele>725.4</ele>
        <time>2023-11-26T11:58:46Z</time>
      </trkpt>
      <trkpt lat="43.62001" lon="6.60177">
        <ele>725.4</ele>
        <time>2023-11-26T11:58:47Z</time>
      </trkpt>
      <trkpt lat="43.62" lon="6.60176">
        <ele>725.5</ele>
        <time>2023-11-26T11:58:48Z</time>
      </trkpt>
      <trkpt lat="43.62" lon="6.60175">
        <ele>725.5</ele>
        <time>2023-11-26T11:58:49Z</time>
      </trkpt>
      <trkpt lat="43.61999" lon="6.60174">
        <ele>725.5</ele>
        <time>2023-11-26T11:58:50Z</time>
      </trkpt>
      <trkpt lat="43.61999" lon="6.60172">
        <ele>725.4</ele>
        <time>2023-11-26T11:58:51Z</time>
      </trkpt>
      <trkpt lat="43.61999" lon="6.6017">
        <ele>725.3</ele>
        <time>2023-11-26T11:58:52Z</time>
      </trkpt>
      <trkpt lat="43.61999" lon="6.60168">
        <ele>725.2</ele>
        <time>2023-11-26T11:58:53Z</time>
      </trkpt>
      <trkpt lat="43.61998" lon="6.60167">
        <ele>725.1</ele>
        <time>2023-11-26T11:58:54Z</time>
      </trkpt>
      <trkpt lat="43.61997" lon="6.60165">
        <ele>725.1</ele>
        <time>2023-11-26T11:58:55Z</time>
      </trkpt>
      <trkpt lat="43.61997" lon="6.60164">
        <ele>725.1</ele>
        <time>2023-11-26T11:58:56Z</time>
      </trkpt>
      <trkpt lat="43.61996" lon="6.60163">
        <ele>725</ele>
        <time>2023-11-26T11:58:57Z</time>
      </trkpt>
      <trkpt lat="43.61996" lon="6.60162">
        <ele>724.9</ele>
        <time>2023-11-26T11:58:58Z</time>
      </trkpt>
      <trkpt lat="43.61994" lon="6.60161">
        <ele>725</ele>
        <time>2023-11-26T11:58:59Z</time>
      </trkpt>
      <trkpt lat="43.61994" lon="6.60159">
        <ele>725</ele>
        <time>2023-11-26T11:59:00Z</time>
      </trkpt>
      <trkpt lat="43.61993" lon="6.60158">
        <ele>724.8</ele>
        <time>2023-11-26T11:59:01Z</time>
      </trkpt>
      <trkpt lat="43.61992" lon="6.60158">
        <ele>724.7</ele>
        <time>2023-11-26T11:59:02Z</time>
      </trkpt>
      <trkpt lat="43.61991" lon="6.60156">
        <ele>724.6</ele>
        <time>2023-11-26T11:59:03Z</time>
      </trkpt>
      <trkpt lat="43.61989" lon="6.60155">
        <ele>724.6</ele>
        <time>2023-11-26T11:59:04Z</time>
      </trkpt>
      <trkpt lat="43.61988" lon="6.60153">
        <ele>724.6</ele>
        <time>2023-11-26T11:59:05Z</time>
      </trkpt>
      <trkpt lat="43.61986" lon="6.60152">
        <ele>724.7</ele>
        <time>2023-11-26T11:59:06Z</time>
      </trkpt>
      <trkpt lat="43.61986" lon="6.6015">
        <ele>724.7</ele>
        <time>2023-11-26T11:59:07Z</time>
      </trkpt>
      <trkpt lat="43.61985" lon="6.60148">
        <ele>724.8</ele>
        <time>2023-11-26T11:59:08Z</time>
      </trkpt>
      <trkpt lat="43.61984" lon="6.60147">
        <ele>724.9</ele>
        <time>2023-11-26T11:59:09Z</time>
      </trkpt>
      <trkpt lat="43.61984" lon="6.60145">
        <ele>724.9</ele>
        <time>2023-11-26T11:59:10Z</time>
      </trkpt>
      <trkpt lat="43.61984" lon="6.60144">
        <ele>724.9</ele>
        <time>2023-11-26T11:59:11Z</time>
      </trkpt>
      <trkpt lat="43.61983" lon="6.60143">
        <ele>724.8</ele>
        <time>2023-11-26T11:59:12Z</time>
      </trkpt>
      <trkpt lat="43.61982" lon="6.6014">
        <ele>724.7</ele>
        <time>2023-11-26T11:59:13Z</time>
      </trkpt>
      <trkpt lat="43.61982" lon="6.60139">
        <ele>724.7</ele>
        <time>2023-11-26T11:59:14Z</time>
      </trkpt>
      <trkpt lat="43.61981" lon="6.60137">
        <ele>724.7</ele>
        <time>2023-11-26T11:59:15Z</time>
      </trkpt>
      <trkpt lat="43.6198" lon="6.60136">
        <ele>724.7</ele>
        <time>2023-11-26T11:59:16Z</time>
      </trkpt>
      <trkpt lat="43.6198" lon="6.60134">
        <ele>724.8</ele>
        <time>2023-11-26T11:59:17Z</time>
      </trkpt>
      <trkpt lat="43.61978" lon="6.60133">
        <ele>724.6</ele>
        <time>2023-11-26T11:59:18Z</time>
      </trkpt>
      <trkpt lat="43.61977" lon="6.60131">
        <ele>724.5</ele>
        <time>2023-11-26T11:59:19Z</time>
      </trkpt>
      <trkpt lat="43.61976" lon="6.60129">
        <ele>724.6</ele>
        <time>2023-11-26T11:59:20Z</time>
      </trkpt>
      <trkpt lat="43.61975" lon="6.60128">
        <ele>724.6</ele>
        <time>2023-11-26T11:59:21Z</time>
      </trkpt>
      <trkpt lat="43.61974" lon="6.60126">
        <ele>724.6</ele>
        <time>2023-11-26T11:59:22Z</time>
      </trkpt>
      <trkpt lat="43.61973" lon="6.60125">
        <ele>724.7</ele>
        <time>2023-11-26T11:59:23Z</time>
      </trkpt>
      <trkpt lat="43.61972" lon="6.60124">
        <ele>724.8</ele>
        <time>2023-11-26T11:59:24Z</time>
      </trkpt>
      <trkpt lat="43.61971" lon="6.60123">
        <ele>724.8</ele>
        <time>2023-11-26T11:59:25Z</time>
      </trkpt>
      <trkpt lat="43.6197" lon="6.60121">
        <ele>724.9</ele>
        <time>2023-11-26T11:59:26Z</time>
      </trkpt>
      <trkpt lat="43.6197" lon="6.6012">
        <ele>724.9</ele>
        <time>2023-11-26T11:59:27Z</time>
      </trkpt>
      <trkpt lat="43.61969" lon="6.60118">
        <ele>724.9</ele>
        <time>2023-11-26T11:59:28Z</time>
      </trkpt>
      <trkpt lat="43.61967" lon="6.60117">
        <ele>724.9</ele>
        <time>2023-11-26T11:59:29Z</time>
      </trkpt>
      <trkpt lat="43.61966" lon="6.60116">
        <ele>725</ele>
        <time>2023-11-26T11:59:30Z</time>
      </trkpt>
      <trkpt lat="43.61965" lon="6.60115">
        <ele>725.1</ele>
        <time>2023-11-26T11:59:31Z</time>
      </trkpt>
      <trkpt lat="43.61964" lon="6.60113">
        <ele>725.2</ele>
        <time>2023-11-26T11:59:32Z</time>
      </trkpt>
      <trkpt lat="43.61963" lon="6.60112">
        <ele>725.3</ele>
        <time>2023-11-26T11:59:33Z</time>
      </trkpt>
      <trkpt lat="43.61962" lon="6.60111">
        <ele>725.3</ele>
        <time>2023-11-26T11:59:34Z</time>
      </trkpt>
      <trkpt lat="43.61961" lon="6.60109">
        <ele>725.3</ele>
        <time>2023-11-26T11:59:35Z</time>
      </trkpt>
      <trkpt lat="43.6196" lon="6.60108">
        <ele>725.3</ele>
        <time>2023-11-26T11:59:36Z</time>
      </trkpt>
      <trkpt lat="43.61959" lon="6.60108">
        <ele>725.3</ele>
        <time>2023-11-26T11:59:37Z</time>
      </trkpt>
      <trkpt lat="43.61958" lon="6.60107">
        <ele>725.4</ele>
        <time>2023-11-26T11:59:38Z</time>
      </trkpt>
      <trkpt lat="43.61957" lon="6.60106">
        <ele>725.4</ele>
        <time>2023-11-26T11:59:39Z</time>
      </trkpt>
      <trkpt lat="43.61956" lon="6.60104">
        <ele>725.4</ele>
        <time>2023-11-26T11:59:40Z</time>
      </trkpt>
      <trkpt lat="43.61956" lon="6.60103">
        <ele>725.4</ele>
        <time>2023-11-26T11:59:41Z</time>
      </trkpt>
      <trkpt lat="43.61955" lon="6.60102">
        <ele>725.5</ele>
        <time>2023-11-26T11:59:42Z</time>
      </trkpt>
      <trkpt lat="43.61953" lon="6.60101">
        <ele>725.6</ele>
        <time>2023-11-26T11:59:43Z</time>
      </trkpt>
      <trkpt lat="43.61952" lon="6.601">
        <ele>725.7</ele>
        <time>2023-11-26T11:59:44Z</time>
      </trkpt>
      <trkpt lat="43.61951" lon="6.60099">
        <ele>725.8</ele>
        <time>2023-11-26T11:59:45Z</time>
      </trkpt>
      <trkpt lat="43.61951" lon="6.60098">
        <ele>725.9</ele>
        <time>2023-11-26T11:59:46Z</time>
      </trkpt>
      <trkpt lat="43.6195" lon="6.60097">
        <ele>726</ele>
        <time>2023-11-26T11:59:47Z</time>
      </trkpt>
      <trkpt lat="43.61949" lon="6.60096">
        <ele>726.1</ele>
        <time>2023-11-26T11:59:48Z</time>
      </trkpt>
      <trkpt lat="43.61948" lon="6.60095">
        <ele>726.2</ele>
        <time>2023-11-26T11:59:49Z</time>
      </trkpt>
      <trkpt lat="43.61947" lon="6.60095">
        <ele>726.3</ele>
        <time>2023-11-26T11:59:50Z</time>
      </trkpt>
      <trkpt lat="43.61945" lon="6.60093">
        <ele>726.5</ele>
        <time>2023-11-26T11:59:51Z</time>
      </trkpt>
      <trkpt lat="43.61944" lon="6.60092">
        <ele>726.7</ele>
        <time>2023-11-26T11:59:52Z</time>
      </trkpt>
      <trkpt lat="43.61943" lon="6.60092">
        <ele>726.7</ele>
        <time>2023-11-26T11:59:53Z</time>
      </trkpt>
      <trkpt lat="43.61943" lon="6.60091">
        <ele>726.9</ele>
        <time>2023-11-26T11:59:54Z</time>
      </trkpt>
      <trkpt lat="43.61941" lon="6.6009">
        <ele>726.9</ele>
        <time>2023-11-26T11:59:55Z</time>
      </trkpt>
      <trkpt lat="43.61941" lon="6.6009">
        <ele>727</ele>
        <time>2023-11-26T11:59:56Z</time>
      </trkpt>
      <trkpt lat="43.61941" lon="6.60089">
        <ele>727</ele>
        <time>2023-11-26T11:59:57Z</time>
      </trkpt>
      <trkpt lat="43.6194" lon="6.60087">
        <ele>727.1</ele>
        <time>2023-11-26T11:59:58Z</time>
      </trkpt>
      <trkpt lat="43.6194" lon="6.60086">
        <ele>727.1</ele>
        <time>2023-11-26T11:59:59Z</time>
      </trkpt>
      <trkpt lat="43.61939" lon="6.60085">
        <ele>727.1</ele>
        <time>2023-11-26T12:00:00Z</time>
      </trkpt>
      <trkpt lat="43.61938" lon="6.60084">
        <ele>727.1</ele>
        <time>2023-11-26T12:00:01Z</time>
      </trkpt>
      <trkpt lat="43.61937" lon="6.60083">
        <ele>727.3</ele>
        <time>2023-11-26T12:00:02Z</time>
      </trkpt>
      <trkpt lat="43.61936" lon="6.60082">
        <ele>727.4</ele>
        <time>2023-11-26T12:00:03Z</time>
      </trkpt>
      <trkpt lat="43.61935" lon="6.60081">
        <ele>727.5</ele>
        <time>2023-11-26T12:00:04Z</time>
      </trkpt>
      <trkpt lat="43.61934" lon="6.6008">
        <ele>727.6</ele>
        <time>2023-11-26T12:00:05Z</time>
      </trkpt>
      <trkpt lat="43.61933" lon="6.60078">
        <ele>727.7</ele>
        <time>2023-11-26T12:00:06Z</time>
      </trkpt>
      <trkpt lat="43.61933" lon="6.60078">
        <ele>727.9</ele>
        <time>2023-11-26T12:00:07Z</time>
      </trkpt>
      <trkpt lat="43.61932" lon="6.60077">
        <ele>728</ele>
        <time>2023-11-26T12:00:08Z</time>
      </trkpt>
      <trkpt lat="43.61931" lon="6.60076">
        <ele>728</ele>
        <time>2023-11-26T12:00:09Z</time>
      </trkpt>
      <trkpt lat="43.6193" lon="6.60075">
        <ele>728.1</ele>
        <time>2023-11-26T12:00:10Z</time>
      </trkpt>
      <trkpt lat="43.61929" lon="6.60073">
        <ele>728.1</ele>
        <time>2023-11-26T12:00:11Z</time>
      </trkpt>
      <trkpt lat="43.61929" lon="6.60071">
        <ele>728.2</ele>
        <time>2023-11-26T12:00:12Z</time>
      </trkpt>
      <trkpt lat="43.61928" lon="6.6007">
        <ele>728.2</ele>
        <time>2023-11-26T12:00:13Z</time>
      </trkpt>
      <trkpt lat="43.61927" lon="6.60069">
        <ele>728.3</ele>
        <time>2023-11-26T12:00:14Z</time>
      </trkpt>
      <trkpt lat="43.61927" lon="6.60067">
        <ele>728.3</ele>
        <time>2023-11-26T12:00:15Z</time>
      </trkpt>
      <trkpt lat="43.61926" lon="6.60066">
        <ele>728.4</ele>
        <time>2023-11-26T12:00:16Z</time>
      </trkpt>
      <trkpt lat="43.61926" lon="6.60065">
        <ele>728.5</ele>
        <time>2023-11-26T12:00:17Z</time>
      </trkpt>
      <trkpt lat="43.61925" lon="6.60064">
        <ele>728.5</ele>
        <time>2023-11-26T12:00:18Z</time>
      </trkpt>
      <trkpt lat="43.61924" lon="6.60062">
        <ele>728.6</ele>
        <time>2023-11-26T12:00:19Z</time>
      </trkpt>
      <trkpt lat="43.61922" lon="6.60061">
        <ele>728.7</ele>
        <time>2023-11-26T12:00:20Z</time>
      </trkpt>
      <trkpt lat="43.61921" lon="6.6006">
        <ele>728.8</ele>
        <time>2023-11-26T12:00:21Z</time>
      </trkpt>
      <trkpt lat="43.6192" lon="6.60059">
        <ele>728.9</ele>
        <time>2023-11-26T12:00:22Z</time>
      </trkpt>
      <trkpt lat="43.61919" lon="6.60057">
        <ele>729</ele>
        <time>2023-11-26T12:00:23Z</time>
      </trkpt>
      <trkpt lat="43.61919" lon="6.60056">
        <ele>728.9</ele>
        <time>2023-11-26T12:00:24Z</time>
      </trkpt>
      <trkpt lat="43.61918" lon="6.60054">
        <ele>729</ele>
        <time>2023-11-26T12:00:25Z</time>
      </trkpt>
      <trkpt lat="43.61917" lon="6.60053">
        <ele>729</ele>
        <time>2023-11-26T12:00:26Z</time>
      </trkpt>
      <trkpt lat="43.61916" lon="6.60052">
        <ele>729.1</ele>
        <time>2023-11-26T12:00:27Z</time>
      </trkpt>
      <trkpt lat="43.61916" lon="6.6005">
        <ele>729.1</ele>
        <time>2023-11-26T12:00:28Z</time>
      </trkpt>
      <trkpt lat="43.61915" lon="6.60049">
        <ele>729.1</ele>
        <time>2023-11-26T12:00:29Z</time>
      </trkpt>
      <trkpt lat="43.61915" lon="6.60047">
        <ele>729.1</ele>
        <time>2023-11-26T12:00:30Z</time>
      </trkpt>
      <trkpt lat="43.61914" lon="6.60046">
        <ele>729.1</ele>
        <time>2023-11-26T12:00:31Z</time>
      </trkpt>
      <trkpt lat="43.61914" lon="6.60045">
        <ele>729</ele>
        <time>2023-11-26T12:00:32Z</time>
      </trkpt>
      <trkpt lat="43.61913" lon="6.60044">
        <ele>729</ele>
        <time>2023-11-26T12:00:33Z</time>
      </trkpt>
      <trkpt lat="43.61912" lon="6.60043">
        <ele>729</ele>
        <time>2023-11-26T12:00:34Z</time>
      </trkpt>
      <trkpt lat="43.61912" lon="6.60041">
        <ele>729.1</ele>
        <time>2023-11-26T12:00:35Z</time>
      </trkpt>
      <trkpt lat="43.61911" lon="6.60039">
        <ele>729</ele>
        <time>2023-11-26T12:00:36Z</time>
      </trkpt>
      <trkpt lat="43.6191" lon="6.60038">
        <ele>729</ele>
        <time>2023-11-26T12:00:37Z</time>
      </trkpt>
      <trkpt lat="43.61909" lon="6.60036">
        <ele>729</ele>
        <time>2023-11-26T12:00:38Z</time>
      </trkpt>
      <trkpt lat="43.61909" lon="6.60035">
        <ele>729.1</ele>
        <time>2023-11-26T12:00:39Z</time>
      </trkpt>
      <trkpt lat="43.61908" lon="6.60034">
        <ele>729.1</ele>
        <time>2023-11-26T12:00:40Z</time>
      </trkpt>
      <trkpt lat="43.61907" lon="6.60032">
        <ele>729.1</ele>
        <time>2023-11-26T12:00:41Z</time>
      </trkpt>
      <trkpt lat="43.61907" lon="6.60031">
        <ele>729</ele>
        <time>2023-11-26T12:00:42Z</time>
      </trkpt>
      <trkpt lat="43.61907" lon="6.6003">
        <ele>728.9</ele>
        <time>2023-11-26T12:00:43Z</time>
      </trkpt>
      <trkpt lat="43.61906" lon="6.60028">
        <ele>728.9</ele>
        <time>2023-11-26T12:00:44Z</time>
      </trkpt>
      <trkpt lat="43.61906" lon="6.60027">
        <ele>728.8</ele>
        <time>2023-11-26T12:00:45Z</time>
      </trkpt>
      <trkpt lat="43.61905" lon="6.60025">
        <ele>728.8</ele>
        <time>2023-11-26T12:00:46Z</time>
      </trkpt>
      <trkpt lat="43.61905" lon="6.60025">
        <ele>728.7</ele>
        <time>2023-11-26T12:00:47Z</time>
      </trkpt>
      <trkpt lat="43.61904" lon="6.60024">
        <ele>728.6</ele>
        <time>2023-11-26T12:00:48Z</time>
      </trkpt>
      <trkpt lat="43.61904" lon="6.60023">
        <ele>728.6</ele>
        <time>2023-11-26T12:00:49Z</time>
      </trkpt>
      <trkpt lat="43.61903" lon="6.60022">
        <ele>728.5</ele>
        <time>2023-11-26T12:00:50Z</time>
      </trkpt>
      <trkpt lat="43.61903" lon="6.60021">
        <ele>728.6</ele>
        <time>2023-11-26T12:00:51Z</time>
      </trkpt>
      <trkpt lat="43.61902" lon="6.60019">
        <ele>728.5</ele>
        <time>2023-11-26T12:00:52Z</time>
      </trkpt>
      <trkpt lat="43.61902" lon="6.60018">
        <ele>728.5</ele>
        <time>2023-11-26T12:00:53Z</time>
      </trkpt>
      <trkpt lat="43.61902" lon="6.60017">
        <ele>728.4</ele>
        <time>2023-11-26T12:00:54Z</time>
      </trkpt>
      <trkpt lat="43.61901" lon="6.60015">
        <ele>728.3</ele>
        <time>2023-11-26T12:00:55Z</time>
      </trkpt>
      <trkpt lat="43.619" lon="6.60013">
        <ele>728.3</ele>
        <time>2023-11-26T12:00:56Z</time>
      </trkpt>
      <trkpt lat="43.61899" lon="6.60012">
        <ele>728.2</ele>
        <time>2023-11-26T12:00:57Z</time>
      </trkpt>
      <trkpt lat="43.61898" lon="6.60011">
        <ele>728.3</ele>
        <time>2023-11-26T12:00:58Z</time>
      </trkpt>
      <trkpt lat="43.61898" lon="6.6001">
        <ele>728.4</ele>
        <time>2023-11-26T12:00:59Z</time>
      </trkpt>
      <trkpt lat="43.61898" lon="6.60009">
        <ele>728.5</ele>
        <time>2023-11-26T12:01:00Z</time>
      </trkpt>
      <trkpt lat="43.61898" lon="6.60007">
        <ele>728.4</ele>
        <time>2023-11-26T12:01:01Z</time>
      </trkpt>
      <trkpt lat="43.61897" lon="6.60006">
        <ele>728.3</ele>
        <time>2023-11-26T12:01:02Z</time>
      </trkpt>
      <trkpt lat="43.61897" lon="6.60003">
        <ele>728.2</ele>
        <time>2023-11-26T12:01:03Z</time>
      </trkpt>
      <trkpt lat="43.61897" lon="6.60001">
        <ele>728.1</ele>
        <time>2023-11-26T12:01:04Z</time>
      </trkpt>
      <trkpt lat="43.61896" lon="6.59999">
        <ele>728</ele>
        <time>2023-11-26T12:01:05Z</time>
      </trkpt>
      <trkpt lat="43.61895" lon="6.59997">
        <ele>727.9</ele>
        <time>2023-11-26T12:01:06Z</time>
      </trkpt>
      <trkpt lat="43.61894" lon="6.59995">
        <ele>727.7</ele>
        <time>2023-11-26T12:01:07Z</time>
      </trkpt>
      <trkpt lat="43.61894" lon="6.59993">
        <ele>727.6</ele>
        <time>2023-11-26T12:01:08Z</time>
      </trkpt>
      <trkpt lat="43.61893" lon="6.59992">
        <ele>727.7</ele>
        <time>2023-11-26T12:01:09Z</time>
      </trkpt>
      <trkpt lat="43.61892" lon="6.5999">
        <ele>727.6</ele>
        <time>2023-11-26T12:01:10Z</time>
      </trkpt>
      <trkpt lat="43.61891" lon="6.59989">
        <ele>727.6</ele>
        <time>2023-11-26T12:01:11Z</time>
      </trkpt>
      <trkpt lat="43.61891" lon="6.59987">
        <ele>727.6</ele>
        <time>2023-11-26T12:01:12Z</time>
      </trkpt>
      <trkpt lat="43.61891" lon="6.59986">
        <ele>727.6</ele>
        <time>2023-11-26T12:01:13Z</time>
      </trkpt>
      <trkpt lat="43.6189" lon="6.59984">
        <ele>727.5</ele>
        <time>2023-11-26T12:01:14Z</time>
      </trkpt>
      <trkpt lat="43.6189" lon="6.59982">
        <ele>727.5</ele>
        <time>2023-11-26T12:01:15Z</time>
      </trkpt>
      <trkpt lat="43.61889" lon="6.5998">
        <ele>727.5</ele>
        <time>2023-11-26T12:01:16Z</time>
      </trkpt>
      <trkpt lat="43.61888" lon="6.59978">
        <ele>727.5</ele>
        <time>2023-11-26T12:01:17Z</time>
      </trkpt>
      <trkpt lat="43.61888" lon="6.59977">
        <ele>727.6</ele>
        <time>2023-11-26T12:01:18Z</time>
      </trkpt>
      <trkpt lat="43.61887" lon="6.59975">
        <ele>727.7</ele>
        <time>2023-11-26T12:01:19Z</time>
      </trkpt>
      <trkpt lat="43.61886" lon="6.59974">
        <ele>727.7</ele>
        <time>2023-11-26T12:01:20Z</time>
      </trkpt>
      <trkpt lat="43.61886" lon="6.59973">
        <ele>727.8</ele>
        <time>2023-11-26T12:01:21Z</time>
      </trkpt>
      <trkpt lat="43.61885" lon="6.59971">
        <ele>727.8</ele>
        <time>2023-11-26T12:01:22Z</time>
      </trkpt>
      <trkpt lat="43.61885" lon="6.5997">
        <ele>727.8</ele>
        <time>2023-11-26T12:01:23Z</time>
      </trkpt>
      <trkpt lat="43.61884" lon="6.59968">
        <ele>727.8</ele>
        <time>2023-11-26T12:01:24Z</time>
      </trkpt>
      <trkpt lat="43.61883" lon="6.59967">
        <ele>727.8</ele>
        <time>2023-11-26T12:01:25Z</time>
      </trkpt>
      <trkpt lat="43.61883" lon="6.59965">
        <ele>727.8</ele>
        <time>2023-11-26T12:01:26Z</time>
      </trkpt>
      <trkpt lat="43.61883" lon="6.59963">
        <ele>727.9</ele>
        <time>2023-11-26T12:01:27Z</time>
      </trkpt>
      <trkpt lat="43.61883" lon="6.59962">
        <ele>727.9</ele>
        <time>2023-11-26T12:01:28Z</time>
      </trkpt>
      <trkpt lat="43.61882" lon="6.5996">
        <ele>727.9</ele>
        <time>2023-11-26T12:01:29Z</time>
      </trkpt>
      <trkpt lat="43.61882" lon="6.59959">
        <ele>727.8</ele>
        <time>2023-11-26T12:01:30Z</time>
      </trkpt>
      <trkpt lat="43.61881" lon="6.59957">
        <ele>727.8</ele>
        <time>2023-11-26T12:01:31Z</time>
      </trkpt>
      <trkpt lat="43.61881" lon="6.59956">
        <ele>727.8</ele>
        <time>2023-11-26T12:01:32Z</time>
      </trkpt>
      <trkpt lat="43.6188" lon="6.59954">
        <ele>727.9</ele>
        <time>2023-11-26T12:01:33Z</time>
      </trkpt>
      <trkpt lat="43.61879" lon="6.59953">
        <ele>727.9</ele>
        <time>2023-11-26T12:01:34Z</time>
      </trkpt>
      <trkpt lat="43.61879" lon="6.59951">
        <ele>727.8</ele>
        <time>2023-11-26T12:01:35Z</time>
      </trkpt>
      <trkpt lat="43.61878" lon="6.59949">
        <ele>727.8</ele>
        <time>2023-11-26T12:01:36Z</time>
      </trkpt>
      <trkpt lat="43.61878" lon="6.59948">
        <ele>727.7</ele>
        <time>2023-11-26T12:01:37Z</time>
      </trkpt>
      <trkpt lat="43.61878" lon="6.59946">
        <ele>727.7</ele>
        <time>2023-11-26T12:01:38Z</time>
      </trkpt>
      <trkpt lat="43.61877" lon="6.59944">
        <ele>727.7</ele>
        <time>2023-11-26T12:01:39Z</time>
      </trkpt>
      <trkpt lat="43.61877" lon="6.59942">
        <ele>727.6</ele>
        <time>2023-11-26T12:01:40Z</time>
      </trkpt>
      <trkpt lat="43.61876" lon="6.59941">
        <ele>727.6</ele>
        <time>2023-11-26T12:01:41Z</time>
      </trkpt>
      <trkpt lat="43.61876" lon="6.59939">
        <ele>727.6</ele>
        <time>2023-11-26T12:01:42Z</time>
      </trkpt>
      <trkpt lat="43.61875" lon="6.59938">
        <ele>727.5</ele>
        <time>2023-11-26T12:01:43Z</time>
      </trkpt>
      <trkpt lat="43.61875" lon="6.59936">
        <ele>727.6</ele>
        <time>2023-11-26T12:01:44Z</time>
      </trkpt>
      <trkpt lat="43.61874" lon="6.59934">
        <ele>727.6</ele>
        <time>2023-11-26T12:01:45Z</time>
      </trkpt>
      <trkpt lat="43.61873" lon="6.59933">
        <ele>727.6</ele>
        <time>2023-11-26T12:01:46Z</time>
      </trkpt>
      <trkpt lat="43.61873" lon="6.59931">
        <ele>727.5</ele>
        <time>2023-11-26T12:01:47Z</time>
      </trkpt>
      <trkpt lat="43.61873" lon="6.59929">
        <ele>727.5</ele>
        <time>2023-11-26T12:01:48Z</time>
      </trkpt>
      <trkpt lat="43.61872" lon="6.59928">
        <ele>727.4</ele>
        <time>2023-11-26T12:01:49Z</time>
      </trkpt>
      <trkpt lat="43.61872" lon="6.59926">
        <ele>727.4</ele>
        <time>2023-11-26T12:01:50Z</time>
      </trkpt>
      <trkpt lat="43.61871" lon="6.59925">
        <ele>727.4</ele>
        <time>2023-11-26T12:01:51Z</time>
      </trkpt>
      <trkpt lat="43.61871" lon="6.59923">
        <ele>727.4</ele>
        <time>2023-11-26T12:01:52Z</time>
      </trkpt>
      <trkpt lat="43.6187" lon="6.59922">
        <ele>727.3</ele>
        <time>2023-11-26T12:01:53Z</time>
      </trkpt>
      <trkpt lat="43.6187" lon="6.5992">
        <ele>727.3</ele>
        <time>2023-11-26T12:01:54Z</time>
      </trkpt>
      <trkpt lat="43.61869" lon="6.59919">
        <ele>727.3</ele>
        <time>2023-11-26T12:01:55Z</time>
      </trkpt>
      <trkpt lat="43.61869" lon="6.59917">
        <ele>727.3</ele>
        <time>2023-11-26T12:01:56Z</time>
      </trkpt>
      <trkpt lat="43.61868" lon="6.59915">
        <ele>727.2</ele>
        <time>2023-11-26T12:01:57Z</time>
      </trkpt>
      <trkpt lat="43.61868" lon="6.59913">
        <ele>727.2</ele>
        <time>2023-11-26T12:01:58Z</time>
      </trkpt>
      <trkpt lat="43.61867" lon="6.59912">
        <ele>727.2</ele>
        <time>2023-11-26T12:01:59Z</time>
      </trkpt>
      <trkpt lat="43.61867" lon="6.5991">
        <ele>727.2</ele>
        <time>2023-11-26T12:02:00Z</time>
      </trkpt>
      <trkpt lat="43.61867" lon="6.59908">
        <ele>727.2</ele>
        <time>2023-11-26T12:02:01Z</time>
      </trkpt>
      <trkpt lat="43.61867" lon="6.59907">
        <ele>727.2</ele>
        <time>2023-11-26T12:02:02Z</time>
      </trkpt>
      <trkpt lat="43.61866" lon="6.59905">
        <ele>727.1</ele>
        <time>2023-11-26T12:02:03Z</time>
      </trkpt>
      <trkpt lat="43.61866" lon="6.59903">
        <ele>727.2</ele>
        <time>2023-11-26T12:02:04Z</time>
      </trkpt>
      <trkpt lat="43.61866" lon="6.59902">
        <ele>727.2</ele>
        <time>2023-11-26T12:02:05Z</time>
      </trkpt>
      <trkpt lat="43.61866" lon="6.599">
        <ele>727.1</ele>
        <time>2023-11-26T12:02:06Z</time>
      </trkpt>
      <trkpt lat="43.61866" lon="6.59898">
        <ele>727</ele>
        <time>2023-11-26T12:02:07Z</time>
      </trkpt>
      <trkpt lat="43.61865" lon="6.59896">
        <ele>726.9</ele>
        <time>2023-11-26T12:02:08Z</time>
      </trkpt>
      <trkpt lat="43.61865" lon="6.59894">
        <ele>726.9</ele>
        <time>2023-11-26T12:02:09Z</time>
      </trkpt>
      <trkpt lat="43.61865" lon="6.59892">
        <ele>726.8</ele>
        <time>2023-11-26T12:02:10Z</time>
      </trkpt>
      <trkpt lat="43.61865" lon="6.59891">
        <ele>726.8</ele>
        <time>2023-11-26T12:02:11Z</time>
      </trkpt>
      <trkpt lat="43.61865" lon="6.59889">
        <ele>726.7</ele>
        <time>2023-11-26T12:02:12Z</time>
      </trkpt>
      <trkpt lat="43.61864" lon="6.59888">
        <ele>726.7</ele>
        <time>2023-11-26T12:02:13Z</time>
      </trkpt>
      <trkpt lat="43.61864" lon="6.59886">
        <ele>726.7</ele>
        <time>2023-11-26T12:02:14Z</time>
      </trkpt>
      <trkpt lat="43.61864" lon="6.59884">
        <ele>726.8</ele>
        <time>2023-11-26T12:02:15Z</time>
      </trkpt>
      <trkpt lat="43.61863" lon="6.59883">
        <ele>726.7</ele>
        <time>2023-11-26T12:02:16Z</time>
      </trkpt>
      <trkpt lat="43.61863" lon="6.59881">
        <ele>726.7</ele>
        <time>2023-11-26T12:02:17Z</time>
      </trkpt>
      <trkpt lat="43.61863" lon="6.59879">
        <ele>726.8</ele>
        <time>2023-11-26T12:02:18Z</time>
      </trkpt>
      <trkpt lat="43.61863" lon="6.59878">
        <ele>726.9</ele>
        <time>2023-11-26T12:02:19Z</time>
      </trkpt>
      <trkpt lat="43.61863" lon="6.59876">
        <ele>726.9</ele>
        <time>2023-11-26T12:02:20Z</time>
      </trkpt>
      <trkpt lat="43.61863" lon="6.59874">
        <ele>727</ele>
        <time>2023-11-26T12:02:21Z</time>
      </trkpt>
      <trkpt lat="43.61862" lon="6.59873">
        <ele>726.9</ele>
        <time>2023-11-26T12:02:22Z</time>
      </trkpt>
      <trkpt lat="43.61862" lon="6.59871">
        <ele>727.1</ele>
        <time>2023-11-26T12:02:23Z</time>
      </trkpt>
      <trkpt lat="43.61862" lon="6.59869">
        <ele>727.1</ele>
        <time>2023-11-26T12:02:24Z</time>
      </trkpt>
      <trkpt lat="43.61862" lon="6.59868">
        <ele>727.1</ele>
        <time>2023-11-26T12:02:25Z</time>
      </trkpt>
      <trkpt lat="43.61862" lon="6.59866">
        <ele>727.1</ele>
        <time>2023-11-26T12:02:26Z</time>
      </trkpt>
      <trkpt lat="43.61861" lon="6.59864">
        <ele>727.1</ele>
        <time>2023-11-26T12:02:27Z</time>
      </trkpt>
      <trkpt lat="43.61861" lon="6.59862">
        <ele>727.2</ele>
        <time>2023-11-26T12:02:28Z</time>
      </trkpt>
      <trkpt lat="43.61861" lon="6.59861">
        <ele>727.3</ele>
        <time>2023-11-26T12:02:29Z</time>
      </trkpt>
      <trkpt lat="43.61861" lon="6.59859">
        <ele>727.4</ele>
        <time>2023-11-26T12:02:30Z</time>
      </trkpt>
      <trkpt lat="43.6186" lon="6.59858">
        <ele>727.4</ele>
        <time>2023-11-26T12:02:31Z</time>
      </trkpt>
      <trkpt lat="43.6186" lon="6.59856">
        <ele>727.4</ele>
        <time>2023-11-26T12:02:32Z</time>
      </trkpt>
      <trkpt lat="43.6186" lon="6.59855">
        <ele>727.5</ele>
        <time>2023-11-26T12:02:33Z</time>
      </trkpt>
      <trkpt lat="43.6186" lon="6.59854">
        <ele>727.4</ele>
        <time>2023-11-26T12:02:34Z</time>
      </trkpt>
      <trkpt lat="43.6186" lon="6.59852">
        <ele>727.4</ele>
        <time>2023-11-26T12:02:35Z</time>
      </trkpt>
      <trkpt lat="43.6186" lon="6.59851">
        <ele>727.3</ele>
        <time>2023-11-26T12:02:36Z</time>
      </trkpt>
      <trkpt lat="43.6186" lon="6.5985">
        <ele>727.3</ele>
        <time>2023-11-26T12:02:37Z</time>
      </trkpt>
      <trkpt lat="43.6186" lon="6.59848">
        <ele>727.2</ele>
        <time>2023-11-26T12:02:38Z</time>
      </trkpt>
      <trkpt lat="43.6186" lon="6.59846">
        <ele>727.1</ele>
        <time>2023-11-26T12:02:39Z</time>
      </trkpt>
      <trkpt lat="43.6186" lon="6.59844">
        <ele>727.4</ele>
        <time>2023-11-26T12:02:40Z</time>
      </trkpt>
      <trkpt lat="43.61861" lon="6.59842">
        <ele>727.3</ele>
        <time>2023-11-26T12:02:41Z</time>
      </trkpt>
      <trkpt lat="43.61861" lon="6.59841">
        <ele>727.3</ele>
        <time>2023-11-26T12:02:42Z</time>
      </trkpt>
      <trkpt lat="43.61861" lon="6.59839">
        <ele>727.4</ele>
        <time>2023-11-26T12:02:43Z</time>
      </trkpt>
      <trkpt lat="43.61861" lon="6.59838">
        <ele>727.4</ele>
        <time>2023-11-26T12:02:44Z</time>
      </trkpt>
      <trkpt lat="43.61861" lon="6.59836">
        <ele>727.5</ele>
        <time>2023-11-26T12:02:45Z</time>
      </trkpt>
      <trkpt lat="43.6186" lon="6.59834">
        <ele>727.5</ele>
        <time>2023-11-26T12:02:46Z</time>
      </trkpt>
      <trkpt lat="43.6186" lon="6.59832">
        <ele>727.5</ele>
        <time>2023-11-26T12:02:47Z</time>
      </trkpt>
      <trkpt lat="43.6186" lon="6.5983">
        <ele>727.4</ele>
        <time>2023-11-26T12:02:48Z</time>
      </trkpt>
      <trkpt lat="43.61861" lon="6.59829">
        <ele>727.4</ele>
        <time>2023-11-26T12:02:49Z</time>
      </trkpt>
      <trkpt lat="43.6186" lon="6.59827">
        <ele>727.3</ele>
        <time>2023-11-26T12:02:50Z</time>
      </trkpt>
      <trkpt lat="43.6186" lon="6.59825">
        <ele>727.3</ele>
        <time>2023-11-26T12:02:51Z</time>
      </trkpt>
      <trkpt lat="43.6186" lon="6.59824">
        <ele>727.3</ele>
        <time>2023-11-26T12:02:52Z</time>
      </trkpt>
      <trkpt lat="43.6186" lon="6.59822">
        <ele>727.3</ele>
        <time>2023-11-26T12:02:53Z</time>
      </trkpt>
      <trkpt lat="43.6186" lon="6.5982">
        <ele>727.3</ele>
        <time>2023-11-26T12:02:54Z</time>
      </trkpt>
      <trkpt lat="43.6186" lon="6.59819">
        <ele>727.4</ele>
        <time>2023-11-26T12:02:55Z</time>
      </trkpt>
      <trkpt lat="43.6186" lon="6.59817">
        <ele>727.4</ele>
        <time>2023-11-26T12:02:56Z</time>
      </trkpt>
      <trkpt lat="43.6186" lon="6.59815">
        <ele>727.4</ele>
        <time>2023-11-26T12:02:57Z</time>
      </trkpt>
      <trkpt lat="43.6186" lon="6.59814">
        <ele>727.4</ele>
        <time>2023-11-26T12:02:58Z</time>
      </trkpt>
      <trkpt lat="43.6186" lon="6.59812">
        <ele>727.3</ele>
        <time>2023-11-26T12:02:59Z</time>
      </trkpt>
      <trkpt lat="43.6186" lon="6.5981">
        <ele>727.3</ele>
        <time>2023-11-26T12:03:00Z</time>
      </trkpt>
      <trkpt lat="43.61859" lon="6.59808">
        <ele>727.3</ele>
        <time>2023-11-26T12:03:01Z</time>
      </trkpt>
      <trkpt lat="43.61859" lon="6.59806">
        <ele>727.3</ele>
        <time>2023-11-26T12:03:02Z</time>
      </trkpt>
      <trkpt lat="43.61859" lon="6.59805">
        <ele>727.4</ele>
        <time>2023-11-26T12:03:03Z</time>
      </trkpt>
      <trkpt lat="43.6186" lon="6.59803">
        <ele>727.4</ele>
        <time>2023-11-26T12:03:04Z</time>
      </trkpt>
      <trkpt lat="43.6186" lon="6.59801">
        <ele>727.4</ele>
        <time>2023-11-26T12:03:05Z</time>
      </trkpt>
      <trkpt lat="43.6186" lon="6.59799">
        <ele>727.3</ele>
        <time>2023-11-26T12:03:06Z</time>
      </trkpt>
      <trkpt lat="43.6186" lon="6.59797">
        <ele>727.4</ele>
        <time>2023-11-26T12:03:07Z</time>
      </trkpt>
      <trkpt lat="43.6186" lon="6.59795">
        <ele>727.4</ele>
        <time>2023-11-26T12:03:08Z</time>
      </trkpt>
      <trkpt lat="43.61859" lon="6.59794">
        <ele>727.5</ele>
        <time>2023-11-26T12:03:09Z</time>
      </trkpt>
      <trkpt lat="43.61859" lon="6.59792">
        <ele>727.5</ele>
        <time>2023-11-26T12:03:10Z</time>
      </trkpt>
      <trkpt lat="43.61859" lon="6.5979">
        <ele>727.6</ele>
        <time>2023-11-26T12:03:11Z</time>
      </trkpt>
      <trkpt lat="43.61859" lon="6.59789">
        <ele>727.6</ele>
        <time>2023-11-26T12:03:12Z</time>
      </trkpt>
      <trkpt lat="43.61858" lon="6.59787">
        <ele>727.6</ele>
        <time>2023-11-26T12:03:13Z</time>
      </trkpt>
      <trkpt lat="43.61858" lon="6.59786">
        <ele>727.6</ele>
        <time>2023-11-26T12:03:14Z</time>
      </trkpt>
      <trkpt lat="43.61858" lon="6.59784">
        <ele>727.6</ele>
        <time>2023-11-26T12:03:15Z</time>
      </trkpt>
      <trkpt lat="43.61858" lon="6.59782">
        <ele>727.6</ele>
        <time>2023-11-26T12:03:16Z</time>
      </trkpt>
      <trkpt lat="43.61859" lon="6.5978">
        <ele>727.6</ele>
        <time>2023-11-26T12:03:17Z</time>
      </trkpt>
      <trkpt lat="43.61859" lon="6.59778">
        <ele>727.5</ele>
        <time>2023-11-26T12:03:18Z</time>
      </trkpt>
      <trkpt lat="43.61858" lon="6.59777">
        <ele>727.6</ele>
        <time>2023-11-26T12:03:19Z</time>
      </trkpt>
      <trkpt lat="43.61858" lon="6.59775">
        <ele>727.6</ele>
        <time>2023-11-26T12:03:20Z</time>
      </trkpt>
      <trkpt lat="43.61859" lon="6.59773">
        <ele>727.6</ele>
        <time>2023-11-26T12:03:21Z</time>
      </trkpt>
      <trkpt lat="43.61859" lon="6.59772">
        <ele>727.6</ele>
        <time>2023-11-26T12:03:22Z</time>
      </trkpt>
      <trkpt lat="43.61859" lon="6.5977">
        <ele>727.6</ele>
        <time>2023-11-26T12:03:23Z</time>
      </trkpt>
      <trkpt lat="43.61858" lon="6.59768">
        <ele>727.6</ele>
        <time>2023-11-26T12:03:24Z</time>
      </trkpt>
      <trkpt lat="43.61858" lon="6.59766">
        <ele>727.6</ele>
        <time>2023-11-26T12:03:25Z</time>
      </trkpt>
      <trkpt lat="43.61857" lon="6.59764">
        <ele>727.6</ele>
        <time>2023-11-26T12:03:26Z</time>
      </trkpt>
      <trkpt lat="43.61857" lon="6.59761">
        <ele>727.6</ele>
        <time>2023-11-26T12:03:27Z</time>
      </trkpt>
      <trkpt lat="43.61857" lon="6.5976">
        <ele>727.6</ele>
        <time>2023-11-26T12:03:28Z</time>
      </trkpt>
      <trkpt lat="43.61856" lon="6.59758">
        <ele>727.6</ele>
        <time>2023-11-26T12:03:29Z</time>
      </trkpt>
      <trkpt lat="43.61856" lon="6.59756">
        <ele>727.6</ele>
        <time>2023-11-26T12:03:30Z</time>
      </trkpt>
      <trkpt lat="43.61856" lon="6.59755">
        <ele>727.6</ele>
        <time>2023-11-26T12:03:31Z</time>
      </trkpt>
      <trkpt lat="43.61855" lon="6.59753">
        <ele>727.7</ele>
        <time>2023-11-26T12:03:32Z</time>
      </trkpt>
      <trkpt lat="43.61855" lon="6.59751">
        <ele>727.7</ele>
        <time>2023-11-26T12:03:33Z</time>
      </trkpt>
      <trkpt lat="43.61854" lon="6.59749">
        <ele>727.7</ele>
        <time>2023-11-26T12:03:34Z</time>
      </trkpt>
      <trkpt lat="43.61854" lon="6.59747">
        <ele>727.7</ele>
        <time>2023-11-26T12:03:35Z</time>
      </trkpt>
      <trkpt lat="43.61853" lon="6.59745">
        <ele>727.8</ele>
        <time>2023-11-26T12:03:36Z</time>
      </trkpt>
      <trkpt lat="43.61853" lon="6.59744">
        <ele>727.8</ele>
        <time>2023-11-26T12:03:37Z</time>
      </trkpt>
      <trkpt lat="43.61852" lon="6.59742">
        <ele>727.9</ele>
        <time>2023-11-26T12:03:38Z</time>
      </trkpt>
      <trkpt lat="43.61852" lon="6.5974">
        <ele>727.8</ele>
        <time>2023-11-26T12:03:39Z</time>
      </trkpt>
      <trkpt lat="43.61852" lon="6.59738">
        <ele>727.8</ele>
        <time>2023-11-26T12:03:40Z</time>
      </trkpt>
      <trkpt lat="43.61852" lon="6.59736">
        <ele>727.8</ele>
        <time>2023-11-26T12:03:41Z</time>
      </trkpt>
      <trkpt lat="43.61852" lon="6.59735">
        <ele>727.8</ele>
        <time>2023-11-26T12:03:42Z</time>
      </trkpt>
      <trkpt lat="43.61852" lon="6.59733">
        <ele>727.7</ele>
        <time>2023-11-26T12:03:43Z</time>
      </trkpt>
      <trkpt lat="43.61851" lon="6.59731">
        <ele>727.7</ele>
        <time>2023-11-26T12:03:44Z</time>
      </trkpt>
      <trkpt lat="43.61851" lon="6.59729">
        <ele>727.6</ele>
        <time>2023-11-26T12:03:45Z</time>
      </trkpt>
      <trkpt lat="43.61852" lon="6.59727">
        <ele>727.6</ele>
        <time>2023-11-26T12:03:46Z</time>
      </trkpt>
      <trkpt lat="43.61852" lon="6.59726">
        <ele>727.5</ele>
        <time>2023-11-26T12:03:47Z</time>
      </trkpt>
      <trkpt lat="43.61852" lon="6.59724">
        <ele>727.4</ele>
        <time>2023-11-26T12:03:48Z</time>
      </trkpt>
      <trkpt lat="43.61852" lon="6.59722">
        <ele>727.4</ele>
        <time>2023-11-26T12:03:49Z</time>
      </trkpt>
      <trkpt lat="43.61852" lon="6.5972">
        <ele>727.2</ele>
        <time>2023-11-26T12:03:50Z</time>
      </trkpt>
      <trkpt lat="43.61852" lon="6.59718">
        <ele>727.2</ele>
        <time>2023-11-26T12:03:51Z</time>
      </trkpt>
      <trkpt lat="43.61853" lon="6.59717">
        <ele>727.3</ele>
        <time>2023-11-26T12:03:52Z</time>
      </trkpt>
      <trkpt lat="43.61853" lon="6.59715">
        <ele>727.3</ele>
        <time>2023-11-26T12:03:53Z</time>
      </trkpt>
      <trkpt lat="43.61854" lon="6.59713">
        <ele>727.3</ele>
        <time>2023-11-26T12:03:54Z</time>
      </trkpt>
      <trkpt lat="43.61854" lon="6.59711">
        <ele>727.3</ele>
        <time>2023-11-26T12:03:55Z</time>
      </trkpt>
      <trkpt lat="43.61855" lon="6.59709">
        <ele>727.3</ele>
        <time>2023-11-26T12:03:56Z</time>
      </trkpt>
      <trkpt lat="43.61855" lon="6.59708">
        <ele>727.3</ele>
        <time>2023-11-26T12:03:57Z</time>
      </trkpt>
      <trkpt lat="43.61856" lon="6.59706">
        <ele>727.3</ele>
        <time>2023-11-26T12:03:58Z</time>
      </trkpt>
      <trkpt lat="43.61856" lon="6.59704">
        <ele>727.3</ele>
        <time>2023-11-26T12:03:59Z</time>
      </trkpt>
      <trkpt lat="43.61857" lon="6.59703">
        <ele>727.4</ele>
        <time>2023-11-26T12:04:00Z</time>
      </trkpt>
      <trkpt lat="43.61858" lon="6.59702">
        <ele>727.4</ele>
        <time>2023-11-26T12:04:01Z</time>
      </trkpt>
      <trkpt lat="43.61858" lon="6.597">
        <ele>727.4</ele>
        <time>2023-11-26T12:04:02Z</time>
      </trkpt>
      <trkpt lat="43.61859" lon="6.59699">
        <ele>727.4</ele>
        <time>2023-11-26T12:04:03Z</time>
      </trkpt>
      <trkpt lat="43.61859" lon="6.59697">
        <ele>727.5</ele>
        <time>2023-11-26T12:04:04Z</time>
      </trkpt>
      <trkpt lat="43.6186" lon="6.59696">
        <ele>727.6</ele>
        <time>2023-11-26T12:04:05Z</time>
      </trkpt>
      <trkpt lat="43.6186" lon="6.59694">
        <ele>727.7</ele>
        <time>2023-11-26T12:04:06Z</time>
      </trkpt>
      <trkpt lat="43.61861" lon="6.59693">
        <ele>727.7</ele>
        <time>2023-11-26T12:04:07Z</time>
      </trkpt>
      <trkpt lat="43.61862" lon="6.59691">
        <ele>727.7</ele>
        <time>2023-11-26T12:04:08Z</time>
      </trkpt>
      <trkpt lat="43.61862" lon="6.59689">
        <ele>727.8</ele>
        <time>2023-11-26T12:04:09Z</time>
      </trkpt>
      <trkpt lat="43.61862" lon="6.59688">
        <ele>727.8</ele>
        <time>2023-11-26T12:04:10Z</time>
      </trkpt>
      <trkpt lat="43.61863" lon="6.59686">
        <ele>727.8</ele>
        <time>2023-11-26T12:04:11Z</time>
      </trkpt>
      <trkpt lat="43.61863" lon="6.59684">
        <ele>727.9</ele>
        <time>2023-11-26T12:04:12Z</time>
      </trkpt>
      <trkpt lat="43.61864" lon="6.59682">
        <ele>727.9</ele>
        <time>2023-11-26T12:04:13Z</time>
      </trkpt>
      <trkpt lat="43.61864" lon="6.5968">
        <ele>727.9</ele>
        <time>2023-11-26T12:04:14Z</time>
      </trkpt>
      <trkpt lat="43.61865" lon="6.59679">
        <ele>727.9</ele>
        <time>2023-11-26T12:04:15Z</time>
      </trkpt>
      <trkpt lat="43.61866" lon="6.59677">
        <ele>728</ele>
        <time>2023-11-26T12:04:16Z</time>
      </trkpt>
      <trkpt lat="43.61867" lon="6.59676">
        <ele>728</ele>
        <time>2023-11-26T12:04:17Z</time>
      </trkpt>
      <trkpt lat="43.61867" lon="6.59674">
        <ele>728.1</ele>
        <time>2023-11-26T12:04:18Z</time>
      </trkpt>
      <trkpt lat="43.61868" lon="6.59673">
        <ele>728.2</ele>
        <time>2023-11-26T12:04:19Z</time>
      </trkpt>
      <trkpt lat="43.61868" lon="6.59671">
        <ele>728.2</ele>
        <time>2023-11-26T12:04:20Z</time>
      </trkpt>
      <trkpt lat="43.61869" lon="6.5967">
        <ele>728.2</ele>
        <time>2023-11-26T12:04:21Z</time>
      </trkpt>
      <trkpt lat="43.6187" lon="6.59669">
        <ele>728.1</ele>
        <time>2023-11-26T12:04:22Z</time>
      </trkpt>
      <trkpt lat="43.6187" lon="6.59668">
        <ele>728</ele>
        <time>2023-11-26T12:04:23Z</time>
      </trkpt>
      <trkpt lat="43.61871" lon="6.59666">
        <ele>728</ele>
        <time>2023-11-26T12:04:24Z</time>
      </trkpt>
      <trkpt lat="43.61871" lon="6.59665">
        <ele>727.9</ele>
        <time>2023-11-26T12:04:25Z</time>
      </trkpt>
      <trkpt lat="43.61872" lon="6.59663">
        <ele>727.9</ele>
        <time>2023-11-26T12:04:26Z</time>
      </trkpt>
      <trkpt lat="43.61872" lon="6.59661">
        <ele>727.9</ele>
        <time>2023-11-26T12:04:27Z</time>
      </trkpt>
      <trkpt lat="43.61873" lon="6.5966">
        <ele>727.9</ele>
        <time>2023-11-26T12:04:28Z</time>
      </trkpt>
      <trkpt lat="43.61874" lon="6.59659">
        <ele>727.9</ele>
        <time>2023-11-26T12:04:29Z</time>
      </trkpt>
      <trkpt lat="43.61875" lon="6.59657">
        <ele>727.9</ele>
        <time>2023-11-26T12:04:30Z</time>
      </trkpt>
      <trkpt lat="43.61875" lon="6.59656">
        <ele>728</ele>
        <time>2023-11-26T12:04:31Z</time>
      </trkpt>
      <trkpt lat="43.61876" lon="6.59655">
        <ele>728</ele>
        <time>2023-11-26T12:04:32Z</time>
      </trkpt>
      <trkpt lat="43.61878" lon="6.59653">
        <ele>728</ele>
        <time>2023-11-26T12:04:33Z</time>
      </trkpt>
      <trkpt lat="43.61879" lon="6.59652">
        <ele>727.9</ele>
        <time>2023-11-26T12:04:34Z</time>
      </trkpt>
      <trkpt lat="43.61879" lon="6.59651">
        <ele>727.8</ele>
        <time>2023-11-26T12:04:35Z</time>
      </trkpt>
      <trkpt lat="43.6188" lon="6.5965">
        <ele>727.8</ele>
        <time>2023-11-26T12:04:36Z</time>
      </trkpt>
      <trkpt lat="43.61881" lon="6.5965">
        <ele>727.8</ele>
        <time>2023-11-26T12:04:37Z</time>
      </trkpt>
      <trkpt lat="43.61882" lon="6.59649">
        <ele>727.8</ele>
        <time>2023-11-26T12:04:38Z</time>
      </trkpt>
      <trkpt lat="43.61883" lon="6.59648">
        <ele>727.8</ele>
        <time>2023-11-26T12:04:39Z</time>
      </trkpt>
      <trkpt lat="43.61884" lon="6.59648">
        <ele>727.7</ele>
        <time>2023-11-26T12:04:40Z</time>
      </trkpt>
      <trkpt lat="43.61885" lon="6.59647">
        <ele>727.6</ele>
        <time>2023-11-26T12:04:41Z</time>
      </trkpt>
      <trkpt lat="43.61886" lon="6.59647">
        <ele>727.4</ele>
        <time>2023-11-26T12:04:42Z</time>
      </trkpt>
      <trkpt lat="43.61887" lon="6.59646">
        <ele>727.3</ele>
        <time>2023-11-26T12:04:43Z</time>
      </trkpt>
      <trkpt lat="43.61887" lon="6.59646">
        <ele>727.2</ele>
        <time>2023-11-26T12:04:44Z</time>
      </trkpt>
      <trkpt lat="43.61888" lon="6.59646">
        <ele>727</ele>
        <time>2023-11-26T12:04:45Z</time>
      </trkpt>
      <trkpt lat="43.61889" lon="6.59646">
        <ele>726.9</ele>
        <time>2023-11-26T12:04:46Z</time>
      </trkpt>
      <trkpt lat="43.6189" lon="6.59646">
        <ele>726.7</ele>
        <time>2023-11-26T12:04:47Z</time>
      </trkpt>
      <trkpt lat="43.61891" lon="6.59646">
        <ele>726.6</ele>
        <time>2023-11-26T12:04:48Z</time>
      </trkpt>
      <trkpt lat="43.61891" lon="6.59646">
        <ele>726.5</ele>
        <time>2023-11-26T12:04:49Z</time>
      </trkpt>
      <trkpt lat="43.61892" lon="6.59646">
        <ele>726.4</ele>
        <time>2023-11-26T12:04:50Z</time>
      </trkpt>
      <trkpt lat="43.61893" lon="6.59646">
        <ele>726.3</ele>
        <time>2023-11-26T12:04:51Z</time>
      </trkpt>
      <trkpt lat="43.61894" lon="6.59647">
        <ele>726.2</ele>
        <time>2023-11-26T12:04:52Z</time>
      </trkpt>
      <trkpt lat="43.61895" lon="6.59647">
        <ele>726.1</ele>
        <time>2023-11-26T12:04:53Z</time>
      </trkpt>
      <trkpt lat="43.61896" lon="6.59646">
        <ele>726</ele>
        <time>2023-11-26T12:04:54Z</time>
      </trkpt>
      <trkpt lat="43.61897" lon="6.59646">
        <ele>725.9</ele>
        <time>2023-11-26T12:04:55Z</time>
      </trkpt>
      <trkpt lat="43.61897" lon="6.59646">
        <ele>725.8</ele>
        <time>2023-11-26T12:04:56Z</time>
      </trkpt>
      <trkpt lat="43.61899" lon="6.59646">
        <ele>725.7</ele>
        <time>2023-11-26T12:04:57Z</time>
      </trkpt>
      <trkpt lat="43.619" lon="6.59646">
        <ele>725.7</ele>
        <time>2023-11-26T12:04:58Z</time>
      </trkpt>
      <trkpt lat="43.61901" lon="6.59646">
        <ele>725.7</ele>
        <time>2023-11-26T12:04:59Z</time>
      </trkpt>
      <trkpt lat="43.61902" lon="6.59645">
        <ele>725.5</ele>
        <time>2023-11-26T12:05:00Z</time>
      </trkpt>
      <trkpt lat="43.61903" lon="6.59645">
        <ele>725.4</ele>
        <time>2023-11-26T12:05:01Z</time>
      </trkpt>
      <trkpt lat="43.61904" lon="6.59646">
        <ele>725.2</ele>
        <time>2023-11-26T12:05:02Z</time>
      </trkpt>
      <trkpt lat="43.61905" lon="6.59647">
        <ele>725.1</ele>
        <time>2023-11-26T12:05:03Z</time>
      </trkpt>
      <trkpt lat="43.61906" lon="6.59647">
        <ele>724.8</ele>
        <time>2023-11-26T12:05:04Z</time>
      </trkpt>
      <trkpt lat="43.61907" lon="6.59648">
        <ele>724.7</ele>
        <time>2023-11-26T12:05:05Z</time>
      </trkpt>
      <trkpt lat="43.61908" lon="6.59648">
        <ele>724.6</ele>
        <time>2023-11-26T12:05:06Z</time>
      </trkpt>
      <trkpt lat="43.61909" lon="6.59649">
        <ele>724.4</ele>
        <time>2023-11-26T12:05:07Z</time>
      </trkpt>
      <trkpt lat="43.61909" lon="6.59649">
        <ele>724.3</ele>
        <time>2023-11-26T12:05:08Z</time>
      </trkpt>
      <trkpt lat="43.61911" lon="6.5965">
        <ele>724.1</ele>
        <time>2023-11-26T12:05:09Z</time>
      </trkpt>
      <trkpt lat="43.61912" lon="6.5965">
        <ele>724</ele>
        <time>2023-11-26T12:05:10Z</time>
      </trkpt>
      <trkpt lat="43.61913" lon="6.59651">
        <ele>723.9</ele>
        <time>2023-11-26T12:05:11Z</time>
      </trkpt>
      <trkpt lat="43.61914" lon="6.59652">
        <ele>723.7</ele>
        <time>2023-11-26T12:05:12Z</time>
      </trkpt>
      <trkpt lat="43.61915" lon="6.59653">
        <ele>723.6</ele>
        <time>2023-11-26T12:05:13Z</time>
      </trkpt>
      <trkpt lat="43.61916" lon="6.59654">
        <ele>723.4</ele>
        <time>2023-11-26T12:05:14Z</time>
      </trkpt>
      <trkpt lat="43.61918" lon="6.59654">
        <ele>723.3</ele>
        <time>2023-11-26T12:05:15Z</time>
      </trkpt>
      <trkpt lat="43.61918" lon="6.59655">
        <ele>723.2</ele>
        <time>2023-11-26T12:05:16Z</time>
      </trkpt>
      <trkpt lat="43.6192" lon="6.59656">
        <ele>723.1</ele>
        <time>2023-11-26T12:05:17Z</time>
      </trkpt>
      <trkpt lat="43.61921" lon="6.59658">
        <ele>723.1</ele>
        <time>2023-11-26T12:05:18Z</time>
      </trkpt>
      <trkpt lat="43.61922" lon="6.59659">
        <ele>723</ele>
        <time>2023-11-26T12:05:19Z</time>
      </trkpt>
      <trkpt lat="43.61922" lon="6.5966">
        <ele>722.8</ele>
        <time>2023-11-26T12:05:20Z</time>
      </trkpt>
      <trkpt lat="43.61923" lon="6.59662">
        <ele>722.6</ele>
        <time>2023-11-26T12:05:21Z</time>
      </trkpt>
      <trkpt lat="43.61924" lon="6.59663">
        <ele>722.5</ele>
        <time>2023-11-26T12:05:22Z</time>
      </trkpt>
      <trkpt lat="43.61925" lon="6.59664">
        <ele>722.4</ele>
        <time>2023-11-26T12:05:23Z</time>
      </trkpt>
      <trkpt lat="43.61925" lon="6.59666">
        <ele>722.2</ele>
        <time>2023-11-26T12:05:24Z</time>
      </trkpt>
      <trkpt lat="43.61926" lon="6.59667">
        <ele>722.1</ele>
        <time>2023-11-26T12:05:25Z</time>
      </trkpt>
      <trkpt lat="43.61926" lon="6.59669">
        <ele>722</ele>
        <time>2023-11-26T12:05:26Z</time>
      </trkpt>
      <trkpt lat="43.61927" lon="6.59671">
        <ele>721.9</ele>
        <time>2023-11-26T12:05:27Z</time>
      </trkpt>
      <trkpt lat="43.61927" lon="6.59672">
        <ele>721.8</ele>
        <time>2023-11-26T12:05:28Z</time>
      </trkpt>
      <trkpt lat="43.61928" lon="6.59674">
        <ele>721.7</ele>
        <time>2023-11-26T12:05:29Z</time>
      </trkpt>
      <trkpt lat="43.61928" lon="6.59675">
        <ele>721.6</ele>
        <time>2023-11-26T12:05:30Z</time>
      </trkpt>
      <trkpt lat="43.61929" lon="6.59676">
        <ele>721.4</ele>
        <time>2023-11-26T12:05:31Z</time>
      </trkpt>
      <trkpt lat="43.61929" lon="6.59677">
        <ele>721.4</ele>
        <time>2023-11-26T12:05:32Z</time>
      </trkpt>
      <trkpt lat="43.6193" lon="6.59679">
        <ele>721.3</ele>
        <time>2023-11-26T12:05:33Z</time>
      </trkpt>
      <trkpt lat="43.6193" lon="6.5968">
        <ele>721.2</ele>
        <time>2023-11-26T12:05:34Z</time>
      </trkpt>
      <trkpt lat="43.6193" lon="6.5968">
        <ele>721.1</ele>
        <time>2023-11-26T12:05:35Z</time>
      </trkpt>
      <trkpt lat="43.61931" lon="6.5968">
        <ele>721</ele>
        <time>2023-11-26T12:05:36Z</time>
      </trkpt>
      <trkpt lat="43.61931" lon="6.59681">
        <ele>720.9</ele>
        <time>2023-11-26T12:05:37Z</time>
      </trkpt>
      <trkpt lat="43.61931" lon="6.59681">
        <ele>720.8</ele>
        <time>2023-11-26T12:05:38Z</time>
      </trkpt>
      <trkpt lat="43.61932" lon="6.59682">
        <ele>720.7</ele>
        <time>2023-11-26T12:05:39Z</time>
      </trkpt>
      <trkpt lat="43.61932" lon="6.59683">
        <ele>720.6</ele>
        <time>2023-11-26T12:05:40Z</time>
      </trkpt>
      <trkpt lat="43.61931" lon="6.59683">
        <ele>720.5</ele>
        <time>2023-11-26T12:05:41Z</time>
      </trkpt>
      <trkpt lat="43.61931" lon="6.59683">
        <ele>720.4</ele>
        <time>2023-11-26T12:05:42Z</time>
      </trkpt>
      <trkpt lat="43.61931" lon="6.59683">
        <ele>720.3</ele>
        <time>2023-11-26T12:05:43Z</time>
      </trkpt>
      <trkpt lat="43.61931" lon="6.59683">
        <ele>720.3</ele>
        <time>2023-11-26T12:05:44Z</time>
      </trkpt>
      <trkpt lat="43.61931" lon="6.59683">
        <ele>720.2</ele>
        <time>2023-11-26T12:05:45Z</time>
      </trkpt>
      <trkpt lat="43.61931" lon="6.59683">
        <ele>720.3</ele>
        <time>2023-11-26T12:05:46Z</time>
      </trkpt>
      <trkpt lat="43.6193" lon="6.59683">
        <ele>720.3</ele>
        <time>2023-11-26T12:05:47Z</time>
      </trkpt>
      <trkpt lat="43.6193" lon="6.59683">
        <ele>720.3</ele>
        <time>2023-11-26T12:05:48Z</time>
      </trkpt>
      <trkpt lat="43.6193" lon="6.59684">
        <ele>720.3</ele>
        <time>2023-11-26T12:05:49Z</time>
      </trkpt>
      <trkpt lat="43.6193" lon="6.59684">
        <ele>720.3</ele>
        <time>2023-11-26T12:05:50Z</time>
      </trkpt>
      <trkpt lat="43.6193" lon="6.59684">
        <ele>720.3</ele>
        <time>2023-11-26T12:05:51Z</time>
      </trkpt>
      <trkpt lat="43.61931" lon="6.59684">
        <ele>720.3</ele>
        <time>2023-11-26T12:05:52Z</time>
      </trkpt>
      <trkpt lat="43.61931" lon="6.59684">
        <ele>720.2</ele>
        <time>2023-11-26T12:05:53Z</time>
      </trkpt>
      <trkpt lat="43.61932" lon="6.59684">
        <ele>720.2</ele>
        <time>2023-11-26T12:05:54Z</time>
      </trkpt>
      <trkpt lat="43.61931" lon="6.59685">
        <ele>720.2</ele>
        <time>2023-11-26T12:05:55Z</time>
      </trkpt>
      <trkpt lat="43.61931" lon="6.59686">
        <ele>720.1</ele>
        <time>2023-11-26T12:05:56Z</time>
      </trkpt>
      <trkpt lat="43.61931" lon="6.59688">
        <ele>720.2</ele>
        <time>2023-11-26T12:05:57Z</time>
      </trkpt>
      <trkpt lat="43.61931" lon="6.5969">
        <ele>720.2</ele>
        <time>2023-11-26T12:05:58Z</time>
      </trkpt>
      <trkpt lat="43.61931" lon="6.59692">
        <ele>720</ele>
        <time>2023-11-26T12:05:59Z</time>
      </trkpt>
      <trkpt lat="43.61931" lon="6.59694">
        <ele>720</ele>
        <time>2023-11-26T12:06:00Z</time>
      </trkpt>
      <trkpt lat="43.61931" lon="6.59696">
        <ele>719.9</ele>
        <time>2023-11-26T12:06:01Z</time>
      </trkpt>
      <trkpt lat="43.61931" lon="6.59697">
        <ele>719.8</ele>
        <time>2023-11-26T12:06:02Z</time>
      </trkpt>
      <trkpt lat="43.61931" lon="6.59699">
        <ele>719.7</ele>
        <time>2023-11-26T12:06:03Z</time>
      </trkpt>
      <trkpt lat="43.61931" lon="6.59701">
        <ele>719.7</ele>
        <time>2023-11-26T12:06:04Z</time>
      </trkpt>
      <trkpt lat="43.61931" lon="6.59703">
        <ele>719.6</ele>
        <time>2023-11-26T12:06:05Z</time>
      </trkpt>
      <trkpt lat="43.61931" lon="6.59705">
        <ele>719.6</ele>
        <time>2023-11-26T12:06:06Z</time>
      </trkpt>
      <trkpt lat="43.6193" lon="6.59706">
        <ele>719.5</ele>
        <time>2023-11-26T12:06:07Z</time>
      </trkpt>
      <trkpt lat="43.6193" lon="6.59708">
        <ele>719.4</ele>
        <time>2023-11-26T12:06:08Z</time>
      </trkpt>
      <trkpt lat="43.6193" lon="6.5971">
        <ele>719.3</ele>
        <time>2023-11-26T12:06:09Z</time>
      </trkpt>
      <trkpt lat="43.6193" lon="6.59712">
        <ele>719.1</ele>
        <time>2023-11-26T12:06:10Z</time>
      </trkpt>
      <trkpt lat="43.61929" lon="6.59714">
        <ele>718.9</ele>
        <time>2023-11-26T12:06:11Z</time>
      </trkpt>
      <trkpt lat="43.61929" lon="6.59716">
        <ele>718.8</ele>
        <time>2023-11-26T12:06:12Z</time>
      </trkpt>
      <trkpt lat="43.61929" lon="6.59718">
        <ele>718.7</ele>
        <time>2023-11-26T12:06:13Z</time>
      </trkpt>
      <trkpt lat="43.61929" lon="6.59719">
        <ele>718.5</ele>
        <time>2023-11-26T12:06:14Z</time>
      </trkpt>
      <trkpt lat="43.61929" lon="6.59721">
        <ele>718.3</ele>
        <time>2023-11-26T12:06:15Z</time>
      </trkpt>
      <trkpt lat="43.6193" lon="6.59722">
        <ele>718.2</ele>
        <time>2023-11-26T12:06:16Z</time>
      </trkpt>
      <trkpt lat="43.6193" lon="6.59725">
        <ele>718</ele>
        <time>2023-11-26T12:06:17Z</time>
      </trkpt>
      <trkpt lat="43.6193" lon="6.59727">
        <ele>717.8</ele>
        <time>2023-11-26T12:06:18Z</time>
      </trkpt>
      <trkpt lat="43.6193" lon="6.59729">
        <ele>717.8</ele>
        <time>2023-11-26T12:06:19Z</time>
      </trkpt>
      <trkpt lat="43.61931" lon="6.5973">
        <ele>717.7</ele>
        <time>2023-11-26T12:06:20Z</time>
      </trkpt>
      <trkpt lat="43.61932" lon="6.59731">
        <ele>717.5</ele>
        <time>2023-11-26T12:06:21Z</time>
      </trkpt>
      <trkpt lat="43.61933" lon="6.59733">
        <ele>717.4</ele>
        <time>2023-11-26T12:06:22Z</time>
      </trkpt>
      <trkpt lat="43.61934" lon="6.59734">
        <ele>717.3</ele>
        <time>2023-11-26T12:06:23Z</time>
      </trkpt>
      <trkpt lat="43.61936" lon="6.59735">
        <ele>717.3</ele>
        <time>2023-11-26T12:06:24Z</time>
      </trkpt>
      <trkpt lat="43.61937" lon="6.59735">
        <ele>717.2</ele>
        <time>2023-11-26T12:06:25Z</time>
      </trkpt>
      <trkpt lat="43.61939" lon="6.59736">
        <ele>717.1</ele>
        <time>2023-11-26T12:06:26Z</time>
      </trkpt>
      <trkpt lat="43.6194" lon="6.59736">
        <ele>717.1</ele>
        <time>2023-11-26T12:06:27Z</time>
      </trkpt>
      <trkpt lat="43.61942" lon="6.59736">
        <ele>717</ele>
        <time>2023-11-26T12:06:28Z</time>
      </trkpt>
      <trkpt lat="43.61943" lon="6.59737">
        <ele>716.7</ele>
        <time>2023-11-26T12:06:29Z</time>
      </trkpt>
      <trkpt lat="43.61945" lon="6.59736">
        <ele>716.5</ele>
        <time>2023-11-26T12:06:30Z</time>
      </trkpt>
      <trkpt lat="43.61946" lon="6.59736">
        <ele>716.3</ele>
        <time>2023-11-26T12:06:31Z</time>
      </trkpt>
      <trkpt lat="43.61948" lon="6.59735">
        <ele>716.2</ele>
        <time>2023-11-26T12:06:32Z</time>
      </trkpt>
      <trkpt lat="43.61949" lon="6.59734">
        <ele>716</ele>
        <time>2023-11-26T12:06:33Z</time>
      </trkpt>
      <trkpt lat="43.61951" lon="6.59733">
        <ele>715.7</ele>
        <time>2023-11-26T12:06:34Z</time>
      </trkpt>
      <trkpt lat="43.61953" lon="6.59732">
        <ele>715.5</ele>
        <time>2023-11-26T12:06:35Z</time>
      </trkpt>
      <trkpt lat="43.61954" lon="6.59731">
        <ele>715.4</ele>
        <time>2023-11-26T12:06:36Z</time>
      </trkpt>
      <trkpt lat="43.61955" lon="6.59729">
        <ele>715.3</ele>
        <time>2023-11-26T12:06:37Z</time>
      </trkpt>
      <trkpt lat="43.61957" lon="6.59728">
        <ele>715</ele>
        <time>2023-11-26T12:06:38Z</time>
      </trkpt>
      <trkpt lat="43.61958" lon="6.59727">
        <ele>714.8</ele>
        <time>2023-11-26T12:06:39Z</time>
      </trkpt>
      <trkpt lat="43.61958" lon="6.59726">
        <ele>714.6</ele>
        <time>2023-11-26T12:06:40Z</time>
      </trkpt>
      <trkpt lat="43.61959" lon="6.59725">
        <ele>714.4</ele>
        <time>2023-11-26T12:06:41Z</time>
      </trkpt>
      <trkpt lat="43.6196" lon="6.59724">
        <ele>714.3</ele>
        <time>2023-11-26T12:06:42Z</time>
      </trkpt>
      <trkpt lat="43.61961" lon="6.59722">
        <ele>714.1</ele>
        <time>2023-11-26T12:06:43Z</time>
      </trkpt>
      <trkpt lat="43.61962" lon="6.59721">
        <ele>713.9</ele>
        <time>2023-11-26T12:06:44Z</time>
      </trkpt>
      <trkpt lat="43.61963" lon="6.5972">
        <ele>713.8</ele>
        <time>2023-11-26T12:06:45Z</time>
      </trkpt>
      <trkpt lat="43.61964" lon="6.59718">
        <ele>713.7</ele>
        <time>2023-11-26T12:06:46Z</time>
      </trkpt>
      <trkpt lat="43.61965" lon="6.59717">
        <ele>713.5</ele>
        <time>2023-11-26T12:06:47Z</time>
      </trkpt>
      <trkpt lat="43.61966" lon="6.59715">
        <ele>713.4</ele>
        <time>2023-11-26T12:06:48Z</time>
      </trkpt>
      <trkpt lat="43.61968" lon="6.59713">
        <ele>713.2</ele>
        <time>2023-11-26T12:06:49Z</time>
      </trkpt>
      <trkpt lat="43.61968" lon="6.59711">
        <ele>713.1</ele>
        <time>2023-11-26T12:06:50Z</time>
      </trkpt>
      <trkpt lat="43.61969" lon="6.59709">
        <ele>712.9</ele>
        <time>2023-11-26T12:06:51Z</time>
      </trkpt>
      <trkpt lat="43.61971" lon="6.59707">
        <ele>712.7</ele>
        <time>2023-11-26T12:06:52Z</time>
      </trkpt>
      <trkpt lat="43.61972" lon="6.59705">
        <ele>712.4</ele>
        <time>2023-11-26T12:06:53Z</time>
      </trkpt>
      <trkpt lat="43.61972" lon="6.59703">
        <ele>712.3</ele>
        <time>2023-11-26T12:06:54Z</time>
      </trkpt>
      <trkpt lat="43.61973" lon="6.59701">
        <ele>712.1</ele>
        <time>2023-11-26T12:06:55Z</time>
      </trkpt>
      <trkpt lat="43.61972" lon="6.59699">
        <ele>711.9</ele>
        <time>2023-11-26T12:06:56Z</time>
      </trkpt>
      <trkpt lat="43.61973" lon="6.59697">
        <ele>711.7</ele>
        <time>2023-11-26T12:06:57Z</time>
      </trkpt>
      <trkpt lat="43.61972" lon="6.59695">
        <ele>711.7</ele>
        <time>2023-11-26T12:06:58Z</time>
      </trkpt>
      <trkpt lat="43.61972" lon="6.59694">
        <ele>711.6</ele>
        <time>2023-11-26T12:06:59Z</time>
      </trkpt>
      <trkpt lat="43.61972" lon="6.59692">
        <ele>711.5</ele>
        <time>2023-11-26T12:07:00Z</time>
      </trkpt>
      <trkpt lat="43.61972" lon="6.5969">
        <ele>711.3</ele>
        <time>2023-11-26T12:07:01Z</time>
      </trkpt>
      <trkpt lat="43.61972" lon="6.59688">
        <ele>711.2</ele>
        <time>2023-11-26T12:07:02Z</time>
      </trkpt>
      <trkpt lat="43.61971" lon="6.59686">
        <ele>711</ele>
        <time>2023-11-26T12:07:03Z</time>
      </trkpt>
      <trkpt lat="43.61971" lon="6.59684">
        <ele>710.8</ele>
        <time>2023-11-26T12:07:04Z</time>
      </trkpt>
      <trkpt lat="43.6197" lon="6.59682">
        <ele>710.6</ele>
        <time>2023-11-26T12:07:05Z</time>
      </trkpt>
      <trkpt lat="43.61969" lon="6.59681">
        <ele>710.2</ele>
        <time>2023-11-26T12:07:06Z</time>
      </trkpt>
      <trkpt lat="43.61968" lon="6.5968">
        <ele>709.9</ele>
        <time>2023-11-26T12:07:07Z</time>
      </trkpt>
      <trkpt lat="43.61967" lon="6.59678">
        <ele>709.8</ele>
        <time>2023-11-26T12:07:08Z</time>
      </trkpt>
      <trkpt lat="43.61965" lon="6.59677">
        <ele>709.7</ele>
        <time>2023-11-26T12:07:09Z</time>
      </trkpt>
      <trkpt lat="43.61964" lon="6.59676">
        <ele>709.4</ele>
        <time>2023-11-26T12:07:10Z</time>
      </trkpt>
      <trkpt lat="43.61963" lon="6.59674">
        <ele>709.1</ele>
        <time>2023-11-26T12:07:11Z</time>
      </trkpt>
      <trkpt lat="43.61963" lon="6.59673">
        <ele>709</ele>
        <time>2023-11-26T12:07:12Z</time>
      </trkpt>
      <trkpt lat="43.61962" lon="6.59671">
        <ele>708.9</ele>
        <time>2023-11-26T12:07:13Z</time>
      </trkpt>
      <trkpt lat="43.61962" lon="6.5967">
        <ele>708.9</ele>
        <time>2023-11-26T12:07:14Z</time>
      </trkpt>
      <trkpt lat="43.61962" lon="6.59668">
        <ele>708.9</ele>
        <time>2023-11-26T12:07:15Z</time>
      </trkpt>
      <trkpt lat="43.61961" lon="6.59667">
        <ele>708.9</ele>
        <time>2023-11-26T12:07:16Z</time>
      </trkpt>
      <trkpt lat="43.61961" lon="6.59665">
        <ele>708.8</ele>
        <time>2023-11-26T12:07:17Z</time>
      </trkpt>
      <trkpt lat="43.61961" lon="6.59663">
        <ele>708.8</ele>
        <time>2023-11-26T12:07:18Z</time>
      </trkpt>
      <trkpt lat="43.61961" lon="6.59662">
        <ele>708.8</ele>
        <time>2023-11-26T12:07:19Z</time>
      </trkpt>
      <trkpt lat="43.6196" lon="6.59661">
        <ele>708.6</ele>
        <time>2023-11-26T12:07:20Z</time>
      </trkpt>
      <trkpt lat="43.6196" lon="6.59659">
        <ele>708.6</ele>
        <time>2023-11-26T12:07:21Z</time>
      </trkpt>
      <trkpt lat="43.6196" lon="6.59657">
        <ele>708.5</ele>
        <time>2023-11-26T12:07:22Z</time>
      </trkpt>
      <trkpt lat="43.6196" lon="6.59655">
        <ele>708.3</ele>
        <time>2023-11-26T12:07:23Z</time>
      </trkpt>
      <trkpt lat="43.6196" lon="6.59653">
        <ele>708</ele>
        <time>2023-11-26T12:07:24Z</time>
      </trkpt>
      <trkpt lat="43.6196" lon="6.59651">
        <ele>707.9</ele>
        <time>2023-11-26T12:07:25Z</time>
      </trkpt>
      <trkpt lat="43.6196" lon="6.59649">
        <ele>707.8</ele>
        <time>2023-11-26T12:07:26Z</time>
      </trkpt>
      <trkpt lat="43.6196" lon="6.59647">
        <ele>707.6</ele>
        <time>2023-11-26T12:07:27Z</time>
      </trkpt>
      <trkpt lat="43.6196" lon="6.59645">
        <ele>707.5</ele>
        <time>2023-11-26T12:07:28Z</time>
      </trkpt>
      <trkpt lat="43.6196" lon="6.59643">
        <ele>707.4</ele>
        <time>2023-11-26T12:07:29Z</time>
      </trkpt>
      <trkpt lat="43.6196" lon="6.59641">
        <ele>707.2</ele>
        <time>2023-11-26T12:07:30Z</time>
      </trkpt>
      <trkpt lat="43.61959" lon="6.59639">
        <ele>707.1</ele>
        <time>2023-11-26T12:07:31Z</time>
      </trkpt>
      <trkpt lat="43.61959" lon="6.59637">
        <ele>707</ele>
        <time>2023-11-26T12:07:32Z</time>
      </trkpt>
      <trkpt lat="43.61959" lon="6.59635">
        <ele>706.9</ele>
        <time>2023-11-26T12:07:33Z</time>
      </trkpt>
      <trkpt lat="43.61959" lon="6.59634">
        <ele>706.8</ele>
        <time>2023-11-26T12:07:34Z</time>
      </trkpt>
      <trkpt lat="43.61959" lon="6.59632">
        <ele>706.7</ele>
        <time>2023-11-26T12:07:35Z</time>
      </trkpt>
      <trkpt lat="43.61959" lon="6.5963">
        <ele>706.6</ele>
        <time>2023-11-26T12:07:36Z</time>
      </trkpt>
      <trkpt lat="43.61958" lon="6.59629">
        <ele>706.5</ele>
        <time>2023-11-26T12:07:37Z</time>
      </trkpt>
      <trkpt lat="43.61958" lon="6.59627">
        <ele>706.3</ele>
        <time>2023-11-26T12:07:38Z</time>
      </trkpt>
      <trkpt lat="43.61958" lon="6.59625">
        <ele>706.2</ele>
        <time>2023-11-26T12:07:39Z</time>
      </trkpt>
      <trkpt lat="43.61957" lon="6.59623">
        <ele>706.1</ele>
        <time>2023-11-26T12:07:40Z</time>
      </trkpt>
      <trkpt lat="43.61956" lon="6.59621">
        <ele>706</ele>
        <time>2023-11-26T12:07:41Z</time>
      </trkpt>
      <trkpt lat="43.61956" lon="6.5962">
        <ele>705.8</ele>
        <time>2023-11-26T12:07:42Z</time>
      </trkpt>
      <trkpt lat="43.61955" lon="6.59619">
        <ele>705.7</ele>
        <time>2023-11-26T12:07:43Z</time>
      </trkpt>
      <trkpt lat="43.61954" lon="6.59617">
        <ele>705.5</ele>
        <time>2023-11-26T12:07:44Z</time>
      </trkpt>
      <trkpt lat="43.61954" lon="6.59615">
        <ele>705.4</ele>
        <time>2023-11-26T12:07:45Z</time>
      </trkpt>
      <trkpt lat="43.61953" lon="6.59613">
        <ele>705.3</ele>
        <time>2023-11-26T12:07:46Z</time>
      </trkpt>
      <trkpt lat="43.61953" lon="6.59612">
        <ele>705.2</ele>
        <time>2023-11-26T12:07:47Z</time>
      </trkpt>
      <trkpt lat="43.61952" lon="6.5961">
        <ele>705.2</ele>
        <time>2023-11-26T12:07:48Z</time>
      </trkpt>
      <trkpt lat="43.61951" lon="6.59609">
        <ele>705</ele>
        <time>2023-11-26T12:07:49Z</time>
      </trkpt>
      <trkpt lat="43.61951" lon="6.59608">
        <ele>704.9</ele>
        <time>2023-11-26T12:07:50Z</time>
      </trkpt>
      <trkpt lat="43.6195" lon="6.59606">
        <ele>704.7</ele>
        <time>2023-11-26T12:07:51Z</time>
      </trkpt>
      <trkpt lat="43.61949" lon="6.59605">
        <ele>704.6</ele>
        <time>2023-11-26T12:07:52Z</time>
      </trkpt>
      <trkpt lat="43.61949" lon="6.59604">
        <ele>704.4</ele>
        <time>2023-11-26T12:07:53Z</time>
      </trkpt>
      <trkpt lat="43.61948" lon="6.59603">
        <ele>704.2</ele>
        <time>2023-11-26T12:07:54Z</time>
      </trkpt>
      <trkpt lat="43.61947" lon="6.59602">
        <ele>704.2</ele>
        <time>2023-11-26T12:07:55Z</time>
      </trkpt>
      <trkpt lat="43.61946" lon="6.59601">
        <ele>704.1</ele>
        <time>2023-11-26T12:07:56Z</time>
      </trkpt>
      <trkpt lat="43.61946" lon="6.59599">
        <ele>704.1</ele>
        <time>2023-11-26T12:07:57Z</time>
      </trkpt>
      <trkpt lat="43.61945" lon="6.59598">
        <ele>704.1</ele>
        <time>2023-11-26T12:07:58Z</time>
      </trkpt>
      <trkpt lat="43.61944" lon="6.59597">
        <ele>704.1</ele>
        <time>2023-11-26T12:07:59Z</time>
      </trkpt>
      <trkpt lat="43.61943" lon="6.59595">
        <ele>704</ele>
        <time>2023-11-26T12:08:00Z</time>
      </trkpt>
      <trkpt lat="43.61942" lon="6.59594">
        <ele>703.9</ele>
        <time>2023-11-26T12:08:01Z</time>
      </trkpt>
      <trkpt lat="43.61941" lon="6.59593">
        <ele>703.9</ele>
        <time>2023-11-26T12:08:02Z</time>
      </trkpt>
      <trkpt lat="43.6194" lon="6.59592">
        <ele>703.8</ele>
        <time>2023-11-26T12:08:03Z</time>
      </trkpt>
      <trkpt lat="43.6194" lon="6.5959">
        <ele>703.6</ele>
        <time>2023-11-26T12:08:04Z</time>
      </trkpt>
      <trkpt lat="43.61939" lon="6.59589">
        <ele>703.5</ele>
        <time>2023-11-26T12:08:05Z</time>
      </trkpt>
      <trkpt lat="43.61938" lon="6.59588">
        <ele>703.3</ele>
        <time>2023-11-26T12:08:06Z</time>
      </trkpt>
      <trkpt lat="43.61937" lon="6.59586">
        <ele>703.1</ele>
        <time>2023-11-26T12:08:07Z</time>
      </trkpt>
      <trkpt lat="43.61936" lon="6.59585">
        <ele>702.9</ele>
        <time>2023-11-26T12:08:08Z</time>
      </trkpt>
      <trkpt lat="43.61935" lon="6.59583">
        <ele>702.7</ele>
        <time>2023-11-26T12:08:09Z</time>
      </trkpt>
      <trkpt lat="43.61934" lon="6.59582">
        <ele>702.6</ele>
        <time>2023-11-26T12:08:10Z</time>
      </trkpt>
      <trkpt lat="43.61933" lon="6.5958">
        <ele>702.4</ele>
        <time>2023-11-26T12:08:11Z</time>
      </trkpt>
      <trkpt lat="43.61933" lon="6.59578">
        <ele>702.3</ele>
        <time>2023-11-26T12:08:12Z</time>
      </trkpt>
      <trkpt lat="43.61933" lon="6.59577">
        <ele>702.2</ele>
        <time>2023-11-26T12:08:13Z</time>
      </trkpt>
      <trkpt lat="43.61932" lon="6.59576">
        <ele>702.1</ele>
        <time>2023-11-26T12:08:14Z</time>
      </trkpt>
      <trkpt lat="43.61931" lon="6.59575">
        <ele>702.1</ele>
        <time>2023-11-26T12:08:15Z</time>
      </trkpt>
      <trkpt lat="43.6193" lon="6.59574">
        <ele>702</ele>
        <time>2023-11-26T12:08:16Z</time>
      </trkpt>
      <trkpt lat="43.61929" lon="6.59572">
        <ele>701.9</ele>
        <time>2023-11-26T12:08:17Z</time>
      </trkpt>
      <trkpt lat="43.61928" lon="6.59571">
        <ele>701.8</ele>
        <time>2023-11-26T12:08:18Z</time>
      </trkpt>
      <trkpt lat="43.61927" lon="6.5957">
        <ele>701.6</ele>
        <time>2023-11-26T12:08:19Z</time>
      </trkpt>
      <trkpt lat="43.61926" lon="6.59569">
        <ele>701.5</ele>
        <time>2023-11-26T12:08:20Z</time>
      </trkpt>
      <trkpt lat="43.61926" lon="6.59567">
        <ele>701.4</ele>
        <time>2023-11-26T12:08:21Z</time>
      </trkpt>
      <trkpt lat="43.61924" lon="6.59566">
        <ele>701.3</ele>
        <time>2023-11-26T12:08:22Z</time>
      </trkpt>
      <trkpt lat="43.61924" lon="6.59565">
        <ele>701.2</ele>
        <time>2023-11-26T12:08:23Z</time>
      </trkpt>
      <trkpt lat="43.61923" lon="6.59564">
        <ele>701</ele>
        <time>2023-11-26T12:08:24Z</time>
      </trkpt>
      <trkpt lat="43.61922" lon="6.59564">
        <ele>700.9</ele>
        <time>2023-11-26T12:08:25Z</time>
      </trkpt>
      <trkpt lat="43.61921" lon="6.59562">
        <ele>700.8</ele>
        <time>2023-11-26T12:08:26Z</time>
      </trkpt>
      <trkpt lat="43.6192" lon="6.59562">
        <ele>700.8</ele>
        <time>2023-11-26T12:08:27Z</time>
      </trkpt>
      <trkpt lat="43.61918" lon="6.59561">
        <ele>700.7</ele>
        <time>2023-11-26T12:08:28Z</time>
      </trkpt>
      <trkpt lat="43.61917" lon="6.59561">
        <ele>700.6</ele>
        <time>2023-11-26T12:08:29Z</time>
      </trkpt>
      <trkpt lat="43.61916" lon="6.5956">
        <ele>700.6</ele>
        <time>2023-11-26T12:08:30Z</time>
      </trkpt>
      <trkpt lat="43.61916" lon="6.5956">
        <ele>700.5</ele>
        <time>2023-11-26T12:08:31Z</time>
      </trkpt>
      <trkpt lat="43.61915" lon="6.59559">
        <ele>700.5</ele>
        <time>2023-11-26T12:08:32Z</time>
      </trkpt>
      <trkpt lat="43.61915" lon="6.59558">
        <ele>700.4</ele>
        <time>2023-11-26T12:08:33Z</time>
      </trkpt>
      <trkpt lat="43.61914" lon="6.59558">
        <ele>700.4</ele>
        <time>2023-11-26T12:08:34Z</time>
      </trkpt>
      <trkpt lat="43.61914" lon="6.59557">
        <ele>700.3</ele>
        <time>2023-11-26T12:08:35Z</time>
      </trkpt>
      <trkpt lat="43.61914" lon="6.59558">
        <ele>700.2</ele>
        <time>2023-11-26T12:08:36Z</time>
      </trkpt>
      <trkpt lat="43.61914" lon="6.59558">
        <ele>700</ele>
        <time>2023-11-26T12:08:37Z</time>
      </trkpt>
      <trkpt lat="43.61914" lon="6.59558">
        <ele>700</ele>
        <time>2023-11-26T12:08:38Z</time>
      </trkpt>
      <trkpt lat="43.61913" lon="6.59558">
        <ele>700</ele>
        <time>2023-11-26T12:08:39Z</time>
      </trkpt>
      <trkpt lat="43.61913" lon="6.59558">
        <ele>700</ele>
        <time>2023-11-26T12:08:40Z</time>
      </trkpt>
      <trkpt lat="43.61913" lon="6.59558">
        <ele>699.9</ele>
        <time>2023-11-26T12:08:41Z</time>
      </trkpt>
      <trkpt lat="43.61912" lon="6.59558">
        <ele>699.9</ele>
        <time>2023-11-26T12:08:42Z</time>
      </trkpt>
      <trkpt lat="43.61911" lon="6.59558">
        <ele>699.8</ele>
        <time>2023-11-26T12:08:43Z</time>
      </trkpt>
      <trkpt lat="43.61911" lon="6.59558">
        <ele>699.8</ele>
        <time>2023-11-26T12:08:44Z</time>
      </trkpt>
      <trkpt lat="43.6191" lon="6.59557">
        <ele>699.7</ele>
        <time>2023-11-26T12:08:45Z</time>
      </trkpt>
      <trkpt lat="43.61909" lon="6.59557">
        <ele>699.6</ele>
        <time>2023-11-26T12:08:46Z</time>
      </trkpt>
      <trkpt lat="43.61909" lon="6.59556">
        <ele>699.6</ele>
        <time>2023-11-26T12:08:47Z</time>
      </trkpt>
      <trkpt lat="43.61908" lon="6.59556">
        <ele>699.6</ele>
        <time>2023-11-26T12:08:48Z</time>
      </trkpt>
      <trkpt lat="43.61908" lon="6.59556">
        <ele>699.6</ele>
        <time>2023-11-26T12:08:49Z</time>
      </trkpt>
      <trkpt lat="43.61908" lon="6.59556">
        <ele>699.6</ele>
        <time>2023-11-26T12:08:50Z</time>
      </trkpt>
      <trkpt lat="43.61908" lon="6.59556">
        <ele>699.6</ele>
        <time>2023-11-26T12:08:51Z</time>
      </trkpt>
      <trkpt lat="43.61907" lon="6.59555">
        <ele>699.6</ele>
        <time>2023-11-26T12:08:52Z</time>
      </trkpt>
      <trkpt lat="43.61907" lon="6.59555">
        <ele>699.5</ele>
        <time>2023-11-26T12:08:53Z</time>
      </trkpt>
      <trkpt lat="43.61906" lon="6.59555">
        <ele>699.5</ele>
        <time>2023-11-26T12:08:54Z</time>
      </trkpt>
      <trkpt lat="43.61906" lon="6.59555">
        <ele>699.4</ele>
        <time>2023-11-26T12:08:55Z</time>
      </trkpt>
      <trkpt lat="43.61906" lon="6.59554">
        <ele>699.4</ele>
        <time>2023-11-26T12:08:56Z</time>
      </trkpt>
      <trkpt lat="43.61907" lon="6.59554">
        <ele>699.4</ele>
        <time>2023-11-26T12:08:57Z</time>
      </trkpt>
      <trkpt lat="43.61907" lon="6.59553">
        <ele>699.4</ele>
        <time>2023-11-26T12:08:58Z</time>
      </trkpt>
      <trkpt lat="43.61907" lon="6.59553">
        <ele>699.3</ele>
        <time>2023-11-26T12:08:59Z</time>
      </trkpt>
      <trkpt lat="43.61907" lon="6.59553">
        <ele>699.3</ele>
        <time>2023-11-26T12:09:00Z</time>
      </trkpt>
      <trkpt lat="43.61907" lon="6.59553">
        <ele>699.3</ele>
        <time>2023-11-26T12:09:01Z</time>
      </trkpt>
      <trkpt lat="43.61907" lon="6.59553">
        <ele>699.3</ele>
        <time>2023-11-26T12:09:02Z</time>
      </trkpt>
      <trkpt lat="43.61906" lon="6.59554">
        <ele>699.3</ele>
        <time>2023-11-26T12:09:03Z</time>
      </trkpt>
      <trkpt lat="43.61906" lon="6.59553">
        <ele>699.3</ele>
        <time>2023-11-26T12:09:04Z</time>
      </trkpt>
      <trkpt lat="43.61906" lon="6.59554">
        <ele>699.3</ele>
        <time>2023-11-26T12:09:05Z</time>
      </trkpt>
      <trkpt lat="43.61906" lon="6.59553">
        <ele>699.2</ele>
        <time>2023-11-26T12:09:06Z</time>
      </trkpt>
      <trkpt lat="43.61906" lon="6.59553">
        <ele>699.2</ele>
        <time>2023-11-26T12:09:07Z</time>
      </trkpt>
      <trkpt lat="43.61906" lon="6.59552">
        <ele>699.2</ele>
        <time>2023-11-26T12:09:08Z</time>
      </trkpt>
      <trkpt lat="43.61906" lon="6.59552">
        <ele>699.2</ele>
        <time>2023-11-26T12:09:09Z</time>
      </trkpt>
      <trkpt lat="43.61906" lon="6.59552">
        <ele>699.1</ele>
        <time>2023-11-26T12:09:10Z</time>
      </trkpt>
      <trkpt lat="43.61906" lon="6.59551">
        <ele>699.1</ele>
        <time>2023-11-26T12:09:11Z</time>
      </trkpt>
      <trkpt lat="43.61905" lon="6.59551">
        <ele>699.2</ele>
        <time>2023-11-26T12:09:12Z</time>
      </trkpt>
      <trkpt lat="43.61905" lon="6.59551">
        <ele>699.1</ele>
        <time>2023-11-26T12:09:13Z</time>
      </trkpt>
      <trkpt lat="43.61904" lon="6.59551">
        <ele>699</ele>
        <time>2023-11-26T12:09:14Z</time>
      </trkpt>
      <trkpt lat="43.61904" lon="6.59551">
        <ele>699</ele>
        <time>2023-11-26T12:09:15Z</time>
      </trkpt>
      <trkpt lat="43.61904" lon="6.59551">
        <ele>699</ele>
        <time>2023-11-26T12:09:16Z</time>
      </trkpt>
      <trkpt lat="43.61904" lon="6.59551">
        <ele>699.1</ele>
        <time>2023-11-26T12:09:17Z</time>
      </trkpt>
      <trkpt lat="43.61904" lon="6.59551">
        <ele>699.1</ele>
        <time>2023-11-26T12:09:18Z</time>
      </trkpt>
      <trkpt lat="43.61904" lon="6.59551">
        <ele>699.1</ele>
        <time>2023-11-26T12:09:19Z</time>
      </trkpt>
      <trkpt lat="43.61904" lon="6.59551">
        <ele>699.2</ele>
        <time>2023-11-26T12:09:20Z</time>
      </trkpt>
      <trkpt lat="43.61903" lon="6.59551">
        <ele>699.3</ele>
        <time>2023-11-26T12:09:21Z</time>
      </trkpt>
      <trkpt lat="43.61903" lon="6.59551">
        <ele>699.4</ele>
        <time>2023-11-26T12:09:22Z</time>
      </trkpt>
      <trkpt lat="43.61903" lon="6.59551">
        <ele>699.4</ele>
        <time>2023-11-26T12:09:23Z</time>
      </trkpt>
      <trkpt lat="43.61903" lon="6.59551">
        <ele>699.3</ele>
        <time>2023-11-26T12:09:24Z</time>
      </trkpt>
      <trkpt lat="43.61903" lon="6.59551">
        <ele>699.3</ele>
        <time>2023-11-26T12:09:25Z</time>
      </trkpt>
      <trkpt lat="43.61903" lon="6.59551">
        <ele>699.3</ele>
        <time>2023-11-26T12:09:26Z</time>
      </trkpt>
      <trkpt lat="43.61902" lon="6.59551">
        <ele>699.3</ele>
        <time>2023-11-26T12:09:27Z</time>
      </trkpt>
      <trkpt lat="43.61902" lon="6.59551">
        <ele>699.3</ele>
        <time>2023-11-26T12:09:28Z</time>
      </trkpt>
      <trkpt lat="43.61902" lon="6.59551">
        <ele>699.3</ele>
        <time>2023-11-26T12:09:29Z</time>
      </trkpt>
      <trkpt lat="43.61902" lon="6.59551">
        <ele>699.2</ele>
        <time>2023-11-26T12:09:30Z</time>
      </trkpt>
      <trkpt lat="43.61902" lon="6.59551">
        <ele>699.3</ele>
        <time>2023-11-26T12:09:31Z</time>
      </trkpt>
      <trkpt lat="43.61902" lon="6.59551">
        <ele>699.4</ele>
        <time>2023-11-26T12:09:32Z</time>
      </trkpt>
      <trkpt lat="43.61902" lon="6.5955">
        <ele>699.5</ele>
        <time>2023-11-26T12:09:33Z</time>
      </trkpt>
      <trkpt lat="43.61902" lon="6.5955">
        <ele>699.5</ele>
        <time>2023-11-26T12:09:34Z</time>
      </trkpt>
      <trkpt lat="43.61902" lon="6.5955">
        <ele>699.4</ele>
        <time>2023-11-26T12:09:35Z</time>
      </trkpt>
      <trkpt lat="43.61902" lon="6.5955">
        <ele>699.4</ele>
        <time>2023-11-26T12:09:36Z</time>
      </trkpt>
      <trkpt lat="43.61902" lon="6.59551">
        <ele>699.3</ele>
        <time>2023-11-26T12:09:37Z</time>
      </trkpt>
      <trkpt lat="43.61902" lon="6.59551">
        <ele>699.3</ele>
        <time>2023-11-26T12:09:38Z</time>
      </trkpt>
      <trkpt lat="43.61901" lon="6.59551">
        <ele>699.3</ele>
        <time>2023-11-26T12:09:39Z</time>
      </trkpt>
      <trkpt lat="43.61901" lon="6.59551">
        <ele>699.3</ele>
        <time>2023-11-26T12:09:40Z</time>
      </trkpt>
      <trkpt lat="43.61901" lon="6.5955">
        <ele>699.3</ele>
        <time>2023-11-26T12:09:41Z</time>
      </trkpt>
      <trkpt lat="43.61901" lon="6.5955">
        <ele>699.4</ele>
        <time>2023-11-26T12:09:42Z</time>
      </trkpt>
      <trkpt lat="43.61901" lon="6.5955">
        <ele>699.4</ele>
        <time>2023-11-26T12:09:43Z</time>
      </trkpt>
      <trkpt lat="43.61901" lon="6.5955">
        <ele>699.4</ele>
        <time>2023-11-26T12:09:44Z</time>
      </trkpt>
      <trkpt lat="43.61901" lon="6.5955">
        <ele>699.4</ele>
        <time>2023-11-26T12:09:45Z</time>
      </trkpt>
      <trkpt lat="43.61901" lon="6.5955">
        <ele>699.4</ele>
        <time>2023-11-26T12:09:46Z</time>
      </trkpt>
      <trkpt lat="43.61901" lon="6.5955">
        <ele>699.3</ele>
        <time>2023-11-26T12:09:47Z</time>
      </trkpt>
      <trkpt lat="43.619" lon="6.5955">
        <ele>699.3</ele>
        <time>2023-11-26T12:09:48Z</time>
      </trkpt>
      <trkpt lat="43.619" lon="6.5955">
        <ele>699.3</ele>
        <time>2023-11-26T12:09:49Z</time>
      </trkpt>
      <trkpt lat="43.619" lon="6.5955">
        <ele>699.3</ele>
        <time>2023-11-26T12:09:50Z</time>
      </trkpt>
      <trkpt lat="43.619" lon="6.5955">
        <ele>699.2</ele>
        <time>2023-11-26T12:09:51Z</time>
      </trkpt>
      <trkpt lat="43.619" lon="6.5955">
        <ele>699.3</ele>
        <time>2023-11-26T12:09:52Z</time>
      </trkpt>
      <trkpt lat="43.619" lon="6.59549">
        <ele>699.3</ele>
        <time>2023-11-26T12:09:53Z</time>
      </trkpt>
      <trkpt lat="43.619" lon="6.59549">
        <ele>699.3</ele>
        <time>2023-11-26T12:09:54Z</time>
      </trkpt>
      <trkpt lat="43.619" lon="6.59549">
        <ele>699.3</ele>
        <time>2023-11-26T12:09:55Z</time>
      </trkpt>
      <trkpt lat="43.619" lon="6.59549">
        <ele>699.4</ele>
        <time>2023-11-26T12:09:56Z</time>
      </trkpt>
      <trkpt lat="43.619" lon="6.59549">
        <ele>699.5</ele>
        <time>2023-11-26T12:09:57Z</time>
      </trkpt>
      <trkpt lat="43.619" lon="6.59549">
        <ele>699.5</ele>
        <time>2023-11-26T12:09:58Z</time>
      </trkpt>
      <trkpt lat="43.619" lon="6.59549">
        <ele>699.5</ele>
        <time>2023-11-26T12:09:59Z</time>
      </trkpt>
      <trkpt lat="43.619" lon="6.59549">
        <ele>699.5</ele>
        <time>2023-11-26T12:10:00Z</time>
      </trkpt>
      <trkpt lat="43.619" lon="6.59549">
        <ele>699.5</ele>
        <time>2023-11-26T12:10:01Z</time>
      </trkpt>
      <trkpt lat="43.619" lon="6.59549">
        <ele>699.5</ele>
        <time>2023-11-26T12:10:02Z</time>
      </trkpt>
      <trkpt lat="43.61899" lon="6.59549">
        <ele>699.5</ele>
        <time>2023-11-26T12:10:03Z</time>
      </trkpt>
      <trkpt lat="43.61899" lon="6.59549">
        <ele>699.5</ele>
        <time>2023-11-26T12:10:04Z</time>
      </trkpt>
      <trkpt lat="43.61899" lon="6.59549">
        <ele>699.6</ele>
        <time>2023-11-26T12:10:05Z</time>
      </trkpt>
      <trkpt lat="43.61899" lon="6.59549">
        <ele>699.6</ele>
        <time>2023-11-26T12:10:06Z</time>
      </trkpt>
      <trkpt lat="43.61899" lon="6.59549">
        <ele>699.6</ele>
        <time>2023-11-26T12:10:07Z</time>
      </trkpt>
      <trkpt lat="43.61899" lon="6.59549">
        <ele>699.6</ele>
        <time>2023-11-26T12:10:08Z</time>
      </trkpt>
      <trkpt lat="43.61899" lon="6.59549">
        <ele>699.6</ele>
        <time>2023-11-26T12:10:09Z</time>
      </trkpt>
      <trkpt lat="43.61899" lon="6.59549">
        <ele>699.4</ele>
        <time>2023-11-26T12:10:10Z</time>
      </trkpt>
      <trkpt lat="43.61899" lon="6.5955">
        <ele>699.5</ele>
        <time>2023-11-26T12:10:11Z</time>
      </trkpt>
      <trkpt lat="43.61899" lon="6.59549">
        <ele>699.5</ele>
        <time>2023-11-26T12:10:12Z</time>
      </trkpt>
      <trkpt lat="43.619" lon="6.59549">
        <ele>699.5</ele>
        <time>2023-11-26T12:10:13Z</time>
      </trkpt>
      <trkpt lat="43.619" lon="6.59548">
        <ele>699.5</ele>
        <time>2023-11-26T12:10:14Z</time>
      </trkpt>
      <trkpt lat="43.619" lon="6.59548">
        <ele>699.4</ele>
        <time>2023-11-26T12:10:15Z</time>
      </trkpt>
      <trkpt lat="43.619" lon="6.59548">
        <ele>699.4</ele>
        <time>2023-11-26T12:10:16Z</time>
      </trkpt>
      <trkpt lat="43.619" lon="6.59549">
        <ele>699.4</ele>
        <time>2023-11-26T12:10:17Z</time>
      </trkpt>
      <trkpt lat="43.619" lon="6.59549">
        <ele>699.3</ele>
        <time>2023-11-26T12:10:18Z</time>
      </trkpt>
      <trkpt lat="43.619" lon="6.59549">
        <ele>699.3</ele>
        <time>2023-11-26T12:10:19Z</time>
      </trkpt>
      <trkpt lat="43.619" lon="6.59549">
        <ele>699.2</ele>
        <time>2023-11-26T12:10:20Z</time>
      </trkpt>
      <trkpt lat="43.619" lon="6.59549">
        <ele>699.1</ele>
        <time>2023-11-26T12:10:21Z</time>
      </trkpt>
      <trkpt lat="43.61899" lon="6.59548">
        <ele>699.1</ele>
        <time>2023-11-26T12:10:22Z</time>
      </trkpt>
      <trkpt lat="43.61899" lon="6.59549">
        <ele>699</ele>
        <time>2023-11-26T12:10:23Z</time>
      </trkpt>
      <trkpt lat="43.61898" lon="6.59548">
        <ele>698.9</ele>
        <time>2023-11-26T12:10:24Z</time>
      </trkpt>
      <trkpt lat="43.61897" lon="6.59548">
        <ele>698.9</ele>
        <time>2023-11-26T12:10:25Z</time>
      </trkpt>
      <trkpt lat="43.61895" lon="6.59547">
        <ele>698.8</ele>
        <time>2023-11-26T12:10:26Z</time>
      </trkpt>
      <trkpt lat="43.61895" lon="6.59547">
        <ele>698.8</ele>
        <time>2023-11-26T12:10:27Z</time>
      </trkpt>
      <trkpt lat="43.61894" lon="6.59547">
        <ele>698.7</ele>
        <time>2023-11-26T12:10:28Z</time>
      </trkpt>
      <trkpt lat="43.61893" lon="6.59547">
        <ele>698.7</ele>
        <time>2023-11-26T12:10:29Z</time>
      </trkpt>
      <trkpt lat="43.61892" lon="6.59549">
        <ele>698.7</ele>
        <time>2023-11-26T12:10:30Z</time>
      </trkpt>
      <trkpt lat="43.61892" lon="6.59549">
        <ele>698.7</ele>
        <time>2023-11-26T12:10:31Z</time>
      </trkpt>
      <trkpt lat="43.61891" lon="6.59548">
        <ele>698.6</ele>
        <time>2023-11-26T12:10:32Z</time>
      </trkpt>
      <trkpt lat="43.6189" lon="6.59548">
        <ele>698.4</ele>
        <time>2023-11-26T12:10:33Z</time>
      </trkpt>
      <trkpt lat="43.61889" lon="6.59548">
        <ele>698.3</ele>
        <time>2023-11-26T12:10:34Z</time>
      </trkpt>
      <trkpt lat="43.61888" lon="6.59547">
        <ele>698.1</ele>
        <time>2023-11-26T12:10:35Z</time>
      </trkpt>
      <trkpt lat="43.61887" lon="6.59547">
        <ele>698</ele>
        <time>2023-11-26T12:10:36Z</time>
      </trkpt>
      <trkpt lat="43.61886" lon="6.59547">
        <ele>697.9</ele>
        <time>2023-11-26T12:10:37Z</time>
      </trkpt>
      <trkpt lat="43.61885" lon="6.59546">
        <ele>697.8</ele>
        <time>2023-11-26T12:10:38Z</time>
      </trkpt>
      <trkpt lat="43.61885" lon="6.59546">
        <ele>697.6</ele>
        <time>2023-11-26T12:10:39Z</time>
      </trkpt>
      <trkpt lat="43.61884" lon="6.59546">
        <ele>697.5</ele>
        <time>2023-11-26T12:10:40Z</time>
      </trkpt>
      <trkpt lat="43.61883" lon="6.59545">
        <ele>697.5</ele>
        <time>2023-11-26T12:10:41Z</time>
      </trkpt>
      <trkpt lat="43.61882" lon="6.59545">
        <ele>697.4</ele>
        <time>2023-11-26T12:10:42Z</time>
      </trkpt>
      <trkpt lat="43.61881" lon="6.59544">
        <ele>697.3</ele>
        <time>2023-11-26T12:10:43Z</time>
      </trkpt>
      <trkpt lat="43.6188" lon="6.59543">
        <ele>697.1</ele>
        <time>2023-11-26T12:10:44Z</time>
      </trkpt>
      <trkpt lat="43.61879" lon="6.59543">
        <ele>696.9</ele>
        <time>2023-11-26T12:10:45Z</time>
      </trkpt>
      <trkpt lat="43.61879" lon="6.59542">
        <ele>696.8</ele>
        <time>2023-11-26T12:10:46Z</time>
      </trkpt>
      <trkpt lat="43.61878" lon="6.59542">
        <ele>696.5</ele>
        <time>2023-11-26T12:10:47Z</time>
      </trkpt>
      <trkpt lat="43.61877" lon="6.59542">
        <ele>696.3</ele>
        <time>2023-11-26T12:10:48Z</time>
      </trkpt>
      <trkpt lat="43.61876" lon="6.59542">
        <ele>696.3</ele>
        <time>2023-11-26T12:10:49Z</time>
      </trkpt>
      <trkpt lat="43.61875" lon="6.59542">
        <ele>696.2</ele>
        <time>2023-11-26T12:10:50Z</time>
      </trkpt>
      <trkpt lat="43.61874" lon="6.59542">
        <ele>696.2</ele>
        <time>2023-11-26T12:10:51Z</time>
      </trkpt>
      <trkpt lat="43.61873" lon="6.59542">
        <ele>696.2</ele>
        <time>2023-11-26T12:10:52Z</time>
      </trkpt>
      <trkpt lat="43.61872" lon="6.59542">
        <ele>696.1</ele>
        <time>2023-11-26T12:10:53Z</time>
      </trkpt>
      <trkpt lat="43.61871" lon="6.59542">
        <ele>696.1</ele>
        <time>2023-11-26T12:10:54Z</time>
      </trkpt>
      <trkpt lat="43.6187" lon="6.59542">
        <ele>696</ele>
        <time>2023-11-26T12:10:55Z</time>
      </trkpt>
      <trkpt lat="43.61868" lon="6.59542">
        <ele>696</ele>
        <time>2023-11-26T12:10:56Z</time>
      </trkpt>
      <trkpt lat="43.61867" lon="6.59542">
        <ele>695.9</ele>
        <time>2023-11-26T12:10:57Z</time>
      </trkpt>
      <trkpt lat="43.61867" lon="6.59542">
        <ele>695.8</ele>
        <time>2023-11-26T12:10:58Z</time>
      </trkpt>
      <trkpt lat="43.61866" lon="6.59542">
        <ele>695.7</ele>
        <time>2023-11-26T12:10:59Z</time>
      </trkpt>
      <trkpt lat="43.61865" lon="6.59542">
        <ele>695.5</ele>
        <time>2023-11-26T12:11:00Z</time>
      </trkpt>
      <trkpt lat="43.61864" lon="6.59541">
        <ele>695.2</ele>
        <time>2023-11-26T12:11:01Z</time>
      </trkpt>
      <trkpt lat="43.61862" lon="6.59541">
        <ele>695.1</ele>
        <time>2023-11-26T12:11:02Z</time>
      </trkpt>
      <trkpt lat="43.61861" lon="6.59542">
        <ele>695</ele>
        <time>2023-11-26T12:11:03Z</time>
      </trkpt>
      <trkpt lat="43.61859" lon="6.59541">
        <ele>694.8</ele>
        <time>2023-11-26T12:11:04Z</time>
      </trkpt>
      <trkpt lat="43.61858" lon="6.59541">
        <ele>694.7</ele>
        <time>2023-11-26T12:11:05Z</time>
      </trkpt>
      <trkpt lat="43.61857" lon="6.59541">
        <ele>694.6</ele>
        <time>2023-11-26T12:11:06Z</time>
      </trkpt>
      <trkpt lat="43.61856" lon="6.59541">
        <ele>694.5</ele>
        <time>2023-11-26T12:11:07Z</time>
      </trkpt>
      <trkpt lat="43.61854" lon="6.59541">
        <ele>694.4</ele>
        <time>2023-11-26T12:11:08Z</time>
      </trkpt>
      <trkpt lat="43.61853" lon="6.59541">
        <ele>694.3</ele>
        <time>2023-11-26T12:11:09Z</time>
      </trkpt>
      <trkpt lat="43.61852" lon="6.59542">
        <ele>694.2</ele>
        <time>2023-11-26T12:11:10Z</time>
      </trkpt>
      <trkpt lat="43.61851" lon="6.59543">
        <ele>694.1</ele>
        <time>2023-11-26T12:11:11Z</time>
      </trkpt>
      <trkpt lat="43.6185" lon="6.59543">
        <ele>694</ele>
        <time>2023-11-26T12:11:12Z</time>
      </trkpt>
      <trkpt lat="43.61849" lon="6.59543">
        <ele>694.1</ele>
        <time>2023-11-26T12:11:13Z</time>
      </trkpt>
      <trkpt lat="43.61848" lon="6.59543">
        <ele>694</ele>
        <time>2023-11-26T12:11:14Z</time>
      </trkpt>
      <trkpt lat="43.61847" lon="6.59543">
        <ele>693.9</ele>
        <time>2023-11-26T12:11:15Z</time>
      </trkpt>
      <trkpt lat="43.61845" lon="6.59543">
        <ele>693.7</ele>
        <time>2023-11-26T12:11:16Z</time>
      </trkpt>
      <trkpt lat="43.61844" lon="6.59542">
        <ele>693.5</ele>
        <time>2023-11-26T12:11:17Z</time>
      </trkpt>
      <trkpt lat="43.61843" lon="6.59542">
        <ele>693.3</ele>
        <time>2023-11-26T12:11:18Z</time>
      </trkpt>
      <trkpt lat="43.61841" lon="6.59542">
        <ele>693.2</ele>
        <time>2023-11-26T12:11:19Z</time>
      </trkpt>
      <trkpt lat="43.6184" lon="6.59543">
        <ele>693.1</ele>
        <time>2023-11-26T12:11:20Z</time>
      </trkpt>
      <trkpt lat="43.61838" lon="6.59542">
        <ele>692.8</ele>
        <time>2023-11-26T12:11:21Z</time>
      </trkpt>
      <trkpt lat="43.61837" lon="6.59543">
        <ele>692.6</ele>
        <time>2023-11-26T12:11:22Z</time>
      </trkpt>
      <trkpt lat="43.61836" lon="6.59543">
        <ele>692.4</ele>
        <time>2023-11-26T12:11:23Z</time>
      </trkpt>
      <trkpt lat="43.61835" lon="6.59544">
        <ele>692.1</ele>
        <time>2023-11-26T12:11:24Z</time>
      </trkpt>
      <trkpt lat="43.61833" lon="6.59544">
        <ele>691.9</ele>
        <time>2023-11-26T12:11:25Z</time>
      </trkpt>
      <trkpt lat="43.61832" lon="6.59544">
        <ele>691.8</ele>
        <time>2023-11-26T12:11:26Z</time>
      </trkpt>
      <trkpt lat="43.61831" lon="6.59544">
        <ele>691.6</ele>
        <time>2023-11-26T12:11:27Z</time>
      </trkpt>
      <trkpt lat="43.6183" lon="6.59544">
        <ele>691.5</ele>
        <time>2023-11-26T12:11:28Z</time>
      </trkpt>
      <trkpt lat="43.61829" lon="6.59545">
        <ele>691.4</ele>
        <time>2023-11-26T12:11:29Z</time>
      </trkpt>
      <trkpt lat="43.61828" lon="6.59545">
        <ele>691.2</ele>
        <time>2023-11-26T12:11:30Z</time>
      </trkpt>
      <trkpt lat="43.61827" lon="6.59546">
        <ele>691.1</ele>
        <time>2023-11-26T12:11:31Z</time>
      </trkpt>
      <trkpt lat="43.61826" lon="6.59546">
        <ele>691.1</ele>
        <time>2023-11-26T12:11:32Z</time>
      </trkpt>
      <trkpt lat="43.61824" lon="6.59547">
        <ele>691</ele>
        <time>2023-11-26T12:11:33Z</time>
      </trkpt>
      <trkpt lat="43.61823" lon="6.59548">
        <ele>691</ele>
        <time>2023-11-26T12:11:34Z</time>
      </trkpt>
      <trkpt lat="43.61822" lon="6.59548">
        <ele>690.9</ele>
        <time>2023-11-26T12:11:35Z</time>
      </trkpt>
      <trkpt lat="43.61821" lon="6.59548">
        <ele>690.8</ele>
        <time>2023-11-26T12:11:36Z</time>
      </trkpt>
      <trkpt lat="43.61819" lon="6.59549">
        <ele>690.7</ele>
        <time>2023-11-26T12:11:37Z</time>
      </trkpt>
      <trkpt lat="43.61818" lon="6.5955">
        <ele>690.5</ele>
        <time>2023-11-26T12:11:38Z</time>
      </trkpt>
      <trkpt lat="43.61817" lon="6.5955">
        <ele>690.4</ele>
        <time>2023-11-26T12:11:39Z</time>
      </trkpt>
      <trkpt lat="43.61816" lon="6.59551">
        <ele>690.3</ele>
        <time>2023-11-26T12:11:40Z</time>
      </trkpt>
      <trkpt lat="43.61814" lon="6.59551">
        <ele>690.1</ele>
        <time>2023-11-26T12:11:41Z</time>
      </trkpt>
      <trkpt lat="43.61813" lon="6.59551">
        <ele>690</ele>
        <time>2023-11-26T12:11:42Z</time>
      </trkpt>
      <trkpt lat="43.61812" lon="6.59552">
        <ele>689.8</ele>
        <time>2023-11-26T12:11:43Z</time>
      </trkpt>
      <trkpt lat="43.6181" lon="6.59553">
        <ele>689.7</ele>
        <time>2023-11-26T12:11:44Z</time>
      </trkpt>
      <trkpt lat="43.61809" lon="6.59553">
        <ele>689.6</ele>
        <time>2023-11-26T12:11:45Z</time>
      </trkpt>
      <trkpt lat="43.61808" lon="6.59553">
        <ele>689.5</ele>
        <time>2023-11-26T12:11:46Z</time>
      </trkpt>
      <trkpt lat="43.61806" lon="6.59554">
        <ele>689.3</ele>
        <time>2023-11-26T12:11:47Z</time>
      </trkpt>
      <trkpt lat="43.61805" lon="6.59554">
        <ele>689.4</ele>
        <time>2023-11-26T12:11:48Z</time>
      </trkpt>
      <trkpt lat="43.61803" lon="6.59554">
        <ele>689.3</ele>
        <time>2023-11-26T12:11:49Z</time>
      </trkpt>
      <trkpt lat="43.61802" lon="6.59554">
        <ele>689</ele>
        <time>2023-11-26T12:11:50Z</time>
      </trkpt>
      <trkpt lat="43.61801" lon="6.59554">
        <ele>688.8</ele>
        <time>2023-11-26T12:11:51Z</time>
      </trkpt>
      <trkpt lat="43.61799" lon="6.59555">
        <ele>688.7</ele>
        <time>2023-11-26T12:11:52Z</time>
      </trkpt>
      <trkpt lat="43.61798" lon="6.59555">
        <ele>688.9</ele>
        <time>2023-11-26T12:11:53Z</time>
      </trkpt>
      <trkpt lat="43.61796" lon="6.59555">
        <ele>688.8</ele>
        <time>2023-11-26T12:11:54Z</time>
      </trkpt>
      <trkpt lat="43.61795" lon="6.59556">
        <ele>688.6</ele>
        <time>2023-11-26T12:11:55Z</time>
      </trkpt>
      <trkpt lat="43.61793" lon="6.59557">
        <ele>688.5</ele>
        <time>2023-11-26T12:11:56Z</time>
      </trkpt>
      <trkpt lat="43.61792" lon="6.59558">
        <ele>688.4</ele>
        <time>2023-11-26T12:11:57Z</time>
      </trkpt>
      <trkpt lat="43.61791" lon="6.59558">
        <ele>688.3</ele>
        <time>2023-11-26T12:11:58Z</time>
      </trkpt>
      <trkpt lat="43.61789" lon="6.59558">
        <ele>688.2</ele>
        <time>2023-11-26T12:11:59Z</time>
      </trkpt>
      <trkpt lat="43.61788" lon="6.59558">
        <ele>688.1</ele>
        <time>2023-11-26T12:12:00Z</time>
      </trkpt>
      <trkpt lat="43.61786" lon="6.59559">
        <ele>688.1</ele>
        <time>2023-11-26T12:12:01Z</time>
      </trkpt>
      <trkpt lat="43.61785" lon="6.5956">
        <ele>688</ele>
        <time>2023-11-26T12:12:02Z</time>
      </trkpt>
      <trkpt lat="43.61784" lon="6.5956">
        <ele>687.9</ele>
        <time>2023-11-26T12:12:03Z</time>
      </trkpt>
      <trkpt lat="43.61782" lon="6.59561">
        <ele>687.7</ele>
        <time>2023-11-26T12:12:04Z</time>
      </trkpt>
      <trkpt lat="43.61781" lon="6.59561">
        <ele>687.6</ele>
        <time>2023-11-26T12:12:05Z</time>
      </trkpt>
      <trkpt lat="43.6178" lon="6.59561">
        <ele>687.4</ele>
        <time>2023-11-26T12:12:06Z</time>
      </trkpt>
      <trkpt lat="43.61779" lon="6.59561">
        <ele>687.3</ele>
        <time>2023-11-26T12:12:07Z</time>
      </trkpt>
      <trkpt lat="43.61777" lon="6.59562">
        <ele>687.2</ele>
        <time>2023-11-26T12:12:08Z</time>
      </trkpt>
      <trkpt lat="43.61776" lon="6.59561">
        <ele>687.1</ele>
        <time>2023-11-26T12:12:09Z</time>
      </trkpt>
      <trkpt lat="43.61775" lon="6.59562">
        <ele>687</ele>
        <time>2023-11-26T12:12:10Z</time>
      </trkpt>
      <trkpt lat="43.61774" lon="6.59563">
        <ele>686.9</ele>
        <time>2023-11-26T12:12:11Z</time>
      </trkpt>
      <trkpt lat="43.61773" lon="6.59564">
        <ele>686.7</ele>
        <time>2023-11-26T12:12:12Z</time>
      </trkpt>
      <trkpt lat="43.61772" lon="6.59564">
        <ele>686.5</ele>
        <time>2023-11-26T12:12:13Z</time>
      </trkpt>
      <trkpt lat="43.61771" lon="6.59565">
        <ele>686.4</ele>
        <time>2023-11-26T12:12:14Z</time>
      </trkpt>
      <trkpt lat="43.6177" lon="6.59566">
        <ele>686.3</ele>
        <time>2023-11-26T12:12:15Z</time>
      </trkpt>
      <trkpt lat="43.61769" lon="6.59567">
        <ele>686.1</ele>
        <time>2023-11-26T12:12:16Z</time>
      </trkpt>
      <trkpt lat="43.61768" lon="6.59568">
        <ele>686</ele>
        <time>2023-11-26T12:12:17Z</time>
      </trkpt>
      <trkpt lat="43.61767" lon="6.59569">
        <ele>685.9</ele>
        <time>2023-11-26T12:12:18Z</time>
      </trkpt>
      <trkpt lat="43.61766" lon="6.59571">
        <ele>685.9</ele>
        <time>2023-11-26T12:12:19Z</time>
      </trkpt>
      <trkpt lat="43.61765" lon="6.59571">
        <ele>685.8</ele>
        <time>2023-11-26T12:12:20Z</time>
      </trkpt>
      <trkpt lat="43.61764" lon="6.59572">
        <ele>685.7</ele>
        <time>2023-11-26T12:12:21Z</time>
      </trkpt>
      <trkpt lat="43.61763" lon="6.59573">
        <ele>685.5</ele>
        <time>2023-11-26T12:12:22Z</time>
      </trkpt>
      <trkpt lat="43.61761" lon="6.59574">
        <ele>685.5</ele>
        <time>2023-11-26T12:12:23Z</time>
      </trkpt>
      <trkpt lat="43.6176" lon="6.59574">
        <ele>685.3</ele>
        <time>2023-11-26T12:12:24Z</time>
      </trkpt>
      <trkpt lat="43.61758" lon="6.59574">
        <ele>685.2</ele>
        <time>2023-11-26T12:12:25Z</time>
      </trkpt>
      <trkpt lat="43.61757" lon="6.59575">
        <ele>685.2</ele>
        <time>2023-11-26T12:12:26Z</time>
      </trkpt>
      <trkpt lat="43.61755" lon="6.59575">
        <ele>685</ele>
        <time>2023-11-26T12:12:27Z</time>
      </trkpt>
      <trkpt lat="43.61754" lon="6.59576">
        <ele>684.8</ele>
        <time>2023-11-26T12:12:28Z</time>
      </trkpt>
      <trkpt lat="43.61753" lon="6.59576">
        <ele>684.5</ele>
        <time>2023-11-26T12:12:29Z</time>
      </trkpt>
      <trkpt lat="43.61752" lon="6.59577">
        <ele>684.3</ele>
        <time>2023-11-26T12:12:30Z</time>
      </trkpt>
      <trkpt lat="43.6175" lon="6.59578">
        <ele>684.1</ele>
        <time>2023-11-26T12:12:31Z</time>
      </trkpt>
      <trkpt lat="43.61749" lon="6.59578">
        <ele>683.9</ele>
        <time>2023-11-26T12:12:32Z</time>
      </trkpt>
      <trkpt lat="43.61748" lon="6.5958">
        <ele>683.7</ele>
        <time>2023-11-26T12:12:33Z</time>
      </trkpt>
      <trkpt lat="43.61747" lon="6.59581">
        <ele>683.5</ele>
        <time>2023-11-26T12:12:34Z</time>
      </trkpt>
      <trkpt lat="43.61746" lon="6.59583">
        <ele>683.4</ele>
        <time>2023-11-26T12:12:35Z</time>
      </trkpt>
      <trkpt lat="43.61745" lon="6.59585">
        <ele>683.2</ele>
        <time>2023-11-26T12:12:36Z</time>
      </trkpt>
      <trkpt lat="43.61744" lon="6.59587">
        <ele>683</ele>
        <time>2023-11-26T12:12:37Z</time>
      </trkpt>
      <trkpt lat="43.61744" lon="6.59589">
        <ele>682.8</ele>
        <time>2023-11-26T12:12:38Z</time>
      </trkpt>
      <trkpt lat="43.61743" lon="6.59592">
        <ele>682.7</ele>
        <time>2023-11-26T12:12:39Z</time>
      </trkpt>
      <trkpt lat="43.61742" lon="6.59593">
        <ele>682.5</ele>
        <time>2023-11-26T12:12:40Z</time>
      </trkpt>
      <trkpt lat="43.61742" lon="6.59596">
        <ele>682.2</ele>
        <time>2023-11-26T12:12:41Z</time>
      </trkpt>
      <trkpt lat="43.61741" lon="6.59597">
        <ele>682.1</ele>
        <time>2023-11-26T12:12:42Z</time>
      </trkpt>
      <trkpt lat="43.61741" lon="6.59599">
        <ele>681.9</ele>
        <time>2023-11-26T12:12:43Z</time>
      </trkpt>
      <trkpt lat="43.61741" lon="6.59601">
        <ele>681.7</ele>
        <time>2023-11-26T12:12:44Z</time>
      </trkpt>
      <trkpt lat="43.6174" lon="6.59603">
        <ele>681.5</ele>
        <time>2023-11-26T12:12:45Z</time>
      </trkpt>
      <trkpt lat="43.6174" lon="6.59605">
        <ele>681.3</ele>
        <time>2023-11-26T12:12:46Z</time>
      </trkpt>
      <trkpt lat="43.6174" lon="6.59607">
        <ele>681.1</ele>
        <time>2023-11-26T12:12:47Z</time>
      </trkpt>
      <trkpt lat="43.61739" lon="6.59608">
        <ele>681</ele>
        <time>2023-11-26T12:12:48Z</time>
      </trkpt>
      <trkpt lat="43.61739" lon="6.5961">
        <ele>680.9</ele>
        <time>2023-11-26T12:12:49Z</time>
      </trkpt>
      <trkpt lat="43.61739" lon="6.59612">
        <ele>680.8</ele>
        <time>2023-11-26T12:12:50Z</time>
      </trkpt>
      <trkpt lat="43.61738" lon="6.59614">
        <ele>680.6</ele>
        <time>2023-11-26T12:12:51Z</time>
      </trkpt>
      <trkpt lat="43.61738" lon="6.59616">
        <ele>680.6</ele>
        <time>2023-11-26T12:12:52Z</time>
      </trkpt>
      <trkpt lat="43.61738" lon="6.59618">
        <ele>680.4</ele>
        <time>2023-11-26T12:12:53Z</time>
      </trkpt>
      <trkpt lat="43.61738" lon="6.59619">
        <ele>680.2</ele>
        <time>2023-11-26T12:12:54Z</time>
      </trkpt>
      <trkpt lat="43.61737" lon="6.59621">
        <ele>680</ele>
        <time>2023-11-26T12:12:55Z</time>
      </trkpt>
      <trkpt lat="43.61737" lon="6.59623">
        <ele>679.8</ele>
        <time>2023-11-26T12:12:56Z</time>
      </trkpt>
      <trkpt lat="43.61737" lon="6.59625">
        <ele>679.5</ele>
        <time>2023-11-26T12:12:57Z</time>
      </trkpt>
      <trkpt lat="43.61737" lon="6.59627">
        <ele>679.4</ele>
        <time>2023-11-26T12:12:58Z</time>
      </trkpt>
      <trkpt lat="43.61737" lon="6.59629">
        <ele>679.3</ele>
        <time>2023-11-26T12:12:59Z</time>
      </trkpt>
      <trkpt lat="43.61737" lon="6.5963">
        <ele>679.2</ele>
        <time>2023-11-26T12:13:00Z</time>
      </trkpt>
      <trkpt lat="43.61737" lon="6.59632">
        <ele>679.1</ele>
        <time>2023-11-26T12:13:01Z</time>
      </trkpt>
      <trkpt lat="43.61736" lon="6.59634">
        <ele>679</ele>
        <time>2023-11-26T12:13:02Z</time>
      </trkpt>
      <trkpt lat="43.61736" lon="6.59636">
        <ele>678.8</ele>
        <time>2023-11-26T12:13:03Z</time>
      </trkpt>
      <trkpt lat="43.61736" lon="6.59638">
        <ele>678.7</ele>
        <time>2023-11-26T12:13:04Z</time>
      </trkpt>
      <trkpt lat="43.61736" lon="6.5964">
        <ele>678.5</ele>
        <time>2023-11-26T12:13:05Z</time>
      </trkpt>
      <trkpt lat="43.61736" lon="6.59643">
        <ele>678.5</ele>
        <time>2023-11-26T12:13:06Z</time>
      </trkpt>
      <trkpt lat="43.61737" lon="6.59645">
        <ele>678.4</ele>
        <time>2023-11-26T12:13:07Z</time>
      </trkpt>
      <trkpt lat="43.61737" lon="6.59647">
        <ele>678.3</ele>
        <time>2023-11-26T12:13:08Z</time>
      </trkpt>
      <trkpt lat="43.61737" lon="6.59649">
        <ele>678.1</ele>
        <time>2023-11-26T12:13:09Z</time>
      </trkpt>
      <trkpt lat="43.61737" lon="6.59651">
        <ele>678.1</ele>
        <time>2023-11-26T12:13:10Z</time>
      </trkpt>
      <trkpt lat="43.61737" lon="6.59653">
        <ele>677.9</ele>
        <time>2023-11-26T12:13:11Z</time>
      </trkpt>
      <trkpt lat="43.61738" lon="6.59655">
        <ele>677.9</ele>
        <time>2023-11-26T12:13:12Z</time>
      </trkpt>
      <trkpt lat="43.61738" lon="6.59657">
        <ele>677.9</ele>
        <time>2023-11-26T12:13:13Z</time>
      </trkpt>
      <trkpt lat="43.61738" lon="6.59659">
        <ele>677.9</ele>
        <time>2023-11-26T12:13:14Z</time>
      </trkpt>
      <trkpt lat="43.61738" lon="6.5966">
        <ele>677.9</ele>
        <time>2023-11-26T12:13:15Z</time>
      </trkpt>
      <trkpt lat="43.61738" lon="6.59662">
        <ele>677.8</ele>
        <time>2023-11-26T12:13:16Z</time>
      </trkpt>
      <trkpt lat="43.61738" lon="6.59664">
        <ele>677.8</ele>
        <time>2023-11-26T12:13:17Z</time>
      </trkpt>
      <trkpt lat="43.61737" lon="6.59666">
        <ele>677.8</ele>
        <time>2023-11-26T12:13:18Z</time>
      </trkpt>
      <trkpt lat="43.61737" lon="6.59668">
        <ele>677.7</ele>
        <time>2023-11-26T12:13:19Z</time>
      </trkpt>
      <trkpt lat="43.61737" lon="6.5967">
        <ele>677.8</ele>
        <time>2023-11-26T12:13:20Z</time>
      </trkpt>
      <trkpt lat="43.61736" lon="6.59671">
        <ele>677.7</ele>
        <time>2023-11-26T12:13:21Z</time>
      </trkpt>
      <trkpt lat="43.61736" lon="6.59673">
        <ele>677.6</ele>
        <time>2023-11-26T12:13:22Z</time>
      </trkpt>
      <trkpt lat="43.61734" lon="6.59674">
        <ele>677.5</ele>
        <time>2023-11-26T12:13:23Z</time>
      </trkpt>
      <trkpt lat="43.61734" lon="6.59675">
        <ele>677.5</ele>
        <time>2023-11-26T12:13:24Z</time>
      </trkpt>
      <trkpt lat="43.61733" lon="6.59676">
        <ele>677.4</ele>
        <time>2023-11-26T12:13:25Z</time>
      </trkpt>
      <trkpt lat="43.61732" lon="6.59677">
        <ele>677.4</ele>
        <time>2023-11-26T12:13:26Z</time>
      </trkpt>
      <trkpt lat="43.61731" lon="6.59677">
        <ele>677.4</ele>
        <time>2023-11-26T12:13:27Z</time>
      </trkpt>
      <trkpt lat="43.6173" lon="6.59677">
        <ele>677.3</ele>
        <time>2023-11-26T12:13:28Z</time>
      </trkpt>
      <trkpt lat="43.61729" lon="6.59677">
        <ele>677.2</ele>
        <time>2023-11-26T12:13:29Z</time>
      </trkpt>
      <trkpt lat="43.61728" lon="6.59676">
        <ele>677.1</ele>
        <time>2023-11-26T12:13:30Z</time>
      </trkpt>
      <trkpt lat="43.61728" lon="6.59675">
        <ele>677.1</ele>
        <time>2023-11-26T12:13:31Z</time>
      </trkpt>
      <trkpt lat="43.61727" lon="6.59674">
        <ele>677</ele>
        <time>2023-11-26T12:13:32Z</time>
      </trkpt>
      <trkpt lat="43.61726" lon="6.59672">
        <ele>676.9</ele>
        <time>2023-11-26T12:13:33Z</time>
      </trkpt>
      <trkpt lat="43.61725" lon="6.59671">
        <ele>676.8</ele>
        <time>2023-11-26T12:13:34Z</time>
      </trkpt>
      <trkpt lat="43.61725" lon="6.5967">
        <ele>676.7</ele>
        <time>2023-11-26T12:13:35Z</time>
      </trkpt>
      <trkpt lat="43.61724" lon="6.59669">
        <ele>676.5</ele>
        <time>2023-11-26T12:13:36Z</time>
      </trkpt>
      <trkpt lat="43.61724" lon="6.59667">
        <ele>676.4</ele>
        <time>2023-11-26T12:13:37Z</time>
      </trkpt>
      <trkpt lat="43.61724" lon="6.59666">
        <ele>676.3</ele>
        <time>2023-11-26T12:13:38Z</time>
      </trkpt>
      <trkpt lat="43.61724" lon="6.59665">
        <ele>676.1</ele>
        <time>2023-11-26T12:13:39Z</time>
      </trkpt>
      <trkpt lat="43.61724" lon="6.59663">
        <ele>676</ele>
        <time>2023-11-26T12:13:40Z</time>
      </trkpt>
      <trkpt lat="43.61724" lon="6.59661">
        <ele>675.9</ele>
        <time>2023-11-26T12:13:41Z</time>
      </trkpt>
      <trkpt lat="43.61724" lon="6.5966">
        <ele>675.7</ele>
        <time>2023-11-26T12:13:42Z</time>
      </trkpt>
      <trkpt lat="43.61724" lon="6.59658">
        <ele>675.6</ele>
        <time>2023-11-26T12:13:43Z</time>
      </trkpt>
      <trkpt lat="43.61724" lon="6.59657">
        <ele>675.5</ele>
        <time>2023-11-26T12:13:44Z</time>
      </trkpt>
      <trkpt lat="43.61723" lon="6.59656">
        <ele>675.5</ele>
        <time>2023-11-26T12:13:45Z</time>
      </trkpt>
      <trkpt lat="43.61723" lon="6.59655">
        <ele>675.5</ele>
        <time>2023-11-26T12:13:46Z</time>
      </trkpt>
      <trkpt lat="43.61723" lon="6.59653">
        <ele>675.3</ele>
        <time>2023-11-26T12:13:47Z</time>
      </trkpt>
      <trkpt lat="43.61723" lon="6.59652">
        <ele>675.1</ele>
        <time>2023-11-26T12:13:48Z</time>
      </trkpt>
      <trkpt lat="43.61723" lon="6.5965">
        <ele>675</ele>
        <time>2023-11-26T12:13:49Z</time>
      </trkpt>
      <trkpt lat="43.61724" lon="6.59649">
        <ele>675</ele>
        <time>2023-11-26T12:13:50Z</time>
      </trkpt>
      <trkpt lat="43.61723" lon="6.59647">
        <ele>674.8</ele>
        <time>2023-11-26T12:13:51Z</time>
      </trkpt>
      <trkpt lat="43.61723" lon="6.59646">
        <ele>674.7</ele>
        <time>2023-11-26T12:13:52Z</time>
      </trkpt>
      <trkpt lat="43.61723" lon="6.59644">
        <ele>674.6</ele>
        <time>2023-11-26T12:13:53Z</time>
      </trkpt>
      <trkpt lat="43.61723" lon="6.59642">
        <ele>674.6</ele>
        <time>2023-11-26T12:13:54Z</time>
      </trkpt>
      <trkpt lat="43.61723" lon="6.59641">
        <ele>674.5</ele>
        <time>2023-11-26T12:13:55Z</time>
      </trkpt>
      <trkpt lat="43.61722" lon="6.59639">
        <ele>674.5</ele>
        <time>2023-11-26T12:13:56Z</time>
      </trkpt>
      <trkpt lat="43.61722" lon="6.59637">
        <ele>674.4</ele>
        <time>2023-11-26T12:13:57Z</time>
      </trkpt>
      <trkpt lat="43.61722" lon="6.59636">
        <ele>674.4</ele>
        <time>2023-11-26T12:13:58Z</time>
      </trkpt>
      <trkpt lat="43.61722" lon="6.59634">
        <ele>674.3</ele>
        <time>2023-11-26T12:13:59Z</time>
      </trkpt>
      <trkpt lat="43.61721" lon="6.59632">
        <ele>674.2</ele>
        <time>2023-11-26T12:14:00Z</time>
      </trkpt>
      <trkpt lat="43.61722" lon="6.5963">
        <ele>674.1</ele>
        <time>2023-11-26T12:14:01Z</time>
      </trkpt>
      <trkpt lat="43.61722" lon="6.59628">
        <ele>674</ele>
        <time>2023-11-26T12:14:02Z</time>
      </trkpt>
      <trkpt lat="43.61722" lon="6.59626">
        <ele>673.9</ele>
        <time>2023-11-26T12:14:03Z</time>
      </trkpt>
      <trkpt lat="43.61722" lon="6.59625">
        <ele>673.8</ele>
        <time>2023-11-26T12:14:04Z</time>
      </trkpt>
      <trkpt lat="43.61722" lon="6.59623">
        <ele>673.5</ele>
        <time>2023-11-26T12:14:05Z</time>
      </trkpt>
      <trkpt lat="43.61721" lon="6.59621">
        <ele>673.3</ele>
        <time>2023-11-26T12:14:06Z</time>
      </trkpt>
      <trkpt lat="43.61721" lon="6.59619">
        <ele>673.1</ele>
        <time>2023-11-26T12:14:07Z</time>
      </trkpt>
      <trkpt lat="43.6172" lon="6.59618">
        <ele>672.9</ele>
        <time>2023-11-26T12:14:08Z</time>
      </trkpt>
      <trkpt lat="43.6172" lon="6.59616">
        <ele>672.8</ele>
        <time>2023-11-26T12:14:09Z</time>
      </trkpt>
      <trkpt lat="43.61719" lon="6.59614">
        <ele>672.6</ele>
        <time>2023-11-26T12:14:10Z</time>
      </trkpt>
      <trkpt lat="43.61719" lon="6.59612">
        <ele>672.4</ele>
        <time>2023-11-26T12:14:11Z</time>
      </trkpt>
      <trkpt lat="43.61719" lon="6.5961">
        <ele>672.2</ele>
        <time>2023-11-26T12:14:12Z</time>
      </trkpt>
      <trkpt lat="43.61718" lon="6.59609">
        <ele>672.1</ele>
        <time>2023-11-26T12:14:13Z</time>
      </trkpt>
      <trkpt lat="43.61718" lon="6.59607">
        <ele>671.9</ele>
        <time>2023-11-26T12:14:14Z</time>
      </trkpt>
      <trkpt lat="43.61718" lon="6.59605">
        <ele>671.7</ele>
        <time>2023-11-26T12:14:15Z</time>
      </trkpt>
      <trkpt lat="43.61718" lon="6.59604">
        <ele>671.6</ele>
        <time>2023-11-26T12:14:16Z</time>
      </trkpt>
      <trkpt lat="43.61718" lon="6.59602">
        <ele>671.5</ele>
        <time>2023-11-26T12:14:17Z</time>
      </trkpt>
      <trkpt lat="43.61718" lon="6.596">
        <ele>671.4</ele>
        <time>2023-11-26T12:14:18Z</time>
      </trkpt>
      <trkpt lat="43.61718" lon="6.59599">
        <ele>671.3</ele>
        <time>2023-11-26T12:14:19Z</time>
      </trkpt>
      <trkpt lat="43.61717" lon="6.59598">
        <ele>671.1</ele>
        <time>2023-11-26T12:14:20Z</time>
      </trkpt>
      <trkpt lat="43.61717" lon="6.59596">
        <ele>670.9</ele>
        <time>2023-11-26T12:14:21Z</time>
      </trkpt>
      <trkpt lat="43.61717" lon="6.59595">
        <ele>670.8</ele>
        <time>2023-11-26T12:14:22Z</time>
      </trkpt>
      <trkpt lat="43.61717" lon="6.59593">
        <ele>670.6</ele>
        <time>2023-11-26T12:14:23Z</time>
      </trkpt>
      <trkpt lat="43.61717" lon="6.59591">
        <ele>670.5</ele>
        <time>2023-11-26T12:14:24Z</time>
      </trkpt>
      <trkpt lat="43.61717" lon="6.5959">
        <ele>670.4</ele>
        <time>2023-11-26T12:14:25Z</time>
      </trkpt>
      <trkpt lat="43.61717" lon="6.59588">
        <ele>670.3</ele>
        <time>2023-11-26T12:14:26Z</time>
      </trkpt>
      <trkpt lat="43.61717" lon="6.59586">
        <ele>670.1</ele>
        <time>2023-11-26T12:14:27Z</time>
      </trkpt>
      <trkpt lat="43.61717" lon="6.59584">
        <ele>670.1</ele>
        <time>2023-11-26T12:14:28Z</time>
      </trkpt>
      <trkpt lat="43.61717" lon="6.59582">
        <ele>670</ele>
        <time>2023-11-26T12:14:29Z</time>
      </trkpt>
      <trkpt lat="43.61717" lon="6.59581">
        <ele>669.7</ele>
        <time>2023-11-26T12:14:30Z</time>
      </trkpt>
      <trkpt lat="43.61717" lon="6.59578">
        <ele>669.5</ele>
        <time>2023-11-26T12:14:31Z</time>
      </trkpt>
      <trkpt lat="43.61717" lon="6.59576">
        <ele>669.4</ele>
        <time>2023-11-26T12:14:32Z</time>
      </trkpt>
      <trkpt lat="43.61717" lon="6.59573">
        <ele>669.2</ele>
        <time>2023-11-26T12:14:33Z</time>
      </trkpt>
      <trkpt lat="43.61717" lon="6.59571">
        <ele>669</ele>
        <time>2023-11-26T12:14:34Z</time>
      </trkpt>
      <trkpt lat="43.61717" lon="6.59569">
        <ele>668.9</ele>
        <time>2023-11-26T12:14:35Z</time>
      </trkpt>
      <trkpt lat="43.61718" lon="6.59567">
        <ele>668.9</ele>
        <time>2023-11-26T12:14:36Z</time>
      </trkpt>
      <trkpt lat="43.61717" lon="6.59565">
        <ele>668.8</ele>
        <time>2023-11-26T12:14:37Z</time>
      </trkpt>
      <trkpt lat="43.61717" lon="6.59563">
        <ele>668.7</ele>
        <time>2023-11-26T12:14:38Z</time>
      </trkpt>
      <trkpt lat="43.61717" lon="6.59561">
        <ele>668.6</ele>
        <time>2023-11-26T12:14:39Z</time>
      </trkpt>
      <trkpt lat="43.61716" lon="6.59559">
        <ele>668.4</ele>
        <time>2023-11-26T12:14:40Z</time>
      </trkpt>
      <trkpt lat="43.61716" lon="6.59557">
        <ele>668.3</ele>
        <time>2023-11-26T12:14:41Z</time>
      </trkpt>
      <trkpt lat="43.61715" lon="6.59556">
        <ele>668.3</ele>
        <time>2023-11-26T12:14:42Z</time>
      </trkpt>
      <trkpt lat="43.61715" lon="6.59554">
        <ele>668.1</ele>
        <time>2023-11-26T12:14:43Z</time>
      </trkpt>
      <trkpt lat="43.61715" lon="6.59552">
        <ele>668</ele>
        <time>2023-11-26T12:14:44Z</time>
      </trkpt>
      <trkpt lat="43.61714" lon="6.59551">
        <ele>667.7</ele>
        <time>2023-11-26T12:14:45Z</time>
      </trkpt>
      <trkpt lat="43.61714" lon="6.5955">
        <ele>667.6</ele>
        <time>2023-11-26T12:14:46Z</time>
      </trkpt>
      <trkpt lat="43.61713" lon="6.59548">
        <ele>667.4</ele>
        <time>2023-11-26T12:14:47Z</time>
      </trkpt>
      <trkpt lat="43.61713" lon="6.59547">
        <ele>667.3</ele>
        <time>2023-11-26T12:14:48Z</time>
      </trkpt>
      <trkpt lat="43.61713" lon="6.59545">
        <ele>667.2</ele>
        <time>2023-11-26T12:14:49Z</time>
      </trkpt>
      <trkpt lat="43.61712" lon="6.59544">
        <ele>667</ele>
        <time>2023-11-26T12:14:50Z</time>
      </trkpt>
      <trkpt lat="43.61712" lon="6.59542">
        <ele>666.8</ele>
        <time>2023-11-26T12:14:51Z</time>
      </trkpt>
      <trkpt lat="43.61712" lon="6.5954">
        <ele>666.7</ele>
        <time>2023-11-26T12:14:52Z</time>
      </trkpt>
      <trkpt lat="43.61711" lon="6.59538">
        <ele>666.5</ele>
        <time>2023-11-26T12:14:53Z</time>
      </trkpt>
      <trkpt lat="43.61711" lon="6.59536">
        <ele>666.4</ele>
        <time>2023-11-26T12:14:54Z</time>
      </trkpt>
      <trkpt lat="43.61712" lon="6.59534">
        <ele>666.2</ele>
        <time>2023-11-26T12:14:55Z</time>
      </trkpt>
      <trkpt lat="43.61712" lon="6.59531">
        <ele>666</ele>
        <time>2023-11-26T12:14:56Z</time>
      </trkpt>
      <trkpt lat="43.61712" lon="6.59529">
        <ele>665.9</ele>
        <time>2023-11-26T12:14:57Z</time>
      </trkpt>
      <trkpt lat="43.61712" lon="6.59527">
        <ele>665.7</ele>
        <time>2023-11-26T12:14:58Z</time>
      </trkpt>
      <trkpt lat="43.61712" lon="6.59525">
        <ele>665.6</ele>
        <time>2023-11-26T12:14:59Z</time>
      </trkpt>
      <trkpt lat="43.61712" lon="6.59523">
        <ele>665.4</ele>
        <time>2023-11-26T12:15:00Z</time>
      </trkpt>
      <trkpt lat="43.61712" lon="6.59521">
        <ele>665.2</ele>
        <time>2023-11-26T12:15:01Z</time>
      </trkpt>
      <trkpt lat="43.61712" lon="6.59519">
        <ele>665.1</ele>
        <time>2023-11-26T12:15:02Z</time>
      </trkpt>
      <trkpt lat="43.61712" lon="6.59517">
        <ele>665.1</ele>
        <time>2023-11-26T12:15:03Z</time>
      </trkpt>
      <trkpt lat="43.61712" lon="6.59515">
        <ele>664.9</ele>
        <time>2023-11-26T12:15:04Z</time>
      </trkpt>
      <trkpt lat="43.61713" lon="6.59513">
        <ele>664.9</ele>
        <time>2023-11-26T12:15:05Z</time>
      </trkpt>
      <trkpt lat="43.61713" lon="6.5951">
        <ele>664.8</ele>
        <time>2023-11-26T12:15:06Z</time>
      </trkpt>
      <trkpt lat="43.61712" lon="6.59509">
        <ele>664.7</ele>
        <time>2023-11-26T12:15:07Z</time>
      </trkpt>
      <trkpt lat="43.61713" lon="6.59507">
        <ele>664.6</ele>
        <time>2023-11-26T12:15:08Z</time>
      </trkpt>
      <trkpt lat="43.61713" lon="6.59505">
        <ele>664.4</ele>
        <time>2023-11-26T12:15:09Z</time>
      </trkpt>
      <trkpt lat="43.61713" lon="6.59503">
        <ele>664.2</ele>
        <time>2023-11-26T12:15:10Z</time>
      </trkpt>
      <trkpt lat="43.61713" lon="6.59502">
        <ele>664.1</ele>
        <time>2023-11-26T12:15:11Z</time>
      </trkpt>
      <trkpt lat="43.61713" lon="6.595">
        <ele>663.8</ele>
        <time>2023-11-26T12:15:12Z</time>
      </trkpt>
      <trkpt lat="43.61713" lon="6.59498">
        <ele>663.6</ele>
        <time>2023-11-26T12:15:13Z</time>
      </trkpt>
      <trkpt lat="43.61713" lon="6.59496">
        <ele>663.5</ele>
        <time>2023-11-26T12:15:14Z</time>
      </trkpt>
      <trkpt lat="43.61713" lon="6.59494">
        <ele>663.4</ele>
        <time>2023-11-26T12:15:15Z</time>
      </trkpt>
      <trkpt lat="43.61712" lon="6.59492">
        <ele>663.1</ele>
        <time>2023-11-26T12:15:16Z</time>
      </trkpt>
      <trkpt lat="43.61712" lon="6.59491">
        <ele>662.8</ele>
        <time>2023-11-26T12:15:17Z</time>
      </trkpt>
      <trkpt lat="43.61711" lon="6.59489">
        <ele>662.6</ele>
        <time>2023-11-26T12:15:18Z</time>
      </trkpt>
      <trkpt lat="43.61711" lon="6.59487">
        <ele>662.4</ele>
        <time>2023-11-26T12:15:19Z</time>
      </trkpt>
      <trkpt lat="43.61711" lon="6.59485">
        <ele>662.2</ele>
        <time>2023-11-26T12:15:20Z</time>
      </trkpt>
      <trkpt lat="43.61711" lon="6.59482">
        <ele>662</ele>
        <time>2023-11-26T12:15:21Z</time>
      </trkpt>
      <trkpt lat="43.61711" lon="6.5948">
        <ele>661.8</ele>
        <time>2023-11-26T12:15:22Z</time>
      </trkpt>
      <trkpt lat="43.61711" lon="6.59478">
        <ele>661.7</ele>
        <time>2023-11-26T12:15:23Z</time>
      </trkpt>
      <trkpt lat="43.6171" lon="6.59476">
        <ele>661.6</ele>
        <time>2023-11-26T12:15:24Z</time>
      </trkpt>
      <trkpt lat="43.6171" lon="6.59474">
        <ele>661.5</ele>
        <time>2023-11-26T12:15:25Z</time>
      </trkpt>
      <trkpt lat="43.61709" lon="6.59472">
        <ele>661.4</ele>
        <time>2023-11-26T12:15:26Z</time>
      </trkpt>
      <trkpt lat="43.61709" lon="6.5947">
        <ele>661.3</ele>
        <time>2023-11-26T12:15:27Z</time>
      </trkpt>
      <trkpt lat="43.61708" lon="6.59468">
        <ele>661.2</ele>
        <time>2023-11-26T12:15:28Z</time>
      </trkpt>
      <trkpt lat="43.61708" lon="6.59466">
        <ele>661</ele>
        <time>2023-11-26T12:15:29Z</time>
      </trkpt>
      <trkpt lat="43.61707" lon="6.59465">
        <ele>660.8</ele>
        <time>2023-11-26T12:15:30Z</time>
      </trkpt>
      <trkpt lat="43.61706" lon="6.59463">
        <ele>660.6</ele>
        <time>2023-11-26T12:15:31Z</time>
      </trkpt>
      <trkpt lat="43.61706" lon="6.59461">
        <ele>660.6</ele>
        <time>2023-11-26T12:15:32Z</time>
      </trkpt>
      <trkpt lat="43.61707" lon="6.5946">
        <ele>660.5</ele>
        <time>2023-11-26T12:15:33Z</time>
      </trkpt>
      <trkpt lat="43.61705" lon="6.59458">
        <ele>660.5</ele>
        <time>2023-11-26T12:15:34Z</time>
      </trkpt>
      <trkpt lat="43.61704" lon="6.59456">
        <ele>660.2</ele>
        <time>2023-11-26T12:15:35Z</time>
      </trkpt>
      <trkpt lat="43.61704" lon="6.59454">
        <ele>660</ele>
        <time>2023-11-26T12:15:36Z</time>
      </trkpt>
      <trkpt lat="43.61704" lon="6.59453">
        <ele>659.8</ele>
        <time>2023-11-26T12:15:37Z</time>
      </trkpt>
      <trkpt lat="43.61705" lon="6.59451">
        <ele>659.6</ele>
        <time>2023-11-26T12:15:38Z</time>
      </trkpt>
      <trkpt lat="43.61704" lon="6.59449">
        <ele>659.4</ele>
        <time>2023-11-26T12:15:39Z</time>
      </trkpt>
      <trkpt lat="43.61704" lon="6.59447">
        <ele>659.5</ele>
        <time>2023-11-26T12:15:40Z</time>
      </trkpt>
      <trkpt lat="43.61704" lon="6.59446">
        <ele>659.4</ele>
        <time>2023-11-26T12:15:41Z</time>
      </trkpt>
      <trkpt lat="43.61704" lon="6.59444">
        <ele>659.3</ele>
        <time>2023-11-26T12:15:42Z</time>
      </trkpt>
      <trkpt lat="43.61703" lon="6.59442">
        <ele>659.1</ele>
        <time>2023-11-26T12:15:43Z</time>
      </trkpt>
      <trkpt lat="43.61703" lon="6.59441">
        <ele>659</ele>
        <time>2023-11-26T12:15:44Z</time>
      </trkpt>
      <trkpt lat="43.61702" lon="6.59439">
        <ele>658.8</ele>
        <time>2023-11-26T12:15:45Z</time>
      </trkpt>
      <trkpt lat="43.61702" lon="6.59438">
        <ele>658.7</ele>
        <time>2023-11-26T12:15:46Z</time>
      </trkpt>
      <trkpt lat="43.61702" lon="6.59436">
        <ele>658.6</ele>
        <time>2023-11-26T12:15:47Z</time>
      </trkpt>
      <trkpt lat="43.617" lon="6.59434">
        <ele>658.4</ele>
        <time>2023-11-26T12:15:48Z</time>
      </trkpt>
      <trkpt lat="43.617" lon="6.59433">
        <ele>658.3</ele>
        <time>2023-11-26T12:15:49Z</time>
      </trkpt>
      <trkpt lat="43.61699" lon="6.59431">
        <ele>658.1</ele>
        <time>2023-11-26T12:15:50Z</time>
      </trkpt>
      <trkpt lat="43.61698" lon="6.59429">
        <ele>658</ele>
        <time>2023-11-26T12:15:51Z</time>
      </trkpt>
      <trkpt lat="43.61698" lon="6.59428">
        <ele>657.9</ele>
        <time>2023-11-26T12:15:52Z</time>
      </trkpt>
      <trkpt lat="43.61697" lon="6.59427">
        <ele>657.8</ele>
        <time>2023-11-26T12:15:53Z</time>
      </trkpt>
      <trkpt lat="43.61697" lon="6.59425">
        <ele>657.7</ele>
        <time>2023-11-26T12:15:54Z</time>
      </trkpt>
      <trkpt lat="43.61696" lon="6.59423">
        <ele>657.6</ele>
        <time>2023-11-26T12:15:55Z</time>
      </trkpt>
      <trkpt lat="43.61696" lon="6.59422">
        <ele>657.4</ele>
        <time>2023-11-26T12:15:56Z</time>
      </trkpt>
      <trkpt lat="43.61696" lon="6.5942">
        <ele>657.3</ele>
        <time>2023-11-26T12:15:57Z</time>
      </trkpt>
      <trkpt lat="43.61695" lon="6.59419">
        <ele>657.2</ele>
        <time>2023-11-26T12:15:58Z</time>
      </trkpt>
      <trkpt lat="43.61694" lon="6.59417">
        <ele>657</ele>
        <time>2023-11-26T12:15:59Z</time>
      </trkpt>
      <trkpt lat="43.61694" lon="6.59416">
        <ele>656.9</ele>
        <time>2023-11-26T12:16:00Z</time>
      </trkpt>
      <trkpt lat="43.61693" lon="6.59414">
        <ele>656.7</ele>
        <time>2023-11-26T12:16:01Z</time>
      </trkpt>
      <trkpt lat="43.61692" lon="6.59413">
        <ele>656.6</ele>
        <time>2023-11-26T12:16:02Z</time>
      </trkpt>
      <trkpt lat="43.61691" lon="6.59412">
        <ele>656.4</ele>
        <time>2023-11-26T12:16:03Z</time>
      </trkpt>
      <trkpt lat="43.61691" lon="6.59411">
        <ele>656.3</ele>
        <time>2023-11-26T12:16:04Z</time>
      </trkpt>
      <trkpt lat="43.6169" lon="6.59411">
        <ele>656.2</ele>
        <time>2023-11-26T12:16:05Z</time>
      </trkpt>
      <trkpt lat="43.61689" lon="6.5941">
        <ele>656.2</ele>
        <time>2023-11-26T12:16:06Z</time>
      </trkpt>
      <trkpt lat="43.61688" lon="6.5941">
        <ele>656.2</ele>
        <time>2023-11-26T12:16:07Z</time>
      </trkpt>
      <trkpt lat="43.61687" lon="6.5941">
        <ele>656.2</ele>
        <time>2023-11-26T12:16:08Z</time>
      </trkpt>
      <trkpt lat="43.61686" lon="6.59409">
        <ele>656.2</ele>
        <time>2023-11-26T12:16:09Z</time>
      </trkpt>
      <trkpt lat="43.61686" lon="6.59409">
        <ele>656.3</ele>
        <time>2023-11-26T12:16:10Z</time>
      </trkpt>
      <trkpt lat="43.61685" lon="6.59409">
        <ele>656.4</ele>
        <time>2023-11-26T12:16:11Z</time>
      </trkpt>
      <trkpt lat="43.61685" lon="6.59408">
        <ele>656.4</ele>
        <time>2023-11-26T12:16:12Z</time>
      </trkpt>
      <trkpt lat="43.61684" lon="6.59408">
        <ele>656.4</ele>
        <time>2023-11-26T12:16:13Z</time>
      </trkpt>
      <trkpt lat="43.61684" lon="6.59408">
        <ele>656.4</ele>
        <time>2023-11-26T12:16:14Z</time>
      </trkpt>
      <trkpt lat="43.61684" lon="6.59408">
        <ele>656.4</ele>
        <time>2023-11-26T12:16:15Z</time>
      </trkpt>
      <trkpt lat="43.61683" lon="6.59408">
        <ele>656.4</ele>
        <time>2023-11-26T12:16:16Z</time>
      </trkpt>
      <trkpt lat="43.61683" lon="6.59407">
        <ele>656.4</ele>
        <time>2023-11-26T12:16:17Z</time>
      </trkpt>
      <trkpt lat="43.61682" lon="6.59407">
        <ele>656.3</ele>
        <time>2023-11-26T12:16:18Z</time>
      </trkpt>
      <trkpt lat="43.61682" lon="6.59407">
        <ele>656.3</ele>
        <time>2023-11-26T12:16:19Z</time>
      </trkpt>
      <trkpt lat="43.61682" lon="6.59407">
        <ele>656.3</ele>
        <time>2023-11-26T12:16:20Z</time>
      </trkpt>
      <trkpt lat="43.61681" lon="6.59407">
        <ele>656.3</ele>
        <time>2023-11-26T12:16:21Z</time>
      </trkpt>
      <trkpt lat="43.61681" lon="6.59406">
        <ele>656.2</ele>
        <time>2023-11-26T12:16:22Z</time>
      </trkpt>
      <trkpt lat="43.61681" lon="6.59406">
        <ele>656.2</ele>
        <time>2023-11-26T12:16:23Z</time>
      </trkpt>
      <trkpt lat="43.61681" lon="6.59406">
        <ele>656.2</ele>
        <time>2023-11-26T12:16:24Z</time>
      </trkpt>
      <trkpt lat="43.61681" lon="6.59406">
        <ele>656.2</ele>
        <time>2023-11-26T12:16:25Z</time>
      </trkpt>
      <trkpt lat="43.61681" lon="6.59406">
        <ele>656.1</ele>
        <time>2023-11-26T12:16:26Z</time>
      </trkpt>
      <trkpt lat="43.61682" lon="6.59406">
        <ele>656.1</ele>
        <time>2023-11-26T12:16:27Z</time>
      </trkpt>
      <trkpt lat="43.61681" lon="6.59406">
        <ele>656.1</ele>
        <time>2023-11-26T12:16:28Z</time>
      </trkpt>
      <trkpt lat="43.61681" lon="6.59406">
        <ele>656.2</ele>
        <time>2023-11-26T12:16:29Z</time>
      </trkpt>
      <trkpt lat="43.61681" lon="6.59406">
        <ele>656.2</ele>
        <time>2023-11-26T12:16:30Z</time>
      </trkpt>
      <trkpt lat="43.6168" lon="6.59406">
        <ele>656.2</ele>
        <time>2023-11-26T12:16:31Z</time>
      </trkpt>
      <trkpt lat="43.6168" lon="6.59406">
        <ele>656.2</ele>
        <time>2023-11-26T12:16:32Z</time>
      </trkpt>
      <trkpt lat="43.6168" lon="6.59407">
        <ele>656.2</ele>
        <time>2023-11-26T12:16:33Z</time>
      </trkpt>
      <trkpt lat="43.6168" lon="6.59407">
        <ele>656.2</ele>
        <time>2023-11-26T12:16:34Z</time>
      </trkpt>
      <trkpt lat="43.6168" lon="6.59407">
        <ele>656.2</ele>
        <time>2023-11-26T12:16:35Z</time>
      </trkpt>
      <trkpt lat="43.61681" lon="6.59406">
        <ele>656.2</ele>
        <time>2023-11-26T12:16:36Z</time>
      </trkpt>
      <trkpt lat="43.61681" lon="6.59406">
        <ele>656.2</ele>
        <time>2023-11-26T12:16:37Z</time>
      </trkpt>
      <trkpt lat="43.61681" lon="6.59406">
        <ele>656.2</ele>
        <time>2023-11-26T12:16:38Z</time>
      </trkpt>
      <trkpt lat="43.61682" lon="6.59405">
        <ele>656.2</ele>
        <time>2023-11-26T12:16:39Z</time>
      </trkpt>
      <trkpt lat="43.61682" lon="6.59405">
        <ele>656.2</ele>
        <time>2023-11-26T12:16:40Z</time>
      </trkpt>
      <trkpt lat="43.61682" lon="6.59405">
        <ele>656.1</ele>
        <time>2023-11-26T12:16:41Z</time>
      </trkpt>
      <trkpt lat="43.61682" lon="6.59405">
        <ele>656.1</ele>
        <time>2023-11-26T12:16:42Z</time>
      </trkpt>
      <trkpt lat="43.61683" lon="6.59405">
        <ele>656.1</ele>
        <time>2023-11-26T12:16:43Z</time>
      </trkpt>
      <trkpt lat="43.61683" lon="6.59405">
        <ele>656.1</ele>
        <time>2023-11-26T12:16:44Z</time>
      </trkpt>
      <trkpt lat="43.61683" lon="6.59404">
        <ele>656.1</ele>
        <time>2023-11-26T12:16:45Z</time>
      </trkpt>
      <trkpt lat="43.61683" lon="6.59404">
        <ele>656</ele>
        <time>2023-11-26T12:16:46Z</time>
      </trkpt>
      <trkpt lat="43.61684" lon="6.59404">
        <ele>656</ele>
        <time>2023-11-26T12:16:47Z</time>
      </trkpt>
      <trkpt lat="43.61684" lon="6.59404">
        <ele>656</ele>
        <time>2023-11-26T12:16:48Z</time>
      </trkpt>
      <trkpt lat="43.61684" lon="6.59404">
        <ele>656</ele>
        <time>2023-11-26T12:16:49Z</time>
      </trkpt>
      <trkpt lat="43.61684" lon="6.59404">
        <ele>656.1</ele>
        <time>2023-11-26T12:16:50Z</time>
      </trkpt>
      <trkpt lat="43.61684" lon="6.59403">
        <ele>656.1</ele>
        <time>2023-11-26T12:16:51Z</time>
      </trkpt>
      <trkpt lat="43.61685" lon="6.59403">
        <ele>656.1</ele>
        <time>2023-11-26T12:16:52Z</time>
      </trkpt>
      <trkpt lat="43.61685" lon="6.59403">
        <ele>656.1</ele>
        <time>2023-11-26T12:16:53Z</time>
      </trkpt>
      <trkpt lat="43.61685" lon="6.59403">
        <ele>656</ele>
        <time>2023-11-26T12:16:54Z</time>
      </trkpt>
      <trkpt lat="43.61685" lon="6.59403">
        <ele>656</ele>
        <time>2023-11-26T12:16:55Z</time>
      </trkpt>
      <trkpt lat="43.61685" lon="6.59402">
        <ele>656</ele>
        <time>2023-11-26T12:16:56Z</time>
      </trkpt>
      <trkpt lat="43.61685" lon="6.59402">
        <ele>656</ele>
        <time>2023-11-26T12:16:57Z</time>
      </trkpt>
      <trkpt lat="43.61685" lon="6.59402">
        <ele>656</ele>
        <time>2023-11-26T12:16:58Z</time>
      </trkpt>
      <trkpt lat="43.61685" lon="6.59401">
        <ele>656</ele>
        <time>2023-11-26T12:16:59Z</time>
      </trkpt>
      <trkpt lat="43.61685" lon="6.594">
        <ele>656</ele>
        <time>2023-11-26T12:17:00Z</time>
      </trkpt>
      <trkpt lat="43.61685" lon="6.594">
        <ele>656</ele>
        <time>2023-11-26T12:17:01Z</time>
      </trkpt>
      <trkpt lat="43.61685" lon="6.594">
        <ele>656</ele>
        <time>2023-11-26T12:17:02Z</time>
      </trkpt>
      <trkpt lat="43.61685" lon="6.594">
        <ele>656.1</ele>
        <time>2023-11-26T12:17:03Z</time>
      </trkpt>
      <trkpt lat="43.61685" lon="6.594">
        <ele>656.1</ele>
        <time>2023-11-26T12:17:04Z</time>
      </trkpt>
      <trkpt lat="43.61685" lon="6.594">
        <ele>656.1</ele>
        <time>2023-11-26T12:17:05Z</time>
      </trkpt>
      <trkpt lat="43.61685" lon="6.594">
        <ele>656.1</ele>
        <time>2023-11-26T12:17:06Z</time>
      </trkpt>
      <trkpt lat="43.61685" lon="6.594">
        <ele>656.2</ele>
        <time>2023-11-26T12:17:07Z</time>
      </trkpt>
      <trkpt lat="43.61685" lon="6.594">
        <ele>656.2</ele>
        <time>2023-11-26T12:17:08Z</time>
      </trkpt>
      <trkpt lat="43.61685" lon="6.594">
        <ele>656.1</ele>
        <time>2023-11-26T12:17:09Z</time>
      </trkpt>
      <trkpt lat="43.61685" lon="6.59401">
        <ele>656.1</ele>
        <time>2023-11-26T12:17:10Z</time>
      </trkpt>
      <trkpt lat="43.61686" lon="6.59401">
        <ele>656.2</ele>
        <time>2023-11-26T12:17:11Z</time>
      </trkpt>
      <trkpt lat="43.61686" lon="6.59401">
        <ele>656.2</ele>
        <time>2023-11-26T12:17:12Z</time>
      </trkpt>
      <trkpt lat="43.61686" lon="6.59401">
        <ele>656.2</ele>
        <time>2023-11-26T12:17:13Z</time>
      </trkpt>
      <trkpt lat="43.61686" lon="6.59401">
        <ele>656.2</ele>
        <time>2023-11-26T12:17:14Z</time>
      </trkpt>
      <trkpt lat="43.61686" lon="6.59401">
        <ele>656.2</ele>
        <time>2023-11-26T12:17:15Z</time>
      </trkpt>
      <trkpt lat="43.61686" lon="6.59401">
        <ele>656.2</ele>
        <time>2023-11-26T12:17:16Z</time>
      </trkpt>
      <trkpt lat="43.61686" lon="6.59401">
        <ele>656.2</ele>
        <time>2023-11-26T12:17:17Z</time>
      </trkpt>
      <trkpt lat="43.61686" lon="6.59401">
        <ele>656.1</ele>
        <time>2023-11-26T12:17:18Z</time>
      </trkpt>
      <trkpt lat="43.61686" lon="6.59401">
        <ele>656.1</ele>
        <time>2023-11-26T12:17:19Z</time>
      </trkpt>
      <trkpt lat="43.61686" lon="6.59401">
        <ele>656.3</ele>
        <time>2023-11-26T12:17:20Z</time>
      </trkpt>
      <trkpt lat="43.61685" lon="6.59401">
        <ele>656.4</ele>
        <time>2023-11-26T12:17:21Z</time>
      </trkpt>
      <trkpt lat="43.61685" lon="6.59401">
        <ele>656.4</ele>
        <time>2023-11-26T12:17:22Z</time>
      </trkpt>
      <trkpt lat="43.61685" lon="6.59401">
        <ele>656.3</ele>
        <time>2023-11-26T12:17:23Z</time>
      </trkpt>
      <trkpt lat="43.61685" lon="6.59401">
        <ele>656.3</ele>
        <time>2023-11-26T12:17:24Z</time>
      </trkpt>
      <trkpt lat="43.61686" lon="6.59401">
        <ele>656.2</ele>
        <time>2023-11-26T12:17:25Z</time>
      </trkpt>
      <trkpt lat="43.61686" lon="6.59401">
        <ele>656.2</ele>
        <time>2023-11-26T12:17:26Z</time>
      </trkpt>
      <trkpt lat="43.61686" lon="6.59401">
        <ele>656.2</ele>
        <time>2023-11-26T12:17:27Z</time>
      </trkpt>
      <trkpt lat="43.61686" lon="6.59401">
        <ele>656.2</ele>
        <time>2023-11-26T12:17:28Z</time>
      </trkpt>
      <trkpt lat="43.61686" lon="6.59401">
        <ele>656.2</ele>
        <time>2023-11-26T12:17:29Z</time>
      </trkpt>
      <trkpt lat="43.61686" lon="6.59401">
        <ele>656.2</ele>
        <time>2023-11-26T12:17:30Z</time>
      </trkpt>
      <trkpt lat="43.61686" lon="6.59401">
        <ele>656.1</ele>
        <time>2023-11-26T12:17:31Z</time>
      </trkpt>
      <trkpt lat="43.61686" lon="6.594">
        <ele>656.1</ele>
        <time>2023-11-26T12:17:32Z</time>
      </trkpt>
      <trkpt lat="43.61686" lon="6.594">
        <ele>656.1</ele>
        <time>2023-11-26T12:17:33Z</time>
      </trkpt>
      <trkpt lat="43.61686" lon="6.594">
        <ele>656</ele>
        <time>2023-11-26T12:17:34Z</time>
      </trkpt>
      <trkpt lat="43.61686" lon="6.59399">
        <ele>656</ele>
        <time>2023-11-26T12:17:35Z</time>
      </trkpt>
      <trkpt lat="43.61685" lon="6.59399">
        <ele>656.1</ele>
        <time>2023-11-26T12:17:36Z</time>
      </trkpt>
      <trkpt lat="43.61685" lon="6.59399">
        <ele>656.2</ele>
        <time>2023-11-26T12:17:37Z</time>
      </trkpt>
      <trkpt lat="43.61686" lon="6.59398">
        <ele>656.2</ele>
        <time>2023-11-26T12:17:38Z</time>
      </trkpt>
      <trkpt lat="43.61686" lon="6.59398">
        <ele>656.2</ele>
        <time>2023-11-26T12:17:39Z</time>
      </trkpt>
      <trkpt lat="43.61686" lon="6.59398">
        <ele>656.2</ele>
        <time>2023-11-26T12:17:40Z</time>
      </trkpt>
      <trkpt lat="43.61686" lon="6.59398">
        <ele>656.1</ele>
        <time>2023-11-26T12:17:41Z</time>
      </trkpt>
      <trkpt lat="43.61686" lon="6.59398">
        <ele>656.1</ele>
        <time>2023-11-26T12:17:42Z</time>
      </trkpt>
      <trkpt lat="43.61686" lon="6.59398">
        <ele>656.1</ele>
        <time>2023-11-26T12:17:43Z</time>
      </trkpt>
      <trkpt lat="43.61686" lon="6.59398">
        <ele>656.1</ele>
        <time>2023-11-26T12:17:44Z</time>
      </trkpt>
      <trkpt lat="43.61686" lon="6.59397">
        <ele>656</ele>
        <time>2023-11-26T12:17:45Z</time>
      </trkpt>
      <trkpt lat="43.61686" lon="6.59397">
        <ele>656</ele>
        <time>2023-11-26T12:17:46Z</time>
      </trkpt>
      <trkpt lat="43.61686" lon="6.59397">
        <ele>656</ele>
        <time>2023-11-26T12:17:47Z</time>
      </trkpt>
      <trkpt lat="43.61686" lon="6.59397">
        <ele>655.9</ele>
        <time>2023-11-26T12:17:48Z</time>
      </trkpt>
      <trkpt lat="43.61686" lon="6.59397">
        <ele>655.9</ele>
        <time>2023-11-26T12:17:49Z</time>
      </trkpt>
      <trkpt lat="43.61687" lon="6.59397">
        <ele>655.8</ele>
        <time>2023-11-26T12:17:50Z</time>
      </trkpt>
      <trkpt lat="43.61687" lon="6.59397">
        <ele>655.8</ele>
        <time>2023-11-26T12:17:51Z</time>
      </trkpt>
      <trkpt lat="43.61687" lon="6.59397">
        <ele>655.8</ele>
        <time>2023-11-26T12:17:52Z</time>
      </trkpt>
      <trkpt lat="43.61687" lon="6.59397">
        <ele>655.9</ele>
        <time>2023-11-26T12:17:53Z</time>
      </trkpt>
      <trkpt lat="43.61687" lon="6.59397">
        <ele>655.9</ele>
        <time>2023-11-26T12:17:54Z</time>
      </trkpt>
      <trkpt lat="43.61687" lon="6.59397">
        <ele>656</ele>
        <time>2023-11-26T12:17:55Z</time>
      </trkpt>
      <trkpt lat="43.61687" lon="6.59397">
        <ele>656</ele>
        <time>2023-11-26T12:17:56Z</time>
      </trkpt>
      <trkpt lat="43.61687" lon="6.59397">
        <ele>656</ele>
        <time>2023-11-26T12:17:57Z</time>
      </trkpt>
      <trkpt lat="43.61687" lon="6.59397">
        <ele>655.9</ele>
        <time>2023-11-26T12:17:58Z</time>
      </trkpt>
      <trkpt lat="43.61687" lon="6.59397">
        <ele>655.9</ele>
        <time>2023-11-26T12:17:59Z</time>
      </trkpt>
      <trkpt lat="43.61687" lon="6.59397">
        <ele>656</ele>
        <time>2023-11-26T12:18:00Z</time>
      </trkpt>
      <trkpt lat="43.61687" lon="6.59397">
        <ele>655.9</ele>
        <time>2023-11-26T12:18:01Z</time>
      </trkpt>
      <trkpt lat="43.61688" lon="6.59397">
        <ele>655.9</ele>
        <time>2023-11-26T12:18:02Z</time>
      </trkpt>
      <trkpt lat="43.61688" lon="6.59397">
        <ele>656</ele>
        <time>2023-11-26T12:18:03Z</time>
      </trkpt>
      <trkpt lat="43.61688" lon="6.59397">
        <ele>656</ele>
        <time>2023-11-26T12:18:04Z</time>
      </trkpt>
      <trkpt lat="43.61688" lon="6.59397">
        <ele>656.1</ele>
        <time>2023-11-26T12:18:05Z</time>
      </trkpt>
      <trkpt lat="43.61688" lon="6.59397">
        <ele>656.1</ele>
        <time>2023-11-26T12:18:06Z</time>
      </trkpt>
      <trkpt lat="43.61688" lon="6.59397">
        <ele>656.1</ele>
        <time>2023-11-26T12:18:07Z</time>
      </trkpt>
      <trkpt lat="43.61688" lon="6.59397">
        <ele>656.1</ele>
        <time>2023-11-26T12:18:08Z</time>
      </trkpt>
      <trkpt lat="43.61688" lon="6.59397">
        <ele>656.2</ele>
        <time>2023-11-26T12:18:09Z</time>
      </trkpt>
      <trkpt lat="43.61688" lon="6.59397">
        <ele>656.1</ele>
        <time>2023-11-26T12:18:10Z</time>
      </trkpt>
      <trkpt lat="43.61688" lon="6.59397">
        <ele>656.1</ele>
        <time>2023-11-26T12:18:11Z</time>
      </trkpt>
      <trkpt lat="43.61688" lon="6.59397">
        <ele>656.1</ele>
        <time>2023-11-26T12:18:12Z</time>
      </trkpt>
      <trkpt lat="43.61688" lon="6.59397">
        <ele>656.1</ele>
        <time>2023-11-26T12:18:13Z</time>
      </trkpt>
      <trkpt lat="43.61688" lon="6.59397">
        <ele>656.1</ele>
        <time>2023-11-26T12:18:14Z</time>
      </trkpt>
      <trkpt lat="43.61689" lon="6.59397">
        <ele>656.2</ele>
        <time>2023-11-26T12:18:15Z</time>
      </trkpt>
      <trkpt lat="43.61689" lon="6.59397">
        <ele>656.2</ele>
        <time>2023-11-26T12:18:16Z</time>
      </trkpt>
      <trkpt lat="43.61689" lon="6.59397">
        <ele>656.3</ele>
        <time>2023-11-26T12:18:17Z</time>
      </trkpt>
      <trkpt lat="43.61689" lon="6.59397">
        <ele>656.4</ele>
        <time>2023-11-26T12:18:18Z</time>
      </trkpt>
      <trkpt lat="43.61689" lon="6.59397">
        <ele>656.3</ele>
        <time>2023-11-26T12:18:19Z</time>
      </trkpt>
      <trkpt lat="43.6169" lon="6.59397">
        <ele>656.3</ele>
        <time>2023-11-26T12:18:20Z</time>
      </trkpt>
      <trkpt lat="43.6169" lon="6.59397">
        <ele>656.3</ele>
        <time>2023-11-26T12:18:21Z</time>
      </trkpt>
      <trkpt lat="43.6169" lon="6.59397">
        <ele>656.3</ele>
        <time>2023-11-26T12:18:22Z</time>
      </trkpt>
      <trkpt lat="43.6169" lon="6.59397">
        <ele>656.3</ele>
        <time>2023-11-26T12:18:23Z</time>
      </trkpt>
      <trkpt lat="43.6169" lon="6.59397">
        <ele>656.3</ele>
        <time>2023-11-26T12:18:24Z</time>
      </trkpt>
      <trkpt lat="43.6169" lon="6.59397">
        <ele>656.3</ele>
        <time>2023-11-26T12:18:25Z</time>
      </trkpt>
      <trkpt lat="43.6169" lon="6.59397">
        <ele>656.3</ele>
        <time>2023-11-26T12:18:26Z</time>
      </trkpt>
      <trkpt lat="43.6169" lon="6.59397">
        <ele>656.3</ele>
        <time>2023-11-26T12:18:27Z</time>
      </trkpt>
      <trkpt lat="43.6169" lon="6.59397">
        <ele>656.3</ele>
        <time>2023-11-26T12:18:28Z</time>
      </trkpt>
      <trkpt lat="43.6169" lon="6.59397">
        <ele>656.2</ele>
        <time>2023-11-26T12:18:29Z</time>
      </trkpt>
      <trkpt lat="43.6169" lon="6.59397">
        <ele>656.3</ele>
        <time>2023-11-26T12:18:30Z</time>
      </trkpt>
      <trkpt lat="43.61689" lon="6.59397">
        <ele>656.3</ele>
        <time>2023-11-26T12:18:31Z</time>
      </trkpt>
      <trkpt lat="43.61689" lon="6.59397">
        <ele>656.3</ele>
        <time>2023-11-26T12:18:32Z</time>
      </trkpt>
      <trkpt lat="43.61689" lon="6.59397">
        <ele>656.3</ele>
        <time>2023-11-26T12:18:33Z</time>
      </trkpt>
      <trkpt lat="43.61689" lon="6.59397">
        <ele>656.3</ele>
        <time>2023-11-26T12:18:34Z</time>
      </trkpt>
      <trkpt lat="43.61689" lon="6.59397">
        <ele>656.3</ele>
        <time>2023-11-26T12:18:35Z</time>
      </trkpt>
      <trkpt lat="43.61689" lon="6.59396">
        <ele>656.3</ele>
        <time>2023-11-26T12:18:36Z</time>
      </trkpt>
      <trkpt lat="43.61689" lon="6.59396">
        <ele>656.2</ele>
        <time>2023-11-26T12:18:37Z</time>
      </trkpt>
      <trkpt lat="43.61689" lon="6.59396">
        <ele>656.2</ele>
        <time>2023-11-26T12:18:38Z</time>
      </trkpt>
      <trkpt lat="43.61689" lon="6.59396">
        <ele>656.2</ele>
        <time>2023-11-26T12:18:39Z</time>
      </trkpt>
      <trkpt lat="43.61689" lon="6.59396">
        <ele>656.1</ele>
        <time>2023-11-26T12:18:40Z</time>
      </trkpt>
      <trkpt lat="43.61689" lon="6.59396">
        <ele>656.1</ele>
        <time>2023-11-26T12:18:41Z</time>
      </trkpt>
      <trkpt lat="43.61689" lon="6.59396">
        <ele>656.1</ele>
        <time>2023-11-26T12:18:42Z</time>
      </trkpt>
      <trkpt lat="43.61689" lon="6.59396">
        <ele>656.1</ele>
        <time>2023-11-26T12:18:43Z</time>
      </trkpt>
      <trkpt lat="43.61689" lon="6.59396">
        <ele>656.1</ele>
        <time>2023-11-26T12:18:44Z</time>
      </trkpt>
      <trkpt lat="43.61689" lon="6.59396">
        <ele>656.2</ele>
        <time>2023-11-26T12:18:45Z</time>
      </trkpt>
      <trkpt lat="43.61689" lon="6.59395">
        <ele>656.3</ele>
        <time>2023-11-26T12:18:46Z</time>
      </trkpt>
      <trkpt lat="43.61689" lon="6.59395">
        <ele>656.3</ele>
        <time>2023-11-26T12:18:47Z</time>
      </trkpt>
      <trkpt lat="43.61689" lon="6.59395">
        <ele>656.3</ele>
        <time>2023-11-26T12:18:48Z</time>
      </trkpt>
      <trkpt lat="43.61689" lon="6.59396">
        <ele>656.2</ele>
        <time>2023-11-26T12:18:49Z</time>
      </trkpt>
      <trkpt lat="43.61689" lon="6.59396">
        <ele>656.3</ele>
        <time>2023-11-26T12:18:50Z</time>
      </trkpt>
      <trkpt lat="43.61689" lon="6.59396">
        <ele>656.3</ele>
        <time>2023-11-26T12:18:51Z</time>
      </trkpt>
      <trkpt lat="43.61689" lon="6.59396">
        <ele>656.3</ele>
        <time>2023-11-26T12:18:52Z</time>
      </trkpt>
      <trkpt lat="43.61689" lon="6.59396">
        <ele>656.3</ele>
        <time>2023-11-26T12:18:53Z</time>
      </trkpt>
      <trkpt lat="43.61689" lon="6.59396">
        <ele>656.3</ele>
        <time>2023-11-26T12:18:54Z</time>
      </trkpt>
      <trkpt lat="43.61689" lon="6.59395">
        <ele>656.2</ele>
        <time>2023-11-26T12:18:55Z</time>
      </trkpt>
      <trkpt lat="43.61689" lon="6.59395">
        <ele>656.2</ele>
        <time>2023-11-26T12:18:56Z</time>
      </trkpt>
      <trkpt lat="43.61689" lon="6.59395">
        <ele>656.3</ele>
        <time>2023-11-26T12:18:57Z</time>
      </trkpt>
      <trkpt lat="43.61689" lon="6.59395">
        <ele>656.3</ele>
        <time>2023-11-26T12:18:58Z</time>
      </trkpt>
      <trkpt lat="43.61689" lon="6.59395">
        <ele>656.4</ele>
        <time>2023-11-26T12:18:59Z</time>
      </trkpt>
      <trkpt lat="43.6169" lon="6.59395">
        <ele>656.4</ele>
        <time>2023-11-26T12:19:00Z</time>
      </trkpt>
      <trkpt lat="43.61689" lon="6.59395">
        <ele>656.4</ele>
        <time>2023-11-26T12:19:01Z</time>
      </trkpt>
      <trkpt lat="43.61689" lon="6.59395">
        <ele>656.4</ele>
        <time>2023-11-26T12:19:02Z</time>
      </trkpt>
      <trkpt lat="43.61689" lon="6.59395">
        <ele>656.4</ele>
        <time>2023-11-26T12:19:03Z</time>
      </trkpt>
      <trkpt lat="43.61689" lon="6.59394">
        <ele>656.4</ele>
        <time>2023-11-26T12:19:04Z</time>
      </trkpt>
      <trkpt lat="43.61689" lon="6.59394">
        <ele>656.4</ele>
        <time>2023-11-26T12:19:05Z</time>
      </trkpt>
      <trkpt lat="43.6169" lon="6.59394">
        <ele>656.4</ele>
        <time>2023-11-26T12:19:06Z</time>
      </trkpt>
      <trkpt lat="43.6169" lon="6.59394">
        <ele>656.4</ele>
        <time>2023-11-26T12:19:07Z</time>
      </trkpt>
      <trkpt lat="43.6169" lon="6.59394">
        <ele>656.5</ele>
        <time>2023-11-26T12:19:08Z</time>
      </trkpt>
      <trkpt lat="43.6169" lon="6.59394">
        <ele>656.5</ele>
        <time>2023-11-26T12:19:09Z</time>
      </trkpt>
      <trkpt lat="43.6169" lon="6.59394">
        <ele>656.5</ele>
        <time>2023-11-26T12:19:10Z</time>
      </trkpt>
      <trkpt lat="43.6169" lon="6.59394">
        <ele>656.5</ele>
        <time>2023-11-26T12:19:11Z</time>
      </trkpt>
      <trkpt lat="43.6169" lon="6.59394">
        <ele>656.5</ele>
        <time>2023-11-26T12:19:12Z</time>
      </trkpt>
      <trkpt lat="43.6169" lon="6.59394">
        <ele>656.5</ele>
        <time>2023-11-26T12:19:13Z</time>
      </trkpt>
      <trkpt lat="43.6169" lon="6.59394">
        <ele>656.5</ele>
        <time>2023-11-26T12:19:14Z</time>
      </trkpt>
      <trkpt lat="43.6169" lon="6.59394">
        <ele>656.4</ele>
        <time>2023-11-26T12:19:15Z</time>
      </trkpt>
      <trkpt lat="43.6169" lon="6.59394">
        <ele>656.3</ele>
        <time>2023-11-26T12:19:16Z</time>
      </trkpt>
      <trkpt lat="43.6169" lon="6.59394">
        <ele>656.3</ele>
        <time>2023-11-26T12:19:17Z</time>
      </trkpt>
      <trkpt lat="43.6169" lon="6.59394">
        <ele>656.3</ele>
        <time>2023-11-26T12:19:18Z</time>
      </trkpt>
      <trkpt lat="43.61691" lon="6.59394">
        <ele>656.3</ele>
        <time>2023-11-26T12:19:19Z</time>
      </trkpt>
      <trkpt lat="43.61691" lon="6.59394">
        <ele>656.3</ele>
        <time>2023-11-26T12:19:20Z</time>
      </trkpt>
      <trkpt lat="43.61691" lon="6.59394">
        <ele>656.4</ele>
        <time>2023-11-26T12:19:21Z</time>
      </trkpt>
      <trkpt lat="43.61691" lon="6.59393">
        <ele>656.4</ele>
        <time>2023-11-26T12:19:22Z</time>
      </trkpt>
      <trkpt lat="43.61691" lon="6.59393">
        <ele>656.4</ele>
        <time>2023-11-26T12:19:23Z</time>
      </trkpt>
      <trkpt lat="43.61691" lon="6.59393">
        <ele>656.5</ele>
        <time>2023-11-26T12:19:24Z</time>
      </trkpt>
      <trkpt lat="43.61691" lon="6.59393">
        <ele>656.5</ele>
        <time>2023-11-26T12:19:25Z</time>
      </trkpt>
      <trkpt lat="43.61691" lon="6.59393">
        <ele>656.5</ele>
        <time>2023-11-26T12:19:26Z</time>
      </trkpt>
      <trkpt lat="43.61691" lon="6.59393">
        <ele>656.6</ele>
        <time>2023-11-26T12:19:27Z</time>
      </trkpt>
      <trkpt lat="43.61691" lon="6.59393">
        <ele>656.6</ele>
        <time>2023-11-26T12:19:28Z</time>
      </trkpt>
      <trkpt lat="43.61692" lon="6.59393">
        <ele>656.6</ele>
        <time>2023-11-26T12:19:29Z</time>
      </trkpt>
      <trkpt lat="43.61692" lon="6.59393">
        <ele>656.6</ele>
        <time>2023-11-26T12:19:30Z</time>
      </trkpt>
      <trkpt lat="43.61692" lon="6.59392">
        <ele>656.6</ele>
        <time>2023-11-26T12:19:31Z</time>
      </trkpt>
      <trkpt lat="43.61692" lon="6.59392">
        <ele>656.6</ele>
        <time>2023-11-26T12:19:32Z</time>
      </trkpt>
      <trkpt lat="43.61692" lon="6.59392">
        <ele>656.6</ele>
        <time>2023-11-26T12:19:33Z</time>
      </trkpt>
      <trkpt lat="43.61692" lon="6.59392">
        <ele>656.5</ele>
        <time>2023-11-26T12:19:34Z</time>
      </trkpt>
      <trkpt lat="43.61692" lon="6.59392">
        <ele>656.5</ele>
        <time>2023-11-26T12:19:35Z</time>
      </trkpt>
      <trkpt lat="43.61692" lon="6.59392">
        <ele>656.4</ele>
        <time>2023-11-26T12:19:36Z</time>
      </trkpt>
      <trkpt lat="43.61692" lon="6.59392">
        <ele>656.4</ele>
        <time>2023-11-26T12:19:37Z</time>
      </trkpt>
      <trkpt lat="43.61692" lon="6.59392">
        <ele>656.4</ele>
        <time>2023-11-26T12:19:38Z</time>
      </trkpt>
      <trkpt lat="43.61692" lon="6.59392">
        <ele>656.5</ele>
        <time>2023-11-26T12:19:39Z</time>
      </trkpt>
      <trkpt lat="43.61692" lon="6.59392">
        <ele>656.4</ele>
        <time>2023-11-26T12:19:40Z</time>
      </trkpt>
      <trkpt lat="43.61692" lon="6.59392">
        <ele>656.3</ele>
        <time>2023-11-26T12:19:41Z</time>
      </trkpt>
      <trkpt lat="43.61692" lon="6.59392">
        <ele>656.3</ele>
        <time>2023-11-26T12:19:42Z</time>
      </trkpt>
      <trkpt lat="43.61692" lon="6.59392">
        <ele>656.2</ele>
        <time>2023-11-26T12:19:43Z</time>
      </trkpt>
      <trkpt lat="43.61692" lon="6.59392">
        <ele>656.2</ele>
        <time>2023-11-26T12:19:44Z</time>
      </trkpt>
      <trkpt lat="43.61692" lon="6.59392">
        <ele>656.2</ele>
        <time>2023-11-26T12:19:45Z</time>
      </trkpt>
      <trkpt lat="43.61692" lon="6.59393">
        <ele>656.1</ele>
        <time>2023-11-26T12:19:46Z</time>
      </trkpt>
      <trkpt lat="43.61692" lon="6.59393">
        <ele>656.1</ele>
        <time>2023-11-26T12:19:47Z</time>
      </trkpt>
      <trkpt lat="43.61692" lon="6.59393">
        <ele>656.1</ele>
        <time>2023-11-26T12:19:48Z</time>
      </trkpt>
      <trkpt lat="43.61692" lon="6.59393">
        <ele>656.1</ele>
        <time>2023-11-26T12:19:49Z</time>
      </trkpt>
      <trkpt lat="43.61692" lon="6.59392">
        <ele>656</ele>
        <time>2023-11-26T12:19:50Z</time>
      </trkpt>
      <trkpt lat="43.61692" lon="6.59392">
        <ele>656</ele>
        <time>2023-11-26T12:19:51Z</time>
      </trkpt>
      <trkpt lat="43.61692" lon="6.59392">
        <ele>656</ele>
        <time>2023-11-26T12:19:52Z</time>
      </trkpt>
      <trkpt lat="43.61692" lon="6.59393">
        <ele>656</ele>
        <time>2023-11-26T12:19:53Z</time>
      </trkpt>
      <trkpt lat="43.61692" lon="6.59393">
        <ele>655.9</ele>
        <time>2023-11-26T12:19:54Z</time>
      </trkpt>
      <trkpt lat="43.61692" lon="6.59393">
        <ele>655.9</ele>
        <time>2023-11-26T12:19:55Z</time>
      </trkpt>
      <trkpt lat="43.61692" lon="6.59393">
        <ele>655.9</ele>
        <time>2023-11-26T12:19:56Z</time>
      </trkpt>
      <trkpt lat="43.61691" lon="6.59393">
        <ele>655.9</ele>
        <time>2023-11-26T12:19:57Z</time>
      </trkpt>
      <trkpt lat="43.61691" lon="6.59392">
        <ele>656</ele>
        <time>2023-11-26T12:19:58Z</time>
      </trkpt>
      <trkpt lat="43.61691" lon="6.59392">
        <ele>656.1</ele>
        <time>2023-11-26T12:19:59Z</time>
      </trkpt>
      <trkpt lat="43.61691" lon="6.59392">
        <ele>656.1</ele>
        <time>2023-11-26T12:20:00Z</time>
      </trkpt>
      <trkpt lat="43.61691" lon="6.59392">
        <ele>656</ele>
        <time>2023-11-26T12:20:01Z</time>
      </trkpt>
      <trkpt lat="43.61691" lon="6.59393">
        <ele>656.1</ele>
        <time>2023-11-26T12:20:02Z</time>
      </trkpt>
      <trkpt lat="43.61691" lon="6.59392">
        <ele>656.1</ele>
        <time>2023-11-26T12:20:03Z</time>
      </trkpt>
      <trkpt lat="43.61691" lon="6.59392">
        <ele>656.1</ele>
        <time>2023-11-26T12:20:04Z</time>
      </trkpt>
      <trkpt lat="43.6169" lon="6.59392">
        <ele>656.2</ele>
        <time>2023-11-26T12:20:05Z</time>
      </trkpt>
      <trkpt lat="43.6169" lon="6.59392">
        <ele>656.3</ele>
        <time>2023-11-26T12:20:06Z</time>
      </trkpt>
      <trkpt lat="43.6169" lon="6.59392">
        <ele>656.3</ele>
        <time>2023-11-26T12:20:07Z</time>
      </trkpt>
      <trkpt lat="43.6169" lon="6.59392">
        <ele>656.4</ele>
        <time>2023-11-26T12:20:08Z</time>
      </trkpt>
      <trkpt lat="43.6169" lon="6.59392">
        <ele>656.4</ele>
        <time>2023-11-26T12:20:09Z</time>
      </trkpt>
      <trkpt lat="43.6169" lon="6.59392">
        <ele>656.3</ele>
        <time>2023-11-26T12:20:10Z</time>
      </trkpt>
      <trkpt lat="43.6169" lon="6.59392">
        <ele>656.3</ele>
        <time>2023-11-26T12:20:11Z</time>
      </trkpt>
      <trkpt lat="43.6169" lon="6.59392">
        <ele>656.2</ele>
        <time>2023-11-26T12:20:12Z</time>
      </trkpt>
      <trkpt lat="43.6169" lon="6.59393">
        <ele>656.2</ele>
        <time>2023-11-26T12:20:13Z</time>
      </trkpt>
      <trkpt lat="43.6169" lon="6.59393">
        <ele>656.2</ele>
        <time>2023-11-26T12:20:14Z</time>
      </trkpt>
      <trkpt lat="43.6169" lon="6.59393">
        <ele>656.1</ele>
        <time>2023-11-26T12:20:15Z</time>
      </trkpt>
      <trkpt lat="43.6169" lon="6.59393">
        <ele>656</ele>
        <time>2023-11-26T12:20:16Z</time>
      </trkpt>
      <trkpt lat="43.6169" lon="6.59393">
        <ele>655.9</ele>
        <time>2023-11-26T12:20:17Z</time>
      </trkpt>
      <trkpt lat="43.61689" lon="6.59394">
        <ele>655.9</ele>
        <time>2023-11-26T12:20:18Z</time>
      </trkpt>
      <trkpt lat="43.61689" lon="6.59394">
        <ele>655.9</ele>
        <time>2023-11-26T12:20:19Z</time>
      </trkpt>
      <trkpt lat="43.61688" lon="6.59394">
        <ele>655.8</ele>
        <time>2023-11-26T12:20:20Z</time>
      </trkpt>
      <trkpt lat="43.61688" lon="6.59394">
        <ele>655.9</ele>
        <time>2023-11-26T12:20:21Z</time>
      </trkpt>
      <trkpt lat="43.61688" lon="6.59395">
        <ele>655.9</ele>
        <time>2023-11-26T12:20:22Z</time>
      </trkpt>
      <trkpt lat="43.61687" lon="6.59395">
        <ele>656</ele>
        <time>2023-11-26T12:20:23Z</time>
      </trkpt>
      <trkpt lat="43.61687" lon="6.59395">
        <ele>655.9</ele>
        <time>2023-11-26T12:20:24Z</time>
      </trkpt>
      <trkpt lat="43.61686" lon="6.59394">
        <ele>655.8</ele>
        <time>2023-11-26T12:20:25Z</time>
      </trkpt>
      <trkpt lat="43.61686" lon="6.59394">
        <ele>655.8</ele>
        <time>2023-11-26T12:20:26Z</time>
      </trkpt>
      <trkpt lat="43.61686" lon="6.59394">
        <ele>655.7</ele>
        <time>2023-11-26T12:20:27Z</time>
      </trkpt>
      <trkpt lat="43.61686" lon="6.59394">
        <ele>655.7</ele>
        <time>2023-11-26T12:20:28Z</time>
      </trkpt>
      <trkpt lat="43.61686" lon="6.59394">
        <ele>655.7</ele>
        <time>2023-11-26T12:20:29Z</time>
      </trkpt>
      <trkpt lat="43.61685" lon="6.59394">
        <ele>655.8</ele>
        <time>2023-11-26T12:20:30Z</time>
      </trkpt>
      <trkpt lat="43.61685" lon="6.59394">
        <ele>655.8</ele>
        <time>2023-11-26T12:20:31Z</time>
      </trkpt>
      <trkpt lat="43.61684" lon="6.59394">
        <ele>655.9</ele>
        <time>2023-11-26T12:20:32Z</time>
      </trkpt>
      <trkpt lat="43.61684" lon="6.59394">
        <ele>655.9</ele>
        <time>2023-11-26T12:20:33Z</time>
      </trkpt>
      <trkpt lat="43.61683" lon="6.59394">
        <ele>655.9</ele>
        <time>2023-11-26T12:20:34Z</time>
      </trkpt>
      <trkpt lat="43.61683" lon="6.59394">
        <ele>655.9</ele>
        <time>2023-11-26T12:20:35Z</time>
      </trkpt>
      <trkpt lat="43.61682" lon="6.59394">
        <ele>655.9</ele>
        <time>2023-11-26T12:20:36Z</time>
      </trkpt>
      <trkpt lat="43.61682" lon="6.59395">
        <ele>655.8</ele>
        <time>2023-11-26T12:20:37Z</time>
      </trkpt>
      <trkpt lat="43.61681" lon="6.59396">
        <ele>655.8</ele>
        <time>2023-11-26T12:20:38Z</time>
      </trkpt>
      <trkpt lat="43.61681" lon="6.59396">
        <ele>655.7</ele>
        <time>2023-11-26T12:20:39Z</time>
      </trkpt>
      <trkpt lat="43.61681" lon="6.59396">
        <ele>655.6</ele>
        <time>2023-11-26T12:20:40Z</time>
      </trkpt>
      <trkpt lat="43.6168" lon="6.59397">
        <ele>655.5</ele>
        <time>2023-11-26T12:20:41Z</time>
      </trkpt>
      <trkpt lat="43.61679" lon="6.59398">
        <ele>655.4</ele>
        <time>2023-11-26T12:20:42Z</time>
      </trkpt>
      <trkpt lat="43.61678" lon="6.59399">
        <ele>655.3</ele>
        <time>2023-11-26T12:20:43Z</time>
      </trkpt>
      <trkpt lat="43.61677" lon="6.594">
        <ele>655.2</ele>
        <time>2023-11-26T12:20:44Z</time>
      </trkpt>
      <trkpt lat="43.61676" lon="6.59401">
        <ele>655.1</ele>
        <time>2023-11-26T12:20:45Z</time>
      </trkpt>
      <trkpt lat="43.61676" lon="6.59402">
        <ele>655</ele>
        <time>2023-11-26T12:20:46Z</time>
      </trkpt>
      <trkpt lat="43.61675" lon="6.59404">
        <ele>654.9</ele>
        <time>2023-11-26T12:20:47Z</time>
      </trkpt>
      <trkpt lat="43.61675" lon="6.59405">
        <ele>654.8</ele>
        <time>2023-11-26T12:20:48Z</time>
      </trkpt>
      <trkpt lat="43.61674" lon="6.59406">
        <ele>654.7</ele>
        <time>2023-11-26T12:20:49Z</time>
      </trkpt>
      <trkpt lat="43.61674" lon="6.59407">
        <ele>654.6</ele>
        <time>2023-11-26T12:20:50Z</time>
      </trkpt>
      <trkpt lat="43.61674" lon="6.59409">
        <ele>654.5</ele>
        <time>2023-11-26T12:20:51Z</time>
      </trkpt>
      <trkpt lat="43.61673" lon="6.5941">
        <ele>654.3</ele>
        <time>2023-11-26T12:20:52Z</time>
      </trkpt>
      <trkpt lat="43.61672" lon="6.59411">
        <ele>654.2</ele>
        <time>2023-11-26T12:20:53Z</time>
      </trkpt>
      <trkpt lat="43.61672" lon="6.59412">
        <ele>654</ele>
        <time>2023-11-26T12:20:54Z</time>
      </trkpt>
      <trkpt lat="43.61671" lon="6.59413">
        <ele>653.9</ele>
        <time>2023-11-26T12:20:55Z</time>
      </trkpt>
      <trkpt lat="43.61671" lon="6.59415">
        <ele>653.8</ele>
        <time>2023-11-26T12:20:56Z</time>
      </trkpt>
      <trkpt lat="43.6167" lon="6.59416">
        <ele>653.7</ele>
        <time>2023-11-26T12:20:57Z</time>
      </trkpt>
      <trkpt lat="43.6167" lon="6.59418">
        <ele>653.5</ele>
        <time>2023-11-26T12:20:58Z</time>
      </trkpt>
      <trkpt lat="43.61669" lon="6.59419">
        <ele>653.4</ele>
        <time>2023-11-26T12:20:59Z</time>
      </trkpt>
      <trkpt lat="43.61669" lon="6.59421">
        <ele>653.3</ele>
        <time>2023-11-26T12:21:00Z</time>
      </trkpt>
      <trkpt lat="43.61668" lon="6.59422">
        <ele>653.2</ele>
        <time>2023-11-26T12:21:01Z</time>
      </trkpt>
      <trkpt lat="43.61668" lon="6.59423">
        <ele>653.1</ele>
        <time>2023-11-26T12:21:02Z</time>
      </trkpt>
      <trkpt lat="43.61667" lon="6.59425">
        <ele>653</ele>
        <time>2023-11-26T12:21:03Z</time>
      </trkpt>
      <trkpt lat="43.61667" lon="6.59426">
        <ele>652.9</ele>
        <time>2023-11-26T12:21:04Z</time>
      </trkpt>
      <trkpt lat="43.61666" lon="6.59427">
        <ele>652.9</ele>
        <time>2023-11-26T12:21:05Z</time>
      </trkpt>
      <trkpt lat="43.61666" lon="6.59428">
        <ele>652.9</ele>
        <time>2023-11-26T12:21:06Z</time>
      </trkpt>
      <trkpt lat="43.61665" lon="6.5943">
        <ele>652.8</ele>
        <time>2023-11-26T12:21:07Z</time>
      </trkpt>
      <trkpt lat="43.61665" lon="6.59431">
        <ele>652.8</ele>
        <time>2023-11-26T12:21:08Z</time>
      </trkpt>
      <trkpt lat="43.61665" lon="6.59433">
        <ele>652.7</ele>
        <time>2023-11-26T12:21:09Z</time>
      </trkpt>
      <trkpt lat="43.61664" lon="6.59434">
        <ele>652.6</ele>
        <time>2023-11-26T12:21:10Z</time>
      </trkpt>
      <trkpt lat="43.61664" lon="6.59435">
        <ele>652.6</ele>
        <time>2023-11-26T12:21:11Z</time>
      </trkpt>
      <trkpt lat="43.61663" lon="6.59436">
        <ele>652.6</ele>
        <time>2023-11-26T12:21:12Z</time>
      </trkpt>
      <trkpt lat="43.61663" lon="6.59437">
        <ele>652.6</ele>
        <time>2023-11-26T12:21:13Z</time>
      </trkpt>
      <trkpt lat="43.61662" lon="6.59438">
        <ele>652.5</ele>
        <time>2023-11-26T12:21:14Z</time>
      </trkpt>
      <trkpt lat="43.61661" lon="6.5944">
        <ele>652.4</ele>
        <time>2023-11-26T12:21:15Z</time>
      </trkpt>
      <trkpt lat="43.61661" lon="6.59442">
        <ele>652.3</ele>
        <time>2023-11-26T12:21:16Z</time>
      </trkpt>
      <trkpt lat="43.6166" lon="6.59444">
        <ele>652.2</ele>
        <time>2023-11-26T12:21:17Z</time>
      </trkpt>
      <trkpt lat="43.6166" lon="6.59446">
        <ele>652.1</ele>
        <time>2023-11-26T12:21:18Z</time>
      </trkpt>
      <trkpt lat="43.61659" lon="6.59447">
        <ele>652.1</ele>
        <time>2023-11-26T12:21:19Z</time>
      </trkpt>
      <trkpt lat="43.61659" lon="6.59449">
        <ele>652.1</ele>
        <time>2023-11-26T12:21:20Z</time>
      </trkpt>
      <trkpt lat="43.61658" lon="6.5945">
        <ele>652.1</ele>
        <time>2023-11-26T12:21:21Z</time>
      </trkpt>
      <trkpt lat="43.61658" lon="6.59452">
        <ele>652</ele>
        <time>2023-11-26T12:21:22Z</time>
      </trkpt>
      <trkpt lat="43.61658" lon="6.59453">
        <ele>651.9</ele>
        <time>2023-11-26T12:21:23Z</time>
      </trkpt>
      <trkpt lat="43.61658" lon="6.59455">
        <ele>651.8</ele>
        <time>2023-11-26T12:21:24Z</time>
      </trkpt>
      <trkpt lat="43.61658" lon="6.59456">
        <ele>651.8</ele>
        <time>2023-11-26T12:21:25Z</time>
      </trkpt>
      <trkpt lat="43.61657" lon="6.59458">
        <ele>651.6</ele>
        <time>2023-11-26T12:21:26Z</time>
      </trkpt>
      <trkpt lat="43.61657" lon="6.5946">
        <ele>651.4</ele>
        <time>2023-11-26T12:21:27Z</time>
      </trkpt>
      <trkpt lat="43.61657" lon="6.59462">
        <ele>651.3</ele>
        <time>2023-11-26T12:21:28Z</time>
      </trkpt>
      <trkpt lat="43.61656" lon="6.59463">
        <ele>651.1</ele>
        <time>2023-11-26T12:21:29Z</time>
      </trkpt>
      <trkpt lat="43.61656" lon="6.59465">
        <ele>651</ele>
        <time>2023-11-26T12:21:30Z</time>
      </trkpt>
      <trkpt lat="43.61656" lon="6.59467">
        <ele>650.8</ele>
        <time>2023-11-26T12:21:31Z</time>
      </trkpt>
      <trkpt lat="43.61656" lon="6.59469">
        <ele>650.7</ele>
        <time>2023-11-26T12:21:32Z</time>
      </trkpt>
      <trkpt lat="43.61655" lon="6.59472">
        <ele>650.5</ele>
        <time>2023-11-26T12:21:33Z</time>
      </trkpt>
      <trkpt lat="43.61655" lon="6.59474">
        <ele>650.5</ele>
        <time>2023-11-26T12:21:34Z</time>
      </trkpt>
      <trkpt lat="43.61655" lon="6.59476">
        <ele>650.4</ele>
        <time>2023-11-26T12:21:35Z</time>
      </trkpt>
      <trkpt lat="43.61654" lon="6.59478">
        <ele>650.2</ele>
        <time>2023-11-26T12:21:36Z</time>
      </trkpt>
      <trkpt lat="43.61654" lon="6.5948">
        <ele>650.2</ele>
        <time>2023-11-26T12:21:37Z</time>
      </trkpt>
      <trkpt lat="43.61653" lon="6.59482">
        <ele>650.1</ele>
        <time>2023-11-26T12:21:38Z</time>
      </trkpt>
      <trkpt lat="43.61653" lon="6.59483">
        <ele>650.1</ele>
        <time>2023-11-26T12:21:39Z</time>
      </trkpt>
      <trkpt lat="43.61653" lon="6.59485">
        <ele>650</ele>
        <time>2023-11-26T12:21:40Z</time>
      </trkpt>
      <trkpt lat="43.61653" lon="6.59486">
        <ele>650</ele>
        <time>2023-11-26T12:21:41Z</time>
      </trkpt>
      <trkpt lat="43.61653" lon="6.59489">
        <ele>650</ele>
        <time>2023-11-26T12:21:42Z</time>
      </trkpt>
      <trkpt lat="43.61653" lon="6.5949">
        <ele>650</ele>
        <time>2023-11-26T12:21:43Z</time>
      </trkpt>
      <trkpt lat="43.61652" lon="6.59492">
        <ele>649.9</ele>
        <time>2023-11-26T12:21:44Z</time>
      </trkpt>
      <trkpt lat="43.61652" lon="6.59494">
        <ele>649.7</ele>
        <time>2023-11-26T12:21:45Z</time>
      </trkpt>
      <trkpt lat="43.61652" lon="6.59495">
        <ele>649.5</ele>
        <time>2023-11-26T12:21:46Z</time>
      </trkpt>
      <trkpt lat="43.61651" lon="6.59497">
        <ele>649.3</ele>
        <time>2023-11-26T12:21:47Z</time>
      </trkpt>
      <trkpt lat="43.61651" lon="6.59499">
        <ele>649.2</ele>
        <time>2023-11-26T12:21:48Z</time>
      </trkpt>
      <trkpt lat="43.61651" lon="6.59501">
        <ele>649.1</ele>
        <time>2023-11-26T12:21:49Z</time>
      </trkpt>
      <trkpt lat="43.61651" lon="6.59503">
        <ele>648.9</ele>
        <time>2023-11-26T12:21:50Z</time>
      </trkpt>
      <trkpt lat="43.61651" lon="6.59504">
        <ele>648.8</ele>
        <time>2023-11-26T12:21:51Z</time>
      </trkpt>
      <trkpt lat="43.61651" lon="6.59506">
        <ele>648.7</ele>
        <time>2023-11-26T12:21:52Z</time>
      </trkpt>
      <trkpt lat="43.61651" lon="6.59508">
        <ele>648.5</ele>
        <time>2023-11-26T12:21:53Z</time>
      </trkpt>
      <trkpt lat="43.6165" lon="6.59509">
        <ele>648.4</ele>
        <time>2023-11-26T12:21:54Z</time>
      </trkpt>
      <trkpt lat="43.6165" lon="6.59511">
        <ele>648.3</ele>
        <time>2023-11-26T12:21:55Z</time>
      </trkpt>
      <trkpt lat="43.6165" lon="6.59513">
        <ele>648.1</ele>
        <time>2023-11-26T12:21:56Z</time>
      </trkpt>
      <trkpt lat="43.61649" lon="6.59514">
        <ele>648</ele>
        <time>2023-11-26T12:21:57Z</time>
      </trkpt>
      <trkpt lat="43.61649" lon="6.59516">
        <ele>648</ele>
        <time>2023-11-26T12:21:58Z</time>
      </trkpt>
      <trkpt lat="43.61649" lon="6.59517">
        <ele>647.8</ele>
        <time>2023-11-26T12:21:59Z</time>
      </trkpt>
      <trkpt lat="43.61648" lon="6.59519">
        <ele>647.7</ele>
        <time>2023-11-26T12:22:00Z</time>
      </trkpt>
      <trkpt lat="43.61648" lon="6.59521">
        <ele>647.6</ele>
        <time>2023-11-26T12:22:01Z</time>
      </trkpt>
      <trkpt lat="43.61648" lon="6.59522">
        <ele>647.5</ele>
        <time>2023-11-26T12:22:02Z</time>
      </trkpt>
      <trkpt lat="43.61648" lon="6.59524">
        <ele>647.4</ele>
        <time>2023-11-26T12:22:03Z</time>
      </trkpt>
      <trkpt lat="43.61647" lon="6.59525">
        <ele>647.4</ele>
        <time>2023-11-26T12:22:04Z</time>
      </trkpt>
      <trkpt lat="43.61647" lon="6.59527">
        <ele>647.3</ele>
        <time>2023-11-26T12:22:05Z</time>
      </trkpt>
      <trkpt lat="43.61646" lon="6.59528">
        <ele>647.3</ele>
        <time>2023-11-26T12:22:06Z</time>
      </trkpt>
      <trkpt lat="43.61646" lon="6.59529">
        <ele>647.1</ele>
        <time>2023-11-26T12:22:07Z</time>
      </trkpt>
      <trkpt lat="43.61645" lon="6.59531">
        <ele>647.1</ele>
        <time>2023-11-26T12:22:08Z</time>
      </trkpt>
      <trkpt lat="43.61644" lon="6.59533">
        <ele>646.9</ele>
        <time>2023-11-26T12:22:09Z</time>
      </trkpt>
      <trkpt lat="43.61644" lon="6.59534">
        <ele>646.8</ele>
        <time>2023-11-26T12:22:10Z</time>
      </trkpt>
      <trkpt lat="43.61644" lon="6.59536">
        <ele>646.7</ele>
        <time>2023-11-26T12:22:11Z</time>
      </trkpt>
      <trkpt lat="43.61643" lon="6.59537">
        <ele>646.6</ele>
        <time>2023-11-26T12:22:12Z</time>
      </trkpt>
      <trkpt lat="43.61642" lon="6.59539">
        <ele>646.5</ele>
        <time>2023-11-26T12:22:13Z</time>
      </trkpt>
      <trkpt lat="43.61641" lon="6.5954">
        <ele>646.4</ele>
        <time>2023-11-26T12:22:14Z</time>
      </trkpt>
      <trkpt lat="43.61641" lon="6.59541">
        <ele>646.3</ele>
        <time>2023-11-26T12:22:15Z</time>
      </trkpt>
      <trkpt lat="43.6164" lon="6.59543">
        <ele>646.2</ele>
        <time>2023-11-26T12:22:16Z</time>
      </trkpt>
      <trkpt lat="43.61639" lon="6.59544">
        <ele>646</ele>
        <time>2023-11-26T12:22:17Z</time>
      </trkpt>
      <trkpt lat="43.61639" lon="6.59545">
        <ele>645.9</ele>
        <time>2023-11-26T12:22:18Z</time>
      </trkpt>
      <trkpt lat="43.61639" lon="6.59546">
        <ele>645.9</ele>
        <time>2023-11-26T12:22:19Z</time>
      </trkpt>
      <trkpt lat="43.61638" lon="6.59547">
        <ele>645.8</ele>
        <time>2023-11-26T12:22:20Z</time>
      </trkpt>
      <trkpt lat="43.61637" lon="6.59549">
        <ele>645.8</ele>
        <time>2023-11-26T12:22:21Z</time>
      </trkpt>
      <trkpt lat="43.61637" lon="6.5955">
        <ele>645.8</ele>
        <time>2023-11-26T12:22:22Z</time>
      </trkpt>
      <trkpt lat="43.61636" lon="6.59551">
        <ele>645.7</ele>
        <time>2023-11-26T12:22:23Z</time>
      </trkpt>
      <trkpt lat="43.61636" lon="6.59552">
        <ele>645.6</ele>
        <time>2023-11-26T12:22:24Z</time>
      </trkpt>
      <trkpt lat="43.61635" lon="6.59553">
        <ele>645.5</ele>
        <time>2023-11-26T12:22:25Z</time>
      </trkpt>
      <trkpt lat="43.61634" lon="6.59553">
        <ele>645.3</ele>
        <time>2023-11-26T12:22:26Z</time>
      </trkpt>
      <trkpt lat="43.61634" lon="6.59555">
        <ele>645.2</ele>
        <time>2023-11-26T12:22:27Z</time>
      </trkpt>
      <trkpt lat="43.61633" lon="6.59556">
        <ele>645.1</ele>
        <time>2023-11-26T12:22:28Z</time>
      </trkpt>
      <trkpt lat="43.61632" lon="6.59558">
        <ele>645</ele>
        <time>2023-11-26T12:22:29Z</time>
      </trkpt>
      <trkpt lat="43.61631" lon="6.59559">
        <ele>645</ele>
        <time>2023-11-26T12:22:30Z</time>
      </trkpt>
      <trkpt lat="43.6163" lon="6.5956">
        <ele>645</ele>
        <time>2023-11-26T12:22:31Z</time>
      </trkpt>
      <trkpt lat="43.6163" lon="6.59562">
        <ele>644.9</ele>
        <time>2023-11-26T12:22:32Z</time>
      </trkpt>
      <trkpt lat="43.61629" lon="6.59563">
        <ele>644.7</ele>
        <time>2023-11-26T12:22:33Z</time>
      </trkpt>
      <trkpt lat="43.61629" lon="6.59565">
        <ele>644.6</ele>
        <time>2023-11-26T12:22:34Z</time>
      </trkpt>
      <trkpt lat="43.61628" lon="6.59566">
        <ele>644.4</ele>
        <time>2023-11-26T12:22:35Z</time>
      </trkpt>
      <trkpt lat="43.61627" lon="6.59568">
        <ele>644.2</ele>
        <time>2023-11-26T12:22:36Z</time>
      </trkpt>
      <trkpt lat="43.61627" lon="6.59569">
        <ele>644.1</ele>
        <time>2023-11-26T12:22:37Z</time>
      </trkpt>
      <trkpt lat="43.61626" lon="6.59571">
        <ele>644</ele>
        <time>2023-11-26T12:22:38Z</time>
      </trkpt>
      <trkpt lat="43.61625" lon="6.59572">
        <ele>643.9</ele>
        <time>2023-11-26T12:22:39Z</time>
      </trkpt>
      <trkpt lat="43.61625" lon="6.59574">
        <ele>643.8</ele>
        <time>2023-11-26T12:22:40Z</time>
      </trkpt>
      <trkpt lat="43.61624" lon="6.59575">
        <ele>643.8</ele>
        <time>2023-11-26T12:22:41Z</time>
      </trkpt>
      <trkpt lat="43.61624" lon="6.59577">
        <ele>643.7</ele>
        <time>2023-11-26T12:22:42Z</time>
      </trkpt>
      <trkpt lat="43.61623" lon="6.59579">
        <ele>643.6</ele>
        <time>2023-11-26T12:22:43Z</time>
      </trkpt>
      <trkpt lat="43.61622" lon="6.5958">
        <ele>643.5</ele>
        <time>2023-11-26T12:22:44Z</time>
      </trkpt>
      <trkpt lat="43.61622" lon="6.59582">
        <ele>643.4</ele>
        <time>2023-11-26T12:22:45Z</time>
      </trkpt>
      <trkpt lat="43.61621" lon="6.59583">
        <ele>643.2</ele>
        <time>2023-11-26T12:22:46Z</time>
      </trkpt>
      <trkpt lat="43.61621" lon="6.59584">
        <ele>643.1</ele>
        <time>2023-11-26T12:22:47Z</time>
      </trkpt>
      <trkpt lat="43.6162" lon="6.59586">
        <ele>643.2</ele>
        <time>2023-11-26T12:22:48Z</time>
      </trkpt>
      <trkpt lat="43.61619" lon="6.59587">
        <ele>643.1</ele>
        <time>2023-11-26T12:22:49Z</time>
      </trkpt>
      <trkpt lat="43.61618" lon="6.59589">
        <ele>642.9</ele>
        <time>2023-11-26T12:22:50Z</time>
      </trkpt>
      <trkpt lat="43.61618" lon="6.5959">
        <ele>642.8</ele>
        <time>2023-11-26T12:22:51Z</time>
      </trkpt>
      <trkpt lat="43.61617" lon="6.59592">
        <ele>642.7</ele>
        <time>2023-11-26T12:22:52Z</time>
      </trkpt>
      <trkpt lat="43.61617" lon="6.59594">
        <ele>642.6</ele>
        <time>2023-11-26T12:22:53Z</time>
      </trkpt>
      <trkpt lat="43.61616" lon="6.59595">
        <ele>642.4</ele>
        <time>2023-11-26T12:22:54Z</time>
      </trkpt>
      <trkpt lat="43.61615" lon="6.59597">
        <ele>642.3</ele>
        <time>2023-11-26T12:22:55Z</time>
      </trkpt>
      <trkpt lat="43.61614" lon="6.59599">
        <ele>642.2</ele>
        <time>2023-11-26T12:22:56Z</time>
      </trkpt>
      <trkpt lat="43.61614" lon="6.59601">
        <ele>642.1</ele>
        <time>2023-11-26T12:22:57Z</time>
      </trkpt>
      <trkpt lat="43.61613" lon="6.59603">
        <ele>642</ele>
        <time>2023-11-26T12:22:58Z</time>
      </trkpt>
      <trkpt lat="43.61613" lon="6.59605">
        <ele>641.8</ele>
        <time>2023-11-26T12:22:59Z</time>
      </trkpt>
      <trkpt lat="43.61613" lon="6.59607">
        <ele>641.6</ele>
        <time>2023-11-26T12:23:00Z</time>
      </trkpt>
      <trkpt lat="43.61613" lon="6.59609">
        <ele>641.5</ele>
        <time>2023-11-26T12:23:01Z</time>
      </trkpt>
      <trkpt lat="43.61612" lon="6.59611">
        <ele>641.4</ele>
        <time>2023-11-26T12:23:02Z</time>
      </trkpt>
      <trkpt lat="43.61612" lon="6.59613">
        <ele>641.2</ele>
        <time>2023-11-26T12:23:03Z</time>
      </trkpt>
      <trkpt lat="43.61612" lon="6.59615">
        <ele>641</ele>
        <time>2023-11-26T12:23:04Z</time>
      </trkpt>
      <trkpt lat="43.61612" lon="6.59617">
        <ele>640.8</ele>
        <time>2023-11-26T12:23:05Z</time>
      </trkpt>
      <trkpt lat="43.61612" lon="6.59619">
        <ele>640.7</ele>
        <time>2023-11-26T12:23:06Z</time>
      </trkpt>
      <trkpt lat="43.61612" lon="6.59621">
        <ele>640.6</ele>
        <time>2023-11-26T12:23:07Z</time>
      </trkpt>
      <trkpt lat="43.61613" lon="6.59622">
        <ele>640.5</ele>
        <time>2023-11-26T12:23:08Z</time>
      </trkpt>
      <trkpt lat="43.61613" lon="6.59624">
        <ele>640.4</ele>
        <time>2023-11-26T12:23:09Z</time>
      </trkpt>
      <trkpt lat="43.61613" lon="6.59626">
        <ele>640.3</ele>
        <time>2023-11-26T12:23:10Z</time>
      </trkpt>
      <trkpt lat="43.61613" lon="6.59628">
        <ele>640.2</ele>
        <time>2023-11-26T12:23:11Z</time>
      </trkpt>
      <trkpt lat="43.61613" lon="6.5963">
        <ele>640.1</ele>
        <time>2023-11-26T12:23:12Z</time>
      </trkpt>
      <trkpt lat="43.61613" lon="6.59631">
        <ele>640.1</ele>
        <time>2023-11-26T12:23:13Z</time>
      </trkpt>
      <trkpt lat="43.61613" lon="6.59633">
        <ele>640.1</ele>
        <time>2023-11-26T12:23:14Z</time>
      </trkpt>
      <trkpt lat="43.61613" lon="6.59634">
        <ele>639.9</ele>
        <time>2023-11-26T12:23:15Z</time>
      </trkpt>
      <trkpt lat="43.61613" lon="6.59635">
        <ele>639.8</ele>
        <time>2023-11-26T12:23:16Z</time>
      </trkpt>
      <trkpt lat="43.61613" lon="6.59636">
        <ele>639.7</ele>
        <time>2023-11-26T12:23:17Z</time>
      </trkpt>
      <trkpt lat="43.61613" lon="6.59638">
        <ele>639.6</ele>
        <time>2023-11-26T12:23:18Z</time>
      </trkpt>
      <trkpt lat="43.61612" lon="6.59639">
        <ele>639.5</ele>
        <time>2023-11-26T12:23:19Z</time>
      </trkpt>
      <trkpt lat="43.61612" lon="6.59641">
        <ele>639.5</ele>
        <time>2023-11-26T12:23:20Z</time>
      </trkpt>
      <trkpt lat="43.61612" lon="6.59643">
        <ele>639.4</ele>
        <time>2023-11-26T12:23:21Z</time>
      </trkpt>
      <trkpt lat="43.61611" lon="6.59645">
        <ele>639.3</ele>
        <time>2023-11-26T12:23:22Z</time>
      </trkpt>
      <trkpt lat="43.61611" lon="6.59646">
        <ele>639.1</ele>
        <time>2023-11-26T12:23:23Z</time>
      </trkpt>
      <trkpt lat="43.61611" lon="6.59648">
        <ele>639</ele>
        <time>2023-11-26T12:23:24Z</time>
      </trkpt>
      <trkpt lat="43.61611" lon="6.5965">
        <ele>638.8</ele>
        <time>2023-11-26T12:23:25Z</time>
      </trkpt>
      <trkpt lat="43.61611" lon="6.59651">
        <ele>638.6</ele>
        <time>2023-11-26T12:23:26Z</time>
      </trkpt>
      <trkpt lat="43.61611" lon="6.59652">
        <ele>638.4</ele>
        <time>2023-11-26T12:23:27Z</time>
      </trkpt>
      <trkpt lat="43.6161" lon="6.59654">
        <ele>638.3</ele>
        <time>2023-11-26T12:23:28Z</time>
      </trkpt>
      <trkpt lat="43.6161" lon="6.59655">
        <ele>638.1</ele>
        <time>2023-11-26T12:23:29Z</time>
      </trkpt>
      <trkpt lat="43.61609" lon="6.59657">
        <ele>638</ele>
        <time>2023-11-26T12:23:30Z</time>
      </trkpt>
      <trkpt lat="43.61608" lon="6.59659">
        <ele>638.1</ele>
        <time>2023-11-26T12:23:31Z</time>
      </trkpt>
      <trkpt lat="43.61607" lon="6.5966">
        <ele>638.1</ele>
        <time>2023-11-26T12:23:32Z</time>
      </trkpt>
      <trkpt lat="43.61606" lon="6.59662">
        <ele>638</ele>
        <time>2023-11-26T12:23:33Z</time>
      </trkpt>
      <trkpt lat="43.61606" lon="6.59664">
        <ele>637.8</ele>
        <time>2023-11-26T12:23:34Z</time>
      </trkpt>
      <trkpt lat="43.61605" lon="6.59665">
        <ele>637.7</ele>
        <time>2023-11-26T12:23:35Z</time>
      </trkpt>
      <trkpt lat="43.61604" lon="6.59666">
        <ele>637.5</ele>
        <time>2023-11-26T12:23:36Z</time>
      </trkpt>
      <trkpt lat="43.61604" lon="6.59668">
        <ele>637.3</ele>
        <time>2023-11-26T12:23:37Z</time>
      </trkpt>
      <trkpt lat="43.61604" lon="6.59669">
        <ele>637.2</ele>
        <time>2023-11-26T12:23:38Z</time>
      </trkpt>
      <trkpt lat="43.61603" lon="6.59671">
        <ele>637.2</ele>
        <time>2023-11-26T12:23:39Z</time>
      </trkpt>
      <trkpt lat="43.61603" lon="6.59672">
        <ele>637.1</ele>
        <time>2023-11-26T12:23:40Z</time>
      </trkpt>
      <trkpt lat="43.61602" lon="6.59674">
        <ele>637.1</ele>
        <time>2023-11-26T12:23:41Z</time>
      </trkpt>
      <trkpt lat="43.61602" lon="6.59675">
        <ele>637</ele>
        <time>2023-11-26T12:23:42Z</time>
      </trkpt>
      <trkpt lat="43.61601" lon="6.59677">
        <ele>637</ele>
        <time>2023-11-26T12:23:43Z</time>
      </trkpt>
      <trkpt lat="43.61601" lon="6.59678">
        <ele>637.1</ele>
        <time>2023-11-26T12:23:44Z</time>
      </trkpt>
      <trkpt lat="43.616" lon="6.5968">
        <ele>637</ele>
        <time>2023-11-26T12:23:45Z</time>
      </trkpt>
      <trkpt lat="43.61599" lon="6.59682">
        <ele>636.9</ele>
        <time>2023-11-26T12:23:46Z</time>
      </trkpt>
      <trkpt lat="43.61599" lon="6.59683">
        <ele>636.8</ele>
        <time>2023-11-26T12:23:47Z</time>
      </trkpt>
      <trkpt lat="43.61598" lon="6.59685">
        <ele>636.7</ele>
        <time>2023-11-26T12:23:48Z</time>
      </trkpt>
      <trkpt lat="43.61598" lon="6.59687">
        <ele>636.6</ele>
        <time>2023-11-26T12:23:49Z</time>
      </trkpt>
      <trkpt lat="43.61597" lon="6.59689">
        <ele>636.5</ele>
        <time>2023-11-26T12:23:50Z</time>
      </trkpt>
      <trkpt lat="43.61597" lon="6.59691">
        <ele>636.3</ele>
        <time>2023-11-26T12:23:51Z</time>
      </trkpt>
      <trkpt lat="43.61597" lon="6.59692">
        <ele>636.3</ele>
        <time>2023-11-26T12:23:52Z</time>
      </trkpt>
      <trkpt lat="43.61597" lon="6.59694">
        <ele>636.1</ele>
        <time>2023-11-26T12:23:53Z</time>
      </trkpt>
      <trkpt lat="43.61596" lon="6.59696">
        <ele>635.9</ele>
        <time>2023-11-26T12:23:54Z</time>
      </trkpt>
      <trkpt lat="43.61596" lon="6.59698">
        <ele>635.7</ele>
        <time>2023-11-26T12:23:55Z</time>
      </trkpt>
      <trkpt lat="43.61596" lon="6.59699">
        <ele>635.6</ele>
        <time>2023-11-26T12:23:56Z</time>
      </trkpt>
      <trkpt lat="43.61596" lon="6.59701">
        <ele>635.5</ele>
        <time>2023-11-26T12:23:57Z</time>
      </trkpt>
      <trkpt lat="43.61596" lon="6.59703">
        <ele>635.4</ele>
        <time>2023-11-26T12:23:58Z</time>
      </trkpt>
      <trkpt lat="43.61596" lon="6.59705">
        <ele>635.3</ele>
        <time>2023-11-26T12:23:59Z</time>
      </trkpt>
      <trkpt lat="43.61595" lon="6.59707">
        <ele>635.1</ele>
        <time>2023-11-26T12:24:00Z</time>
      </trkpt>
      <trkpt lat="43.61595" lon="6.59708">
        <ele>635</ele>
        <time>2023-11-26T12:24:01Z</time>
      </trkpt>
      <trkpt lat="43.61595" lon="6.5971">
        <ele>634.8</ele>
        <time>2023-11-26T12:24:02Z</time>
      </trkpt>
      <trkpt lat="43.61595" lon="6.59712">
        <ele>634.7</ele>
        <time>2023-11-26T12:24:03Z</time>
      </trkpt>
      <trkpt lat="43.61595" lon="6.59714">
        <ele>634.5</ele>
        <time>2023-11-26T12:24:04Z</time>
      </trkpt>
      <trkpt lat="43.61595" lon="6.59715">
        <ele>634.4</ele>
        <time>2023-11-26T12:24:05Z</time>
      </trkpt>
      <trkpt lat="43.61595" lon="6.59717">
        <ele>634.4</ele>
        <time>2023-11-26T12:24:06Z</time>
      </trkpt>
      <trkpt lat="43.61595" lon="6.59719">
        <ele>634.3</ele>
        <time>2023-11-26T12:24:07Z</time>
      </trkpt>
      <trkpt lat="43.61595" lon="6.5972">
        <ele>634.1</ele>
        <time>2023-11-26T12:24:08Z</time>
      </trkpt>
      <trkpt lat="43.61595" lon="6.59722">
        <ele>633.9</ele>
        <time>2023-11-26T12:24:09Z</time>
      </trkpt>
      <trkpt lat="43.61595" lon="6.59723">
        <ele>633.8</ele>
        <time>2023-11-26T12:24:10Z</time>
      </trkpt>
      <trkpt lat="43.61595" lon="6.59724">
        <ele>633.6</ele>
        <time>2023-11-26T12:24:11Z</time>
      </trkpt>
      <trkpt lat="43.61594" lon="6.59726">
        <ele>633.4</ele>
        <time>2023-11-26T12:24:12Z</time>
      </trkpt>
      <trkpt lat="43.61594" lon="6.59728">
        <ele>633.3</ele>
        <time>2023-11-26T12:24:13Z</time>
      </trkpt>
      <trkpt lat="43.61594" lon="6.5973">
        <ele>633.2</ele>
        <time>2023-11-26T12:24:14Z</time>
      </trkpt>
      <trkpt lat="43.61594" lon="6.59732">
        <ele>633</ele>
        <time>2023-11-26T12:24:15Z</time>
      </trkpt>
      <trkpt lat="43.61594" lon="6.59733">
        <ele>632.9</ele>
        <time>2023-11-26T12:24:16Z</time>
      </trkpt>
      <trkpt lat="43.61594" lon="6.59734">
        <ele>632.8</ele>
        <time>2023-11-26T12:24:17Z</time>
      </trkpt>
      <trkpt lat="43.61594" lon="6.59736">
        <ele>632.6</ele>
        <time>2023-11-26T12:24:18Z</time>
      </trkpt>
      <trkpt lat="43.61594" lon="6.59737">
        <ele>632.5</ele>
        <time>2023-11-26T12:24:19Z</time>
      </trkpt>
      <trkpt lat="43.61594" lon="6.59738">
        <ele>632.3</ele>
        <time>2023-11-26T12:24:20Z</time>
      </trkpt>
      <trkpt lat="43.61594" lon="6.59739">
        <ele>632.2</ele>
        <time>2023-11-26T12:24:21Z</time>
      </trkpt>
      <trkpt lat="43.61594" lon="6.5974">
        <ele>632.2</ele>
        <time>2023-11-26T12:24:22Z</time>
      </trkpt>
      <trkpt lat="43.61594" lon="6.59742">
        <ele>632.1</ele>
        <time>2023-11-26T12:24:23Z</time>
      </trkpt>
      <trkpt lat="43.61594" lon="6.59744">
        <ele>631.9</ele>
        <time>2023-11-26T12:24:24Z</time>
      </trkpt>
      <trkpt lat="43.61595" lon="6.59745">
        <ele>631.8</ele>
        <time>2023-11-26T12:24:25Z</time>
      </trkpt>
      <trkpt lat="43.61594" lon="6.59747">
        <ele>631.6</ele>
        <time>2023-11-26T12:24:26Z</time>
      </trkpt>
      <trkpt lat="43.61594" lon="6.59749">
        <ele>631.5</ele>
        <time>2023-11-26T12:24:27Z</time>
      </trkpt>
      <trkpt lat="43.61595" lon="6.5975">
        <ele>631.4</ele>
        <time>2023-11-26T12:24:28Z</time>
      </trkpt>
      <trkpt lat="43.61595" lon="6.59752">
        <ele>631.3</ele>
        <time>2023-11-26T12:24:29Z</time>
      </trkpt>
      <trkpt lat="43.61595" lon="6.59753">
        <ele>631.1</ele>
        <time>2023-11-26T12:24:30Z</time>
      </trkpt>
      <trkpt lat="43.61595" lon="6.59755">
        <ele>631</ele>
        <time>2023-11-26T12:24:31Z</time>
      </trkpt>
      <trkpt lat="43.61595" lon="6.59756">
        <ele>630.8</ele>
        <time>2023-11-26T12:24:32Z</time>
      </trkpt>
      <trkpt lat="43.61596" lon="6.59757">
        <ele>630.7</ele>
        <time>2023-11-26T12:24:33Z</time>
      </trkpt>
      <trkpt lat="43.61595" lon="6.59759">
        <ele>630.4</ele>
        <time>2023-11-26T12:24:34Z</time>
      </trkpt>
      <trkpt lat="43.61595" lon="6.59761">
        <ele>630.2</ele>
        <time>2023-11-26T12:24:35Z</time>
      </trkpt>
      <trkpt lat="43.61596" lon="6.59763">
        <ele>630.1</ele>
        <time>2023-11-26T12:24:36Z</time>
      </trkpt>
      <trkpt lat="43.61596" lon="6.59765">
        <ele>629.9</ele>
        <time>2023-11-26T12:24:37Z</time>
      </trkpt>
      <trkpt lat="43.61596" lon="6.59767">
        <ele>629.8</ele>
        <time>2023-11-26T12:24:38Z</time>
      </trkpt>
      <trkpt lat="43.61596" lon="6.59769">
        <ele>629.6</ele>
        <time>2023-11-26T12:24:39Z</time>
      </trkpt>
      <trkpt lat="43.61596" lon="6.59771">
        <ele>629.6</ele>
        <time>2023-11-26T12:24:40Z</time>
      </trkpt>
      <trkpt lat="43.61597" lon="6.59773">
        <ele>629.4</ele>
        <time>2023-11-26T12:24:41Z</time>
      </trkpt>
      <trkpt lat="43.61597" lon="6.59775">
        <ele>629.3</ele>
        <time>2023-11-26T12:24:42Z</time>
      </trkpt>
      <trkpt lat="43.61597" lon="6.59777">
        <ele>629.1</ele>
        <time>2023-11-26T12:24:43Z</time>
      </trkpt>
      <trkpt lat="43.61597" lon="6.59779">
        <ele>629.1</ele>
        <time>2023-11-26T12:24:44Z</time>
      </trkpt>
      <trkpt lat="43.61598" lon="6.5978">
        <ele>629.1</ele>
        <time>2023-11-26T12:24:45Z</time>
      </trkpt>
      <trkpt lat="43.61598" lon="6.59782">
        <ele>629.1</ele>
        <time>2023-11-26T12:24:46Z</time>
      </trkpt>
      <trkpt lat="43.61598" lon="6.59783">
        <ele>629</ele>
        <time>2023-11-26T12:24:47Z</time>
      </trkpt>
      <trkpt lat="43.61598" lon="6.59785">
        <ele>628.9</ele>
        <time>2023-11-26T12:24:48Z</time>
      </trkpt>
      <trkpt lat="43.61598" lon="6.59786">
        <ele>628.8</ele>
        <time>2023-11-26T12:24:49Z</time>
      </trkpt>
      <trkpt lat="43.61599" lon="6.59788">
        <ele>628.7</ele>
        <time>2023-11-26T12:24:50Z</time>
      </trkpt>
      <trkpt lat="43.61599" lon="6.5979">
        <ele>628.6</ele>
        <time>2023-11-26T12:24:51Z</time>
      </trkpt>
      <trkpt lat="43.61599" lon="6.59791">
        <ele>628.5</ele>
        <time>2023-11-26T12:24:52Z</time>
      </trkpt>
      <trkpt lat="43.61599" lon="6.59792">
        <ele>628.6</ele>
        <time>2023-11-26T12:24:53Z</time>
      </trkpt>
      <trkpt lat="43.61599" lon="6.59794">
        <ele>628.5</ele>
        <time>2023-11-26T12:24:54Z</time>
      </trkpt>
      <trkpt lat="43.61598" lon="6.59796">
        <ele>628.4</ele>
        <time>2023-11-26T12:24:55Z</time>
      </trkpt>
      <trkpt lat="43.61598" lon="6.59797">
        <ele>628.2</ele>
        <time>2023-11-26T12:24:56Z</time>
      </trkpt>
      <trkpt lat="43.61598" lon="6.59799">
        <ele>628.1</ele>
        <time>2023-11-26T12:24:57Z</time>
      </trkpt>
      <trkpt lat="43.61598" lon="6.59801">
        <ele>628</ele>
        <time>2023-11-26T12:24:58Z</time>
      </trkpt>
      <trkpt lat="43.61598" lon="6.59803">
        <ele>627.8</ele>
        <time>2023-11-26T12:24:59Z</time>
      </trkpt>
      <trkpt lat="43.61598" lon="6.59804">
        <ele>627.6</ele>
        <time>2023-11-26T12:25:00Z</time>
      </trkpt>
      <trkpt lat="43.61598" lon="6.59806">
        <ele>627.4</ele>
        <time>2023-11-26T12:25:01Z</time>
      </trkpt>
      <trkpt lat="43.61599" lon="6.59808">
        <ele>627.3</ele>
        <time>2023-11-26T12:25:02Z</time>
      </trkpt>
      <trkpt lat="43.61599" lon="6.5981">
        <ele>627.1</ele>
        <time>2023-11-26T12:25:03Z</time>
      </trkpt>
      <trkpt lat="43.61598" lon="6.59811">
        <ele>627</ele>
        <time>2023-11-26T12:25:04Z</time>
      </trkpt>
      <trkpt lat="43.61598" lon="6.59813">
        <ele>626.8</ele>
        <time>2023-11-26T12:25:05Z</time>
      </trkpt>
      <trkpt lat="43.61598" lon="6.59815">
        <ele>626.7</ele>
        <time>2023-11-26T12:25:06Z</time>
      </trkpt>
      <trkpt lat="43.61598" lon="6.59817">
        <ele>626.6</ele>
        <time>2023-11-26T12:25:07Z</time>
      </trkpt>
      <trkpt lat="43.61598" lon="6.59819">
        <ele>626.5</ele>
        <time>2023-11-26T12:25:08Z</time>
      </trkpt>
      <trkpt lat="43.61598" lon="6.59821">
        <ele>626.5</ele>
        <time>2023-11-26T12:25:09Z</time>
      </trkpt>
      <trkpt lat="43.61598" lon="6.59822">
        <ele>626.4</ele>
        <time>2023-11-26T12:25:10Z</time>
      </trkpt>
      <trkpt lat="43.61598" lon="6.59824">
        <ele>626.4</ele>
        <time>2023-11-26T12:25:11Z</time>
      </trkpt>
      <trkpt lat="43.61598" lon="6.59826">
        <ele>626.3</ele>
        <time>2023-11-26T12:25:12Z</time>
      </trkpt>
      <trkpt lat="43.61598" lon="6.59828">
        <ele>626.3</ele>
        <time>2023-11-26T12:25:13Z</time>
      </trkpt>
      <trkpt lat="43.61598" lon="6.5983">
        <ele>626.1</ele>
        <time>2023-11-26T12:25:14Z</time>
      </trkpt>
      <trkpt lat="43.61598" lon="6.59832">
        <ele>626</ele>
        <time>2023-11-26T12:25:15Z</time>
      </trkpt>
      <trkpt lat="43.61598" lon="6.59833">
        <ele>625.9</ele>
        <time>2023-11-26T12:25:16Z</time>
      </trkpt>
      <trkpt lat="43.61598" lon="6.59835">
        <ele>625.8</ele>
        <time>2023-11-26T12:25:17Z</time>
      </trkpt>
      <trkpt lat="43.61598" lon="6.59837">
        <ele>625.7</ele>
        <time>2023-11-26T12:25:18Z</time>
      </trkpt>
      <trkpt lat="43.61598" lon="6.59839">
        <ele>625.6</ele>
        <time>2023-11-26T12:25:19Z</time>
      </trkpt>
      <trkpt lat="43.61598" lon="6.59841">
        <ele>625.6</ele>
        <time>2023-11-26T12:25:20Z</time>
      </trkpt>
      <trkpt lat="43.61598" lon="6.59843">
        <ele>625.5</ele>
        <time>2023-11-26T12:25:21Z</time>
      </trkpt>
      <trkpt lat="43.61598" lon="6.59845">
        <ele>625.4</ele>
        <time>2023-11-26T12:25:22Z</time>
      </trkpt>
      <trkpt lat="43.61599" lon="6.59847">
        <ele>625.3</ele>
        <time>2023-11-26T12:25:23Z</time>
      </trkpt>
      <trkpt lat="43.61599" lon="6.59849">
        <ele>625.2</ele>
        <time>2023-11-26T12:25:24Z</time>
      </trkpt>
      <trkpt lat="43.616" lon="6.59851">
        <ele>625.2</ele>
        <time>2023-11-26T12:25:25Z</time>
      </trkpt>
      <trkpt lat="43.616" lon="6.59852">
        <ele>625.2</ele>
        <time>2023-11-26T12:25:26Z</time>
      </trkpt>
      <trkpt lat="43.61601" lon="6.59854">
        <ele>625.2</ele>
        <time>2023-11-26T12:25:27Z</time>
      </trkpt>
      <trkpt lat="43.61601" lon="6.59855">
        <ele>625.1</ele>
        <time>2023-11-26T12:25:28Z</time>
      </trkpt>
      <trkpt lat="43.61602" lon="6.59857">
        <ele>624.9</ele>
        <time>2023-11-26T12:25:29Z</time>
      </trkpt>
      <trkpt lat="43.61602" lon="6.59858">
        <ele>624.7</ele>
        <time>2023-11-26T12:25:30Z</time>
      </trkpt>
      <trkpt lat="43.61603" lon="6.59859">
        <ele>624.6</ele>
        <time>2023-11-26T12:25:31Z</time>
      </trkpt>
      <trkpt lat="43.61603" lon="6.59861">
        <ele>624.5</ele>
        <time>2023-11-26T12:25:32Z</time>
      </trkpt>
      <trkpt lat="43.61603" lon="6.59862">
        <ele>624.3</ele>
        <time>2023-11-26T12:25:33Z</time>
      </trkpt>
      <trkpt lat="43.61604" lon="6.59863">
        <ele>624.2</ele>
        <time>2023-11-26T12:25:34Z</time>
      </trkpt>
      <trkpt lat="43.61604" lon="6.59865">
        <ele>624</ele>
        <time>2023-11-26T12:25:35Z</time>
      </trkpt>
      <trkpt lat="43.61604" lon="6.59867">
        <ele>623.9</ele>
        <time>2023-11-26T12:25:36Z</time>
      </trkpt>
      <trkpt lat="43.61605" lon="6.59868">
        <ele>623.7</ele>
        <time>2023-11-26T12:25:37Z</time>
      </trkpt>
      <trkpt lat="43.61605" lon="6.5987">
        <ele>623.6</ele>
        <time>2023-11-26T12:25:38Z</time>
      </trkpt>
      <trkpt lat="43.61605" lon="6.59872">
        <ele>623.5</ele>
        <time>2023-11-26T12:25:39Z</time>
      </trkpt>
      <trkpt lat="43.61605" lon="6.59874">
        <ele>623.3</ele>
        <time>2023-11-26T12:25:40Z</time>
      </trkpt>
      <trkpt lat="43.61605" lon="6.59876">
        <ele>623.1</ele>
        <time>2023-11-26T12:25:41Z</time>
      </trkpt>
      <trkpt lat="43.61606" lon="6.59878">
        <ele>623.2</ele>
        <time>2023-11-26T12:25:42Z</time>
      </trkpt>
      <trkpt lat="43.61606" lon="6.5988">
        <ele>623</ele>
        <time>2023-11-26T12:25:43Z</time>
      </trkpt>
      <trkpt lat="43.61606" lon="6.59882">
        <ele>622.8</ele>
        <time>2023-11-26T12:25:44Z</time>
      </trkpt>
      <trkpt lat="43.61606" lon="6.59884">
        <ele>622.6</ele>
        <time>2023-11-26T12:25:45Z</time>
      </trkpt>
      <trkpt lat="43.61607" lon="6.59885">
        <ele>622.5</ele>
        <time>2023-11-26T12:25:46Z</time>
      </trkpt>
      <trkpt lat="43.61607" lon="6.59887">
        <ele>622.3</ele>
        <time>2023-11-26T12:25:47Z</time>
      </trkpt>
      <trkpt lat="43.61608" lon="6.59889">
        <ele>622.1</ele>
        <time>2023-11-26T12:25:48Z</time>
      </trkpt>
      <trkpt lat="43.61608" lon="6.59891">
        <ele>621.9</ele>
        <time>2023-11-26T12:25:49Z</time>
      </trkpt>
      <trkpt lat="43.61609" lon="6.59893">
        <ele>621.7</ele>
        <time>2023-11-26T12:25:50Z</time>
      </trkpt>
      <trkpt lat="43.61609" lon="6.59894">
        <ele>621.5</ele>
        <time>2023-11-26T12:25:51Z</time>
      </trkpt>
      <trkpt lat="43.6161" lon="6.59896">
        <ele>621.3</ele>
        <time>2023-11-26T12:25:52Z</time>
      </trkpt>
      <trkpt lat="43.61611" lon="6.59898">
        <ele>621.4</ele>
        <time>2023-11-26T12:25:53Z</time>
      </trkpt>
      <trkpt lat="43.61611" lon="6.59899">
        <ele>621.2</ele>
        <time>2023-11-26T12:25:54Z</time>
      </trkpt>
      <trkpt lat="43.61612" lon="6.599">
        <ele>621.1</ele>
        <time>2023-11-26T12:25:55Z</time>
      </trkpt>
      <trkpt lat="43.61613" lon="6.59901">
        <ele>621</ele>
        <time>2023-11-26T12:25:56Z</time>
      </trkpt>
      <trkpt lat="43.61614" lon="6.59903">
        <ele>620.8</ele>
        <time>2023-11-26T12:25:57Z</time>
      </trkpt>
      <trkpt lat="43.61614" lon="6.59904">
        <ele>620.7</ele>
        <time>2023-11-26T12:25:58Z</time>
      </trkpt>
      <trkpt lat="43.61615" lon="6.59906">
        <ele>620.6</ele>
        <time>2023-11-26T12:25:59Z</time>
      </trkpt>
      <trkpt lat="43.61615" lon="6.59907">
        <ele>620.5</ele>
        <time>2023-11-26T12:26:00Z</time>
      </trkpt>
      <trkpt lat="43.61616" lon="6.59908">
        <ele>620.4</ele>
        <time>2023-11-26T12:26:01Z</time>
      </trkpt>
      <trkpt lat="43.61616" lon="6.5991">
        <ele>620.2</ele>
        <time>2023-11-26T12:26:02Z</time>
      </trkpt>
      <trkpt lat="43.61617" lon="6.59911">
        <ele>620.1</ele>
        <time>2023-11-26T12:26:03Z</time>
      </trkpt>
      <trkpt lat="43.61616" lon="6.59913">
        <ele>619.9</ele>
        <time>2023-11-26T12:26:04Z</time>
      </trkpt>
      <trkpt lat="43.61616" lon="6.59915">
        <ele>619.8</ele>
        <time>2023-11-26T12:26:05Z</time>
      </trkpt>
      <trkpt lat="43.61616" lon="6.59917">
        <ele>619.5</ele>
        <time>2023-11-26T12:26:06Z</time>
      </trkpt>
      <trkpt lat="43.61616" lon="6.59919">
        <ele>619.5</ele>
        <time>2023-11-26T12:26:07Z</time>
      </trkpt>
      <trkpt lat="43.61615" lon="6.59921">
        <ele>619.3</ele>
        <time>2023-11-26T12:26:08Z</time>
      </trkpt>
      <trkpt lat="43.61616" lon="6.59922">
        <ele>619.2</ele>
        <time>2023-11-26T12:26:09Z</time>
      </trkpt>
      <trkpt lat="43.61616" lon="6.59924">
        <ele>619</ele>
        <time>2023-11-26T12:26:10Z</time>
      </trkpt>
      <trkpt lat="43.61616" lon="6.59925">
        <ele>618.9</ele>
        <time>2023-11-26T12:26:11Z</time>
      </trkpt>
      <trkpt lat="43.61616" lon="6.59927">
        <ele>618.7</ele>
        <time>2023-11-26T12:26:12Z</time>
      </trkpt>
      <trkpt lat="43.61617" lon="6.59928">
        <ele>618.6</ele>
        <time>2023-11-26T12:26:13Z</time>
      </trkpt>
      <trkpt lat="43.61617" lon="6.5993">
        <ele>618.5</ele>
        <time>2023-11-26T12:26:14Z</time>
      </trkpt>
      <trkpt lat="43.61618" lon="6.59931">
        <ele>618.5</ele>
        <time>2023-11-26T12:26:15Z</time>
      </trkpt>
      <trkpt lat="43.61617" lon="6.59933">
        <ele>618.4</ele>
        <time>2023-11-26T12:26:16Z</time>
      </trkpt>
      <trkpt lat="43.61617" lon="6.59935">
        <ele>618.3</ele>
        <time>2023-11-26T12:26:17Z</time>
      </trkpt>
      <trkpt lat="43.61616" lon="6.59937">
        <ele>618.1</ele>
        <time>2023-11-26T12:26:18Z</time>
      </trkpt>
      <trkpt lat="43.61617" lon="6.59939">
        <ele>618</ele>
        <time>2023-11-26T12:26:19Z</time>
      </trkpt>
      <trkpt lat="43.61616" lon="6.5994">
        <ele>617.8</ele>
        <time>2023-11-26T12:26:20Z</time>
      </trkpt>
      <trkpt lat="43.61616" lon="6.59941">
        <ele>617.6</ele>
        <time>2023-11-26T12:26:21Z</time>
      </trkpt>
      <trkpt lat="43.61617" lon="6.59943">
        <ele>617.4</ele>
        <time>2023-11-26T12:26:22Z</time>
      </trkpt>
      <trkpt lat="43.61617" lon="6.59945">
        <ele>617.3</ele>
        <time>2023-11-26T12:26:23Z</time>
      </trkpt>
      <trkpt lat="43.61617" lon="6.59947">
        <ele>617.2</ele>
        <time>2023-11-26T12:26:24Z</time>
      </trkpt>
      <trkpt lat="43.61617" lon="6.59948">
        <ele>617.2</ele>
        <time>2023-11-26T12:26:25Z</time>
      </trkpt>
      <trkpt lat="43.61618" lon="6.5995">
        <ele>617.1</ele>
        <time>2023-11-26T12:26:26Z</time>
      </trkpt>
      <trkpt lat="43.61618" lon="6.59952">
        <ele>617</ele>
        <time>2023-11-26T12:26:27Z</time>
      </trkpt>
      <trkpt lat="43.61618" lon="6.59953">
        <ele>616.9</ele>
        <time>2023-11-26T12:26:28Z</time>
      </trkpt>
      <trkpt lat="43.61618" lon="6.59954">
        <ele>616.8</ele>
        <time>2023-11-26T12:26:29Z</time>
      </trkpt>
      <trkpt lat="43.61618" lon="6.59956">
        <ele>616.8</ele>
        <time>2023-11-26T12:26:30Z</time>
      </trkpt>
      <trkpt lat="43.61618" lon="6.59958">
        <ele>616.6</ele>
        <time>2023-11-26T12:26:31Z</time>
      </trkpt>
      <trkpt lat="43.61619" lon="6.59959">
        <ele>616.5</ele>
        <time>2023-11-26T12:26:32Z</time>
      </trkpt>
      <trkpt lat="43.61619" lon="6.59961">
        <ele>616.4</ele>
        <time>2023-11-26T12:26:33Z</time>
      </trkpt>
      <trkpt lat="43.61619" lon="6.59962">
        <ele>616.3</ele>
        <time>2023-11-26T12:26:34Z</time>
      </trkpt>
      <trkpt lat="43.6162" lon="6.59963">
        <ele>616.3</ele>
        <time>2023-11-26T12:26:35Z</time>
      </trkpt>
      <trkpt lat="43.6162" lon="6.59965">
        <ele>616.2</ele>
        <time>2023-11-26T12:26:36Z</time>
      </trkpt>
      <trkpt lat="43.6162" lon="6.59966">
        <ele>616.2</ele>
        <time>2023-11-26T12:26:37Z</time>
      </trkpt>
      <trkpt lat="43.61621" lon="6.59968">
        <ele>616.1</ele>
        <time>2023-11-26T12:26:38Z</time>
      </trkpt>
      <trkpt lat="43.61621" lon="6.5997">
        <ele>616.1</ele>
        <time>2023-11-26T12:26:39Z</time>
      </trkpt>
      <trkpt lat="43.61621" lon="6.59972">
        <ele>616</ele>
        <time>2023-11-26T12:26:40Z</time>
      </trkpt>
      <trkpt lat="43.61621" lon="6.59975">
        <ele>616</ele>
        <time>2023-11-26T12:26:41Z</time>
      </trkpt>
      <trkpt lat="43.61622" lon="6.59976">
        <ele>615.9</ele>
        <time>2023-11-26T12:26:42Z</time>
      </trkpt>
      <trkpt lat="43.61622" lon="6.59978">
        <ele>615.9</ele>
        <time>2023-11-26T12:26:43Z</time>
      </trkpt>
      <trkpt lat="43.61622" lon="6.5998">
        <ele>615.8</ele>
        <time>2023-11-26T12:26:44Z</time>
      </trkpt>
      <trkpt lat="43.61622" lon="6.59982">
        <ele>615.7</ele>
        <time>2023-11-26T12:26:45Z</time>
      </trkpt>
      <trkpt lat="43.61623" lon="6.59984">
        <ele>615.6</ele>
        <time>2023-11-26T12:26:46Z</time>
      </trkpt>
      <trkpt lat="43.61623" lon="6.59985">
        <ele>615.5</ele>
        <time>2023-11-26T12:26:47Z</time>
      </trkpt>
      <trkpt lat="43.61623" lon="6.59988">
        <ele>615.5</ele>
        <time>2023-11-26T12:26:48Z</time>
      </trkpt>
      <trkpt lat="43.61623" lon="6.5999">
        <ele>615.5</ele>
        <time>2023-11-26T12:26:49Z</time>
      </trkpt>
      <trkpt lat="43.61623" lon="6.59991">
        <ele>615.5</ele>
        <time>2023-11-26T12:26:50Z</time>
      </trkpt>
      <trkpt lat="43.61624" lon="6.59993">
        <ele>615.4</ele>
        <time>2023-11-26T12:26:51Z</time>
      </trkpt>
      <trkpt lat="43.61624" lon="6.59995">
        <ele>615.3</ele>
        <time>2023-11-26T12:26:52Z</time>
      </trkpt>
      <trkpt lat="43.61624" lon="6.59998">
        <ele>615.3</ele>
        <time>2023-11-26T12:26:53Z</time>
      </trkpt>
      <trkpt lat="43.61624" lon="6.6">
        <ele>615.2</ele>
        <time>2023-11-26T12:26:54Z</time>
      </trkpt>
      <trkpt lat="43.61624" lon="6.60002">
        <ele>615.2</ele>
        <time>2023-11-26T12:26:55Z</time>
      </trkpt>
      <trkpt lat="43.61625" lon="6.60004">
        <ele>615.2</ele>
        <time>2023-11-26T12:26:56Z</time>
      </trkpt>
      <trkpt lat="43.61625" lon="6.60006">
        <ele>615.1</ele>
        <time>2023-11-26T12:26:57Z</time>
      </trkpt>
      <trkpt lat="43.61626" lon="6.60008">
        <ele>615.2</ele>
        <time>2023-11-26T12:26:58Z</time>
      </trkpt>
      <trkpt lat="43.61626" lon="6.6001">
        <ele>615.1</ele>
        <time>2023-11-26T12:26:59Z</time>
      </trkpt>
      <trkpt lat="43.61627" lon="6.60012">
        <ele>615.1</ele>
        <time>2023-11-26T12:27:00Z</time>
      </trkpt>
      <trkpt lat="43.61627" lon="6.60013">
        <ele>615.1</ele>
        <time>2023-11-26T12:27:01Z</time>
      </trkpt>
      <trkpt lat="43.61627" lon="6.60015">
        <ele>615.1</ele>
        <time>2023-11-26T12:27:02Z</time>
      </trkpt>
      <trkpt lat="43.61628" lon="6.60016">
        <ele>615.1</ele>
        <time>2023-11-26T12:27:03Z</time>
      </trkpt>
      <trkpt lat="43.61628" lon="6.60019">
        <ele>615.1</ele>
        <time>2023-11-26T12:27:04Z</time>
      </trkpt>
      <trkpt lat="43.61629" lon="6.6002">
        <ele>615</ele>
        <time>2023-11-26T12:27:05Z</time>
      </trkpt>
      <trkpt lat="43.61629" lon="6.60022">
        <ele>615</ele>
        <time>2023-11-26T12:27:06Z</time>
      </trkpt>
      <trkpt lat="43.61629" lon="6.60024">
        <ele>615</ele>
        <time>2023-11-26T12:27:07Z</time>
      </trkpt>
      <trkpt lat="43.6163" lon="6.60026">
        <ele>615</ele>
        <time>2023-11-26T12:27:08Z</time>
      </trkpt>
      <trkpt lat="43.6163" lon="6.60028">
        <ele>615</ele>
        <time>2023-11-26T12:27:09Z</time>
      </trkpt>
      <trkpt lat="43.61631" lon="6.60029">
        <ele>614.9</ele>
        <time>2023-11-26T12:27:10Z</time>
      </trkpt>
      <trkpt lat="43.61631" lon="6.60031">
        <ele>615</ele>
        <time>2023-11-26T12:27:11Z</time>
      </trkpt>
      <trkpt lat="43.61632" lon="6.60032">
        <ele>615</ele>
        <time>2023-11-26T12:27:12Z</time>
      </trkpt>
      <trkpt lat="43.61632" lon="6.60034">
        <ele>615.1</ele>
        <time>2023-11-26T12:27:13Z</time>
      </trkpt>
      <trkpt lat="43.61632" lon="6.60036">
        <ele>615.1</ele>
        <time>2023-11-26T12:27:14Z</time>
      </trkpt>
      <trkpt lat="43.61633" lon="6.60037">
        <ele>615</ele>
        <time>2023-11-26T12:27:15Z</time>
      </trkpt>
      <trkpt lat="43.61633" lon="6.60039">
        <ele>615</ele>
        <time>2023-11-26T12:27:16Z</time>
      </trkpt>
      <trkpt lat="43.61633" lon="6.60041">
        <ele>615</ele>
        <time>2023-11-26T12:27:17Z</time>
      </trkpt>
      <trkpt lat="43.61633" lon="6.60043">
        <ele>614.9</ele>
        <time>2023-11-26T12:27:18Z</time>
      </trkpt>
      <trkpt lat="43.61633" lon="6.60045">
        <ele>614.8</ele>
        <time>2023-11-26T12:27:19Z</time>
      </trkpt>
      <trkpt lat="43.61633" lon="6.60047">
        <ele>614.8</ele>
        <time>2023-11-26T12:27:20Z</time>
      </trkpt>
      <trkpt lat="43.61633" lon="6.60049">
        <ele>614.8</ele>
        <time>2023-11-26T12:27:21Z</time>
      </trkpt>
      <trkpt lat="43.61633" lon="6.6005">
        <ele>614.8</ele>
        <time>2023-11-26T12:27:22Z</time>
      </trkpt>
      <trkpt lat="43.61634" lon="6.60052">
        <ele>614.9</ele>
        <time>2023-11-26T12:27:23Z</time>
      </trkpt>
      <trkpt lat="43.61634" lon="6.60054">
        <ele>615</ele>
        <time>2023-11-26T12:27:24Z</time>
      </trkpt>
      <trkpt lat="43.61634" lon="6.60056">
        <ele>615</ele>
        <time>2023-11-26T12:27:25Z</time>
      </trkpt>
      <trkpt lat="43.61634" lon="6.60058">
        <ele>615</ele>
        <time>2023-11-26T12:27:26Z</time>
      </trkpt>
      <trkpt lat="43.61634" lon="6.6006">
        <ele>615.1</ele>
        <time>2023-11-26T12:27:27Z</time>
      </trkpt>
      <trkpt lat="43.61634" lon="6.60062">
        <ele>615.1</ele>
        <time>2023-11-26T12:27:28Z</time>
      </trkpt>
      <trkpt lat="43.61634" lon="6.60063">
        <ele>615.2</ele>
        <time>2023-11-26T12:27:29Z</time>
      </trkpt>
      <trkpt lat="43.61635" lon="6.60065">
        <ele>615.2</ele>
        <time>2023-11-26T12:27:30Z</time>
      </trkpt>
      <trkpt lat="43.61635" lon="6.60067">
        <ele>615.2</ele>
        <time>2023-11-26T12:27:31Z</time>
      </trkpt>
      <trkpt lat="43.61635" lon="6.60068">
        <ele>615.4</ele>
        <time>2023-11-26T12:27:32Z</time>
      </trkpt>
      <trkpt lat="43.61636" lon="6.6007">
        <ele>615.5</ele>
        <time>2023-11-26T12:27:33Z</time>
      </trkpt>
      <trkpt lat="43.61636" lon="6.60071">
        <ele>615.5</ele>
        <time>2023-11-26T12:27:34Z</time>
      </trkpt>
      <trkpt lat="43.61636" lon="6.60073">
        <ele>615.6</ele>
        <time>2023-11-26T12:27:35Z</time>
      </trkpt>
      <trkpt lat="43.61636" lon="6.60075">
        <ele>615.7</ele>
        <time>2023-11-26T12:27:36Z</time>
      </trkpt>
      <trkpt lat="43.61636" lon="6.60077">
        <ele>615.8</ele>
        <time>2023-11-26T12:27:37Z</time>
      </trkpt>
      <trkpt lat="43.61636" lon="6.60078">
        <ele>615.8</ele>
        <time>2023-11-26T12:27:38Z</time>
      </trkpt>
      <trkpt lat="43.61637" lon="6.6008">
        <ele>615.8</ele>
        <time>2023-11-26T12:27:39Z</time>
      </trkpt>
      <trkpt lat="43.61637" lon="6.60082">
        <ele>615.8</ele>
        <time>2023-11-26T12:27:40Z</time>
      </trkpt>
      <trkpt lat="43.61637" lon="6.60083">
        <ele>615.8</ele>
        <time>2023-11-26T12:27:41Z</time>
      </trkpt>
      <trkpt lat="43.61637" lon="6.60085">
        <ele>615.8</ele>
        <time>2023-11-26T12:27:42Z</time>
      </trkpt>
      <trkpt lat="43.61637" lon="6.60087">
        <ele>615.8</ele>
        <time>2023-11-26T12:27:43Z</time>
      </trkpt>
      <trkpt lat="43.61637" lon="6.60089">
        <ele>615.9</ele>
        <time>2023-11-26T12:27:44Z</time>
      </trkpt>
      <trkpt lat="43.61637" lon="6.60091">
        <ele>615.9</ele>
        <time>2023-11-26T12:27:45Z</time>
      </trkpt>
      <trkpt lat="43.61638" lon="6.60092">
        <ele>615.9</ele>
        <time>2023-11-26T12:27:46Z</time>
      </trkpt>
      <trkpt lat="43.61638" lon="6.60094">
        <ele>615.9</ele>
        <time>2023-11-26T12:27:47Z</time>
      </trkpt>
      <trkpt lat="43.61638" lon="6.60096">
        <ele>615.9</ele>
        <time>2023-11-26T12:27:48Z</time>
      </trkpt>
      <trkpt lat="43.61638" lon="6.60098">
        <ele>616</ele>
        <time>2023-11-26T12:27:49Z</time>
      </trkpt>
      <trkpt lat="43.61638" lon="6.601">
        <ele>616</ele>
        <time>2023-11-26T12:27:50Z</time>
      </trkpt>
      <trkpt lat="43.61638" lon="6.60101">
        <ele>616</ele>
        <time>2023-11-26T12:27:51Z</time>
      </trkpt>
      <trkpt lat="43.61638" lon="6.60102">
        <ele>616</ele>
        <time>2023-11-26T12:27:52Z</time>
      </trkpt>
      <trkpt lat="43.61638" lon="6.60103">
        <ele>616</ele>
        <time>2023-11-26T12:27:53Z</time>
      </trkpt>
      <trkpt lat="43.61638" lon="6.60105">
        <ele>615.8</ele>
        <time>2023-11-26T12:27:54Z</time>
      </trkpt>
      <trkpt lat="43.61638" lon="6.60106">
        <ele>615.7</ele>
        <time>2023-11-26T12:27:55Z</time>
      </trkpt>
      <trkpt lat="43.61638" lon="6.60108">
        <ele>615.7</ele>
        <time>2023-11-26T12:27:56Z</time>
      </trkpt>
      <trkpt lat="43.61637" lon="6.6011">
        <ele>615.6</ele>
        <time>2023-11-26T12:27:57Z</time>
      </trkpt>
      <trkpt lat="43.61637" lon="6.60112">
        <ele>615.6</ele>
        <time>2023-11-26T12:27:58Z</time>
      </trkpt>
      <trkpt lat="43.61637" lon="6.60114">
        <ele>615.6</ele>
        <time>2023-11-26T12:27:59Z</time>
      </trkpt>
      <trkpt lat="43.61637" lon="6.60117">
        <ele>615.6</ele>
        <time>2023-11-26T12:28:00Z</time>
      </trkpt>
      <trkpt lat="43.61637" lon="6.60119">
        <ele>615.6</ele>
        <time>2023-11-26T12:28:01Z</time>
      </trkpt>
      <trkpt lat="43.61638" lon="6.6012">
        <ele>615.6</ele>
        <time>2023-11-26T12:28:02Z</time>
      </trkpt>
      <trkpt lat="43.61638" lon="6.60121">
        <ele>615.7</ele>
        <time>2023-11-26T12:28:03Z</time>
      </trkpt>
      <trkpt lat="43.61638" lon="6.60123">
        <ele>615.8</ele>
        <time>2023-11-26T12:28:04Z</time>
      </trkpt>
      <trkpt lat="43.61638" lon="6.60125">
        <ele>615.8</ele>
        <time>2023-11-26T12:28:05Z</time>
      </trkpt>
      <trkpt lat="43.61638" lon="6.60126">
        <ele>615.7</ele>
        <time>2023-11-26T12:28:06Z</time>
      </trkpt>
      <trkpt lat="43.61639" lon="6.60128">
        <ele>615.6</ele>
        <time>2023-11-26T12:28:07Z</time>
      </trkpt>
      <trkpt lat="43.61639" lon="6.6013">
        <ele>615.6</ele>
        <time>2023-11-26T12:28:08Z</time>
      </trkpt>
      <trkpt lat="43.61639" lon="6.60131">
        <ele>615.7</ele>
        <time>2023-11-26T12:28:09Z</time>
      </trkpt>
      <trkpt lat="43.6164" lon="6.60133">
        <ele>615.8</ele>
        <time>2023-11-26T12:28:10Z</time>
      </trkpt>
      <trkpt lat="43.61639" lon="6.60135">
        <ele>615.6</ele>
        <time>2023-11-26T12:28:11Z</time>
      </trkpt>
      <trkpt lat="43.61639" lon="6.60137">
        <ele>615.5</ele>
        <time>2023-11-26T12:28:12Z</time>
      </trkpt>
      <trkpt lat="43.6164" lon="6.60139">
        <ele>615.3</ele>
        <time>2023-11-26T12:28:13Z</time>
      </trkpt>
      <trkpt lat="43.61639" lon="6.60141">
        <ele>615.4</ele>
        <time>2023-11-26T12:28:14Z</time>
      </trkpt>
      <trkpt lat="43.61639" lon="6.60143">
        <ele>615.4</ele>
        <time>2023-11-26T12:28:15Z</time>
      </trkpt>
      <trkpt lat="43.61639" lon="6.60145">
        <ele>615.4</ele>
        <time>2023-11-26T12:28:16Z</time>
      </trkpt>
      <trkpt lat="43.61639" lon="6.60147">
        <ele>615.4</ele>
        <time>2023-11-26T12:28:17Z</time>
      </trkpt>
      <trkpt lat="43.6164" lon="6.60148">
        <ele>615.3</ele>
        <time>2023-11-26T12:28:18Z</time>
      </trkpt>
      <trkpt lat="43.6164" lon="6.6015">
        <ele>615.2</ele>
        <time>2023-11-26T12:28:19Z</time>
      </trkpt>
      <trkpt lat="43.6164" lon="6.60152">
        <ele>615.2</ele>
        <time>2023-11-26T12:28:20Z</time>
      </trkpt>
      <trkpt lat="43.6164" lon="6.60155">
        <ele>615.1</ele>
        <time>2023-11-26T12:28:21Z</time>
      </trkpt>
      <trkpt lat="43.6164" lon="6.60157">
        <ele>614.9</ele>
        <time>2023-11-26T12:28:22Z</time>
      </trkpt>
      <trkpt lat="43.6164" lon="6.60159">
        <ele>614.8</ele>
        <time>2023-11-26T12:28:23Z</time>
      </trkpt>
      <trkpt lat="43.61641" lon="6.60161">
        <ele>614.8</ele>
        <time>2023-11-26T12:28:24Z</time>
      </trkpt>
      <trkpt lat="43.61641" lon="6.60163">
        <ele>614.7</ele>
        <time>2023-11-26T12:28:25Z</time>
      </trkpt>
      <trkpt lat="43.61641" lon="6.60165">
        <ele>614.7</ele>
        <time>2023-11-26T12:28:26Z</time>
      </trkpt>
      <trkpt lat="43.61641" lon="6.60167">
        <ele>614.7</ele>
        <time>2023-11-26T12:28:27Z</time>
      </trkpt>
      <trkpt lat="43.61641" lon="6.60169">
        <ele>614.6</ele>
        <time>2023-11-26T12:28:28Z</time>
      </trkpt>
      <trkpt lat="43.61642" lon="6.60171">
        <ele>614.5</ele>
        <time>2023-11-26T12:28:29Z</time>
      </trkpt>
      <trkpt lat="43.61642" lon="6.60173">
        <ele>614.4</ele>
        <time>2023-11-26T12:28:30Z</time>
      </trkpt>
      <trkpt lat="43.61643" lon="6.60175">
        <ele>614.4</ele>
        <time>2023-11-26T12:28:31Z</time>
      </trkpt>
      <trkpt lat="43.61643" lon="6.60177">
        <ele>614.3</ele>
        <time>2023-11-26T12:28:32Z</time>
      </trkpt>
      <trkpt lat="43.61643" lon="6.60179">
        <ele>614.2</ele>
        <time>2023-11-26T12:28:33Z</time>
      </trkpt>
      <trkpt lat="43.61644" lon="6.6018">
        <ele>614.2</ele>
        <time>2023-11-26T12:28:34Z</time>
      </trkpt>
      <trkpt lat="43.61644" lon="6.60183">
        <ele>614.1</ele>
        <time>2023-11-26T12:28:35Z</time>
      </trkpt>
      <trkpt lat="43.61643" lon="6.60184">
        <ele>614.1</ele>
        <time>2023-11-26T12:28:36Z</time>
      </trkpt>
      <trkpt lat="43.61644" lon="6.60186">
        <ele>614</ele>
        <time>2023-11-26T12:28:37Z</time>
      </trkpt>
      <trkpt lat="43.61644" lon="6.60188">
        <ele>614</ele>
        <time>2023-11-26T12:28:38Z</time>
      </trkpt>
      <trkpt lat="43.61645" lon="6.6019">
        <ele>614</ele>
        <time>2023-11-26T12:28:39Z</time>
      </trkpt>
      <trkpt lat="43.61645" lon="6.60192">
        <ele>614</ele>
        <time>2023-11-26T12:28:40Z</time>
      </trkpt>
      <trkpt lat="43.61645" lon="6.60194">
        <ele>613.9</ele>
        <time>2023-11-26T12:28:41Z</time>
      </trkpt>
      <trkpt lat="43.61646" lon="6.60196">
        <ele>613.9</ele>
        <time>2023-11-26T12:28:42Z</time>
      </trkpt>
      <trkpt lat="43.61647" lon="6.60198">
        <ele>613.9</ele>
        <time>2023-11-26T12:28:43Z</time>
      </trkpt>
      <trkpt lat="43.61647" lon="6.60199">
        <ele>613.8</ele>
        <time>2023-11-26T12:28:44Z</time>
      </trkpt>
      <trkpt lat="43.61647" lon="6.60201">
        <ele>613.8</ele>
        <time>2023-11-26T12:28:45Z</time>
      </trkpt>
      <trkpt lat="43.61648" lon="6.60203">
        <ele>613.8</ele>
        <time>2023-11-26T12:28:46Z</time>
      </trkpt>
      <trkpt lat="43.61648" lon="6.60205">
        <ele>613.8</ele>
        <time>2023-11-26T12:28:47Z</time>
      </trkpt>
      <trkpt lat="43.61648" lon="6.60207">
        <ele>613.8</ele>
        <time>2023-11-26T12:28:48Z</time>
      </trkpt>
      <trkpt lat="43.61648" lon="6.60209">
        <ele>613.8</ele>
        <time>2023-11-26T12:28:49Z</time>
      </trkpt>
      <trkpt lat="43.61648" lon="6.60211">
        <ele>613.8</ele>
        <time>2023-11-26T12:28:50Z</time>
      </trkpt>
      <trkpt lat="43.61648" lon="6.60213">
        <ele>613.9</ele>
        <time>2023-11-26T12:28:51Z</time>
      </trkpt>
      <trkpt lat="43.61648" lon="6.60215">
        <ele>613.8</ele>
        <time>2023-11-26T12:28:52Z</time>
      </trkpt>
      <trkpt lat="43.61648" lon="6.60217">
        <ele>613.8</ele>
        <time>2023-11-26T12:28:53Z</time>
      </trkpt>
      <trkpt lat="43.61648" lon="6.60219">
        <ele>613.8</ele>
        <time>2023-11-26T12:28:54Z</time>
      </trkpt>
      <trkpt lat="43.61648" lon="6.60221">
        <ele>613.8</ele>
        <time>2023-11-26T12:28:55Z</time>
      </trkpt>
      <trkpt lat="43.61648" lon="6.60223">
        <ele>613.8</ele>
        <time>2023-11-26T12:28:56Z</time>
      </trkpt>
      <trkpt lat="43.61648" lon="6.60225">
        <ele>613.8</ele>
        <time>2023-11-26T12:28:57Z</time>
      </trkpt>
      <trkpt lat="43.61648" lon="6.60227">
        <ele>613.8</ele>
        <time>2023-11-26T12:28:58Z</time>
      </trkpt>
      <trkpt lat="43.61648" lon="6.60229">
        <ele>613.7</ele>
        <time>2023-11-26T12:28:59Z</time>
      </trkpt>
      <trkpt lat="43.61649" lon="6.60231">
        <ele>613.7</ele>
        <time>2023-11-26T12:29:00Z</time>
      </trkpt>
      <trkpt lat="43.61649" lon="6.60233">
        <ele>613.7</ele>
        <time>2023-11-26T12:29:01Z</time>
      </trkpt>
      <trkpt lat="43.61649" lon="6.60235">
        <ele>613.6</ele>
        <time>2023-11-26T12:29:02Z</time>
      </trkpt>
      <trkpt lat="43.6165" lon="6.60236">
        <ele>613.5</ele>
        <time>2023-11-26T12:29:03Z</time>
      </trkpt>
      <trkpt lat="43.6165" lon="6.60238">
        <ele>613.5</ele>
        <time>2023-11-26T12:29:04Z</time>
      </trkpt>
      <trkpt lat="43.6165" lon="6.6024">
        <ele>613.6</ele>
        <time>2023-11-26T12:29:05Z</time>
      </trkpt>
      <trkpt lat="43.61651" lon="6.60242">
        <ele>613.5</ele>
        <time>2023-11-26T12:29:06Z</time>
      </trkpt>
      <trkpt lat="43.61651" lon="6.60243">
        <ele>613.4</ele>
        <time>2023-11-26T12:29:07Z</time>
      </trkpt>
      <trkpt lat="43.61651" lon="6.60245">
        <ele>613.3</ele>
        <time>2023-11-26T12:29:08Z</time>
      </trkpt>
      <trkpt lat="43.61652" lon="6.60247">
        <ele>613.3</ele>
        <time>2023-11-26T12:29:09Z</time>
      </trkpt>
      <trkpt lat="43.61652" lon="6.60249">
        <ele>613.2</ele>
        <time>2023-11-26T12:29:10Z</time>
      </trkpt>
      <trkpt lat="43.61653" lon="6.60251">
        <ele>613.1</ele>
        <time>2023-11-26T12:29:11Z</time>
      </trkpt>
      <trkpt lat="43.61653" lon="6.60252">
        <ele>613.1</ele>
        <time>2023-11-26T12:29:12Z</time>
      </trkpt>
      <trkpt lat="43.61653" lon="6.60254">
        <ele>613</ele>
        <time>2023-11-26T12:29:13Z</time>
      </trkpt>
      <trkpt lat="43.61654" lon="6.60256">
        <ele>612.9</ele>
        <time>2023-11-26T12:29:14Z</time>
      </trkpt>
      <trkpt lat="43.61655" lon="6.60258">
        <ele>612.8</ele>
        <time>2023-11-26T12:29:15Z</time>
      </trkpt>
      <trkpt lat="43.61655" lon="6.60259">
        <ele>612.8</ele>
        <time>2023-11-26T12:29:16Z</time>
      </trkpt>
      <trkpt lat="43.61656" lon="6.6026">
        <ele>612.8</ele>
        <time>2023-11-26T12:29:17Z</time>
      </trkpt>
      <trkpt lat="43.61657" lon="6.60262">
        <ele>612.9</ele>
        <time>2023-11-26T12:29:18Z</time>
      </trkpt>
      <trkpt lat="43.61657" lon="6.60264">
        <ele>612.8</ele>
        <time>2023-11-26T12:29:19Z</time>
      </trkpt>
      <trkpt lat="43.61657" lon="6.60266">
        <ele>612.8</ele>
        <time>2023-11-26T12:29:20Z</time>
      </trkpt>
      <trkpt lat="43.61658" lon="6.60268">
        <ele>612.7</ele>
        <time>2023-11-26T12:29:21Z</time>
      </trkpt>
      <trkpt lat="43.61658" lon="6.6027">
        <ele>612.8</ele>
        <time>2023-11-26T12:29:22Z</time>
      </trkpt>
      <trkpt lat="43.61659" lon="6.60272">
        <ele>612.9</ele>
        <time>2023-11-26T12:29:23Z</time>
      </trkpt>
      <trkpt lat="43.61659" lon="6.60273">
        <ele>612.8</ele>
        <time>2023-11-26T12:29:24Z</time>
      </trkpt>
      <trkpt lat="43.6166" lon="6.60275">
        <ele>612.8</ele>
        <time>2023-11-26T12:29:25Z</time>
      </trkpt>
      <trkpt lat="43.61661" lon="6.60276">
        <ele>612.8</ele>
        <time>2023-11-26T12:29:26Z</time>
      </trkpt>
      <trkpt lat="43.61661" lon="6.60278">
        <ele>612.7</ele>
        <time>2023-11-26T12:29:27Z</time>
      </trkpt>
      <trkpt lat="43.61662" lon="6.60279">
        <ele>612.7</ele>
        <time>2023-11-26T12:29:28Z</time>
      </trkpt>
      <trkpt lat="43.61663" lon="6.6028">
        <ele>612.6</ele>
        <time>2023-11-26T12:29:29Z</time>
      </trkpt>
      <trkpt lat="43.61664" lon="6.60281">
        <ele>612.6</ele>
        <time>2023-11-26T12:29:30Z</time>
      </trkpt>
      <trkpt lat="43.61665" lon="6.60283">
        <ele>612.5</ele>
        <time>2023-11-26T12:29:31Z</time>
      </trkpt>
      <trkpt lat="43.61666" lon="6.60284">
        <ele>612.5</ele>
        <time>2023-11-26T12:29:32Z</time>
      </trkpt>
      <trkpt lat="43.61667" lon="6.60285">
        <ele>612.5</ele>
        <time>2023-11-26T12:29:33Z</time>
      </trkpt>
      <trkpt lat="43.61668" lon="6.60287">
        <ele>612.5</ele>
        <time>2023-11-26T12:29:34Z</time>
      </trkpt>
      <trkpt lat="43.61669" lon="6.60288">
        <ele>612.5</ele>
        <time>2023-11-26T12:29:35Z</time>
      </trkpt>
      <trkpt lat="43.6167" lon="6.60289">
        <ele>612.3</ele>
        <time>2023-11-26T12:29:36Z</time>
      </trkpt>
      <trkpt lat="43.61671" lon="6.6029">
        <ele>612.1</ele>
        <time>2023-11-26T12:29:37Z</time>
      </trkpt>
      <trkpt lat="43.61672" lon="6.60291">
        <ele>612.1</ele>
        <time>2023-11-26T12:29:38Z</time>
      </trkpt>
      <trkpt lat="43.61673" lon="6.60292">
        <ele>612</ele>
        <time>2023-11-26T12:29:39Z</time>
      </trkpt>
      <trkpt lat="43.61674" lon="6.60292">
        <ele>612.1</ele>
        <time>2023-11-26T12:29:40Z</time>
      </trkpt>
      <trkpt lat="43.61676" lon="6.60293">
        <ele>612.2</ele>
        <time>2023-11-26T12:29:41Z</time>
      </trkpt>
      <trkpt lat="43.61676" lon="6.60294">
        <ele>612.3</ele>
        <time>2023-11-26T12:29:42Z</time>
      </trkpt>
      <trkpt lat="43.61677" lon="6.60295">
        <ele>612.3</ele>
        <time>2023-11-26T12:29:43Z</time>
      </trkpt>
      <trkpt lat="43.61678" lon="6.60296">
        <ele>612.3</ele>
        <time>2023-11-26T12:29:44Z</time>
      </trkpt>
      <trkpt lat="43.61679" lon="6.60297">
        <ele>612.2</ele>
        <time>2023-11-26T12:29:45Z</time>
      </trkpt>
      <trkpt lat="43.61679" lon="6.60298">
        <ele>612.2</ele>
        <time>2023-11-26T12:29:46Z</time>
      </trkpt>
      <trkpt lat="43.61681" lon="6.60299">
        <ele>612.3</ele>
        <time>2023-11-26T12:29:47Z</time>
      </trkpt>
      <trkpt lat="43.61682" lon="6.603">
        <ele>612</ele>
        <time>2023-11-26T12:29:48Z</time>
      </trkpt>
      <trkpt lat="43.61683" lon="6.60301">
        <ele>611.9</ele>
        <time>2023-11-26T12:29:49Z</time>
      </trkpt>
      <trkpt lat="43.61684" lon="6.60303">
        <ele>611.9</ele>
        <time>2023-11-26T12:29:50Z</time>
      </trkpt>
      <trkpt lat="43.61685" lon="6.60304">
        <ele>611.8</ele>
        <time>2023-11-26T12:29:51Z</time>
      </trkpt>
      <trkpt lat="43.61685" lon="6.60306">
        <ele>611.7</ele>
        <time>2023-11-26T12:29:52Z</time>
      </trkpt>
      <trkpt lat="43.61685" lon="6.60308">
        <ele>611.5</ele>
        <time>2023-11-26T12:29:53Z</time>
      </trkpt>
      <trkpt lat="43.61685" lon="6.6031">
        <ele>611.6</ele>
        <time>2023-11-26T12:29:54Z</time>
      </trkpt>
      <trkpt lat="43.61685" lon="6.60312">
        <ele>611.5</ele>
        <time>2023-11-26T12:29:55Z</time>
      </trkpt>
      <trkpt lat="43.61686" lon="6.60314">
        <ele>611.4</ele>
        <time>2023-11-26T12:29:56Z</time>
      </trkpt>
      <trkpt lat="43.61686" lon="6.60316">
        <ele>611.3</ele>
        <time>2023-11-26T12:29:57Z</time>
      </trkpt>
      <trkpt lat="43.61687" lon="6.60317">
        <ele>611.4</ele>
        <time>2023-11-26T12:29:58Z</time>
      </trkpt>
      <trkpt lat="43.61687" lon="6.60319">
        <ele>611.5</ele>
        <time>2023-11-26T12:29:59Z</time>
      </trkpt>
      <trkpt lat="43.61688" lon="6.60321">
        <ele>611.5</ele>
        <time>2023-11-26T12:30:00Z</time>
      </trkpt>
      <trkpt lat="43.61688" lon="6.60322">
        <ele>611.6</ele>
        <time>2023-11-26T12:30:01Z</time>
      </trkpt>
      <trkpt lat="43.61688" lon="6.60324">
        <ele>611.7</ele>
        <time>2023-11-26T12:30:02Z</time>
      </trkpt>
      <trkpt lat="43.61689" lon="6.60326">
        <ele>611.6</ele>
        <time>2023-11-26T12:30:03Z</time>
      </trkpt>
      <trkpt lat="43.61689" lon="6.60327">
        <ele>611.5</ele>
        <time>2023-11-26T12:30:04Z</time>
      </trkpt>
      <trkpt lat="43.6169" lon="6.60329">
        <ele>611.5</ele>
        <time>2023-11-26T12:30:05Z</time>
      </trkpt>
      <trkpt lat="43.6169" lon="6.6033">
        <ele>611.4</ele>
        <time>2023-11-26T12:30:06Z</time>
      </trkpt>
      <trkpt lat="43.6169" lon="6.60332">
        <ele>611.4</ele>
        <time>2023-11-26T12:30:07Z</time>
      </trkpt>
      <trkpt lat="43.6169" lon="6.60334">
        <ele>611.3</ele>
        <time>2023-11-26T12:30:08Z</time>
      </trkpt>
      <trkpt lat="43.61691" lon="6.60336">
        <ele>611.4</ele>
        <time>2023-11-26T12:30:09Z</time>
      </trkpt>
      <trkpt lat="43.61691" lon="6.60338">
        <ele>611.5</ele>
        <time>2023-11-26T12:30:10Z</time>
      </trkpt>
      <trkpt lat="43.61691" lon="6.6034">
        <ele>611.5</ele>
        <time>2023-11-26T12:30:11Z</time>
      </trkpt>
      <trkpt lat="43.61692" lon="6.60341">
        <ele>611.6</ele>
        <time>2023-11-26T12:30:12Z</time>
      </trkpt>
      <trkpt lat="43.61692" lon="6.60343">
        <ele>611.6</ele>
        <time>2023-11-26T12:30:13Z</time>
      </trkpt>
      <trkpt lat="43.61692" lon="6.60345">
        <ele>611.6</ele>
        <time>2023-11-26T12:30:14Z</time>
      </trkpt>
      <trkpt lat="43.61693" lon="6.60347">
        <ele>611.6</ele>
        <time>2023-11-26T12:30:15Z</time>
      </trkpt>
      <trkpt lat="43.61693" lon="6.60349">
        <ele>611.6</ele>
        <time>2023-11-26T12:30:16Z</time>
      </trkpt>
      <trkpt lat="43.61693" lon="6.60351">
        <ele>611.5</ele>
        <time>2023-11-26T12:30:17Z</time>
      </trkpt>
      <trkpt lat="43.61694" lon="6.60352">
        <ele>611.4</ele>
        <time>2023-11-26T12:30:18Z</time>
      </trkpt>
      <trkpt lat="43.61694" lon="6.60353">
        <ele>611.3</ele>
        <time>2023-11-26T12:30:19Z</time>
      </trkpt>
      <trkpt lat="43.61694" lon="6.60355">
        <ele>611.2</ele>
        <time>2023-11-26T12:30:20Z</time>
      </trkpt>
      <trkpt lat="43.61694" lon="6.60357">
        <ele>611.2</ele>
        <time>2023-11-26T12:30:21Z</time>
      </trkpt>
      <trkpt lat="43.61694" lon="6.60358">
        <ele>611.1</ele>
        <time>2023-11-26T12:30:22Z</time>
      </trkpt>
      <trkpt lat="43.61694" lon="6.6036">
        <ele>611.1</ele>
        <time>2023-11-26T12:30:23Z</time>
      </trkpt>
      <trkpt lat="43.61694" lon="6.60362">
        <ele>611.1</ele>
        <time>2023-11-26T12:30:24Z</time>
      </trkpt>
      <trkpt lat="43.61694" lon="6.60363">
        <ele>611.1</ele>
        <time>2023-11-26T12:30:25Z</time>
      </trkpt>
      <trkpt lat="43.61694" lon="6.60365">
        <ele>611.1</ele>
        <time>2023-11-26T12:30:26Z</time>
      </trkpt>
      <trkpt lat="43.61694" lon="6.60366">
        <ele>611.1</ele>
        <time>2023-11-26T12:30:27Z</time>
      </trkpt>
      <trkpt lat="43.61694" lon="6.60368">
        <ele>611.1</ele>
        <time>2023-11-26T12:30:28Z</time>
      </trkpt>
      <trkpt lat="43.61694" lon="6.6037">
        <ele>611.2</ele>
        <time>2023-11-26T12:30:29Z</time>
      </trkpt>
      <trkpt lat="43.61694" lon="6.60372">
        <ele>611.2</ele>
        <time>2023-11-26T12:30:30Z</time>
      </trkpt>
      <trkpt lat="43.61694" lon="6.60374">
        <ele>611.3</ele>
        <time>2023-11-26T12:30:31Z</time>
      </trkpt>
      <trkpt lat="43.61694" lon="6.60376">
        <ele>611.1</ele>
        <time>2023-11-26T12:30:32Z</time>
      </trkpt>
      <trkpt lat="43.61694" lon="6.60378">
        <ele>611.1</ele>
        <time>2023-11-26T12:30:33Z</time>
      </trkpt>
      <trkpt lat="43.61695" lon="6.6038">
        <ele>611.2</ele>
        <time>2023-11-26T12:30:34Z</time>
      </trkpt>
      <trkpt lat="43.61695" lon="6.60381">
        <ele>611.2</ele>
        <time>2023-11-26T12:30:35Z</time>
      </trkpt>
      <trkpt lat="43.61694" lon="6.60383">
        <ele>611.2</ele>
        <time>2023-11-26T12:30:36Z</time>
      </trkpt>
      <trkpt lat="43.61694" lon="6.60385">
        <ele>611.1</ele>
        <time>2023-11-26T12:30:37Z</time>
      </trkpt>
      <trkpt lat="43.61694" lon="6.60387">
        <ele>611</ele>
        <time>2023-11-26T12:30:38Z</time>
      </trkpt>
      <trkpt lat="43.61695" lon="6.60388">
        <ele>611</ele>
        <time>2023-11-26T12:30:39Z</time>
      </trkpt>
      <trkpt lat="43.61695" lon="6.6039">
        <ele>611.1</ele>
        <time>2023-11-26T12:30:40Z</time>
      </trkpt>
      <trkpt lat="43.61695" lon="6.60391">
        <ele>610.9</ele>
        <time>2023-11-26T12:30:41Z</time>
      </trkpt>
      <trkpt lat="43.61695" lon="6.60393">
        <ele>610.7</ele>
        <time>2023-11-26T12:30:42Z</time>
      </trkpt>
      <trkpt lat="43.61695" lon="6.60395">
        <ele>610.6</ele>
        <time>2023-11-26T12:30:43Z</time>
      </trkpt>
      <trkpt lat="43.61695" lon="6.60397">
        <ele>610.5</ele>
        <time>2023-11-26T12:30:44Z</time>
      </trkpt>
      <trkpt lat="43.61695" lon="6.60399">
        <ele>610.5</ele>
        <time>2023-11-26T12:30:45Z</time>
      </trkpt>
      <trkpt lat="43.61695" lon="6.60401">
        <ele>610.4</ele>
        <time>2023-11-26T12:30:46Z</time>
      </trkpt>
      <trkpt lat="43.61695" lon="6.60403">
        <ele>610.4</ele>
        <time>2023-11-26T12:30:47Z</time>
      </trkpt>
      <trkpt lat="43.61695" lon="6.60405">
        <ele>610.3</ele>
        <time>2023-11-26T12:30:48Z</time>
      </trkpt>
      <trkpt lat="43.61695" lon="6.60407">
        <ele>610.2</ele>
        <time>2023-11-26T12:30:49Z</time>
      </trkpt>
      <trkpt lat="43.61695" lon="6.60409">
        <ele>610.1</ele>
        <time>2023-11-26T12:30:50Z</time>
      </trkpt>
      <trkpt lat="43.61695" lon="6.60411">
        <ele>610.1</ele>
        <time>2023-11-26T12:30:51Z</time>
      </trkpt>
      <trkpt lat="43.61696" lon="6.60412">
        <ele>610</ele>
        <time>2023-11-26T12:30:52Z</time>
      </trkpt>
      <trkpt lat="43.61696" lon="6.60414">
        <ele>609.9</ele>
        <time>2023-11-26T12:30:53Z</time>
      </trkpt>
      <trkpt lat="43.61696" lon="6.60415">
        <ele>609.8</ele>
        <time>2023-11-26T12:30:54Z</time>
      </trkpt>
      <trkpt lat="43.61697" lon="6.60417">
        <ele>609.8</ele>
        <time>2023-11-26T12:30:55Z</time>
      </trkpt>
      <trkpt lat="43.61697" lon="6.60419">
        <ele>609.7</ele>
        <time>2023-11-26T12:30:56Z</time>
      </trkpt>
      <trkpt lat="43.61697" lon="6.60421">
        <ele>609.4</ele>
        <time>2023-11-26T12:30:57Z</time>
      </trkpt>
      <trkpt lat="43.61697" lon="6.60423">
        <ele>609.3</ele>
        <time>2023-11-26T12:30:58Z</time>
      </trkpt>
      <trkpt lat="43.61698" lon="6.60425">
        <ele>609.2</ele>
        <time>2023-11-26T12:30:59Z</time>
      </trkpt>
      <trkpt lat="43.61698" lon="6.60426">
        <ele>609.1</ele>
        <time>2023-11-26T12:31:00Z</time>
      </trkpt>
      <trkpt lat="43.61698" lon="6.60428">
        <ele>609.1</ele>
        <time>2023-11-26T12:31:01Z</time>
      </trkpt>
      <trkpt lat="43.61698" lon="6.6043">
        <ele>609.2</ele>
        <time>2023-11-26T12:31:02Z</time>
      </trkpt>
      <trkpt lat="43.61698" lon="6.60432">
        <ele>609.3</ele>
        <time>2023-11-26T12:31:03Z</time>
      </trkpt>
      <trkpt lat="43.61698" lon="6.60434">
        <ele>609.3</ele>
        <time>2023-11-26T12:31:04Z</time>
      </trkpt>
      <trkpt lat="43.61698" lon="6.60435">
        <ele>609.3</ele>
        <time>2023-11-26T12:31:05Z</time>
      </trkpt>
      <trkpt lat="43.61699" lon="6.60437">
        <ele>609.2</ele>
        <time>2023-11-26T12:31:06Z</time>
      </trkpt>
      <trkpt lat="43.61699" lon="6.60439">
        <ele>609.3</ele>
        <time>2023-11-26T12:31:07Z</time>
      </trkpt>
      <trkpt lat="43.61699" lon="6.6044">
        <ele>609.3</ele>
        <time>2023-11-26T12:31:08Z</time>
      </trkpt>
      <trkpt lat="43.61699" lon="6.60442">
        <ele>609.4</ele>
        <time>2023-11-26T12:31:09Z</time>
      </trkpt>
      <trkpt lat="43.61699" lon="6.60444">
        <ele>609.4</ele>
        <time>2023-11-26T12:31:10Z</time>
      </trkpt>
      <trkpt lat="43.61699" lon="6.60446">
        <ele>609.4</ele>
        <time>2023-11-26T12:31:11Z</time>
      </trkpt>
      <trkpt lat="43.61699" lon="6.60447">
        <ele>609.4</ele>
        <time>2023-11-26T12:31:12Z</time>
      </trkpt>
      <trkpt lat="43.617" lon="6.60449">
        <ele>609.4</ele>
        <time>2023-11-26T12:31:13Z</time>
      </trkpt>
      <trkpt lat="43.617" lon="6.60451">
        <ele>609.5</ele>
        <time>2023-11-26T12:31:14Z</time>
      </trkpt>
      <trkpt lat="43.61701" lon="6.60452">
        <ele>609.5</ele>
        <time>2023-11-26T12:31:15Z</time>
      </trkpt>
      <trkpt lat="43.61701" lon="6.60454">
        <ele>609.6</ele>
        <time>2023-11-26T12:31:16Z</time>
      </trkpt>
      <trkpt lat="43.61701" lon="6.60455">
        <ele>609.6</ele>
        <time>2023-11-26T12:31:17Z</time>
      </trkpt>
      <trkpt lat="43.61702" lon="6.60457">
        <ele>609.7</ele>
        <time>2023-11-26T12:31:18Z</time>
      </trkpt>
      <trkpt lat="43.61702" lon="6.60459">
        <ele>609.7</ele>
        <time>2023-11-26T12:31:19Z</time>
      </trkpt>
      <trkpt lat="43.61702" lon="6.60461">
        <ele>609.7</ele>
        <time>2023-11-26T12:31:20Z</time>
      </trkpt>
      <trkpt lat="43.61702" lon="6.60462">
        <ele>609.8</ele>
        <time>2023-11-26T12:31:21Z</time>
      </trkpt>
      <trkpt lat="43.61702" lon="6.60464">
        <ele>609.8</ele>
        <time>2023-11-26T12:31:22Z</time>
      </trkpt>
      <trkpt lat="43.61702" lon="6.60466">
        <ele>609.8</ele>
        <time>2023-11-26T12:31:23Z</time>
      </trkpt>
      <trkpt lat="43.61702" lon="6.60468">
        <ele>609.8</ele>
        <time>2023-11-26T12:31:24Z</time>
      </trkpt>
      <trkpt lat="43.61702" lon="6.6047">
        <ele>609.8</ele>
        <time>2023-11-26T12:31:25Z</time>
      </trkpt>
      <trkpt lat="43.61702" lon="6.60472">
        <ele>609.8</ele>
        <time>2023-11-26T12:31:26Z</time>
      </trkpt>
      <trkpt lat="43.61703" lon="6.60474">
        <ele>609.7</ele>
        <time>2023-11-26T12:31:27Z</time>
      </trkpt>
      <trkpt lat="43.61703" lon="6.60476">
        <ele>609.8</ele>
        <time>2023-11-26T12:31:28Z</time>
      </trkpt>
      <trkpt lat="43.61703" lon="6.60478">
        <ele>609.8</ele>
        <time>2023-11-26T12:31:29Z</time>
      </trkpt>
      <trkpt lat="43.61703" lon="6.60479">
        <ele>609.8</ele>
        <time>2023-11-26T12:31:30Z</time>
      </trkpt>
      <trkpt lat="43.61703" lon="6.60481">
        <ele>609.9</ele>
        <time>2023-11-26T12:31:31Z</time>
      </trkpt>
      <trkpt lat="43.61703" lon="6.60483">
        <ele>609.9</ele>
        <time>2023-11-26T12:31:32Z</time>
      </trkpt>
      <trkpt lat="43.61704" lon="6.60484">
        <ele>610</ele>
        <time>2023-11-26T12:31:33Z</time>
      </trkpt>
      <trkpt lat="43.61704" lon="6.60486">
        <ele>610.1</ele>
        <time>2023-11-26T12:31:34Z</time>
      </trkpt>
      <trkpt lat="43.61704" lon="6.60488">
        <ele>610.1</ele>
        <time>2023-11-26T12:31:35Z</time>
      </trkpt>
      <trkpt lat="43.61704" lon="6.6049">
        <ele>610.1</ele>
        <time>2023-11-26T12:31:36Z</time>
      </trkpt>
      <trkpt lat="43.61704" lon="6.60492">
        <ele>610.1</ele>
        <time>2023-11-26T12:31:37Z</time>
      </trkpt>
      <trkpt lat="43.61705" lon="6.60493">
        <ele>610.2</ele>
        <time>2023-11-26T12:31:38Z</time>
      </trkpt>
      <trkpt lat="43.61705" lon="6.60495">
        <ele>610.2</ele>
        <time>2023-11-26T12:31:39Z</time>
      </trkpt>
      <trkpt lat="43.61705" lon="6.60497">
        <ele>610.3</ele>
        <time>2023-11-26T12:31:40Z</time>
      </trkpt>
      <trkpt lat="43.61706" lon="6.60499">
        <ele>610.4</ele>
        <time>2023-11-26T12:31:41Z</time>
      </trkpt>
      <trkpt lat="43.61706" lon="6.605">
        <ele>610.5</ele>
        <time>2023-11-26T12:31:42Z</time>
      </trkpt>
      <trkpt lat="43.61706" lon="6.60502">
        <ele>610.6</ele>
        <time>2023-11-26T12:31:43Z</time>
      </trkpt>
      <trkpt lat="43.61706" lon="6.60504">
        <ele>610.5</ele>
        <time>2023-11-26T12:31:44Z</time>
      </trkpt>
      <trkpt lat="43.61707" lon="6.60506">
        <ele>610.6</ele>
        <time>2023-11-26T12:31:45Z</time>
      </trkpt>
      <trkpt lat="43.61707" lon="6.60508">
        <ele>610.6</ele>
        <time>2023-11-26T12:31:46Z</time>
      </trkpt>
      <trkpt lat="43.61707" lon="6.6051">
        <ele>610.6</ele>
        <time>2023-11-26T12:31:47Z</time>
      </trkpt>
      <trkpt lat="43.61708" lon="6.60512">
        <ele>610.6</ele>
        <time>2023-11-26T12:31:48Z</time>
      </trkpt>
      <trkpt lat="43.61708" lon="6.60514">
        <ele>610.5</ele>
        <time>2023-11-26T12:31:49Z</time>
      </trkpt>
      <trkpt lat="43.61709" lon="6.60515">
        <ele>610.5</ele>
        <time>2023-11-26T12:31:50Z</time>
      </trkpt>
      <trkpt lat="43.61709" lon="6.60517">
        <ele>610.4</ele>
        <time>2023-11-26T12:31:51Z</time>
      </trkpt>
      <trkpt lat="43.6171" lon="6.60519">
        <ele>610.5</ele>
        <time>2023-11-26T12:31:52Z</time>
      </trkpt>
      <trkpt lat="43.61711" lon="6.60521">
        <ele>610.5</ele>
        <time>2023-11-26T12:31:53Z</time>
      </trkpt>
      <trkpt lat="43.61711" lon="6.60523">
        <ele>610.5</ele>
        <time>2023-11-26T12:31:54Z</time>
      </trkpt>
      <trkpt lat="43.61711" lon="6.60524">
        <ele>610.5</ele>
        <time>2023-11-26T12:31:55Z</time>
      </trkpt>
      <trkpt lat="43.61712" lon="6.60526">
        <ele>610.5</ele>
        <time>2023-11-26T12:31:56Z</time>
      </trkpt>
      <trkpt lat="43.61712" lon="6.60528">
        <ele>610.5</ele>
        <time>2023-11-26T12:31:57Z</time>
      </trkpt>
      <trkpt lat="43.61713" lon="6.60529">
        <ele>610.5</ele>
        <time>2023-11-26T12:31:58Z</time>
      </trkpt>
      <trkpt lat="43.61713" lon="6.60531">
        <ele>610.5</ele>
        <time>2023-11-26T12:31:59Z</time>
      </trkpt>
      <trkpt lat="43.61714" lon="6.60532">
        <ele>610.5</ele>
        <time>2023-11-26T12:32:00Z</time>
      </trkpt>
      <trkpt lat="43.61715" lon="6.60534">
        <ele>610.5</ele>
        <time>2023-11-26T12:32:01Z</time>
      </trkpt>
      <trkpt lat="43.61715" lon="6.60536">
        <ele>610.5</ele>
        <time>2023-11-26T12:32:02Z</time>
      </trkpt>
      <trkpt lat="43.61716" lon="6.60538">
        <ele>610.6</ele>
        <time>2023-11-26T12:32:03Z</time>
      </trkpt>
      <trkpt lat="43.61716" lon="6.6054">
        <ele>610.6</ele>
        <time>2023-11-26T12:32:04Z</time>
      </trkpt>
      <trkpt lat="43.61717" lon="6.60541">
        <ele>610.7</ele>
        <time>2023-11-26T12:32:05Z</time>
      </trkpt>
      <trkpt lat="43.61717" lon="6.60543">
        <ele>610.7</ele>
        <time>2023-11-26T12:32:06Z</time>
      </trkpt>
      <trkpt lat="43.61717" lon="6.60545">
        <ele>610.8</ele>
        <time>2023-11-26T12:32:07Z</time>
      </trkpt>
      <trkpt lat="43.61717" lon="6.60546">
        <ele>610.8</ele>
        <time>2023-11-26T12:32:08Z</time>
      </trkpt>
      <trkpt lat="43.61718" lon="6.60548">
        <ele>610.9</ele>
        <time>2023-11-26T12:32:09Z</time>
      </trkpt>
      <trkpt lat="43.61718" lon="6.60549">
        <ele>610.9</ele>
        <time>2023-11-26T12:32:10Z</time>
      </trkpt>
      <trkpt lat="43.61718" lon="6.60551">
        <ele>610.9</ele>
        <time>2023-11-26T12:32:11Z</time>
      </trkpt>
      <trkpt lat="43.61718" lon="6.60553">
        <ele>610.8</ele>
        <time>2023-11-26T12:32:12Z</time>
      </trkpt>
      <trkpt lat="43.61718" lon="6.60555">
        <ele>610.9</ele>
        <time>2023-11-26T12:32:13Z</time>
      </trkpt>
      <trkpt lat="43.61719" lon="6.60557">
        <ele>610.8</ele>
        <time>2023-11-26T12:32:14Z</time>
      </trkpt>
      <trkpt lat="43.61719" lon="6.60558">
        <ele>610.8</ele>
        <time>2023-11-26T12:32:15Z</time>
      </trkpt>
      <trkpt lat="43.61719" lon="6.6056">
        <ele>610.8</ele>
        <time>2023-11-26T12:32:16Z</time>
      </trkpt>
      <trkpt lat="43.61719" lon="6.60562">
        <ele>610.8</ele>
        <time>2023-11-26T12:32:17Z</time>
      </trkpt>
      <trkpt lat="43.61719" lon="6.60564">
        <ele>610.8</ele>
        <time>2023-11-26T12:32:18Z</time>
      </trkpt>
      <trkpt lat="43.61719" lon="6.60566">
        <ele>610.8</ele>
        <time>2023-11-26T12:32:19Z</time>
      </trkpt>
      <trkpt lat="43.6172" lon="6.60568">
        <ele>610.8</ele>
        <time>2023-11-26T12:32:20Z</time>
      </trkpt>
      <trkpt lat="43.6172" lon="6.6057">
        <ele>610.9</ele>
        <time>2023-11-26T12:32:21Z</time>
      </trkpt>
      <trkpt lat="43.6172" lon="6.60571">
        <ele>610.9</ele>
        <time>2023-11-26T12:32:22Z</time>
      </trkpt>
      <trkpt lat="43.61721" lon="6.60573">
        <ele>610.9</ele>
        <time>2023-11-26T12:32:23Z</time>
      </trkpt>
      <trkpt lat="43.61721" lon="6.60575">
        <ele>610.8</ele>
        <time>2023-11-26T12:32:24Z</time>
      </trkpt>
      <trkpt lat="43.61721" lon="6.60577">
        <ele>610.8</ele>
        <time>2023-11-26T12:32:25Z</time>
      </trkpt>
      <trkpt lat="43.61722" lon="6.60579">
        <ele>610.7</ele>
        <time>2023-11-26T12:32:26Z</time>
      </trkpt>
      <trkpt lat="43.61722" lon="6.6058">
        <ele>610.8</ele>
        <time>2023-11-26T12:32:27Z</time>
      </trkpt>
      <trkpt lat="43.61723" lon="6.60582">
        <ele>610.8</ele>
        <time>2023-11-26T12:32:28Z</time>
      </trkpt>
      <trkpt lat="43.61724" lon="6.60584">
        <ele>610.7</ele>
        <time>2023-11-26T12:32:29Z</time>
      </trkpt>
      <trkpt lat="43.61725" lon="6.60585">
        <ele>610.6</ele>
        <time>2023-11-26T12:32:30Z</time>
      </trkpt>
      <trkpt lat="43.61725" lon="6.60587">
        <ele>610.6</ele>
        <time>2023-11-26T12:32:31Z</time>
      </trkpt>
      <trkpt lat="43.61726" lon="6.60589">
        <ele>610.6</ele>
        <time>2023-11-26T12:32:32Z</time>
      </trkpt>
      <trkpt lat="43.61727" lon="6.6059">
        <ele>610.6</ele>
        <time>2023-11-26T12:32:33Z</time>
      </trkpt>
      <trkpt lat="43.61727" lon="6.60592">
        <ele>610.6</ele>
        <time>2023-11-26T12:32:34Z</time>
      </trkpt>
      <trkpt lat="43.61728" lon="6.60594">
        <ele>610.6</ele>
        <time>2023-11-26T12:32:35Z</time>
      </trkpt>
      <trkpt lat="43.61729" lon="6.60596">
        <ele>610.6</ele>
        <time>2023-11-26T12:32:36Z</time>
      </trkpt>
      <trkpt lat="43.61729" lon="6.60597">
        <ele>610.6</ele>
        <time>2023-11-26T12:32:37Z</time>
      </trkpt>
      <trkpt lat="43.6173" lon="6.60599">
        <ele>610.6</ele>
        <time>2023-11-26T12:32:38Z</time>
      </trkpt>
      <trkpt lat="43.61731" lon="6.60601">
        <ele>610.5</ele>
        <time>2023-11-26T12:32:39Z</time>
      </trkpt>
      <trkpt lat="43.61731" lon="6.60602">
        <ele>610.5</ele>
        <time>2023-11-26T12:32:40Z</time>
      </trkpt>
      <trkpt lat="43.61732" lon="6.60604">
        <ele>610.5</ele>
        <time>2023-11-26T12:32:41Z</time>
      </trkpt>
      <trkpt lat="43.61733" lon="6.60605">
        <ele>610.5</ele>
        <time>2023-11-26T12:32:42Z</time>
      </trkpt>
      <trkpt lat="43.61734" lon="6.60607">
        <ele>610.5</ele>
        <time>2023-11-26T12:32:43Z</time>
      </trkpt>
      <trkpt lat="43.61734" lon="6.60609">
        <ele>610.6</ele>
        <time>2023-11-26T12:32:44Z</time>
      </trkpt>
      <trkpt lat="43.61735" lon="6.6061">
        <ele>610.6</ele>
        <time>2023-11-26T12:32:45Z</time>
      </trkpt>
      <trkpt lat="43.61736" lon="6.60612">
        <ele>610.6</ele>
        <time>2023-11-26T12:32:46Z</time>
      </trkpt>
      <trkpt lat="43.61736" lon="6.60614">
        <ele>610.7</ele>
        <time>2023-11-26T12:32:47Z</time>
      </trkpt>
      <trkpt lat="43.61737" lon="6.60615">
        <ele>610.8</ele>
        <time>2023-11-26T12:32:48Z</time>
      </trkpt>
      <trkpt lat="43.61738" lon="6.60617">
        <ele>610.9</ele>
        <time>2023-11-26T12:32:49Z</time>
      </trkpt>
      <trkpt lat="43.61738" lon="6.60619">
        <ele>610.9</ele>
        <time>2023-11-26T12:32:50Z</time>
      </trkpt>
      <trkpt lat="43.61739" lon="6.6062">
        <ele>610.8</ele>
        <time>2023-11-26T12:32:51Z</time>
      </trkpt>
      <trkpt lat="43.6174" lon="6.60621">
        <ele>610.8</ele>
        <time>2023-11-26T12:32:52Z</time>
      </trkpt>
      <trkpt lat="43.61741" lon="6.60623">
        <ele>610.7</ele>
        <time>2023-11-26T12:32:53Z</time>
      </trkpt>
      <trkpt lat="43.61742" lon="6.60625">
        <ele>610.6</ele>
        <time>2023-11-26T12:32:54Z</time>
      </trkpt>
      <trkpt lat="43.61742" lon="6.60626">
        <ele>610.5</ele>
        <time>2023-11-26T12:32:55Z</time>
      </trkpt>
      <trkpt lat="43.61743" lon="6.60628">
        <ele>610.5</ele>
        <time>2023-11-26T12:32:56Z</time>
      </trkpt>
      <trkpt lat="43.61744" lon="6.60629">
        <ele>610.5</ele>
        <time>2023-11-26T12:32:57Z</time>
      </trkpt>
      <trkpt lat="43.61745" lon="6.60631">
        <ele>610.6</ele>
        <time>2023-11-26T12:32:58Z</time>
      </trkpt>
      <trkpt lat="43.61745" lon="6.60632">
        <ele>610.6</ele>
        <time>2023-11-26T12:32:59Z</time>
      </trkpt>
      <trkpt lat="43.61746" lon="6.60634">
        <ele>610.6</ele>
        <time>2023-11-26T12:33:00Z</time>
      </trkpt>
      <trkpt lat="43.61747" lon="6.60635">
        <ele>610.7</ele>
        <time>2023-11-26T12:33:01Z</time>
      </trkpt>
      <trkpt lat="43.61747" lon="6.60637">
        <ele>610.6</ele>
        <time>2023-11-26T12:33:02Z</time>
      </trkpt>
      <trkpt lat="43.61748" lon="6.60639">
        <ele>610.6</ele>
        <time>2023-11-26T12:33:03Z</time>
      </trkpt>
      <trkpt lat="43.61748" lon="6.60641">
        <ele>610.6</ele>
        <time>2023-11-26T12:33:04Z</time>
      </trkpt>
      <trkpt lat="43.61748" lon="6.60643">
        <ele>610.6</ele>
        <time>2023-11-26T12:33:05Z</time>
      </trkpt>
      <trkpt lat="43.61749" lon="6.60645">
        <ele>610.6</ele>
        <time>2023-11-26T12:33:06Z</time>
      </trkpt>
      <trkpt lat="43.61749" lon="6.60647">
        <ele>610.5</ele>
        <time>2023-11-26T12:33:07Z</time>
      </trkpt>
      <trkpt lat="43.6175" lon="6.60649">
        <ele>610.5</ele>
        <time>2023-11-26T12:33:08Z</time>
      </trkpt>
      <trkpt lat="43.61751" lon="6.6065">
        <ele>610.4</ele>
        <time>2023-11-26T12:33:09Z</time>
      </trkpt>
      <trkpt lat="43.61751" lon="6.60652">
        <ele>610.3</ele>
        <time>2023-11-26T12:33:10Z</time>
      </trkpt>
      <trkpt lat="43.61752" lon="6.60653">
        <ele>610.3</ele>
        <time>2023-11-26T12:33:11Z</time>
      </trkpt>
      <trkpt lat="43.61753" lon="6.60655">
        <ele>610.2</ele>
        <time>2023-11-26T12:33:12Z</time>
      </trkpt>
      <trkpt lat="43.61753" lon="6.60657">
        <ele>610.1</ele>
        <time>2023-11-26T12:33:13Z</time>
      </trkpt>
      <trkpt lat="43.61754" lon="6.60659">
        <ele>610.1</ele>
        <time>2023-11-26T12:33:14Z</time>
      </trkpt>
      <trkpt lat="43.61754" lon="6.6066">
        <ele>610.1</ele>
        <time>2023-11-26T12:33:15Z</time>
      </trkpt>
      <trkpt lat="43.61755" lon="6.60662">
        <ele>610.1</ele>
        <time>2023-11-26T12:33:16Z</time>
      </trkpt>
      <trkpt lat="43.61755" lon="6.60663">
        <ele>610.1</ele>
        <time>2023-11-26T12:33:17Z</time>
      </trkpt>
      <trkpt lat="43.61756" lon="6.60665">
        <ele>610.1</ele>
        <time>2023-11-26T12:33:18Z</time>
      </trkpt>
      <trkpt lat="43.61756" lon="6.60667">
        <ele>610.1</ele>
        <time>2023-11-26T12:33:19Z</time>
      </trkpt>
      <trkpt lat="43.61757" lon="6.60669">
        <ele>610.1</ele>
        <time>2023-11-26T12:33:20Z</time>
      </trkpt>
      <trkpt lat="43.61757" lon="6.6067">
        <ele>610.1</ele>
        <time>2023-11-26T12:33:21Z</time>
      </trkpt>
      <trkpt lat="43.61757" lon="6.60672">
        <ele>610.1</ele>
        <time>2023-11-26T12:33:22Z</time>
      </trkpt>
      <trkpt lat="43.61758" lon="6.60674">
        <ele>610.1</ele>
        <time>2023-11-26T12:33:23Z</time>
      </trkpt>
      <trkpt lat="43.61758" lon="6.60675">
        <ele>610.1</ele>
        <time>2023-11-26T12:33:24Z</time>
      </trkpt>
      <trkpt lat="43.61758" lon="6.60677">
        <ele>610.2</ele>
        <time>2023-11-26T12:33:25Z</time>
      </trkpt>
      <trkpt lat="43.61759" lon="6.60678">
        <ele>610.3</ele>
        <time>2023-11-26T12:33:26Z</time>
      </trkpt>
      <trkpt lat="43.61759" lon="6.6068">
        <ele>610.4</ele>
        <time>2023-11-26T12:33:27Z</time>
      </trkpt>
      <trkpt lat="43.6176" lon="6.60681">
        <ele>610.5</ele>
        <time>2023-11-26T12:33:28Z</time>
      </trkpt>
      <trkpt lat="43.6176" lon="6.60683">
        <ele>610.5</ele>
        <time>2023-11-26T12:33:29Z</time>
      </trkpt>
      <trkpt lat="43.6176" lon="6.60684">
        <ele>610.5</ele>
        <time>2023-11-26T12:33:30Z</time>
      </trkpt>
      <trkpt lat="43.61761" lon="6.60686">
        <ele>610.5</ele>
        <time>2023-11-26T12:33:31Z</time>
      </trkpt>
      <trkpt lat="43.61761" lon="6.60687">
        <ele>610.6</ele>
        <time>2023-11-26T12:33:32Z</time>
      </trkpt>
      <trkpt lat="43.61762" lon="6.60689">
        <ele>610.6</ele>
        <time>2023-11-26T12:33:33Z</time>
      </trkpt>
      <trkpt lat="43.61762" lon="6.6069">
        <ele>610.6</ele>
        <time>2023-11-26T12:33:34Z</time>
      </trkpt>
      <trkpt lat="43.61763" lon="6.60692">
        <ele>610.7</ele>
        <time>2023-11-26T12:33:35Z</time>
      </trkpt>
      <trkpt lat="43.61763" lon="6.60694">
        <ele>610.8</ele>
        <time>2023-11-26T12:33:36Z</time>
      </trkpt>
      <trkpt lat="43.61764" lon="6.60695">
        <ele>610.9</ele>
        <time>2023-11-26T12:33:37Z</time>
      </trkpt>
      <trkpt lat="43.61764" lon="6.60697">
        <ele>610.9</ele>
        <time>2023-11-26T12:33:38Z</time>
      </trkpt>
      <trkpt lat="43.61764" lon="6.60698">
        <ele>610.9</ele>
        <time>2023-11-26T12:33:39Z</time>
      </trkpt>
      <trkpt lat="43.61765" lon="6.607">
        <ele>610.9</ele>
        <time>2023-11-26T12:33:40Z</time>
      </trkpt>
      <trkpt lat="43.61766" lon="6.60701">
        <ele>611</ele>
        <time>2023-11-26T12:33:41Z</time>
      </trkpt>
      <trkpt lat="43.61766" lon="6.60702">
        <ele>611.1</ele>
        <time>2023-11-26T12:33:42Z</time>
      </trkpt>
      <trkpt lat="43.61767" lon="6.60704">
        <ele>611.1</ele>
        <time>2023-11-26T12:33:43Z</time>
      </trkpt>
      <trkpt lat="43.61767" lon="6.60704">
        <ele>611.1</ele>
        <time>2023-11-26T12:33:44Z</time>
      </trkpt>
      <trkpt lat="43.61768" lon="6.60706">
        <ele>611.1</ele>
        <time>2023-11-26T12:33:45Z</time>
      </trkpt>
      <trkpt lat="43.61768" lon="6.60707">
        <ele>611.1</ele>
        <time>2023-11-26T12:33:46Z</time>
      </trkpt>
      <trkpt lat="43.61768" lon="6.60709">
        <ele>611</ele>
        <time>2023-11-26T12:33:47Z</time>
      </trkpt>
      <trkpt lat="43.61769" lon="6.60711">
        <ele>611</ele>
        <time>2023-11-26T12:33:48Z</time>
      </trkpt>
      <trkpt lat="43.61769" lon="6.60712">
        <ele>610.9</ele>
        <time>2023-11-26T12:33:49Z</time>
      </trkpt>
      <trkpt lat="43.6177" lon="6.60714">
        <ele>611.1</ele>
        <time>2023-11-26T12:33:50Z</time>
      </trkpt>
      <trkpt lat="43.6177" lon="6.60716">
        <ele>611.2</ele>
        <time>2023-11-26T12:33:51Z</time>
      </trkpt>
      <trkpt lat="43.61771" lon="6.60718">
        <ele>611.3</ele>
        <time>2023-11-26T12:33:52Z</time>
      </trkpt>
      <trkpt lat="43.61771" lon="6.60719">
        <ele>611.3</ele>
        <time>2023-11-26T12:33:53Z</time>
      </trkpt>
      <trkpt lat="43.61771" lon="6.60721">
        <ele>611.4</ele>
        <time>2023-11-26T12:33:54Z</time>
      </trkpt>
      <trkpt lat="43.61772" lon="6.60723">
        <ele>611.5</ele>
        <time>2023-11-26T12:33:55Z</time>
      </trkpt>
      <trkpt lat="43.61772" lon="6.60725">
        <ele>611.6</ele>
        <time>2023-11-26T12:33:56Z</time>
      </trkpt>
      <trkpt lat="43.61773" lon="6.60727">
        <ele>611.5</ele>
        <time>2023-11-26T12:33:57Z</time>
      </trkpt>
      <trkpt lat="43.61773" lon="6.60728">
        <ele>611.4</ele>
        <time>2023-11-26T12:33:58Z</time>
      </trkpt>
      <trkpt lat="43.61774" lon="6.6073">
        <ele>611.4</ele>
        <time>2023-11-26T12:33:59Z</time>
      </trkpt>
      <trkpt lat="43.61775" lon="6.60732">
        <ele>611.3</ele>
        <time>2023-11-26T12:34:00Z</time>
      </trkpt>
      <trkpt lat="43.61776" lon="6.60734">
        <ele>611.3</ele>
        <time>2023-11-26T12:34:01Z</time>
      </trkpt>
      <trkpt lat="43.61776" lon="6.60735">
        <ele>611.2</ele>
        <time>2023-11-26T12:34:02Z</time>
      </trkpt>
      <trkpt lat="43.61777" lon="6.60737">
        <ele>611.1</ele>
        <time>2023-11-26T12:34:03Z</time>
      </trkpt>
      <trkpt lat="43.61777" lon="6.60738">
        <ele>611</ele>
        <time>2023-11-26T12:34:04Z</time>
      </trkpt>
      <trkpt lat="43.61778" lon="6.6074">
        <ele>610.9</ele>
        <time>2023-11-26T12:34:05Z</time>
      </trkpt>
      <trkpt lat="43.61778" lon="6.60742">
        <ele>610.8</ele>
        <time>2023-11-26T12:34:06Z</time>
      </trkpt>
      <trkpt lat="43.61778" lon="6.60743">
        <ele>610.7</ele>
        <time>2023-11-26T12:34:07Z</time>
      </trkpt>
      <trkpt lat="43.61779" lon="6.60745">
        <ele>610.6</ele>
        <time>2023-11-26T12:34:08Z</time>
      </trkpt>
      <trkpt lat="43.61779" lon="6.60747">
        <ele>610.5</ele>
        <time>2023-11-26T12:34:09Z</time>
      </trkpt>
      <trkpt lat="43.61779" lon="6.60748">
        <ele>610.4</ele>
        <time>2023-11-26T12:34:10Z</time>
      </trkpt>
      <trkpt lat="43.6178" lon="6.6075">
        <ele>610.3</ele>
        <time>2023-11-26T12:34:11Z</time>
      </trkpt>
      <trkpt lat="43.6178" lon="6.60751">
        <ele>610.2</ele>
        <time>2023-11-26T12:34:12Z</time>
      </trkpt>
      <trkpt lat="43.61781" lon="6.60753">
        <ele>610.1</ele>
        <time>2023-11-26T12:34:13Z</time>
      </trkpt>
      <trkpt lat="43.61781" lon="6.60755">
        <ele>610.2</ele>
        <time>2023-11-26T12:34:14Z</time>
      </trkpt>
      <trkpt lat="43.61781" lon="6.60756">
        <ele>610.2</ele>
        <time>2023-11-26T12:34:15Z</time>
      </trkpt>
      <trkpt lat="43.61782" lon="6.60757">
        <ele>610.1</ele>
        <time>2023-11-26T12:34:16Z</time>
      </trkpt>
      <trkpt lat="43.61782" lon="6.60758">
        <ele>610.1</ele>
        <time>2023-11-26T12:34:17Z</time>
      </trkpt>
      <trkpt lat="43.61782" lon="6.6076">
        <ele>610</ele>
        <time>2023-11-26T12:34:18Z</time>
      </trkpt>
      <trkpt lat="43.61782" lon="6.60762">
        <ele>609.9</ele>
        <time>2023-11-26T12:34:19Z</time>
      </trkpt>
      <trkpt lat="43.61782" lon="6.60763">
        <ele>609.8</ele>
        <time>2023-11-26T12:34:20Z</time>
      </trkpt>
      <trkpt lat="43.61782" lon="6.60765">
        <ele>609.7</ele>
        <time>2023-11-26T12:34:21Z</time>
      </trkpt>
      <trkpt lat="43.61782" lon="6.60766">
        <ele>609.6</ele>
        <time>2023-11-26T12:34:22Z</time>
      </trkpt>
      <trkpt lat="43.61783" lon="6.60768">
        <ele>609.6</ele>
        <time>2023-11-26T12:34:23Z</time>
      </trkpt>
      <trkpt lat="43.61783" lon="6.60769">
        <ele>609.5</ele>
        <time>2023-11-26T12:34:24Z</time>
      </trkpt>
      <trkpt lat="43.61783" lon="6.60771">
        <ele>609.4</ele>
        <time>2023-11-26T12:34:25Z</time>
      </trkpt>
      <trkpt lat="43.61784" lon="6.60773">
        <ele>609.4</ele>
        <time>2023-11-26T12:34:26Z</time>
      </trkpt>
      <trkpt lat="43.61784" lon="6.60775">
        <ele>609.3</ele>
        <time>2023-11-26T12:34:27Z</time>
      </trkpt>
      <trkpt lat="43.61784" lon="6.60776">
        <ele>609.1</ele>
        <time>2023-11-26T12:34:28Z</time>
      </trkpt>
      <trkpt lat="43.61785" lon="6.60778">
        <ele>609.2</ele>
        <time>2023-11-26T12:34:29Z</time>
      </trkpt>
      <trkpt lat="43.61785" lon="6.60779">
        <ele>609.2</ele>
        <time>2023-11-26T12:34:30Z</time>
      </trkpt>
      <trkpt lat="43.61785" lon="6.60781">
        <ele>609.1</ele>
        <time>2023-11-26T12:34:31Z</time>
      </trkpt>
      <trkpt lat="43.61785" lon="6.60783">
        <ele>609.1</ele>
        <time>2023-11-26T12:34:32Z</time>
      </trkpt>
      <trkpt lat="43.61785" lon="6.60785">
        <ele>609.1</ele>
        <time>2023-11-26T12:34:33Z</time>
      </trkpt>
      <trkpt lat="43.61785" lon="6.60786">
        <ele>609.1</ele>
        <time>2023-11-26T12:34:34Z</time>
      </trkpt>
      <trkpt lat="43.61785" lon="6.60788">
        <ele>609</ele>
        <time>2023-11-26T12:34:35Z</time>
      </trkpt>
      <trkpt lat="43.61784" lon="6.6079">
        <ele>609</ele>
        <time>2023-11-26T12:34:36Z</time>
      </trkpt>
      <trkpt lat="43.61784" lon="6.60791">
        <ele>608.9</ele>
        <time>2023-11-26T12:34:37Z</time>
      </trkpt>
      <trkpt lat="43.61784" lon="6.60793">
        <ele>608.9</ele>
        <time>2023-11-26T12:34:38Z</time>
      </trkpt>
      <trkpt lat="43.61784" lon="6.60795">
        <ele>608.8</ele>
        <time>2023-11-26T12:34:39Z</time>
      </trkpt>
      <trkpt lat="43.61784" lon="6.60796">
        <ele>608.8</ele>
        <time>2023-11-26T12:34:40Z</time>
      </trkpt>
      <trkpt lat="43.61784" lon="6.60798">
        <ele>608.8</ele>
        <time>2023-11-26T12:34:41Z</time>
      </trkpt>
      <trkpt lat="43.61784" lon="6.608">
        <ele>608.7</ele>
        <time>2023-11-26T12:34:42Z</time>
      </trkpt>
      <trkpt lat="43.61785" lon="6.60801">
        <ele>608.7</ele>
        <time>2023-11-26T12:34:43Z</time>
      </trkpt>
      <trkpt lat="43.61785" lon="6.60803">
        <ele>608.7</ele>
        <time>2023-11-26T12:34:44Z</time>
      </trkpt>
      <trkpt lat="43.61784" lon="6.60805">
        <ele>608.7</ele>
        <time>2023-11-26T12:34:45Z</time>
      </trkpt>
      <trkpt lat="43.61784" lon="6.60806">
        <ele>608.7</ele>
        <time>2023-11-26T12:34:46Z</time>
      </trkpt>
      <trkpt lat="43.61785" lon="6.60808">
        <ele>608.7</ele>
        <time>2023-11-26T12:34:47Z</time>
      </trkpt>
      <trkpt lat="43.61785" lon="6.60809">
        <ele>608.7</ele>
        <time>2023-11-26T12:34:48Z</time>
      </trkpt>
      <trkpt lat="43.61784" lon="6.60811">
        <ele>608.8</ele>
        <time>2023-11-26T12:34:49Z</time>
      </trkpt>
      <trkpt lat="43.61785" lon="6.60813">
        <ele>608.8</ele>
        <time>2023-11-26T12:34:50Z</time>
      </trkpt>
      <trkpt lat="43.61785" lon="6.60815">
        <ele>608.8</ele>
        <time>2023-11-26T12:34:51Z</time>
      </trkpt>
      <trkpt lat="43.61785" lon="6.60817">
        <ele>608.8</ele>
        <time>2023-11-26T12:34:52Z</time>
      </trkpt>
      <trkpt lat="43.61786" lon="6.60818">
        <ele>608.8</ele>
        <time>2023-11-26T12:34:53Z</time>
      </trkpt>
      <trkpt lat="43.61787" lon="6.6082">
        <ele>608.8</ele>
        <time>2023-11-26T12:34:54Z</time>
      </trkpt>
      <trkpt lat="43.61787" lon="6.60822">
        <ele>608.8</ele>
        <time>2023-11-26T12:34:55Z</time>
      </trkpt>
      <trkpt lat="43.61788" lon="6.60824">
        <ele>608.9</ele>
        <time>2023-11-26T12:34:56Z</time>
      </trkpt>
      <trkpt lat="43.61788" lon="6.60826">
        <ele>608.8</ele>
        <time>2023-11-26T12:34:57Z</time>
      </trkpt>
      <trkpt lat="43.61788" lon="6.60828">
        <ele>608.9</ele>
        <time>2023-11-26T12:34:58Z</time>
      </trkpt>
      <trkpt lat="43.61788" lon="6.6083">
        <ele>609</ele>
        <time>2023-11-26T12:34:59Z</time>
      </trkpt>
      <trkpt lat="43.61789" lon="6.60831">
        <ele>609</ele>
        <time>2023-11-26T12:35:00Z</time>
      </trkpt>
      <trkpt lat="43.6179" lon="6.60833">
        <ele>609</ele>
        <time>2023-11-26T12:35:01Z</time>
      </trkpt>
      <trkpt lat="43.6179" lon="6.60834">
        <ele>609</ele>
        <time>2023-11-26T12:35:02Z</time>
      </trkpt>
      <trkpt lat="43.61791" lon="6.60836">
        <ele>609</ele>
        <time>2023-11-26T12:35:03Z</time>
      </trkpt>
      <trkpt lat="43.61791" lon="6.60838">
        <ele>609</ele>
        <time>2023-11-26T12:35:04Z</time>
      </trkpt>
      <trkpt lat="43.61792" lon="6.6084">
        <ele>609</ele>
        <time>2023-11-26T12:35:05Z</time>
      </trkpt>
      <trkpt lat="43.61792" lon="6.60842">
        <ele>609</ele>
        <time>2023-11-26T12:35:06Z</time>
      </trkpt>
      <trkpt lat="43.61792" lon="6.60844">
        <ele>609</ele>
        <time>2023-11-26T12:35:07Z</time>
      </trkpt>
      <trkpt lat="43.61793" lon="6.60845">
        <ele>609</ele>
        <time>2023-11-26T12:35:08Z</time>
      </trkpt>
      <trkpt lat="43.61794" lon="6.60847">
        <ele>609.1</ele>
        <time>2023-11-26T12:35:09Z</time>
      </trkpt>
      <trkpt lat="43.61794" lon="6.60848">
        <ele>609.2</ele>
        <time>2023-11-26T12:35:10Z</time>
      </trkpt>
      <trkpt lat="43.61795" lon="6.60849">
        <ele>609.2</ele>
        <time>2023-11-26T12:35:11Z</time>
      </trkpt>
      <trkpt lat="43.61796" lon="6.60851">
        <ele>609.2</ele>
        <time>2023-11-26T12:35:12Z</time>
      </trkpt>
      <trkpt lat="43.61796" lon="6.60853">
        <ele>609.2</ele>
        <time>2023-11-26T12:35:13Z</time>
      </trkpt>
      <trkpt lat="43.61797" lon="6.60854">
        <ele>609.2</ele>
        <time>2023-11-26T12:35:14Z</time>
      </trkpt>
      <trkpt lat="43.61798" lon="6.60856">
        <ele>609.3</ele>
        <time>2023-11-26T12:35:15Z</time>
      </trkpt>
      <trkpt lat="43.61798" lon="6.60858">
        <ele>609.4</ele>
        <time>2023-11-26T12:35:16Z</time>
      </trkpt>
      <trkpt lat="43.61799" lon="6.60859">
        <ele>609.4</ele>
        <time>2023-11-26T12:35:17Z</time>
      </trkpt>
      <trkpt lat="43.618" lon="6.6086">
        <ele>609.4</ele>
        <time>2023-11-26T12:35:18Z</time>
      </trkpt>
      <trkpt lat="43.61801" lon="6.60861">
        <ele>609.5</ele>
        <time>2023-11-26T12:35:19Z</time>
      </trkpt>
      <trkpt lat="43.61802" lon="6.60863">
        <ele>609.5</ele>
        <time>2023-11-26T12:35:20Z</time>
      </trkpt>
      <trkpt lat="43.61803" lon="6.60864">
        <ele>609.5</ele>
        <time>2023-11-26T12:35:21Z</time>
      </trkpt>
      <trkpt lat="43.61804" lon="6.60865">
        <ele>609.6</ele>
        <time>2023-11-26T12:35:22Z</time>
      </trkpt>
      <trkpt lat="43.61805" lon="6.60867">
        <ele>609.6</ele>
        <time>2023-11-26T12:35:23Z</time>
      </trkpt>
      <trkpt lat="43.61807" lon="6.60868">
        <ele>609.7</ele>
        <time>2023-11-26T12:35:24Z</time>
      </trkpt>
      <trkpt lat="43.61807" lon="6.60869">
        <ele>609.8</ele>
        <time>2023-11-26T12:35:25Z</time>
      </trkpt>
      <trkpt lat="43.61807" lon="6.60871">
        <ele>609.8</ele>
        <time>2023-11-26T12:35:26Z</time>
      </trkpt>
      <trkpt lat="43.61808" lon="6.60872">
        <ele>609.8</ele>
        <time>2023-11-26T12:35:27Z</time>
      </trkpt>
      <trkpt lat="43.61808" lon="6.60873">
        <ele>609.8</ele>
        <time>2023-11-26T12:35:28Z</time>
      </trkpt>
      <trkpt lat="43.61809" lon="6.60873">
        <ele>609.8</ele>
        <time>2023-11-26T12:35:29Z</time>
      </trkpt>
      <trkpt lat="43.6181" lon="6.60874">
        <ele>609.7</ele>
        <time>2023-11-26T12:35:30Z</time>
      </trkpt>
      <trkpt lat="43.6181" lon="6.60875">
        <ele>609.7</ele>
        <time>2023-11-26T12:35:31Z</time>
      </trkpt>
      <trkpt lat="43.61811" lon="6.60876">
        <ele>609.7</ele>
        <time>2023-11-26T12:35:32Z</time>
      </trkpt>
      <trkpt lat="43.61811" lon="6.60877">
        <ele>609.7</ele>
        <time>2023-11-26T12:35:33Z</time>
      </trkpt>
      <trkpt lat="43.61811" lon="6.60878">
        <ele>609.7</ele>
        <time>2023-11-26T12:35:34Z</time>
      </trkpt>
      <trkpt lat="43.61811" lon="6.6088">
        <ele>609.7</ele>
        <time>2023-11-26T12:35:35Z</time>
      </trkpt>
      <trkpt lat="43.61811" lon="6.6088">
        <ele>609.8</ele>
        <time>2023-11-26T12:35:36Z</time>
      </trkpt>
      <trkpt lat="43.61812" lon="6.6088">
        <ele>609.8</ele>
        <time>2023-11-26T12:35:37Z</time>
      </trkpt>
      <trkpt lat="43.61812" lon="6.60881">
        <ele>609.8</ele>
        <time>2023-11-26T12:35:38Z</time>
      </trkpt>
      <trkpt lat="43.61812" lon="6.60881">
        <ele>609.8</ele>
        <time>2023-11-26T12:35:39Z</time>
      </trkpt>
      <trkpt lat="43.61812" lon="6.60881">
        <ele>609.8</ele>
        <time>2023-11-26T12:35:40Z</time>
      </trkpt>
      <trkpt lat="43.61812" lon="6.60881">
        <ele>609.8</ele>
        <time>2023-11-26T12:35:41Z</time>
      </trkpt>
      <trkpt lat="43.61812" lon="6.60882">
        <ele>609.8</ele>
        <time>2023-11-26T12:35:42Z</time>
      </trkpt>
      <trkpt lat="43.61812" lon="6.60881">
        <ele>609.8</ele>
        <time>2023-11-26T12:35:43Z</time>
      </trkpt>
      <trkpt lat="43.61812" lon="6.60882">
        <ele>609.8</ele>
        <time>2023-11-26T12:35:44Z</time>
      </trkpt>
      <trkpt lat="43.61812" lon="6.60882">
        <ele>609.9</ele>
        <time>2023-11-26T12:35:45Z</time>
      </trkpt>
      <trkpt lat="43.61812" lon="6.60882">
        <ele>610</ele>
        <time>2023-11-26T12:35:46Z</time>
      </trkpt>
      <trkpt lat="43.61812" lon="6.60882">
        <ele>609.9</ele>
        <time>2023-11-26T12:35:47Z</time>
      </trkpt>
      <trkpt lat="43.61812" lon="6.60882">
        <ele>610</ele>
        <time>2023-11-26T12:35:48Z</time>
      </trkpt>
      <trkpt lat="43.61812" lon="6.60882">
        <ele>610</ele>
        <time>2023-11-26T12:35:49Z</time>
      </trkpt>
      <trkpt lat="43.61812" lon="6.60882">
        <ele>610</ele>
        <time>2023-11-26T12:35:50Z</time>
      </trkpt>
      <trkpt lat="43.61813" lon="6.60882">
        <ele>610</ele>
        <time>2023-11-26T12:35:51Z</time>
      </trkpt>
      <trkpt lat="43.61813" lon="6.60882">
        <ele>610</ele>
        <time>2023-11-26T12:35:52Z</time>
      </trkpt>
      <trkpt lat="43.61813" lon="6.60882">
        <ele>610</ele>
        <time>2023-11-26T12:35:53Z</time>
      </trkpt>
      <trkpt lat="43.61813" lon="6.60882">
        <ele>609.9</ele>
        <time>2023-11-26T12:35:54Z</time>
      </trkpt>
      <trkpt lat="43.61813" lon="6.60882">
        <ele>609.9</ele>
        <time>2023-11-26T12:35:55Z</time>
      </trkpt>
      <trkpt lat="43.61813" lon="6.60882">
        <ele>609.9</ele>
        <time>2023-11-26T12:35:56Z</time>
      </trkpt>
      <trkpt lat="43.61814" lon="6.60882">
        <ele>610</ele>
        <time>2023-11-26T12:35:57Z</time>
      </trkpt>
      <trkpt lat="43.61814" lon="6.60882">
        <ele>610</ele>
        <time>2023-11-26T12:35:58Z</time>
      </trkpt>
      <trkpt lat="43.61814" lon="6.60882">
        <ele>610</ele>
        <time>2023-11-26T12:35:59Z</time>
      </trkpt>
      <trkpt lat="43.61814" lon="6.60882">
        <ele>610</ele>
        <time>2023-11-26T12:36:00Z</time>
      </trkpt>
      <trkpt lat="43.61814" lon="6.60882">
        <ele>610</ele>
        <time>2023-11-26T12:36:01Z</time>
      </trkpt>
      <trkpt lat="43.61814" lon="6.60882">
        <ele>610</ele>
        <time>2023-11-26T12:36:02Z</time>
      </trkpt>
      <trkpt lat="43.61814" lon="6.60882">
        <ele>610</ele>
        <time>2023-11-26T12:36:03Z</time>
      </trkpt>
      <trkpt lat="43.61814" lon="6.60882">
        <ele>610.1</ele>
        <time>2023-11-26T12:36:04Z</time>
      </trkpt>
      <trkpt lat="43.61814" lon="6.60882">
        <ele>610.1</ele>
        <time>2023-11-26T12:36:05Z</time>
      </trkpt>
      <trkpt lat="43.61814" lon="6.60883">
        <ele>610.1</ele>
        <time>2023-11-26T12:36:06Z</time>
      </trkpt>
      <trkpt lat="43.61814" lon="6.60882">
        <ele>610.1</ele>
        <time>2023-11-26T12:36:07Z</time>
      </trkpt>
      <trkpt lat="43.61814" lon="6.60882">
        <ele>610.1</ele>
        <time>2023-11-26T12:36:08Z</time>
      </trkpt>
      <trkpt lat="43.61814" lon="6.60883">
        <ele>610.1</ele>
        <time>2023-11-26T12:36:09Z</time>
      </trkpt>
      <trkpt lat="43.61814" lon="6.60883">
        <ele>610.1</ele>
        <time>2023-11-26T12:36:10Z</time>
      </trkpt>
      <trkpt lat="43.61814" lon="6.60883">
        <ele>610.1</ele>
        <time>2023-11-26T12:36:11Z</time>
      </trkpt>
      <trkpt lat="43.61814" lon="6.60882">
        <ele>610</ele>
        <time>2023-11-26T12:36:12Z</time>
      </trkpt>
      <trkpt lat="43.61814" lon="6.60882">
        <ele>610</ele>
        <time>2023-11-26T12:36:13Z</time>
      </trkpt>
      <trkpt lat="43.61814" lon="6.60882">
        <ele>610.1</ele>
        <time>2023-11-26T12:36:14Z</time>
      </trkpt>
      <trkpt lat="43.61814" lon="6.60882">
        <ele>610.1</ele>
        <time>2023-11-26T12:36:15Z</time>
      </trkpt>
      <trkpt lat="43.61814" lon="6.60882">
        <ele>610</ele>
        <time>2023-11-26T12:36:16Z</time>
      </trkpt>
      <trkpt lat="43.61815" lon="6.60882">
        <ele>610</ele>
        <time>2023-11-26T12:36:17Z</time>
      </trkpt>
      <trkpt lat="43.61815" lon="6.60882">
        <ele>610.1</ele>
        <time>2023-11-26T12:36:18Z</time>
      </trkpt>
      <trkpt lat="43.61815" lon="6.60882">
        <ele>610.1</ele>
        <time>2023-11-26T12:36:19Z</time>
      </trkpt>
      <trkpt lat="43.61815" lon="6.60882">
        <ele>610.1</ele>
        <time>2023-11-26T12:36:20Z</time>
      </trkpt>
      <trkpt lat="43.61815" lon="6.60882">
        <ele>610.1</ele>
        <time>2023-11-26T12:36:21Z</time>
      </trkpt>
      <trkpt lat="43.61815" lon="6.60882">
        <ele>610.1</ele>
        <time>2023-11-26T12:36:22Z</time>
      </trkpt>
      <trkpt lat="43.61815" lon="6.60882">
        <ele>610.1</ele>
        <time>2023-11-26T12:36:23Z</time>
      </trkpt>
      <trkpt lat="43.61815" lon="6.60882">
        <ele>610.1</ele>
        <time>2023-11-26T12:36:24Z</time>
      </trkpt>
      <trkpt lat="43.61815" lon="6.60882">
        <ele>610.1</ele>
        <time>2023-11-26T12:36:25Z</time>
      </trkpt>
      <trkpt lat="43.61815" lon="6.60882">
        <ele>610.1</ele>
        <time>2023-11-26T12:36:26Z</time>
      </trkpt>
      <trkpt lat="43.61815" lon="6.60882">
        <ele>610</ele>
        <time>2023-11-26T12:36:27Z</time>
      </trkpt>
      <trkpt lat="43.61815" lon="6.60882">
        <ele>610</ele>
        <time>2023-11-26T12:36:28Z</time>
      </trkpt>
      <trkpt lat="43.61816" lon="6.60882">
        <ele>610</ele>
        <time>2023-11-26T12:36:29Z</time>
      </trkpt>
      <trkpt lat="43.61816" lon="6.60882">
        <ele>610</ele>
        <time>2023-11-26T12:36:30Z</time>
      </trkpt>
      <trkpt lat="43.61816" lon="6.60882">
        <ele>610.1</ele>
        <time>2023-11-26T12:36:31Z</time>
      </trkpt>
      <trkpt lat="43.61816" lon="6.60883">
        <ele>610.2</ele>
        <time>2023-11-26T12:36:32Z</time>
      </trkpt>
      <trkpt lat="43.61816" lon="6.60883">
        <ele>610.2</ele>
        <time>2023-11-26T12:36:33Z</time>
      </trkpt>
      <trkpt lat="43.61816" lon="6.60883">
        <ele>610.2</ele>
        <time>2023-11-26T12:36:34Z</time>
      </trkpt>
      <trkpt lat="43.61816" lon="6.60883">
        <ele>610.3</ele>
        <time>2023-11-26T12:36:35Z</time>
      </trkpt>
      <trkpt lat="43.61816" lon="6.60883">
        <ele>610.3</ele>
        <time>2023-11-26T12:36:36Z</time>
      </trkpt>
      <trkpt lat="43.61816" lon="6.60884">
        <ele>610.3</ele>
        <time>2023-11-26T12:36:37Z</time>
      </trkpt>
      <trkpt lat="43.61816" lon="6.60884">
        <ele>610.2</ele>
        <time>2023-11-26T12:36:38Z</time>
      </trkpt>
      <trkpt lat="43.61816" lon="6.60884">
        <ele>610.2</ele>
        <time>2023-11-26T12:36:39Z</time>
      </trkpt>
      <trkpt lat="43.61815" lon="6.60884">
        <ele>610.2</ele>
        <time>2023-11-26T12:36:40Z</time>
      </trkpt>
      <trkpt lat="43.61815" lon="6.60884">
        <ele>610.2</ele>
        <time>2023-11-26T12:36:41Z</time>
      </trkpt>
      <trkpt lat="43.61815" lon="6.60884">
        <ele>610.2</ele>
        <time>2023-11-26T12:36:42Z</time>
      </trkpt>
      <trkpt lat="43.61815" lon="6.60884">
        <ele>610.2</ele>
        <time>2023-11-26T12:36:43Z</time>
      </trkpt>
      <trkpt lat="43.61815" lon="6.60884">
        <ele>610.1</ele>
        <time>2023-11-26T12:36:44Z</time>
      </trkpt>
      <trkpt lat="43.61815" lon="6.60884">
        <ele>610.1</ele>
        <time>2023-11-26T12:36:45Z</time>
      </trkpt>
      <trkpt lat="43.61816" lon="6.60884">
        <ele>610.1</ele>
        <time>2023-11-26T12:36:46Z</time>
      </trkpt>
      <trkpt lat="43.61816" lon="6.60884">
        <ele>610.1</ele>
        <time>2023-11-26T12:36:47Z</time>
      </trkpt>
      <trkpt lat="43.61817" lon="6.60885">
        <ele>610</ele>
        <time>2023-11-26T12:36:48Z</time>
      </trkpt>
      <trkpt lat="43.61816" lon="6.60885">
        <ele>610</ele>
        <time>2023-11-26T12:36:49Z</time>
      </trkpt>
      <trkpt lat="43.61816" lon="6.60885">
        <ele>610</ele>
        <time>2023-11-26T12:36:50Z</time>
      </trkpt>
      <trkpt lat="43.61816" lon="6.60885">
        <ele>609.9</ele>
        <time>2023-11-26T12:36:51Z</time>
      </trkpt>
      <trkpt lat="43.61815" lon="6.60885">
        <ele>609.8</ele>
        <time>2023-11-26T12:36:52Z</time>
      </trkpt>
      <trkpt lat="43.61815" lon="6.60885">
        <ele>609.8</ele>
        <time>2023-11-26T12:36:53Z</time>
      </trkpt>
      <trkpt lat="43.61816" lon="6.60885">
        <ele>609.8</ele>
        <time>2023-11-26T12:36:54Z</time>
      </trkpt>
      <trkpt lat="43.61815" lon="6.60884">
        <ele>609.8</ele>
        <time>2023-11-26T12:36:55Z</time>
      </trkpt>
      <trkpt lat="43.61815" lon="6.60884">
        <ele>609.8</ele>
        <time>2023-11-26T12:36:56Z</time>
      </trkpt>
      <trkpt lat="43.61815" lon="6.60885">
        <ele>609.8</ele>
        <time>2023-11-26T12:36:57Z</time>
      </trkpt>
      <trkpt lat="43.61814" lon="6.60885">
        <ele>609.8</ele>
        <time>2023-11-26T12:36:58Z</time>
      </trkpt>
      <trkpt lat="43.61815" lon="6.60885">
        <ele>609.9</ele>
        <time>2023-11-26T12:36:59Z</time>
      </trkpt>
      <trkpt lat="43.61815" lon="6.60885">
        <ele>609.9</ele>
        <time>2023-11-26T12:37:00Z</time>
      </trkpt>
      <trkpt lat="43.61817" lon="6.60885">
        <ele>609.8</ele>
        <time>2023-11-26T12:37:01Z</time>
      </trkpt>
      <trkpt lat="43.61817" lon="6.60885">
        <ele>609.8</ele>
        <time>2023-11-26T12:37:02Z</time>
      </trkpt>
      <trkpt lat="43.61817" lon="6.60885">
        <ele>609.8</ele>
        <time>2023-11-26T12:37:03Z</time>
      </trkpt>
      <trkpt lat="43.61817" lon="6.60885">
        <ele>609.8</ele>
        <time>2023-11-26T12:37:04Z</time>
      </trkpt>
      <trkpt lat="43.61818" lon="6.60884">
        <ele>609.8</ele>
        <time>2023-11-26T12:37:05Z</time>
      </trkpt>
      <trkpt lat="43.61818" lon="6.60884">
        <ele>609.8</ele>
        <time>2023-11-26T12:37:06Z</time>
      </trkpt>
      <trkpt lat="43.61818" lon="6.60884">
        <ele>609.8</ele>
        <time>2023-11-26T12:37:07Z</time>
      </trkpt>
      <trkpt lat="43.61818" lon="6.60884">
        <ele>609.7</ele>
        <time>2023-11-26T12:37:08Z</time>
      </trkpt>
      <trkpt lat="43.61818" lon="6.60884">
        <ele>609.7</ele>
        <time>2023-11-26T12:37:09Z</time>
      </trkpt>
      <trkpt lat="43.61817" lon="6.60884">
        <ele>609.7</ele>
        <time>2023-11-26T12:37:10Z</time>
      </trkpt>
      <trkpt lat="43.61817" lon="6.60884">
        <ele>609.7</ele>
        <time>2023-11-26T12:37:11Z</time>
      </trkpt>
      <trkpt lat="43.61817" lon="6.60884">
        <ele>609.7</ele>
        <time>2023-11-26T12:37:12Z</time>
      </trkpt>
      <trkpt lat="43.61817" lon="6.60884">
        <ele>609.7</ele>
        <time>2023-11-26T12:37:13Z</time>
      </trkpt>
      <trkpt lat="43.61818" lon="6.60884">
        <ele>609.7</ele>
        <time>2023-11-26T12:37:14Z</time>
      </trkpt>
      <trkpt lat="43.61818" lon="6.60885">
        <ele>609.7</ele>
        <time>2023-11-26T12:37:15Z</time>
      </trkpt>
      <trkpt lat="43.61818" lon="6.60886">
        <ele>609.7</ele>
        <time>2023-11-26T12:37:16Z</time>
      </trkpt>
      <trkpt lat="43.61819" lon="6.60887">
        <ele>609.7</ele>
        <time>2023-11-26T12:37:17Z</time>
      </trkpt>
      <trkpt lat="43.61819" lon="6.60888">
        <ele>609.7</ele>
        <time>2023-11-26T12:37:18Z</time>
      </trkpt>
      <trkpt lat="43.6182" lon="6.60889">
        <ele>609.8</ele>
        <time>2023-11-26T12:37:19Z</time>
      </trkpt>
      <trkpt lat="43.6182" lon="6.60891">
        <ele>609.8</ele>
        <time>2023-11-26T12:37:20Z</time>
      </trkpt>
      <trkpt lat="43.61821" lon="6.60892">
        <ele>609.9</ele>
        <time>2023-11-26T12:37:21Z</time>
      </trkpt>
      <trkpt lat="43.61821" lon="6.60893">
        <ele>609.9</ele>
        <time>2023-11-26T12:37:22Z</time>
      </trkpt>
      <trkpt lat="43.61821" lon="6.60895">
        <ele>609.9</ele>
        <time>2023-11-26T12:37:23Z</time>
      </trkpt>
      <trkpt lat="43.61822" lon="6.60896">
        <ele>609.9</ele>
        <time>2023-11-26T12:37:24Z</time>
      </trkpt>
      <trkpt lat="43.61822" lon="6.60897">
        <ele>609.8</ele>
        <time>2023-11-26T12:37:25Z</time>
      </trkpt>
      <trkpt lat="43.61823" lon="6.60899">
        <ele>609.8</ele>
        <time>2023-11-26T12:37:26Z</time>
      </trkpt>
      <trkpt lat="43.61823" lon="6.609">
        <ele>609.8</ele>
        <time>2023-11-26T12:37:27Z</time>
      </trkpt>
      <trkpt lat="43.61823" lon="6.60902">
        <ele>609.8</ele>
        <time>2023-11-26T12:37:28Z</time>
      </trkpt>
      <trkpt lat="43.61823" lon="6.60904">
        <ele>609.9</ele>
        <time>2023-11-26T12:37:29Z</time>
      </trkpt>
      <trkpt lat="43.61823" lon="6.60906">
        <ele>609.9</ele>
        <time>2023-11-26T12:37:30Z</time>
      </trkpt>
      <trkpt lat="43.61823" lon="6.60908">
        <ele>609.9</ele>
        <time>2023-11-26T12:37:31Z</time>
      </trkpt>
      <trkpt lat="43.61823" lon="6.60909">
        <ele>610</ele>
        <time>2023-11-26T12:37:32Z</time>
      </trkpt>
      <trkpt lat="43.61823" lon="6.6091">
        <ele>610</ele>
        <time>2023-11-26T12:37:33Z</time>
      </trkpt>
      <trkpt lat="43.61823" lon="6.60912">
        <ele>609.9</ele>
        <time>2023-11-26T12:37:34Z</time>
      </trkpt>
      <trkpt lat="43.61822" lon="6.60914">
        <ele>610</ele>
        <time>2023-11-26T12:37:35Z</time>
      </trkpt>
      <trkpt lat="43.61822" lon="6.60915">
        <ele>610</ele>
        <time>2023-11-26T12:37:36Z</time>
      </trkpt>
      <trkpt lat="43.61822" lon="6.60917">
        <ele>610</ele>
        <time>2023-11-26T12:37:37Z</time>
      </trkpt>
      <trkpt lat="43.61822" lon="6.60918">
        <ele>610</ele>
        <time>2023-11-26T12:37:38Z</time>
      </trkpt>
      <trkpt lat="43.61822" lon="6.6092">
        <ele>609.9</ele>
        <time>2023-11-26T12:37:39Z</time>
      </trkpt>
      <trkpt lat="43.61823" lon="6.60922">
        <ele>609.9</ele>
        <time>2023-11-26T12:37:40Z</time>
      </trkpt>
      <trkpt lat="43.61823" lon="6.60923">
        <ele>609.8</ele>
        <time>2023-11-26T12:37:41Z</time>
      </trkpt>
      <trkpt lat="43.61823" lon="6.60925">
        <ele>609.8</ele>
        <time>2023-11-26T12:37:42Z</time>
      </trkpt>
      <trkpt lat="43.61823" lon="6.60927">
        <ele>609.7</ele>
        <time>2023-11-26T12:37:43Z</time>
      </trkpt>
      <trkpt lat="43.61824" lon="6.60928">
        <ele>609.7</ele>
        <time>2023-11-26T12:37:44Z</time>
      </trkpt>
      <trkpt lat="43.61824" lon="6.60931">
        <ele>609.6</ele>
        <time>2023-11-26T12:37:45Z</time>
      </trkpt>
      <trkpt lat="43.61824" lon="6.60932">
        <ele>609.6</ele>
        <time>2023-11-26T12:37:46Z</time>
      </trkpt>
      <trkpt lat="43.61823" lon="6.60935">
        <ele>609.6</ele>
        <time>2023-11-26T12:37:47Z</time>
      </trkpt>
      <trkpt lat="43.61823" lon="6.60937">
        <ele>609.5</ele>
        <time>2023-11-26T12:37:48Z</time>
      </trkpt>
      <trkpt lat="43.61823" lon="6.6094">
        <ele>609.4</ele>
        <time>2023-11-26T12:37:49Z</time>
      </trkpt>
      <trkpt lat="43.61823" lon="6.60942">
        <ele>609.4</ele>
        <time>2023-11-26T12:37:50Z</time>
      </trkpt>
      <trkpt lat="43.61824" lon="6.60944">
        <ele>609.4</ele>
        <time>2023-11-26T12:37:51Z</time>
      </trkpt>
      <trkpt lat="43.61824" lon="6.60946">
        <ele>609.5</ele>
        <time>2023-11-26T12:37:52Z</time>
      </trkpt>
      <trkpt lat="43.61824" lon="6.60948">
        <ele>609.4</ele>
        <time>2023-11-26T12:37:53Z</time>
      </trkpt>
      <trkpt lat="43.61824" lon="6.6095">
        <ele>609.4</ele>
        <time>2023-11-26T12:37:54Z</time>
      </trkpt>
      <trkpt lat="43.61825" lon="6.60951">
        <ele>609.4</ele>
        <time>2023-11-26T12:37:55Z</time>
      </trkpt>
      <trkpt lat="43.61825" lon="6.60953">
        <ele>609.4</ele>
        <time>2023-11-26T12:37:56Z</time>
      </trkpt>
      <trkpt lat="43.61825" lon="6.60955">
        <ele>609.4</ele>
        <time>2023-11-26T12:37:57Z</time>
      </trkpt>
      <trkpt lat="43.61824" lon="6.60958">
        <ele>609.3</ele>
        <time>2023-11-26T12:37:58Z</time>
      </trkpt>
      <trkpt lat="43.61824" lon="6.60959">
        <ele>609.4</ele>
        <time>2023-11-26T12:37:59Z</time>
      </trkpt>
      <trkpt lat="43.61823" lon="6.60962">
        <ele>609.4</ele>
        <time>2023-11-26T12:38:00Z</time>
      </trkpt>
      <trkpt lat="43.61824" lon="6.60964">
        <ele>609.4</ele>
        <time>2023-11-26T12:38:01Z</time>
      </trkpt>
      <trkpt lat="43.61824" lon="6.60965">
        <ele>609.3</ele>
        <time>2023-11-26T12:38:02Z</time>
      </trkpt>
      <trkpt lat="43.61824" lon="6.60967">
        <ele>609.3</ele>
        <time>2023-11-26T12:38:03Z</time>
      </trkpt>
      <trkpt lat="43.61824" lon="6.60969">
        <ele>609.2</ele>
        <time>2023-11-26T12:38:04Z</time>
      </trkpt>
      <trkpt lat="43.61824" lon="6.60971">
        <ele>609.2</ele>
        <time>2023-11-26T12:38:05Z</time>
      </trkpt>
      <trkpt lat="43.61824" lon="6.60972">
        <ele>609.2</ele>
        <time>2023-11-26T12:38:06Z</time>
      </trkpt>
      <trkpt lat="43.61825" lon="6.60974">
        <ele>609.2</ele>
        <time>2023-11-26T12:38:07Z</time>
      </trkpt>
      <trkpt lat="43.61825" lon="6.60975">
        <ele>609.2</ele>
        <time>2023-11-26T12:38:08Z</time>
      </trkpt>
      <trkpt lat="43.61825" lon="6.60977">
        <ele>609.2</ele>
        <time>2023-11-26T12:38:09Z</time>
      </trkpt>
      <trkpt lat="43.61825" lon="6.60979">
        <ele>609.2</ele>
        <time>2023-11-26T12:38:10Z</time>
      </trkpt>
      <trkpt lat="43.61825" lon="6.60981">
        <ele>609</ele>
        <time>2023-11-26T12:38:11Z</time>
      </trkpt>
      <trkpt lat="43.61825" lon="6.60982">
        <ele>608.9</ele>
        <time>2023-11-26T12:38:12Z</time>
      </trkpt>
      <trkpt lat="43.61825" lon="6.60984">
        <ele>608.9</ele>
        <time>2023-11-26T12:38:13Z</time>
      </trkpt>
      <trkpt lat="43.61825" lon="6.60986">
        <ele>608.9</ele>
        <time>2023-11-26T12:38:14Z</time>
      </trkpt>
      <trkpt lat="43.61825" lon="6.60987">
        <ele>608.8</ele>
        <time>2023-11-26T12:38:15Z</time>
      </trkpt>
      <trkpt lat="43.61825" lon="6.60989">
        <ele>608.7</ele>
        <time>2023-11-26T12:38:16Z</time>
      </trkpt>
      <trkpt lat="43.61825" lon="6.6099">
        <ele>608.7</ele>
        <time>2023-11-26T12:38:17Z</time>
      </trkpt>
      <trkpt lat="43.61825" lon="6.60992">
        <ele>608.7</ele>
        <time>2023-11-26T12:38:18Z</time>
      </trkpt>
      <trkpt lat="43.61825" lon="6.60994">
        <ele>608.8</ele>
        <time>2023-11-26T12:38:19Z</time>
      </trkpt>
      <trkpt lat="43.61825" lon="6.60996">
        <ele>608.8</ele>
        <time>2023-11-26T12:38:20Z</time>
      </trkpt>
      <trkpt lat="43.61825" lon="6.60998">
        <ele>608.8</ele>
        <time>2023-11-26T12:38:21Z</time>
      </trkpt>
      <trkpt lat="43.61825" lon="6.60999">
        <ele>608.7</ele>
        <time>2023-11-26T12:38:22Z</time>
      </trkpt>
      <trkpt lat="43.61825" lon="6.61001">
        <ele>608.7</ele>
        <time>2023-11-26T12:38:23Z</time>
      </trkpt>
      <trkpt lat="43.61825" lon="6.61003">
        <ele>608.6</ele>
        <time>2023-11-26T12:38:24Z</time>
      </trkpt>
      <trkpt lat="43.61825" lon="6.61005">
        <ele>608.6</ele>
        <time>2023-11-26T12:38:25Z</time>
      </trkpt>
      <trkpt lat="43.61825" lon="6.61007">
        <ele>608.6</ele>
        <time>2023-11-26T12:38:26Z</time>
      </trkpt>
      <trkpt lat="43.61825" lon="6.61009">
        <ele>608.4</ele>
        <time>2023-11-26T12:38:27Z</time>
      </trkpt>
      <trkpt lat="43.61825" lon="6.6101">
        <ele>608.3</ele>
        <time>2023-11-26T12:38:28Z</time>
      </trkpt>
      <trkpt lat="43.61826" lon="6.61012">
        <ele>608.1</ele>
        <time>2023-11-26T12:38:29Z</time>
      </trkpt>
      <trkpt lat="43.61826" lon="6.61013">
        <ele>608</ele>
        <time>2023-11-26T12:38:30Z</time>
      </trkpt>
      <trkpt lat="43.61826" lon="6.61015">
        <ele>608</ele>
        <time>2023-11-26T12:38:31Z</time>
      </trkpt>
      <trkpt lat="43.61825" lon="6.61017">
        <ele>607.9</ele>
        <time>2023-11-26T12:38:32Z</time>
      </trkpt>
      <trkpt lat="43.61825" lon="6.61019">
        <ele>607.9</ele>
        <time>2023-11-26T12:38:33Z</time>
      </trkpt>
      <trkpt lat="43.61825" lon="6.6102">
        <ele>607.8</ele>
        <time>2023-11-26T12:38:34Z</time>
      </trkpt>
      <trkpt lat="43.61825" lon="6.61023">
        <ele>607.8</ele>
        <time>2023-11-26T12:38:35Z</time>
      </trkpt>
      <trkpt lat="43.61825" lon="6.61025">
        <ele>607.8</ele>
        <time>2023-11-26T12:38:36Z</time>
      </trkpt>
      <trkpt lat="43.61825" lon="6.61027">
        <ele>607.9</ele>
        <time>2023-11-26T12:38:37Z</time>
      </trkpt>
      <trkpt lat="43.61826" lon="6.61029">
        <ele>607.9</ele>
        <time>2023-11-26T12:38:38Z</time>
      </trkpt>
      <trkpt lat="43.61826" lon="6.6103">
        <ele>607.8</ele>
        <time>2023-11-26T12:38:39Z</time>
      </trkpt>
      <trkpt lat="43.61826" lon="6.61032">
        <ele>607.8</ele>
        <time>2023-11-26T12:38:40Z</time>
      </trkpt>
      <trkpt lat="43.61826" lon="6.61034">
        <ele>607.8</ele>
        <time>2023-11-26T12:38:41Z</time>
      </trkpt>
      <trkpt lat="43.61827" lon="6.61035">
        <ele>607.9</ele>
        <time>2023-11-26T12:38:42Z</time>
      </trkpt>
      <trkpt lat="43.61827" lon="6.61037">
        <ele>607.8</ele>
        <time>2023-11-26T12:38:43Z</time>
      </trkpt>
      <trkpt lat="43.61827" lon="6.61039">
        <ele>607.7</ele>
        <time>2023-11-26T12:38:44Z</time>
      </trkpt>
      <trkpt lat="43.61827" lon="6.6104">
        <ele>607.6</ele>
        <time>2023-11-26T12:38:45Z</time>
      </trkpt>
      <trkpt lat="43.61827" lon="6.61042">
        <ele>607.5</ele>
        <time>2023-11-26T12:38:46Z</time>
      </trkpt>
      <trkpt lat="43.61827" lon="6.61044">
        <ele>607.5</ele>
        <time>2023-11-26T12:38:47Z</time>
      </trkpt>
      <trkpt lat="43.61827" lon="6.61046">
        <ele>607.5</ele>
        <time>2023-11-26T12:38:48Z</time>
      </trkpt>
      <trkpt lat="43.61827" lon="6.61048">
        <ele>607.4</ele>
        <time>2023-11-26T12:38:49Z</time>
      </trkpt>
      <trkpt lat="43.61827" lon="6.6105">
        <ele>607.4</ele>
        <time>2023-11-26T12:38:50Z</time>
      </trkpt>
      <trkpt lat="43.61827" lon="6.61052">
        <ele>607.3</ele>
        <time>2023-11-26T12:38:51Z</time>
      </trkpt>
      <trkpt lat="43.61828" lon="6.61053">
        <ele>607.3</ele>
        <time>2023-11-26T12:38:52Z</time>
      </trkpt>
      <trkpt lat="43.61828" lon="6.61055">
        <ele>607.3</ele>
        <time>2023-11-26T12:38:53Z</time>
      </trkpt>
      <trkpt lat="43.61829" lon="6.61057">
        <ele>607.2</ele>
        <time>2023-11-26T12:38:54Z</time>
      </trkpt>
      <trkpt lat="43.61829" lon="6.61059">
        <ele>607</ele>
        <time>2023-11-26T12:38:55Z</time>
      </trkpt>
      <trkpt lat="43.6183" lon="6.61061">
        <ele>607</ele>
        <time>2023-11-26T12:38:56Z</time>
      </trkpt>
      <trkpt lat="43.6183" lon="6.61063">
        <ele>606.9</ele>
        <time>2023-11-26T12:38:57Z</time>
      </trkpt>
      <trkpt lat="43.61831" lon="6.61065">
        <ele>606.8</ele>
        <time>2023-11-26T12:38:58Z</time>
      </trkpt>
      <trkpt lat="43.61831" lon="6.61067">
        <ele>606.8</ele>
        <time>2023-11-26T12:38:59Z</time>
      </trkpt>
      <trkpt lat="43.61831" lon="6.61069">
        <ele>606.8</ele>
        <time>2023-11-26T12:39:00Z</time>
      </trkpt>
      <trkpt lat="43.61832" lon="6.6107">
        <ele>606.8</ele>
        <time>2023-11-26T12:39:01Z</time>
      </trkpt>
      <trkpt lat="43.61832" lon="6.61072">
        <ele>606.6</ele>
        <time>2023-11-26T12:39:02Z</time>
      </trkpt>
      <trkpt lat="43.61832" lon="6.61073">
        <ele>606.5</ele>
        <time>2023-11-26T12:39:03Z</time>
      </trkpt>
      <trkpt lat="43.61832" lon="6.61075">
        <ele>606.4</ele>
        <time>2023-11-26T12:39:04Z</time>
      </trkpt>
      <trkpt lat="43.61832" lon="6.61077">
        <ele>606.4</ele>
        <time>2023-11-26T12:39:05Z</time>
      </trkpt>
      <trkpt lat="43.61832" lon="6.61079">
        <ele>606.4</ele>
        <time>2023-11-26T12:39:06Z</time>
      </trkpt>
      <trkpt lat="43.61832" lon="6.61081">
        <ele>606.3</ele>
        <time>2023-11-26T12:39:07Z</time>
      </trkpt>
      <trkpt lat="43.61832" lon="6.61083">
        <ele>606.2</ele>
        <time>2023-11-26T12:39:08Z</time>
      </trkpt>
      <trkpt lat="43.61832" lon="6.61085">
        <ele>606.1</ele>
        <time>2023-11-26T12:39:09Z</time>
      </trkpt>
      <trkpt lat="43.61832" lon="6.61086">
        <ele>606</ele>
        <time>2023-11-26T12:39:10Z</time>
      </trkpt>
      <trkpt lat="43.61832" lon="6.61088">
        <ele>606</ele>
        <time>2023-11-26T12:39:11Z</time>
      </trkpt>
      <trkpt lat="43.61832" lon="6.6109">
        <ele>605.9</ele>
        <time>2023-11-26T12:39:12Z</time>
      </trkpt>
      <trkpt lat="43.61833" lon="6.61092">
        <ele>605.7</ele>
        <time>2023-11-26T12:39:13Z</time>
      </trkpt>
      <trkpt lat="43.61833" lon="6.61094">
        <ele>605.5</ele>
        <time>2023-11-26T12:39:14Z</time>
      </trkpt>
      <trkpt lat="43.61832" lon="6.61096">
        <ele>605.4</ele>
        <time>2023-11-26T12:39:15Z</time>
      </trkpt>
      <trkpt lat="43.61832" lon="6.61098">
        <ele>605.3</ele>
        <time>2023-11-26T12:39:16Z</time>
      </trkpt>
      <trkpt lat="43.61833" lon="6.611">
        <ele>605.2</ele>
        <time>2023-11-26T12:39:17Z</time>
      </trkpt>
      <trkpt lat="43.61833" lon="6.61101">
        <ele>605.1</ele>
        <time>2023-11-26T12:39:18Z</time>
      </trkpt>
      <trkpt lat="43.61833" lon="6.61103">
        <ele>604.9</ele>
        <time>2023-11-26T12:39:19Z</time>
      </trkpt>
      <trkpt lat="43.61834" lon="6.61105">
        <ele>604.8</ele>
        <time>2023-11-26T12:39:20Z</time>
      </trkpt>
      <trkpt lat="43.61834" lon="6.61107">
        <ele>604.6</ele>
        <time>2023-11-26T12:39:21Z</time>
      </trkpt>
      <trkpt lat="43.61834" lon="6.61109">
        <ele>604.5</ele>
        <time>2023-11-26T12:39:22Z</time>
      </trkpt>
      <trkpt lat="43.61834" lon="6.6111">
        <ele>604.5</ele>
        <time>2023-11-26T12:39:23Z</time>
      </trkpt>
      <trkpt lat="43.61835" lon="6.61112">
        <ele>604.4</ele>
        <time>2023-11-26T12:39:24Z</time>
      </trkpt>
      <trkpt lat="43.61835" lon="6.61113">
        <ele>604.3</ele>
        <time>2023-11-26T12:39:25Z</time>
      </trkpt>
      <trkpt lat="43.61835" lon="6.61115">
        <ele>604.2</ele>
        <time>2023-11-26T12:39:26Z</time>
      </trkpt>
      <trkpt lat="43.61835" lon="6.61117">
        <ele>604.2</ele>
        <time>2023-11-26T12:39:27Z</time>
      </trkpt>
      <trkpt lat="43.61836" lon="6.61119">
        <ele>604.1</ele>
        <time>2023-11-26T12:39:28Z</time>
      </trkpt>
      <trkpt lat="43.61836" lon="6.6112">
        <ele>604</ele>
        <time>2023-11-26T12:39:29Z</time>
      </trkpt>
      <trkpt lat="43.61837" lon="6.61122">
        <ele>603.9</ele>
        <time>2023-11-26T12:39:30Z</time>
      </trkpt>
      <trkpt lat="43.61837" lon="6.61124">
        <ele>603.9</ele>
        <time>2023-11-26T12:39:31Z</time>
      </trkpt>
      <trkpt lat="43.61837" lon="6.61126">
        <ele>603.8</ele>
        <time>2023-11-26T12:39:32Z</time>
      </trkpt>
      <trkpt lat="43.61837" lon="6.61128">
        <ele>603.8</ele>
        <time>2023-11-26T12:39:33Z</time>
      </trkpt>
      <trkpt lat="43.61837" lon="6.6113">
        <ele>603.7</ele>
        <time>2023-11-26T12:39:34Z</time>
      </trkpt>
      <trkpt lat="43.61838" lon="6.61132">
        <ele>603.6</ele>
        <time>2023-11-26T12:39:35Z</time>
      </trkpt>
      <trkpt lat="43.61838" lon="6.61134">
        <ele>603.4</ele>
        <time>2023-11-26T12:39:36Z</time>
      </trkpt>
      <trkpt lat="43.61838" lon="6.61136">
        <ele>603.2</ele>
        <time>2023-11-26T12:39:37Z</time>
      </trkpt>
      <trkpt lat="43.61838" lon="6.61138">
        <ele>603</ele>
        <time>2023-11-26T12:39:38Z</time>
      </trkpt>
      <trkpt lat="43.61839" lon="6.6114">
        <ele>602.9</ele>
        <time>2023-11-26T12:39:39Z</time>
      </trkpt>
      <trkpt lat="43.61839" lon="6.61141">
        <ele>602.7</ele>
        <time>2023-11-26T12:39:40Z</time>
      </trkpt>
      <trkpt lat="43.6184" lon="6.61143">
        <ele>602.6</ele>
        <time>2023-11-26T12:39:41Z</time>
      </trkpt>
      <trkpt lat="43.6184" lon="6.61145">
        <ele>602.5</ele>
        <time>2023-11-26T12:39:42Z</time>
      </trkpt>
      <trkpt lat="43.6184" lon="6.61147">
        <ele>602.4</ele>
        <time>2023-11-26T12:39:43Z</time>
      </trkpt>
      <trkpt lat="43.6184" lon="6.61149">
        <ele>602.3</ele>
        <time>2023-11-26T12:39:44Z</time>
      </trkpt>
      <trkpt lat="43.6184" lon="6.61151">
        <ele>602.2</ele>
        <time>2023-11-26T12:39:45Z</time>
      </trkpt>
      <trkpt lat="43.6184" lon="6.61152">
        <ele>602.1</ele>
        <time>2023-11-26T12:39:46Z</time>
      </trkpt>
      <trkpt lat="43.6184" lon="6.61154">
        <ele>602</ele>
        <time>2023-11-26T12:39:47Z</time>
      </trkpt>
      <trkpt lat="43.6184" lon="6.61156">
        <ele>601.8</ele>
        <time>2023-11-26T12:39:48Z</time>
      </trkpt>
      <trkpt lat="43.6184" lon="6.61158">
        <ele>601.6</ele>
        <time>2023-11-26T12:39:49Z</time>
      </trkpt>
      <trkpt lat="43.6184" lon="6.6116">
        <ele>601.5</ele>
        <time>2023-11-26T12:39:50Z</time>
      </trkpt>
      <trkpt lat="43.6184" lon="6.61162">
        <ele>601.4</ele>
        <time>2023-11-26T12:39:51Z</time>
      </trkpt>
      <trkpt lat="43.61839" lon="6.61164">
        <ele>601.3</ele>
        <time>2023-11-26T12:39:52Z</time>
      </trkpt>
      <trkpt lat="43.61839" lon="6.61165">
        <ele>601.3</ele>
        <time>2023-11-26T12:39:53Z</time>
      </trkpt>
      <trkpt lat="43.61839" lon="6.61167">
        <ele>601.2</ele>
        <time>2023-11-26T12:39:54Z</time>
      </trkpt>
      <trkpt lat="43.61839" lon="6.61169">
        <ele>601.1</ele>
        <time>2023-11-26T12:39:55Z</time>
      </trkpt>
      <trkpt lat="43.61839" lon="6.61171">
        <ele>600.8</ele>
        <time>2023-11-26T12:39:56Z</time>
      </trkpt>
      <trkpt lat="43.61838" lon="6.61173">
        <ele>600.7</ele>
        <time>2023-11-26T12:39:57Z</time>
      </trkpt>
      <trkpt lat="43.61838" lon="6.61175">
        <ele>600.6</ele>
        <time>2023-11-26T12:39:58Z</time>
      </trkpt>
      <trkpt lat="43.61837" lon="6.61177">
        <ele>600.4</ele>
        <time>2023-11-26T12:39:59Z</time>
      </trkpt>
      <trkpt lat="43.61837" lon="6.61179">
        <ele>600.2</ele>
        <time>2023-11-26T12:40:00Z</time>
      </trkpt>
      <trkpt lat="43.61837" lon="6.6118">
        <ele>600</ele>
        <time>2023-11-26T12:40:01Z</time>
      </trkpt>
      <trkpt lat="43.61836" lon="6.61182">
        <ele>599.9</ele>
        <time>2023-11-26T12:40:02Z</time>
      </trkpt>
      <trkpt lat="43.61836" lon="6.61184">
        <ele>599.6</ele>
        <time>2023-11-26T12:40:03Z</time>
      </trkpt>
      <trkpt lat="43.61837" lon="6.61186">
        <ele>599.5</ele>
        <time>2023-11-26T12:40:04Z</time>
      </trkpt>
      <trkpt lat="43.61837" lon="6.61188">
        <ele>599.5</ele>
        <time>2023-11-26T12:40:05Z</time>
      </trkpt>
      <trkpt lat="43.61837" lon="6.6119">
        <ele>599.3</ele>
        <time>2023-11-26T12:40:06Z</time>
      </trkpt>
      <trkpt lat="43.61838" lon="6.61192">
        <ele>599</ele>
        <time>2023-11-26T12:40:07Z</time>
      </trkpt>
      <trkpt lat="43.61838" lon="6.61193">
        <ele>598.8</ele>
        <time>2023-11-26T12:40:08Z</time>
      </trkpt>
      <trkpt lat="43.61838" lon="6.61195">
        <ele>598.6</ele>
        <time>2023-11-26T12:40:09Z</time>
      </trkpt>
      <trkpt lat="43.61838" lon="6.61196">
        <ele>598.4</ele>
        <time>2023-11-26T12:40:10Z</time>
      </trkpt>
      <trkpt lat="43.61838" lon="6.61198">
        <ele>598.3</ele>
        <time>2023-11-26T12:40:11Z</time>
      </trkpt>
      <trkpt lat="43.61839" lon="6.61199">
        <ele>598.2</ele>
        <time>2023-11-26T12:40:12Z</time>
      </trkpt>
      <trkpt lat="43.61839" lon="6.61201">
        <ele>598.3</ele>
        <time>2023-11-26T12:40:13Z</time>
      </trkpt>
      <trkpt lat="43.6184" lon="6.61203">
        <ele>598.2</ele>
        <time>2023-11-26T12:40:14Z</time>
      </trkpt>
      <trkpt lat="43.61841" lon="6.61204">
        <ele>598.2</ele>
        <time>2023-11-26T12:40:15Z</time>
      </trkpt>
      <trkpt lat="43.61841" lon="6.61206">
        <ele>598.2</ele>
        <time>2023-11-26T12:40:16Z</time>
      </trkpt>
      <trkpt lat="43.61841" lon="6.61208">
        <ele>598.1</ele>
        <time>2023-11-26T12:40:17Z</time>
      </trkpt>
      <trkpt lat="43.61842" lon="6.61209">
        <ele>598</ele>
        <time>2023-11-26T12:40:18Z</time>
      </trkpt>
      <trkpt lat="43.61842" lon="6.61211">
        <ele>597.9</ele>
        <time>2023-11-26T12:40:19Z</time>
      </trkpt>
      <trkpt lat="43.61843" lon="6.61212">
        <ele>597.8</ele>
        <time>2023-11-26T12:40:20Z</time>
      </trkpt>
      <trkpt lat="43.61844" lon="6.61214">
        <ele>597.7</ele>
        <time>2023-11-26T12:40:21Z</time>
      </trkpt>
      <trkpt lat="43.61844" lon="6.61216">
        <ele>597.6</ele>
        <time>2023-11-26T12:40:22Z</time>
      </trkpt>
      <trkpt lat="43.61845" lon="6.61217">
        <ele>597.5</ele>
        <time>2023-11-26T12:40:23Z</time>
      </trkpt>
      <trkpt lat="43.61846" lon="6.61218">
        <ele>597.4</ele>
        <time>2023-11-26T12:40:24Z</time>
      </trkpt>
      <trkpt lat="43.61847" lon="6.61218">
        <ele>597.3</ele>
        <time>2023-11-26T12:40:25Z</time>
      </trkpt>
      <trkpt lat="43.61848" lon="6.61218">
        <ele>597.3</ele>
        <time>2023-11-26T12:40:26Z</time>
      </trkpt>
      <trkpt lat="43.61848" lon="6.61218">
        <ele>597.3</ele>
        <time>2023-11-26T12:40:27Z</time>
      </trkpt>
      <trkpt lat="43.61849" lon="6.61218">
        <ele>597.4</ele>
        <time>2023-11-26T12:40:28Z</time>
      </trkpt>
      <trkpt lat="43.6185" lon="6.61218">
        <ele>597.4</ele>
        <time>2023-11-26T12:40:29Z</time>
      </trkpt>
      <trkpt lat="43.61851" lon="6.61217">
        <ele>597.5</ele>
        <time>2023-11-26T12:40:30Z</time>
      </trkpt>
      <trkpt lat="43.61852" lon="6.61217">
        <ele>597.6</ele>
        <time>2023-11-26T12:40:31Z</time>
      </trkpt>
      <trkpt lat="43.61852" lon="6.61217">
        <ele>597.7</ele>
        <time>2023-11-26T12:40:32Z</time>
      </trkpt>
      <trkpt lat="43.61853" lon="6.61216">
        <ele>597.8</ele>
        <time>2023-11-26T12:40:33Z</time>
      </trkpt>
      <trkpt lat="43.61853" lon="6.61216">
        <ele>597.9</ele>
        <time>2023-11-26T12:40:34Z</time>
      </trkpt>
      <trkpt lat="43.61854" lon="6.61216">
        <ele>598.2</ele>
        <time>2023-11-26T12:40:35Z</time>
      </trkpt>
      <trkpt lat="43.61855" lon="6.61216">
        <ele>598.3</ele>
        <time>2023-11-26T12:40:36Z</time>
      </trkpt>
      <trkpt lat="43.61855" lon="6.61216">
        <ele>598.5</ele>
        <time>2023-11-26T12:40:37Z</time>
      </trkpt>
      <trkpt lat="43.61856" lon="6.61216">
        <ele>598.6</ele>
        <time>2023-11-26T12:40:38Z</time>
      </trkpt>
      <trkpt lat="43.61857" lon="6.61217">
        <ele>598.8</ele>
        <time>2023-11-26T12:40:39Z</time>
      </trkpt>
      <trkpt lat="43.61857" lon="6.61217">
        <ele>599</ele>
        <time>2023-11-26T12:40:40Z</time>
      </trkpt>
      <trkpt lat="43.61858" lon="6.61218">
        <ele>599.1</ele>
        <time>2023-11-26T12:40:41Z</time>
      </trkpt>
      <trkpt lat="43.61858" lon="6.61218">
        <ele>599.2</ele>
        <time>2023-11-26T12:40:42Z</time>
      </trkpt>
      <trkpt lat="43.61859" lon="6.61218">
        <ele>599.4</ele>
        <time>2023-11-26T12:40:43Z</time>
      </trkpt>
      <trkpt lat="43.61859" lon="6.61218">
        <ele>599.5</ele>
        <time>2023-11-26T12:40:44Z</time>
      </trkpt>
      <trkpt lat="43.61859" lon="6.61218">
        <ele>599.6</ele>
        <time>2023-11-26T12:40:45Z</time>
      </trkpt>
      <trkpt lat="43.61859" lon="6.61218">
        <ele>599.7</ele>
        <time>2023-11-26T12:40:46Z</time>
      </trkpt>
      <trkpt lat="43.61859" lon="6.61218">
        <ele>599.7</ele>
        <time>2023-11-26T12:40:47Z</time>
      </trkpt>
      <trkpt lat="43.61859" lon="6.61218">
        <ele>599.8</ele>
        <time>2023-11-26T12:40:48Z</time>
      </trkpt>
      <trkpt lat="43.61859" lon="6.61218">
        <ele>599.9</ele>
        <time>2023-11-26T12:40:49Z</time>
      </trkpt>
      <trkpt lat="43.61859" lon="6.61218">
        <ele>599.9</ele>
        <time>2023-11-26T12:40:50Z</time>
      </trkpt>
      <trkpt lat="43.61859" lon="6.61218">
        <ele>599.9</ele>
        <time>2023-11-26T12:40:51Z</time>
      </trkpt>
      <trkpt lat="43.61859" lon="6.61218">
        <ele>599.9</ele>
        <time>2023-11-26T12:40:52Z</time>
      </trkpt>
      <trkpt lat="43.61859" lon="6.61218">
        <ele>599.9</ele>
        <time>2023-11-26T12:40:53Z</time>
      </trkpt>
      <trkpt lat="43.61859" lon="6.61218">
        <ele>599.9</ele>
        <time>2023-11-26T12:40:54Z</time>
      </trkpt>
      <trkpt lat="43.61859" lon="6.61218">
        <ele>599.9</ele>
        <time>2023-11-26T12:40:55Z</time>
      </trkpt>
      <trkpt lat="43.61859" lon="6.61218">
        <ele>599.9</ele>
        <time>2023-11-26T12:40:56Z</time>
      </trkpt>
      <trkpt lat="43.61859" lon="6.61218">
        <ele>600</ele>
        <time>2023-11-26T12:40:57Z</time>
      </trkpt>
      <trkpt lat="43.61859" lon="6.61218">
        <ele>600</ele>
        <time>2023-11-26T12:40:58Z</time>
      </trkpt>
      <trkpt lat="43.61859" lon="6.61218">
        <ele>600</ele>
        <time>2023-11-26T12:40:59Z</time>
      </trkpt>
      <trkpt lat="43.61859" lon="6.61219">
        <ele>600</ele>
        <time>2023-11-26T12:41:00Z</time>
      </trkpt>
      <trkpt lat="43.61859" lon="6.61219">
        <ele>600</ele>
        <time>2023-11-26T12:41:01Z</time>
      </trkpt>
      <trkpt lat="43.61859" lon="6.61219">
        <ele>600.1</ele>
        <time>2023-11-26T12:41:02Z</time>
      </trkpt>
      <trkpt lat="43.61859" lon="6.61219">
        <ele>600.1</ele>
        <time>2023-11-26T12:41:03Z</time>
      </trkpt>
      <trkpt lat="43.6186" lon="6.61219">
        <ele>600.1</ele>
        <time>2023-11-26T12:41:04Z</time>
      </trkpt>
      <trkpt lat="43.6186" lon="6.61219">
        <ele>600</ele>
        <time>2023-11-26T12:41:05Z</time>
      </trkpt>
      <trkpt lat="43.6186" lon="6.61219">
        <ele>600.1</ele>
        <time>2023-11-26T12:41:06Z</time>
      </trkpt>
      <trkpt lat="43.6186" lon="6.61219">
        <ele>600</ele>
        <time>2023-11-26T12:41:07Z</time>
      </trkpt>
      <trkpt lat="43.6186" lon="6.61219">
        <ele>600</ele>
        <time>2023-11-26T12:41:08Z</time>
      </trkpt>
      <trkpt lat="43.6186" lon="6.61219">
        <ele>599.9</ele>
        <time>2023-11-26T12:41:09Z</time>
      </trkpt>
      <trkpt lat="43.6186" lon="6.61219">
        <ele>599.9</ele>
        <time>2023-11-26T12:41:10Z</time>
      </trkpt>
      <trkpt lat="43.6186" lon="6.61218">
        <ele>599.9</ele>
        <time>2023-11-26T12:41:11Z</time>
      </trkpt>
      <trkpt lat="43.6186" lon="6.61217">
        <ele>599.9</ele>
        <time>2023-11-26T12:41:12Z</time>
      </trkpt>
      <trkpt lat="43.61859" lon="6.61217">
        <ele>599.9</ele>
        <time>2023-11-26T12:41:13Z</time>
      </trkpt>
      <trkpt lat="43.61858" lon="6.61217">
        <ele>599.8</ele>
        <time>2023-11-26T12:41:14Z</time>
      </trkpt>
      <trkpt lat="43.61857" lon="6.61217">
        <ele>599.7</ele>
        <time>2023-11-26T12:41:15Z</time>
      </trkpt>
      <trkpt lat="43.61856" lon="6.61217">
        <ele>599.4</ele>
        <time>2023-11-26T12:41:16Z</time>
      </trkpt>
      <trkpt lat="43.61855" lon="6.61217">
        <ele>599.2</ele>
        <time>2023-11-26T12:41:17Z</time>
      </trkpt>
      <trkpt lat="43.61854" lon="6.61217">
        <ele>599.1</ele>
        <time>2023-11-26T12:41:18Z</time>
      </trkpt>
      <trkpt lat="43.61852" lon="6.61218">
        <ele>598.9</ele>
        <time>2023-11-26T12:41:19Z</time>
      </trkpt>
      <trkpt lat="43.61851" lon="6.61218">
        <ele>598.6</ele>
        <time>2023-11-26T12:41:20Z</time>
      </trkpt>
      <trkpt lat="43.6185" lon="6.6122">
        <ele>598.4</ele>
        <time>2023-11-26T12:41:21Z</time>
      </trkpt>
      <trkpt lat="43.61849" lon="6.61221">
        <ele>598.3</ele>
        <time>2023-11-26T12:41:22Z</time>
      </trkpt>
      <trkpt lat="43.61848" lon="6.61223">
        <ele>598.1</ele>
        <time>2023-11-26T12:41:23Z</time>
      </trkpt>
      <trkpt lat="43.61848" lon="6.61225">
        <ele>597.9</ele>
        <time>2023-11-26T12:41:24Z</time>
      </trkpt>
      <trkpt lat="43.61848" lon="6.61227">
        <ele>597.9</ele>
        <time>2023-11-26T12:41:25Z</time>
      </trkpt>
      <trkpt lat="43.61848" lon="6.61229">
        <ele>597.8</ele>
        <time>2023-11-26T12:41:26Z</time>
      </trkpt>
      <trkpt lat="43.61849" lon="6.61231">
        <ele>597.7</ele>
        <time>2023-11-26T12:41:27Z</time>
      </trkpt>
      <trkpt lat="43.61849" lon="6.61233">
        <ele>597.5</ele>
        <time>2023-11-26T12:41:28Z</time>
      </trkpt>
      <trkpt lat="43.61849" lon="6.61235">
        <ele>597.4</ele>
        <time>2023-11-26T12:41:29Z</time>
      </trkpt>
      <trkpt lat="43.6185" lon="6.61237">
        <ele>597.3</ele>
        <time>2023-11-26T12:41:30Z</time>
      </trkpt>
      <trkpt lat="43.6185" lon="6.61238">
        <ele>597.1</ele>
        <time>2023-11-26T12:41:31Z</time>
      </trkpt>
      <trkpt lat="43.61851" lon="6.6124">
        <ele>596.9</ele>
        <time>2023-11-26T12:41:32Z</time>
      </trkpt>
      <trkpt lat="43.61852" lon="6.61241">
        <ele>596.8</ele>
        <time>2023-11-26T12:41:33Z</time>
      </trkpt>
      <trkpt lat="43.61853" lon="6.61243">
        <ele>596.7</ele>
        <time>2023-11-26T12:41:34Z</time>
      </trkpt>
      <trkpt lat="43.61854" lon="6.61244">
        <ele>596.6</ele>
        <time>2023-11-26T12:41:35Z</time>
      </trkpt>
      <trkpt lat="43.61855" lon="6.61246">
        <ele>596.6</ele>
        <time>2023-11-26T12:41:36Z</time>
      </trkpt>
      <trkpt lat="43.61855" lon="6.61248">
        <ele>596.6</ele>
        <time>2023-11-26T12:41:37Z</time>
      </trkpt>
      <trkpt lat="43.61856" lon="6.61249">
        <ele>596.5</ele>
        <time>2023-11-26T12:41:38Z</time>
      </trkpt>
      <trkpt lat="43.61857" lon="6.61251">
        <ele>596.5</ele>
        <time>2023-11-26T12:41:39Z</time>
      </trkpt>
      <trkpt lat="43.61858" lon="6.61252">
        <ele>596.5</ele>
        <time>2023-11-26T12:41:40Z</time>
      </trkpt>
      <trkpt lat="43.61859" lon="6.61254">
        <ele>596.4</ele>
        <time>2023-11-26T12:41:41Z</time>
      </trkpt>
      <trkpt lat="43.6186" lon="6.61255">
        <ele>596.3</ele>
        <time>2023-11-26T12:41:42Z</time>
      </trkpt>
      <trkpt lat="43.61861" lon="6.61257">
        <ele>596.3</ele>
        <time>2023-11-26T12:41:43Z</time>
      </trkpt>
      <trkpt lat="43.61862" lon="6.61259">
        <ele>596.2</ele>
        <time>2023-11-26T12:41:44Z</time>
      </trkpt>
      <trkpt lat="43.61863" lon="6.6126">
        <ele>596</ele>
        <time>2023-11-26T12:41:45Z</time>
      </trkpt>
      <trkpt lat="43.61864" lon="6.61262">
        <ele>596</ele>
        <time>2023-11-26T12:41:46Z</time>
      </trkpt>
      <trkpt lat="43.61865" lon="6.61263">
        <ele>595.9</ele>
        <time>2023-11-26T12:41:47Z</time>
      </trkpt>
      <trkpt lat="43.61866" lon="6.61265">
        <ele>595.8</ele>
        <time>2023-11-26T12:41:48Z</time>
      </trkpt>
      <trkpt lat="43.61868" lon="6.61266">
        <ele>595.7</ele>
        <time>2023-11-26T12:41:49Z</time>
      </trkpt>
      <trkpt lat="43.61869" lon="6.61267">
        <ele>595.6</ele>
        <time>2023-11-26T12:41:50Z</time>
      </trkpt>
      <trkpt lat="43.6187" lon="6.61269">
        <ele>595.6</ele>
        <time>2023-11-26T12:41:51Z</time>
      </trkpt>
      <trkpt lat="43.61871" lon="6.6127">
        <ele>595.5</ele>
        <time>2023-11-26T12:41:52Z</time>
      </trkpt>
      <trkpt lat="43.61872" lon="6.61271">
        <ele>595.4</ele>
        <time>2023-11-26T12:41:53Z</time>
      </trkpt>
      <trkpt lat="43.61874" lon="6.61273">
        <ele>595.3</ele>
        <time>2023-11-26T12:41:54Z</time>
      </trkpt>
      <trkpt lat="43.61874" lon="6.61275">
        <ele>595.3</ele>
        <time>2023-11-26T12:41:55Z</time>
      </trkpt>
      <trkpt lat="43.61876" lon="6.61276">
        <ele>595.2</ele>
        <time>2023-11-26T12:41:56Z</time>
      </trkpt>
      <trkpt lat="43.61876" lon="6.61278">
        <ele>595.1</ele>
        <time>2023-11-26T12:41:57Z</time>
      </trkpt>
      <trkpt lat="43.61878" lon="6.6128">
        <ele>595.1</ele>
        <time>2023-11-26T12:41:58Z</time>
      </trkpt>
      <trkpt lat="43.6188" lon="6.61281">
        <ele>595</ele>
        <time>2023-11-26T12:41:59Z</time>
      </trkpt>
      <trkpt lat="43.61881" lon="6.61284">
        <ele>594.9</ele>
        <time>2023-11-26T12:42:00Z</time>
      </trkpt>
      <trkpt lat="43.61883" lon="6.61286">
        <ele>594.9</ele>
        <time>2023-11-26T12:42:01Z</time>
      </trkpt>
      <trkpt lat="43.61885" lon="6.61288">
        <ele>594.8</ele>
        <time>2023-11-26T12:42:02Z</time>
      </trkpt>
      <trkpt lat="43.61887" lon="6.6129">
        <ele>594.8</ele>
        <time>2023-11-26T12:42:03Z</time>
      </trkpt>
      <trkpt lat="43.61888" lon="6.61293">
        <ele>595</ele>
        <time>2023-11-26T12:42:04Z</time>
      </trkpt>
      <trkpt lat="43.6189" lon="6.61295">
        <ele>594.9</ele>
        <time>2023-11-26T12:42:05Z</time>
      </trkpt>
      <trkpt lat="43.61893" lon="6.61296">
        <ele>594.8</ele>
        <time>2023-11-26T12:42:06Z</time>
      </trkpt>
      <trkpt lat="43.61894" lon="6.61298">
        <ele>594.6</ele>
        <time>2023-11-26T12:42:07Z</time>
      </trkpt>
      <trkpt lat="43.61896" lon="6.613">
        <ele>594.5</ele>
        <time>2023-11-26T12:42:08Z</time>
      </trkpt>
      <trkpt lat="43.61898" lon="6.61302">
        <ele>594.5</ele>
        <time>2023-11-26T12:42:09Z</time>
      </trkpt>
      <trkpt lat="43.619" lon="6.61305">
        <ele>594.4</ele>
        <time>2023-11-26T12:42:10Z</time>
      </trkpt>
      <trkpt lat="43.61901" lon="6.61307">
        <ele>594.3</ele>
        <time>2023-11-26T12:42:11Z</time>
      </trkpt>
      <trkpt lat="43.61902" lon="6.6131">
        <ele>594.3</ele>
        <time>2023-11-26T12:42:12Z</time>
      </trkpt>
      <trkpt lat="43.61904" lon="6.61312">
        <ele>594.2</ele>
        <time>2023-11-26T12:42:13Z</time>
      </trkpt>
      <trkpt lat="43.61905" lon="6.61314">
        <ele>594.1</ele>
        <time>2023-11-26T12:42:14Z</time>
      </trkpt>
      <trkpt lat="43.61907" lon="6.61316">
        <ele>594</ele>
        <time>2023-11-26T12:42:15Z</time>
      </trkpt>
      <trkpt lat="43.6191" lon="6.61317">
        <ele>594</ele>
        <time>2023-11-26T12:42:16Z</time>
      </trkpt>
      <trkpt lat="43.61911" lon="6.6132">
        <ele>593.9</ele>
        <time>2023-11-26T12:42:17Z</time>
      </trkpt>
      <trkpt lat="43.61913" lon="6.61321">
        <ele>594</ele>
        <time>2023-11-26T12:42:18Z</time>
      </trkpt>
      <trkpt lat="43.61915" lon="6.61323">
        <ele>594.5</ele>
        <time>2023-11-26T12:42:19Z</time>
      </trkpt>
      <trkpt lat="43.61916" lon="6.61324">
        <ele>594.5</ele>
        <time>2023-11-26T12:42:20Z</time>
      </trkpt>
      <trkpt lat="43.61917" lon="6.61326">
        <ele>594.3</ele>
        <time>2023-11-26T12:42:21Z</time>
      </trkpt>
      <trkpt lat="43.61918" lon="6.61327">
        <ele>594.2</ele>
        <time>2023-11-26T12:42:22Z</time>
      </trkpt>
      <trkpt lat="43.6192" lon="6.61329">
        <ele>594.1</ele>
        <time>2023-11-26T12:42:23Z</time>
      </trkpt>
      <trkpt lat="43.61921" lon="6.61331">
        <ele>594</ele>
        <time>2023-11-26T12:42:24Z</time>
      </trkpt>
      <trkpt lat="43.6192" lon="6.61333">
        <ele>594</ele>
        <time>2023-11-26T12:42:25Z</time>
      </trkpt>
      <trkpt lat="43.61921" lon="6.61335">
        <ele>594.1</ele>
        <time>2023-11-26T12:42:26Z</time>
      </trkpt>
      <trkpt lat="43.61922" lon="6.61337">
        <ele>594.1</ele>
        <time>2023-11-26T12:42:27Z</time>
      </trkpt>
      <trkpt lat="43.61923" lon="6.61339">
        <ele>594.2</ele>
        <time>2023-11-26T12:42:28Z</time>
      </trkpt>
      <trkpt lat="43.61923" lon="6.61341">
        <ele>594.3</ele>
        <time>2023-11-26T12:42:29Z</time>
      </trkpt>
      <trkpt lat="43.61923" lon="6.61344">
        <ele>594.3</ele>
        <time>2023-11-26T12:42:30Z</time>
      </trkpt>
      <trkpt lat="43.61924" lon="6.61345">
        <ele>594.4</ele>
        <time>2023-11-26T12:42:31Z</time>
      </trkpt>
      <trkpt lat="43.61924" lon="6.61348">
        <ele>594.4</ele>
        <time>2023-11-26T12:42:32Z</time>
      </trkpt>
      <trkpt lat="43.61924" lon="6.6135">
        <ele>594.4</ele>
        <time>2023-11-26T12:42:33Z</time>
      </trkpt>
      <trkpt lat="43.61925" lon="6.61351">
        <ele>594.6</ele>
        <time>2023-11-26T12:42:34Z</time>
      </trkpt>
      <trkpt lat="43.61925" lon="6.61353">
        <ele>594.7</ele>
        <time>2023-11-26T12:42:35Z</time>
      </trkpt>
      <trkpt lat="43.61926" lon="6.61354">
        <ele>594.8</ele>
        <time>2023-11-26T12:42:36Z</time>
      </trkpt>
      <trkpt lat="43.61926" lon="6.61356">
        <ele>594.9</ele>
        <time>2023-11-26T12:42:37Z</time>
      </trkpt>
      <trkpt lat="43.61928" lon="6.61358">
        <ele>595.1</ele>
        <time>2023-11-26T12:42:38Z</time>
      </trkpt>
      <trkpt lat="43.61928" lon="6.61359">
        <ele>595.1</ele>
        <time>2023-11-26T12:42:39Z</time>
      </trkpt>
      <trkpt lat="43.61928" lon="6.61361">
        <ele>595.3</ele>
        <time>2023-11-26T12:42:40Z</time>
      </trkpt>
      <trkpt lat="43.61929" lon="6.61363">
        <ele>595.4</ele>
        <time>2023-11-26T12:42:41Z</time>
      </trkpt>
      <trkpt lat="43.6193" lon="6.61365">
        <ele>595.5</ele>
        <time>2023-11-26T12:42:42Z</time>
      </trkpt>
      <trkpt lat="43.6193" lon="6.61367">
        <ele>595.7</ele>
        <time>2023-11-26T12:42:43Z</time>
      </trkpt>
      <trkpt lat="43.61931" lon="6.61368">
        <ele>595.8</ele>
        <time>2023-11-26T12:42:44Z</time>
      </trkpt>
      <trkpt lat="43.61932" lon="6.6137">
        <ele>595.9</ele>
        <time>2023-11-26T12:42:45Z</time>
      </trkpt>
      <trkpt lat="43.61933" lon="6.61371">
        <ele>596.1</ele>
        <time>2023-11-26T12:42:46Z</time>
      </trkpt>
      <trkpt lat="43.61934" lon="6.61373">
        <ele>596.3</ele>
        <time>2023-11-26T12:42:47Z</time>
      </trkpt>
      <trkpt lat="43.61934" lon="6.61375">
        <ele>596.5</ele>
        <time>2023-11-26T12:42:48Z</time>
      </trkpt>
      <trkpt lat="43.61935" lon="6.61377">
        <ele>596.9</ele>
        <time>2023-11-26T12:42:49Z</time>
      </trkpt>
      <trkpt lat="43.61936" lon="6.61378">
        <ele>597.2</ele>
        <time>2023-11-26T12:42:50Z</time>
      </trkpt>
      <trkpt lat="43.61937" lon="6.6138">
        <ele>597.4</ele>
        <time>2023-11-26T12:42:51Z</time>
      </trkpt>
      <trkpt lat="43.61938" lon="6.61382">
        <ele>597.6</ele>
        <time>2023-11-26T12:42:52Z</time>
      </trkpt>
      <trkpt lat="43.61939" lon="6.61383">
        <ele>597.7</ele>
        <time>2023-11-26T12:42:53Z</time>
      </trkpt>
      <trkpt lat="43.6194" lon="6.61384">
        <ele>597.9</ele>
        <time>2023-11-26T12:42:54Z</time>
      </trkpt>
      <trkpt lat="43.61941" lon="6.61386">
        <ele>598.1</ele>
        <time>2023-11-26T12:42:55Z</time>
      </trkpt>
      <trkpt lat="43.61943" lon="6.61387">
        <ele>598.3</ele>
        <time>2023-11-26T12:42:56Z</time>
      </trkpt>
      <trkpt lat="43.61944" lon="6.61388">
        <ele>598.5</ele>
        <time>2023-11-26T12:42:57Z</time>
      </trkpt>
      <trkpt lat="43.61946" lon="6.61389">
        <ele>598.7</ele>
        <time>2023-11-26T12:42:58Z</time>
      </trkpt>
      <trkpt lat="43.61947" lon="6.61391">
        <ele>598.8</ele>
        <time>2023-11-26T12:42:59Z</time>
      </trkpt>
      <trkpt lat="43.61948" lon="6.61392">
        <ele>598.9</ele>
        <time>2023-11-26T12:43:00Z</time>
      </trkpt>
      <trkpt lat="43.61949" lon="6.61394">
        <ele>599</ele>
        <time>2023-11-26T12:43:01Z</time>
      </trkpt>
      <trkpt lat="43.6195" lon="6.61395">
        <ele>599.2</ele>
        <time>2023-11-26T12:43:02Z</time>
      </trkpt>
      <trkpt lat="43.61951" lon="6.61396">
        <ele>599.2</ele>
        <time>2023-11-26T12:43:03Z</time>
      </trkpt>
      <trkpt lat="43.61952" lon="6.61398">
        <ele>599.3</ele>
        <time>2023-11-26T12:43:04Z</time>
      </trkpt>
      <trkpt lat="43.61953" lon="6.614">
        <ele>599.3</ele>
        <time>2023-11-26T12:43:05Z</time>
      </trkpt>
      <trkpt lat="43.61954" lon="6.61401">
        <ele>599.2</ele>
        <time>2023-11-26T12:43:06Z</time>
      </trkpt>
      <trkpt lat="43.61955" lon="6.61403">
        <ele>599.1</ele>
        <time>2023-11-26T12:43:07Z</time>
      </trkpt>
      <trkpt lat="43.61956" lon="6.61404">
        <ele>599.2</ele>
        <time>2023-11-26T12:43:08Z</time>
      </trkpt>
      <trkpt lat="43.61957" lon="6.61406">
        <ele>599.2</ele>
        <time>2023-11-26T12:43:09Z</time>
      </trkpt>
      <trkpt lat="43.61958" lon="6.61408">
        <ele>599.2</ele>
        <time>2023-11-26T12:43:10Z</time>
      </trkpt>
      <trkpt lat="43.61959" lon="6.61409">
        <ele>599.2</ele>
        <time>2023-11-26T12:43:11Z</time>
      </trkpt>
      <trkpt lat="43.6196" lon="6.6141">
        <ele>599.2</ele>
        <time>2023-11-26T12:43:12Z</time>
      </trkpt>
      <trkpt lat="43.61962" lon="6.61411">
        <ele>599.2</ele>
        <time>2023-11-26T12:43:13Z</time>
      </trkpt>
      <trkpt lat="43.61962" lon="6.61413">
        <ele>599.3</ele>
        <time>2023-11-26T12:43:14Z</time>
      </trkpt>
      <trkpt lat="43.61963" lon="6.61414">
        <ele>599.3</ele>
        <time>2023-11-26T12:43:15Z</time>
      </trkpt>
      <trkpt lat="43.61964" lon="6.61415">
        <ele>599.4</ele>
        <time>2023-11-26T12:43:16Z</time>
      </trkpt>
      <trkpt lat="43.61965" lon="6.61416">
        <ele>599.4</ele>
        <time>2023-11-26T12:43:17Z</time>
      </trkpt>
      <trkpt lat="43.61966" lon="6.61417">
        <ele>599.5</ele>
        <time>2023-11-26T12:43:18Z</time>
      </trkpt>
      <trkpt lat="43.61967" lon="6.61418">
        <ele>599.6</ele>
        <time>2023-11-26T12:43:19Z</time>
      </trkpt>
      <trkpt lat="43.61969" lon="6.61419">
        <ele>599.7</ele>
        <time>2023-11-26T12:43:20Z</time>
      </trkpt>
      <trkpt lat="43.6197" lon="6.6142">
        <ele>599.8</ele>
        <time>2023-11-26T12:43:21Z</time>
      </trkpt>
      <trkpt lat="43.61971" lon="6.61421">
        <ele>599.9</ele>
        <time>2023-11-26T12:43:22Z</time>
      </trkpt>
      <trkpt lat="43.61972" lon="6.61423">
        <ele>600</ele>
        <time>2023-11-26T12:43:23Z</time>
      </trkpt>
      <trkpt lat="43.61973" lon="6.61423">
        <ele>600</ele>
        <time>2023-11-26T12:43:24Z</time>
      </trkpt>
      <trkpt lat="43.61974" lon="6.61424">
        <ele>600.1</ele>
        <time>2023-11-26T12:43:25Z</time>
      </trkpt>
      <trkpt lat="43.61976" lon="6.61425">
        <ele>600.1</ele>
        <time>2023-11-26T12:43:26Z</time>
      </trkpt>
      <trkpt lat="43.61977" lon="6.61426">
        <ele>600.1</ele>
        <time>2023-11-26T12:43:27Z</time>
      </trkpt>
      <trkpt lat="43.61979" lon="6.61427">
        <ele>600.3</ele>
        <time>2023-11-26T12:43:28Z</time>
      </trkpt>
      <trkpt lat="43.6198" lon="6.61428">
        <ele>600.4</ele>
        <time>2023-11-26T12:43:29Z</time>
      </trkpt>
      <trkpt lat="43.61981" lon="6.61428">
        <ele>600.5</ele>
        <time>2023-11-26T12:43:30Z</time>
      </trkpt>
      <trkpt lat="43.61982" lon="6.61429">
        <ele>600.6</ele>
        <time>2023-11-26T12:43:31Z</time>
      </trkpt>
      <trkpt lat="43.61984" lon="6.6143">
        <ele>600.7</ele>
        <time>2023-11-26T12:43:32Z</time>
      </trkpt>
      <trkpt lat="43.61985" lon="6.61431">
        <ele>600.7</ele>
        <time>2023-11-26T12:43:33Z</time>
      </trkpt>
      <trkpt lat="43.61986" lon="6.61433">
        <ele>600.8</ele>
        <time>2023-11-26T12:43:34Z</time>
      </trkpt>
      <trkpt lat="43.61987" lon="6.61433">
        <ele>600.9</ele>
        <time>2023-11-26T12:43:35Z</time>
      </trkpt>
      <trkpt lat="43.61988" lon="6.61434">
        <ele>601</ele>
        <time>2023-11-26T12:43:36Z</time>
      </trkpt>
      <trkpt lat="43.6199" lon="6.61435">
        <ele>601.2</ele>
        <time>2023-11-26T12:43:37Z</time>
      </trkpt>
      <trkpt lat="43.61991" lon="6.61436">
        <ele>601.3</ele>
        <time>2023-11-26T12:43:38Z</time>
      </trkpt>
      <trkpt lat="43.61992" lon="6.61436">
        <ele>601.3</ele>
        <time>2023-11-26T12:43:39Z</time>
      </trkpt>
      <trkpt lat="43.61994" lon="6.61437">
        <ele>601.3</ele>
        <time>2023-11-26T12:43:40Z</time>
      </trkpt>
      <trkpt lat="43.61995" lon="6.61438">
        <ele>601.3</ele>
        <time>2023-11-26T12:43:41Z</time>
      </trkpt>
      <trkpt lat="43.61997" lon="6.61438">
        <ele>601.4</ele>
        <time>2023-11-26T12:43:42Z</time>
      </trkpt>
      <trkpt lat="43.61998" lon="6.61438">
        <ele>601.5</ele>
        <time>2023-11-26T12:43:43Z</time>
      </trkpt>
      <trkpt lat="43.62" lon="6.61439">
        <ele>601.5</ele>
        <time>2023-11-26T12:43:44Z</time>
      </trkpt>
      <trkpt lat="43.62001" lon="6.6144">
        <ele>601.5</ele>
        <time>2023-11-26T12:43:45Z</time>
      </trkpt>
      <trkpt lat="43.62002" lon="6.6144">
        <ele>601.7</ele>
        <time>2023-11-26T12:43:46Z</time>
      </trkpt>
      <trkpt lat="43.62004" lon="6.61441">
        <ele>601.8</ele>
        <time>2023-11-26T12:43:47Z</time>
      </trkpt>
      <trkpt lat="43.62005" lon="6.61441">
        <ele>601.9</ele>
        <time>2023-11-26T12:43:48Z</time>
      </trkpt>
      <trkpt lat="43.62006" lon="6.61442">
        <ele>602</ele>
        <time>2023-11-26T12:43:49Z</time>
      </trkpt>
      <trkpt lat="43.62008" lon="6.61442">
        <ele>602.1</ele>
        <time>2023-11-26T12:43:50Z</time>
      </trkpt>
      <trkpt lat="43.62009" lon="6.61443">
        <ele>602.1</ele>
        <time>2023-11-26T12:43:51Z</time>
      </trkpt>
      <trkpt lat="43.62011" lon="6.61443">
        <ele>602.2</ele>
        <time>2023-11-26T12:43:52Z</time>
      </trkpt>
      <trkpt lat="43.62012" lon="6.61443">
        <ele>602.4</ele>
        <time>2023-11-26T12:43:53Z</time>
      </trkpt>
      <trkpt lat="43.62014" lon="6.61443">
        <ele>602.5</ele>
        <time>2023-11-26T12:43:54Z</time>
      </trkpt>
      <trkpt lat="43.62015" lon="6.61444">
        <ele>602.6</ele>
        <time>2023-11-26T12:43:55Z</time>
      </trkpt>
      <trkpt lat="43.62017" lon="6.61444">
        <ele>602.8</ele>
        <time>2023-11-26T12:43:56Z</time>
      </trkpt>
      <trkpt lat="43.62018" lon="6.61445">
        <ele>602.9</ele>
        <time>2023-11-26T12:43:57Z</time>
      </trkpt>
      <trkpt lat="43.62019" lon="6.61445">
        <ele>603</ele>
        <time>2023-11-26T12:43:58Z</time>
      </trkpt>
      <trkpt lat="43.6202" lon="6.61445">
        <ele>603.2</ele>
        <time>2023-11-26T12:43:59Z</time>
      </trkpt>
      <trkpt lat="43.62021" lon="6.61444">
        <ele>603.2</ele>
        <time>2023-11-26T12:44:00Z</time>
      </trkpt>
      <trkpt lat="43.62023" lon="6.61445">
        <ele>603.2</ele>
        <time>2023-11-26T12:44:01Z</time>
      </trkpt>
      <trkpt lat="43.62024" lon="6.61445">
        <ele>603.3</ele>
        <time>2023-11-26T12:44:02Z</time>
      </trkpt>
      <trkpt lat="43.62026" lon="6.61445">
        <ele>603.5</ele>
        <time>2023-11-26T12:44:03Z</time>
      </trkpt>
      <trkpt lat="43.62027" lon="6.61445">
        <ele>603.6</ele>
        <time>2023-11-26T12:44:04Z</time>
      </trkpt>
      <trkpt lat="43.62028" lon="6.61446">
        <ele>603.7</ele>
        <time>2023-11-26T12:44:05Z</time>
      </trkpt>
      <trkpt lat="43.62029" lon="6.61446">
        <ele>603.8</ele>
        <time>2023-11-26T12:44:06Z</time>
      </trkpt>
      <trkpt lat="43.6203" lon="6.61446">
        <ele>603.9</ele>
        <time>2023-11-26T12:44:07Z</time>
      </trkpt>
      <trkpt lat="43.62031" lon="6.61447">
        <ele>604</ele>
        <time>2023-11-26T12:44:08Z</time>
      </trkpt>
      <trkpt lat="43.62032" lon="6.61447">
        <ele>604.2</ele>
        <time>2023-11-26T12:44:09Z</time>
      </trkpt>
      <trkpt lat="43.62034" lon="6.61447">
        <ele>604.2</ele>
        <time>2023-11-26T12:44:10Z</time>
      </trkpt>
      <trkpt lat="43.62035" lon="6.61447">
        <ele>604.3</ele>
        <time>2023-11-26T12:44:11Z</time>
      </trkpt>
      <trkpt lat="43.62036" lon="6.61448">
        <ele>604.4</ele>
        <time>2023-11-26T12:44:12Z</time>
      </trkpt>
      <trkpt lat="43.62038" lon="6.61448">
        <ele>604.5</ele>
        <time>2023-11-26T12:44:13Z</time>
      </trkpt>
      <trkpt lat="43.62039" lon="6.61448">
        <ele>604.6</ele>
        <time>2023-11-26T12:44:14Z</time>
      </trkpt>
      <trkpt lat="43.6204" lon="6.61448">
        <ele>604.6</ele>
        <time>2023-11-26T12:44:15Z</time>
      </trkpt>
      <trkpt lat="43.62041" lon="6.61448">
        <ele>604.7</ele>
        <time>2023-11-26T12:44:16Z</time>
      </trkpt>
      <trkpt lat="43.62043" lon="6.61449">
        <ele>604.8</ele>
        <time>2023-11-26T12:44:17Z</time>
      </trkpt>
      <trkpt lat="43.62044" lon="6.61449">
        <ele>604.9</ele>
        <time>2023-11-26T12:44:18Z</time>
      </trkpt>
      <trkpt lat="43.62045" lon="6.61449">
        <ele>605</ele>
        <time>2023-11-26T12:44:19Z</time>
      </trkpt>
      <trkpt lat="43.62046" lon="6.61449">
        <ele>605.1</ele>
        <time>2023-11-26T12:44:20Z</time>
      </trkpt>
      <trkpt lat="43.62048" lon="6.6145">
        <ele>605.2</ele>
        <time>2023-11-26T12:44:21Z</time>
      </trkpt>
      <trkpt lat="43.6205" lon="6.6145">
        <ele>605.4</ele>
        <time>2023-11-26T12:44:22Z</time>
      </trkpt>
      <trkpt lat="43.62051" lon="6.6145">
        <ele>605.5</ele>
        <time>2023-11-26T12:44:23Z</time>
      </trkpt>
      <trkpt lat="43.62053" lon="6.6145">
        <ele>605.7</ele>
        <time>2023-11-26T12:44:24Z</time>
      </trkpt>
      <trkpt lat="43.62054" lon="6.61451">
        <ele>605.8</ele>
        <time>2023-11-26T12:44:25Z</time>
      </trkpt>
      <trkpt lat="43.62055" lon="6.61451">
        <ele>606</ele>
        <time>2023-11-26T12:44:26Z</time>
      </trkpt>
      <trkpt lat="43.62057" lon="6.61452">
        <ele>606.1</ele>
        <time>2023-11-26T12:44:27Z</time>
      </trkpt>
      <trkpt lat="43.62057" lon="6.61453">
        <ele>606.2</ele>
        <time>2023-11-26T12:44:28Z</time>
      </trkpt>
      <trkpt lat="43.62059" lon="6.61454">
        <ele>606.4</ele>
        <time>2023-11-26T12:44:29Z</time>
      </trkpt>
      <trkpt lat="43.6206" lon="6.61454">
        <ele>606.5</ele>
        <time>2023-11-26T12:44:30Z</time>
      </trkpt>
      <trkpt lat="43.62061" lon="6.61455">
        <ele>606.6</ele>
        <time>2023-11-26T12:44:31Z</time>
      </trkpt>
      <trkpt lat="43.62062" lon="6.61456">
        <ele>606.7</ele>
        <time>2023-11-26T12:44:32Z</time>
      </trkpt>
      <trkpt lat="43.62063" lon="6.61457">
        <ele>606.8</ele>
        <time>2023-11-26T12:44:33Z</time>
      </trkpt>
      <trkpt lat="43.62065" lon="6.61458">
        <ele>607.1</ele>
        <time>2023-11-26T12:44:34Z</time>
      </trkpt>
      <trkpt lat="43.62066" lon="6.61459">
        <ele>607.3</ele>
        <time>2023-11-26T12:44:35Z</time>
      </trkpt>
      <trkpt lat="43.62067" lon="6.61459">
        <ele>607.4</ele>
        <time>2023-11-26T12:44:36Z</time>
      </trkpt>
      <trkpt lat="43.62068" lon="6.6146">
        <ele>607.5</ele>
        <time>2023-11-26T12:44:37Z</time>
      </trkpt>
      <trkpt lat="43.6207" lon="6.6146">
        <ele>607.6</ele>
        <time>2023-11-26T12:44:38Z</time>
      </trkpt>
      <trkpt lat="43.62071" lon="6.6146">
        <ele>607.8</ele>
        <time>2023-11-26T12:44:39Z</time>
      </trkpt>
      <trkpt lat="43.62072" lon="6.6146">
        <ele>608</ele>
        <time>2023-11-26T12:44:40Z</time>
      </trkpt>
      <trkpt lat="43.62073" lon="6.61461">
        <ele>608.1</ele>
        <time>2023-11-26T12:44:41Z</time>
      </trkpt>
      <trkpt lat="43.62074" lon="6.61461">
        <ele>608.2</ele>
        <time>2023-11-26T12:44:42Z</time>
      </trkpt>
      <trkpt lat="43.62075" lon="6.61462">
        <ele>608.4</ele>
        <time>2023-11-26T12:44:43Z</time>
      </trkpt>
      <trkpt lat="43.62076" lon="6.61463">
        <ele>608.5</ele>
        <time>2023-11-26T12:44:44Z</time>
      </trkpt>
      <trkpt lat="43.62077" lon="6.61464">
        <ele>608.6</ele>
        <time>2023-11-26T12:44:45Z</time>
      </trkpt>
      <trkpt lat="43.62078" lon="6.61465">
        <ele>608.6</ele>
        <time>2023-11-26T12:44:46Z</time>
      </trkpt>
      <trkpt lat="43.6208" lon="6.61465">
        <ele>608.6</ele>
        <time>2023-11-26T12:44:47Z</time>
      </trkpt>
      <trkpt lat="43.62081" lon="6.61466">
        <ele>608.7</ele>
        <time>2023-11-26T12:44:48Z</time>
      </trkpt>
      <trkpt lat="43.62082" lon="6.61467">
        <ele>608.8</ele>
        <time>2023-11-26T12:44:49Z</time>
      </trkpt>
      <trkpt lat="43.62083" lon="6.61467">
        <ele>608.9</ele>
        <time>2023-11-26T12:44:50Z</time>
      </trkpt>
      <trkpt lat="43.62084" lon="6.61468">
        <ele>609</ele>
        <time>2023-11-26T12:44:51Z</time>
      </trkpt>
      <trkpt lat="43.62086" lon="6.61469">
        <ele>609</ele>
        <time>2023-11-26T12:44:52Z</time>
      </trkpt>
      <trkpt lat="43.62087" lon="6.6147">
        <ele>609.1</ele>
        <time>2023-11-26T12:44:53Z</time>
      </trkpt>
      <trkpt lat="43.62089" lon="6.6147">
        <ele>609.2</ele>
        <time>2023-11-26T12:44:54Z</time>
      </trkpt>
      <trkpt lat="43.6209" lon="6.61471">
        <ele>609.3</ele>
        <time>2023-11-26T12:44:55Z</time>
      </trkpt>
      <trkpt lat="43.62091" lon="6.61472">
        <ele>609.3</ele>
        <time>2023-11-26T12:44:56Z</time>
      </trkpt>
      <trkpt lat="43.62093" lon="6.61472">
        <ele>609.4</ele>
        <time>2023-11-26T12:44:57Z</time>
      </trkpt>
      <trkpt lat="43.62094" lon="6.61473">
        <ele>609.4</ele>
        <time>2023-11-26T12:44:58Z</time>
      </trkpt>
      <trkpt lat="43.62095" lon="6.61474">
        <ele>609.5</ele>
        <time>2023-11-26T12:44:59Z</time>
      </trkpt>
      <trkpt lat="43.62096" lon="6.61476">
        <ele>609.6</ele>
        <time>2023-11-26T12:45:00Z</time>
      </trkpt>
      <trkpt lat="43.62097" lon="6.61476">
        <ele>609.6</ele>
        <time>2023-11-26T12:45:01Z</time>
      </trkpt>
      <trkpt lat="43.62098" lon="6.61477">
        <ele>609.6</ele>
        <time>2023-11-26T12:45:02Z</time>
      </trkpt>
      <trkpt lat="43.62099" lon="6.61478">
        <ele>609.6</ele>
        <time>2023-11-26T12:45:03Z</time>
      </trkpt>
      <trkpt lat="43.62101" lon="6.61479">
        <ele>609.6</ele>
        <time>2023-11-26T12:45:04Z</time>
      </trkpt>
      <trkpt lat="43.62102" lon="6.61479">
        <ele>609.6</ele>
        <time>2023-11-26T12:45:05Z</time>
      </trkpt>
      <trkpt lat="43.62103" lon="6.6148">
        <ele>609.7</ele>
        <time>2023-11-26T12:45:06Z</time>
      </trkpt>
      <trkpt lat="43.62104" lon="6.61481">
        <ele>609.7</ele>
        <time>2023-11-26T12:45:07Z</time>
      </trkpt>
      <trkpt lat="43.62105" lon="6.61482">
        <ele>609.8</ele>
        <time>2023-11-26T12:45:08Z</time>
      </trkpt>
      <trkpt lat="43.62106" lon="6.61483">
        <ele>609.8</ele>
        <time>2023-11-26T12:45:09Z</time>
      </trkpt>
      <trkpt lat="43.62108" lon="6.61484">
        <ele>610</ele>
        <time>2023-11-26T12:45:10Z</time>
      </trkpt>
      <trkpt lat="43.62109" lon="6.61485">
        <ele>609.9</ele>
        <time>2023-11-26T12:45:11Z</time>
      </trkpt>
      <trkpt lat="43.6211" lon="6.61486">
        <ele>610</ele>
        <time>2023-11-26T12:45:12Z</time>
      </trkpt>
      <trkpt lat="43.62111" lon="6.61487">
        <ele>610</ele>
        <time>2023-11-26T12:45:13Z</time>
      </trkpt>
      <trkpt lat="43.62112" lon="6.61487">
        <ele>610.1</ele>
        <time>2023-11-26T12:45:14Z</time>
      </trkpt>
      <trkpt lat="43.62114" lon="6.61487">
        <ele>610.2</ele>
        <time>2023-11-26T12:45:15Z</time>
      </trkpt>
      <trkpt lat="43.62115" lon="6.61488">
        <ele>610.4</ele>
        <time>2023-11-26T12:45:16Z</time>
      </trkpt>
      <trkpt lat="43.62116" lon="6.61488">
        <ele>610.5</ele>
        <time>2023-11-26T12:45:17Z</time>
      </trkpt>
      <trkpt lat="43.62117" lon="6.6149">
        <ele>610.5</ele>
        <time>2023-11-26T12:45:18Z</time>
      </trkpt>
      <trkpt lat="43.62118" lon="6.6149">
        <ele>610.7</ele>
        <time>2023-11-26T12:45:19Z</time>
      </trkpt>
      <trkpt lat="43.62119" lon="6.61491">
        <ele>610.9</ele>
        <time>2023-11-26T12:45:20Z</time>
      </trkpt>
      <trkpt lat="43.6212" lon="6.61492">
        <ele>611</ele>
        <time>2023-11-26T12:45:21Z</time>
      </trkpt>
      <trkpt lat="43.62121" lon="6.61492">
        <ele>611.1</ele>
        <time>2023-11-26T12:45:22Z</time>
      </trkpt>
      <trkpt lat="43.62122" lon="6.61493">
        <ele>611</ele>
        <time>2023-11-26T12:45:23Z</time>
      </trkpt>
      <trkpt lat="43.62123" lon="6.61494">
        <ele>611</ele>
        <time>2023-11-26T12:45:24Z</time>
      </trkpt>
      <trkpt lat="43.62124" lon="6.61495">
        <ele>611.2</ele>
        <time>2023-11-26T12:45:25Z</time>
      </trkpt>
      <trkpt lat="43.62125" lon="6.61496">
        <ele>611.3</ele>
        <time>2023-11-26T12:45:26Z</time>
      </trkpt>
      <trkpt lat="43.62126" lon="6.61497">
        <ele>611.3</ele>
        <time>2023-11-26T12:45:27Z</time>
      </trkpt>
      <trkpt lat="43.62127" lon="6.61497">
        <ele>611.4</ele>
        <time>2023-11-26T12:45:28Z</time>
      </trkpt>
      <trkpt lat="43.62128" lon="6.61497">
        <ele>611.5</ele>
        <time>2023-11-26T12:45:29Z</time>
      </trkpt>
      <trkpt lat="43.6213" lon="6.61497">
        <ele>611.6</ele>
        <time>2023-11-26T12:45:30Z</time>
      </trkpt>
      <trkpt lat="43.62131" lon="6.61497">
        <ele>611.6</ele>
        <time>2023-11-26T12:45:31Z</time>
      </trkpt>
      <trkpt lat="43.62132" lon="6.61497">
        <ele>611.7</ele>
        <time>2023-11-26T12:45:32Z</time>
      </trkpt>
      <trkpt lat="43.62133" lon="6.61497">
        <ele>611.8</ele>
        <time>2023-11-26T12:45:33Z</time>
      </trkpt>
      <trkpt lat="43.62134" lon="6.61498">
        <ele>611.7</ele>
        <time>2023-11-26T12:45:34Z</time>
      </trkpt>
      <trkpt lat="43.62135" lon="6.61498">
        <ele>611.7</ele>
        <time>2023-11-26T12:45:35Z</time>
      </trkpt>
      <trkpt lat="43.62135" lon="6.61498">
        <ele>611.7</ele>
        <time>2023-11-26T12:45:36Z</time>
      </trkpt>
      <trkpt lat="43.62135" lon="6.61498">
        <ele>611.7</ele>
        <time>2023-11-26T12:45:37Z</time>
      </trkpt>
      <trkpt lat="43.62135" lon="6.61498">
        <ele>611.7</ele>
        <time>2023-11-26T12:45:38Z</time>
      </trkpt>
      <trkpt lat="43.62135" lon="6.61498">
        <ele>611.7</ele>
        <time>2023-11-26T12:45:39Z</time>
      </trkpt>
      <trkpt lat="43.62134" lon="6.61498">
        <ele>611.7</ele>
        <time>2023-11-26T12:45:40Z</time>
      </trkpt>
      <trkpt lat="43.62134" lon="6.61499">
        <ele>611.8</ele>
        <time>2023-11-26T12:45:41Z</time>
      </trkpt>
      <trkpt lat="43.62134" lon="6.61499">
        <ele>611.9</ele>
        <time>2023-11-26T12:45:42Z</time>
      </trkpt>
      <trkpt lat="43.62134" lon="6.61499">
        <ele>611.8</ele>
        <time>2023-11-26T12:45:43Z</time>
      </trkpt>
      <trkpt lat="43.62134" lon="6.61499">
        <ele>611.8</ele>
        <time>2023-11-26T12:45:44Z</time>
      </trkpt>
      <trkpt lat="43.62134" lon="6.61498">
        <ele>611.8</ele>
        <time>2023-11-26T12:45:45Z</time>
      </trkpt>
      <trkpt lat="43.62134" lon="6.61499">
        <ele>611.9</ele>
        <time>2023-11-26T12:45:46Z</time>
      </trkpt>
      <trkpt lat="43.62134" lon="6.61499">
        <ele>611.9</ele>
        <time>2023-11-26T12:45:47Z</time>
      </trkpt>
      <trkpt lat="43.62134" lon="6.61499">
        <ele>611.9</ele>
        <time>2023-11-26T12:45:48Z</time>
      </trkpt>
      <trkpt lat="43.62134" lon="6.61499">
        <ele>611.9</ele>
        <time>2023-11-26T12:45:49Z</time>
      </trkpt>
      <trkpt lat="43.62134" lon="6.61499">
        <ele>611.9</ele>
        <time>2023-11-26T12:45:50Z</time>
      </trkpt>
      <trkpt lat="43.62133" lon="6.61499">
        <ele>611.9</ele>
        <time>2023-11-26T12:45:51Z</time>
      </trkpt>
      <trkpt lat="43.62133" lon="6.61499">
        <ele>611.9</ele>
        <time>2023-11-26T12:45:52Z</time>
      </trkpt>
      <trkpt lat="43.62133" lon="6.61499">
        <ele>612</ele>
        <time>2023-11-26T12:45:53Z</time>
      </trkpt>
      <trkpt lat="43.62133" lon="6.61498">
        <ele>612</ele>
        <time>2023-11-26T12:45:54Z</time>
      </trkpt>
      <trkpt lat="43.62134" lon="6.61498">
        <ele>612</ele>
        <time>2023-11-26T12:45:55Z</time>
      </trkpt>
      <trkpt lat="43.62134" lon="6.61498">
        <ele>612</ele>
        <time>2023-11-26T12:45:56Z</time>
      </trkpt>
      <trkpt lat="43.62134" lon="6.61498">
        <ele>612</ele>
        <time>2023-11-26T12:45:57Z</time>
      </trkpt>
      <trkpt lat="43.62134" lon="6.61498">
        <ele>612</ele>
        <time>2023-11-26T12:45:58Z</time>
      </trkpt>
      <trkpt lat="43.62135" lon="6.61499">
        <ele>612</ele>
        <time>2023-11-26T12:45:59Z</time>
      </trkpt>
      <trkpt lat="43.62136" lon="6.61499">
        <ele>612</ele>
        <time>2023-11-26T12:46:00Z</time>
      </trkpt>
      <trkpt lat="43.62137" lon="6.61498">
        <ele>612.1</ele>
        <time>2023-11-26T12:46:01Z</time>
      </trkpt>
      <trkpt lat="43.62138" lon="6.61498">
        <ele>612.1</ele>
        <time>2023-11-26T12:46:02Z</time>
      </trkpt>
      <trkpt lat="43.62139" lon="6.61499">
        <ele>612</ele>
        <time>2023-11-26T12:46:03Z</time>
      </trkpt>
      <trkpt lat="43.6214" lon="6.61499">
        <ele>612</ele>
        <time>2023-11-26T12:46:04Z</time>
      </trkpt>
      <trkpt lat="43.6214" lon="6.61498">
        <ele>612</ele>
        <time>2023-11-26T12:46:05Z</time>
      </trkpt>
      <trkpt lat="43.62141" lon="6.61498">
        <ele>612</ele>
        <time>2023-11-26T12:46:06Z</time>
      </trkpt>
      <trkpt lat="43.62141" lon="6.61498">
        <ele>612.1</ele>
        <time>2023-11-26T12:46:07Z</time>
      </trkpt>
      <trkpt lat="43.62141" lon="6.61498">
        <ele>612.1</ele>
        <time>2023-11-26T12:46:08Z</time>
      </trkpt>
      <trkpt lat="43.62142" lon="6.61498">
        <ele>612.1</ele>
        <time>2023-11-26T12:46:09Z</time>
      </trkpt>
      <trkpt lat="43.62142" lon="6.61499">
        <ele>612.1</ele>
        <time>2023-11-26T12:46:10Z</time>
      </trkpt>
      <trkpt lat="43.62142" lon="6.615">
        <ele>612.1</ele>
        <time>2023-11-26T12:46:11Z</time>
      </trkpt>
      <trkpt lat="43.62143" lon="6.615">
        <ele>612.2</ele>
        <time>2023-11-26T12:46:12Z</time>
      </trkpt>
      <trkpt lat="43.62143" lon="6.615">
        <ele>612.2</ele>
        <time>2023-11-26T12:46:13Z</time>
      </trkpt>
      <trkpt lat="43.62143" lon="6.615">
        <ele>612.3</ele>
        <time>2023-11-26T12:46:14Z</time>
      </trkpt>
      <trkpt lat="43.62143" lon="6.615">
        <ele>612.4</ele>
        <time>2023-11-26T12:46:15Z</time>
      </trkpt>
      <trkpt lat="43.62143" lon="6.615">
        <ele>612.4</ele>
        <time>2023-11-26T12:46:16Z</time>
      </trkpt>
      <trkpt lat="43.62144" lon="6.61499">
        <ele>612.4</ele>
        <time>2023-11-26T12:46:17Z</time>
      </trkpt>
      <trkpt lat="43.62144" lon="6.61498">
        <ele>612.4</ele>
        <time>2023-11-26T12:46:18Z</time>
      </trkpt>
      <trkpt lat="43.62144" lon="6.61498">
        <ele>612.3</ele>
        <time>2023-11-26T12:46:19Z</time>
      </trkpt>
      <trkpt lat="43.62144" lon="6.61498">
        <ele>612.3</ele>
        <time>2023-11-26T12:46:20Z</time>
      </trkpt>
      <trkpt lat="43.62144" lon="6.61498">
        <ele>612.3</ele>
        <time>2023-11-26T12:46:21Z</time>
      </trkpt>
      <trkpt lat="43.62144" lon="6.61498">
        <ele>612.4</ele>
        <time>2023-11-26T12:46:22Z</time>
      </trkpt>
      <trkpt lat="43.62144" lon="6.61497">
        <ele>612.5</ele>
        <time>2023-11-26T12:46:23Z</time>
      </trkpt>
      <trkpt lat="43.62144" lon="6.61497">
        <ele>612.5</ele>
        <time>2023-11-26T12:46:24Z</time>
      </trkpt>
      <trkpt lat="43.62144" lon="6.61497">
        <ele>612.5</ele>
        <time>2023-11-26T12:46:25Z</time>
      </trkpt>
      <trkpt lat="43.62144" lon="6.61496">
        <ele>612.5</ele>
        <time>2023-11-26T12:46:26Z</time>
      </trkpt>
      <trkpt lat="43.62144" lon="6.61496">
        <ele>612.5</ele>
        <time>2023-11-26T12:46:27Z</time>
      </trkpt>
      <trkpt lat="43.62144" lon="6.61496">
        <ele>612.5</ele>
        <time>2023-11-26T12:46:28Z</time>
      </trkpt>
      <trkpt lat="43.62144" lon="6.61496">
        <ele>612.5</ele>
        <time>2023-11-26T12:46:29Z</time>
      </trkpt>
      <trkpt lat="43.62144" lon="6.61496">
        <ele>612.5</ele>
        <time>2023-11-26T12:46:30Z</time>
      </trkpt>
      <trkpt lat="43.62144" lon="6.61496">
        <ele>612.4</ele>
        <time>2023-11-26T12:46:31Z</time>
      </trkpt>
      <trkpt lat="43.62144" lon="6.61496">
        <ele>612.3</ele>
        <time>2023-11-26T12:46:32Z</time>
      </trkpt>
      <trkpt lat="43.62144" lon="6.61496">
        <ele>612.2</ele>
        <time>2023-11-26T12:46:33Z</time>
      </trkpt>
      <trkpt lat="43.62144" lon="6.61496">
        <ele>612.1</ele>
        <time>2023-11-26T12:46:34Z</time>
      </trkpt>
      <trkpt lat="43.62144" lon="6.61496">
        <ele>612.1</ele>
        <time>2023-11-26T12:46:35Z</time>
      </trkpt>
      <trkpt lat="43.62144" lon="6.61496">
        <ele>612</ele>
        <time>2023-11-26T12:46:36Z</time>
      </trkpt>
      <trkpt lat="43.62145" lon="6.61496">
        <ele>612</ele>
        <time>2023-11-26T12:46:37Z</time>
      </trkpt>
      <trkpt lat="43.62145" lon="6.61496">
        <ele>612</ele>
        <time>2023-11-26T12:46:38Z</time>
      </trkpt>
      <trkpt lat="43.62145" lon="6.61496">
        <ele>611.9</ele>
        <time>2023-11-26T12:46:39Z</time>
      </trkpt>
      <trkpt lat="43.62145" lon="6.61496">
        <ele>611.8</ele>
        <time>2023-11-26T12:46:40Z</time>
      </trkpt>
      <trkpt lat="43.62144" lon="6.61496">
        <ele>611.8</ele>
        <time>2023-11-26T12:46:41Z</time>
      </trkpt>
      <trkpt lat="43.62145" lon="6.61496">
        <ele>611.9</ele>
        <time>2023-11-26T12:46:42Z</time>
      </trkpt>
      <trkpt lat="43.62145" lon="6.61496">
        <ele>611.8</ele>
        <time>2023-11-26T12:46:43Z</time>
      </trkpt>
      <trkpt lat="43.62145" lon="6.61496">
        <ele>611.9</ele>
        <time>2023-11-26T12:46:44Z</time>
      </trkpt>
      <trkpt lat="43.62145" lon="6.61495">
        <ele>611.8</ele>
        <time>2023-11-26T12:46:45Z</time>
      </trkpt>
      <trkpt lat="43.62145" lon="6.61495">
        <ele>611.8</ele>
        <time>2023-11-26T12:46:46Z</time>
      </trkpt>
      <trkpt lat="43.62145" lon="6.61495">
        <ele>611.8</ele>
        <time>2023-11-26T12:46:47Z</time>
      </trkpt>
      <trkpt lat="43.62145" lon="6.61495">
        <ele>611.8</ele>
        <time>2023-11-26T12:46:48Z</time>
      </trkpt>
      <trkpt lat="43.62145" lon="6.61495">
        <ele>611.8</ele>
        <time>2023-11-26T12:46:49Z</time>
      </trkpt>
      <trkpt lat="43.62145" lon="6.61495">
        <ele>611.8</ele>
        <time>2023-11-26T12:46:50Z</time>
      </trkpt>
      <trkpt lat="43.62145" lon="6.61495">
        <ele>611.8</ele>
        <time>2023-11-26T12:46:51Z</time>
      </trkpt>
      <trkpt lat="43.62145" lon="6.61495">
        <ele>611.8</ele>
        <time>2023-11-26T12:46:52Z</time>
      </trkpt>
      <trkpt lat="43.62145" lon="6.61495">
        <ele>611.8</ele>
        <time>2023-11-26T12:46:53Z</time>
      </trkpt>
      <trkpt lat="43.62145" lon="6.61495">
        <ele>611.8</ele>
        <time>2023-11-26T12:46:54Z</time>
      </trkpt>
      <trkpt lat="43.62145" lon="6.61495">
        <ele>611.8</ele>
        <time>2023-11-26T12:46:55Z</time>
      </trkpt>
      <trkpt lat="43.62144" lon="6.61496">
        <ele>611.8</ele>
        <time>2023-11-26T12:46:56Z</time>
      </trkpt>
      <trkpt lat="43.62144" lon="6.61497">
        <ele>611.6</ele>
        <time>2023-11-26T12:46:57Z</time>
      </trkpt>
      <trkpt lat="43.62143" lon="6.61498">
        <ele>611.5</ele>
        <time>2023-11-26T12:46:58Z</time>
      </trkpt>
      <trkpt lat="43.62142" lon="6.61498">
        <ele>611.3</ele>
        <time>2023-11-26T12:46:59Z</time>
      </trkpt>
      <trkpt lat="43.62142" lon="6.61499">
        <ele>611.2</ele>
        <time>2023-11-26T12:47:00Z</time>
      </trkpt>
      <trkpt lat="43.62141" lon="6.615">
        <ele>611.1</ele>
        <time>2023-11-26T12:47:01Z</time>
      </trkpt>
      <trkpt lat="43.62141" lon="6.61501">
        <ele>611</ele>
        <time>2023-11-26T12:47:02Z</time>
      </trkpt>
      <trkpt lat="43.6214" lon="6.61502">
        <ele>611</ele>
        <time>2023-11-26T12:47:03Z</time>
      </trkpt>
      <trkpt lat="43.6214" lon="6.61503">
        <ele>610.9</ele>
        <time>2023-11-26T12:47:04Z</time>
      </trkpt>
      <trkpt lat="43.62139" lon="6.61503">
        <ele>610.8</ele>
        <time>2023-11-26T12:47:05Z</time>
      </trkpt>
      <trkpt lat="43.62138" lon="6.61504">
        <ele>610.7</ele>
        <time>2023-11-26T12:47:06Z</time>
      </trkpt>
      <trkpt lat="43.62138" lon="6.61506">
        <ele>610.6</ele>
        <time>2023-11-26T12:47:07Z</time>
      </trkpt>
      <trkpt lat="43.62137" lon="6.61506">
        <ele>610.5</ele>
        <time>2023-11-26T12:47:08Z</time>
      </trkpt>
      <trkpt lat="43.62136" lon="6.61507">
        <ele>610.3</ele>
        <time>2023-11-26T12:47:09Z</time>
      </trkpt>
      <trkpt lat="43.62135" lon="6.61508">
        <ele>610.1</ele>
        <time>2023-11-26T12:47:10Z</time>
      </trkpt>
      <trkpt lat="43.62135" lon="6.6151">
        <ele>609.8</ele>
        <time>2023-11-26T12:47:11Z</time>
      </trkpt>
      <trkpt lat="43.62134" lon="6.61511">
        <ele>609.6</ele>
        <time>2023-11-26T12:47:12Z</time>
      </trkpt>
      <trkpt lat="43.62134" lon="6.61511">
        <ele>609.4</ele>
        <time>2023-11-26T12:47:13Z</time>
      </trkpt>
      <trkpt lat="43.62134" lon="6.61512">
        <ele>609.1</ele>
        <time>2023-11-26T12:47:14Z</time>
      </trkpt>
      <trkpt lat="43.62133" lon="6.61514">
        <ele>608.9</ele>
        <time>2023-11-26T12:47:15Z</time>
      </trkpt>
      <trkpt lat="43.62133" lon="6.61515">
        <ele>608.7</ele>
        <time>2023-11-26T12:47:16Z</time>
      </trkpt>
      <trkpt lat="43.62133" lon="6.61516">
        <ele>608.5</ele>
        <time>2023-11-26T12:47:17Z</time>
      </trkpt>
      <trkpt lat="43.62132" lon="6.61517">
        <ele>608.2</ele>
        <time>2023-11-26T12:47:18Z</time>
      </trkpt>
      <trkpt lat="43.62131" lon="6.61518">
        <ele>608</ele>
        <time>2023-11-26T12:47:19Z</time>
      </trkpt>
      <trkpt lat="43.62131" lon="6.61519">
        <ele>607.7</ele>
        <time>2023-11-26T12:47:20Z</time>
      </trkpt>
      <trkpt lat="43.62131" lon="6.6152">
        <ele>607.6</ele>
        <time>2023-11-26T12:47:21Z</time>
      </trkpt>
      <trkpt lat="43.6213" lon="6.61521">
        <ele>607.4</ele>
        <time>2023-11-26T12:47:22Z</time>
      </trkpt>
      <trkpt lat="43.6213" lon="6.61522">
        <ele>607.3</ele>
        <time>2023-11-26T12:47:23Z</time>
      </trkpt>
      <trkpt lat="43.6213" lon="6.61523">
        <ele>607.1</ele>
        <time>2023-11-26T12:47:24Z</time>
      </trkpt>
      <trkpt lat="43.6213" lon="6.61523">
        <ele>607</ele>
        <time>2023-11-26T12:47:25Z</time>
      </trkpt>
      <trkpt lat="43.62129" lon="6.61524">
        <ele>606.9</ele>
        <time>2023-11-26T12:47:26Z</time>
      </trkpt>
      <trkpt lat="43.62129" lon="6.61525">
        <ele>606.8</ele>
        <time>2023-11-26T12:47:27Z</time>
      </trkpt>
      <trkpt lat="43.62129" lon="6.61526">
        <ele>606.6</ele>
        <time>2023-11-26T12:47:28Z</time>
      </trkpt>
      <trkpt lat="43.62129" lon="6.61527">
        <ele>606.4</ele>
        <time>2023-11-26T12:47:29Z</time>
      </trkpt>
      <trkpt lat="43.62129" lon="6.61528">
        <ele>606.3</ele>
        <time>2023-11-26T12:47:30Z</time>
      </trkpt>
      <trkpt lat="43.6213" lon="6.61529">
        <ele>606.2</ele>
        <time>2023-11-26T12:47:31Z</time>
      </trkpt>
      <trkpt lat="43.6213" lon="6.61529">
        <ele>606.1</ele>
        <time>2023-11-26T12:47:32Z</time>
      </trkpt>
      <trkpt lat="43.6213" lon="6.61529">
        <ele>606</ele>
        <time>2023-11-26T12:47:33Z</time>
      </trkpt>
      <trkpt lat="43.6213" lon="6.61529">
        <ele>605.9</ele>
        <time>2023-11-26T12:47:34Z</time>
      </trkpt>
      <trkpt lat="43.6213" lon="6.61529">
        <ele>605.9</ele>
        <time>2023-11-26T12:47:35Z</time>
      </trkpt>
      <trkpt lat="43.6213" lon="6.61529">
        <ele>605.8</ele>
        <time>2023-11-26T12:47:36Z</time>
      </trkpt>
      <trkpt lat="43.6213" lon="6.61529">
        <ele>605.8</ele>
        <time>2023-11-26T12:47:37Z</time>
      </trkpt>
      <trkpt lat="43.6213" lon="6.6153">
        <ele>605.7</ele>
        <time>2023-11-26T12:47:38Z</time>
      </trkpt>
      <trkpt lat="43.6213" lon="6.6153">
        <ele>605.7</ele>
        <time>2023-11-26T12:47:39Z</time>
      </trkpt>
      <trkpt lat="43.6213" lon="6.6153">
        <ele>605.7</ele>
        <time>2023-11-26T12:47:40Z</time>
      </trkpt>
      <trkpt lat="43.6213" lon="6.6153">
        <ele>605.7</ele>
        <time>2023-11-26T12:47:41Z</time>
      </trkpt>
      <trkpt lat="43.62131" lon="6.6153">
        <ele>605.6</ele>
        <time>2023-11-26T12:47:42Z</time>
      </trkpt>
      <trkpt lat="43.62131" lon="6.6153">
        <ele>605.7</ele>
        <time>2023-11-26T12:47:43Z</time>
      </trkpt>
      <trkpt lat="43.6213" lon="6.6153">
        <ele>605.7</ele>
        <time>2023-11-26T12:47:44Z</time>
      </trkpt>
      <trkpt lat="43.62131" lon="6.6153">
        <ele>605.7</ele>
        <time>2023-11-26T12:47:45Z</time>
      </trkpt>
      <trkpt lat="43.62131" lon="6.6153">
        <ele>605.7</ele>
        <time>2023-11-26T12:47:46Z</time>
      </trkpt>
      <trkpt lat="43.62132" lon="6.6153">
        <ele>605.6</ele>
        <time>2023-11-26T12:47:47Z</time>
      </trkpt>
      <trkpt lat="43.62132" lon="6.6153">
        <ele>605.6</ele>
        <time>2023-11-26T12:47:48Z</time>
      </trkpt>
      <trkpt lat="43.62132" lon="6.61531">
        <ele>605.6</ele>
        <time>2023-11-26T12:47:49Z</time>
      </trkpt>
      <trkpt lat="43.62132" lon="6.61533">
        <ele>605.6</ele>
        <time>2023-11-26T12:47:50Z</time>
      </trkpt>
      <trkpt lat="43.62131" lon="6.61533">
        <ele>605.6</ele>
        <time>2023-11-26T12:47:51Z</time>
      </trkpt>
      <trkpt lat="43.62131" lon="6.61534">
        <ele>605.6</ele>
        <time>2023-11-26T12:47:52Z</time>
      </trkpt>
      <trkpt lat="43.62131" lon="6.61535">
        <ele>605.6</ele>
        <time>2023-11-26T12:47:53Z</time>
      </trkpt>
      <trkpt lat="43.62131" lon="6.61536">
        <ele>605.6</ele>
        <time>2023-11-26T12:47:54Z</time>
      </trkpt>
      <trkpt lat="43.62131" lon="6.61536">
        <ele>605.5</ele>
        <time>2023-11-26T12:47:55Z</time>
      </trkpt>
      <trkpt lat="43.62131" lon="6.61537">
        <ele>605.5</ele>
        <time>2023-11-26T12:47:56Z</time>
      </trkpt>
      <trkpt lat="43.62131" lon="6.61537">
        <ele>605.4</ele>
        <time>2023-11-26T12:47:57Z</time>
      </trkpt>
      <trkpt lat="43.62131" lon="6.61538">
        <ele>605</ele>
        <time>2023-11-26T12:47:58Z</time>
      </trkpt>
      <trkpt lat="43.62131" lon="6.61539">
        <ele>604.8</ele>
        <time>2023-11-26T12:47:59Z</time>
      </trkpt>
      <trkpt lat="43.62131" lon="6.61539">
        <ele>604.6</ele>
        <time>2023-11-26T12:48:00Z</time>
      </trkpt>
      <trkpt lat="43.62131" lon="6.6154">
        <ele>604.5</ele>
        <time>2023-11-26T12:48:01Z</time>
      </trkpt>
      <trkpt lat="43.62131" lon="6.6154">
        <ele>604.3</ele>
        <time>2023-11-26T12:48:02Z</time>
      </trkpt>
      <trkpt lat="43.62131" lon="6.61541">
        <ele>604.1</ele>
        <time>2023-11-26T12:48:03Z</time>
      </trkpt>
      <trkpt lat="43.62131" lon="6.61542">
        <ele>603.9</ele>
        <time>2023-11-26T12:48:04Z</time>
      </trkpt>
      <trkpt lat="43.62131" lon="6.61542">
        <ele>603.8</ele>
        <time>2023-11-26T12:48:05Z</time>
      </trkpt>
      <trkpt lat="43.6213" lon="6.61542">
        <ele>603.7</ele>
        <time>2023-11-26T12:48:06Z</time>
      </trkpt>
      <trkpt lat="43.6213" lon="6.61542">
        <ele>603.6</ele>
        <time>2023-11-26T12:48:07Z</time>
      </trkpt>
      <trkpt lat="43.6213" lon="6.61543">
        <ele>603.4</ele>
        <time>2023-11-26T12:48:08Z</time>
      </trkpt>
      <trkpt lat="43.6213" lon="6.61543">
        <ele>603.3</ele>
        <time>2023-11-26T12:48:09Z</time>
      </trkpt>
      <trkpt lat="43.6213" lon="6.61544">
        <ele>603.2</ele>
        <time>2023-11-26T12:48:10Z</time>
      </trkpt>
      <trkpt lat="43.6213" lon="6.61546">
        <ele>603</ele>
        <time>2023-11-26T12:48:11Z</time>
      </trkpt>
      <trkpt lat="43.62129" lon="6.61547">
        <ele>602.9</ele>
        <time>2023-11-26T12:48:12Z</time>
      </trkpt>
      <trkpt lat="43.62129" lon="6.61548">
        <ele>602.8</ele>
        <time>2023-11-26T12:48:13Z</time>
      </trkpt>
      <trkpt lat="43.62129" lon="6.61549">
        <ele>602.6</ele>
        <time>2023-11-26T12:48:14Z</time>
      </trkpt>
      <trkpt lat="43.62129" lon="6.6155">
        <ele>602.4</ele>
        <time>2023-11-26T12:48:15Z</time>
      </trkpt>
      <trkpt lat="43.62129" lon="6.61552">
        <ele>602.2</ele>
        <time>2023-11-26T12:48:16Z</time>
      </trkpt>
      <trkpt lat="43.62128" lon="6.61553">
        <ele>601.9</ele>
        <time>2023-11-26T12:48:17Z</time>
      </trkpt>
      <trkpt lat="43.62128" lon="6.61554">
        <ele>601.7</ele>
        <time>2023-11-26T12:48:18Z</time>
      </trkpt>
      <trkpt lat="43.62128" lon="6.61556">
        <ele>601.6</ele>
        <time>2023-11-26T12:48:19Z</time>
      </trkpt>
      <trkpt lat="43.62128" lon="6.61557">
        <ele>601.4</ele>
        <time>2023-11-26T12:48:20Z</time>
      </trkpt>
      <trkpt lat="43.62128" lon="6.61558">
        <ele>601.1</ele>
        <time>2023-11-26T12:48:21Z</time>
      </trkpt>
      <trkpt lat="43.62128" lon="6.61559">
        <ele>600.8</ele>
        <time>2023-11-26T12:48:22Z</time>
      </trkpt>
      <trkpt lat="43.62128" lon="6.6156">
        <ele>600.6</ele>
        <time>2023-11-26T12:48:23Z</time>
      </trkpt>
      <trkpt lat="43.62128" lon="6.61561">
        <ele>600.4</ele>
        <time>2023-11-26T12:48:24Z</time>
      </trkpt>
      <trkpt lat="43.62128" lon="6.61562">
        <ele>600.1</ele>
        <time>2023-11-26T12:48:25Z</time>
      </trkpt>
      <trkpt lat="43.62128" lon="6.61564">
        <ele>599.9</ele>
        <time>2023-11-26T12:48:26Z</time>
      </trkpt>
      <trkpt lat="43.62128" lon="6.61565">
        <ele>599.6</ele>
        <time>2023-11-26T12:48:27Z</time>
      </trkpt>
      <trkpt lat="43.62129" lon="6.61566">
        <ele>599.5</ele>
        <time>2023-11-26T12:48:28Z</time>
      </trkpt>
      <trkpt lat="43.62129" lon="6.61567">
        <ele>599.3</ele>
        <time>2023-11-26T12:48:29Z</time>
      </trkpt>
      <trkpt lat="43.62129" lon="6.61568">
        <ele>599.1</ele>
        <time>2023-11-26T12:48:30Z</time>
      </trkpt>
      <trkpt lat="43.62129" lon="6.61569">
        <ele>598.8</ele>
        <time>2023-11-26T12:48:31Z</time>
      </trkpt>
      <trkpt lat="43.6213" lon="6.6157">
        <ele>598.5</ele>
        <time>2023-11-26T12:48:32Z</time>
      </trkpt>
      <trkpt lat="43.6213" lon="6.61571">
        <ele>598.3</ele>
        <time>2023-11-26T12:48:33Z</time>
      </trkpt>
      <trkpt lat="43.6213" lon="6.61572">
        <ele>598.1</ele>
        <time>2023-11-26T12:48:34Z</time>
      </trkpt>
      <trkpt lat="43.6213" lon="6.61573">
        <ele>597.8</ele>
        <time>2023-11-26T12:48:35Z</time>
      </trkpt>
      <trkpt lat="43.6213" lon="6.61574">
        <ele>597.5</ele>
        <time>2023-11-26T12:48:36Z</time>
      </trkpt>
      <trkpt lat="43.6213" lon="6.61575">
        <ele>597.3</ele>
        <time>2023-11-26T12:48:37Z</time>
      </trkpt>
      <trkpt lat="43.62131" lon="6.61577">
        <ele>597</ele>
        <time>2023-11-26T12:48:38Z</time>
      </trkpt>
      <trkpt lat="43.62131" lon="6.61578">
        <ele>596.7</ele>
        <time>2023-11-26T12:48:39Z</time>
      </trkpt>
      <trkpt lat="43.62131" lon="6.61579">
        <ele>596.4</ele>
        <time>2023-11-26T12:48:40Z</time>
      </trkpt>
      <trkpt lat="43.62131" lon="6.61581">
        <ele>596.2</ele>
        <time>2023-11-26T12:48:41Z</time>
      </trkpt>
      <trkpt lat="43.62131" lon="6.61582">
        <ele>595.8</ele>
        <time>2023-11-26T12:48:42Z</time>
      </trkpt>
      <trkpt lat="43.62131" lon="6.61583">
        <ele>595.4</ele>
        <time>2023-11-26T12:48:43Z</time>
      </trkpt>
      <trkpt lat="43.62131" lon="6.61584">
        <ele>595.2</ele>
        <time>2023-11-26T12:48:44Z</time>
      </trkpt>
      <trkpt lat="43.62131" lon="6.61585">
        <ele>594.9</ele>
        <time>2023-11-26T12:48:45Z</time>
      </trkpt>
      <trkpt lat="43.62131" lon="6.61585">
        <ele>594.6</ele>
        <time>2023-11-26T12:48:46Z</time>
      </trkpt>
      <trkpt lat="43.62131" lon="6.61586">
        <ele>594.2</ele>
        <time>2023-11-26T12:48:47Z</time>
      </trkpt>
      <trkpt lat="43.6213" lon="6.61587">
        <ele>594</ele>
        <time>2023-11-26T12:48:48Z</time>
      </trkpt>
      <trkpt lat="43.62131" lon="6.61588">
        <ele>593.7</ele>
        <time>2023-11-26T12:48:49Z</time>
      </trkpt>
      <trkpt lat="43.62131" lon="6.61589">
        <ele>593.5</ele>
        <time>2023-11-26T12:48:50Z</time>
      </trkpt>
      <trkpt lat="43.6213" lon="6.6159">
        <ele>593.1</ele>
        <time>2023-11-26T12:48:51Z</time>
      </trkpt>
      <trkpt lat="43.62131" lon="6.61592">
        <ele>592.8</ele>
        <time>2023-11-26T12:48:52Z</time>
      </trkpt>
      <trkpt lat="43.62132" lon="6.61592">
        <ele>592.6</ele>
        <time>2023-11-26T12:48:53Z</time>
      </trkpt>
      <trkpt lat="43.62132" lon="6.61592">
        <ele>592.4</ele>
        <time>2023-11-26T12:48:54Z</time>
      </trkpt>
      <trkpt lat="43.62132" lon="6.61593">
        <ele>592.1</ele>
        <time>2023-11-26T12:48:55Z</time>
      </trkpt>
      <trkpt lat="43.62133" lon="6.61593">
        <ele>591.9</ele>
        <time>2023-11-26T12:48:56Z</time>
      </trkpt>
      <trkpt lat="43.62133" lon="6.61593">
        <ele>591.7</ele>
        <time>2023-11-26T12:48:57Z</time>
      </trkpt>
      <trkpt lat="43.62133" lon="6.61593">
        <ele>591.6</ele>
        <time>2023-11-26T12:48:58Z</time>
      </trkpt>
      <trkpt lat="43.62133" lon="6.61594">
        <ele>591.5</ele>
        <time>2023-11-26T12:48:59Z</time>
      </trkpt>
      <trkpt lat="43.62134" lon="6.61594">
        <ele>591.3</ele>
        <time>2023-11-26T12:49:00Z</time>
      </trkpt>
      <trkpt lat="43.62134" lon="6.61595">
        <ele>591.1</ele>
        <time>2023-11-26T12:49:01Z</time>
      </trkpt>
      <trkpt lat="43.62136" lon="6.61596">
        <ele>590.8</ele>
        <time>2023-11-26T12:49:02Z</time>
      </trkpt>
      <trkpt lat="43.62136" lon="6.61597">
        <ele>590.6</ele>
        <time>2023-11-26T12:49:03Z</time>
      </trkpt>
      <trkpt lat="43.62137" lon="6.61598">
        <ele>590.4</ele>
        <time>2023-11-26T12:49:04Z</time>
      </trkpt>
      <trkpt lat="43.62137" lon="6.61598">
        <ele>590.2</ele>
        <time>2023-11-26T12:49:05Z</time>
      </trkpt>
      <trkpt lat="43.62138" lon="6.61599">
        <ele>589.9</ele>
        <time>2023-11-26T12:49:06Z</time>
      </trkpt>
      <trkpt lat="43.62138" lon="6.616">
        <ele>589.6</ele>
        <time>2023-11-26T12:49:07Z</time>
      </trkpt>
      <trkpt lat="43.62138" lon="6.616">
        <ele>589.4</ele>
        <time>2023-11-26T12:49:08Z</time>
      </trkpt>
      <trkpt lat="43.62139" lon="6.61601">
        <ele>589.3</ele>
        <time>2023-11-26T12:49:09Z</time>
      </trkpt>
      <trkpt lat="43.62139" lon="6.61602">
        <ele>589.1</ele>
        <time>2023-11-26T12:49:10Z</time>
      </trkpt>
      <trkpt lat="43.6214" lon="6.61603">
        <ele>588.8</ele>
        <time>2023-11-26T12:49:11Z</time>
      </trkpt>
      <trkpt lat="43.6214" lon="6.61604">
        <ele>588.6</ele>
        <time>2023-11-26T12:49:12Z</time>
      </trkpt>
      <trkpt lat="43.6214" lon="6.61605">
        <ele>588.4</ele>
        <time>2023-11-26T12:49:13Z</time>
      </trkpt>
      <trkpt lat="43.62141" lon="6.61606">
        <ele>588.1</ele>
        <time>2023-11-26T12:49:14Z</time>
      </trkpt>
      <trkpt lat="43.62141" lon="6.61606">
        <ele>587.8</ele>
        <time>2023-11-26T12:49:15Z</time>
      </trkpt>
      <trkpt lat="43.62142" lon="6.61607">
        <ele>587.7</ele>
        <time>2023-11-26T12:49:16Z</time>
      </trkpt>
      <trkpt lat="43.62143" lon="6.61608">
        <ele>587.5</ele>
        <time>2023-11-26T12:49:17Z</time>
      </trkpt>
      <trkpt lat="43.62143" lon="6.61609">
        <ele>587.2</ele>
        <time>2023-11-26T12:49:18Z</time>
      </trkpt>
      <trkpt lat="43.62144" lon="6.61609">
        <ele>587</ele>
        <time>2023-11-26T12:49:19Z</time>
      </trkpt>
      <trkpt lat="43.62145" lon="6.61609">
        <ele>586.8</ele>
        <time>2023-11-26T12:49:20Z</time>
      </trkpt>
      <trkpt lat="43.62147" lon="6.6161">
        <ele>586.6</ele>
        <time>2023-11-26T12:49:21Z</time>
      </trkpt>
      <trkpt lat="43.62147" lon="6.61611">
        <ele>586.4</ele>
        <time>2023-11-26T12:49:22Z</time>
      </trkpt>
      <trkpt lat="43.62148" lon="6.61611">
        <ele>586.3</ele>
        <time>2023-11-26T12:49:23Z</time>
      </trkpt>
      <trkpt lat="43.62148" lon="6.61612">
        <ele>586.2</ele>
        <time>2023-11-26T12:49:24Z</time>
      </trkpt>
      <trkpt lat="43.62149" lon="6.61613">
        <ele>586.1</ele>
        <time>2023-11-26T12:49:25Z</time>
      </trkpt>
      <trkpt lat="43.62149" lon="6.61614">
        <ele>585.9</ele>
        <time>2023-11-26T12:49:26Z</time>
      </trkpt>
      <trkpt lat="43.6215" lon="6.61614">
        <ele>585.8</ele>
        <time>2023-11-26T12:49:27Z</time>
      </trkpt>
      <trkpt lat="43.6215" lon="6.61615">
        <ele>585.6</ele>
        <time>2023-11-26T12:49:28Z</time>
      </trkpt>
      <trkpt lat="43.6215" lon="6.61616">
        <ele>585.4</ele>
        <time>2023-11-26T12:49:29Z</time>
      </trkpt>
      <trkpt lat="43.6215" lon="6.61617">
        <ele>585.3</ele>
        <time>2023-11-26T12:49:30Z</time>
      </trkpt>
      <trkpt lat="43.6215" lon="6.61618">
        <ele>585.2</ele>
        <time>2023-11-26T12:49:31Z</time>
      </trkpt>
      <trkpt lat="43.6215" lon="6.61619">
        <ele>585</ele>
        <time>2023-11-26T12:49:32Z</time>
      </trkpt>
      <trkpt lat="43.62151" lon="6.6162">
        <ele>584.8</ele>
        <time>2023-11-26T12:49:33Z</time>
      </trkpt>
      <trkpt lat="43.62152" lon="6.61621">
        <ele>584.5</ele>
        <time>2023-11-26T12:49:34Z</time>
      </trkpt>
      <trkpt lat="43.62152" lon="6.61622">
        <ele>584.4</ele>
        <time>2023-11-26T12:49:35Z</time>
      </trkpt>
      <trkpt lat="43.62153" lon="6.61622">
        <ele>584.2</ele>
        <time>2023-11-26T12:49:36Z</time>
      </trkpt>
      <trkpt lat="43.62153" lon="6.61622">
        <ele>584.1</ele>
        <time>2023-11-26T12:49:37Z</time>
      </trkpt>
      <trkpt lat="43.62154" lon="6.61622">
        <ele>584</ele>
        <time>2023-11-26T12:49:38Z</time>
      </trkpt>
      <trkpt lat="43.62154" lon="6.61621">
        <ele>584</ele>
        <time>2023-11-26T12:49:39Z</time>
      </trkpt>
      <trkpt lat="43.62154" lon="6.61622">
        <ele>584</ele>
        <time>2023-11-26T12:49:40Z</time>
      </trkpt>
      <trkpt lat="43.62153" lon="6.61622">
        <ele>583.9</ele>
        <time>2023-11-26T12:49:41Z</time>
      </trkpt>
      <trkpt lat="43.62154" lon="6.61623">
        <ele>583.8</ele>
        <time>2023-11-26T12:49:42Z</time>
      </trkpt>
      <trkpt lat="43.62154" lon="6.61624">
        <ele>583.7</ele>
        <time>2023-11-26T12:49:43Z</time>
      </trkpt>
      <trkpt lat="43.62154" lon="6.61625">
        <ele>583.7</ele>
        <time>2023-11-26T12:49:44Z</time>
      </trkpt>
      <trkpt lat="43.62154" lon="6.61625">
        <ele>583.6</ele>
        <time>2023-11-26T12:49:45Z</time>
      </trkpt>
      <trkpt lat="43.62154" lon="6.61626">
        <ele>583.5</ele>
        <time>2023-11-26T12:49:46Z</time>
      </trkpt>
      <trkpt lat="43.62155" lon="6.61627">
        <ele>583.4</ele>
        <time>2023-11-26T12:49:47Z</time>
      </trkpt>
      <trkpt lat="43.62156" lon="6.61627">
        <ele>583.4</ele>
        <time>2023-11-26T12:49:48Z</time>
      </trkpt>
      <trkpt lat="43.62157" lon="6.61628">
        <ele>583.3</ele>
        <time>2023-11-26T12:49:49Z</time>
      </trkpt>
      <trkpt lat="43.62157" lon="6.61629">
        <ele>583.3</ele>
        <time>2023-11-26T12:49:50Z</time>
      </trkpt>
      <trkpt lat="43.62157" lon="6.61629">
        <ele>583.2</ele>
        <time>2023-11-26T12:49:51Z</time>
      </trkpt>
      <trkpt lat="43.62157" lon="6.6163">
        <ele>583.2</ele>
        <time>2023-11-26T12:49:52Z</time>
      </trkpt>
      <trkpt lat="43.62157" lon="6.6163">
        <ele>583.1</ele>
        <time>2023-11-26T12:49:53Z</time>
      </trkpt>
      <trkpt lat="43.62157" lon="6.6163">
        <ele>583.1</ele>
        <time>2023-11-26T12:49:54Z</time>
      </trkpt>
      <trkpt lat="43.62157" lon="6.6163">
        <ele>583.1</ele>
        <time>2023-11-26T12:49:55Z</time>
      </trkpt>
      <trkpt lat="43.62157" lon="6.61631">
        <ele>583.1</ele>
        <time>2023-11-26T12:49:56Z</time>
      </trkpt>
      <trkpt lat="43.62157" lon="6.61631">
        <ele>583.1</ele>
        <time>2023-11-26T12:49:57Z</time>
      </trkpt>
      <trkpt lat="43.62156" lon="6.61631">
        <ele>583.1</ele>
        <time>2023-11-26T12:49:58Z</time>
      </trkpt>
      <trkpt lat="43.62156" lon="6.61631">
        <ele>583</ele>
        <time>2023-11-26T12:49:59Z</time>
      </trkpt>
      <trkpt lat="43.62156" lon="6.61632">
        <ele>583</ele>
        <time>2023-11-26T12:50:00Z</time>
      </trkpt>
      <trkpt lat="43.62155" lon="6.61633">
        <ele>582.8</ele>
        <time>2023-11-26T12:50:01Z</time>
      </trkpt>
      <trkpt lat="43.62156" lon="6.61634">
        <ele>582.6</ele>
        <time>2023-11-26T12:50:02Z</time>
      </trkpt>
      <trkpt lat="43.62156" lon="6.61635">
        <ele>582.4</ele>
        <time>2023-11-26T12:50:03Z</time>
      </trkpt>
      <trkpt lat="43.62156" lon="6.61635">
        <ele>582.2</ele>
        <time>2023-11-26T12:50:04Z</time>
      </trkpt>
      <trkpt lat="43.62156" lon="6.61636">
        <ele>582</ele>
        <time>2023-11-26T12:50:05Z</time>
      </trkpt>
      <trkpt lat="43.62156" lon="6.61636">
        <ele>581.8</ele>
        <time>2023-11-26T12:50:06Z</time>
      </trkpt>
      <trkpt lat="43.62156" lon="6.61636">
        <ele>581.7</ele>
        <time>2023-11-26T12:50:07Z</time>
      </trkpt>
      <trkpt lat="43.62156" lon="6.61637">
        <ele>581.5</ele>
        <time>2023-11-26T12:50:08Z</time>
      </trkpt>
      <trkpt lat="43.62155" lon="6.61637">
        <ele>581.3</ele>
        <time>2023-11-26T12:50:09Z</time>
      </trkpt>
      <trkpt lat="43.62155" lon="6.61637">
        <ele>581.1</ele>
        <time>2023-11-26T12:50:10Z</time>
      </trkpt>
      <trkpt lat="43.62155" lon="6.61638">
        <ele>581</ele>
        <time>2023-11-26T12:50:11Z</time>
      </trkpt>
      <trkpt lat="43.62155" lon="6.61637">
        <ele>580.8</ele>
        <time>2023-11-26T12:50:12Z</time>
      </trkpt>
      <trkpt lat="43.62155" lon="6.61637">
        <ele>580.7</ele>
        <time>2023-11-26T12:50:13Z</time>
      </trkpt>
      <trkpt lat="43.62155" lon="6.61638">
        <ele>580.6</ele>
        <time>2023-11-26T12:50:14Z</time>
      </trkpt>
      <trkpt lat="43.62155" lon="6.61638">
        <ele>580.6</ele>
        <time>2023-11-26T12:50:15Z</time>
      </trkpt>
      <trkpt lat="43.62155" lon="6.61638">
        <ele>580.5</ele>
        <time>2023-11-26T12:50:16Z</time>
      </trkpt>
      <trkpt lat="43.62155" lon="6.61639">
        <ele>580.5</ele>
        <time>2023-11-26T12:50:17Z</time>
      </trkpt>
      <trkpt lat="43.62156" lon="6.61639">
        <ele>580.4</ele>
        <time>2023-11-26T12:50:18Z</time>
      </trkpt>
      <trkpt lat="43.62156" lon="6.61639">
        <ele>580.3</ele>
        <time>2023-11-26T12:50:19Z</time>
      </trkpt>
      <trkpt lat="43.62156" lon="6.61639">
        <ele>580.3</ele>
        <time>2023-11-26T12:50:20Z</time>
      </trkpt>
      <trkpt lat="43.62156" lon="6.6164">
        <ele>580.2</ele>
        <time>2023-11-26T12:50:21Z</time>
      </trkpt>
      <trkpt lat="43.62156" lon="6.6164">
        <ele>580.2</ele>
        <time>2023-11-26T12:50:22Z</time>
      </trkpt>
      <trkpt lat="43.62156" lon="6.6164">
        <ele>580</ele>
        <time>2023-11-26T12:50:23Z</time>
      </trkpt>
      <trkpt lat="43.62156" lon="6.6164">
        <ele>579.9</ele>
        <time>2023-11-26T12:50:24Z</time>
      </trkpt>
      <trkpt lat="43.62156" lon="6.61641">
        <ele>579.9</ele>
        <time>2023-11-26T12:50:25Z</time>
      </trkpt>
      <trkpt lat="43.62157" lon="6.61641">
        <ele>579.8</ele>
        <time>2023-11-26T12:50:26Z</time>
      </trkpt>
      <trkpt lat="43.62157" lon="6.61641">
        <ele>579.8</ele>
        <time>2023-11-26T12:50:27Z</time>
      </trkpt>
      <trkpt lat="43.62157" lon="6.61641">
        <ele>579.7</ele>
        <time>2023-11-26T12:50:28Z</time>
      </trkpt>
      <trkpt lat="43.62158" lon="6.61642">
        <ele>579.6</ele>
        <time>2023-11-26T12:50:29Z</time>
      </trkpt>
      <trkpt lat="43.62158" lon="6.61643">
        <ele>579.5</ele>
        <time>2023-11-26T12:50:30Z</time>
      </trkpt>
      <trkpt lat="43.62158" lon="6.61643">
        <ele>579.3</ele>
        <time>2023-11-26T12:50:31Z</time>
      </trkpt>
      <trkpt lat="43.62158" lon="6.61643">
        <ele>579.2</ele>
        <time>2023-11-26T12:50:32Z</time>
      </trkpt>
      <trkpt lat="43.62159" lon="6.61643">
        <ele>579</ele>
        <time>2023-11-26T12:50:33Z</time>
      </trkpt>
      <trkpt lat="43.62159" lon="6.61643">
        <ele>578.8</ele>
        <time>2023-11-26T12:50:34Z</time>
      </trkpt>
      <trkpt lat="43.62159" lon="6.61643">
        <ele>578.6</ele>
        <time>2023-11-26T12:50:35Z</time>
      </trkpt>
      <trkpt lat="43.62159" lon="6.61644">
        <ele>578.4</ele>
        <time>2023-11-26T12:50:36Z</time>
      </trkpt>
      <trkpt lat="43.62159" lon="6.61644">
        <ele>578.2</ele>
        <time>2023-11-26T12:50:37Z</time>
      </trkpt>
      <trkpt lat="43.62159" lon="6.61643">
        <ele>578.1</ele>
        <time>2023-11-26T12:50:38Z</time>
      </trkpt>
      <trkpt lat="43.62159" lon="6.61643">
        <ele>577.9</ele>
        <time>2023-11-26T12:50:39Z</time>
      </trkpt>
      <trkpt lat="43.62159" lon="6.61643">
        <ele>577.9</ele>
        <time>2023-11-26T12:50:40Z</time>
      </trkpt>
      <trkpt lat="43.62159" lon="6.61643">
        <ele>577.8</ele>
        <time>2023-11-26T12:50:41Z</time>
      </trkpt>
      <trkpt lat="43.62159" lon="6.61643">
        <ele>577.8</ele>
        <time>2023-11-26T12:50:42Z</time>
      </trkpt>
      <trkpt lat="43.62159" lon="6.61644">
        <ele>577.7</ele>
        <time>2023-11-26T12:50:43Z</time>
      </trkpt>
      <trkpt lat="43.62159" lon="6.61645">
        <ele>577.5</ele>
        <time>2023-11-26T12:50:44Z</time>
      </trkpt>
      <trkpt lat="43.62158" lon="6.61645">
        <ele>577.3</ele>
        <time>2023-11-26T12:50:45Z</time>
      </trkpt>
      <trkpt lat="43.62158" lon="6.61646">
        <ele>577</ele>
        <time>2023-11-26T12:50:46Z</time>
      </trkpt>
      <trkpt lat="43.62158" lon="6.61646">
        <ele>576.9</ele>
        <time>2023-11-26T12:50:47Z</time>
      </trkpt>
      <trkpt lat="43.62158" lon="6.61646">
        <ele>576.9</ele>
        <time>2023-11-26T12:50:48Z</time>
      </trkpt>
      <trkpt lat="43.62158" lon="6.61647">
        <ele>576.8</ele>
        <time>2023-11-26T12:50:49Z</time>
      </trkpt>
      <trkpt lat="43.62157" lon="6.61648">
        <ele>576.6</ele>
        <time>2023-11-26T12:50:50Z</time>
      </trkpt>
      <trkpt lat="43.62157" lon="6.61648">
        <ele>576.4</ele>
        <time>2023-11-26T12:50:51Z</time>
      </trkpt>
      <trkpt lat="43.62157" lon="6.61649">
        <ele>576.2</ele>
        <time>2023-11-26T12:50:52Z</time>
      </trkpt>
      <trkpt lat="43.62157" lon="6.61649">
        <ele>576.1</ele>
        <time>2023-11-26T12:50:53Z</time>
      </trkpt>
      <trkpt lat="43.62155" lon="6.6165">
        <ele>575.9</ele>
        <time>2023-11-26T12:50:54Z</time>
      </trkpt>
      <trkpt lat="43.62155" lon="6.6165">
        <ele>575.8</ele>
        <time>2023-11-26T12:50:55Z</time>
      </trkpt>
      <trkpt lat="43.62155" lon="6.61649">
        <ele>575.6</ele>
        <time>2023-11-26T12:50:56Z</time>
      </trkpt>
      <trkpt lat="43.62154" lon="6.6165">
        <ele>575.5</ele>
        <time>2023-11-26T12:50:57Z</time>
      </trkpt>
      <trkpt lat="43.62154" lon="6.6165">
        <ele>575.4</ele>
        <time>2023-11-26T12:50:58Z</time>
      </trkpt>
      <trkpt lat="43.62154" lon="6.6165">
        <ele>575.3</ele>
        <time>2023-11-26T12:50:59Z</time>
      </trkpt>
      <trkpt lat="43.62154" lon="6.6165">
        <ele>575.1</ele>
        <time>2023-11-26T12:51:00Z</time>
      </trkpt>
      <trkpt lat="43.62153" lon="6.61651">
        <ele>575</ele>
        <time>2023-11-26T12:51:01Z</time>
      </trkpt>
      <trkpt lat="43.62153" lon="6.61651">
        <ele>574.9</ele>
        <time>2023-11-26T12:51:02Z</time>
      </trkpt>
      <trkpt lat="43.62152" lon="6.61651">
        <ele>574.8</ele>
        <time>2023-11-26T12:51:03Z</time>
      </trkpt>
      <trkpt lat="43.62152" lon="6.61652">
        <ele>574.8</ele>
        <time>2023-11-26T12:51:04Z</time>
      </trkpt>
      <trkpt lat="43.62152" lon="6.61652">
        <ele>574.7</ele>
        <time>2023-11-26T12:51:05Z</time>
      </trkpt>
      <trkpt lat="43.62152" lon="6.61652">
        <ele>574.7</ele>
        <time>2023-11-26T12:51:06Z</time>
      </trkpt>
      <trkpt lat="43.62152" lon="6.61652">
        <ele>574.5</ele>
        <time>2023-11-26T12:51:07Z</time>
      </trkpt>
      <trkpt lat="43.62151" lon="6.61652">
        <ele>574.5</ele>
        <time>2023-11-26T12:51:08Z</time>
      </trkpt>
      <trkpt lat="43.62151" lon="6.61652">
        <ele>574.6</ele>
        <time>2023-11-26T12:51:09Z</time>
      </trkpt>
      <trkpt lat="43.62151" lon="6.61654">
        <ele>574.6</ele>
        <time>2023-11-26T12:51:10Z</time>
      </trkpt>
      <trkpt lat="43.62152" lon="6.61654">
        <ele>574.7</ele>
        <time>2023-11-26T12:51:11Z</time>
      </trkpt>
      <trkpt lat="43.62152" lon="6.61655">
        <ele>574.7</ele>
        <time>2023-11-26T12:51:12Z</time>
      </trkpt>
      <trkpt lat="43.62153" lon="6.61655">
        <ele>574.8</ele>
        <time>2023-11-26T12:51:13Z</time>
      </trkpt>
      <trkpt lat="43.62153" lon="6.61656">
        <ele>574.8</ele>
        <time>2023-11-26T12:51:14Z</time>
      </trkpt>
      <trkpt lat="43.62153" lon="6.61656">
        <ele>574.8</ele>
        <time>2023-11-26T12:51:15Z</time>
      </trkpt>
      <trkpt lat="43.62153" lon="6.61656">
        <ele>574.8</ele>
        <time>2023-11-26T12:51:16Z</time>
      </trkpt>
      <trkpt lat="43.62153" lon="6.61656">
        <ele>574.9</ele>
        <time>2023-11-26T12:51:17Z</time>
      </trkpt>
      <trkpt lat="43.62153" lon="6.61657">
        <ele>574.8</ele>
        <time>2023-11-26T12:51:18Z</time>
      </trkpt>
      <trkpt lat="43.62153" lon="6.61657">
        <ele>574.7</ele>
        <time>2023-11-26T12:51:19Z</time>
      </trkpt>
      <trkpt lat="43.62153" lon="6.61657">
        <ele>574.7</ele>
        <time>2023-11-26T12:51:20Z</time>
      </trkpt>
      <trkpt lat="43.62152" lon="6.61657">
        <ele>574.7</ele>
        <time>2023-11-26T12:51:21Z</time>
      </trkpt>
      <trkpt lat="43.62152" lon="6.61657">
        <ele>574.8</ele>
        <time>2023-11-26T12:51:22Z</time>
      </trkpt>
      <trkpt lat="43.62152" lon="6.61657">
        <ele>574.8</ele>
        <time>2023-11-26T12:51:23Z</time>
      </trkpt>
      <trkpt lat="43.62152" lon="6.61657">
        <ele>574.7</ele>
        <time>2023-11-26T12:51:24Z</time>
      </trkpt>
      <trkpt lat="43.62152" lon="6.61658">
        <ele>574.7</ele>
        <time>2023-11-26T12:51:25Z</time>
      </trkpt>
      <trkpt lat="43.62152" lon="6.61658">
        <ele>574.7</ele>
        <time>2023-11-26T12:51:26Z</time>
      </trkpt>
      <trkpt lat="43.62152" lon="6.61658">
        <ele>574.7</ele>
        <time>2023-11-26T12:51:27Z</time>
      </trkpt>
      <trkpt lat="43.62152" lon="6.61658">
        <ele>574.8</ele>
        <time>2023-11-26T12:51:28Z</time>
      </trkpt>
      <trkpt lat="43.62152" lon="6.61659">
        <ele>574.7</ele>
        <time>2023-11-26T12:51:29Z</time>
      </trkpt>
      <trkpt lat="43.62152" lon="6.61658">
        <ele>574.7</ele>
        <time>2023-11-26T12:51:30Z</time>
      </trkpt>
      <trkpt lat="43.62152" lon="6.61658">
        <ele>574.7</ele>
        <time>2023-11-26T12:51:31Z</time>
      </trkpt>
      <trkpt lat="43.62152" lon="6.61658">
        <ele>574.7</ele>
        <time>2023-11-26T12:51:32Z</time>
      </trkpt>
      <trkpt lat="43.62152" lon="6.61658">
        <ele>574.7</ele>
        <time>2023-11-26T12:51:33Z</time>
      </trkpt>
      <trkpt lat="43.62152" lon="6.61658">
        <ele>574.7</ele>
        <time>2023-11-26T12:51:34Z</time>
      </trkpt>
      <trkpt lat="43.62152" lon="6.61658">
        <ele>574.8</ele>
        <time>2023-11-26T12:51:35Z</time>
      </trkpt>
      <trkpt lat="43.62151" lon="6.61658">
        <ele>574.8</ele>
        <time>2023-11-26T12:51:36Z</time>
      </trkpt>
      <trkpt lat="43.62151" lon="6.61658">
        <ele>574.8</ele>
        <time>2023-11-26T12:51:37Z</time>
      </trkpt>
      <trkpt lat="43.62151" lon="6.61659">
        <ele>574.9</ele>
        <time>2023-11-26T12:51:38Z</time>
      </trkpt>
      <trkpt lat="43.62151" lon="6.61659">
        <ele>574.9</ele>
        <time>2023-11-26T12:51:39Z</time>
      </trkpt>
      <trkpt lat="43.62151" lon="6.61659">
        <ele>574.9</ele>
        <time>2023-11-26T12:51:40Z</time>
      </trkpt>
      <trkpt lat="43.62151" lon="6.61659">
        <ele>574.9</ele>
        <time>2023-11-26T12:51:41Z</time>
      </trkpt>
      <trkpt lat="43.6215" lon="6.6166">
        <ele>574.8</ele>
        <time>2023-11-26T12:51:42Z</time>
      </trkpt>
      <trkpt lat="43.6215" lon="6.6166">
        <ele>574.7</ele>
        <time>2023-11-26T12:51:43Z</time>
      </trkpt>
      <trkpt lat="43.6215" lon="6.6166">
        <ele>574.7</ele>
        <time>2023-11-26T12:51:44Z</time>
      </trkpt>
      <trkpt lat="43.6215" lon="6.6166">
        <ele>574.6</ele>
        <time>2023-11-26T12:51:45Z</time>
      </trkpt>
      <trkpt lat="43.62149" lon="6.6166">
        <ele>574.7</ele>
        <time>2023-11-26T12:51:46Z</time>
      </trkpt>
      <trkpt lat="43.62149" lon="6.6166">
        <ele>574.7</ele>
        <time>2023-11-26T12:51:47Z</time>
      </trkpt>
      <trkpt lat="43.62149" lon="6.6166">
        <ele>574.6</ele>
        <time>2023-11-26T12:51:48Z</time>
      </trkpt>
      <trkpt lat="43.6215" lon="6.6166">
        <ele>574.5</ele>
        <time>2023-11-26T12:51:49Z</time>
      </trkpt>
      <trkpt lat="43.6215" lon="6.61659">
        <ele>574.5</ele>
        <time>2023-11-26T12:51:50Z</time>
      </trkpt>
      <trkpt lat="43.62149" lon="6.61658">
        <ele>574.4</ele>
        <time>2023-11-26T12:51:51Z</time>
      </trkpt>
      <trkpt lat="43.62149" lon="6.61659">
        <ele>574.3</ele>
        <time>2023-11-26T12:51:52Z</time>
      </trkpt>
      <trkpt lat="43.62148" lon="6.6166">
        <ele>574.4</ele>
        <time>2023-11-26T12:51:53Z</time>
      </trkpt>
      <trkpt lat="43.62147" lon="6.6166">
        <ele>574.2</ele>
        <time>2023-11-26T12:51:54Z</time>
      </trkpt>
      <trkpt lat="43.62146" lon="6.61661">
        <ele>571.7</ele>
        <time>2023-11-26T12:51:55Z</time>
      </trkpt>
      <trkpt lat="43.62145" lon="6.61661">
        <ele>572.2</ele>
        <time>2023-11-26T12:51:56Z</time>
      </trkpt>
      <trkpt lat="43.62143" lon="6.61661">
        <ele>572.9</ele>
        <time>2023-11-26T12:51:57Z</time>
      </trkpt>
      <trkpt lat="43.62142" lon="6.61661">
        <ele>573.1</ele>
        <time>2023-11-26T12:51:58Z</time>
      </trkpt>
      <trkpt lat="43.62142" lon="6.61661">
        <ele>573.4</ele>
        <time>2023-11-26T12:51:59Z</time>
      </trkpt>
      <trkpt lat="43.62143" lon="6.61661">
        <ele>573.6</ele>
        <time>2023-11-26T12:52:00Z</time>
      </trkpt>
      <trkpt lat="43.62142" lon="6.61662">
        <ele>573.7</ele>
        <time>2023-11-26T12:52:01Z</time>
      </trkpt>
      <trkpt lat="43.62142" lon="6.61662">
        <ele>573.8</ele>
        <time>2023-11-26T12:52:02Z</time>
      </trkpt>
      <trkpt lat="43.62142" lon="6.61662">
        <ele>573.8</ele>
        <time>2023-11-26T12:52:03Z</time>
      </trkpt>
      <trkpt lat="43.6214" lon="6.61662">
        <ele>573.9</ele>
        <time>2023-11-26T12:52:04Z</time>
      </trkpt>
      <trkpt lat="43.6214" lon="6.61663">
        <ele>573.9</ele>
        <time>2023-11-26T12:52:05Z</time>
      </trkpt>
      <trkpt lat="43.6214" lon="6.61663">
        <ele>573.8</ele>
        <time>2023-11-26T12:52:06Z</time>
      </trkpt>
      <trkpt lat="43.6214" lon="6.61663">
        <ele>573.8</ele>
        <time>2023-11-26T12:52:07Z</time>
      </trkpt>
      <trkpt lat="43.6214" lon="6.61664">
        <ele>573.8</ele>
        <time>2023-11-26T12:52:08Z</time>
      </trkpt>
      <trkpt lat="43.62139" lon="6.61665">
        <ele>573.8</ele>
        <time>2023-11-26T12:52:09Z</time>
      </trkpt>
      <trkpt lat="43.62139" lon="6.61665">
        <ele>573.8</ele>
        <time>2023-11-26T12:52:10Z</time>
      </trkpt>
      <trkpt lat="43.62139" lon="6.61665">
        <ele>573.7</ele>
        <time>2023-11-26T12:52:11Z</time>
      </trkpt>
      <trkpt lat="43.62138" lon="6.61665">
        <ele>573.7</ele>
        <time>2023-11-26T12:52:12Z</time>
      </trkpt>
      <trkpt lat="43.62138" lon="6.61665">
        <ele>573.7</ele>
        <time>2023-11-26T12:52:13Z</time>
      </trkpt>
      <trkpt lat="43.62137" lon="6.61664">
        <ele>573.7</ele>
        <time>2023-11-26T12:52:14Z</time>
      </trkpt>
      <trkpt lat="43.62136" lon="6.61664">
        <ele>573.7</ele>
        <time>2023-11-26T12:52:15Z</time>
      </trkpt>
      <trkpt lat="43.62135" lon="6.61664">
        <ele>573.9</ele>
        <time>2023-11-26T12:52:16Z</time>
      </trkpt>
      <trkpt lat="43.62135" lon="6.61664">
        <ele>574.1</ele>
        <time>2023-11-26T12:52:17Z</time>
      </trkpt>
      <trkpt lat="43.62134" lon="6.61664">
        <ele>574.3</ele>
        <time>2023-11-26T12:52:18Z</time>
      </trkpt>
      <trkpt lat="43.62133" lon="6.61663">
        <ele>574.4</ele>
        <time>2023-11-26T12:52:19Z</time>
      </trkpt>
      <trkpt lat="43.62131" lon="6.61663">
        <ele>574.6</ele>
        <time>2023-11-26T12:52:20Z</time>
      </trkpt>
      <trkpt lat="43.6213" lon="6.61663">
        <ele>574.7</ele>
        <time>2023-11-26T12:52:21Z</time>
      </trkpt>
      <trkpt lat="43.6213" lon="6.61663">
        <ele>574.8</ele>
        <time>2023-11-26T12:52:22Z</time>
      </trkpt>
      <trkpt lat="43.62129" lon="6.61663">
        <ele>574.8</ele>
        <time>2023-11-26T12:52:23Z</time>
      </trkpt>
      <trkpt lat="43.62128" lon="6.61663">
        <ele>575</ele>
        <time>2023-11-26T12:52:24Z</time>
      </trkpt>
      <trkpt lat="43.62127" lon="6.61663">
        <ele>575.1</ele>
        <time>2023-11-26T12:52:25Z</time>
      </trkpt>
      <trkpt lat="43.62127" lon="6.61663">
        <ele>575.2</ele>
        <time>2023-11-26T12:52:26Z</time>
      </trkpt>
      <trkpt lat="43.62127" lon="6.61663">
        <ele>575.2</ele>
        <time>2023-11-26T12:52:27Z</time>
      </trkpt>
      <trkpt lat="43.62127" lon="6.61664">
        <ele>575.2</ele>
        <time>2023-11-26T12:52:28Z</time>
      </trkpt>
      <trkpt lat="43.62126" lon="6.61664">
        <ele>575.1</ele>
        <time>2023-11-26T12:52:29Z</time>
      </trkpt>
      <trkpt lat="43.62126" lon="6.61665">
        <ele>575.2</ele>
        <time>2023-11-26T12:52:30Z</time>
      </trkpt>
      <trkpt lat="43.62126" lon="6.61665">
        <ele>575.2</ele>
        <time>2023-11-26T12:52:31Z</time>
      </trkpt>
      <trkpt lat="43.62126" lon="6.61665">
        <ele>575.2</ele>
        <time>2023-11-26T12:52:32Z</time>
      </trkpt>
      <trkpt lat="43.62126" lon="6.61666">
        <ele>575.2</ele>
        <time>2023-11-26T12:52:33Z</time>
      </trkpt>
      <trkpt lat="43.62127" lon="6.61666">
        <ele>575.3</ele>
        <time>2023-11-26T12:52:34Z</time>
      </trkpt>
      <trkpt lat="43.62127" lon="6.61666">
        <ele>575.3</ele>
        <time>2023-11-26T12:52:35Z</time>
      </trkpt>
      <trkpt lat="43.62128" lon="6.61667">
        <ele>575.3</ele>
        <time>2023-11-26T12:52:36Z</time>
      </trkpt>
      <trkpt lat="43.62128" lon="6.61667">
        <ele>575.4</ele>
        <time>2023-11-26T12:52:37Z</time>
      </trkpt>
      <trkpt lat="43.62129" lon="6.61667">
        <ele>575.4</ele>
        <time>2023-11-26T12:52:38Z</time>
      </trkpt>
      <trkpt lat="43.62129" lon="6.61668">
        <ele>575.3</ele>
        <time>2023-11-26T12:52:39Z</time>
      </trkpt>
      <trkpt lat="43.6213" lon="6.61668">
        <ele>575.3</ele>
        <time>2023-11-26T12:52:40Z</time>
      </trkpt>
      <trkpt lat="43.62131" lon="6.61668">
        <ele>575.2</ele>
        <time>2023-11-26T12:52:41Z</time>
      </trkpt>
      <trkpt lat="43.62132" lon="6.61669">
        <ele>575.1</ele>
        <time>2023-11-26T12:52:42Z</time>
      </trkpt>
      <trkpt lat="43.62133" lon="6.61669">
        <ele>574.9</ele>
        <time>2023-11-26T12:52:43Z</time>
      </trkpt>
      <trkpt lat="43.62134" lon="6.6167">
        <ele>574.7</ele>
        <time>2023-11-26T12:52:44Z</time>
      </trkpt>
      <trkpt lat="43.62134" lon="6.61671">
        <ele>574.5</ele>
        <time>2023-11-26T12:52:45Z</time>
      </trkpt>
      <trkpt lat="43.62135" lon="6.61672">
        <ele>574.3</ele>
        <time>2023-11-26T12:52:46Z</time>
      </trkpt>
      <trkpt lat="43.62136" lon="6.61673">
        <ele>574.1</ele>
        <time>2023-11-26T12:52:47Z</time>
      </trkpt>
      <trkpt lat="43.62137" lon="6.61674">
        <ele>574</ele>
        <time>2023-11-26T12:52:48Z</time>
      </trkpt>
      <trkpt lat="43.62138" lon="6.61675">
        <ele>573.9</ele>
        <time>2023-11-26T12:52:49Z</time>
      </trkpt>
      <trkpt lat="43.62139" lon="6.61676">
        <ele>573.8</ele>
        <time>2023-11-26T12:52:50Z</time>
      </trkpt>
      <trkpt lat="43.62139" lon="6.61676">
        <ele>573.7</ele>
        <time>2023-11-26T12:52:51Z</time>
      </trkpt>
      <trkpt lat="43.62141" lon="6.61677">
        <ele>573.5</ele>
        <time>2023-11-26T12:52:52Z</time>
      </trkpt>
      <trkpt lat="43.62141" lon="6.61677">
        <ele>573.4</ele>
        <time>2023-11-26T12:52:53Z</time>
      </trkpt>
      <trkpt lat="43.62142" lon="6.61676">
        <ele>573.3</ele>
        <time>2023-11-26T12:52:54Z</time>
      </trkpt>
      <trkpt lat="43.62143" lon="6.61677">
        <ele>573.2</ele>
        <time>2023-11-26T12:52:55Z</time>
      </trkpt>
      <trkpt lat="43.62144" lon="6.61676">
        <ele>573.1</ele>
        <time>2023-11-26T12:52:56Z</time>
      </trkpt>
      <trkpt lat="43.62145" lon="6.61676">
        <ele>572.9</ele>
        <time>2023-11-26T12:52:57Z</time>
      </trkpt>
      <trkpt lat="43.62146" lon="6.61676">
        <ele>572.8</ele>
        <time>2023-11-26T12:52:58Z</time>
      </trkpt>
      <trkpt lat="43.62146" lon="6.61676">
        <ele>572.6</ele>
        <time>2023-11-26T12:52:59Z</time>
      </trkpt>
      <trkpt lat="43.62147" lon="6.61676">
        <ele>572.4</ele>
        <time>2023-11-26T12:53:00Z</time>
      </trkpt>
      <trkpt lat="43.62147" lon="6.61675">
        <ele>572.3</ele>
        <time>2023-11-26T12:53:01Z</time>
      </trkpt>
      <trkpt lat="43.62148" lon="6.61675">
        <ele>572.2</ele>
        <time>2023-11-26T12:53:02Z</time>
      </trkpt>
      <trkpt lat="43.6215" lon="6.61675">
        <ele>572</ele>
        <time>2023-11-26T12:53:03Z</time>
      </trkpt>
      <trkpt lat="43.6215" lon="6.61676">
        <ele>571.7</ele>
        <time>2023-11-26T12:53:04Z</time>
      </trkpt>
      <trkpt lat="43.62151" lon="6.61677">
        <ele>571.5</ele>
        <time>2023-11-26T12:53:05Z</time>
      </trkpt>
      <trkpt lat="43.62151" lon="6.61677">
        <ele>571.3</ele>
        <time>2023-11-26T12:53:06Z</time>
      </trkpt>
      <trkpt lat="43.62151" lon="6.61678">
        <ele>571.1</ele>
        <time>2023-11-26T12:53:07Z</time>
      </trkpt>
      <trkpt lat="43.62151" lon="6.61677">
        <ele>571</ele>
        <time>2023-11-26T12:53:08Z</time>
      </trkpt>
      <trkpt lat="43.62153" lon="6.61677">
        <ele>571</ele>
        <time>2023-11-26T12:53:09Z</time>
      </trkpt>
      <trkpt lat="43.62153" lon="6.61678">
        <ele>570.8</ele>
        <time>2023-11-26T12:53:10Z</time>
      </trkpt>
      <trkpt lat="43.62155" lon="6.61678">
        <ele>570.6</ele>
        <time>2023-11-26T12:53:11Z</time>
      </trkpt>
      <trkpt lat="43.62155" lon="6.61679">
        <ele>570.4</ele>
        <time>2023-11-26T12:53:12Z</time>
      </trkpt>
      <trkpt lat="43.62156" lon="6.61679">
        <ele>570.2</ele>
        <time>2023-11-26T12:53:13Z</time>
      </trkpt>
      <trkpt lat="43.62156" lon="6.6168">
        <ele>570</ele>
        <time>2023-11-26T12:53:14Z</time>
      </trkpt>
      <trkpt lat="43.62157" lon="6.6168">
        <ele>569.7</ele>
        <time>2023-11-26T12:53:15Z</time>
      </trkpt>
      <trkpt lat="43.62158" lon="6.61681">
        <ele>569.5</ele>
        <time>2023-11-26T12:53:16Z</time>
      </trkpt>
      <trkpt lat="43.62159" lon="6.61682">
        <ele>569.2</ele>
        <time>2023-11-26T12:53:17Z</time>
      </trkpt>
      <trkpt lat="43.6216" lon="6.61683">
        <ele>568.9</ele>
        <time>2023-11-26T12:53:18Z</time>
      </trkpt>
      <trkpt lat="43.62161" lon="6.61683">
        <ele>568.7</ele>
        <time>2023-11-26T12:53:19Z</time>
      </trkpt>
      <trkpt lat="43.62161" lon="6.61683">
        <ele>568.6</ele>
        <time>2023-11-26T12:53:20Z</time>
      </trkpt>
      <trkpt lat="43.62162" lon="6.61682">
        <ele>568.3</ele>
        <time>2023-11-26T12:53:21Z</time>
      </trkpt>
      <trkpt lat="43.62163" lon="6.61682">
        <ele>568.1</ele>
        <time>2023-11-26T12:53:22Z</time>
      </trkpt>
      <trkpt lat="43.62165" lon="6.61683">
        <ele>568</ele>
        <time>2023-11-26T12:53:23Z</time>
      </trkpt>
      <trkpt lat="43.62165" lon="6.61684">
        <ele>567.8</ele>
        <time>2023-11-26T12:53:24Z</time>
      </trkpt>
      <trkpt lat="43.62166" lon="6.61684">
        <ele>567.4</ele>
        <time>2023-11-26T12:53:25Z</time>
      </trkpt>
      <trkpt lat="43.62168" lon="6.61684">
        <ele>567.1</ele>
        <time>2023-11-26T12:53:26Z</time>
      </trkpt>
      <trkpt lat="43.62168" lon="6.61685">
        <ele>567</ele>
        <time>2023-11-26T12:53:27Z</time>
      </trkpt>
      <trkpt lat="43.62169" lon="6.61685">
        <ele>567</ele>
        <time>2023-11-26T12:53:28Z</time>
      </trkpt>
      <trkpt lat="43.6217" lon="6.61685">
        <ele>566.9</ele>
        <time>2023-11-26T12:53:29Z</time>
      </trkpt>
      <trkpt lat="43.6217" lon="6.61686">
        <ele>566.8</ele>
        <time>2023-11-26T12:53:30Z</time>
      </trkpt>
      <trkpt lat="43.62171" lon="6.61687">
        <ele>566.7</ele>
        <time>2023-11-26T12:53:31Z</time>
      </trkpt>
      <trkpt lat="43.62171" lon="6.61687">
        <ele>566.5</ele>
        <time>2023-11-26T12:53:32Z</time>
      </trkpt>
      <trkpt lat="43.62172" lon="6.61688">
        <ele>566.4</ele>
        <time>2023-11-26T12:53:33Z</time>
      </trkpt>
      <trkpt lat="43.62172" lon="6.61689">
        <ele>566.3</ele>
        <time>2023-11-26T12:53:34Z</time>
      </trkpt>
      <trkpt lat="43.62171" lon="6.61689">
        <ele>566.1</ele>
        <time>2023-11-26T12:53:35Z</time>
      </trkpt>
      <trkpt lat="43.62171" lon="6.61689">
        <ele>565.9</ele>
        <time>2023-11-26T12:53:36Z</time>
      </trkpt>
      <trkpt lat="43.62171" lon="6.61689">
        <ele>565.7</ele>
        <time>2023-11-26T12:53:37Z</time>
      </trkpt>
      <trkpt lat="43.62171" lon="6.61688">
        <ele>565.6</ele>
        <time>2023-11-26T12:53:38Z</time>
      </trkpt>
      <trkpt lat="43.62171" lon="6.61688">
        <ele>565.5</ele>
        <time>2023-11-26T12:53:39Z</time>
      </trkpt>
      <trkpt lat="43.62171" lon="6.61688">
        <ele>565.3</ele>
        <time>2023-11-26T12:53:40Z</time>
      </trkpt>
      <trkpt lat="43.6217" lon="6.61687">
        <ele>565.2</ele>
        <time>2023-11-26T12:53:41Z</time>
      </trkpt>
      <trkpt lat="43.6217" lon="6.61687">
        <ele>565.1</ele>
        <time>2023-11-26T12:53:42Z</time>
      </trkpt>
      <trkpt lat="43.6217" lon="6.61688">
        <ele>565</ele>
        <time>2023-11-26T12:53:43Z</time>
      </trkpt>
      <trkpt lat="43.62169" lon="6.61688">
        <ele>564.9</ele>
        <time>2023-11-26T12:53:44Z</time>
      </trkpt>
      <trkpt lat="43.62167" lon="6.61688">
        <ele>564.7</ele>
        <time>2023-11-26T12:53:45Z</time>
      </trkpt>
      <trkpt lat="43.62167" lon="6.61688">
        <ele>564.5</ele>
        <time>2023-11-26T12:53:46Z</time>
      </trkpt>
      <trkpt lat="43.62167" lon="6.61689">
        <ele>564.4</ele>
        <time>2023-11-26T12:53:47Z</time>
      </trkpt>
      <trkpt lat="43.62166" lon="6.61689">
        <ele>564.4</ele>
        <time>2023-11-26T12:53:48Z</time>
      </trkpt>
      <trkpt lat="43.62165" lon="6.61689">
        <ele>564.3</ele>
        <time>2023-11-26T12:53:49Z</time>
      </trkpt>
      <trkpt lat="43.62164" lon="6.61689">
        <ele>564.1</ele>
        <time>2023-11-26T12:53:50Z</time>
      </trkpt>
      <trkpt lat="43.62163" lon="6.61689">
        <ele>564</ele>
        <time>2023-11-26T12:53:51Z</time>
      </trkpt>
      <trkpt lat="43.62162" lon="6.61689">
        <ele>563.8</ele>
        <time>2023-11-26T12:53:52Z</time>
      </trkpt>
      <trkpt lat="43.62161" lon="6.61689">
        <ele>563.8</ele>
        <time>2023-11-26T12:53:53Z</time>
      </trkpt>
      <trkpt lat="43.62159" lon="6.61689">
        <ele>563.7</ele>
        <time>2023-11-26T12:53:54Z</time>
      </trkpt>
      <trkpt lat="43.62158" lon="6.61689">
        <ele>563.5</ele>
        <time>2023-11-26T12:53:55Z</time>
      </trkpt>
      <trkpt lat="43.62157" lon="6.6169">
        <ele>563.4</ele>
        <time>2023-11-26T12:53:56Z</time>
      </trkpt>
      <trkpt lat="43.62155" lon="6.61689">
        <ele>563.2</ele>
        <time>2023-11-26T12:53:57Z</time>
      </trkpt>
      <trkpt lat="43.62155" lon="6.61689">
        <ele>563.1</ele>
        <time>2023-11-26T12:53:58Z</time>
      </trkpt>
      <trkpt lat="43.62154" lon="6.6169">
        <ele>562.9</ele>
        <time>2023-11-26T12:53:59Z</time>
      </trkpt>
      <trkpt lat="43.62155" lon="6.6169">
        <ele>562.7</ele>
        <time>2023-11-26T12:54:00Z</time>
      </trkpt>
      <trkpt lat="43.62154" lon="6.61691">
        <ele>562.6</ele>
        <time>2023-11-26T12:54:01Z</time>
      </trkpt>
      <trkpt lat="43.62154" lon="6.61691">
        <ele>562.5</ele>
        <time>2023-11-26T12:54:02Z</time>
      </trkpt>
      <trkpt lat="43.62154" lon="6.61692">
        <ele>562.4</ele>
        <time>2023-11-26T12:54:03Z</time>
      </trkpt>
      <trkpt lat="43.62153" lon="6.61694">
        <ele>562.2</ele>
        <time>2023-11-26T12:54:04Z</time>
      </trkpt>
      <trkpt lat="43.62153" lon="6.61694">
        <ele>562.1</ele>
        <time>2023-11-26T12:54:05Z</time>
      </trkpt>
      <trkpt lat="43.62152" lon="6.61695">
        <ele>562</ele>
        <time>2023-11-26T12:54:06Z</time>
      </trkpt>
      <trkpt lat="43.62151" lon="6.61695">
        <ele>562</ele>
        <time>2023-11-26T12:54:07Z</time>
      </trkpt>
      <trkpt lat="43.62151" lon="6.61695">
        <ele>562</ele>
        <time>2023-11-26T12:54:08Z</time>
      </trkpt>
      <trkpt lat="43.62148" lon="6.61695">
        <ele>561.9</ele>
        <time>2023-11-26T12:54:09Z</time>
      </trkpt>
      <trkpt lat="43.62147" lon="6.61696">
        <ele>561.8</ele>
        <time>2023-11-26T12:54:10Z</time>
      </trkpt>
      <trkpt lat="43.62146" lon="6.61697">
        <ele>561.7</ele>
        <time>2023-11-26T12:54:11Z</time>
      </trkpt>
      <trkpt lat="43.62145" lon="6.61697">
        <ele>561.6</ele>
        <time>2023-11-26T12:54:12Z</time>
      </trkpt>
      <trkpt lat="43.62143" lon="6.61699">
        <ele>561.4</ele>
        <time>2023-11-26T12:54:13Z</time>
      </trkpt>
      <trkpt lat="43.62142" lon="6.61699">
        <ele>561.3</ele>
        <time>2023-11-26T12:54:14Z</time>
      </trkpt>
      <trkpt lat="43.62139" lon="6.617">
        <ele>561.3</ele>
        <time>2023-11-26T12:54:15Z</time>
      </trkpt>
      <trkpt lat="43.62139" lon="6.61701">
        <ele>561.2</ele>
        <time>2023-11-26T12:54:16Z</time>
      </trkpt>
      <trkpt lat="43.62138" lon="6.617">
        <ele>561.2</ele>
        <time>2023-11-26T12:54:17Z</time>
      </trkpt>
      <trkpt lat="43.62138" lon="6.61701">
        <ele>561.2</ele>
        <time>2023-11-26T12:54:18Z</time>
      </trkpt>
      <trkpt lat="43.62138" lon="6.61701">
        <ele>561.1</ele>
        <time>2023-11-26T12:54:19Z</time>
      </trkpt>
      <trkpt lat="43.62137" lon="6.61701">
        <ele>561.1</ele>
        <time>2023-11-26T12:54:20Z</time>
      </trkpt>
      <trkpt lat="43.62136" lon="6.61701">
        <ele>561</ele>
        <time>2023-11-26T12:54:21Z</time>
      </trkpt>
      <trkpt lat="43.62135" lon="6.61702">
        <ele>561</ele>
        <time>2023-11-26T12:54:22Z</time>
      </trkpt>
      <trkpt lat="43.62134" lon="6.61702">
        <ele>560.9</ele>
        <time>2023-11-26T12:54:23Z</time>
      </trkpt>
      <trkpt lat="43.62134" lon="6.61702">
        <ele>560.9</ele>
        <time>2023-11-26T12:54:24Z</time>
      </trkpt>
      <trkpt lat="43.62133" lon="6.61704">
        <ele>560.9</ele>
        <time>2023-11-26T12:54:25Z</time>
      </trkpt>
      <trkpt lat="43.62133" lon="6.61705">
        <ele>561</ele>
        <time>2023-11-26T12:54:26Z</time>
      </trkpt>
      <trkpt lat="43.62134" lon="6.61706">
        <ele>561</ele>
        <time>2023-11-26T12:54:27Z</time>
      </trkpt>
      <trkpt lat="43.62134" lon="6.61707">
        <ele>561</ele>
        <time>2023-11-26T12:54:28Z</time>
      </trkpt>
      <trkpt lat="43.62131" lon="6.61708">
        <ele>561</ele>
        <time>2023-11-26T12:54:29Z</time>
      </trkpt>
      <trkpt lat="43.6213" lon="6.61708">
        <ele>560.9</ele>
        <time>2023-11-26T12:54:30Z</time>
      </trkpt>
      <trkpt lat="43.62128" lon="6.61709">
        <ele>561</ele>
        <time>2023-11-26T12:54:31Z</time>
      </trkpt>
      <trkpt lat="43.62126" lon="6.61709">
        <ele>561</ele>
        <time>2023-11-26T12:54:32Z</time>
      </trkpt>
      <trkpt lat="43.62123" lon="6.61709">
        <ele>561</ele>
        <time>2023-11-26T12:54:33Z</time>
      </trkpt>
      <trkpt lat="43.62121" lon="6.6171">
        <ele>561</ele>
        <time>2023-11-26T12:54:34Z</time>
      </trkpt>
      <trkpt lat="43.62119" lon="6.61711">
        <ele>561</ele>
        <time>2023-11-26T12:54:35Z</time>
      </trkpt>
      <trkpt lat="43.62117" lon="6.61712">
        <ele>560.9</ele>
        <time>2023-11-26T12:54:36Z</time>
      </trkpt>
      <trkpt lat="43.62116" lon="6.61712">
        <ele>561</ele>
        <time>2023-11-26T12:54:37Z</time>
      </trkpt>
      <trkpt lat="43.62114" lon="6.61712">
        <ele>561</ele>
        <time>2023-11-26T12:54:38Z</time>
      </trkpt>
      <trkpt lat="43.62113" lon="6.61712">
        <ele>561</ele>
        <time>2023-11-26T12:54:39Z</time>
      </trkpt>
      <trkpt lat="43.62112" lon="6.61711">
        <ele>561</ele>
        <time>2023-11-26T12:54:40Z</time>
      </trkpt>
      <trkpt lat="43.62111" lon="6.61711">
        <ele>561</ele>
        <time>2023-11-26T12:54:41Z</time>
      </trkpt>
      <trkpt lat="43.62109" lon="6.61711">
        <ele>561</ele>
        <time>2023-11-26T12:54:42Z</time>
      </trkpt>
      <trkpt lat="43.62108" lon="6.61711">
        <ele>561.1</ele>
        <time>2023-11-26T12:54:43Z</time>
      </trkpt>
      <trkpt lat="43.62107" lon="6.61711">
        <ele>561.2</ele>
        <time>2023-11-26T12:54:44Z</time>
      </trkpt>
      <trkpt lat="43.62106" lon="6.61711">
        <ele>561.2</ele>
        <time>2023-11-26T12:54:45Z</time>
      </trkpt>
      <trkpt lat="43.62104" lon="6.61711">
        <ele>561.1</ele>
        <time>2023-11-26T12:54:46Z</time>
      </trkpt>
      <trkpt lat="43.62103" lon="6.61711">
        <ele>561.1</ele>
        <time>2023-11-26T12:54:47Z</time>
      </trkpt>
      <trkpt lat="43.62102" lon="6.61711">
        <ele>561.2</ele>
        <time>2023-11-26T12:54:48Z</time>
      </trkpt>
      <trkpt lat="43.62102" lon="6.6171">
        <ele>561.2</ele>
        <time>2023-11-26T12:54:49Z</time>
      </trkpt>
      <trkpt lat="43.621" lon="6.61709">
        <ele>561.2</ele>
        <time>2023-11-26T12:54:50Z</time>
      </trkpt>
      <trkpt lat="43.62099" lon="6.61709">
        <ele>561.3</ele>
        <time>2023-11-26T12:54:51Z</time>
      </trkpt>
      <trkpt lat="43.62098" lon="6.61708">
        <ele>561.3</ele>
        <time>2023-11-26T12:54:52Z</time>
      </trkpt>
      <trkpt lat="43.62096" lon="6.61707">
        <ele>561.3</ele>
        <time>2023-11-26T12:54:53Z</time>
      </trkpt>
      <trkpt lat="43.62095" lon="6.61707">
        <ele>561.3</ele>
        <time>2023-11-26T12:54:54Z</time>
      </trkpt>
      <trkpt lat="43.62094" lon="6.61706">
        <ele>561.2</ele>
        <time>2023-11-26T12:54:55Z</time>
      </trkpt>
      <trkpt lat="43.62093" lon="6.61705">
        <ele>561.2</ele>
        <time>2023-11-26T12:54:56Z</time>
      </trkpt>
      <trkpt lat="43.62091" lon="6.61703">
        <ele>561.2</ele>
        <time>2023-11-26T12:54:57Z</time>
      </trkpt>
      <trkpt lat="43.6209" lon="6.61703">
        <ele>561.2</ele>
        <time>2023-11-26T12:54:58Z</time>
      </trkpt>
      <trkpt lat="43.6209" lon="6.61703">
        <ele>561.2</ele>
        <time>2023-11-26T12:54:59Z</time>
      </trkpt>
      <trkpt lat="43.6209" lon="6.61702">
        <ele>561.1</ele>
        <time>2023-11-26T12:55:00Z</time>
      </trkpt>
      <trkpt lat="43.62089" lon="6.61702">
        <ele>561.2</ele>
        <time>2023-11-26T12:55:01Z</time>
      </trkpt>
      <trkpt lat="43.62087" lon="6.61701">
        <ele>561.2</ele>
        <time>2023-11-26T12:55:02Z</time>
      </trkpt>
      <trkpt lat="43.62086" lon="6.61701">
        <ele>561.1</ele>
        <time>2023-11-26T12:55:03Z</time>
      </trkpt>
      <trkpt lat="43.62086" lon="6.61701">
        <ele>561.1</ele>
        <time>2023-11-26T12:55:04Z</time>
      </trkpt>
      <trkpt lat="43.62084" lon="6.61704">
        <ele>561</ele>
        <time>2023-11-26T12:55:05Z</time>
      </trkpt>
      <trkpt lat="43.62084" lon="6.61705">
        <ele>561</ele>
        <time>2023-11-26T12:55:06Z</time>
      </trkpt>
      <trkpt lat="43.62083" lon="6.61704">
        <ele>560.9</ele>
        <time>2023-11-26T12:55:07Z</time>
      </trkpt>
      <trkpt lat="43.62082" lon="6.61704">
        <ele>560.8</ele>
        <time>2023-11-26T12:55:08Z</time>
      </trkpt>
      <trkpt lat="43.6208" lon="6.61703">
        <ele>560.9</ele>
        <time>2023-11-26T12:55:09Z</time>
      </trkpt>
      <trkpt lat="43.62079" lon="6.61703">
        <ele>560.7</ele>
        <time>2023-11-26T12:55:10Z</time>
      </trkpt>
      <trkpt lat="43.62078" lon="6.61703">
        <ele>560.7</ele>
        <time>2023-11-26T12:55:11Z</time>
      </trkpt>
      <trkpt lat="43.62076" lon="6.61702">
        <ele>560.6</ele>
        <time>2023-11-26T12:55:12Z</time>
      </trkpt>
      <trkpt lat="43.62075" lon="6.61702">
        <ele>560.6</ele>
        <time>2023-11-26T12:55:13Z</time>
      </trkpt>
      <trkpt lat="43.62073" lon="6.61702">
        <ele>560.5</ele>
        <time>2023-11-26T12:55:14Z</time>
      </trkpt>
      <trkpt lat="43.62072" lon="6.61702">
        <ele>560.5</ele>
        <time>2023-11-26T12:55:15Z</time>
      </trkpt>
      <trkpt lat="43.6207" lon="6.61702">
        <ele>560.4</ele>
        <time>2023-11-26T12:55:16Z</time>
      </trkpt>
      <trkpt lat="43.62068" lon="6.61702">
        <ele>560.4</ele>
        <time>2023-11-26T12:55:17Z</time>
      </trkpt>
      <trkpt lat="43.62067" lon="6.61702">
        <ele>560.4</ele>
        <time>2023-11-26T12:55:18Z</time>
      </trkpt>
      <trkpt lat="43.62066" lon="6.61702">
        <ele>560.3</ele>
        <time>2023-11-26T12:55:19Z</time>
      </trkpt>
      <trkpt lat="43.62065" lon="6.61702">
        <ele>560.3</ele>
        <time>2023-11-26T12:55:20Z</time>
      </trkpt>
      <trkpt lat="43.62064" lon="6.617">
        <ele>560.2</ele>
        <time>2023-11-26T12:55:21Z</time>
      </trkpt>
      <trkpt lat="43.62063" lon="6.617">
        <ele>560.1</ele>
        <time>2023-11-26T12:55:22Z</time>
      </trkpt>
      <trkpt lat="43.62062" lon="6.61699">
        <ele>560</ele>
        <time>2023-11-26T12:55:23Z</time>
      </trkpt>
      <trkpt lat="43.6206" lon="6.61699">
        <ele>560</ele>
        <time>2023-11-26T12:55:24Z</time>
      </trkpt>
      <trkpt lat="43.62059" lon="6.61699">
        <ele>560</ele>
        <time>2023-11-26T12:55:25Z</time>
      </trkpt>
      <trkpt lat="43.62057" lon="6.61699">
        <ele>559.9</ele>
        <time>2023-11-26T12:55:26Z</time>
      </trkpt>
      <trkpt lat="43.62056" lon="6.61699">
        <ele>559.8</ele>
        <time>2023-11-26T12:55:27Z</time>
      </trkpt>
      <trkpt lat="43.62055" lon="6.61699">
        <ele>559.8</ele>
        <time>2023-11-26T12:55:28Z</time>
      </trkpt>
      <trkpt lat="43.62053" lon="6.61699">
        <ele>559.7</ele>
        <time>2023-11-26T12:55:29Z</time>
      </trkpt>
      <trkpt lat="43.62053" lon="6.61699">
        <ele>559.6</ele>
        <time>2023-11-26T12:55:30Z</time>
      </trkpt>
      <trkpt lat="43.62052" lon="6.617">
        <ele>559.5</ele>
        <time>2023-11-26T12:55:31Z</time>
      </trkpt>
      <trkpt lat="43.62051" lon="6.617">
        <ele>559.4</ele>
        <time>2023-11-26T12:55:32Z</time>
      </trkpt>
      <trkpt lat="43.6205" lon="6.617">
        <ele>559.3</ele>
        <time>2023-11-26T12:55:33Z</time>
      </trkpt>
      <trkpt lat="43.62049" lon="6.617">
        <ele>559.2</ele>
        <time>2023-11-26T12:55:34Z</time>
      </trkpt>
      <trkpt lat="43.62048" lon="6.617">
        <ele>559.2</ele>
        <time>2023-11-26T12:55:35Z</time>
      </trkpt>
      <trkpt lat="43.62047" lon="6.617">
        <ele>559.1</ele>
        <time>2023-11-26T12:55:36Z</time>
      </trkpt>
      <trkpt lat="43.62046" lon="6.617">
        <ele>559.1</ele>
        <time>2023-11-26T12:55:37Z</time>
      </trkpt>
      <trkpt lat="43.62046" lon="6.617">
        <ele>559</ele>
        <time>2023-11-26T12:55:38Z</time>
      </trkpt>
      <trkpt lat="43.62045" lon="6.61699">
        <ele>559</ele>
        <time>2023-11-26T12:55:39Z</time>
      </trkpt>
      <trkpt lat="43.62044" lon="6.61699">
        <ele>559</ele>
        <time>2023-11-26T12:55:40Z</time>
      </trkpt>
      <trkpt lat="43.62044" lon="6.61699">
        <ele>558.9</ele>
        <time>2023-11-26T12:55:41Z</time>
      </trkpt>
      <trkpt lat="43.62043" lon="6.61699">
        <ele>558.9</ele>
        <time>2023-11-26T12:55:42Z</time>
      </trkpt>
      <trkpt lat="43.62042" lon="6.61698">
        <ele>558.9</ele>
        <time>2023-11-26T12:55:43Z</time>
      </trkpt>
      <trkpt lat="43.62042" lon="6.61699">
        <ele>558.8</ele>
        <time>2023-11-26T12:55:44Z</time>
      </trkpt>
      <trkpt lat="43.62042" lon="6.61699">
        <ele>558.7</ele>
        <time>2023-11-26T12:55:45Z</time>
      </trkpt>
      <trkpt lat="43.62042" lon="6.617">
        <ele>558.6</ele>
        <time>2023-11-26T12:55:46Z</time>
      </trkpt>
      <trkpt lat="43.62041" lon="6.61701">
        <ele>558.6</ele>
        <time>2023-11-26T12:55:47Z</time>
      </trkpt>
      <trkpt lat="43.62041" lon="6.61702">
        <ele>558.6</ele>
        <time>2023-11-26T12:55:48Z</time>
      </trkpt>
      <trkpt lat="43.62041" lon="6.61703">
        <ele>558.5</ele>
        <time>2023-11-26T12:55:49Z</time>
      </trkpt>
      <trkpt lat="43.62041" lon="6.61704">
        <ele>558.4</ele>
        <time>2023-11-26T12:55:50Z</time>
      </trkpt>
      <trkpt lat="43.62041" lon="6.61705">
        <ele>558.2</ele>
        <time>2023-11-26T12:55:51Z</time>
      </trkpt>
      <trkpt lat="43.62041" lon="6.61705">
        <ele>558.1</ele>
        <time>2023-11-26T12:55:52Z</time>
      </trkpt>
      <trkpt lat="43.62041" lon="6.61706">
        <ele>557.9</ele>
        <time>2023-11-26T12:55:53Z</time>
      </trkpt>
      <trkpt lat="43.6204" lon="6.61707">
        <ele>557.8</ele>
        <time>2023-11-26T12:55:54Z</time>
      </trkpt>
      <trkpt lat="43.62041" lon="6.61708">
        <ele>557.6</ele>
        <time>2023-11-26T12:55:55Z</time>
      </trkpt>
      <trkpt lat="43.62041" lon="6.61709">
        <ele>557.5</ele>
        <time>2023-11-26T12:55:56Z</time>
      </trkpt>
      <trkpt lat="43.6204" lon="6.61709">
        <ele>557.3</ele>
        <time>2023-11-26T12:55:57Z</time>
      </trkpt>
      <trkpt lat="43.6204" lon="6.6171">
        <ele>557.2</ele>
        <time>2023-11-26T12:55:58Z</time>
      </trkpt>
      <trkpt lat="43.6204" lon="6.61711">
        <ele>557.1</ele>
        <time>2023-11-26T12:55:59Z</time>
      </trkpt>
      <trkpt lat="43.62041" lon="6.61712">
        <ele>557.1</ele>
        <time>2023-11-26T12:56:00Z</time>
      </trkpt>
      <trkpt lat="43.62041" lon="6.61713">
        <ele>556.9</ele>
        <time>2023-11-26T12:56:01Z</time>
      </trkpt>
      <trkpt lat="43.62041" lon="6.61713">
        <ele>556.8</ele>
        <time>2023-11-26T12:56:02Z</time>
      </trkpt>
      <trkpt lat="43.62041" lon="6.61714">
        <ele>556.8</ele>
        <time>2023-11-26T12:56:03Z</time>
      </trkpt>
      <trkpt lat="43.62041" lon="6.61716">
        <ele>556.7</ele>
        <time>2023-11-26T12:56:04Z</time>
      </trkpt>
      <trkpt lat="43.62041" lon="6.61717">
        <ele>556.6</ele>
        <time>2023-11-26T12:56:05Z</time>
      </trkpt>
      <trkpt lat="43.62041" lon="6.61719">
        <ele>556.5</ele>
        <time>2023-11-26T12:56:06Z</time>
      </trkpt>
      <trkpt lat="43.62041" lon="6.6172">
        <ele>556.3</ele>
        <time>2023-11-26T12:56:07Z</time>
      </trkpt>
      <trkpt lat="43.62039" lon="6.61721">
        <ele>556.1</ele>
        <time>2023-11-26T12:56:08Z</time>
      </trkpt>
      <trkpt lat="43.62039" lon="6.61722">
        <ele>555.9</ele>
        <time>2023-11-26T12:56:09Z</time>
      </trkpt>
      <trkpt lat="43.62038" lon="6.61723">
        <ele>555.7</ele>
        <time>2023-11-26T12:56:10Z</time>
      </trkpt>
      <trkpt lat="43.62038" lon="6.61723">
        <ele>555.4</ele>
        <time>2023-11-26T12:56:11Z</time>
      </trkpt>
      <trkpt lat="43.62037" lon="6.61724">
        <ele>555.2</ele>
        <time>2023-11-26T12:56:12Z</time>
      </trkpt>
      <trkpt lat="43.62036" lon="6.61724">
        <ele>555</ele>
        <time>2023-11-26T12:56:13Z</time>
      </trkpt>
      <trkpt lat="43.62036" lon="6.61725">
        <ele>554.9</ele>
        <time>2023-11-26T12:56:14Z</time>
      </trkpt>
      <trkpt lat="43.62036" lon="6.61725">
        <ele>554.7</ele>
        <time>2023-11-26T12:56:15Z</time>
      </trkpt>
      <trkpt lat="43.62035" lon="6.61725">
        <ele>554.4</ele>
        <time>2023-11-26T12:56:16Z</time>
      </trkpt>
      <trkpt lat="43.62036" lon="6.61726">
        <ele>554.3</ele>
        <time>2023-11-26T12:56:17Z</time>
      </trkpt>
      <trkpt lat="43.62035" lon="6.61726">
        <ele>554.1</ele>
        <time>2023-11-26T12:56:18Z</time>
      </trkpt>
      <trkpt lat="43.62035" lon="6.61727">
        <ele>554</ele>
        <time>2023-11-26T12:56:19Z</time>
      </trkpt>
      <trkpt lat="43.62035" lon="6.61727">
        <ele>553.9</ele>
        <time>2023-11-26T12:56:20Z</time>
      </trkpt>
      <trkpt lat="43.62035" lon="6.61727">
        <ele>553.8</ele>
        <time>2023-11-26T12:56:21Z</time>
      </trkpt>
      <trkpt lat="43.62035" lon="6.61728">
        <ele>553.8</ele>
        <time>2023-11-26T12:56:22Z</time>
      </trkpt>
      <trkpt lat="43.62035" lon="6.61728">
        <ele>553.7</ele>
        <time>2023-11-26T12:56:23Z</time>
      </trkpt>
      <trkpt lat="43.62035" lon="6.61728">
        <ele>553.8</ele>
        <time>2023-11-26T12:56:24Z</time>
      </trkpt>
      <trkpt lat="43.62035" lon="6.61728">
        <ele>553.6</ele>
        <time>2023-11-26T12:56:25Z</time>
      </trkpt>
      <trkpt lat="43.62035" lon="6.61728">
        <ele>553.6</ele>
        <time>2023-11-26T12:56:26Z</time>
      </trkpt>
      <trkpt lat="43.62035" lon="6.61728">
        <ele>553.6</ele>
        <time>2023-11-26T12:56:27Z</time>
      </trkpt>
      <trkpt lat="43.62035" lon="6.61729">
        <ele>553.5</ele>
        <time>2023-11-26T12:56:28Z</time>
      </trkpt>
      <trkpt lat="43.62034" lon="6.61729">
        <ele>553.4</ele>
        <time>2023-11-26T12:56:29Z</time>
      </trkpt>
      <trkpt lat="43.62034" lon="6.61729">
        <ele>553.4</ele>
        <time>2023-11-26T12:56:30Z</time>
      </trkpt>
      <trkpt lat="43.62034" lon="6.61729">
        <ele>553.3</ele>
        <time>2023-11-26T12:56:31Z</time>
      </trkpt>
      <trkpt lat="43.62034" lon="6.61729">
        <ele>553.3</ele>
        <time>2023-11-26T12:56:32Z</time>
      </trkpt>
      <trkpt lat="43.62034" lon="6.61729">
        <ele>553.2</ele>
        <time>2023-11-26T12:56:33Z</time>
      </trkpt>
      <trkpt lat="43.62034" lon="6.61729">
        <ele>553.2</ele>
        <time>2023-11-26T12:56:34Z</time>
      </trkpt>
      <trkpt lat="43.62034" lon="6.61729">
        <ele>553.2</ele>
        <time>2023-11-26T12:56:35Z</time>
      </trkpt>
      <trkpt lat="43.62034" lon="6.61728">
        <ele>553.2</ele>
        <time>2023-11-26T12:56:36Z</time>
      </trkpt>
      <trkpt lat="43.62034" lon="6.61728">
        <ele>553.2</ele>
        <time>2023-11-26T12:56:37Z</time>
      </trkpt>
      <trkpt lat="43.62034" lon="6.61728">
        <ele>553.2</ele>
        <time>2023-11-26T12:56:38Z</time>
      </trkpt>
      <trkpt lat="43.62034" lon="6.61728">
        <ele>553.3</ele>
        <time>2023-11-26T12:56:39Z</time>
      </trkpt>
      <trkpt lat="43.62034" lon="6.61727">
        <ele>553.4</ele>
        <time>2023-11-26T12:56:40Z</time>
      </trkpt>
      <trkpt lat="43.62034" lon="6.61728">
        <ele>553.3</ele>
        <time>2023-11-26T12:56:41Z</time>
      </trkpt>
      <trkpt lat="43.62033" lon="6.61728">
        <ele>553.3</ele>
        <time>2023-11-26T12:56:42Z</time>
      </trkpt>
      <trkpt lat="43.62032" lon="6.61729">
        <ele>553.2</ele>
        <time>2023-11-26T12:56:43Z</time>
      </trkpt>
      <trkpt lat="43.62031" lon="6.61729">
        <ele>553.1</ele>
        <time>2023-11-26T12:56:44Z</time>
      </trkpt>
      <trkpt lat="43.6203" lon="6.61729">
        <ele>553</ele>
        <time>2023-11-26T12:56:45Z</time>
      </trkpt>
      <trkpt lat="43.6203" lon="6.6173">
        <ele>552.9</ele>
        <time>2023-11-26T12:56:46Z</time>
      </trkpt>
      <trkpt lat="43.62029" lon="6.61731">
        <ele>552.9</ele>
        <time>2023-11-26T12:56:47Z</time>
      </trkpt>
      <trkpt lat="43.62029" lon="6.61731">
        <ele>552.7</ele>
        <time>2023-11-26T12:56:48Z</time>
      </trkpt>
      <trkpt lat="43.62028" lon="6.61731">
        <ele>552.5</ele>
        <time>2023-11-26T12:56:49Z</time>
      </trkpt>
      <trkpt lat="43.62028" lon="6.61732">
        <ele>552.4</ele>
        <time>2023-11-26T12:56:50Z</time>
      </trkpt>
      <trkpt lat="43.62027" lon="6.61733">
        <ele>552.2</ele>
        <time>2023-11-26T12:56:51Z</time>
      </trkpt>
      <trkpt lat="43.62026" lon="6.61733">
        <ele>552</ele>
        <time>2023-11-26T12:56:52Z</time>
      </trkpt>
      <trkpt lat="43.62026" lon="6.61733">
        <ele>551.8</ele>
        <time>2023-11-26T12:56:53Z</time>
      </trkpt>
      <trkpt lat="43.62026" lon="6.61734">
        <ele>551.6</ele>
        <time>2023-11-26T12:56:54Z</time>
      </trkpt>
      <trkpt lat="43.62025" lon="6.61735">
        <ele>551.3</ele>
        <time>2023-11-26T12:56:55Z</time>
      </trkpt>
      <trkpt lat="43.62024" lon="6.61736">
        <ele>551.1</ele>
        <time>2023-11-26T12:56:56Z</time>
      </trkpt>
      <trkpt lat="43.62023" lon="6.61738">
        <ele>550.9</ele>
        <time>2023-11-26T12:56:57Z</time>
      </trkpt>
      <trkpt lat="43.62023" lon="6.61739">
        <ele>550.1</ele>
        <time>2023-11-26T12:56:58Z</time>
      </trkpt>
      <trkpt lat="43.62024" lon="6.6174">
        <ele>550</ele>
        <time>2023-11-26T12:56:59Z</time>
      </trkpt>
      <trkpt lat="43.62024" lon="6.61742">
        <ele>549.8</ele>
        <time>2023-11-26T12:57:00Z</time>
      </trkpt>
      <trkpt lat="43.62024" lon="6.61743">
        <ele>549.7</ele>
        <time>2023-11-26T12:57:01Z</time>
      </trkpt>
      <trkpt lat="43.62025" lon="6.61744">
        <ele>549.6</ele>
        <time>2023-11-26T12:57:02Z</time>
      </trkpt>
      <trkpt lat="43.62025" lon="6.61745">
        <ele>549.3</ele>
        <time>2023-11-26T12:57:03Z</time>
      </trkpt>
      <trkpt lat="43.62025" lon="6.61747">
        <ele>549</ele>
        <time>2023-11-26T12:57:04Z</time>
      </trkpt>
      <trkpt lat="43.62025" lon="6.61748">
        <ele>548.8</ele>
        <time>2023-11-26T12:57:05Z</time>
      </trkpt>
      <trkpt lat="43.62025" lon="6.61749">
        <ele>548.6</ele>
        <time>2023-11-26T12:57:06Z</time>
      </trkpt>
      <trkpt lat="43.62025" lon="6.6175">
        <ele>548.4</ele>
        <time>2023-11-26T12:57:07Z</time>
      </trkpt>
      <trkpt lat="43.62026" lon="6.61752">
        <ele>548.2</ele>
        <time>2023-11-26T12:57:08Z</time>
      </trkpt>
      <trkpt lat="43.62027" lon="6.61753">
        <ele>547.9</ele>
        <time>2023-11-26T12:57:09Z</time>
      </trkpt>
      <trkpt lat="43.62027" lon="6.61753">
        <ele>547.7</ele>
        <time>2023-11-26T12:57:10Z</time>
      </trkpt>
      <trkpt lat="43.62027" lon="6.61754">
        <ele>547.5</ele>
        <time>2023-11-26T12:57:11Z</time>
      </trkpt>
      <trkpt lat="43.62027" lon="6.61754">
        <ele>547.3</ele>
        <time>2023-11-26T12:57:12Z</time>
      </trkpt>
      <trkpt lat="43.62027" lon="6.61755">
        <ele>547.1</ele>
        <time>2023-11-26T12:57:13Z</time>
      </trkpt>
      <trkpt lat="43.62027" lon="6.61756">
        <ele>546.9</ele>
        <time>2023-11-26T12:57:14Z</time>
      </trkpt>
      <trkpt lat="43.62027" lon="6.61756">
        <ele>546.6</ele>
        <time>2023-11-26T12:57:15Z</time>
      </trkpt>
      <trkpt lat="43.62026" lon="6.61757">
        <ele>546.4</ele>
        <time>2023-11-26T12:57:16Z</time>
      </trkpt>
      <trkpt lat="43.62025" lon="6.61757">
        <ele>546.2</ele>
        <time>2023-11-26T12:57:17Z</time>
      </trkpt>
      <trkpt lat="43.62025" lon="6.61757">
        <ele>545.9</ele>
        <time>2023-11-26T12:57:18Z</time>
      </trkpt>
      <trkpt lat="43.62024" lon="6.61758">
        <ele>545.7</ele>
        <time>2023-11-26T12:57:19Z</time>
      </trkpt>
      <trkpt lat="43.62024" lon="6.61759">
        <ele>545.5</ele>
        <time>2023-11-26T12:57:20Z</time>
      </trkpt>
      <trkpt lat="43.62024" lon="6.6176">
        <ele>545.4</ele>
        <time>2023-11-26T12:57:21Z</time>
      </trkpt>
      <trkpt lat="43.62025" lon="6.61761">
        <ele>545.2</ele>
        <time>2023-11-26T12:57:22Z</time>
      </trkpt>
      <trkpt lat="43.62026" lon="6.61763">
        <ele>545</ele>
        <time>2023-11-26T12:57:23Z</time>
      </trkpt>
      <trkpt lat="43.62027" lon="6.61764">
        <ele>544.8</ele>
        <time>2023-11-26T12:57:24Z</time>
      </trkpt>
      <trkpt lat="43.62028" lon="6.61764">
        <ele>544.6</ele>
        <time>2023-11-26T12:57:25Z</time>
      </trkpt>
      <trkpt lat="43.6203" lon="6.61765">
        <ele>544.5</ele>
        <time>2023-11-26T12:57:26Z</time>
      </trkpt>
      <trkpt lat="43.62031" lon="6.61766">
        <ele>544.1</ele>
        <time>2023-11-26T12:57:27Z</time>
      </trkpt>
      <trkpt lat="43.62032" lon="6.61767">
        <ele>544</ele>
        <time>2023-11-26T12:57:28Z</time>
      </trkpt>
      <trkpt lat="43.62032" lon="6.61769">
        <ele>543.9</ele>
        <time>2023-11-26T12:57:29Z</time>
      </trkpt>
      <trkpt lat="43.62032" lon="6.6177">
        <ele>543.7</ele>
        <time>2023-11-26T12:57:30Z</time>
      </trkpt>
      <trkpt lat="43.62032" lon="6.61771">
        <ele>543.6</ele>
        <time>2023-11-26T12:57:31Z</time>
      </trkpt>
      <trkpt lat="43.62032" lon="6.61773">
        <ele>543.4</ele>
        <time>2023-11-26T12:57:32Z</time>
      </trkpt>
      <trkpt lat="43.62032" lon="6.61774">
        <ele>543.2</ele>
        <time>2023-11-26T12:57:33Z</time>
      </trkpt>
      <trkpt lat="43.62032" lon="6.61775">
        <ele>543.1</ele>
        <time>2023-11-26T12:57:34Z</time>
      </trkpt>
      <trkpt lat="43.62032" lon="6.61776">
        <ele>543</ele>
        <time>2023-11-26T12:57:35Z</time>
      </trkpt>
      <trkpt lat="43.62032" lon="6.61776">
        <ele>542.9</ele>
        <time>2023-11-26T12:57:36Z</time>
      </trkpt>
      <trkpt lat="43.62031" lon="6.61776">
        <ele>542.7</ele>
        <time>2023-11-26T12:57:37Z</time>
      </trkpt>
      <trkpt lat="43.62031" lon="6.61776">
        <ele>542.6</ele>
        <time>2023-11-26T12:57:38Z</time>
      </trkpt>
      <trkpt lat="43.62031" lon="6.61777">
        <ele>542.6</ele>
        <time>2023-11-26T12:57:39Z</time>
      </trkpt>
      <trkpt lat="43.62031" lon="6.61777">
        <ele>542.6</ele>
        <time>2023-11-26T12:57:40Z</time>
      </trkpt>
      <trkpt lat="43.62031" lon="6.61778">
        <ele>542.5</ele>
        <time>2023-11-26T12:57:41Z</time>
      </trkpt>
      <trkpt lat="43.62031" lon="6.61779">
        <ele>542.4</ele>
        <time>2023-11-26T12:57:42Z</time>
      </trkpt>
      <trkpt lat="43.62031" lon="6.6178">
        <ele>542.3</ele>
        <time>2023-11-26T12:57:43Z</time>
      </trkpt>
      <trkpt lat="43.62031" lon="6.61781">
        <ele>542.2</ele>
        <time>2023-11-26T12:57:44Z</time>
      </trkpt>
      <trkpt lat="43.62031" lon="6.61782">
        <ele>542.1</ele>
        <time>2023-11-26T12:57:45Z</time>
      </trkpt>
      <trkpt lat="43.62031" lon="6.61783">
        <ele>542</ele>
        <time>2023-11-26T12:57:46Z</time>
      </trkpt>
      <trkpt lat="43.6203" lon="6.61784">
        <ele>541.8</ele>
        <time>2023-11-26T12:57:47Z</time>
      </trkpt>
      <trkpt lat="43.62029" lon="6.61785">
        <ele>541.7</ele>
        <time>2023-11-26T12:57:48Z</time>
      </trkpt>
      <trkpt lat="43.62029" lon="6.61785">
        <ele>541.8</ele>
        <time>2023-11-26T12:57:49Z</time>
      </trkpt>
      <trkpt lat="43.62028" lon="6.61786">
        <ele>541.8</ele>
        <time>2023-11-26T12:57:50Z</time>
      </trkpt>
      <trkpt lat="43.62027" lon="6.61787">
        <ele>541.8</ele>
        <time>2023-11-26T12:57:51Z</time>
      </trkpt>
      <trkpt lat="43.62027" lon="6.61789">
        <ele>541.7</ele>
        <time>2023-11-26T12:57:52Z</time>
      </trkpt>
      <trkpt lat="43.62027" lon="6.6179">
        <ele>541.5</ele>
        <time>2023-11-26T12:57:53Z</time>
      </trkpt>
      <trkpt lat="43.62026" lon="6.61791">
        <ele>541.3</ele>
        <time>2023-11-26T12:57:54Z</time>
      </trkpt>
      <trkpt lat="43.62026" lon="6.61792">
        <ele>541.1</ele>
        <time>2023-11-26T12:57:55Z</time>
      </trkpt>
      <trkpt lat="43.62025" lon="6.61792">
        <ele>541.2</ele>
        <time>2023-11-26T12:57:56Z</time>
      </trkpt>
      <trkpt lat="43.62025" lon="6.61792">
        <ele>541.1</ele>
        <time>2023-11-26T12:57:57Z</time>
      </trkpt>
      <trkpt lat="43.62025" lon="6.61793">
        <ele>541.1</ele>
        <time>2023-11-26T12:57:58Z</time>
      </trkpt>
      <trkpt lat="43.62024" lon="6.61794">
        <ele>541</ele>
        <time>2023-11-26T12:57:59Z</time>
      </trkpt>
      <trkpt lat="43.62025" lon="6.61795">
        <ele>540.9</ele>
        <time>2023-11-26T12:58:00Z</time>
      </trkpt>
      <trkpt lat="43.62025" lon="6.61796">
        <ele>540.8</ele>
        <time>2023-11-26T12:58:01Z</time>
      </trkpt>
      <trkpt lat="43.62025" lon="6.61797">
        <ele>540.7</ele>
        <time>2023-11-26T12:58:02Z</time>
      </trkpt>
      <trkpt lat="43.62024" lon="6.61798">
        <ele>540.7</ele>
        <time>2023-11-26T12:58:03Z</time>
      </trkpt>
      <trkpt lat="43.62024" lon="6.618">
        <ele>540.6</ele>
        <time>2023-11-26T12:58:04Z</time>
      </trkpt>
      <trkpt lat="43.62023" lon="6.61801">
        <ele>540.4</ele>
        <time>2023-11-26T12:58:05Z</time>
      </trkpt>
      <trkpt lat="43.62023" lon="6.61802">
        <ele>540.3</ele>
        <time>2023-11-26T12:58:06Z</time>
      </trkpt>
      <trkpt lat="43.62023" lon="6.61803">
        <ele>540.2</ele>
        <time>2023-11-26T12:58:07Z</time>
      </trkpt>
      <trkpt lat="43.62022" lon="6.61804">
        <ele>540.1</ele>
        <time>2023-11-26T12:58:08Z</time>
      </trkpt>
      <trkpt lat="43.62021" lon="6.61805">
        <ele>540</ele>
        <time>2023-11-26T12:58:09Z</time>
      </trkpt>
      <trkpt lat="43.62021" lon="6.61806">
        <ele>539.9</ele>
        <time>2023-11-26T12:58:10Z</time>
      </trkpt>
      <trkpt lat="43.6202" lon="6.61807">
        <ele>539.7</ele>
        <time>2023-11-26T12:58:11Z</time>
      </trkpt>
      <trkpt lat="43.6202" lon="6.61808">
        <ele>539.6</ele>
        <time>2023-11-26T12:58:12Z</time>
      </trkpt>
      <trkpt lat="43.6202" lon="6.61809">
        <ele>539.4</ele>
        <time>2023-11-26T12:58:13Z</time>
      </trkpt>
      <trkpt lat="43.62019" lon="6.6181">
        <ele>539.3</ele>
        <time>2023-11-26T12:58:14Z</time>
      </trkpt>
      <trkpt lat="43.62019" lon="6.6181">
        <ele>539.2</ele>
        <time>2023-11-26T12:58:15Z</time>
      </trkpt>
      <trkpt lat="43.6202" lon="6.61811">
        <ele>539.1</ele>
        <time>2023-11-26T12:58:16Z</time>
      </trkpt>
      <trkpt lat="43.6202" lon="6.61811">
        <ele>539.1</ele>
        <time>2023-11-26T12:58:17Z</time>
      </trkpt>
      <trkpt lat="43.6202" lon="6.61811">
        <ele>538.9</ele>
        <time>2023-11-26T12:58:18Z</time>
      </trkpt>
      <trkpt lat="43.6202" lon="6.61811">
        <ele>538.8</ele>
        <time>2023-11-26T12:58:19Z</time>
      </trkpt>
      <trkpt lat="43.6202" lon="6.61811">
        <ele>538.8</ele>
        <time>2023-11-26T12:58:20Z</time>
      </trkpt>
      <trkpt lat="43.6202" lon="6.61812">
        <ele>538.8</ele>
        <time>2023-11-26T12:58:21Z</time>
      </trkpt>
      <trkpt lat="43.6202" lon="6.61812">
        <ele>538.8</ele>
        <time>2023-11-26T12:58:22Z</time>
      </trkpt>
      <trkpt lat="43.6202" lon="6.61812">
        <ele>538.8</ele>
        <time>2023-11-26T12:58:23Z</time>
      </trkpt>
      <trkpt lat="43.6202" lon="6.61812">
        <ele>538.9</ele>
        <time>2023-11-26T12:58:24Z</time>
      </trkpt>
      <trkpt lat="43.6202" lon="6.61812">
        <ele>538.9</ele>
        <time>2023-11-26T12:58:25Z</time>
      </trkpt>
      <trkpt lat="43.6202" lon="6.61813">
        <ele>538.9</ele>
        <time>2023-11-26T12:58:26Z</time>
      </trkpt>
      <trkpt lat="43.6202" lon="6.61813">
        <ele>538.9</ele>
        <time>2023-11-26T12:58:27Z</time>
      </trkpt>
      <trkpt lat="43.6202" lon="6.61814">
        <ele>538.9</ele>
        <time>2023-11-26T12:58:28Z</time>
      </trkpt>
      <trkpt lat="43.6202" lon="6.61814">
        <ele>538.9</ele>
        <time>2023-11-26T12:58:29Z</time>
      </trkpt>
      <trkpt lat="43.6202" lon="6.61814">
        <ele>538.9</ele>
        <time>2023-11-26T12:58:30Z</time>
      </trkpt>
      <trkpt lat="43.6202" lon="6.61815">
        <ele>538.9</ele>
        <time>2023-11-26T12:58:31Z</time>
      </trkpt>
      <trkpt lat="43.6202" lon="6.61815">
        <ele>538.8</ele>
        <time>2023-11-26T12:58:32Z</time>
      </trkpt>
      <trkpt lat="43.6202" lon="6.61815">
        <ele>538.7</ele>
        <time>2023-11-26T12:58:33Z</time>
      </trkpt>
      <trkpt lat="43.62021" lon="6.61815">
        <ele>538.7</ele>
        <time>2023-11-26T12:58:34Z</time>
      </trkpt>
      <trkpt lat="43.62021" lon="6.61815">
        <ele>538.7</ele>
        <time>2023-11-26T12:58:35Z</time>
      </trkpt>
      <trkpt lat="43.62021" lon="6.61815">
        <ele>538.7</ele>
        <time>2023-11-26T12:58:36Z</time>
      </trkpt>
      <trkpt lat="43.62021" lon="6.61815">
        <ele>538.7</ele>
        <time>2023-11-26T12:58:37Z</time>
      </trkpt>
      <trkpt lat="43.62021" lon="6.61816">
        <ele>538.7</ele>
        <time>2023-11-26T12:58:38Z</time>
      </trkpt>
      <trkpt lat="43.62021" lon="6.61816">
        <ele>538.6</ele>
        <time>2023-11-26T12:58:39Z</time>
      </trkpt>
      <trkpt lat="43.62021" lon="6.61815">
        <ele>538.5</ele>
        <time>2023-11-26T12:58:40Z</time>
      </trkpt>
      <trkpt lat="43.62021" lon="6.61816">
        <ele>538.5</ele>
        <time>2023-11-26T12:58:41Z</time>
      </trkpt>
      <trkpt lat="43.62021" lon="6.61816">
        <ele>538.4</ele>
        <time>2023-11-26T12:58:42Z</time>
      </trkpt>
      <trkpt lat="43.62021" lon="6.61816">
        <ele>538.4</ele>
        <time>2023-11-26T12:58:43Z</time>
      </trkpt>
      <trkpt lat="43.62021" lon="6.61816">
        <ele>538.4</ele>
        <time>2023-11-26T12:58:44Z</time>
      </trkpt>
      <trkpt lat="43.62021" lon="6.61816">
        <ele>538.4</ele>
        <time>2023-11-26T12:58:45Z</time>
      </trkpt>
      <trkpt lat="43.62021" lon="6.61816">
        <ele>538.3</ele>
        <time>2023-11-26T12:58:46Z</time>
      </trkpt>
      <trkpt lat="43.62021" lon="6.61816">
        <ele>538.4</ele>
        <time>2023-11-26T12:58:47Z</time>
      </trkpt>
      <trkpt lat="43.6202" lon="6.61816">
        <ele>538.4</ele>
        <time>2023-11-26T12:58:48Z</time>
      </trkpt>
      <trkpt lat="43.6202" lon="6.61816">
        <ele>538.4</ele>
        <time>2023-11-26T12:58:49Z</time>
      </trkpt>
      <trkpt lat="43.62019" lon="6.61816">
        <ele>538.5</ele>
        <time>2023-11-26T12:58:50Z</time>
      </trkpt>
      <trkpt lat="43.62019" lon="6.61815">
        <ele>538.4</ele>
        <time>2023-11-26T12:58:51Z</time>
      </trkpt>
      <trkpt lat="43.62019" lon="6.61815">
        <ele>538.5</ele>
        <time>2023-11-26T12:58:52Z</time>
      </trkpt>
      <trkpt lat="43.62019" lon="6.61815">
        <ele>538.5</ele>
        <time>2023-11-26T12:58:53Z</time>
      </trkpt>
      <trkpt lat="43.62019" lon="6.61815">
        <ele>538.5</ele>
        <time>2023-11-26T12:58:54Z</time>
      </trkpt>
      <trkpt lat="43.62019" lon="6.61815">
        <ele>538.5</ele>
        <time>2023-11-26T12:58:55Z</time>
      </trkpt>
      <trkpt lat="43.62019" lon="6.61815">
        <ele>538.6</ele>
        <time>2023-11-26T12:58:56Z</time>
      </trkpt>
      <trkpt lat="43.62019" lon="6.61814">
        <ele>538.6</ele>
        <time>2023-11-26T12:58:57Z</time>
      </trkpt>
      <trkpt lat="43.62019" lon="6.61814">
        <ele>538.6</ele>
        <time>2023-11-26T12:58:58Z</time>
      </trkpt>
      <trkpt lat="43.62019" lon="6.61814">
        <ele>538.6</ele>
        <time>2023-11-26T12:58:59Z</time>
      </trkpt>
      <trkpt lat="43.62019" lon="6.61814">
        <ele>538.6</ele>
        <time>2023-11-26T12:59:00Z</time>
      </trkpt>
      <trkpt lat="43.62019" lon="6.61814">
        <ele>538.6</ele>
        <time>2023-11-26T12:59:01Z</time>
      </trkpt>
      <trkpt lat="43.62019" lon="6.61814">
        <ele>538.5</ele>
        <time>2023-11-26T12:59:02Z</time>
      </trkpt>
      <trkpt lat="43.62019" lon="6.61814">
        <ele>538.5</ele>
        <time>2023-11-26T12:59:03Z</time>
      </trkpt>
      <trkpt lat="43.62019" lon="6.61814">
        <ele>538.5</ele>
        <time>2023-11-26T12:59:04Z</time>
      </trkpt>
      <trkpt lat="43.62019" lon="6.61814">
        <ele>538.4</ele>
        <time>2023-11-26T12:59:05Z</time>
      </trkpt>
      <trkpt lat="43.62019" lon="6.61814">
        <ele>538.5</ele>
        <time>2023-11-26T12:59:06Z</time>
      </trkpt>
      <trkpt lat="43.62019" lon="6.61814">
        <ele>538.4</ele>
        <time>2023-11-26T12:59:07Z</time>
      </trkpt>
      <trkpt lat="43.62019" lon="6.61814">
        <ele>538.4</ele>
        <time>2023-11-26T12:59:08Z</time>
      </trkpt>
      <trkpt lat="43.62019" lon="6.61814">
        <ele>538.4</ele>
        <time>2023-11-26T12:59:09Z</time>
      </trkpt>
      <trkpt lat="43.62019" lon="6.61813">
        <ele>538.3</ele>
        <time>2023-11-26T12:59:10Z</time>
      </trkpt>
      <trkpt lat="43.62019" lon="6.61813">
        <ele>538.3</ele>
        <time>2023-11-26T12:59:11Z</time>
      </trkpt>
      <trkpt lat="43.62019" lon="6.61813">
        <ele>538.4</ele>
        <time>2023-11-26T12:59:12Z</time>
      </trkpt>
      <trkpt lat="43.62019" lon="6.61813">
        <ele>538.4</ele>
        <time>2023-11-26T12:59:13Z</time>
      </trkpt>
      <trkpt lat="43.62019" lon="6.61813">
        <ele>538.4</ele>
        <time>2023-11-26T12:59:14Z</time>
      </trkpt>
      <trkpt lat="43.62019" lon="6.61813">
        <ele>538.4</ele>
        <time>2023-11-26T12:59:15Z</time>
      </trkpt>
      <trkpt lat="43.62019" lon="6.61813">
        <ele>538.4</ele>
        <time>2023-11-26T12:59:16Z</time>
      </trkpt>
      <trkpt lat="43.62019" lon="6.61812">
        <ele>538.5</ele>
        <time>2023-11-26T12:59:17Z</time>
      </trkpt>
      <trkpt lat="43.62018" lon="6.61812">
        <ele>538.6</ele>
        <time>2023-11-26T12:59:18Z</time>
      </trkpt>
      <trkpt lat="43.62019" lon="6.61812">
        <ele>538.6</ele>
        <time>2023-11-26T12:59:19Z</time>
      </trkpt>
      <trkpt lat="43.62018" lon="6.61812">
        <ele>538.5</ele>
        <time>2023-11-26T12:59:20Z</time>
      </trkpt>
      <trkpt lat="43.62018" lon="6.61813">
        <ele>538.5</ele>
        <time>2023-11-26T12:59:21Z</time>
      </trkpt>
      <trkpt lat="43.62018" lon="6.61813">
        <ele>538.4</ele>
        <time>2023-11-26T12:59:22Z</time>
      </trkpt>
      <trkpt lat="43.62018" lon="6.61813">
        <ele>538.4</ele>
        <time>2023-11-26T12:59:23Z</time>
      </trkpt>
      <trkpt lat="43.62018" lon="6.61813">
        <ele>538.4</ele>
        <time>2023-11-26T12:59:24Z</time>
      </trkpt>
      <trkpt lat="43.62018" lon="6.61813">
        <ele>538.3</ele>
        <time>2023-11-26T12:59:25Z</time>
      </trkpt>
      <trkpt lat="43.62018" lon="6.61813">
        <ele>538.3</ele>
        <time>2023-11-26T12:59:26Z</time>
      </trkpt>
      <trkpt lat="43.62018" lon="6.61813">
        <ele>538.2</ele>
        <time>2023-11-26T12:59:27Z</time>
      </trkpt>
      <trkpt lat="43.62018" lon="6.61813">
        <ele>538.2</ele>
        <time>2023-11-26T12:59:28Z</time>
      </trkpt>
      <trkpt lat="43.62018" lon="6.61813">
        <ele>538.2</ele>
        <time>2023-11-26T12:59:29Z</time>
      </trkpt>
      <trkpt lat="43.62018" lon="6.61813">
        <ele>538.2</ele>
        <time>2023-11-26T12:59:30Z</time>
      </trkpt>
      <trkpt lat="43.62018" lon="6.61813">
        <ele>538.2</ele>
        <time>2023-11-26T12:59:31Z</time>
      </trkpt>
      <trkpt lat="43.62018" lon="6.61813">
        <ele>538.3</ele>
        <time>2023-11-26T12:59:32Z</time>
      </trkpt>
      <trkpt lat="43.62018" lon="6.61813">
        <ele>538.2</ele>
        <time>2023-11-26T12:59:33Z</time>
      </trkpt>
      <trkpt lat="43.62018" lon="6.61813">
        <ele>538.3</ele>
        <time>2023-11-26T12:59:34Z</time>
      </trkpt>
      <trkpt lat="43.62018" lon="6.61813">
        <ele>538.3</ele>
        <time>2023-11-26T12:59:35Z</time>
      </trkpt>
      <trkpt lat="43.62018" lon="6.61813">
        <ele>538.3</ele>
        <time>2023-11-26T12:59:36Z</time>
      </trkpt>
      <trkpt lat="43.62018" lon="6.61813">
        <ele>538.3</ele>
        <time>2023-11-26T12:59:37Z</time>
      </trkpt>
      <trkpt lat="43.62018" lon="6.61813">
        <ele>538.4</ele>
        <time>2023-11-26T12:59:38Z</time>
      </trkpt>
      <trkpt lat="43.62018" lon="6.61812">
        <ele>538.4</ele>
        <time>2023-11-26T12:59:39Z</time>
      </trkpt>
      <trkpt lat="43.62018" lon="6.61812">
        <ele>538.4</ele>
        <time>2023-11-26T12:59:40Z</time>
      </trkpt>
      <trkpt lat="43.62018" lon="6.61812">
        <ele>538.4</ele>
        <time>2023-11-26T12:59:41Z</time>
      </trkpt>
      <trkpt lat="43.62018" lon="6.61812">
        <ele>538.4</ele>
        <time>2023-11-26T12:59:42Z</time>
      </trkpt>
      <trkpt lat="43.62018" lon="6.61812">
        <ele>538.4</ele>
        <time>2023-11-26T12:59:43Z</time>
      </trkpt>
      <trkpt lat="43.62018" lon="6.61812">
        <ele>538.4</ele>
        <time>2023-11-26T12:59:44Z</time>
      </trkpt>
      <trkpt lat="43.62018" lon="6.61812">
        <ele>538.4</ele>
        <time>2023-11-26T12:59:45Z</time>
      </trkpt>
      <trkpt lat="43.62018" lon="6.61812">
        <ele>538.3</ele>
        <time>2023-11-26T12:59:46Z</time>
      </trkpt>
      <trkpt lat="43.62018" lon="6.61812">
        <ele>538.3</ele>
        <time>2023-11-26T12:59:47Z</time>
      </trkpt>
      <trkpt lat="43.62018" lon="6.61812">
        <ele>538.3</ele>
        <time>2023-11-26T12:59:48Z</time>
      </trkpt>
      <trkpt lat="43.62018" lon="6.61812">
        <ele>538.3</ele>
        <time>2023-11-26T12:59:49Z</time>
      </trkpt>
      <trkpt lat="43.62018" lon="6.61812">
        <ele>538.2</ele>
        <time>2023-11-26T12:59:50Z</time>
      </trkpt>
      <trkpt lat="43.62018" lon="6.61812">
        <ele>538.2</ele>
        <time>2023-11-26T12:59:51Z</time>
      </trkpt>
      <trkpt lat="43.62018" lon="6.61812">
        <ele>538.3</ele>
        <time>2023-11-26T12:59:52Z</time>
      </trkpt>
      <trkpt lat="43.62018" lon="6.61812">
        <ele>538.3</ele>
        <time>2023-11-26T12:59:53Z</time>
      </trkpt>
      <trkpt lat="43.62018" lon="6.61812">
        <ele>538.3</ele>
        <time>2023-11-26T12:59:54Z</time>
      </trkpt>
      <trkpt lat="43.62018" lon="6.61812">
        <ele>538.4</ele>
        <time>2023-11-26T12:59:55Z</time>
      </trkpt>
      <trkpt lat="43.62018" lon="6.61812">
        <ele>538.4</ele>
        <time>2023-11-26T12:59:56Z</time>
      </trkpt>
      <trkpt lat="43.62018" lon="6.61812">
        <ele>538.4</ele>
        <time>2023-11-26T12:59:57Z</time>
      </trkpt>
      <trkpt lat="43.62017" lon="6.61812">
        <ele>538.4</ele>
        <time>2023-11-26T12:59:58Z</time>
      </trkpt>
      <trkpt lat="43.62017" lon="6.61812">
        <ele>538.4</ele>
        <time>2023-11-26T12:59:59Z</time>
      </trkpt>
      <trkpt lat="43.62017" lon="6.61812">
        <ele>538.3</ele>
        <time>2023-11-26T13:00:00Z</time>
      </trkpt>
      <trkpt lat="43.62016" lon="6.61812">
        <ele>538.3</ele>
        <time>2023-11-26T13:00:01Z</time>
      </trkpt>
      <trkpt lat="43.62016" lon="6.61813">
        <ele>538.3</ele>
        <time>2023-11-26T13:00:02Z</time>
      </trkpt>
      <trkpt lat="43.62016" lon="6.61814">
        <ele>538.2</ele>
        <time>2023-11-26T13:00:03Z</time>
      </trkpt>
      <trkpt lat="43.62016" lon="6.61815">
        <ele>538.1</ele>
        <time>2023-11-26T13:00:04Z</time>
      </trkpt>
      <trkpt lat="43.62016" lon="6.61816">
        <ele>538</ele>
        <time>2023-11-26T13:00:05Z</time>
      </trkpt>
      <trkpt lat="43.62015" lon="6.61816">
        <ele>537.9</ele>
        <time>2023-11-26T13:00:06Z</time>
      </trkpt>
      <trkpt lat="43.62015" lon="6.61817">
        <ele>537.8</ele>
        <time>2023-11-26T13:00:07Z</time>
      </trkpt>
      <trkpt lat="43.62015" lon="6.61818">
        <ele>537.8</ele>
        <time>2023-11-26T13:00:08Z</time>
      </trkpt>
      <trkpt lat="43.62014" lon="6.61819">
        <ele>537.7</ele>
        <time>2023-11-26T13:00:09Z</time>
      </trkpt>
      <trkpt lat="43.62013" lon="6.61821">
        <ele>537.5</ele>
        <time>2023-11-26T13:00:10Z</time>
      </trkpt>
      <trkpt lat="43.62013" lon="6.61821">
        <ele>537.4</ele>
        <time>2023-11-26T13:00:11Z</time>
      </trkpt>
      <trkpt lat="43.62012" lon="6.61822">
        <ele>537.3</ele>
        <time>2023-11-26T13:00:12Z</time>
      </trkpt>
      <trkpt lat="43.62012" lon="6.61823">
        <ele>537.3</ele>
        <time>2023-11-26T13:00:13Z</time>
      </trkpt>
      <trkpt lat="43.62012" lon="6.61824">
        <ele>537.2</ele>
        <time>2023-11-26T13:00:14Z</time>
      </trkpt>
      <trkpt lat="43.62012" lon="6.61824">
        <ele>537.2</ele>
        <time>2023-11-26T13:00:15Z</time>
      </trkpt>
      <trkpt lat="43.62012" lon="6.61824">
        <ele>537.1</ele>
        <time>2023-11-26T13:00:16Z</time>
      </trkpt>
      <trkpt lat="43.62012" lon="6.61824">
        <ele>537.1</ele>
        <time>2023-11-26T13:00:17Z</time>
      </trkpt>
      <trkpt lat="43.62013" lon="6.61824">
        <ele>537</ele>
        <time>2023-11-26T13:00:18Z</time>
      </trkpt>
      <trkpt lat="43.62013" lon="6.61824">
        <ele>537</ele>
        <time>2023-11-26T13:00:19Z</time>
      </trkpt>
      <trkpt lat="43.62013" lon="6.61824">
        <ele>536.9</ele>
        <time>2023-11-26T13:00:20Z</time>
      </trkpt>
      <trkpt lat="43.62013" lon="6.61824">
        <ele>536.8</ele>
        <time>2023-11-26T13:00:21Z</time>
      </trkpt>
      <trkpt lat="43.62013" lon="6.61824">
        <ele>536.8</ele>
        <time>2023-11-26T13:00:22Z</time>
      </trkpt>
      <trkpt lat="43.62013" lon="6.61824">
        <ele>536.7</ele>
        <time>2023-11-26T13:00:23Z</time>
      </trkpt>
      <trkpt lat="43.62012" lon="6.61825">
        <ele>536.7</ele>
        <time>2023-11-26T13:00:24Z</time>
      </trkpt>
      <trkpt lat="43.62012" lon="6.61826">
        <ele>536.6</ele>
        <time>2023-11-26T13:00:25Z</time>
      </trkpt>
      <trkpt lat="43.62012" lon="6.61827">
        <ele>536.5</ele>
        <time>2023-11-26T13:00:26Z</time>
      </trkpt>
      <trkpt lat="43.62011" lon="6.61828">
        <ele>536.4</ele>
        <time>2023-11-26T13:00:27Z</time>
      </trkpt>
      <trkpt lat="43.62011" lon="6.61829">
        <ele>536.3</ele>
        <time>2023-11-26T13:00:28Z</time>
      </trkpt>
      <trkpt lat="43.62011" lon="6.61831">
        <ele>536</ele>
        <time>2023-11-26T13:00:29Z</time>
      </trkpt>
      <trkpt lat="43.6201" lon="6.61832">
        <ele>535.8</ele>
        <time>2023-11-26T13:00:30Z</time>
      </trkpt>
      <trkpt lat="43.62009" lon="6.61833">
        <ele>535.6</ele>
        <time>2023-11-26T13:00:31Z</time>
      </trkpt>
      <trkpt lat="43.62009" lon="6.61834">
        <ele>535.4</ele>
        <time>2023-11-26T13:00:32Z</time>
      </trkpt>
      <trkpt lat="43.62008" lon="6.61835">
        <ele>535.3</ele>
        <time>2023-11-26T13:00:33Z</time>
      </trkpt>
      <trkpt lat="43.62008" lon="6.61836">
        <ele>535.2</ele>
        <time>2023-11-26T13:00:34Z</time>
      </trkpt>
      <trkpt lat="43.62007" lon="6.61837">
        <ele>535</ele>
        <time>2023-11-26T13:00:35Z</time>
      </trkpt>
      <trkpt lat="43.62007" lon="6.61839">
        <ele>534.8</ele>
        <time>2023-11-26T13:00:36Z</time>
      </trkpt>
      <trkpt lat="43.62006" lon="6.6184">
        <ele>534.6</ele>
        <time>2023-11-26T13:00:37Z</time>
      </trkpt>
      <trkpt lat="43.62006" lon="6.61842">
        <ele>534.5</ele>
        <time>2023-11-26T13:00:38Z</time>
      </trkpt>
      <trkpt lat="43.62006" lon="6.61843">
        <ele>534.4</ele>
        <time>2023-11-26T13:00:39Z</time>
      </trkpt>
      <trkpt lat="43.62006" lon="6.61844">
        <ele>534.3</ele>
        <time>2023-11-26T13:00:40Z</time>
      </trkpt>
      <trkpt lat="43.62006" lon="6.61844">
        <ele>534.1</ele>
        <time>2023-11-26T13:00:41Z</time>
      </trkpt>
      <trkpt lat="43.62006" lon="6.61845">
        <ele>533.9</ele>
        <time>2023-11-26T13:00:42Z</time>
      </trkpt>
      <trkpt lat="43.62006" lon="6.61846">
        <ele>533.8</ele>
        <time>2023-11-26T13:00:43Z</time>
      </trkpt>
      <trkpt lat="43.62006" lon="6.61848">
        <ele>533.6</ele>
        <time>2023-11-26T13:00:44Z</time>
      </trkpt>
      <trkpt lat="43.62007" lon="6.61849">
        <ele>533.4</ele>
        <time>2023-11-26T13:00:45Z</time>
      </trkpt>
      <trkpt lat="43.62008" lon="6.61851">
        <ele>533.2</ele>
        <time>2023-11-26T13:00:46Z</time>
      </trkpt>
      <trkpt lat="43.62008" lon="6.61852">
        <ele>533</ele>
        <time>2023-11-26T13:00:47Z</time>
      </trkpt>
      <trkpt lat="43.62009" lon="6.61853">
        <ele>532.9</ele>
        <time>2023-11-26T13:00:48Z</time>
      </trkpt>
      <trkpt lat="43.62009" lon="6.61854">
        <ele>532.8</ele>
        <time>2023-11-26T13:00:49Z</time>
      </trkpt>
      <trkpt lat="43.62009" lon="6.61855">
        <ele>532.7</ele>
        <time>2023-11-26T13:00:50Z</time>
      </trkpt>
      <trkpt lat="43.62009" lon="6.61856">
        <ele>532.5</ele>
        <time>2023-11-26T13:00:51Z</time>
      </trkpt>
      <trkpt lat="43.62009" lon="6.61857">
        <ele>532.5</ele>
        <time>2023-11-26T13:00:52Z</time>
      </trkpt>
      <trkpt lat="43.6201" lon="6.61858">
        <ele>532.4</ele>
        <time>2023-11-26T13:00:53Z</time>
      </trkpt>
      <trkpt lat="43.6201" lon="6.61859">
        <ele>532.3</ele>
        <time>2023-11-26T13:00:54Z</time>
      </trkpt>
      <trkpt lat="43.6201" lon="6.6186">
        <ele>532.3</ele>
        <time>2023-11-26T13:00:55Z</time>
      </trkpt>
      <trkpt lat="43.62011" lon="6.61861">
        <ele>532.3</ele>
        <time>2023-11-26T13:00:56Z</time>
      </trkpt>
      <trkpt lat="43.62011" lon="6.61862">
        <ele>532.2</ele>
        <time>2023-11-26T13:00:57Z</time>
      </trkpt>
      <trkpt lat="43.62012" lon="6.61863">
        <ele>532.2</ele>
        <time>2023-11-26T13:00:58Z</time>
      </trkpt>
      <trkpt lat="43.62013" lon="6.61864">
        <ele>532.2</ele>
        <time>2023-11-26T13:00:59Z</time>
      </trkpt>
      <trkpt lat="43.62014" lon="6.61865">
        <ele>532.1</ele>
        <time>2023-11-26T13:01:00Z</time>
      </trkpt>
      <trkpt lat="43.62014" lon="6.61866">
        <ele>532.1</ele>
        <time>2023-11-26T13:01:01Z</time>
      </trkpt>
      <trkpt lat="43.62015" lon="6.61866">
        <ele>532.2</ele>
        <time>2023-11-26T13:01:02Z</time>
      </trkpt>
      <trkpt lat="43.62015" lon="6.61868">
        <ele>532.3</ele>
        <time>2023-11-26T13:01:03Z</time>
      </trkpt>
      <trkpt lat="43.62016" lon="6.61869">
        <ele>532.3</ele>
        <time>2023-11-26T13:01:04Z</time>
      </trkpt>
      <trkpt lat="43.62017" lon="6.6187">
        <ele>532.3</ele>
        <time>2023-11-26T13:01:05Z</time>
      </trkpt>
      <trkpt lat="43.62017" lon="6.6187">
        <ele>532.3</ele>
        <time>2023-11-26T13:01:06Z</time>
      </trkpt>
      <trkpt lat="43.62018" lon="6.6187">
        <ele>532.3</ele>
        <time>2023-11-26T13:01:07Z</time>
      </trkpt>
      <trkpt lat="43.62019" lon="6.6187">
        <ele>532.4</ele>
        <time>2023-11-26T13:01:08Z</time>
      </trkpt>
      <trkpt lat="43.6202" lon="6.6187">
        <ele>532.2</ele>
        <time>2023-11-26T13:01:09Z</time>
      </trkpt>
      <trkpt lat="43.62022" lon="6.6187">
        <ele>532.2</ele>
        <time>2023-11-26T13:01:10Z</time>
      </trkpt>
      <trkpt lat="43.62023" lon="6.61871">
        <ele>532.2</ele>
        <time>2023-11-26T13:01:11Z</time>
      </trkpt>
      <trkpt lat="43.62024" lon="6.61871">
        <ele>532.1</ele>
        <time>2023-11-26T13:01:12Z</time>
      </trkpt>
      <trkpt lat="43.62024" lon="6.61871">
        <ele>532.1</ele>
        <time>2023-11-26T13:01:13Z</time>
      </trkpt>
      <trkpt lat="43.62025" lon="6.61871">
        <ele>532</ele>
        <time>2023-11-26T13:01:14Z</time>
      </trkpt>
      <trkpt lat="43.62025" lon="6.61872">
        <ele>532</ele>
        <time>2023-11-26T13:01:15Z</time>
      </trkpt>
      <trkpt lat="43.62026" lon="6.61872">
        <ele>531.9</ele>
        <time>2023-11-26T13:01:16Z</time>
      </trkpt>
      <trkpt lat="43.62026" lon="6.61873">
        <ele>531.9</ele>
        <time>2023-11-26T13:01:17Z</time>
      </trkpt>
      <trkpt lat="43.62027" lon="6.61873">
        <ele>531.8</ele>
        <time>2023-11-26T13:01:18Z</time>
      </trkpt>
      <trkpt lat="43.62028" lon="6.61874">
        <ele>531.6</ele>
        <time>2023-11-26T13:01:19Z</time>
      </trkpt>
      <trkpt lat="43.62028" lon="6.61875">
        <ele>531.5</ele>
        <time>2023-11-26T13:01:20Z</time>
      </trkpt>
      <trkpt lat="43.62029" lon="6.61875">
        <ele>531.4</ele>
        <time>2023-11-26T13:01:21Z</time>
      </trkpt>
      <trkpt lat="43.62029" lon="6.61876">
        <ele>531.2</ele>
        <time>2023-11-26T13:01:22Z</time>
      </trkpt>
      <trkpt lat="43.62029" lon="6.61876">
        <ele>531.1</ele>
        <time>2023-11-26T13:01:23Z</time>
      </trkpt>
      <trkpt lat="43.6203" lon="6.61877">
        <ele>531</ele>
        <time>2023-11-26T13:01:24Z</time>
      </trkpt>
      <trkpt lat="43.6203" lon="6.61878">
        <ele>530.8</ele>
        <time>2023-11-26T13:01:25Z</time>
      </trkpt>
      <trkpt lat="43.6203" lon="6.61879">
        <ele>530.6</ele>
        <time>2023-11-26T13:01:26Z</time>
      </trkpt>
      <trkpt lat="43.62031" lon="6.61879">
        <ele>530.4</ele>
        <time>2023-11-26T13:01:27Z</time>
      </trkpt>
      <trkpt lat="43.62031" lon="6.6188">
        <ele>530.3</ele>
        <time>2023-11-26T13:01:28Z</time>
      </trkpt>
      <trkpt lat="43.62031" lon="6.61881">
        <ele>530.1</ele>
        <time>2023-11-26T13:01:29Z</time>
      </trkpt>
      <trkpt lat="43.62031" lon="6.61882">
        <ele>530</ele>
        <time>2023-11-26T13:01:30Z</time>
      </trkpt>
      <trkpt lat="43.62031" lon="6.61882">
        <ele>529.9</ele>
        <time>2023-11-26T13:01:31Z</time>
      </trkpt>
      <trkpt lat="43.62031" lon="6.61883">
        <ele>529.8</ele>
        <time>2023-11-26T13:01:32Z</time>
      </trkpt>
      <trkpt lat="43.6203" lon="6.61885">
        <ele>529.7</ele>
        <time>2023-11-26T13:01:33Z</time>
      </trkpt>
      <trkpt lat="43.6203" lon="6.61886">
        <ele>529.4</ele>
        <time>2023-11-26T13:01:34Z</time>
      </trkpt>
      <trkpt lat="43.62031" lon="6.61887">
        <ele>529.1</ele>
        <time>2023-11-26T13:01:35Z</time>
      </trkpt>
      <trkpt lat="43.62031" lon="6.61888">
        <ele>528.9</ele>
        <time>2023-11-26T13:01:36Z</time>
      </trkpt>
      <trkpt lat="43.62031" lon="6.61889">
        <ele>528.6</ele>
        <time>2023-11-26T13:01:37Z</time>
      </trkpt>
      <trkpt lat="43.62032" lon="6.61889">
        <ele>528.3</ele>
        <time>2023-11-26T13:01:38Z</time>
      </trkpt>
      <trkpt lat="43.62033" lon="6.6189">
        <ele>528</ele>
        <time>2023-11-26T13:01:39Z</time>
      </trkpt>
      <trkpt lat="43.62033" lon="6.61891">
        <ele>527.8</ele>
        <time>2023-11-26T13:01:40Z</time>
      </trkpt>
      <trkpt lat="43.62033" lon="6.61892">
        <ele>527.6</ele>
        <time>2023-11-26T13:01:41Z</time>
      </trkpt>
      <trkpt lat="43.62033" lon="6.61893">
        <ele>527.3</ele>
        <time>2023-11-26T13:01:42Z</time>
      </trkpt>
      <trkpt lat="43.62032" lon="6.61893">
        <ele>527.1</ele>
        <time>2023-11-26T13:01:43Z</time>
      </trkpt>
      <trkpt lat="43.62032" lon="6.61894">
        <ele>527</ele>
        <time>2023-11-26T13:01:44Z</time>
      </trkpt>
      <trkpt lat="43.62031" lon="6.61895">
        <ele>526.8</ele>
        <time>2023-11-26T13:01:45Z</time>
      </trkpt>
      <trkpt lat="43.6203" lon="6.61896">
        <ele>526.6</ele>
        <time>2023-11-26T13:01:46Z</time>
      </trkpt>
      <trkpt lat="43.6203" lon="6.61897">
        <ele>526.4</ele>
        <time>2023-11-26T13:01:47Z</time>
      </trkpt>
      <trkpt lat="43.62029" lon="6.61898">
        <ele>526.3</ele>
        <time>2023-11-26T13:01:48Z</time>
      </trkpt>
      <trkpt lat="43.62029" lon="6.61899">
        <ele>526</ele>
        <time>2023-11-26T13:01:49Z</time>
      </trkpt>
      <trkpt lat="43.62029" lon="6.61899">
        <ele>525.7</ele>
        <time>2023-11-26T13:01:50Z</time>
      </trkpt>
      <trkpt lat="43.62029" lon="6.61899">
        <ele>525.4</ele>
        <time>2023-11-26T13:01:51Z</time>
      </trkpt>
      <trkpt lat="43.62029" lon="6.619">
        <ele>525.2</ele>
        <time>2023-11-26T13:01:52Z</time>
      </trkpt>
      <trkpt lat="43.62028" lon="6.619">
        <ele>525.1</ele>
        <time>2023-11-26T13:01:53Z</time>
      </trkpt>
      <trkpt lat="43.62028" lon="6.619">
        <ele>524.9</ele>
        <time>2023-11-26T13:01:54Z</time>
      </trkpt>
      <trkpt lat="43.62028" lon="6.61901">
        <ele>524.7</ele>
        <time>2023-11-26T13:01:55Z</time>
      </trkpt>
      <trkpt lat="43.62028" lon="6.61902">
        <ele>524.4</ele>
        <time>2023-11-26T13:01:56Z</time>
      </trkpt>
      <trkpt lat="43.62028" lon="6.61903">
        <ele>524.3</ele>
        <time>2023-11-26T13:01:57Z</time>
      </trkpt>
      <trkpt lat="43.62028" lon="6.61904">
        <ele>524.2</ele>
        <time>2023-11-26T13:01:58Z</time>
      </trkpt>
      <trkpt lat="43.62028" lon="6.61905">
        <ele>524</ele>
        <time>2023-11-26T13:01:59Z</time>
      </trkpt>
      <trkpt lat="43.62028" lon="6.61905">
        <ele>523.9</ele>
        <time>2023-11-26T13:02:00Z</time>
      </trkpt>
      <trkpt lat="43.62027" lon="6.61906">
        <ele>523.6</ele>
        <time>2023-11-26T13:02:01Z</time>
      </trkpt>
      <trkpt lat="43.62027" lon="6.61907">
        <ele>523.4</ele>
        <time>2023-11-26T13:02:02Z</time>
      </trkpt>
      <trkpt lat="43.62027" lon="6.61908">
        <ele>523.3</ele>
        <time>2023-11-26T13:02:03Z</time>
      </trkpt>
      <trkpt lat="43.62027" lon="6.61909">
        <ele>523</ele>
        <time>2023-11-26T13:02:04Z</time>
      </trkpt>
      <trkpt lat="43.62026" lon="6.6191">
        <ele>522.8</ele>
        <time>2023-11-26T13:02:05Z</time>
      </trkpt>
      <trkpt lat="43.62026" lon="6.61911">
        <ele>522.4</ele>
        <time>2023-11-26T13:02:06Z</time>
      </trkpt>
      <trkpt lat="43.62026" lon="6.61912">
        <ele>522.2</ele>
        <time>2023-11-26T13:02:07Z</time>
      </trkpt>
      <trkpt lat="43.62026" lon="6.61914">
        <ele>521.9</ele>
        <time>2023-11-26T13:02:08Z</time>
      </trkpt>
      <trkpt lat="43.62027" lon="6.61915">
        <ele>521.8</ele>
        <time>2023-11-26T13:02:09Z</time>
      </trkpt>
      <trkpt lat="43.62027" lon="6.61916">
        <ele>521.5</ele>
        <time>2023-11-26T13:02:10Z</time>
      </trkpt>
      <trkpt lat="43.62027" lon="6.61917">
        <ele>521.3</ele>
        <time>2023-11-26T13:02:11Z</time>
      </trkpt>
      <trkpt lat="43.62027" lon="6.61919">
        <ele>521.2</ele>
        <time>2023-11-26T13:02:12Z</time>
      </trkpt>
      <trkpt lat="43.62027" lon="6.6192">
        <ele>521.1</ele>
        <time>2023-11-26T13:02:13Z</time>
      </trkpt>
      <trkpt lat="43.62027" lon="6.61921">
        <ele>520.7</ele>
        <time>2023-11-26T13:02:14Z</time>
      </trkpt>
      <trkpt lat="43.62027" lon="6.61922">
        <ele>520.4</ele>
        <time>2023-11-26T13:02:15Z</time>
      </trkpt>
      <trkpt lat="43.62027" lon="6.61924">
        <ele>520.2</ele>
        <time>2023-11-26T13:02:16Z</time>
      </trkpt>
      <trkpt lat="43.62027" lon="6.61925">
        <ele>520</ele>
        <time>2023-11-26T13:02:17Z</time>
      </trkpt>
      <trkpt lat="43.62027" lon="6.61926">
        <ele>519.7</ele>
        <time>2023-11-26T13:02:18Z</time>
      </trkpt>
      <trkpt lat="43.62028" lon="6.61926">
        <ele>519.5</ele>
        <time>2023-11-26T13:02:19Z</time>
      </trkpt>
      <trkpt lat="43.62028" lon="6.61928">
        <ele>519.3</ele>
        <time>2023-11-26T13:02:20Z</time>
      </trkpt>
      <trkpt lat="43.62028" lon="6.61929">
        <ele>519.1</ele>
        <time>2023-11-26T13:02:21Z</time>
      </trkpt>
      <trkpt lat="43.62028" lon="6.6193">
        <ele>518.9</ele>
        <time>2023-11-26T13:02:22Z</time>
      </trkpt>
      <trkpt lat="43.62028" lon="6.61932">
        <ele>518.7</ele>
        <time>2023-11-26T13:02:23Z</time>
      </trkpt>
      <trkpt lat="43.62028" lon="6.61933">
        <ele>518.5</ele>
        <time>2023-11-26T13:02:24Z</time>
      </trkpt>
      <trkpt lat="43.62028" lon="6.61934">
        <ele>518.3</ele>
        <time>2023-11-26T13:02:25Z</time>
      </trkpt>
      <trkpt lat="43.62028" lon="6.61936">
        <ele>518.1</ele>
        <time>2023-11-26T13:02:26Z</time>
      </trkpt>
      <trkpt lat="43.62028" lon="6.61937">
        <ele>518</ele>
        <time>2023-11-26T13:02:27Z</time>
      </trkpt>
      <trkpt lat="43.62027" lon="6.61939">
        <ele>517.7</ele>
        <time>2023-11-26T13:02:28Z</time>
      </trkpt>
      <trkpt lat="43.62027" lon="6.6194">
        <ele>517.4</ele>
        <time>2023-11-26T13:02:29Z</time>
      </trkpt>
      <trkpt lat="43.62026" lon="6.6194">
        <ele>517.1</ele>
        <time>2023-11-26T13:02:30Z</time>
      </trkpt>
      <trkpt lat="43.62026" lon="6.61941">
        <ele>516.9</ele>
        <time>2023-11-26T13:02:31Z</time>
      </trkpt>
      <trkpt lat="43.62024" lon="6.6194">
        <ele>516.6</ele>
        <time>2023-11-26T13:02:32Z</time>
      </trkpt>
      <trkpt lat="43.62023" lon="6.6194">
        <ele>516.4</ele>
        <time>2023-11-26T13:02:33Z</time>
      </trkpt>
      <trkpt lat="43.62023" lon="6.6194">
        <ele>516.2</ele>
        <time>2023-11-26T13:02:34Z</time>
      </trkpt>
      <trkpt lat="43.62023" lon="6.6194">
        <ele>516</ele>
        <time>2023-11-26T13:02:35Z</time>
      </trkpt>
      <trkpt lat="43.62023" lon="6.6194">
        <ele>515.7</ele>
        <time>2023-11-26T13:02:36Z</time>
      </trkpt>
      <trkpt lat="43.62022" lon="6.6194">
        <ele>515.5</ele>
        <time>2023-11-26T13:02:37Z</time>
      </trkpt>
      <trkpt lat="43.62022" lon="6.6194">
        <ele>515.4</ele>
        <time>2023-11-26T13:02:38Z</time>
      </trkpt>
      <trkpt lat="43.62022" lon="6.6194">
        <ele>515.1</ele>
        <time>2023-11-26T13:02:39Z</time>
      </trkpt>
      <trkpt lat="43.62021" lon="6.6194">
        <ele>515</ele>
        <time>2023-11-26T13:02:40Z</time>
      </trkpt>
      <trkpt lat="43.62021" lon="6.6194">
        <ele>514.8</ele>
        <time>2023-11-26T13:02:41Z</time>
      </trkpt>
      <trkpt lat="43.62021" lon="6.6194">
        <ele>514.5</ele>
        <time>2023-11-26T13:02:42Z</time>
      </trkpt>
      <trkpt lat="43.6202" lon="6.6194">
        <ele>514.2</ele>
        <time>2023-11-26T13:02:43Z</time>
      </trkpt>
      <trkpt lat="43.6202" lon="6.6194">
        <ele>514</ele>
        <time>2023-11-26T13:02:44Z</time>
      </trkpt>
      <trkpt lat="43.62019" lon="6.6194">
        <ele>513.7</ele>
        <time>2023-11-26T13:02:45Z</time>
      </trkpt>
      <trkpt lat="43.62019" lon="6.61941">
        <ele>513.5</ele>
        <time>2023-11-26T13:02:46Z</time>
      </trkpt>
      <trkpt lat="43.62019" lon="6.61942">
        <ele>513.3</ele>
        <time>2023-11-26T13:02:47Z</time>
      </trkpt>
      <trkpt lat="43.62019" lon="6.61943">
        <ele>513</ele>
        <time>2023-11-26T13:02:48Z</time>
      </trkpt>
      <trkpt lat="43.62019" lon="6.61944">
        <ele>512.8</ele>
        <time>2023-11-26T13:02:49Z</time>
      </trkpt>
      <trkpt lat="43.62019" lon="6.61945">
        <ele>512.5</ele>
        <time>2023-11-26T13:02:50Z</time>
      </trkpt>
      <trkpt lat="43.62018" lon="6.61945">
        <ele>512.3</ele>
        <time>2023-11-26T13:02:51Z</time>
      </trkpt>
      <trkpt lat="43.62017" lon="6.61946">
        <ele>512.1</ele>
        <time>2023-11-26T13:02:52Z</time>
      </trkpt>
      <trkpt lat="43.62017" lon="6.61946">
        <ele>511.9</ele>
        <time>2023-11-26T13:02:53Z</time>
      </trkpt>
      <trkpt lat="43.62016" lon="6.61947">
        <ele>511.7</ele>
        <time>2023-11-26T13:02:54Z</time>
      </trkpt>
      <trkpt lat="43.62016" lon="6.61947">
        <ele>511.5</ele>
        <time>2023-11-26T13:02:55Z</time>
      </trkpt>
      <trkpt lat="43.62015" lon="6.61948">
        <ele>511.3</ele>
        <time>2023-11-26T13:02:56Z</time>
      </trkpt>
      <trkpt lat="43.62014" lon="6.61948">
        <ele>511</ele>
        <time>2023-11-26T13:02:57Z</time>
      </trkpt>
      <trkpt lat="43.62014" lon="6.61948">
        <ele>510.8</ele>
        <time>2023-11-26T13:02:58Z</time>
      </trkpt>
      <trkpt lat="43.62014" lon="6.61949">
        <ele>510.6</ele>
        <time>2023-11-26T13:02:59Z</time>
      </trkpt>
      <trkpt lat="43.62014" lon="6.61949">
        <ele>510.4</ele>
        <time>2023-11-26T13:03:00Z</time>
      </trkpt>
      <trkpt lat="43.62014" lon="6.61948">
        <ele>510.2</ele>
        <time>2023-11-26T13:03:01Z</time>
      </trkpt>
      <trkpt lat="43.62013" lon="6.61949">
        <ele>510</ele>
        <time>2023-11-26T13:03:02Z</time>
      </trkpt>
      <trkpt lat="43.62011" lon="6.61949">
        <ele>509.9</ele>
        <time>2023-11-26T13:03:03Z</time>
      </trkpt>
      <trkpt lat="43.62011" lon="6.6195">
        <ele>509.6</ele>
        <time>2023-11-26T13:03:04Z</time>
      </trkpt>
      <trkpt lat="43.6201" lon="6.6195">
        <ele>509.3</ele>
        <time>2023-11-26T13:03:05Z</time>
      </trkpt>
      <trkpt lat="43.6201" lon="6.61951">
        <ele>509.1</ele>
        <time>2023-11-26T13:03:06Z</time>
      </trkpt>
      <trkpt lat="43.62009" lon="6.61951">
        <ele>508.8</ele>
        <time>2023-11-26T13:03:07Z</time>
      </trkpt>
      <trkpt lat="43.62008" lon="6.61951">
        <ele>508.6</ele>
        <time>2023-11-26T13:03:08Z</time>
      </trkpt>
      <trkpt lat="43.62007" lon="6.61952">
        <ele>508.4</ele>
        <time>2023-11-26T13:03:09Z</time>
      </trkpt>
      <trkpt lat="43.62005" lon="6.61952">
        <ele>508.2</ele>
        <time>2023-11-26T13:03:10Z</time>
      </trkpt>
      <trkpt lat="43.62004" lon="6.61952">
        <ele>508</ele>
        <time>2023-11-26T13:03:11Z</time>
      </trkpt>
      <trkpt lat="43.62004" lon="6.61953">
        <ele>507.7</ele>
        <time>2023-11-26T13:03:12Z</time>
      </trkpt>
      <trkpt lat="43.62004" lon="6.61955">
        <ele>507.5</ele>
        <time>2023-11-26T13:03:13Z</time>
      </trkpt>
      <trkpt lat="43.62004" lon="6.61955">
        <ele>507.3</ele>
        <time>2023-11-26T13:03:14Z</time>
      </trkpt>
      <trkpt lat="43.62004" lon="6.61957">
        <ele>507.1</ele>
        <time>2023-11-26T13:03:15Z</time>
      </trkpt>
      <trkpt lat="43.62005" lon="6.61958">
        <ele>507</ele>
        <time>2023-11-26T13:03:16Z</time>
      </trkpt>
      <trkpt lat="43.62005" lon="6.61958">
        <ele>506.9</ele>
        <time>2023-11-26T13:03:17Z</time>
      </trkpt>
      <trkpt lat="43.62005" lon="6.61959">
        <ele>506.8</ele>
        <time>2023-11-26T13:03:18Z</time>
      </trkpt>
      <trkpt lat="43.62006" lon="6.61959">
        <ele>506.7</ele>
        <time>2023-11-26T13:03:19Z</time>
      </trkpt>
      <trkpt lat="43.62007" lon="6.6196">
        <ele>506.6</ele>
        <time>2023-11-26T13:03:20Z</time>
      </trkpt>
      <trkpt lat="43.62008" lon="6.61961">
        <ele>506.6</ele>
        <time>2023-11-26T13:03:21Z</time>
      </trkpt>
      <trkpt lat="43.62008" lon="6.61962">
        <ele>506.6</ele>
        <time>2023-11-26T13:03:22Z</time>
      </trkpt>
      <trkpt lat="43.62008" lon="6.61963">
        <ele>506.5</ele>
        <time>2023-11-26T13:03:23Z</time>
      </trkpt>
      <trkpt lat="43.62009" lon="6.61963">
        <ele>506.5</ele>
        <time>2023-11-26T13:03:24Z</time>
      </trkpt>
      <trkpt lat="43.62009" lon="6.61965">
        <ele>506.4</ele>
        <time>2023-11-26T13:03:25Z</time>
      </trkpt>
      <trkpt lat="43.6201" lon="6.61965">
        <ele>506.4</ele>
        <time>2023-11-26T13:03:26Z</time>
      </trkpt>
      <trkpt lat="43.6201" lon="6.61966">
        <ele>506.3</ele>
        <time>2023-11-26T13:03:27Z</time>
      </trkpt>
      <trkpt lat="43.6201" lon="6.61966">
        <ele>506.2</ele>
        <time>2023-11-26T13:03:28Z</time>
      </trkpt>
      <trkpt lat="43.62011" lon="6.61967">
        <ele>506.2</ele>
        <time>2023-11-26T13:03:29Z</time>
      </trkpt>
      <trkpt lat="43.62012" lon="6.61967">
        <ele>506.2</ele>
        <time>2023-11-26T13:03:30Z</time>
      </trkpt>
      <trkpt lat="43.62012" lon="6.61967">
        <ele>506.3</ele>
        <time>2023-11-26T13:03:31Z</time>
      </trkpt>
      <trkpt lat="43.62012" lon="6.61966">
        <ele>506.2</ele>
        <time>2023-11-26T13:03:32Z</time>
      </trkpt>
      <trkpt lat="43.62013" lon="6.61966">
        <ele>506.2</ele>
        <time>2023-11-26T13:03:33Z</time>
      </trkpt>
      <trkpt lat="43.62013" lon="6.61966">
        <ele>506.3</ele>
        <time>2023-11-26T13:03:34Z</time>
      </trkpt>
      <trkpt lat="43.62013" lon="6.61967">
        <ele>506.3</ele>
        <time>2023-11-26T13:03:35Z</time>
      </trkpt>
      <trkpt lat="43.62013" lon="6.61967">
        <ele>506.4</ele>
        <time>2023-11-26T13:03:36Z</time>
      </trkpt>
      <trkpt lat="43.62013" lon="6.61967">
        <ele>506.4</ele>
        <time>2023-11-26T13:03:37Z</time>
      </trkpt>
      <trkpt lat="43.62013" lon="6.61967">
        <ele>506.4</ele>
        <time>2023-11-26T13:03:38Z</time>
      </trkpt>
      <trkpt lat="43.62013" lon="6.61968">
        <ele>506.4</ele>
        <time>2023-11-26T13:03:39Z</time>
      </trkpt>
      <trkpt lat="43.62013" lon="6.61968">
        <ele>506.4</ele>
        <time>2023-11-26T13:03:40Z</time>
      </trkpt>
      <trkpt lat="43.62013" lon="6.61968">
        <ele>506.4</ele>
        <time>2023-11-26T13:03:41Z</time>
      </trkpt>
      <trkpt lat="43.62013" lon="6.61969">
        <ele>506.4</ele>
        <time>2023-11-26T13:03:42Z</time>
      </trkpt>
      <trkpt lat="43.62013" lon="6.61969">
        <ele>506.4</ele>
        <time>2023-11-26T13:03:43Z</time>
      </trkpt>
      <trkpt lat="43.62014" lon="6.61969">
        <ele>506.3</ele>
        <time>2023-11-26T13:03:44Z</time>
      </trkpt>
      <trkpt lat="43.62014" lon="6.6197">
        <ele>506.3</ele>
        <time>2023-11-26T13:03:45Z</time>
      </trkpt>
      <trkpt lat="43.62015" lon="6.61971">
        <ele>506.3</ele>
        <time>2023-11-26T13:03:46Z</time>
      </trkpt>
      <trkpt lat="43.62016" lon="6.61972">
        <ele>506.1</ele>
        <time>2023-11-26T13:03:47Z</time>
      </trkpt>
      <trkpt lat="43.62017" lon="6.61973">
        <ele>506</ele>
        <time>2023-11-26T13:03:48Z</time>
      </trkpt>
      <trkpt lat="43.62018" lon="6.61974">
        <ele>505.8</ele>
        <time>2023-11-26T13:03:49Z</time>
      </trkpt>
      <trkpt lat="43.62019" lon="6.61974">
        <ele>505.7</ele>
        <time>2023-11-26T13:03:50Z</time>
      </trkpt>
      <trkpt lat="43.6202" lon="6.61975">
        <ele>505.5</ele>
        <time>2023-11-26T13:03:51Z</time>
      </trkpt>
      <trkpt lat="43.62021" lon="6.61976">
        <ele>505.4</ele>
        <time>2023-11-26T13:03:52Z</time>
      </trkpt>
      <trkpt lat="43.62022" lon="6.61977">
        <ele>505.2</ele>
        <time>2023-11-26T13:03:53Z</time>
      </trkpt>
      <trkpt lat="43.62023" lon="6.61978">
        <ele>505</ele>
        <time>2023-11-26T13:03:54Z</time>
      </trkpt>
      <trkpt lat="43.62024" lon="6.61978">
        <ele>504.9</ele>
        <time>2023-11-26T13:03:55Z</time>
      </trkpt>
      <trkpt lat="43.62025" lon="6.61979">
        <ele>504.8</ele>
        <time>2023-11-26T13:03:56Z</time>
      </trkpt>
      <trkpt lat="43.62025" lon="6.6198">
        <ele>504.7</ele>
        <time>2023-11-26T13:03:57Z</time>
      </trkpt>
      <trkpt lat="43.62027" lon="6.6198">
        <ele>504.5</ele>
        <time>2023-11-26T13:03:58Z</time>
      </trkpt>
      <trkpt lat="43.62028" lon="6.61982">
        <ele>504.3</ele>
        <time>2023-11-26T13:03:59Z</time>
      </trkpt>
      <trkpt lat="43.62029" lon="6.61982">
        <ele>504.1</ele>
        <time>2023-11-26T13:04:00Z</time>
      </trkpt>
      <trkpt lat="43.62029" lon="6.61983">
        <ele>504</ele>
        <time>2023-11-26T13:04:01Z</time>
      </trkpt>
      <trkpt lat="43.6203" lon="6.61983">
        <ele>503.8</ele>
        <time>2023-11-26T13:04:02Z</time>
      </trkpt>
      <trkpt lat="43.6203" lon="6.61984">
        <ele>503.6</ele>
        <time>2023-11-26T13:04:03Z</time>
      </trkpt>
      <trkpt lat="43.6203" lon="6.61985">
        <ele>503.5</ele>
        <time>2023-11-26T13:04:04Z</time>
      </trkpt>
      <trkpt lat="43.62031" lon="6.61986">
        <ele>503.4</ele>
        <time>2023-11-26T13:04:05Z</time>
      </trkpt>
      <trkpt lat="43.62032" lon="6.61986">
        <ele>503.3</ele>
        <time>2023-11-26T13:04:06Z</time>
      </trkpt>
      <trkpt lat="43.62032" lon="6.61986">
        <ele>503.2</ele>
        <time>2023-11-26T13:04:07Z</time>
      </trkpt>
      <trkpt lat="43.62033" lon="6.61987">
        <ele>503</ele>
        <time>2023-11-26T13:04:08Z</time>
      </trkpt>
      <trkpt lat="43.62033" lon="6.61987">
        <ele>502.9</ele>
        <time>2023-11-26T13:04:09Z</time>
      </trkpt>
      <trkpt lat="43.62033" lon="6.61987">
        <ele>502.7</ele>
        <time>2023-11-26T13:04:10Z</time>
      </trkpt>
      <trkpt lat="43.62033" lon="6.61987">
        <ele>502.6</ele>
        <time>2023-11-26T13:04:11Z</time>
      </trkpt>
      <trkpt lat="43.62033" lon="6.61987">
        <ele>502.6</ele>
        <time>2023-11-26T13:04:12Z</time>
      </trkpt>
      <trkpt lat="43.62033" lon="6.61988">
        <ele>502.6</ele>
        <time>2023-11-26T13:04:13Z</time>
      </trkpt>
      <trkpt lat="43.62034" lon="6.61988">
        <ele>502.4</ele>
        <time>2023-11-26T13:04:14Z</time>
      </trkpt>
      <trkpt lat="43.62035" lon="6.61989">
        <ele>502.3</ele>
        <time>2023-11-26T13:04:15Z</time>
      </trkpt>
      <trkpt lat="43.62035" lon="6.6199">
        <ele>502.2</ele>
        <time>2023-11-26T13:04:16Z</time>
      </trkpt>
      <trkpt lat="43.62036" lon="6.61991">
        <ele>502.2</ele>
        <time>2023-11-26T13:04:17Z</time>
      </trkpt>
      <trkpt lat="43.62037" lon="6.61991">
        <ele>502.1</ele>
        <time>2023-11-26T13:04:18Z</time>
      </trkpt>
      <trkpt lat="43.62037" lon="6.61992">
        <ele>501.9</ele>
        <time>2023-11-26T13:04:19Z</time>
      </trkpt>
      <trkpt lat="43.62037" lon="6.61992">
        <ele>501.8</ele>
        <time>2023-11-26T13:04:20Z</time>
      </trkpt>
      <trkpt lat="43.62039" lon="6.61993">
        <ele>501.7</ele>
        <time>2023-11-26T13:04:21Z</time>
      </trkpt>
      <trkpt lat="43.62039" lon="6.61993">
        <ele>501.6</ele>
        <time>2023-11-26T13:04:22Z</time>
      </trkpt>
      <trkpt lat="43.62039" lon="6.61993">
        <ele>501.5</ele>
        <time>2023-11-26T13:04:23Z</time>
      </trkpt>
      <trkpt lat="43.6204" lon="6.61994">
        <ele>501.4</ele>
        <time>2023-11-26T13:04:24Z</time>
      </trkpt>
      <trkpt lat="43.62041" lon="6.61994">
        <ele>501.2</ele>
        <time>2023-11-26T13:04:25Z</time>
      </trkpt>
      <trkpt lat="43.62041" lon="6.61994">
        <ele>501.1</ele>
        <time>2023-11-26T13:04:26Z</time>
      </trkpt>
      <trkpt lat="43.62043" lon="6.61994">
        <ele>501</ele>
        <time>2023-11-26T13:04:27Z</time>
      </trkpt>
      <trkpt lat="43.62043" lon="6.61995">
        <ele>500.9</ele>
        <time>2023-11-26T13:04:28Z</time>
      </trkpt>
      <trkpt lat="43.62044" lon="6.61996">
        <ele>500.8</ele>
        <time>2023-11-26T13:04:29Z</time>
      </trkpt>
      <trkpt lat="43.62044" lon="6.61996">
        <ele>500.8</ele>
        <time>2023-11-26T13:04:30Z</time>
      </trkpt>
      <trkpt lat="43.62045" lon="6.61996">
        <ele>500.7</ele>
        <time>2023-11-26T13:04:31Z</time>
      </trkpt>
      <trkpt lat="43.62046" lon="6.61996">
        <ele>500.5</ele>
        <time>2023-11-26T13:04:32Z</time>
      </trkpt>
      <trkpt lat="43.62047" lon="6.61996">
        <ele>500.3</ele>
        <time>2023-11-26T13:04:33Z</time>
      </trkpt>
      <trkpt lat="43.62049" lon="6.61996">
        <ele>500.2</ele>
        <time>2023-11-26T13:04:34Z</time>
      </trkpt>
      <trkpt lat="43.62051" lon="6.61996">
        <ele>500.2</ele>
        <time>2023-11-26T13:04:35Z</time>
      </trkpt>
      <trkpt lat="43.62052" lon="6.61996">
        <ele>500.1</ele>
        <time>2023-11-26T13:04:36Z</time>
      </trkpt>
      <trkpt lat="43.62053" lon="6.61997">
        <ele>500</ele>
        <time>2023-11-26T13:04:37Z</time>
      </trkpt>
      <trkpt lat="43.62053" lon="6.61996">
        <ele>499.8</ele>
        <time>2023-11-26T13:04:38Z</time>
      </trkpt>
      <trkpt lat="43.62054" lon="6.61996">
        <ele>499.6</ele>
        <time>2023-11-26T13:04:39Z</time>
      </trkpt>
      <trkpt lat="43.62055" lon="6.61996">
        <ele>499.4</ele>
        <time>2023-11-26T13:04:40Z</time>
      </trkpt>
      <trkpt lat="43.62057" lon="6.61996">
        <ele>499.2</ele>
        <time>2023-11-26T13:04:41Z</time>
      </trkpt>
      <trkpt lat="43.62057" lon="6.61997">
        <ele>499</ele>
        <time>2023-11-26T13:04:42Z</time>
      </trkpt>
      <trkpt lat="43.62058" lon="6.61998">
        <ele>498.9</ele>
        <time>2023-11-26T13:04:43Z</time>
      </trkpt>
      <trkpt lat="43.62059" lon="6.61998">
        <ele>498.8</ele>
        <time>2023-11-26T13:04:44Z</time>
      </trkpt>
      <trkpt lat="43.6206" lon="6.61999">
        <ele>498.5</ele>
        <time>2023-11-26T13:04:45Z</time>
      </trkpt>
      <trkpt lat="43.6206" lon="6.61998">
        <ele>498.3</ele>
        <time>2023-11-26T13:04:46Z</time>
      </trkpt>
      <trkpt lat="43.6206" lon="6.61999">
        <ele>498.2</ele>
        <time>2023-11-26T13:04:47Z</time>
      </trkpt>
      <trkpt lat="43.6206" lon="6.61999">
        <ele>498.1</ele>
        <time>2023-11-26T13:04:48Z</time>
      </trkpt>
      <trkpt lat="43.6206" lon="6.61999">
        <ele>498</ele>
        <time>2023-11-26T13:04:49Z</time>
      </trkpt>
      <trkpt lat="43.6206" lon="6.61999">
        <ele>497.9</ele>
        <time>2023-11-26T13:04:50Z</time>
      </trkpt>
      <trkpt lat="43.6206" lon="6.61999">
        <ele>497.8</ele>
        <time>2023-11-26T13:04:51Z</time>
      </trkpt>
      <trkpt lat="43.62061" lon="6.61998">
        <ele>497.7</ele>
        <time>2023-11-26T13:04:52Z</time>
      </trkpt>
      <trkpt lat="43.62061" lon="6.61998">
        <ele>497.6</ele>
        <time>2023-11-26T13:04:53Z</time>
      </trkpt>
      <trkpt lat="43.62061" lon="6.61997">
        <ele>497.6</ele>
        <time>2023-11-26T13:04:54Z</time>
      </trkpt>
      <trkpt lat="43.62062" lon="6.61996">
        <ele>497.5</ele>
        <time>2023-11-26T13:04:55Z</time>
      </trkpt>
      <trkpt lat="43.62062" lon="6.61997">
        <ele>497.5</ele>
        <time>2023-11-26T13:04:56Z</time>
      </trkpt>
      <trkpt lat="43.62063" lon="6.61997">
        <ele>497.4</ele>
        <time>2023-11-26T13:04:57Z</time>
      </trkpt>
      <trkpt lat="43.62063" lon="6.61997">
        <ele>497.4</ele>
        <time>2023-11-26T13:04:58Z</time>
      </trkpt>
      <trkpt lat="43.62064" lon="6.61997">
        <ele>497.4</ele>
        <time>2023-11-26T13:04:59Z</time>
      </trkpt>
      <trkpt lat="43.62064" lon="6.61997">
        <ele>497.3</ele>
        <time>2023-11-26T13:05:00Z</time>
      </trkpt>
      <trkpt lat="43.62064" lon="6.61997">
        <ele>497.2</ele>
        <time>2023-11-26T13:05:01Z</time>
      </trkpt>
      <trkpt lat="43.62064" lon="6.61997">
        <ele>497.2</ele>
        <time>2023-11-26T13:05:02Z</time>
      </trkpt>
      <trkpt lat="43.62064" lon="6.61996">
        <ele>497.2</ele>
        <time>2023-11-26T13:05:03Z</time>
      </trkpt>
      <trkpt lat="43.62064" lon="6.61996">
        <ele>497.1</ele>
        <time>2023-11-26T13:05:04Z</time>
      </trkpt>
      <trkpt lat="43.62064" lon="6.61996">
        <ele>497.1</ele>
        <time>2023-11-26T13:05:05Z</time>
      </trkpt>
      <trkpt lat="43.62064" lon="6.61996">
        <ele>497.1</ele>
        <time>2023-11-26T13:05:06Z</time>
      </trkpt>
      <trkpt lat="43.62064" lon="6.61996">
        <ele>497</ele>
        <time>2023-11-26T13:05:07Z</time>
      </trkpt>
      <trkpt lat="43.62064" lon="6.61995">
        <ele>496.9</ele>
        <time>2023-11-26T13:05:08Z</time>
      </trkpt>
      <trkpt lat="43.62064" lon="6.61995">
        <ele>496.9</ele>
        <time>2023-11-26T13:05:09Z</time>
      </trkpt>
      <trkpt lat="43.62064" lon="6.61995">
        <ele>496.8</ele>
        <time>2023-11-26T13:05:10Z</time>
      </trkpt>
      <trkpt lat="43.62064" lon="6.61994">
        <ele>496.8</ele>
        <time>2023-11-26T13:05:11Z</time>
      </trkpt>
      <trkpt lat="43.62064" lon="6.61995">
        <ele>496.8</ele>
        <time>2023-11-26T13:05:12Z</time>
      </trkpt>
      <trkpt lat="43.62064" lon="6.61995">
        <ele>496.9</ele>
        <time>2023-11-26T13:05:13Z</time>
      </trkpt>
      <trkpt lat="43.62064" lon="6.61995">
        <ele>496.8</ele>
        <time>2023-11-26T13:05:14Z</time>
      </trkpt>
      <trkpt lat="43.62064" lon="6.61995">
        <ele>496.7</ele>
        <time>2023-11-26T13:05:15Z</time>
      </trkpt>
      <trkpt lat="43.62064" lon="6.61995">
        <ele>496.8</ele>
        <time>2023-11-26T13:05:16Z</time>
      </trkpt>
      <trkpt lat="43.62063" lon="6.61995">
        <ele>496.9</ele>
        <time>2023-11-26T13:05:17Z</time>
      </trkpt>
      <trkpt lat="43.62063" lon="6.61995">
        <ele>496.9</ele>
        <time>2023-11-26T13:05:18Z</time>
      </trkpt>
      <trkpt lat="43.62062" lon="6.61995">
        <ele>496.9</ele>
        <time>2023-11-26T13:05:19Z</time>
      </trkpt>
      <trkpt lat="43.62062" lon="6.61996">
        <ele>496.9</ele>
        <time>2023-11-26T13:05:20Z</time>
      </trkpt>
      <trkpt lat="43.62062" lon="6.61996">
        <ele>496.9</ele>
        <time>2023-11-26T13:05:21Z</time>
      </trkpt>
      <trkpt lat="43.62061" lon="6.61997">
        <ele>496.9</ele>
        <time>2023-11-26T13:05:22Z</time>
      </trkpt>
      <trkpt lat="43.6206" lon="6.61997">
        <ele>496.9</ele>
        <time>2023-11-26T13:05:23Z</time>
      </trkpt>
      <trkpt lat="43.62059" lon="6.61998">
        <ele>496.8</ele>
        <time>2023-11-26T13:05:24Z</time>
      </trkpt>
      <trkpt lat="43.62059" lon="6.61998">
        <ele>496.9</ele>
        <time>2023-11-26T13:05:25Z</time>
      </trkpt>
      <trkpt lat="43.62058" lon="6.61999">
        <ele>496.8</ele>
        <time>2023-11-26T13:05:26Z</time>
      </trkpt>
      <trkpt lat="43.62057" lon="6.62">
        <ele>496.8</ele>
        <time>2023-11-26T13:05:27Z</time>
      </trkpt>
      <trkpt lat="43.62057" lon="6.62">
        <ele>496.8</ele>
        <time>2023-11-26T13:05:28Z</time>
      </trkpt>
      <trkpt lat="43.62056" lon="6.62">
        <ele>496.8</ele>
        <time>2023-11-26T13:05:29Z</time>
      </trkpt>
      <trkpt lat="43.62055" lon="6.62001">
        <ele>496.7</ele>
        <time>2023-11-26T13:05:30Z</time>
      </trkpt>
      <trkpt lat="43.62055" lon="6.62001">
        <ele>496.7</ele>
        <time>2023-11-26T13:05:31Z</time>
      </trkpt>
      <trkpt lat="43.62054" lon="6.62002">
        <ele>496.8</ele>
        <time>2023-11-26T13:05:32Z</time>
      </trkpt>
      <trkpt lat="43.62054" lon="6.62002">
        <ele>496.8</ele>
        <time>2023-11-26T13:05:33Z</time>
      </trkpt>
      <trkpt lat="43.62053" lon="6.62003">
        <ele>496.8</ele>
        <time>2023-11-26T13:05:34Z</time>
      </trkpt>
      <trkpt lat="43.62053" lon="6.62003">
        <ele>496.8</ele>
        <time>2023-11-26T13:05:35Z</time>
      </trkpt>
      <trkpt lat="43.62053" lon="6.62004">
        <ele>496.8</ele>
        <time>2023-11-26T13:05:36Z</time>
      </trkpt>
      <trkpt lat="43.62053" lon="6.62004">
        <ele>496.7</ele>
        <time>2023-11-26T13:05:37Z</time>
      </trkpt>
      <trkpt lat="43.62053" lon="6.62005">
        <ele>496.7</ele>
        <time>2023-11-26T13:05:38Z</time>
      </trkpt>
      <trkpt lat="43.62053" lon="6.62005">
        <ele>496.7</ele>
        <time>2023-11-26T13:05:39Z</time>
      </trkpt>
      <trkpt lat="43.62053" lon="6.62006">
        <ele>496.6</ele>
        <time>2023-11-26T13:05:40Z</time>
      </trkpt>
      <trkpt lat="43.62053" lon="6.62006">
        <ele>496.6</ele>
        <time>2023-11-26T13:05:41Z</time>
      </trkpt>
      <trkpt lat="43.62052" lon="6.62006">
        <ele>496.6</ele>
        <time>2023-11-26T13:05:42Z</time>
      </trkpt>
      <trkpt lat="43.62051" lon="6.62007">
        <ele>496.6</ele>
        <time>2023-11-26T13:05:43Z</time>
      </trkpt>
      <trkpt lat="43.6205" lon="6.62007">
        <ele>496.5</ele>
        <time>2023-11-26T13:05:44Z</time>
      </trkpt>
      <trkpt lat="43.62049" lon="6.62008">
        <ele>496.5</ele>
        <time>2023-11-26T13:05:45Z</time>
      </trkpt>
      <trkpt lat="43.62048" lon="6.62008">
        <ele>496.4</ele>
        <time>2023-11-26T13:05:46Z</time>
      </trkpt>
      <trkpt lat="43.62047" lon="6.62009">
        <ele>496.4</ele>
        <time>2023-11-26T13:05:47Z</time>
      </trkpt>
      <trkpt lat="43.62046" lon="6.6201">
        <ele>496.4</ele>
        <time>2023-11-26T13:05:48Z</time>
      </trkpt>
      <trkpt lat="43.62046" lon="6.6201">
        <ele>496.3</ele>
        <time>2023-11-26T13:05:49Z</time>
      </trkpt>
      <trkpt lat="43.62045" lon="6.62011">
        <ele>496.2</ele>
        <time>2023-11-26T13:05:50Z</time>
      </trkpt>
      <trkpt lat="43.62045" lon="6.62011">
        <ele>496.2</ele>
        <time>2023-11-26T13:05:51Z</time>
      </trkpt>
      <trkpt lat="43.62044" lon="6.62011">
        <ele>496.1</ele>
        <time>2023-11-26T13:05:52Z</time>
      </trkpt>
      <trkpt lat="43.62043" lon="6.62013">
        <ele>495.8</ele>
        <time>2023-11-26T13:05:53Z</time>
      </trkpt>
      <trkpt lat="43.62042" lon="6.62013">
        <ele>495.7</ele>
        <time>2023-11-26T13:05:54Z</time>
      </trkpt>
      <trkpt lat="43.62042" lon="6.62014">
        <ele>495.5</ele>
        <time>2023-11-26T13:05:55Z</time>
      </trkpt>
      <trkpt lat="43.62041" lon="6.62014">
        <ele>495.3</ele>
        <time>2023-11-26T13:05:56Z</time>
      </trkpt>
      <trkpt lat="43.62039" lon="6.62014">
        <ele>495.2</ele>
        <time>2023-11-26T13:05:57Z</time>
      </trkpt>
      <trkpt lat="43.62038" lon="6.62014">
        <ele>495.1</ele>
        <time>2023-11-26T13:05:58Z</time>
      </trkpt>
      <trkpt lat="43.62037" lon="6.62015">
        <ele>495</ele>
        <time>2023-11-26T13:05:59Z</time>
      </trkpt>
      <trkpt lat="43.62037" lon="6.62015">
        <ele>494.8</ele>
        <time>2023-11-26T13:06:00Z</time>
      </trkpt>
      <trkpt lat="43.62037" lon="6.62015">
        <ele>494.8</ele>
        <time>2023-11-26T13:06:01Z</time>
      </trkpt>
      <trkpt lat="43.62036" lon="6.62016">
        <ele>494.7</ele>
        <time>2023-11-26T13:06:02Z</time>
      </trkpt>
      <trkpt lat="43.62034" lon="6.62016">
        <ele>494.7</ele>
        <time>2023-11-26T13:06:03Z</time>
      </trkpt>
      <trkpt lat="43.62033" lon="6.62016">
        <ele>494.7</ele>
        <time>2023-11-26T13:06:04Z</time>
      </trkpt>
      <trkpt lat="43.62032" lon="6.62017">
        <ele>494.6</ele>
        <time>2023-11-26T13:06:05Z</time>
      </trkpt>
      <trkpt lat="43.62031" lon="6.62017">
        <ele>494.7</ele>
        <time>2023-11-26T13:06:06Z</time>
      </trkpt>
      <trkpt lat="43.62031" lon="6.62018">
        <ele>494.6</ele>
        <time>2023-11-26T13:06:07Z</time>
      </trkpt>
      <trkpt lat="43.62029" lon="6.62018">
        <ele>494.5</ele>
        <time>2023-11-26T13:06:08Z</time>
      </trkpt>
      <trkpt lat="43.62028" lon="6.62018">
        <ele>494.4</ele>
        <time>2023-11-26T13:06:09Z</time>
      </trkpt>
      <trkpt lat="43.62027" lon="6.62018">
        <ele>494.2</ele>
        <time>2023-11-26T13:06:10Z</time>
      </trkpt>
      <trkpt lat="43.62027" lon="6.62018">
        <ele>494.2</ele>
        <time>2023-11-26T13:06:11Z</time>
      </trkpt>
      <trkpt lat="43.62026" lon="6.62019">
        <ele>494.1</ele>
        <time>2023-11-26T13:06:12Z</time>
      </trkpt>
      <trkpt lat="43.62025" lon="6.62019">
        <ele>494</ele>
        <time>2023-11-26T13:06:13Z</time>
      </trkpt>
      <trkpt lat="43.62024" lon="6.62018">
        <ele>493.8</ele>
        <time>2023-11-26T13:06:14Z</time>
      </trkpt>
      <trkpt lat="43.62023" lon="6.62019">
        <ele>493.6</ele>
        <time>2023-11-26T13:06:15Z</time>
      </trkpt>
      <trkpt lat="43.62022" lon="6.62019">
        <ele>493.5</ele>
        <time>2023-11-26T13:06:16Z</time>
      </trkpt>
      <trkpt lat="43.62021" lon="6.62019">
        <ele>493.4</ele>
        <time>2023-11-26T13:06:17Z</time>
      </trkpt>
      <trkpt lat="43.62021" lon="6.6202">
        <ele>493.3</ele>
        <time>2023-11-26T13:06:18Z</time>
      </trkpt>
      <trkpt lat="43.6202" lon="6.6202">
        <ele>493.2</ele>
        <time>2023-11-26T13:06:19Z</time>
      </trkpt>
      <trkpt lat="43.62019" lon="6.62021">
        <ele>493.1</ele>
        <time>2023-11-26T13:06:20Z</time>
      </trkpt>
      <trkpt lat="43.62019" lon="6.62021">
        <ele>493.1</ele>
        <time>2023-11-26T13:06:21Z</time>
      </trkpt>
      <trkpt lat="43.62018" lon="6.62021">
        <ele>493</ele>
        <time>2023-11-26T13:06:22Z</time>
      </trkpt>
      <trkpt lat="43.62018" lon="6.62021">
        <ele>492.9</ele>
        <time>2023-11-26T13:06:23Z</time>
      </trkpt>
      <trkpt lat="43.62017" lon="6.62022">
        <ele>492.9</ele>
        <time>2023-11-26T13:06:24Z</time>
      </trkpt>
      <trkpt lat="43.62017" lon="6.62022">
        <ele>492.8</ele>
        <time>2023-11-26T13:06:25Z</time>
      </trkpt>
      <trkpt lat="43.62016" lon="6.62023">
        <ele>492.7</ele>
        <time>2023-11-26T13:06:26Z</time>
      </trkpt>
      <trkpt lat="43.62015" lon="6.62023">
        <ele>492.6</ele>
        <time>2023-11-26T13:06:27Z</time>
      </trkpt>
      <trkpt lat="43.62014" lon="6.62023">
        <ele>492.5</ele>
        <time>2023-11-26T13:06:28Z</time>
      </trkpt>
      <trkpt lat="43.62013" lon="6.62023">
        <ele>492.4</ele>
        <time>2023-11-26T13:06:29Z</time>
      </trkpt>
      <trkpt lat="43.62013" lon="6.62023">
        <ele>492.4</ele>
        <time>2023-11-26T13:06:30Z</time>
      </trkpt>
      <trkpt lat="43.62012" lon="6.62023">
        <ele>492.3</ele>
        <time>2023-11-26T13:06:31Z</time>
      </trkpt>
      <trkpt lat="43.62012" lon="6.62024">
        <ele>492.2</ele>
        <time>2023-11-26T13:06:32Z</time>
      </trkpt>
      <trkpt lat="43.62011" lon="6.62024">
        <ele>492.2</ele>
        <time>2023-11-26T13:06:33Z</time>
      </trkpt>
      <trkpt lat="43.62009" lon="6.62025">
        <ele>492.1</ele>
        <time>2023-11-26T13:06:34Z</time>
      </trkpt>
      <trkpt lat="43.62008" lon="6.62025">
        <ele>492</ele>
        <time>2023-11-26T13:06:35Z</time>
      </trkpt>
      <trkpt lat="43.62008" lon="6.62025">
        <ele>492</ele>
        <time>2023-11-26T13:06:36Z</time>
      </trkpt>
      <trkpt lat="43.62007" lon="6.62026">
        <ele>492</ele>
        <time>2023-11-26T13:06:37Z</time>
      </trkpt>
      <trkpt lat="43.62006" lon="6.62026">
        <ele>492</ele>
        <time>2023-11-26T13:06:38Z</time>
      </trkpt>
      <trkpt lat="43.62005" lon="6.62027">
        <ele>491.9</ele>
        <time>2023-11-26T13:06:39Z</time>
      </trkpt>
      <trkpt lat="43.62005" lon="6.62027">
        <ele>491.8</ele>
        <time>2023-11-26T13:06:40Z</time>
      </trkpt>
      <trkpt lat="43.62004" lon="6.62028">
        <ele>491.7</ele>
        <time>2023-11-26T13:06:41Z</time>
      </trkpt>
      <trkpt lat="43.62003" lon="6.62028">
        <ele>491.6</ele>
        <time>2023-11-26T13:06:42Z</time>
      </trkpt>
      <trkpt lat="43.62001" lon="6.62028">
        <ele>491.5</ele>
        <time>2023-11-26T13:06:43Z</time>
      </trkpt>
      <trkpt lat="43.62" lon="6.62029">
        <ele>491.5</ele>
        <time>2023-11-26T13:06:44Z</time>
      </trkpt>
      <trkpt lat="43.61998" lon="6.62029">
        <ele>491.3</ele>
        <time>2023-11-26T13:06:45Z</time>
      </trkpt>
      <trkpt lat="43.61997" lon="6.62029">
        <ele>491.2</ele>
        <time>2023-11-26T13:06:46Z</time>
      </trkpt>
      <trkpt lat="43.61995" lon="6.62029">
        <ele>491.1</ele>
        <time>2023-11-26T13:06:47Z</time>
      </trkpt>
      <trkpt lat="43.61993" lon="6.6203">
        <ele>491.1</ele>
        <time>2023-11-26T13:06:48Z</time>
      </trkpt>
      <trkpt lat="43.61992" lon="6.6203">
        <ele>491</ele>
        <time>2023-11-26T13:06:49Z</time>
      </trkpt>
      <trkpt lat="43.6199" lon="6.62031">
        <ele>491</ele>
        <time>2023-11-26T13:06:50Z</time>
      </trkpt>
      <trkpt lat="43.61989" lon="6.62031">
        <ele>490.9</ele>
        <time>2023-11-26T13:06:51Z</time>
      </trkpt>
      <trkpt lat="43.61987" lon="6.62032">
        <ele>490.9</ele>
        <time>2023-11-26T13:06:52Z</time>
      </trkpt>
      <trkpt lat="43.61986" lon="6.62033">
        <ele>490.8</ele>
        <time>2023-11-26T13:06:53Z</time>
      </trkpt>
      <trkpt lat="43.61984" lon="6.62034">
        <ele>490.7</ele>
        <time>2023-11-26T13:06:54Z</time>
      </trkpt>
      <trkpt lat="43.61983" lon="6.62035">
        <ele>490.7</ele>
        <time>2023-11-26T13:06:55Z</time>
      </trkpt>
      <trkpt lat="43.61982" lon="6.62036">
        <ele>490.6</ele>
        <time>2023-11-26T13:06:56Z</time>
      </trkpt>
      <trkpt lat="43.61981" lon="6.62038">
        <ele>490.6</ele>
        <time>2023-11-26T13:06:57Z</time>
      </trkpt>
      <trkpt lat="43.6198" lon="6.62039">
        <ele>490.5</ele>
        <time>2023-11-26T13:06:58Z</time>
      </trkpt>
      <trkpt lat="43.61978" lon="6.6204">
        <ele>490.5</ele>
        <time>2023-11-26T13:06:59Z</time>
      </trkpt>
      <trkpt lat="43.61977" lon="6.62041">
        <ele>490.4</ele>
        <time>2023-11-26T13:07:00Z</time>
      </trkpt>
      <trkpt lat="43.61977" lon="6.62043">
        <ele>490.4</ele>
        <time>2023-11-26T13:07:01Z</time>
      </trkpt>
      <trkpt lat="43.61976" lon="6.62044">
        <ele>490.3</ele>
        <time>2023-11-26T13:07:02Z</time>
      </trkpt>
      <trkpt lat="43.61975" lon="6.62045">
        <ele>490.3</ele>
        <time>2023-11-26T13:07:03Z</time>
      </trkpt>
      <trkpt lat="43.61974" lon="6.62047">
        <ele>490.3</ele>
        <time>2023-11-26T13:07:04Z</time>
      </trkpt>
      <trkpt lat="43.61973" lon="6.62049">
        <ele>490.3</ele>
        <time>2023-11-26T13:07:05Z</time>
      </trkpt>
      <trkpt lat="43.61972" lon="6.6205">
        <ele>490.4</ele>
        <time>2023-11-26T13:07:06Z</time>
      </trkpt>
      <trkpt lat="43.61971" lon="6.62051">
        <ele>490.5</ele>
        <time>2023-11-26T13:07:07Z</time>
      </trkpt>
      <trkpt lat="43.6197" lon="6.62053">
        <ele>490.5</ele>
        <time>2023-11-26T13:07:08Z</time>
      </trkpt>
      <trkpt lat="43.61969" lon="6.62054">
        <ele>490.5</ele>
        <time>2023-11-26T13:07:09Z</time>
      </trkpt>
      <trkpt lat="43.61968" lon="6.62055">
        <ele>490.5</ele>
        <time>2023-11-26T13:07:10Z</time>
      </trkpt>
      <trkpt lat="43.61967" lon="6.62056">
        <ele>490.5</ele>
        <time>2023-11-26T13:07:11Z</time>
      </trkpt>
      <trkpt lat="43.61967" lon="6.62058">
        <ele>490.4</ele>
        <time>2023-11-26T13:07:12Z</time>
      </trkpt>
      <trkpt lat="43.61967" lon="6.62059">
        <ele>490.4</ele>
        <time>2023-11-26T13:07:13Z</time>
      </trkpt>
      <trkpt lat="43.61966" lon="6.62061">
        <ele>490.4</ele>
        <time>2023-11-26T13:07:14Z</time>
      </trkpt>
      <trkpt lat="43.61965" lon="6.62062">
        <ele>490.4</ele>
        <time>2023-11-26T13:07:15Z</time>
      </trkpt>
      <trkpt lat="43.61965" lon="6.62064">
        <ele>490.4</ele>
        <time>2023-11-26T13:07:16Z</time>
      </trkpt>
      <trkpt lat="43.61965" lon="6.62066">
        <ele>490.4</ele>
        <time>2023-11-26T13:07:17Z</time>
      </trkpt>
      <trkpt lat="43.61964" lon="6.62067">
        <ele>490.3</ele>
        <time>2023-11-26T13:07:18Z</time>
      </trkpt>
      <trkpt lat="43.61964" lon="6.62069">
        <ele>490.3</ele>
        <time>2023-11-26T13:07:19Z</time>
      </trkpt>
      <trkpt lat="43.61963" lon="6.6207">
        <ele>490.2</ele>
        <time>2023-11-26T13:07:20Z</time>
      </trkpt>
      <trkpt lat="43.61963" lon="6.62071">
        <ele>490.3</ele>
        <time>2023-11-26T13:07:21Z</time>
      </trkpt>
      <trkpt lat="43.61963" lon="6.62072">
        <ele>490.3</ele>
        <time>2023-11-26T13:07:22Z</time>
      </trkpt>
      <trkpt lat="43.61962" lon="6.62074">
        <ele>490.2</ele>
        <time>2023-11-26T13:07:23Z</time>
      </trkpt>
      <trkpt lat="43.61961" lon="6.62075">
        <ele>490.2</ele>
        <time>2023-11-26T13:07:24Z</time>
      </trkpt>
      <trkpt lat="43.6196" lon="6.62076">
        <ele>490.1</ele>
        <time>2023-11-26T13:07:25Z</time>
      </trkpt>
      <trkpt lat="43.6196" lon="6.62078">
        <ele>490.1</ele>
        <time>2023-11-26T13:07:26Z</time>
      </trkpt>
      <trkpt lat="43.61959" lon="6.62079">
        <ele>490.1</ele>
        <time>2023-11-26T13:07:27Z</time>
      </trkpt>
      <trkpt lat="43.61959" lon="6.62081">
        <ele>490.1</ele>
        <time>2023-11-26T13:07:28Z</time>
      </trkpt>
      <trkpt lat="43.61958" lon="6.62082">
        <ele>490.2</ele>
        <time>2023-11-26T13:07:29Z</time>
      </trkpt>
      <trkpt lat="43.61957" lon="6.62084">
        <ele>490.2</ele>
        <time>2023-11-26T13:07:30Z</time>
      </trkpt>
      <trkpt lat="43.61956" lon="6.62085">
        <ele>490.2</ele>
        <time>2023-11-26T13:07:31Z</time>
      </trkpt>
      <trkpt lat="43.61955" lon="6.62086">
        <ele>490.2</ele>
        <time>2023-11-26T13:07:32Z</time>
      </trkpt>
      <trkpt lat="43.61955" lon="6.62087">
        <ele>490.2</ele>
        <time>2023-11-26T13:07:33Z</time>
      </trkpt>
      <trkpt lat="43.61955" lon="6.62089">
        <ele>490.3</ele>
        <time>2023-11-26T13:07:34Z</time>
      </trkpt>
      <trkpt lat="43.61955" lon="6.6209">
        <ele>490.4</ele>
        <time>2023-11-26T13:07:35Z</time>
      </trkpt>
      <trkpt lat="43.61954" lon="6.62092">
        <ele>490.4</ele>
        <time>2023-11-26T13:07:36Z</time>
      </trkpt>
      <trkpt lat="43.61953" lon="6.62093">
        <ele>490.3</ele>
        <time>2023-11-26T13:07:37Z</time>
      </trkpt>
      <trkpt lat="43.61952" lon="6.62094">
        <ele>490.2</ele>
        <time>2023-11-26T13:07:38Z</time>
      </trkpt>
      <trkpt lat="43.6195" lon="6.62096">
        <ele>490.1</ele>
        <time>2023-11-26T13:07:39Z</time>
      </trkpt>
      <trkpt lat="43.61949" lon="6.62097">
        <ele>490.1</ele>
        <time>2023-11-26T13:07:40Z</time>
      </trkpt>
      <trkpt lat="43.61948" lon="6.62099">
        <ele>490</ele>
        <time>2023-11-26T13:07:41Z</time>
      </trkpt>
      <trkpt lat="43.61948" lon="6.621">
        <ele>490</ele>
        <time>2023-11-26T13:07:42Z</time>
      </trkpt>
      <trkpt lat="43.61947" lon="6.62102">
        <ele>489.9</ele>
        <time>2023-11-26T13:07:43Z</time>
      </trkpt>
      <trkpt lat="43.61947" lon="6.62104">
        <ele>489.9</ele>
        <time>2023-11-26T13:07:44Z</time>
      </trkpt>
      <trkpt lat="43.61947" lon="6.62105">
        <ele>489.8</ele>
        <time>2023-11-26T13:07:45Z</time>
      </trkpt>
      <trkpt lat="43.61946" lon="6.62107">
        <ele>489.8</ele>
        <time>2023-11-26T13:07:46Z</time>
      </trkpt>
      <trkpt lat="43.61946" lon="6.62109">
        <ele>489.7</ele>
        <time>2023-11-26T13:07:47Z</time>
      </trkpt>
      <trkpt lat="43.61946" lon="6.6211">
        <ele>489.7</ele>
        <time>2023-11-26T13:07:48Z</time>
      </trkpt>
      <trkpt lat="43.61946" lon="6.62112">
        <ele>489.7</ele>
        <time>2023-11-26T13:07:49Z</time>
      </trkpt>
      <trkpt lat="43.61946" lon="6.62114">
        <ele>489.6</ele>
        <time>2023-11-26T13:07:50Z</time>
      </trkpt>
      <trkpt lat="43.61946" lon="6.62116">
        <ele>489.6</ele>
        <time>2023-11-26T13:07:51Z</time>
      </trkpt>
      <trkpt lat="43.61945" lon="6.62117">
        <ele>489.6</ele>
        <time>2023-11-26T13:07:52Z</time>
      </trkpt>
      <trkpt lat="43.61945" lon="6.62118">
        <ele>489.6</ele>
        <time>2023-11-26T13:07:53Z</time>
      </trkpt>
      <trkpt lat="43.61945" lon="6.6212">
        <ele>489.5</ele>
        <time>2023-11-26T13:07:54Z</time>
      </trkpt>
      <trkpt lat="43.61945" lon="6.62121">
        <ele>489.4</ele>
        <time>2023-11-26T13:07:55Z</time>
      </trkpt>
      <trkpt lat="43.61945" lon="6.62122">
        <ele>489.3</ele>
        <time>2023-11-26T13:07:56Z</time>
      </trkpt>
      <trkpt lat="43.61945" lon="6.62122">
        <ele>489.2</ele>
        <time>2023-11-26T13:07:57Z</time>
      </trkpt>
      <trkpt lat="43.61945" lon="6.62123">
        <ele>489.3</ele>
        <time>2023-11-26T13:07:58Z</time>
      </trkpt>
      <trkpt lat="43.61945" lon="6.62123">
        <ele>489.3</ele>
        <time>2023-11-26T13:07:59Z</time>
      </trkpt>
      <trkpt lat="43.61945" lon="6.62123">
        <ele>489.3</ele>
        <time>2023-11-26T13:08:00Z</time>
      </trkpt>
      <trkpt lat="43.61945" lon="6.62124">
        <ele>489.3</ele>
        <time>2023-11-26T13:08:01Z</time>
      </trkpt>
      <trkpt lat="43.61945" lon="6.62124">
        <ele>489.3</ele>
        <time>2023-11-26T13:08:02Z</time>
      </trkpt>
      <trkpt lat="43.61945" lon="6.62125">
        <ele>489.3</ele>
        <time>2023-11-26T13:08:03Z</time>
      </trkpt>
      <trkpt lat="43.61945" lon="6.62125">
        <ele>489.1</ele>
        <time>2023-11-26T13:08:04Z</time>
      </trkpt>
      <trkpt lat="43.61945" lon="6.62126">
        <ele>489</ele>
        <time>2023-11-26T13:08:05Z</time>
      </trkpt>
      <trkpt lat="43.61946" lon="6.62126">
        <ele>489</ele>
        <time>2023-11-26T13:08:06Z</time>
      </trkpt>
      <trkpt lat="43.61945" lon="6.62126">
        <ele>488.9</ele>
        <time>2023-11-26T13:08:07Z</time>
      </trkpt>
      <trkpt lat="43.61945" lon="6.62126">
        <ele>488.9</ele>
        <time>2023-11-26T13:08:08Z</time>
      </trkpt>
      <trkpt lat="43.61945" lon="6.62127">
        <ele>488.9</ele>
        <time>2023-11-26T13:08:09Z</time>
      </trkpt>
      <trkpt lat="43.61944" lon="6.62127">
        <ele>488.8</ele>
        <time>2023-11-26T13:08:10Z</time>
      </trkpt>
      <trkpt lat="43.61945" lon="6.62126">
        <ele>488.8</ele>
        <time>2023-11-26T13:08:11Z</time>
      </trkpt>
      <trkpt lat="43.61945" lon="6.62127">
        <ele>488.7</ele>
        <time>2023-11-26T13:08:12Z</time>
      </trkpt>
      <trkpt lat="43.61945" lon="6.62128">
        <ele>488.7</ele>
        <time>2023-11-26T13:08:13Z</time>
      </trkpt>
      <trkpt lat="43.61945" lon="6.62128">
        <ele>488.6</ele>
        <time>2023-11-26T13:08:14Z</time>
      </trkpt>
      <trkpt lat="43.61945" lon="6.62129">
        <ele>488.6</ele>
        <time>2023-11-26T13:08:15Z</time>
      </trkpt>
      <trkpt lat="43.61945" lon="6.62128">
        <ele>488.6</ele>
        <time>2023-11-26T13:08:16Z</time>
      </trkpt>
      <trkpt lat="43.61945" lon="6.62127">
        <ele>488.8</ele>
        <time>2023-11-26T13:08:17Z</time>
      </trkpt>
      <trkpt lat="43.61945" lon="6.62127">
        <ele>488.8</ele>
        <time>2023-11-26T13:08:18Z</time>
      </trkpt>
      <trkpt lat="43.61945" lon="6.62128">
        <ele>488.8</ele>
        <time>2023-11-26T13:08:19Z</time>
      </trkpt>
      <trkpt lat="43.61945" lon="6.62128">
        <ele>488.9</ele>
        <time>2023-11-26T13:08:20Z</time>
      </trkpt>
      <trkpt lat="43.61945" lon="6.62128">
        <ele>488.8</ele>
        <time>2023-11-26T13:08:21Z</time>
      </trkpt>
      <trkpt lat="43.61945" lon="6.62129">
        <ele>488.8</ele>
        <time>2023-11-26T13:08:22Z</time>
      </trkpt>
      <trkpt lat="43.61945" lon="6.62129">
        <ele>488.8</ele>
        <time>2023-11-26T13:08:23Z</time>
      </trkpt>
      <trkpt lat="43.61945" lon="6.6213">
        <ele>488.8</ele>
        <time>2023-11-26T13:08:24Z</time>
      </trkpt>
      <trkpt lat="43.61945" lon="6.6213">
        <ele>488.8</ele>
        <time>2023-11-26T13:08:25Z</time>
      </trkpt>
      <trkpt lat="43.61945" lon="6.6213">
        <ele>488.7</ele>
        <time>2023-11-26T13:08:26Z</time>
      </trkpt>
      <trkpt lat="43.61945" lon="6.6213">
        <ele>488.7</ele>
        <time>2023-11-26T13:08:27Z</time>
      </trkpt>
      <trkpt lat="43.61945" lon="6.6213">
        <ele>488.7</ele>
        <time>2023-11-26T13:08:28Z</time>
      </trkpt>
      <trkpt lat="43.61945" lon="6.6213">
        <ele>488.7</ele>
        <time>2023-11-26T13:08:29Z</time>
      </trkpt>
      <trkpt lat="43.61945" lon="6.6213">
        <ele>488.7</ele>
        <time>2023-11-26T13:08:30Z</time>
      </trkpt>
      <trkpt lat="43.61945" lon="6.6213">
        <ele>488.7</ele>
        <time>2023-11-26T13:08:31Z</time>
      </trkpt>
      <trkpt lat="43.61945" lon="6.6213">
        <ele>488.6</ele>
        <time>2023-11-26T13:08:32Z</time>
      </trkpt>
      <trkpt lat="43.61945" lon="6.6213">
        <ele>488.7</ele>
        <time>2023-11-26T13:08:33Z</time>
      </trkpt>
      <trkpt lat="43.61945" lon="6.6213">
        <ele>488.8</ele>
        <time>2023-11-26T13:08:34Z</time>
      </trkpt>
      <trkpt lat="43.61945" lon="6.6213">
        <ele>488.9</ele>
        <time>2023-11-26T13:08:35Z</time>
      </trkpt>
      <trkpt lat="43.61945" lon="6.6213">
        <ele>488.9</ele>
        <time>2023-11-26T13:08:36Z</time>
      </trkpt>
      <trkpt lat="43.61945" lon="6.62131">
        <ele>488.9</ele>
        <time>2023-11-26T13:08:37Z</time>
      </trkpt>
      <trkpt lat="43.61945" lon="6.62131">
        <ele>489</ele>
        <time>2023-11-26T13:08:38Z</time>
      </trkpt>
      <trkpt lat="43.61945" lon="6.62131">
        <ele>489</ele>
        <time>2023-11-26T13:08:39Z</time>
      </trkpt>
      <trkpt lat="43.61945" lon="6.62132">
        <ele>489.1</ele>
        <time>2023-11-26T13:08:40Z</time>
      </trkpt>
      <trkpt lat="43.61945" lon="6.62132">
        <ele>489.1</ele>
        <time>2023-11-26T13:08:41Z</time>
      </trkpt>
      <trkpt lat="43.61945" lon="6.62132">
        <ele>489.2</ele>
        <time>2023-11-26T13:08:42Z</time>
      </trkpt>
      <trkpt lat="43.61944" lon="6.62132">
        <ele>489.2</ele>
        <time>2023-11-26T13:08:43Z</time>
      </trkpt>
      <trkpt lat="43.61944" lon="6.62133">
        <ele>489.2</ele>
        <time>2023-11-26T13:08:44Z</time>
      </trkpt>
      <trkpt lat="43.61944" lon="6.62133">
        <ele>489.2</ele>
        <time>2023-11-26T13:08:45Z</time>
      </trkpt>
      <trkpt lat="43.61944" lon="6.62133">
        <ele>489.2</ele>
        <time>2023-11-26T13:08:46Z</time>
      </trkpt>
      <trkpt lat="43.61944" lon="6.62133">
        <ele>489.2</ele>
        <time>2023-11-26T13:08:47Z</time>
      </trkpt>
      <trkpt lat="43.61944" lon="6.62133">
        <ele>489.2</ele>
        <time>2023-11-26T13:08:48Z</time>
      </trkpt>
      <trkpt lat="43.61944" lon="6.62133">
        <ele>489.1</ele>
        <time>2023-11-26T13:08:49Z</time>
      </trkpt>
      <trkpt lat="43.61944" lon="6.62133">
        <ele>489.1</ele>
        <time>2023-11-26T13:08:50Z</time>
      </trkpt>
      <trkpt lat="43.61944" lon="6.62133">
        <ele>489</ele>
        <time>2023-11-26T13:08:51Z</time>
      </trkpt>
      <trkpt lat="43.61943" lon="6.62133">
        <ele>489</ele>
        <time>2023-11-26T13:08:52Z</time>
      </trkpt>
      <trkpt lat="43.61943" lon="6.62133">
        <ele>488.9</ele>
        <time>2023-11-26T13:08:53Z</time>
      </trkpt>
      <trkpt lat="43.61943" lon="6.62133">
        <ele>488.9</ele>
        <time>2023-11-26T13:08:54Z</time>
      </trkpt>
      <trkpt lat="43.61943" lon="6.62133">
        <ele>489</ele>
        <time>2023-11-26T13:08:55Z</time>
      </trkpt>
      <trkpt lat="43.61943" lon="6.62134">
        <ele>489</ele>
        <time>2023-11-26T13:08:56Z</time>
      </trkpt>
      <trkpt lat="43.61944" lon="6.62135">
        <ele>489</ele>
        <time>2023-11-26T13:08:57Z</time>
      </trkpt>
      <trkpt lat="43.61945" lon="6.62136">
        <ele>488.9</ele>
        <time>2023-11-26T13:08:58Z</time>
      </trkpt>
      <trkpt lat="43.61945" lon="6.62138">
        <ele>488.8</ele>
        <time>2023-11-26T13:08:59Z</time>
      </trkpt>
      <trkpt lat="43.61945" lon="6.62139">
        <ele>488.7</ele>
        <time>2023-11-26T13:09:00Z</time>
      </trkpt>
      <trkpt lat="43.61946" lon="6.6214">
        <ele>488.6</ele>
        <time>2023-11-26T13:09:01Z</time>
      </trkpt>
      <trkpt lat="43.61946" lon="6.62142">
        <ele>488.6</ele>
        <time>2023-11-26T13:09:02Z</time>
      </trkpt>
      <trkpt lat="43.61946" lon="6.62143">
        <ele>488.6</ele>
        <time>2023-11-26T13:09:03Z</time>
      </trkpt>
      <trkpt lat="43.61947" lon="6.62144">
        <ele>488.5</ele>
        <time>2023-11-26T13:09:04Z</time>
      </trkpt>
      <trkpt lat="43.61948" lon="6.62145">
        <ele>488.5</ele>
        <time>2023-11-26T13:09:05Z</time>
      </trkpt>
      <trkpt lat="43.61949" lon="6.62147">
        <ele>488.5</ele>
        <time>2023-11-26T13:09:06Z</time>
      </trkpt>
      <trkpt lat="43.6195" lon="6.62148">
        <ele>488.6</ele>
        <time>2023-11-26T13:09:07Z</time>
      </trkpt>
      <trkpt lat="43.61951" lon="6.62148">
        <ele>488.6</ele>
        <time>2023-11-26T13:09:08Z</time>
      </trkpt>
      <trkpt lat="43.61951" lon="6.62149">
        <ele>488.7</ele>
        <time>2023-11-26T13:09:09Z</time>
      </trkpt>
      <trkpt lat="43.61951" lon="6.62149">
        <ele>488.7</ele>
        <time>2023-11-26T13:09:10Z</time>
      </trkpt>
      <trkpt lat="43.61952" lon="6.62149">
        <ele>488.7</ele>
        <time>2023-11-26T13:09:11Z</time>
      </trkpt>
      <trkpt lat="43.61952" lon="6.62149">
        <ele>488.6</ele>
        <time>2023-11-26T13:09:12Z</time>
      </trkpt>
      <trkpt lat="43.61952" lon="6.6215">
        <ele>488.5</ele>
        <time>2023-11-26T13:09:13Z</time>
      </trkpt>
      <trkpt lat="43.61952" lon="6.6215">
        <ele>488.5</ele>
        <time>2023-11-26T13:09:14Z</time>
      </trkpt>
      <trkpt lat="43.61952" lon="6.6215">
        <ele>488.5</ele>
        <time>2023-11-26T13:09:15Z</time>
      </trkpt>
      <trkpt lat="43.61953" lon="6.62151">
        <ele>488.5</ele>
        <time>2023-11-26T13:09:16Z</time>
      </trkpt>
      <trkpt lat="43.61953" lon="6.62152">
        <ele>488.4</ele>
        <time>2023-11-26T13:09:17Z</time>
      </trkpt>
      <trkpt lat="43.61954" lon="6.62153">
        <ele>488.4</ele>
        <time>2023-11-26T13:09:18Z</time>
      </trkpt>
      <trkpt lat="43.61954" lon="6.62154">
        <ele>488.3</ele>
        <time>2023-11-26T13:09:19Z</time>
      </trkpt>
      <trkpt lat="43.61955" lon="6.62155">
        <ele>488.3</ele>
        <time>2023-11-26T13:09:20Z</time>
      </trkpt>
      <trkpt lat="43.61955" lon="6.62155">
        <ele>488.3</ele>
        <time>2023-11-26T13:09:21Z</time>
      </trkpt>
      <trkpt lat="43.61956" lon="6.62156">
        <ele>488.3</ele>
        <time>2023-11-26T13:09:22Z</time>
      </trkpt>
      <trkpt lat="43.61956" lon="6.62158">
        <ele>488.3</ele>
        <time>2023-11-26T13:09:23Z</time>
      </trkpt>
      <trkpt lat="43.61956" lon="6.62159">
        <ele>488.3</ele>
        <time>2023-11-26T13:09:24Z</time>
      </trkpt>
      <trkpt lat="43.61957" lon="6.62159">
        <ele>488.3</ele>
        <time>2023-11-26T13:09:25Z</time>
      </trkpt>
      <trkpt lat="43.61957" lon="6.62161">
        <ele>488.3</ele>
        <time>2023-11-26T13:09:26Z</time>
      </trkpt>
      <trkpt lat="43.61957" lon="6.62161">
        <ele>488.3</ele>
        <time>2023-11-26T13:09:27Z</time>
      </trkpt>
      <trkpt lat="43.61957" lon="6.62162">
        <ele>488.3</ele>
        <time>2023-11-26T13:09:28Z</time>
      </trkpt>
      <trkpt lat="43.61957" lon="6.62163">
        <ele>488.4</ele>
        <time>2023-11-26T13:09:29Z</time>
      </trkpt>
      <trkpt lat="43.61957" lon="6.62164">
        <ele>488.4</ele>
        <time>2023-11-26T13:09:30Z</time>
      </trkpt>
      <trkpt lat="43.61957" lon="6.62165">
        <ele>488.4</ele>
        <time>2023-11-26T13:09:31Z</time>
      </trkpt>
      <trkpt lat="43.61957" lon="6.62166">
        <ele>488.5</ele>
        <time>2023-11-26T13:09:32Z</time>
      </trkpt>
      <trkpt lat="43.61957" lon="6.62168">
        <ele>488.6</ele>
        <time>2023-11-26T13:09:33Z</time>
      </trkpt>
      <trkpt lat="43.61957" lon="6.6217">
        <ele>488.7</ele>
        <time>2023-11-26T13:09:34Z</time>
      </trkpt>
      <trkpt lat="43.61957" lon="6.62171">
        <ele>488.8</ele>
        <time>2023-11-26T13:09:35Z</time>
      </trkpt>
      <trkpt lat="43.61957" lon="6.62172">
        <ele>489.1</ele>
        <time>2023-11-26T13:09:36Z</time>
      </trkpt>
      <trkpt lat="43.61957" lon="6.62174">
        <ele>489.3</ele>
        <time>2023-11-26T13:09:37Z</time>
      </trkpt>
      <trkpt lat="43.61957" lon="6.62175">
        <ele>489.2</ele>
        <time>2023-11-26T13:09:38Z</time>
      </trkpt>
      <trkpt lat="43.61957" lon="6.62176">
        <ele>489.3</ele>
        <time>2023-11-26T13:09:39Z</time>
      </trkpt>
      <trkpt lat="43.61958" lon="6.62177">
        <ele>489.6</ele>
        <time>2023-11-26T13:09:40Z</time>
      </trkpt>
      <trkpt lat="43.61958" lon="6.62179">
        <ele>489.7</ele>
        <time>2023-11-26T13:09:41Z</time>
      </trkpt>
      <trkpt lat="43.61958" lon="6.6218">
        <ele>489.9</ele>
        <time>2023-11-26T13:09:42Z</time>
      </trkpt>
      <trkpt lat="43.61959" lon="6.62181">
        <ele>490</ele>
        <time>2023-11-26T13:09:43Z</time>
      </trkpt>
      <trkpt lat="43.61959" lon="6.62182">
        <ele>490.1</ele>
        <time>2023-11-26T13:09:44Z</time>
      </trkpt>
      <trkpt lat="43.6196" lon="6.62183">
        <ele>490.3</ele>
        <time>2023-11-26T13:09:45Z</time>
      </trkpt>
      <trkpt lat="43.61961" lon="6.62184">
        <ele>490.4</ele>
        <time>2023-11-26T13:09:46Z</time>
      </trkpt>
      <trkpt lat="43.61961" lon="6.62185">
        <ele>490.4</ele>
        <time>2023-11-26T13:09:47Z</time>
      </trkpt>
      <trkpt lat="43.61962" lon="6.62186">
        <ele>490.5</ele>
        <time>2023-11-26T13:09:48Z</time>
      </trkpt>
      <trkpt lat="43.61962" lon="6.62188">
        <ele>490.6</ele>
        <time>2023-11-26T13:09:49Z</time>
      </trkpt>
      <trkpt lat="43.61962" lon="6.62189">
        <ele>490.6</ele>
        <time>2023-11-26T13:09:50Z</time>
      </trkpt>
      <trkpt lat="43.61963" lon="6.6219">
        <ele>490.7</ele>
        <time>2023-11-26T13:09:51Z</time>
      </trkpt>
      <trkpt lat="43.61964" lon="6.62191">
        <ele>490.7</ele>
        <time>2023-11-26T13:09:52Z</time>
      </trkpt>
      <trkpt lat="43.61964" lon="6.62192">
        <ele>490.8</ele>
        <time>2023-11-26T13:09:53Z</time>
      </trkpt>
      <trkpt lat="43.61965" lon="6.62194">
        <ele>490.8</ele>
        <time>2023-11-26T13:09:54Z</time>
      </trkpt>
      <trkpt lat="43.61966" lon="6.62194">
        <ele>490.8</ele>
        <time>2023-11-26T13:09:55Z</time>
      </trkpt>
      <trkpt lat="43.61966" lon="6.62195">
        <ele>490.9</ele>
        <time>2023-11-26T13:09:56Z</time>
      </trkpt>
      <trkpt lat="43.61967" lon="6.62196">
        <ele>490.7</ele>
        <time>2023-11-26T13:09:57Z</time>
      </trkpt>
      <trkpt lat="43.61968" lon="6.62197">
        <ele>490.8</ele>
        <time>2023-11-26T13:09:58Z</time>
      </trkpt>
      <trkpt lat="43.61969" lon="6.62199">
        <ele>490.8</ele>
        <time>2023-11-26T13:09:59Z</time>
      </trkpt>
      <trkpt lat="43.6197" lon="6.622">
        <ele>490.8</ele>
        <time>2023-11-26T13:10:00Z</time>
      </trkpt>
      <trkpt lat="43.61971" lon="6.62201">
        <ele>490.8</ele>
        <time>2023-11-26T13:10:01Z</time>
      </trkpt>
      <trkpt lat="43.61972" lon="6.62202">
        <ele>491</ele>
        <time>2023-11-26T13:10:02Z</time>
      </trkpt>
      <trkpt lat="43.61972" lon="6.62203">
        <ele>491.1</ele>
        <time>2023-11-26T13:10:03Z</time>
      </trkpt>
      <trkpt lat="43.61973" lon="6.62204">
        <ele>491.2</ele>
        <time>2023-11-26T13:10:04Z</time>
      </trkpt>
      <trkpt lat="43.61975" lon="6.62205">
        <ele>491.1</ele>
        <time>2023-11-26T13:10:05Z</time>
      </trkpt>
      <trkpt lat="43.61976" lon="6.62207">
        <ele>491.1</ele>
        <time>2023-11-26T13:10:06Z</time>
      </trkpt>
      <trkpt lat="43.61977" lon="6.62208">
        <ele>491.1</ele>
        <time>2023-11-26T13:10:07Z</time>
      </trkpt>
      <trkpt lat="43.61978" lon="6.62209">
        <ele>491.1</ele>
        <time>2023-11-26T13:10:08Z</time>
      </trkpt>
      <trkpt lat="43.61979" lon="6.62211">
        <ele>491.1</ele>
        <time>2023-11-26T13:10:09Z</time>
      </trkpt>
      <trkpt lat="43.6198" lon="6.62212">
        <ele>491.1</ele>
        <time>2023-11-26T13:10:10Z</time>
      </trkpt>
      <trkpt lat="43.6198" lon="6.62213">
        <ele>491.1</ele>
        <time>2023-11-26T13:10:11Z</time>
      </trkpt>
      <trkpt lat="43.61981" lon="6.62215">
        <ele>491.3</ele>
        <time>2023-11-26T13:10:12Z</time>
      </trkpt>
      <trkpt lat="43.61982" lon="6.62216">
        <ele>491.4</ele>
        <time>2023-11-26T13:10:13Z</time>
      </trkpt>
      <trkpt lat="43.61982" lon="6.62218">
        <ele>491.5</ele>
        <time>2023-11-26T13:10:14Z</time>
      </trkpt>
      <trkpt lat="43.61983" lon="6.62219">
        <ele>491.5</ele>
        <time>2023-11-26T13:10:15Z</time>
      </trkpt>
      <trkpt lat="43.61984" lon="6.6222">
        <ele>491.7</ele>
        <time>2023-11-26T13:10:16Z</time>
      </trkpt>
      <trkpt lat="43.61984" lon="6.62221">
        <ele>491.7</ele>
        <time>2023-11-26T13:10:17Z</time>
      </trkpt>
      <trkpt lat="43.61984" lon="6.62222">
        <ele>491.8</ele>
        <time>2023-11-26T13:10:18Z</time>
      </trkpt>
      <trkpt lat="43.61984" lon="6.62223">
        <ele>491.8</ele>
        <time>2023-11-26T13:10:19Z</time>
      </trkpt>
      <trkpt lat="43.61985" lon="6.62225">
        <ele>491.8</ele>
        <time>2023-11-26T13:10:20Z</time>
      </trkpt>
      <trkpt lat="43.61985" lon="6.62226">
        <ele>491.9</ele>
        <time>2023-11-26T13:10:21Z</time>
      </trkpt>
      <trkpt lat="43.61985" lon="6.62227">
        <ele>492</ele>
        <time>2023-11-26T13:10:22Z</time>
      </trkpt>
      <trkpt lat="43.61986" lon="6.62227">
        <ele>492.3</ele>
        <time>2023-11-26T13:10:23Z</time>
      </trkpt>
      <trkpt lat="43.61986" lon="6.62228">
        <ele>492.2</ele>
        <time>2023-11-26T13:10:24Z</time>
      </trkpt>
      <trkpt lat="43.61987" lon="6.6223">
        <ele>492.3</ele>
        <time>2023-11-26T13:10:25Z</time>
      </trkpt>
      <trkpt lat="43.61987" lon="6.62231">
        <ele>492.3</ele>
        <time>2023-11-26T13:10:26Z</time>
      </trkpt>
      <trkpt lat="43.61988" lon="6.62233">
        <ele>492.3</ele>
        <time>2023-11-26T13:10:27Z</time>
      </trkpt>
      <trkpt lat="43.61989" lon="6.62234">
        <ele>492.4</ele>
        <time>2023-11-26T13:10:28Z</time>
      </trkpt>
      <trkpt lat="43.61989" lon="6.62236">
        <ele>492.4</ele>
        <time>2023-11-26T13:10:29Z</time>
      </trkpt>
      <trkpt lat="43.61989" lon="6.62237">
        <ele>492.5</ele>
        <time>2023-11-26T13:10:30Z</time>
      </trkpt>
      <trkpt lat="43.6199" lon="6.62238">
        <ele>492.5</ele>
        <time>2023-11-26T13:10:31Z</time>
      </trkpt>
      <trkpt lat="43.6199" lon="6.62239">
        <ele>492.6</ele>
        <time>2023-11-26T13:10:32Z</time>
      </trkpt>
      <trkpt lat="43.6199" lon="6.6224">
        <ele>492.7</ele>
        <time>2023-11-26T13:10:33Z</time>
      </trkpt>
      <trkpt lat="43.6199" lon="6.62241">
        <ele>492.6</ele>
        <time>2023-11-26T13:10:34Z</time>
      </trkpt>
      <trkpt lat="43.61989" lon="6.62242">
        <ele>492.6</ele>
        <time>2023-11-26T13:10:35Z</time>
      </trkpt>
      <trkpt lat="43.61989" lon="6.62243">
        <ele>492.7</ele>
        <time>2023-11-26T13:10:36Z</time>
      </trkpt>
      <trkpt lat="43.61989" lon="6.62245">
        <ele>492.6</ele>
        <time>2023-11-26T13:10:37Z</time>
      </trkpt>
      <trkpt lat="43.61988" lon="6.62246">
        <ele>492.6</ele>
        <time>2023-11-26T13:10:38Z</time>
      </trkpt>
      <trkpt lat="43.61988" lon="6.62247">
        <ele>492.5</ele>
        <time>2023-11-26T13:10:39Z</time>
      </trkpt>
      <trkpt lat="43.61988" lon="6.62249">
        <ele>492.5</ele>
        <time>2023-11-26T13:10:40Z</time>
      </trkpt>
      <trkpt lat="43.61988" lon="6.6225">
        <ele>492.5</ele>
        <time>2023-11-26T13:10:41Z</time>
      </trkpt>
      <trkpt lat="43.61988" lon="6.62251">
        <ele>492.6</ele>
        <time>2023-11-26T13:10:42Z</time>
      </trkpt>
      <trkpt lat="43.61989" lon="6.62252">
        <ele>492.5</ele>
        <time>2023-11-26T13:10:43Z</time>
      </trkpt>
      <trkpt lat="43.61988" lon="6.62253">
        <ele>492.5</ele>
        <time>2023-11-26T13:10:44Z</time>
      </trkpt>
      <trkpt lat="43.61989" lon="6.62254">
        <ele>492.6</ele>
        <time>2023-11-26T13:10:45Z</time>
      </trkpt>
      <trkpt lat="43.61989" lon="6.62256">
        <ele>492.6</ele>
        <time>2023-11-26T13:10:46Z</time>
      </trkpt>
      <trkpt lat="43.6199" lon="6.62258">
        <ele>492.6</ele>
        <time>2023-11-26T13:10:47Z</time>
      </trkpt>
      <trkpt lat="43.61991" lon="6.62259">
        <ele>492.6</ele>
        <time>2023-11-26T13:10:48Z</time>
      </trkpt>
      <trkpt lat="43.61991" lon="6.62261">
        <ele>492.6</ele>
        <time>2023-11-26T13:10:49Z</time>
      </trkpt>
      <trkpt lat="43.61992" lon="6.62264">
        <ele>492.5</ele>
        <time>2023-11-26T13:10:50Z</time>
      </trkpt>
      <trkpt lat="43.61992" lon="6.62266">
        <ele>492.4</ele>
        <time>2023-11-26T13:10:51Z</time>
      </trkpt>
      <trkpt lat="43.61993" lon="6.62268">
        <ele>492.3</ele>
        <time>2023-11-26T13:10:52Z</time>
      </trkpt>
      <trkpt lat="43.61993" lon="6.62271">
        <ele>492.3</ele>
        <time>2023-11-26T13:10:53Z</time>
      </trkpt>
      <trkpt lat="43.61993" lon="6.62273">
        <ele>492.2</ele>
        <time>2023-11-26T13:10:54Z</time>
      </trkpt>
      <trkpt lat="43.61994" lon="6.62275">
        <ele>492.1</ele>
        <time>2023-11-26T13:10:55Z</time>
      </trkpt>
      <trkpt lat="43.61994" lon="6.62277">
        <ele>492</ele>
        <time>2023-11-26T13:10:56Z</time>
      </trkpt>
      <trkpt lat="43.61994" lon="6.62279">
        <ele>491.9</ele>
        <time>2023-11-26T13:10:57Z</time>
      </trkpt>
      <trkpt lat="43.61995" lon="6.62281">
        <ele>491.9</ele>
        <time>2023-11-26T13:10:58Z</time>
      </trkpt>
      <trkpt lat="43.61995" lon="6.62283">
        <ele>491.8</ele>
        <time>2023-11-26T13:10:59Z</time>
      </trkpt>
      <trkpt lat="43.61995" lon="6.62285">
        <ele>491.6</ele>
        <time>2023-11-26T13:11:00Z</time>
      </trkpt>
      <trkpt lat="43.61996" lon="6.62286">
        <ele>491.5</ele>
        <time>2023-11-26T13:11:01Z</time>
      </trkpt>
      <trkpt lat="43.61995" lon="6.62288">
        <ele>491.4</ele>
        <time>2023-11-26T13:11:02Z</time>
      </trkpt>
      <trkpt lat="43.61996" lon="6.6229">
        <ele>491.3</ele>
        <time>2023-11-26T13:11:03Z</time>
      </trkpt>
      <trkpt lat="43.61995" lon="6.62291">
        <ele>491.2</ele>
        <time>2023-11-26T13:11:04Z</time>
      </trkpt>
      <trkpt lat="43.61995" lon="6.62293">
        <ele>491.2</ele>
        <time>2023-11-26T13:11:05Z</time>
      </trkpt>
      <trkpt lat="43.61995" lon="6.62295">
        <ele>491.2</ele>
        <time>2023-11-26T13:11:06Z</time>
      </trkpt>
      <trkpt lat="43.61995" lon="6.62296">
        <ele>491.1</ele>
        <time>2023-11-26T13:11:07Z</time>
      </trkpt>
      <trkpt lat="43.61994" lon="6.62297">
        <ele>491.2</ele>
        <time>2023-11-26T13:11:08Z</time>
      </trkpt>
      <trkpt lat="43.61995" lon="6.62299">
        <ele>491.2</ele>
        <time>2023-11-26T13:11:09Z</time>
      </trkpt>
      <trkpt lat="43.61994" lon="6.623">
        <ele>491.2</ele>
        <time>2023-11-26T13:11:10Z</time>
      </trkpt>
      <trkpt lat="43.61994" lon="6.62302">
        <ele>491.2</ele>
        <time>2023-11-26T13:11:11Z</time>
      </trkpt>
      <trkpt lat="43.61993" lon="6.62303">
        <ele>491.3</ele>
        <time>2023-11-26T13:11:12Z</time>
      </trkpt>
      <trkpt lat="43.61993" lon="6.62305">
        <ele>491.4</ele>
        <time>2023-11-26T13:11:13Z</time>
      </trkpt>
      <trkpt lat="43.61994" lon="6.62307">
        <ele>491.4</ele>
        <time>2023-11-26T13:11:14Z</time>
      </trkpt>
      <trkpt lat="43.61993" lon="6.62308">
        <ele>491.3</ele>
        <time>2023-11-26T13:11:15Z</time>
      </trkpt>
      <trkpt lat="43.61993" lon="6.62309">
        <ele>491.2</ele>
        <time>2023-11-26T13:11:16Z</time>
      </trkpt>
      <trkpt lat="43.61993" lon="6.62311">
        <ele>491.2</ele>
        <time>2023-11-26T13:11:17Z</time>
      </trkpt>
      <trkpt lat="43.61993" lon="6.62313">
        <ele>491.2</ele>
        <time>2023-11-26T13:11:18Z</time>
      </trkpt>
      <trkpt lat="43.61993" lon="6.62315">
        <ele>491.1</ele>
        <time>2023-11-26T13:11:19Z</time>
      </trkpt>
      <trkpt lat="43.61992" lon="6.62318">
        <ele>491</ele>
        <time>2023-11-26T13:11:20Z</time>
      </trkpt>
      <trkpt lat="43.61992" lon="6.62319">
        <ele>491</ele>
        <time>2023-11-26T13:11:21Z</time>
      </trkpt>
      <trkpt lat="43.61992" lon="6.62321">
        <ele>491</ele>
        <time>2023-11-26T13:11:22Z</time>
      </trkpt>
      <trkpt lat="43.61993" lon="6.62323">
        <ele>490.9</ele>
        <time>2023-11-26T13:11:23Z</time>
      </trkpt>
      <trkpt lat="43.61993" lon="6.62324">
        <ele>490.9</ele>
        <time>2023-11-26T13:11:24Z</time>
      </trkpt>
      <trkpt lat="43.61993" lon="6.62326">
        <ele>490.8</ele>
        <time>2023-11-26T13:11:25Z</time>
      </trkpt>
      <trkpt lat="43.61993" lon="6.62327">
        <ele>490.8</ele>
        <time>2023-11-26T13:11:26Z</time>
      </trkpt>
      <trkpt lat="43.61992" lon="6.62329">
        <ele>490.8</ele>
        <time>2023-11-26T13:11:27Z</time>
      </trkpt>
      <trkpt lat="43.61992" lon="6.6233">
        <ele>490.8</ele>
        <time>2023-11-26T13:11:28Z</time>
      </trkpt>
      <trkpt lat="43.61993" lon="6.62332">
        <ele>490.7</ele>
        <time>2023-11-26T13:11:29Z</time>
      </trkpt>
      <trkpt lat="43.61993" lon="6.62333">
        <ele>490.7</ele>
        <time>2023-11-26T13:11:30Z</time>
      </trkpt>
      <trkpt lat="43.61994" lon="6.62334">
        <ele>490.7</ele>
        <time>2023-11-26T13:11:31Z</time>
      </trkpt>
      <trkpt lat="43.61994" lon="6.62336">
        <ele>490.7</ele>
        <time>2023-11-26T13:11:32Z</time>
      </trkpt>
      <trkpt lat="43.61994" lon="6.62338">
        <ele>490.7</ele>
        <time>2023-11-26T13:11:33Z</time>
      </trkpt>
      <trkpt lat="43.61995" lon="6.62339">
        <ele>490.6</ele>
        <time>2023-11-26T13:11:34Z</time>
      </trkpt>
      <trkpt lat="43.61995" lon="6.62341">
        <ele>490.6</ele>
        <time>2023-11-26T13:11:35Z</time>
      </trkpt>
      <trkpt lat="43.61995" lon="6.62342">
        <ele>490.4</ele>
        <time>2023-11-26T13:11:36Z</time>
      </trkpt>
      <trkpt lat="43.61995" lon="6.62344">
        <ele>490.4</ele>
        <time>2023-11-26T13:11:37Z</time>
      </trkpt>
      <trkpt lat="43.61995" lon="6.62345">
        <ele>490.3</ele>
        <time>2023-11-26T13:11:38Z</time>
      </trkpt>
      <trkpt lat="43.61995" lon="6.62347">
        <ele>490.2</ele>
        <time>2023-11-26T13:11:39Z</time>
      </trkpt>
      <trkpt lat="43.61996" lon="6.62349">
        <ele>490</ele>
        <time>2023-11-26T13:11:40Z</time>
      </trkpt>
      <trkpt lat="43.61996" lon="6.62351">
        <ele>490</ele>
        <time>2023-11-26T13:11:41Z</time>
      </trkpt>
      <trkpt lat="43.61996" lon="6.62353">
        <ele>489.8</ele>
        <time>2023-11-26T13:11:42Z</time>
      </trkpt>
      <trkpt lat="43.61995" lon="6.62355">
        <ele>489.6</ele>
        <time>2023-11-26T13:11:43Z</time>
      </trkpt>
      <trkpt lat="43.61995" lon="6.62357">
        <ele>489.5</ele>
        <time>2023-11-26T13:11:44Z</time>
      </trkpt>
      <trkpt lat="43.61996" lon="6.62358">
        <ele>489.3</ele>
        <time>2023-11-26T13:11:45Z</time>
      </trkpt>
      <trkpt lat="43.61996" lon="6.6236">
        <ele>489.2</ele>
        <time>2023-11-26T13:11:46Z</time>
      </trkpt>
      <trkpt lat="43.61996" lon="6.62362">
        <ele>489.2</ele>
        <time>2023-11-26T13:11:47Z</time>
      </trkpt>
      <trkpt lat="43.61996" lon="6.62363">
        <ele>489.2</ele>
        <time>2023-11-26T13:11:48Z</time>
      </trkpt>
      <trkpt lat="43.61996" lon="6.62365">
        <ele>489</ele>
        <time>2023-11-26T13:11:49Z</time>
      </trkpt>
      <trkpt lat="43.61996" lon="6.62366">
        <ele>488.8</ele>
        <time>2023-11-26T13:11:50Z</time>
      </trkpt>
      <trkpt lat="43.61996" lon="6.62368">
        <ele>488.9</ele>
        <time>2023-11-26T13:11:51Z</time>
      </trkpt>
      <trkpt lat="43.61996" lon="6.6237">
        <ele>488.9</ele>
        <time>2023-11-26T13:11:52Z</time>
      </trkpt>
      <trkpt lat="43.61997" lon="6.62371">
        <ele>488.9</ele>
        <time>2023-11-26T13:11:53Z</time>
      </trkpt>
      <trkpt lat="43.61997" lon="6.62373">
        <ele>488.9</ele>
        <time>2023-11-26T13:11:54Z</time>
      </trkpt>
      <trkpt lat="43.61998" lon="6.62375">
        <ele>488.8</ele>
        <time>2023-11-26T13:11:55Z</time>
      </trkpt>
      <trkpt lat="43.61999" lon="6.62377">
        <ele>488.6</ele>
        <time>2023-11-26T13:11:56Z</time>
      </trkpt>
      <trkpt lat="43.61999" lon="6.62379">
        <ele>488.6</ele>
        <time>2023-11-26T13:11:57Z</time>
      </trkpt>
      <trkpt lat="43.61999" lon="6.62381">
        <ele>488.4</ele>
        <time>2023-11-26T13:11:58Z</time>
      </trkpt>
      <trkpt lat="43.61999" lon="6.62382">
        <ele>488.3</ele>
        <time>2023-11-26T13:11:59Z</time>
      </trkpt>
      <trkpt lat="43.62" lon="6.62383">
        <ele>488.2</ele>
        <time>2023-11-26T13:12:00Z</time>
      </trkpt>
      <trkpt lat="43.62001" lon="6.62385">
        <ele>488.1</ele>
        <time>2023-11-26T13:12:01Z</time>
      </trkpt>
      <trkpt lat="43.62001" lon="6.62387">
        <ele>488</ele>
        <time>2023-11-26T13:12:02Z</time>
      </trkpt>
      <trkpt lat="43.62001" lon="6.62388">
        <ele>487.9</ele>
        <time>2023-11-26T13:12:03Z</time>
      </trkpt>
      <trkpt lat="43.62001" lon="6.6239">
        <ele>487.9</ele>
        <time>2023-11-26T13:12:04Z</time>
      </trkpt>
      <trkpt lat="43.62002" lon="6.62391">
        <ele>487.8</ele>
        <time>2023-11-26T13:12:05Z</time>
      </trkpt>
      <trkpt lat="43.62002" lon="6.62394">
        <ele>487.6</ele>
        <time>2023-11-26T13:12:06Z</time>
      </trkpt>
      <trkpt lat="43.62003" lon="6.62396">
        <ele>487.5</ele>
        <time>2023-11-26T13:12:07Z</time>
      </trkpt>
      <trkpt lat="43.62003" lon="6.62398">
        <ele>487.4</ele>
        <time>2023-11-26T13:12:08Z</time>
      </trkpt>
      <trkpt lat="43.62003" lon="6.624">
        <ele>487.2</ele>
        <time>2023-11-26T13:12:09Z</time>
      </trkpt>
      <trkpt lat="43.62003" lon="6.62402">
        <ele>487.2</ele>
        <time>2023-11-26T13:12:10Z</time>
      </trkpt>
      <trkpt lat="43.62003" lon="6.62403">
        <ele>487</ele>
        <time>2023-11-26T13:12:11Z</time>
      </trkpt>
      <trkpt lat="43.62003" lon="6.62405">
        <ele>486.8</ele>
        <time>2023-11-26T13:12:12Z</time>
      </trkpt>
      <trkpt lat="43.62002" lon="6.62407">
        <ele>486.6</ele>
        <time>2023-11-26T13:12:13Z</time>
      </trkpt>
      <trkpt lat="43.62003" lon="6.62408">
        <ele>486.4</ele>
        <time>2023-11-26T13:12:14Z</time>
      </trkpt>
      <trkpt lat="43.62003" lon="6.62409">
        <ele>486.3</ele>
        <time>2023-11-26T13:12:15Z</time>
      </trkpt>
      <trkpt lat="43.62003" lon="6.6241">
        <ele>486.1</ele>
        <time>2023-11-26T13:12:16Z</time>
      </trkpt>
      <trkpt lat="43.62003" lon="6.62412">
        <ele>485.9</ele>
        <time>2023-11-26T13:12:17Z</time>
      </trkpt>
      <trkpt lat="43.62003" lon="6.62413">
        <ele>485.8</ele>
        <time>2023-11-26T13:12:18Z</time>
      </trkpt>
      <trkpt lat="43.62003" lon="6.62414">
        <ele>485.6</ele>
        <time>2023-11-26T13:12:19Z</time>
      </trkpt>
      <trkpt lat="43.62003" lon="6.62416">
        <ele>485.5</ele>
        <time>2023-11-26T13:12:20Z</time>
      </trkpt>
      <trkpt lat="43.62003" lon="6.62417">
        <ele>485.5</ele>
        <time>2023-11-26T13:12:21Z</time>
      </trkpt>
      <trkpt lat="43.62003" lon="6.62419">
        <ele>485.4</ele>
        <time>2023-11-26T13:12:22Z</time>
      </trkpt>
      <trkpt lat="43.62003" lon="6.6242">
        <ele>485.4</ele>
        <time>2023-11-26T13:12:23Z</time>
      </trkpt>
      <trkpt lat="43.62003" lon="6.62421">
        <ele>485.3</ele>
        <time>2023-11-26T13:12:24Z</time>
      </trkpt>
      <trkpt lat="43.62003" lon="6.62423">
        <ele>485.2</ele>
        <time>2023-11-26T13:12:25Z</time>
      </trkpt>
      <trkpt lat="43.62003" lon="6.62424">
        <ele>485.1</ele>
        <time>2023-11-26T13:12:26Z</time>
      </trkpt>
      <trkpt lat="43.62003" lon="6.62426">
        <ele>485.1</ele>
        <time>2023-11-26T13:12:27Z</time>
      </trkpt>
      <trkpt lat="43.62003" lon="6.62428">
        <ele>485</ele>
        <time>2023-11-26T13:12:28Z</time>
      </trkpt>
      <trkpt lat="43.62003" lon="6.62429">
        <ele>485</ele>
        <time>2023-11-26T13:12:29Z</time>
      </trkpt>
      <trkpt lat="43.62004" lon="6.62431">
        <ele>484.9</ele>
        <time>2023-11-26T13:12:30Z</time>
      </trkpt>
      <trkpt lat="43.62004" lon="6.62432">
        <ele>484.9</ele>
        <time>2023-11-26T13:12:31Z</time>
      </trkpt>
      <trkpt lat="43.62005" lon="6.62434">
        <ele>484.8</ele>
        <time>2023-11-26T13:12:32Z</time>
      </trkpt>
      <trkpt lat="43.62004" lon="6.62435">
        <ele>484.8</ele>
        <time>2023-11-26T13:12:33Z</time>
      </trkpt>
      <trkpt lat="43.62004" lon="6.62437">
        <ele>484.7</ele>
        <time>2023-11-26T13:12:34Z</time>
      </trkpt>
      <trkpt lat="43.62004" lon="6.62438">
        <ele>484.6</ele>
        <time>2023-11-26T13:12:35Z</time>
      </trkpt>
      <trkpt lat="43.62005" lon="6.6244">
        <ele>484.5</ele>
        <time>2023-11-26T13:12:36Z</time>
      </trkpt>
      <trkpt lat="43.62004" lon="6.62441">
        <ele>484.4</ele>
        <time>2023-11-26T13:12:37Z</time>
      </trkpt>
      <trkpt lat="43.62004" lon="6.62443">
        <ele>484.3</ele>
        <time>2023-11-26T13:12:38Z</time>
      </trkpt>
      <trkpt lat="43.62004" lon="6.62444">
        <ele>484.2</ele>
        <time>2023-11-26T13:12:39Z</time>
      </trkpt>
      <trkpt lat="43.62004" lon="6.62446">
        <ele>484.2</ele>
        <time>2023-11-26T13:12:40Z</time>
      </trkpt>
      <trkpt lat="43.62004" lon="6.62447">
        <ele>484.1</ele>
        <time>2023-11-26T13:12:41Z</time>
      </trkpt>
      <trkpt lat="43.62004" lon="6.62448">
        <ele>484</ele>
        <time>2023-11-26T13:12:42Z</time>
      </trkpt>
      <trkpt lat="43.62005" lon="6.62449">
        <ele>483.9</ele>
        <time>2023-11-26T13:12:43Z</time>
      </trkpt>
      <trkpt lat="43.62005" lon="6.6245">
        <ele>483.9</ele>
        <time>2023-11-26T13:12:44Z</time>
      </trkpt>
      <trkpt lat="43.62005" lon="6.62451">
        <ele>483.7</ele>
        <time>2023-11-26T13:12:45Z</time>
      </trkpt>
      <trkpt lat="43.62005" lon="6.62452">
        <ele>483.6</ele>
        <time>2023-11-26T13:12:46Z</time>
      </trkpt>
      <trkpt lat="43.62005" lon="6.62453">
        <ele>483.5</ele>
        <time>2023-11-26T13:12:47Z</time>
      </trkpt>
      <trkpt lat="43.62006" lon="6.62455">
        <ele>483.3</ele>
        <time>2023-11-26T13:12:48Z</time>
      </trkpt>
      <trkpt lat="43.62006" lon="6.62456">
        <ele>483.2</ele>
        <time>2023-11-26T13:12:49Z</time>
      </trkpt>
      <trkpt lat="43.62007" lon="6.62458">
        <ele>483</ele>
        <time>2023-11-26T13:12:50Z</time>
      </trkpt>
      <trkpt lat="43.62007" lon="6.62459">
        <ele>482.9</ele>
        <time>2023-11-26T13:12:51Z</time>
      </trkpt>
      <trkpt lat="43.62008" lon="6.62461">
        <ele>482.8</ele>
        <time>2023-11-26T13:12:52Z</time>
      </trkpt>
      <trkpt lat="43.62008" lon="6.62463">
        <ele>482.6</ele>
        <time>2023-11-26T13:12:53Z</time>
      </trkpt>
      <trkpt lat="43.62008" lon="6.62464">
        <ele>482.3</ele>
        <time>2023-11-26T13:12:54Z</time>
      </trkpt>
      <trkpt lat="43.62009" lon="6.62465">
        <ele>482.1</ele>
        <time>2023-11-26T13:12:55Z</time>
      </trkpt>
      <trkpt lat="43.62009" lon="6.62466">
        <ele>482</ele>
        <time>2023-11-26T13:12:56Z</time>
      </trkpt>
      <trkpt lat="43.62009" lon="6.62468">
        <ele>481.9</ele>
        <time>2023-11-26T13:12:57Z</time>
      </trkpt>
      <trkpt lat="43.62009" lon="6.6247">
        <ele>481.8</ele>
        <time>2023-11-26T13:12:58Z</time>
      </trkpt>
      <trkpt lat="43.62009" lon="6.62471">
        <ele>481.7</ele>
        <time>2023-11-26T13:12:59Z</time>
      </trkpt>
      <trkpt lat="43.62008" lon="6.62472">
        <ele>481.5</ele>
        <time>2023-11-26T13:13:00Z</time>
      </trkpt>
      <trkpt lat="43.62008" lon="6.62474">
        <ele>481.3</ele>
        <time>2023-11-26T13:13:01Z</time>
      </trkpt>
      <trkpt lat="43.62009" lon="6.62475">
        <ele>481.2</ele>
        <time>2023-11-26T13:13:02Z</time>
      </trkpt>
      <trkpt lat="43.62009" lon="6.62477">
        <ele>481.1</ele>
        <time>2023-11-26T13:13:03Z</time>
      </trkpt>
      <trkpt lat="43.6201" lon="6.62479">
        <ele>481.1</ele>
        <time>2023-11-26T13:13:04Z</time>
      </trkpt>
      <trkpt lat="43.6201" lon="6.62481">
        <ele>481</ele>
        <time>2023-11-26T13:13:05Z</time>
      </trkpt>
      <trkpt lat="43.6201" lon="6.62482">
        <ele>481</ele>
        <time>2023-11-26T13:13:06Z</time>
      </trkpt>
      <trkpt lat="43.6201" lon="6.62484">
        <ele>481</ele>
        <time>2023-11-26T13:13:07Z</time>
      </trkpt>
      <trkpt lat="43.6201" lon="6.62486">
        <ele>480.8</ele>
        <time>2023-11-26T13:13:08Z</time>
      </trkpt>
      <trkpt lat="43.62009" lon="6.62488">
        <ele>480.7</ele>
        <time>2023-11-26T13:13:09Z</time>
      </trkpt>
      <trkpt lat="43.6201" lon="6.6249">
        <ele>480.6</ele>
        <time>2023-11-26T13:13:10Z</time>
      </trkpt>
      <trkpt lat="43.6201" lon="6.62491">
        <ele>480.4</ele>
        <time>2023-11-26T13:13:11Z</time>
      </trkpt>
      <trkpt lat="43.6201" lon="6.62493">
        <ele>480.4</ele>
        <time>2023-11-26T13:13:12Z</time>
      </trkpt>
      <trkpt lat="43.6201" lon="6.62494">
        <ele>480.4</ele>
        <time>2023-11-26T13:13:13Z</time>
      </trkpt>
      <trkpt lat="43.6201" lon="6.62496">
        <ele>480.3</ele>
        <time>2023-11-26T13:13:14Z</time>
      </trkpt>
      <trkpt lat="43.62011" lon="6.62497">
        <ele>480.2</ele>
        <time>2023-11-26T13:13:15Z</time>
      </trkpt>
      <trkpt lat="43.62011" lon="6.62499">
        <ele>480.1</ele>
        <time>2023-11-26T13:13:16Z</time>
      </trkpt>
      <trkpt lat="43.62011" lon="6.62501">
        <ele>480.1</ele>
        <time>2023-11-26T13:13:17Z</time>
      </trkpt>
      <trkpt lat="43.62011" lon="6.62502">
        <ele>480.1</ele>
        <time>2023-11-26T13:13:18Z</time>
      </trkpt>
      <trkpt lat="43.62012" lon="6.62503">
        <ele>480</ele>
        <time>2023-11-26T13:13:19Z</time>
      </trkpt>
      <trkpt lat="43.62012" lon="6.62504">
        <ele>480</ele>
        <time>2023-11-26T13:13:20Z</time>
      </trkpt>
      <trkpt lat="43.62013" lon="6.62505">
        <ele>480</ele>
        <time>2023-11-26T13:13:21Z</time>
      </trkpt>
      <trkpt lat="43.62013" lon="6.62507">
        <ele>479.9</ele>
        <time>2023-11-26T13:13:22Z</time>
      </trkpt>
      <trkpt lat="43.62013" lon="6.62509">
        <ele>479.9</ele>
        <time>2023-11-26T13:13:23Z</time>
      </trkpt>
      <trkpt lat="43.62013" lon="6.62511">
        <ele>479.8</ele>
        <time>2023-11-26T13:13:24Z</time>
      </trkpt>
      <trkpt lat="43.62013" lon="6.62513">
        <ele>479.7</ele>
        <time>2023-11-26T13:13:25Z</time>
      </trkpt>
      <trkpt lat="43.62012" lon="6.62515">
        <ele>479.7</ele>
        <time>2023-11-26T13:13:26Z</time>
      </trkpt>
      <trkpt lat="43.62013" lon="6.62517">
        <ele>479.6</ele>
        <time>2023-11-26T13:13:27Z</time>
      </trkpt>
      <trkpt lat="43.62012" lon="6.62518">
        <ele>479.6</ele>
        <time>2023-11-26T13:13:28Z</time>
      </trkpt>
      <trkpt lat="43.62012" lon="6.6252">
        <ele>479.4</ele>
        <time>2023-11-26T13:13:29Z</time>
      </trkpt>
      <trkpt lat="43.62012" lon="6.62522">
        <ele>479.3</ele>
        <time>2023-11-26T13:13:30Z</time>
      </trkpt>
      <trkpt lat="43.62012" lon="6.62524">
        <ele>479.2</ele>
        <time>2023-11-26T13:13:31Z</time>
      </trkpt>
      <trkpt lat="43.62012" lon="6.62525">
        <ele>479.2</ele>
        <time>2023-11-26T13:13:32Z</time>
      </trkpt>
      <trkpt lat="43.62012" lon="6.62527">
        <ele>479.1</ele>
        <time>2023-11-26T13:13:33Z</time>
      </trkpt>
      <trkpt lat="43.62012" lon="6.62528">
        <ele>478.9</ele>
        <time>2023-11-26T13:13:34Z</time>
      </trkpt>
      <trkpt lat="43.62012" lon="6.6253">
        <ele>478.7</ele>
        <time>2023-11-26T13:13:35Z</time>
      </trkpt>
      <trkpt lat="43.62013" lon="6.62531">
        <ele>478.5</ele>
        <time>2023-11-26T13:13:36Z</time>
      </trkpt>
      <trkpt lat="43.62013" lon="6.62533">
        <ele>478.4</ele>
        <time>2023-11-26T13:13:37Z</time>
      </trkpt>
      <trkpt lat="43.62013" lon="6.62534">
        <ele>478.3</ele>
        <time>2023-11-26T13:13:38Z</time>
      </trkpt>
      <trkpt lat="43.62013" lon="6.62536">
        <ele>478.2</ele>
        <time>2023-11-26T13:13:39Z</time>
      </trkpt>
      <trkpt lat="43.62013" lon="6.62537">
        <ele>478.1</ele>
        <time>2023-11-26T13:13:40Z</time>
      </trkpt>
      <trkpt lat="43.62012" lon="6.62539">
        <ele>478</ele>
        <time>2023-11-26T13:13:41Z</time>
      </trkpt>
      <trkpt lat="43.62012" lon="6.62541">
        <ele>477.9</ele>
        <time>2023-11-26T13:13:42Z</time>
      </trkpt>
      <trkpt lat="43.62012" lon="6.62542">
        <ele>477.8</ele>
        <time>2023-11-26T13:13:43Z</time>
      </trkpt>
      <trkpt lat="43.62012" lon="6.62544">
        <ele>477.6</ele>
        <time>2023-11-26T13:13:44Z</time>
      </trkpt>
      <trkpt lat="43.62012" lon="6.62546">
        <ele>477.4</ele>
        <time>2023-11-26T13:13:45Z</time>
      </trkpt>
      <trkpt lat="43.62012" lon="6.62547">
        <ele>477.3</ele>
        <time>2023-11-26T13:13:46Z</time>
      </trkpt>
      <trkpt lat="43.62012" lon="6.62549">
        <ele>477.2</ele>
        <time>2023-11-26T13:13:47Z</time>
      </trkpt>
      <trkpt lat="43.62012" lon="6.62551">
        <ele>477.1</ele>
        <time>2023-11-26T13:13:48Z</time>
      </trkpt>
      <trkpt lat="43.62012" lon="6.62552">
        <ele>477.1</ele>
        <time>2023-11-26T13:13:49Z</time>
      </trkpt>
      <trkpt lat="43.62012" lon="6.62554">
        <ele>477</ele>
        <time>2023-11-26T13:13:50Z</time>
      </trkpt>
      <trkpt lat="43.62013" lon="6.62556">
        <ele>476.9</ele>
        <time>2023-11-26T13:13:51Z</time>
      </trkpt>
      <trkpt lat="43.62013" lon="6.62558">
        <ele>477.1</ele>
        <time>2023-11-26T13:13:52Z</time>
      </trkpt>
      <trkpt lat="43.62013" lon="6.62559">
        <ele>477</ele>
        <time>2023-11-26T13:13:53Z</time>
      </trkpt>
      <trkpt lat="43.62013" lon="6.62561">
        <ele>477</ele>
        <time>2023-11-26T13:13:54Z</time>
      </trkpt>
      <trkpt lat="43.62013" lon="6.62563">
        <ele>477</ele>
        <time>2023-11-26T13:13:55Z</time>
      </trkpt>
      <trkpt lat="43.62012" lon="6.62564">
        <ele>476.8</ele>
        <time>2023-11-26T13:13:56Z</time>
      </trkpt>
      <trkpt lat="43.62012" lon="6.62566">
        <ele>476.6</ele>
        <time>2023-11-26T13:13:57Z</time>
      </trkpt>
      <trkpt lat="43.62012" lon="6.62568">
        <ele>476.5</ele>
        <time>2023-11-26T13:13:58Z</time>
      </trkpt>
      <trkpt lat="43.62013" lon="6.62568">
        <ele>476.4</ele>
        <time>2023-11-26T13:13:59Z</time>
      </trkpt>
      <trkpt lat="43.62013" lon="6.6257">
        <ele>476.3</ele>
        <time>2023-11-26T13:14:00Z</time>
      </trkpt>
      <trkpt lat="43.62013" lon="6.62572">
        <ele>476.1</ele>
        <time>2023-11-26T13:14:01Z</time>
      </trkpt>
      <trkpt lat="43.62013" lon="6.62573">
        <ele>476</ele>
        <time>2023-11-26T13:14:02Z</time>
      </trkpt>
      <trkpt lat="43.62014" lon="6.62574">
        <ele>475.9</ele>
        <time>2023-11-26T13:14:03Z</time>
      </trkpt>
      <trkpt lat="43.62014" lon="6.62575">
        <ele>475.9</ele>
        <time>2023-11-26T13:14:04Z</time>
      </trkpt>
      <trkpt lat="43.62014" lon="6.62576">
        <ele>475.8</ele>
        <time>2023-11-26T13:14:05Z</time>
      </trkpt>
      <trkpt lat="43.62014" lon="6.62577">
        <ele>475.7</ele>
        <time>2023-11-26T13:14:06Z</time>
      </trkpt>
      <trkpt lat="43.62014" lon="6.62579">
        <ele>475.7</ele>
        <time>2023-11-26T13:14:07Z</time>
      </trkpt>
      <trkpt lat="43.62015" lon="6.6258">
        <ele>475.6</ele>
        <time>2023-11-26T13:14:08Z</time>
      </trkpt>
      <trkpt lat="43.62016" lon="6.62582">
        <ele>475.5</ele>
        <time>2023-11-26T13:14:09Z</time>
      </trkpt>
      <trkpt lat="43.62016" lon="6.62583">
        <ele>475.4</ele>
        <time>2023-11-26T13:14:10Z</time>
      </trkpt>
      <trkpt lat="43.62015" lon="6.62585">
        <ele>475.2</ele>
        <time>2023-11-26T13:14:11Z</time>
      </trkpt>
      <trkpt lat="43.62016" lon="6.62586">
        <ele>475</ele>
        <time>2023-11-26T13:14:12Z</time>
      </trkpt>
      <trkpt lat="43.62017" lon="6.62587">
        <ele>474.9</ele>
        <time>2023-11-26T13:14:13Z</time>
      </trkpt>
      <trkpt lat="43.62018" lon="6.6259">
        <ele>474.9</ele>
        <time>2023-11-26T13:14:14Z</time>
      </trkpt>
      <trkpt lat="43.62019" lon="6.62592">
        <ele>474.7</ele>
        <time>2023-11-26T13:14:15Z</time>
      </trkpt>
      <trkpt lat="43.6202" lon="6.62593">
        <ele>474.6</ele>
        <time>2023-11-26T13:14:16Z</time>
      </trkpt>
      <trkpt lat="43.6202" lon="6.62594">
        <ele>474.5</ele>
        <time>2023-11-26T13:14:17Z</time>
      </trkpt>
      <trkpt lat="43.6202" lon="6.62595">
        <ele>474.4</ele>
        <time>2023-11-26T13:14:18Z</time>
      </trkpt>
      <trkpt lat="43.6202" lon="6.62596">
        <ele>474.4</ele>
        <time>2023-11-26T13:14:19Z</time>
      </trkpt>
      <trkpt lat="43.62021" lon="6.62597">
        <ele>474.3</ele>
        <time>2023-11-26T13:14:20Z</time>
      </trkpt>
      <trkpt lat="43.62022" lon="6.626">
        <ele>474.2</ele>
        <time>2023-11-26T13:14:21Z</time>
      </trkpt>
      <trkpt lat="43.62022" lon="6.62601">
        <ele>474.1</ele>
        <time>2023-11-26T13:14:22Z</time>
      </trkpt>
      <trkpt lat="43.62023" lon="6.62603">
        <ele>474</ele>
        <time>2023-11-26T13:14:23Z</time>
      </trkpt>
      <trkpt lat="43.62024" lon="6.62604">
        <ele>473.9</ele>
        <time>2023-11-26T13:14:24Z</time>
      </trkpt>
      <trkpt lat="43.62025" lon="6.62606">
        <ele>473.8</ele>
        <time>2023-11-26T13:14:25Z</time>
      </trkpt>
      <trkpt lat="43.62026" lon="6.62607">
        <ele>473.8</ele>
        <time>2023-11-26T13:14:26Z</time>
      </trkpt>
      <trkpt lat="43.62027" lon="6.62609">
        <ele>473.7</ele>
        <time>2023-11-26T13:14:27Z</time>
      </trkpt>
      <trkpt lat="43.62028" lon="6.62611">
        <ele>473.5</ele>
        <time>2023-11-26T13:14:28Z</time>
      </trkpt>
      <trkpt lat="43.62028" lon="6.62612">
        <ele>473.4</ele>
        <time>2023-11-26T13:14:29Z</time>
      </trkpt>
      <trkpt lat="43.62029" lon="6.62613">
        <ele>473.3</ele>
        <time>2023-11-26T13:14:30Z</time>
      </trkpt>
      <trkpt lat="43.6203" lon="6.62614">
        <ele>473.2</ele>
        <time>2023-11-26T13:14:31Z</time>
      </trkpt>
      <trkpt lat="43.62031" lon="6.62615">
        <ele>473</ele>
        <time>2023-11-26T13:14:32Z</time>
      </trkpt>
      <trkpt lat="43.62032" lon="6.62616">
        <ele>472.9</ele>
        <time>2023-11-26T13:14:33Z</time>
      </trkpt>
      <trkpt lat="43.62032" lon="6.62617">
        <ele>472.8</ele>
        <time>2023-11-26T13:14:34Z</time>
      </trkpt>
      <trkpt lat="43.62032" lon="6.62619">
        <ele>472.6</ele>
        <time>2023-11-26T13:14:35Z</time>
      </trkpt>
      <trkpt lat="43.62032" lon="6.62621">
        <ele>472.5</ele>
        <time>2023-11-26T13:14:36Z</time>
      </trkpt>
      <trkpt lat="43.62032" lon="6.62622">
        <ele>472.3</ele>
        <time>2023-11-26T13:14:37Z</time>
      </trkpt>
      <trkpt lat="43.62031" lon="6.62623">
        <ele>472.2</ele>
        <time>2023-11-26T13:14:38Z</time>
      </trkpt>
      <trkpt lat="43.6203" lon="6.62625">
        <ele>472</ele>
        <time>2023-11-26T13:14:39Z</time>
      </trkpt>
      <trkpt lat="43.62031" lon="6.62625">
        <ele>471.8</ele>
        <time>2023-11-26T13:14:40Z</time>
      </trkpt>
      <trkpt lat="43.6203" lon="6.62626">
        <ele>471.7</ele>
        <time>2023-11-26T13:14:41Z</time>
      </trkpt>
      <trkpt lat="43.62031" lon="6.62626">
        <ele>471.4</ele>
        <time>2023-11-26T13:14:42Z</time>
      </trkpt>
      <trkpt lat="43.62031" lon="6.62626">
        <ele>471.3</ele>
        <time>2023-11-26T13:14:43Z</time>
      </trkpt>
      <trkpt lat="43.6203" lon="6.62626">
        <ele>471.2</ele>
        <time>2023-11-26T13:14:44Z</time>
      </trkpt>
      <trkpt lat="43.6203" lon="6.62626">
        <ele>471.1</ele>
        <time>2023-11-26T13:14:45Z</time>
      </trkpt>
      <trkpt lat="43.62029" lon="6.62626">
        <ele>470.8</ele>
        <time>2023-11-26T13:14:46Z</time>
      </trkpt>
      <trkpt lat="43.62029" lon="6.62626">
        <ele>470.7</ele>
        <time>2023-11-26T13:14:47Z</time>
      </trkpt>
      <trkpt lat="43.62028" lon="6.62627">
        <ele>470.5</ele>
        <time>2023-11-26T13:14:48Z</time>
      </trkpt>
      <trkpt lat="43.62028" lon="6.62627">
        <ele>470.3</ele>
        <time>2023-11-26T13:14:49Z</time>
      </trkpt>
      <trkpt lat="43.62028" lon="6.62627">
        <ele>470.1</ele>
        <time>2023-11-26T13:14:50Z</time>
      </trkpt>
      <trkpt lat="43.62027" lon="6.62627">
        <ele>469.9</ele>
        <time>2023-11-26T13:14:51Z</time>
      </trkpt>
      <trkpt lat="43.62026" lon="6.62626">
        <ele>469.8</ele>
        <time>2023-11-26T13:14:52Z</time>
      </trkpt>
      <trkpt lat="43.62026" lon="6.62626">
        <ele>469.6</ele>
        <time>2023-11-26T13:14:53Z</time>
      </trkpt>
      <trkpt lat="43.62025" lon="6.62625">
        <ele>469.4</ele>
        <time>2023-11-26T13:14:54Z</time>
      </trkpt>
      <trkpt lat="43.62024" lon="6.62625">
        <ele>469.3</ele>
        <time>2023-11-26T13:14:55Z</time>
      </trkpt>
      <trkpt lat="43.62023" lon="6.62624">
        <ele>469.2</ele>
        <time>2023-11-26T13:14:56Z</time>
      </trkpt>
      <trkpt lat="43.62023" lon="6.62624">
        <ele>469</ele>
        <time>2023-11-26T13:14:57Z</time>
      </trkpt>
      <trkpt lat="43.62022" lon="6.62623">
        <ele>468.9</ele>
        <time>2023-11-26T13:14:58Z</time>
      </trkpt>
      <trkpt lat="43.62021" lon="6.62623">
        <ele>468.8</ele>
        <time>2023-11-26T13:14:59Z</time>
      </trkpt>
      <trkpt lat="43.62021" lon="6.62623">
        <ele>468.6</ele>
        <time>2023-11-26T13:15:00Z</time>
      </trkpt>
      <trkpt lat="43.6202" lon="6.62624">
        <ele>468.4</ele>
        <time>2023-11-26T13:15:01Z</time>
      </trkpt>
      <trkpt lat="43.62019" lon="6.62624">
        <ele>468.3</ele>
        <time>2023-11-26T13:15:02Z</time>
      </trkpt>
      <trkpt lat="43.62018" lon="6.62624">
        <ele>468.2</ele>
        <time>2023-11-26T13:15:03Z</time>
      </trkpt>
      <trkpt lat="43.62017" lon="6.62624">
        <ele>468.1</ele>
        <time>2023-11-26T13:15:04Z</time>
      </trkpt>
      <trkpt lat="43.62017" lon="6.62624">
        <ele>467.9</ele>
        <time>2023-11-26T13:15:05Z</time>
      </trkpt>
      <trkpt lat="43.62016" lon="6.62625">
        <ele>467.8</ele>
        <time>2023-11-26T13:15:06Z</time>
      </trkpt>
      <trkpt lat="43.62015" lon="6.62624">
        <ele>467.7</ele>
        <time>2023-11-26T13:15:07Z</time>
      </trkpt>
      <trkpt lat="43.62014" lon="6.62623">
        <ele>467.6</ele>
        <time>2023-11-26T13:15:08Z</time>
      </trkpt>
      <trkpt lat="43.62012" lon="6.62623">
        <ele>467.5</ele>
        <time>2023-11-26T13:15:09Z</time>
      </trkpt>
      <trkpt lat="43.62012" lon="6.62623">
        <ele>467.4</ele>
        <time>2023-11-26T13:15:10Z</time>
      </trkpt>
      <trkpt lat="43.6201" lon="6.62623">
        <ele>467.3</ele>
        <time>2023-11-26T13:15:11Z</time>
      </trkpt>
      <trkpt lat="43.62009" lon="6.62623">
        <ele>467.2</ele>
        <time>2023-11-26T13:15:12Z</time>
      </trkpt>
      <trkpt lat="43.62009" lon="6.62623">
        <ele>467.1</ele>
        <time>2023-11-26T13:15:13Z</time>
      </trkpt>
      <trkpt lat="43.62008" lon="6.62622">
        <ele>467</ele>
        <time>2023-11-26T13:15:14Z</time>
      </trkpt>
      <trkpt lat="43.62007" lon="6.62622">
        <ele>466.9</ele>
        <time>2023-11-26T13:15:15Z</time>
      </trkpt>
      <trkpt lat="43.62006" lon="6.62622">
        <ele>466.8</ele>
        <time>2023-11-26T13:15:16Z</time>
      </trkpt>
      <trkpt lat="43.62005" lon="6.62621">
        <ele>466.7</ele>
        <time>2023-11-26T13:15:17Z</time>
      </trkpt>
      <trkpt lat="43.62004" lon="6.62621">
        <ele>466.7</ele>
        <time>2023-11-26T13:15:18Z</time>
      </trkpt>
      <trkpt lat="43.62002" lon="6.62621">
        <ele>466.5</ele>
        <time>2023-11-26T13:15:19Z</time>
      </trkpt>
      <trkpt lat="43.62002" lon="6.62621">
        <ele>466.3</ele>
        <time>2023-11-26T13:15:20Z</time>
      </trkpt>
      <trkpt lat="43.62001" lon="6.62621">
        <ele>466.2</ele>
        <time>2023-11-26T13:15:21Z</time>
      </trkpt>
      <trkpt lat="43.62" lon="6.62621">
        <ele>466.1</ele>
        <time>2023-11-26T13:15:22Z</time>
      </trkpt>
      <trkpt lat="43.62" lon="6.6262">
        <ele>466</ele>
        <time>2023-11-26T13:15:23Z</time>
      </trkpt>
      <trkpt lat="43.62" lon="6.6262">
        <ele>465.8</ele>
        <time>2023-11-26T13:15:24Z</time>
      </trkpt>
      <trkpt lat="43.62" lon="6.6262">
        <ele>465.7</ele>
        <time>2023-11-26T13:15:25Z</time>
      </trkpt>
      <trkpt lat="43.61999" lon="6.6262">
        <ele>465.8</ele>
        <time>2023-11-26T13:15:26Z</time>
      </trkpt>
      <trkpt lat="43.61999" lon="6.62621">
        <ele>465.8</ele>
        <time>2023-11-26T13:15:27Z</time>
      </trkpt>
      <trkpt lat="43.61999" lon="6.62621">
        <ele>465.8</ele>
        <time>2023-11-26T13:15:28Z</time>
      </trkpt>
      <trkpt lat="43.61998" lon="6.62621">
        <ele>465.6</ele>
        <time>2023-11-26T13:15:29Z</time>
      </trkpt>
      <trkpt lat="43.61997" lon="6.62621">
        <ele>465.6</ele>
        <time>2023-11-26T13:15:30Z</time>
      </trkpt>
      <trkpt lat="43.61996" lon="6.62621">
        <ele>465.5</ele>
        <time>2023-11-26T13:15:31Z</time>
      </trkpt>
      <trkpt lat="43.61995" lon="6.62621">
        <ele>465.4</ele>
        <time>2023-11-26T13:15:32Z</time>
      </trkpt>
      <trkpt lat="43.61994" lon="6.6262">
        <ele>465.4</ele>
        <time>2023-11-26T13:15:33Z</time>
      </trkpt>
      <trkpt lat="43.61993" lon="6.62621">
        <ele>465.3</ele>
        <time>2023-11-26T13:15:34Z</time>
      </trkpt>
      <trkpt lat="43.61992" lon="6.6262">
        <ele>465.2</ele>
        <time>2023-11-26T13:15:35Z</time>
      </trkpt>
      <trkpt lat="43.61992" lon="6.6262">
        <ele>465.1</ele>
        <time>2023-11-26T13:15:36Z</time>
      </trkpt>
      <trkpt lat="43.6199" lon="6.6262">
        <ele>465.1</ele>
        <time>2023-11-26T13:15:37Z</time>
      </trkpt>
      <trkpt lat="43.6199" lon="6.6262">
        <ele>465</ele>
        <time>2023-11-26T13:15:38Z</time>
      </trkpt>
      <trkpt lat="43.61989" lon="6.6262">
        <ele>465</ele>
        <time>2023-11-26T13:15:39Z</time>
      </trkpt>
      <trkpt lat="43.61988" lon="6.62621">
        <ele>464.9</ele>
        <time>2023-11-26T13:15:40Z</time>
      </trkpt>
      <trkpt lat="43.61988" lon="6.62621">
        <ele>464.8</ele>
        <time>2023-11-26T13:15:41Z</time>
      </trkpt>
      <trkpt lat="43.61987" lon="6.62621">
        <ele>464.6</ele>
        <time>2023-11-26T13:15:42Z</time>
      </trkpt>
      <trkpt lat="43.61987" lon="6.62621">
        <ele>464.5</ele>
        <time>2023-11-26T13:15:43Z</time>
      </trkpt>
      <trkpt lat="43.61987" lon="6.62621">
        <ele>464.4</ele>
        <time>2023-11-26T13:15:44Z</time>
      </trkpt>
      <trkpt lat="43.61987" lon="6.62622">
        <ele>464.3</ele>
        <time>2023-11-26T13:15:45Z</time>
      </trkpt>
      <trkpt lat="43.61987" lon="6.62622">
        <ele>464.3</ele>
        <time>2023-11-26T13:15:46Z</time>
      </trkpt>
      <trkpt lat="43.61987" lon="6.62622">
        <ele>464.3</ele>
        <time>2023-11-26T13:15:47Z</time>
      </trkpt>
      <trkpt lat="43.61987" lon="6.62622">
        <ele>464.1</ele>
        <time>2023-11-26T13:15:48Z</time>
      </trkpt>
      <trkpt lat="43.61987" lon="6.62623">
        <ele>464</ele>
        <time>2023-11-26T13:15:49Z</time>
      </trkpt>
      <trkpt lat="43.61987" lon="6.62623">
        <ele>463.9</ele>
        <time>2023-11-26T13:15:50Z</time>
      </trkpt>
      <trkpt lat="43.61987" lon="6.62623">
        <ele>464</ele>
        <time>2023-11-26T13:15:51Z</time>
      </trkpt>
      <trkpt lat="43.61987" lon="6.62623">
        <ele>464.1</ele>
        <time>2023-11-26T13:15:52Z</time>
      </trkpt>
      <trkpt lat="43.61987" lon="6.62623">
        <ele>464.1</ele>
        <time>2023-11-26T13:15:53Z</time>
      </trkpt>
      <trkpt lat="43.61987" lon="6.62623">
        <ele>464.1</ele>
        <time>2023-11-26T13:15:54Z</time>
      </trkpt>
      <trkpt lat="43.61987" lon="6.62623">
        <ele>464.1</ele>
        <time>2023-11-26T13:15:55Z</time>
      </trkpt>
      <trkpt lat="43.61987" lon="6.62623">
        <ele>463.9</ele>
        <time>2023-11-26T13:15:56Z</time>
      </trkpt>
      <trkpt lat="43.61987" lon="6.62623">
        <ele>463.9</ele>
        <time>2023-11-26T13:15:57Z</time>
      </trkpt>
      <trkpt lat="43.61987" lon="6.62624">
        <ele>463.9</ele>
        <time>2023-11-26T13:15:58Z</time>
      </trkpt>
      <trkpt lat="43.61987" lon="6.62623">
        <ele>463.8</ele>
        <time>2023-11-26T13:15:59Z</time>
      </trkpt>
      <trkpt lat="43.61986" lon="6.62623">
        <ele>463.7</ele>
        <time>2023-11-26T13:16:00Z</time>
      </trkpt>
      <trkpt lat="43.61986" lon="6.62624">
        <ele>463.7</ele>
        <time>2023-11-26T13:16:01Z</time>
      </trkpt>
      <trkpt lat="43.61987" lon="6.62625">
        <ele>463.7</ele>
        <time>2023-11-26T13:16:02Z</time>
      </trkpt>
      <trkpt lat="43.61988" lon="6.62626">
        <ele>463.6</ele>
        <time>2023-11-26T13:16:03Z</time>
      </trkpt>
      <trkpt lat="43.61989" lon="6.62628">
        <ele>463.6</ele>
        <time>2023-11-26T13:16:04Z</time>
      </trkpt>
      <trkpt lat="43.61989" lon="6.62629">
        <ele>463.6</ele>
        <time>2023-11-26T13:16:05Z</time>
      </trkpt>
      <trkpt lat="43.6199" lon="6.6263">
        <ele>463.6</ele>
        <time>2023-11-26T13:16:06Z</time>
      </trkpt>
      <trkpt lat="43.6199" lon="6.6263">
        <ele>463.7</ele>
        <time>2023-11-26T13:16:07Z</time>
      </trkpt>
      <trkpt lat="43.6199" lon="6.62631">
        <ele>463.7</ele>
        <time>2023-11-26T13:16:08Z</time>
      </trkpt>
      <trkpt lat="43.61991" lon="6.62632">
        <ele>463.8</ele>
        <time>2023-11-26T13:16:09Z</time>
      </trkpt>
      <trkpt lat="43.61992" lon="6.62633">
        <ele>463.8</ele>
        <time>2023-11-26T13:16:10Z</time>
      </trkpt>
      <trkpt lat="43.61993" lon="6.62634">
        <ele>463.8</ele>
        <time>2023-11-26T13:16:11Z</time>
      </trkpt>
      <trkpt lat="43.61994" lon="6.62635">
        <ele>463.8</ele>
        <time>2023-11-26T13:16:12Z</time>
      </trkpt>
      <trkpt lat="43.61994" lon="6.62636">
        <ele>463.7</ele>
        <time>2023-11-26T13:16:13Z</time>
      </trkpt>
      <trkpt lat="43.61995" lon="6.62637">
        <ele>463.6</ele>
        <time>2023-11-26T13:16:14Z</time>
      </trkpt>
      <trkpt lat="43.61995" lon="6.62638">
        <ele>463.5</ele>
        <time>2023-11-26T13:16:15Z</time>
      </trkpt>
      <trkpt lat="43.61996" lon="6.62638">
        <ele>463.5</ele>
        <time>2023-11-26T13:16:16Z</time>
      </trkpt>
      <trkpt lat="43.61997" lon="6.62638">
        <ele>463.4</ele>
        <time>2023-11-26T13:16:17Z</time>
      </trkpt>
      <trkpt lat="43.61997" lon="6.6264">
        <ele>463.3</ele>
        <time>2023-11-26T13:16:18Z</time>
      </trkpt>
      <trkpt lat="43.61998" lon="6.6264">
        <ele>463.2</ele>
        <time>2023-11-26T13:16:19Z</time>
      </trkpt>
      <trkpt lat="43.61999" lon="6.62641">
        <ele>462.9</ele>
        <time>2023-11-26T13:16:20Z</time>
      </trkpt>
      <trkpt lat="43.62" lon="6.62642">
        <ele>463</ele>
        <time>2023-11-26T13:16:21Z</time>
      </trkpt>
      <trkpt lat="43.62001" lon="6.62643">
        <ele>463</ele>
        <time>2023-11-26T13:16:22Z</time>
      </trkpt>
      <trkpt lat="43.62002" lon="6.62644">
        <ele>463</ele>
        <time>2023-11-26T13:16:23Z</time>
      </trkpt>
      <trkpt lat="43.62003" lon="6.62644">
        <ele>462.9</ele>
        <time>2023-11-26T13:16:24Z</time>
      </trkpt>
      <trkpt lat="43.62003" lon="6.62644">
        <ele>463</ele>
        <time>2023-11-26T13:16:25Z</time>
      </trkpt>
      <trkpt lat="43.62004" lon="6.62645">
        <ele>463</ele>
        <time>2023-11-26T13:16:26Z</time>
      </trkpt>
      <trkpt lat="43.62004" lon="6.62646">
        <ele>463</ele>
        <time>2023-11-26T13:16:27Z</time>
      </trkpt>
      <trkpt lat="43.62005" lon="6.62647">
        <ele>463</ele>
        <time>2023-11-26T13:16:28Z</time>
      </trkpt>
      <trkpt lat="43.62006" lon="6.62648">
        <ele>463.1</ele>
        <time>2023-11-26T13:16:29Z</time>
      </trkpt>
      <trkpt lat="43.62006" lon="6.62649">
        <ele>463.1</ele>
        <time>2023-11-26T13:16:30Z</time>
      </trkpt>
      <trkpt lat="43.62007" lon="6.62649">
        <ele>463.1</ele>
        <time>2023-11-26T13:16:31Z</time>
      </trkpt>
      <trkpt lat="43.62008" lon="6.6265">
        <ele>463</ele>
        <time>2023-11-26T13:16:32Z</time>
      </trkpt>
      <trkpt lat="43.62009" lon="6.62651">
        <ele>463</ele>
        <time>2023-11-26T13:16:33Z</time>
      </trkpt>
      <trkpt lat="43.6201" lon="6.62651">
        <ele>463.1</ele>
        <time>2023-11-26T13:16:34Z</time>
      </trkpt>
      <trkpt lat="43.6201" lon="6.62651">
        <ele>463</ele>
        <time>2023-11-26T13:16:35Z</time>
      </trkpt>
      <trkpt lat="43.62011" lon="6.62652">
        <ele>463</ele>
        <time>2023-11-26T13:16:36Z</time>
      </trkpt>
      <trkpt lat="43.62012" lon="6.62652">
        <ele>462.9</ele>
        <time>2023-11-26T13:16:37Z</time>
      </trkpt>
      <trkpt lat="43.62013" lon="6.62652">
        <ele>462.9</ele>
        <time>2023-11-26T13:16:38Z</time>
      </trkpt>
      <trkpt lat="43.62014" lon="6.62653">
        <ele>462.8</ele>
        <time>2023-11-26T13:16:39Z</time>
      </trkpt>
      <trkpt lat="43.62015" lon="6.62653">
        <ele>462.8</ele>
        <time>2023-11-26T13:16:40Z</time>
      </trkpt>
      <trkpt lat="43.62017" lon="6.62653">
        <ele>462.8</ele>
        <time>2023-11-26T13:16:41Z</time>
      </trkpt>
      <trkpt lat="43.62018" lon="6.62653">
        <ele>462.6</ele>
        <time>2023-11-26T13:16:42Z</time>
      </trkpt>
      <trkpt lat="43.62019" lon="6.62654">
        <ele>462.6</ele>
        <time>2023-11-26T13:16:43Z</time>
      </trkpt>
      <trkpt lat="43.6202" lon="6.62654">
        <ele>462.6</ele>
        <time>2023-11-26T13:16:44Z</time>
      </trkpt>
      <trkpt lat="43.62021" lon="6.62654">
        <ele>462.5</ele>
        <time>2023-11-26T13:16:45Z</time>
      </trkpt>
      <trkpt lat="43.62022" lon="6.62655">
        <ele>462.5</ele>
        <time>2023-11-26T13:16:46Z</time>
      </trkpt>
      <trkpt lat="43.62023" lon="6.62655">
        <ele>462.4</ele>
        <time>2023-11-26T13:16:47Z</time>
      </trkpt>
      <trkpt lat="43.62024" lon="6.62655">
        <ele>462.3</ele>
        <time>2023-11-26T13:16:48Z</time>
      </trkpt>
      <trkpt lat="43.62025" lon="6.62655">
        <ele>462.3</ele>
        <time>2023-11-26T13:16:49Z</time>
      </trkpt>
      <trkpt lat="43.62026" lon="6.62655">
        <ele>462.4</ele>
        <time>2023-11-26T13:16:50Z</time>
      </trkpt>
      <trkpt lat="43.62027" lon="6.62656">
        <ele>462.4</ele>
        <time>2023-11-26T13:16:51Z</time>
      </trkpt>
      <trkpt lat="43.62028" lon="6.62656">
        <ele>462.3</ele>
        <time>2023-11-26T13:16:52Z</time>
      </trkpt>
      <trkpt lat="43.62028" lon="6.62656">
        <ele>461.7</ele>
        <time>2023-11-26T13:16:53Z</time>
      </trkpt>
      <trkpt lat="43.62029" lon="6.62657">
        <ele>461.7</ele>
        <time>2023-11-26T13:16:54Z</time>
      </trkpt>
      <trkpt lat="43.6203" lon="6.62658">
        <ele>461.8</ele>
        <time>2023-11-26T13:16:55Z</time>
      </trkpt>
      <trkpt lat="43.62031" lon="6.62658">
        <ele>461.8</ele>
        <time>2023-11-26T13:16:56Z</time>
      </trkpt>
      <trkpt lat="43.62031" lon="6.62658">
        <ele>462.3</ele>
        <time>2023-11-26T13:16:57Z</time>
      </trkpt>
      <trkpt lat="43.62031" lon="6.62658">
        <ele>462.3</ele>
        <time>2023-11-26T13:16:58Z</time>
      </trkpt>
      <trkpt lat="43.62032" lon="6.62659">
        <ele>462.2</ele>
        <time>2023-11-26T13:16:59Z</time>
      </trkpt>
      <trkpt lat="43.62032" lon="6.62659">
        <ele>462</ele>
        <time>2023-11-26T13:17:00Z</time>
      </trkpt>
      <trkpt lat="43.62033" lon="6.6266">
        <ele>462</ele>
        <time>2023-11-26T13:17:01Z</time>
      </trkpt>
      <trkpt lat="43.62034" lon="6.62659">
        <ele>461.9</ele>
        <time>2023-11-26T13:17:02Z</time>
      </trkpt>
      <trkpt lat="43.62035" lon="6.62659">
        <ele>461.7</ele>
        <time>2023-11-26T13:17:03Z</time>
      </trkpt>
      <trkpt lat="43.62036" lon="6.62659">
        <ele>462.1</ele>
        <time>2023-11-26T13:17:04Z</time>
      </trkpt>
      <trkpt lat="43.62037" lon="6.62658">
        <ele>461.9</ele>
        <time>2023-11-26T13:17:05Z</time>
      </trkpt>
      <trkpt lat="43.6204" lon="6.62657">
        <ele>463.8</ele>
        <time>2023-11-26T13:17:06Z</time>
      </trkpt>
      <trkpt lat="43.6204" lon="6.62658">
        <ele>463.5</ele>
        <time>2023-11-26T13:17:07Z</time>
      </trkpt>
      <trkpt lat="43.6204" lon="6.62658">
        <ele>463.1</ele>
        <time>2023-11-26T13:17:08Z</time>
      </trkpt>
      <trkpt lat="43.6204" lon="6.62658">
        <ele>462.6</ele>
        <time>2023-11-26T13:17:09Z</time>
      </trkpt>
      <trkpt lat="43.62042" lon="6.62659">
        <ele>462.3</ele>
        <time>2023-11-26T13:17:10Z</time>
      </trkpt>
      <trkpt lat="43.62042" lon="6.62659">
        <ele>462</ele>
        <time>2023-11-26T13:17:11Z</time>
      </trkpt>
      <trkpt lat="43.62044" lon="6.62661">
        <ele>461.7</ele>
        <time>2023-11-26T13:17:12Z</time>
      </trkpt>
      <trkpt lat="43.62045" lon="6.62662">
        <ele>461.5</ele>
        <time>2023-11-26T13:17:13Z</time>
      </trkpt>
      <trkpt lat="43.62047" lon="6.62663">
        <ele>461.2</ele>
        <time>2023-11-26T13:17:14Z</time>
      </trkpt>
      <trkpt lat="43.62047" lon="6.62664">
        <ele>461</ele>
        <time>2023-11-26T13:17:15Z</time>
      </trkpt>
      <trkpt lat="43.62048" lon="6.62666">
        <ele>460.8</ele>
        <time>2023-11-26T13:17:16Z</time>
      </trkpt>
      <trkpt lat="43.6205" lon="6.62667">
        <ele>460.7</ele>
        <time>2023-11-26T13:17:17Z</time>
      </trkpt>
      <trkpt lat="43.6205" lon="6.62668">
        <ele>460.6</ele>
        <time>2023-11-26T13:17:18Z</time>
      </trkpt>
      <trkpt lat="43.62051" lon="6.62669">
        <ele>460.4</ele>
        <time>2023-11-26T13:17:19Z</time>
      </trkpt>
      <trkpt lat="43.62052" lon="6.62669">
        <ele>460.3</ele>
        <time>2023-11-26T13:17:20Z</time>
      </trkpt>
      <trkpt lat="43.62053" lon="6.6267">
        <ele>460.3</ele>
        <time>2023-11-26T13:17:21Z</time>
      </trkpt>
      <trkpt lat="43.62054" lon="6.62671">
        <ele>460.2</ele>
        <time>2023-11-26T13:17:22Z</time>
      </trkpt>
      <trkpt lat="43.62054" lon="6.62671">
        <ele>460.1</ele>
        <time>2023-11-26T13:17:23Z</time>
      </trkpt>
      <trkpt lat="43.62055" lon="6.62671">
        <ele>460</ele>
        <time>2023-11-26T13:17:24Z</time>
      </trkpt>
      <trkpt lat="43.62055" lon="6.62671">
        <ele>460</ele>
        <time>2023-11-26T13:17:25Z</time>
      </trkpt>
      <trkpt lat="43.62056" lon="6.62671">
        <ele>459.9</ele>
        <time>2023-11-26T13:17:26Z</time>
      </trkpt>
      <trkpt lat="43.62056" lon="6.62671">
        <ele>459.8</ele>
        <time>2023-11-26T13:17:27Z</time>
      </trkpt>
      <trkpt lat="43.62056" lon="6.62672">
        <ele>459.8</ele>
        <time>2023-11-26T13:17:28Z</time>
      </trkpt>
      <trkpt lat="43.62057" lon="6.62672">
        <ele>459.8</ele>
        <time>2023-11-26T13:17:29Z</time>
      </trkpt>
      <trkpt lat="43.62057" lon="6.62672">
        <ele>459.9</ele>
        <time>2023-11-26T13:17:30Z</time>
      </trkpt>
      <trkpt lat="43.62057" lon="6.62673">
        <ele>459.9</ele>
        <time>2023-11-26T13:17:31Z</time>
      </trkpt>
      <trkpt lat="43.62057" lon="6.62674">
        <ele>459.9</ele>
        <time>2023-11-26T13:17:32Z</time>
      </trkpt>
      <trkpt lat="43.62058" lon="6.62674">
        <ele>459.9</ele>
        <time>2023-11-26T13:17:33Z</time>
      </trkpt>
      <trkpt lat="43.62058" lon="6.62674">
        <ele>459.8</ele>
        <time>2023-11-26T13:17:34Z</time>
      </trkpt>
      <trkpt lat="43.62058" lon="6.62674">
        <ele>459.8</ele>
        <time>2023-11-26T13:17:35Z</time>
      </trkpt>
      <trkpt lat="43.62059" lon="6.62674">
        <ele>459.7</ele>
        <time>2023-11-26T13:17:36Z</time>
      </trkpt>
      <trkpt lat="43.62059" lon="6.62675">
        <ele>459.7</ele>
        <time>2023-11-26T13:17:37Z</time>
      </trkpt>
      <trkpt lat="43.62059" lon="6.62675">
        <ele>459.7</ele>
        <time>2023-11-26T13:17:38Z</time>
      </trkpt>
      <trkpt lat="43.62059" lon="6.62674">
        <ele>459.6</ele>
        <time>2023-11-26T13:17:39Z</time>
      </trkpt>
      <trkpt lat="43.62059" lon="6.62674">
        <ele>459.7</ele>
        <time>2023-11-26T13:17:40Z</time>
      </trkpt>
      <trkpt lat="43.6206" lon="6.62674">
        <ele>459.7</ele>
        <time>2023-11-26T13:17:41Z</time>
      </trkpt>
      <trkpt lat="43.6206" lon="6.62674">
        <ele>459.7</ele>
        <time>2023-11-26T13:17:42Z</time>
      </trkpt>
      <trkpt lat="43.6206" lon="6.62673">
        <ele>459.8</ele>
        <time>2023-11-26T13:17:43Z</time>
      </trkpt>
      <trkpt lat="43.6206" lon="6.62673">
        <ele>459.8</ele>
        <time>2023-11-26T13:17:44Z</time>
      </trkpt>
      <trkpt lat="43.62061" lon="6.62673">
        <ele>459.8</ele>
        <time>2023-11-26T13:17:45Z</time>
      </trkpt>
      <trkpt lat="43.62061" lon="6.62672">
        <ele>459.9</ele>
        <time>2023-11-26T13:17:46Z</time>
      </trkpt>
      <trkpt lat="43.62062" lon="6.62672">
        <ele>459.9</ele>
        <time>2023-11-26T13:17:47Z</time>
      </trkpt>
      <trkpt lat="43.62062" lon="6.62672">
        <ele>459.8</ele>
        <time>2023-11-26T13:17:48Z</time>
      </trkpt>
      <trkpt lat="43.62062" lon="6.62672">
        <ele>459.9</ele>
        <time>2023-11-26T13:17:49Z</time>
      </trkpt>
      <trkpt lat="43.62062" lon="6.62671">
        <ele>459.9</ele>
        <time>2023-11-26T13:17:50Z</time>
      </trkpt>
      <trkpt lat="43.62063" lon="6.62672">
        <ele>459.9</ele>
        <time>2023-11-26T13:17:51Z</time>
      </trkpt>
      <trkpt lat="43.62064" lon="6.62671">
        <ele>459.9</ele>
        <time>2023-11-26T13:17:52Z</time>
      </trkpt>
      <trkpt lat="43.62065" lon="6.62671">
        <ele>459.9</ele>
        <time>2023-11-26T13:17:53Z</time>
      </trkpt>
      <trkpt lat="43.62066" lon="6.62672">
        <ele>459.9</ele>
        <time>2023-11-26T13:17:54Z</time>
      </trkpt>
      <trkpt lat="43.62067" lon="6.62672">
        <ele>459.8</ele>
        <time>2023-11-26T13:17:55Z</time>
      </trkpt>
      <trkpt lat="43.62068" lon="6.62672">
        <ele>459.9</ele>
        <time>2023-11-26T13:17:56Z</time>
      </trkpt>
      <trkpt lat="43.6207" lon="6.62672">
        <ele>459.9</ele>
        <time>2023-11-26T13:17:57Z</time>
      </trkpt>
      <trkpt lat="43.62071" lon="6.62671">
        <ele>460</ele>
        <time>2023-11-26T13:17:58Z</time>
      </trkpt>
      <trkpt lat="43.62072" lon="6.62672">
        <ele>460</ele>
        <time>2023-11-26T13:17:59Z</time>
      </trkpt>
      <trkpt lat="43.62073" lon="6.62671">
        <ele>459.9</ele>
        <time>2023-11-26T13:18:00Z</time>
      </trkpt>
      <trkpt lat="43.62074" lon="6.62671">
        <ele>459.9</ele>
        <time>2023-11-26T13:18:01Z</time>
      </trkpt>
      <trkpt lat="43.62074" lon="6.62671">
        <ele>460.1</ele>
        <time>2023-11-26T13:18:02Z</time>
      </trkpt>
      <trkpt lat="43.62075" lon="6.62671">
        <ele>460</ele>
        <time>2023-11-26T13:18:03Z</time>
      </trkpt>
      <trkpt lat="43.62076" lon="6.62671">
        <ele>460</ele>
        <time>2023-11-26T13:18:04Z</time>
      </trkpt>
      <trkpt lat="43.62077" lon="6.62671">
        <ele>460.1</ele>
        <time>2023-11-26T13:18:05Z</time>
      </trkpt>
      <trkpt lat="43.62079" lon="6.6267">
        <ele>460.1</ele>
        <time>2023-11-26T13:18:06Z</time>
      </trkpt>
      <trkpt lat="43.6208" lon="6.6267">
        <ele>460.1</ele>
        <time>2023-11-26T13:18:07Z</time>
      </trkpt>
      <trkpt lat="43.6208" lon="6.6267">
        <ele>460.1</ele>
        <time>2023-11-26T13:18:08Z</time>
      </trkpt>
      <trkpt lat="43.62082" lon="6.62671">
        <ele>460.2</ele>
        <time>2023-11-26T13:18:09Z</time>
      </trkpt>
      <trkpt lat="43.62083" lon="6.62671">
        <ele>460.2</ele>
        <time>2023-11-26T13:18:10Z</time>
      </trkpt>
      <trkpt lat="43.62084" lon="6.62671">
        <ele>460.2</ele>
        <time>2023-11-26T13:18:11Z</time>
      </trkpt>
      <trkpt lat="43.62085" lon="6.62671">
        <ele>460.1</ele>
        <time>2023-11-26T13:18:12Z</time>
      </trkpt>
      <trkpt lat="43.62086" lon="6.62672">
        <ele>460.1</ele>
        <time>2023-11-26T13:18:13Z</time>
      </trkpt>
      <trkpt lat="43.62088" lon="6.62671">
        <ele>460</ele>
        <time>2023-11-26T13:18:14Z</time>
      </trkpt>
      <trkpt lat="43.62089" lon="6.62671">
        <ele>460</ele>
        <time>2023-11-26T13:18:15Z</time>
      </trkpt>
      <trkpt lat="43.62091" lon="6.62671">
        <ele>460</ele>
        <time>2023-11-26T13:18:16Z</time>
      </trkpt>
      <trkpt lat="43.62092" lon="6.62671">
        <ele>460.1</ele>
        <time>2023-11-26T13:18:17Z</time>
      </trkpt>
      <trkpt lat="43.62092" lon="6.62671">
        <ele>460.1</ele>
        <time>2023-11-26T13:18:18Z</time>
      </trkpt>
      <trkpt lat="43.62093" lon="6.62671">
        <ele>460.1</ele>
        <time>2023-11-26T13:18:19Z</time>
      </trkpt>
      <trkpt lat="43.62094" lon="6.6267">
        <ele>460.1</ele>
        <time>2023-11-26T13:18:20Z</time>
      </trkpt>
      <trkpt lat="43.62095" lon="6.62671">
        <ele>460.1</ele>
        <time>2023-11-26T13:18:21Z</time>
      </trkpt>
      <trkpt lat="43.62096" lon="6.62672">
        <ele>460.1</ele>
        <time>2023-11-26T13:18:22Z</time>
      </trkpt>
      <trkpt lat="43.62096" lon="6.62671">
        <ele>460.1</ele>
        <time>2023-11-26T13:18:23Z</time>
      </trkpt>
      <trkpt lat="43.62097" lon="6.62671">
        <ele>460.1</ele>
        <time>2023-11-26T13:18:24Z</time>
      </trkpt>
      <trkpt lat="43.62098" lon="6.62671">
        <ele>460.2</ele>
        <time>2023-11-26T13:18:25Z</time>
      </trkpt>
      <trkpt lat="43.62099" lon="6.6267">
        <ele>460.3</ele>
        <time>2023-11-26T13:18:26Z</time>
      </trkpt>
      <trkpt lat="43.621" lon="6.6267">
        <ele>460.4</ele>
        <time>2023-11-26T13:18:27Z</time>
      </trkpt>
      <trkpt lat="43.62101" lon="6.62669">
        <ele>460.5</ele>
        <time>2023-11-26T13:18:28Z</time>
      </trkpt>
      <trkpt lat="43.62102" lon="6.62669">
        <ele>460.6</ele>
        <time>2023-11-26T13:18:29Z</time>
      </trkpt>
      <trkpt lat="43.62103" lon="6.62669">
        <ele>460.6</ele>
        <time>2023-11-26T13:18:30Z</time>
      </trkpt>
      <trkpt lat="43.62104" lon="6.6267">
        <ele>460.6</ele>
        <time>2023-11-26T13:18:31Z</time>
      </trkpt>
      <trkpt lat="43.62105" lon="6.6267">
        <ele>460.7</ele>
        <time>2023-11-26T13:18:32Z</time>
      </trkpt>
      <trkpt lat="43.62106" lon="6.62669">
        <ele>460.8</ele>
        <time>2023-11-26T13:18:33Z</time>
      </trkpt>
      <trkpt lat="43.62107" lon="6.62669">
        <ele>460.8</ele>
        <time>2023-11-26T13:18:34Z</time>
      </trkpt>
      <trkpt lat="43.62108" lon="6.62669">
        <ele>460.9</ele>
        <time>2023-11-26T13:18:35Z</time>
      </trkpt>
      <trkpt lat="43.6211" lon="6.62668">
        <ele>460.9</ele>
        <time>2023-11-26T13:18:36Z</time>
      </trkpt>
      <trkpt lat="43.62111" lon="6.62668">
        <ele>460.9</ele>
        <time>2023-11-26T13:18:37Z</time>
      </trkpt>
      <trkpt lat="43.62111" lon="6.62669">
        <ele>460.9</ele>
        <time>2023-11-26T13:18:38Z</time>
      </trkpt>
      <trkpt lat="43.62112" lon="6.62669">
        <ele>460.9</ele>
        <time>2023-11-26T13:18:39Z</time>
      </trkpt>
      <trkpt lat="43.62113" lon="6.62668">
        <ele>460.9</ele>
        <time>2023-11-26T13:18:40Z</time>
      </trkpt>
      <trkpt lat="43.62114" lon="6.62667">
        <ele>460.8</ele>
        <time>2023-11-26T13:18:41Z</time>
      </trkpt>
      <trkpt lat="43.62115" lon="6.62667">
        <ele>460.8</ele>
        <time>2023-11-26T13:18:42Z</time>
      </trkpt>
      <trkpt lat="43.62116" lon="6.62666">
        <ele>460.8</ele>
        <time>2023-11-26T13:18:43Z</time>
      </trkpt>
      <trkpt lat="43.62118" lon="6.62666">
        <ele>460.8</ele>
        <time>2023-11-26T13:18:44Z</time>
      </trkpt>
      <trkpt lat="43.62119" lon="6.62666">
        <ele>460.8</ele>
        <time>2023-11-26T13:18:45Z</time>
      </trkpt>
      <trkpt lat="43.6212" lon="6.62666">
        <ele>460.8</ele>
        <time>2023-11-26T13:18:46Z</time>
      </trkpt>
      <trkpt lat="43.62121" lon="6.62665">
        <ele>460.9</ele>
        <time>2023-11-26T13:18:47Z</time>
      </trkpt>
      <trkpt lat="43.62122" lon="6.62665">
        <ele>460.8</ele>
        <time>2023-11-26T13:18:48Z</time>
      </trkpt>
      <trkpt lat="43.62123" lon="6.62666">
        <ele>460.7</ele>
        <time>2023-11-26T13:18:49Z</time>
      </trkpt>
      <trkpt lat="43.62123" lon="6.62667">
        <ele>460.7</ele>
        <time>2023-11-26T13:18:50Z</time>
      </trkpt>
      <trkpt lat="43.62124" lon="6.62667">
        <ele>460.8</ele>
        <time>2023-11-26T13:18:51Z</time>
      </trkpt>
      <trkpt lat="43.62125" lon="6.62667">
        <ele>460.8</ele>
        <time>2023-11-26T13:18:52Z</time>
      </trkpt>
      <trkpt lat="43.62125" lon="6.62667">
        <ele>460.7</ele>
        <time>2023-11-26T13:18:53Z</time>
      </trkpt>
      <trkpt lat="43.62126" lon="6.62667">
        <ele>460.7</ele>
        <time>2023-11-26T13:18:54Z</time>
      </trkpt>
      <trkpt lat="43.62127" lon="6.62667">
        <ele>460.7</ele>
        <time>2023-11-26T13:18:55Z</time>
      </trkpt>
      <trkpt lat="43.62128" lon="6.62666">
        <ele>460.6</ele>
        <time>2023-11-26T13:18:56Z</time>
      </trkpt>
      <trkpt lat="43.62129" lon="6.62666">
        <ele>460.5</ele>
        <time>2023-11-26T13:18:57Z</time>
      </trkpt>
      <trkpt lat="43.6213" lon="6.62667">
        <ele>460.5</ele>
        <time>2023-11-26T13:18:58Z</time>
      </trkpt>
      <trkpt lat="43.62131" lon="6.62667">
        <ele>460.6</ele>
        <time>2023-11-26T13:18:59Z</time>
      </trkpt>
      <trkpt lat="43.62132" lon="6.62668">
        <ele>460.5</ele>
        <time>2023-11-26T13:19:00Z</time>
      </trkpt>
      <trkpt lat="43.62133" lon="6.62669">
        <ele>460.6</ele>
        <time>2023-11-26T13:19:01Z</time>
      </trkpt>
      <trkpt lat="43.62134" lon="6.62669">
        <ele>460.6</ele>
        <time>2023-11-26T13:19:02Z</time>
      </trkpt>
      <trkpt lat="43.62136" lon="6.62669">
        <ele>460.6</ele>
        <time>2023-11-26T13:19:03Z</time>
      </trkpt>
      <trkpt lat="43.62137" lon="6.6267">
        <ele>460.6</ele>
        <time>2023-11-26T13:19:04Z</time>
      </trkpt>
      <trkpt lat="43.62138" lon="6.62671">
        <ele>460.5</ele>
        <time>2023-11-26T13:19:05Z</time>
      </trkpt>
      <trkpt lat="43.62139" lon="6.62671">
        <ele>460.5</ele>
        <time>2023-11-26T13:19:06Z</time>
      </trkpt>
      <trkpt lat="43.62139" lon="6.62671">
        <ele>460.6</ele>
        <time>2023-11-26T13:19:07Z</time>
      </trkpt>
      <trkpt lat="43.6214" lon="6.6267">
        <ele>460.6</ele>
        <time>2023-11-26T13:19:08Z</time>
      </trkpt>
      <trkpt lat="43.62141" lon="6.6267">
        <ele>460.7</ele>
        <time>2023-11-26T13:19:09Z</time>
      </trkpt>
      <trkpt lat="43.62142" lon="6.62671">
        <ele>460.7</ele>
        <time>2023-11-26T13:19:10Z</time>
      </trkpt>
      <trkpt lat="43.62142" lon="6.62671">
        <ele>460.8</ele>
        <time>2023-11-26T13:19:11Z</time>
      </trkpt>
      <trkpt lat="43.62143" lon="6.62672">
        <ele>460.8</ele>
        <time>2023-11-26T13:19:12Z</time>
      </trkpt>
      <trkpt lat="43.62145" lon="6.62672">
        <ele>460.9</ele>
        <time>2023-11-26T13:19:13Z</time>
      </trkpt>
      <trkpt lat="43.62146" lon="6.62672">
        <ele>461</ele>
        <time>2023-11-26T13:19:14Z</time>
      </trkpt>
      <trkpt lat="43.62148" lon="6.62673">
        <ele>461</ele>
        <time>2023-11-26T13:19:15Z</time>
      </trkpt>
      <trkpt lat="43.62149" lon="6.62673">
        <ele>461</ele>
        <time>2023-11-26T13:19:16Z</time>
      </trkpt>
      <trkpt lat="43.6215" lon="6.62673">
        <ele>460.9</ele>
        <time>2023-11-26T13:19:17Z</time>
      </trkpt>
      <trkpt lat="43.62151" lon="6.62673">
        <ele>460.9</ele>
        <time>2023-11-26T13:19:18Z</time>
      </trkpt>
      <trkpt lat="43.62152" lon="6.62673">
        <ele>461</ele>
        <time>2023-11-26T13:19:19Z</time>
      </trkpt>
      <trkpt lat="43.62153" lon="6.62674">
        <ele>461</ele>
        <time>2023-11-26T13:19:20Z</time>
      </trkpt>
      <trkpt lat="43.62154" lon="6.62674">
        <ele>461</ele>
        <time>2023-11-26T13:19:21Z</time>
      </trkpt>
      <trkpt lat="43.62155" lon="6.62674">
        <ele>461</ele>
        <time>2023-11-26T13:19:22Z</time>
      </trkpt>
      <trkpt lat="43.62156" lon="6.62674">
        <ele>461.1</ele>
        <time>2023-11-26T13:19:23Z</time>
      </trkpt>
      <trkpt lat="43.62157" lon="6.62673">
        <ele>461.1</ele>
        <time>2023-11-26T13:19:24Z</time>
      </trkpt>
      <trkpt lat="43.62158" lon="6.62673">
        <ele>461</ele>
        <time>2023-11-26T13:19:25Z</time>
      </trkpt>
      <trkpt lat="43.62159" lon="6.62673">
        <ele>461</ele>
        <time>2023-11-26T13:19:26Z</time>
      </trkpt>
      <trkpt lat="43.6216" lon="6.62673">
        <ele>461.1</ele>
        <time>2023-11-26T13:19:27Z</time>
      </trkpt>
      <trkpt lat="43.6216" lon="6.62673">
        <ele>461.2</ele>
        <time>2023-11-26T13:19:28Z</time>
      </trkpt>
      <trkpt lat="43.62162" lon="6.62674">
        <ele>461.3</ele>
        <time>2023-11-26T13:19:29Z</time>
      </trkpt>
      <trkpt lat="43.62163" lon="6.62675">
        <ele>461.4</ele>
        <time>2023-11-26T13:19:30Z</time>
      </trkpt>
      <trkpt lat="43.62165" lon="6.62675">
        <ele>461.5</ele>
        <time>2023-11-26T13:19:31Z</time>
      </trkpt>
      <trkpt lat="43.62166" lon="6.62676">
        <ele>461.7</ele>
        <time>2023-11-26T13:19:32Z</time>
      </trkpt>
      <trkpt lat="43.62167" lon="6.62676">
        <ele>461.8</ele>
        <time>2023-11-26T13:19:33Z</time>
      </trkpt>
      <trkpt lat="43.62168" lon="6.62676">
        <ele>461.8</ele>
        <time>2023-11-26T13:19:34Z</time>
      </trkpt>
      <trkpt lat="43.6217" lon="6.62676">
        <ele>461.9</ele>
        <time>2023-11-26T13:19:35Z</time>
      </trkpt>
      <trkpt lat="43.62171" lon="6.62676">
        <ele>461.9</ele>
        <time>2023-11-26T13:19:36Z</time>
      </trkpt>
      <trkpt lat="43.62172" lon="6.62677">
        <ele>461.9</ele>
        <time>2023-11-26T13:19:37Z</time>
      </trkpt>
      <trkpt lat="43.62173" lon="6.62677">
        <ele>461.9</ele>
        <time>2023-11-26T13:19:38Z</time>
      </trkpt>
      <trkpt lat="43.62174" lon="6.62678">
        <ele>462</ele>
        <time>2023-11-26T13:19:39Z</time>
      </trkpt>
      <trkpt lat="43.62175" lon="6.62678">
        <ele>462</ele>
        <time>2023-11-26T13:19:40Z</time>
      </trkpt>
      <trkpt lat="43.62176" lon="6.62677">
        <ele>462.2</ele>
        <time>2023-11-26T13:19:41Z</time>
      </trkpt>
      <trkpt lat="43.62177" lon="6.62676">
        <ele>462.3</ele>
        <time>2023-11-26T13:19:42Z</time>
      </trkpt>
      <trkpt lat="43.62178" lon="6.62677">
        <ele>462.4</ele>
        <time>2023-11-26T13:19:43Z</time>
      </trkpt>
      <trkpt lat="43.6218" lon="6.62677">
        <ele>462.4</ele>
        <time>2023-11-26T13:19:44Z</time>
      </trkpt>
      <trkpt lat="43.62181" lon="6.62677">
        <ele>462.5</ele>
        <time>2023-11-26T13:19:45Z</time>
      </trkpt>
      <trkpt lat="43.62181" lon="6.62677">
        <ele>462.5</ele>
        <time>2023-11-26T13:19:46Z</time>
      </trkpt>
      <trkpt lat="43.62182" lon="6.62677">
        <ele>462.5</ele>
        <time>2023-11-26T13:19:47Z</time>
      </trkpt>
      <trkpt lat="43.62183" lon="6.62676">
        <ele>462.5</ele>
        <time>2023-11-26T13:19:48Z</time>
      </trkpt>
      <trkpt lat="43.62185" lon="6.62677">
        <ele>462.5</ele>
        <time>2023-11-26T13:19:49Z</time>
      </trkpt>
      <trkpt lat="43.62186" lon="6.62677">
        <ele>462.6</ele>
        <time>2023-11-26T13:19:50Z</time>
      </trkpt>
      <trkpt lat="43.62187" lon="6.62678">
        <ele>462.6</ele>
        <time>2023-11-26T13:19:51Z</time>
      </trkpt>
      <trkpt lat="43.62187" lon="6.62678">
        <ele>462.7</ele>
        <time>2023-11-26T13:19:52Z</time>
      </trkpt>
      <trkpt lat="43.62188" lon="6.62678">
        <ele>462.6</ele>
        <time>2023-11-26T13:19:53Z</time>
      </trkpt>
      <trkpt lat="43.62189" lon="6.62676">
        <ele>462.6</ele>
        <time>2023-11-26T13:19:54Z</time>
      </trkpt>
      <trkpt lat="43.6219" lon="6.62676">
        <ele>462.6</ele>
        <time>2023-11-26T13:19:55Z</time>
      </trkpt>
      <trkpt lat="43.62191" lon="6.62677">
        <ele>462.7</ele>
        <time>2023-11-26T13:19:56Z</time>
      </trkpt>
      <trkpt lat="43.62192" lon="6.62676">
        <ele>462.7</ele>
        <time>2023-11-26T13:19:57Z</time>
      </trkpt>
      <trkpt lat="43.62194" lon="6.62675">
        <ele>462.7</ele>
        <time>2023-11-26T13:19:58Z</time>
      </trkpt>
      <trkpt lat="43.62195" lon="6.62675">
        <ele>462.6</ele>
        <time>2023-11-26T13:19:59Z</time>
      </trkpt>
      <trkpt lat="43.62196" lon="6.62674">
        <ele>462.7</ele>
        <time>2023-11-26T13:20:00Z</time>
      </trkpt>
      <trkpt lat="43.62197" lon="6.62674">
        <ele>462.6</ele>
        <time>2023-11-26T13:20:01Z</time>
      </trkpt>
      <trkpt lat="43.62198" lon="6.62674">
        <ele>462.5</ele>
        <time>2023-11-26T13:20:02Z</time>
      </trkpt>
      <trkpt lat="43.62199" lon="6.62674">
        <ele>462.4</ele>
        <time>2023-11-26T13:20:03Z</time>
      </trkpt>
      <trkpt lat="43.622" lon="6.62673">
        <ele>462.3</ele>
        <time>2023-11-26T13:20:04Z</time>
      </trkpt>
      <trkpt lat="43.62201" lon="6.62673">
        <ele>462.2</ele>
        <time>2023-11-26T13:20:05Z</time>
      </trkpt>
      <trkpt lat="43.62202" lon="6.62673">
        <ele>462.2</ele>
        <time>2023-11-26T13:20:06Z</time>
      </trkpt>
      <trkpt lat="43.62203" lon="6.62674">
        <ele>462.2</ele>
        <time>2023-11-26T13:20:07Z</time>
      </trkpt>
      <trkpt lat="43.62204" lon="6.62674">
        <ele>462.1</ele>
        <time>2023-11-26T13:20:08Z</time>
      </trkpt>
      <trkpt lat="43.62205" lon="6.62674">
        <ele>462</ele>
        <time>2023-11-26T13:20:09Z</time>
      </trkpt>
      <trkpt lat="43.62206" lon="6.62674">
        <ele>461.9</ele>
        <time>2023-11-26T13:20:10Z</time>
      </trkpt>
      <trkpt lat="43.62208" lon="6.62674">
        <ele>461.9</ele>
        <time>2023-11-26T13:20:11Z</time>
      </trkpt>
      <trkpt lat="43.62209" lon="6.62674">
        <ele>461.9</ele>
        <time>2023-11-26T13:20:12Z</time>
      </trkpt>
      <trkpt lat="43.6221" lon="6.62674">
        <ele>461.9</ele>
        <time>2023-11-26T13:20:13Z</time>
      </trkpt>
      <trkpt lat="43.62211" lon="6.62674">
        <ele>461.9</ele>
        <time>2023-11-26T13:20:14Z</time>
      </trkpt>
      <trkpt lat="43.62212" lon="6.62674">
        <ele>461.7</ele>
        <time>2023-11-26T13:20:15Z</time>
      </trkpt>
      <trkpt lat="43.62213" lon="6.62674">
        <ele>461.7</ele>
        <time>2023-11-26T13:20:16Z</time>
      </trkpt>
      <trkpt lat="43.62214" lon="6.62675">
        <ele>461.6</ele>
        <time>2023-11-26T13:20:17Z</time>
      </trkpt>
      <trkpt lat="43.62215" lon="6.62676">
        <ele>461.5</ele>
        <time>2023-11-26T13:20:18Z</time>
      </trkpt>
      <trkpt lat="43.62216" lon="6.62676">
        <ele>461.4</ele>
        <time>2023-11-26T13:20:19Z</time>
      </trkpt>
      <trkpt lat="43.62217" lon="6.62676">
        <ele>461.3</ele>
        <time>2023-11-26T13:20:20Z</time>
      </trkpt>
      <trkpt lat="43.62218" lon="6.62676">
        <ele>461.3</ele>
        <time>2023-11-26T13:20:21Z</time>
      </trkpt>
      <trkpt lat="43.62219" lon="6.62675">
        <ele>461.2</ele>
        <time>2023-11-26T13:20:22Z</time>
      </trkpt>
      <trkpt lat="43.6222" lon="6.62676">
        <ele>461.2</ele>
        <time>2023-11-26T13:20:23Z</time>
      </trkpt>
      <trkpt lat="43.62221" lon="6.62675">
        <ele>461.1</ele>
        <time>2023-11-26T13:20:24Z</time>
      </trkpt>
      <trkpt lat="43.62222" lon="6.62675">
        <ele>461</ele>
        <time>2023-11-26T13:20:25Z</time>
      </trkpt>
      <trkpt lat="43.62222" lon="6.62675">
        <ele>460.9</ele>
        <time>2023-11-26T13:20:26Z</time>
      </trkpt>
      <trkpt lat="43.62223" lon="6.62675">
        <ele>460.7</ele>
        <time>2023-11-26T13:20:27Z</time>
      </trkpt>
      <trkpt lat="43.62224" lon="6.62675">
        <ele>460.6</ele>
        <time>2023-11-26T13:20:28Z</time>
      </trkpt>
      <trkpt lat="43.62225" lon="6.62675">
        <ele>460.4</ele>
        <time>2023-11-26T13:20:29Z</time>
      </trkpt>
      <trkpt lat="43.62225" lon="6.62674">
        <ele>460.2</ele>
        <time>2023-11-26T13:20:30Z</time>
      </trkpt>
      <trkpt lat="43.62226" lon="6.62674">
        <ele>460</ele>
        <time>2023-11-26T13:20:31Z</time>
      </trkpt>
      <trkpt lat="43.62227" lon="6.62672">
        <ele>459.9</ele>
        <time>2023-11-26T13:20:32Z</time>
      </trkpt>
      <trkpt lat="43.62228" lon="6.62669">
        <ele>459.7</ele>
        <time>2023-11-26T13:20:33Z</time>
      </trkpt>
      <trkpt lat="43.62229" lon="6.62667">
        <ele>459.6</ele>
        <time>2023-11-26T13:20:34Z</time>
      </trkpt>
      <trkpt lat="43.62229" lon="6.62666">
        <ele>459.4</ele>
        <time>2023-11-26T13:20:35Z</time>
      </trkpt>
      <trkpt lat="43.6223" lon="6.62665">
        <ele>459.3</ele>
        <time>2023-11-26T13:20:36Z</time>
      </trkpt>
      <trkpt lat="43.6223" lon="6.62664">
        <ele>459.2</ele>
        <time>2023-11-26T13:20:37Z</time>
      </trkpt>
      <trkpt lat="43.62231" lon="6.62663">
        <ele>459.1</ele>
        <time>2023-11-26T13:20:38Z</time>
      </trkpt>
      <trkpt lat="43.62232" lon="6.62662">
        <ele>459</ele>
        <time>2023-11-26T13:20:39Z</time>
      </trkpt>
      <trkpt lat="43.62233" lon="6.6266">
        <ele>458.9</ele>
        <time>2023-11-26T13:20:40Z</time>
      </trkpt>
      <trkpt lat="43.62233" lon="6.62659">
        <ele>458.9</ele>
        <time>2023-11-26T13:20:41Z</time>
      </trkpt>
      <trkpt lat="43.62234" lon="6.62658">
        <ele>458.7</ele>
        <time>2023-11-26T13:20:42Z</time>
      </trkpt>
      <trkpt lat="43.62235" lon="6.62657">
        <ele>458.5</ele>
        <time>2023-11-26T13:20:43Z</time>
      </trkpt>
      <trkpt lat="43.62235" lon="6.62655">
        <ele>458.4</ele>
        <time>2023-11-26T13:20:44Z</time>
      </trkpt>
      <trkpt lat="43.62236" lon="6.62654">
        <ele>458.3</ele>
        <time>2023-11-26T13:20:45Z</time>
      </trkpt>
      <trkpt lat="43.62236" lon="6.62653">
        <ele>458.2</ele>
        <time>2023-11-26T13:20:46Z</time>
      </trkpt>
      <trkpt lat="43.62236" lon="6.62651">
        <ele>458.1</ele>
        <time>2023-11-26T13:20:47Z</time>
      </trkpt>
      <trkpt lat="43.62236" lon="6.6265">
        <ele>457.9</ele>
        <time>2023-11-26T13:20:48Z</time>
      </trkpt>
      <trkpt lat="43.62236" lon="6.62649">
        <ele>457.9</ele>
        <time>2023-11-26T13:20:49Z</time>
      </trkpt>
      <trkpt lat="43.62236" lon="6.62647">
        <ele>457.8</ele>
        <time>2023-11-26T13:20:50Z</time>
      </trkpt>
      <trkpt lat="43.62237" lon="6.62646">
        <ele>457.7</ele>
        <time>2023-11-26T13:20:51Z</time>
      </trkpt>
      <trkpt lat="43.62237" lon="6.62645">
        <ele>457.5</ele>
        <time>2023-11-26T13:20:52Z</time>
      </trkpt>
      <trkpt lat="43.62237" lon="6.62644">
        <ele>457.4</ele>
        <time>2023-11-26T13:20:53Z</time>
      </trkpt>
      <trkpt lat="43.62237" lon="6.62643">
        <ele>457.3</ele>
        <time>2023-11-26T13:20:54Z</time>
      </trkpt>
      <trkpt lat="43.62237" lon="6.62642">
        <ele>457.3</ele>
        <time>2023-11-26T13:20:55Z</time>
      </trkpt>
      <trkpt lat="43.62238" lon="6.62641">
        <ele>457.2</ele>
        <time>2023-11-26T13:20:56Z</time>
      </trkpt>
      <trkpt lat="43.62238" lon="6.62639">
        <ele>457.1</ele>
        <time>2023-11-26T13:20:57Z</time>
      </trkpt>
      <trkpt lat="43.62238" lon="6.62638">
        <ele>456.9</ele>
        <time>2023-11-26T13:20:58Z</time>
      </trkpt>
      <trkpt lat="43.62238" lon="6.62637">
        <ele>456.8</ele>
        <time>2023-11-26T13:20:59Z</time>
      </trkpt>
      <trkpt lat="43.62238" lon="6.62636">
        <ele>456.7</ele>
        <time>2023-11-26T13:21:00Z</time>
      </trkpt>
      <trkpt lat="43.62239" lon="6.62636">
        <ele>456.5</ele>
        <time>2023-11-26T13:21:01Z</time>
      </trkpt>
      <trkpt lat="43.62239" lon="6.62634">
        <ele>456.4</ele>
        <time>2023-11-26T13:21:02Z</time>
      </trkpt>
      <trkpt lat="43.62239" lon="6.62634">
        <ele>456.2</ele>
        <time>2023-11-26T13:21:03Z</time>
      </trkpt>
      <trkpt lat="43.62239" lon="6.62633">
        <ele>456</ele>
        <time>2023-11-26T13:21:04Z</time>
      </trkpt>
      <trkpt lat="43.62239" lon="6.62632">
        <ele>455.9</ele>
        <time>2023-11-26T13:21:05Z</time>
      </trkpt>
      <trkpt lat="43.62239" lon="6.62631">
        <ele>455.8</ele>
        <time>2023-11-26T13:21:06Z</time>
      </trkpt>
      <trkpt lat="43.6224" lon="6.62629">
        <ele>455.6</ele>
        <time>2023-11-26T13:21:07Z</time>
      </trkpt>
      <trkpt lat="43.6224" lon="6.62628">
        <ele>455.4</ele>
        <time>2023-11-26T13:21:08Z</time>
      </trkpt>
      <trkpt lat="43.62241" lon="6.62627">
        <ele>455.3</ele>
        <time>2023-11-26T13:21:09Z</time>
      </trkpt>
      <trkpt lat="43.62241" lon="6.62626">
        <ele>455.1</ele>
        <time>2023-11-26T13:21:10Z</time>
      </trkpt>
      <trkpt lat="43.62242" lon="6.62625">
        <ele>455</ele>
        <time>2023-11-26T13:21:11Z</time>
      </trkpt>
      <trkpt lat="43.62242" lon="6.62624">
        <ele>454.9</ele>
        <time>2023-11-26T13:21:12Z</time>
      </trkpt>
      <trkpt lat="43.62242" lon="6.62623">
        <ele>454.8</ele>
        <time>2023-11-26T13:21:13Z</time>
      </trkpt>
      <trkpt lat="43.62242" lon="6.62622">
        <ele>454.7</ele>
        <time>2023-11-26T13:21:14Z</time>
      </trkpt>
      <trkpt lat="43.62242" lon="6.62621">
        <ele>454.6</ele>
        <time>2023-11-26T13:21:15Z</time>
      </trkpt>
      <trkpt lat="43.62242" lon="6.6262">
        <ele>454.4</ele>
        <time>2023-11-26T13:21:16Z</time>
      </trkpt>
      <trkpt lat="43.62242" lon="6.62619">
        <ele>454.2</ele>
        <time>2023-11-26T13:21:17Z</time>
      </trkpt>
      <trkpt lat="43.62242" lon="6.62618">
        <ele>454</ele>
        <time>2023-11-26T13:21:18Z</time>
      </trkpt>
      <trkpt lat="43.62242" lon="6.62617">
        <ele>453.9</ele>
        <time>2023-11-26T13:21:19Z</time>
      </trkpt>
      <trkpt lat="43.62242" lon="6.62616">
        <ele>453.6</ele>
        <time>2023-11-26T13:21:20Z</time>
      </trkpt>
      <trkpt lat="43.62243" lon="6.62615">
        <ele>453.4</ele>
        <time>2023-11-26T13:21:21Z</time>
      </trkpt>
      <trkpt lat="43.62243" lon="6.62614">
        <ele>453.2</ele>
        <time>2023-11-26T13:21:22Z</time>
      </trkpt>
      <trkpt lat="43.62243" lon="6.62614">
        <ele>453.1</ele>
        <time>2023-11-26T13:21:23Z</time>
      </trkpt>
      <trkpt lat="43.62243" lon="6.62612">
        <ele>452.9</ele>
        <time>2023-11-26T13:21:24Z</time>
      </trkpt>
      <trkpt lat="43.62243" lon="6.62611">
        <ele>452.9</ele>
        <time>2023-11-26T13:21:25Z</time>
      </trkpt>
      <trkpt lat="43.62243" lon="6.6261">
        <ele>452.7</ele>
        <time>2023-11-26T13:21:26Z</time>
      </trkpt>
      <trkpt lat="43.62243" lon="6.62609">
        <ele>452.5</ele>
        <time>2023-11-26T13:21:27Z</time>
      </trkpt>
      <trkpt lat="43.62244" lon="6.62607">
        <ele>452.4</ele>
        <time>2023-11-26T13:21:28Z</time>
      </trkpt>
      <trkpt lat="43.62243" lon="6.62606">
        <ele>452.2</ele>
        <time>2023-11-26T13:21:29Z</time>
      </trkpt>
      <trkpt lat="43.62243" lon="6.62605">
        <ele>452</ele>
        <time>2023-11-26T13:21:30Z</time>
      </trkpt>
      <trkpt lat="43.62243" lon="6.62604">
        <ele>451.8</ele>
        <time>2023-11-26T13:21:31Z</time>
      </trkpt>
      <trkpt lat="43.62244" lon="6.62603">
        <ele>451.7</ele>
        <time>2023-11-26T13:21:32Z</time>
      </trkpt>
      <trkpt lat="43.62244" lon="6.62602">
        <ele>451.5</ele>
        <time>2023-11-26T13:21:33Z</time>
      </trkpt>
      <trkpt lat="43.62244" lon="6.62601">
        <ele>451.4</ele>
        <time>2023-11-26T13:21:34Z</time>
      </trkpt>
      <trkpt lat="43.62245" lon="6.62599">
        <ele>451.2</ele>
        <time>2023-11-26T13:21:35Z</time>
      </trkpt>
      <trkpt lat="43.62245" lon="6.62599">
        <ele>451</ele>
        <time>2023-11-26T13:21:36Z</time>
      </trkpt>
      <trkpt lat="43.62245" lon="6.62597">
        <ele>450.8</ele>
        <time>2023-11-26T13:21:37Z</time>
      </trkpt>
      <trkpt lat="43.62245" lon="6.62596">
        <ele>450.7</ele>
        <time>2023-11-26T13:21:38Z</time>
      </trkpt>
      <trkpt lat="43.62244" lon="6.62596">
        <ele>450.5</ele>
        <time>2023-11-26T13:21:39Z</time>
      </trkpt>
      <trkpt lat="43.62244" lon="6.62595">
        <ele>450.3</ele>
        <time>2023-11-26T13:21:40Z</time>
      </trkpt>
      <trkpt lat="43.62245" lon="6.62594">
        <ele>450.1</ele>
        <time>2023-11-26T13:21:41Z</time>
      </trkpt>
      <trkpt lat="43.62245" lon="6.62593">
        <ele>449.9</ele>
        <time>2023-11-26T13:21:42Z</time>
      </trkpt>
      <trkpt lat="43.62245" lon="6.62592">
        <ele>449.8</ele>
        <time>2023-11-26T13:21:43Z</time>
      </trkpt>
      <trkpt lat="43.62245" lon="6.6259">
        <ele>449.6</ele>
        <time>2023-11-26T13:21:44Z</time>
      </trkpt>
      <trkpt lat="43.62245" lon="6.62589">
        <ele>449.3</ele>
        <time>2023-11-26T13:21:45Z</time>
      </trkpt>
      <trkpt lat="43.62246" lon="6.62588">
        <ele>449.1</ele>
        <time>2023-11-26T13:21:46Z</time>
      </trkpt>
      <trkpt lat="43.62246" lon="6.62586">
        <ele>448.9</ele>
        <time>2023-11-26T13:21:47Z</time>
      </trkpt>
      <trkpt lat="43.62247" lon="6.62585">
        <ele>448.7</ele>
        <time>2023-11-26T13:21:48Z</time>
      </trkpt>
      <trkpt lat="43.62247" lon="6.62584">
        <ele>448.6</ele>
        <time>2023-11-26T13:21:49Z</time>
      </trkpt>
      <trkpt lat="43.62248" lon="6.62583">
        <ele>448.6</ele>
        <time>2023-11-26T13:21:50Z</time>
      </trkpt>
      <trkpt lat="43.62248" lon="6.62582">
        <ele>448.5</ele>
        <time>2023-11-26T13:21:51Z</time>
      </trkpt>
      <trkpt lat="43.62248" lon="6.62581">
        <ele>448.4</ele>
        <time>2023-11-26T13:21:52Z</time>
      </trkpt>
      <trkpt lat="43.62249" lon="6.6258">
        <ele>448.2</ele>
        <time>2023-11-26T13:21:53Z</time>
      </trkpt>
      <trkpt lat="43.6225" lon="6.62579">
        <ele>448.1</ele>
        <time>2023-11-26T13:21:54Z</time>
      </trkpt>
      <trkpt lat="43.6225" lon="6.62578">
        <ele>448</ele>
        <time>2023-11-26T13:21:55Z</time>
      </trkpt>
      <trkpt lat="43.62251" lon="6.62577">
        <ele>447.9</ele>
        <time>2023-11-26T13:21:56Z</time>
      </trkpt>
      <trkpt lat="43.62252" lon="6.62576">
        <ele>447.9</ele>
        <time>2023-11-26T13:21:57Z</time>
      </trkpt>
      <trkpt lat="43.62252" lon="6.62575">
        <ele>447.8</ele>
        <time>2023-11-26T13:21:58Z</time>
      </trkpt>
      <trkpt lat="43.62253" lon="6.62574">
        <ele>447.7</ele>
        <time>2023-11-26T13:21:59Z</time>
      </trkpt>
      <trkpt lat="43.62253" lon="6.62573">
        <ele>447.7</ele>
        <time>2023-11-26T13:22:00Z</time>
      </trkpt>
      <trkpt lat="43.62252" lon="6.62573">
        <ele>447.6</ele>
        <time>2023-11-26T13:22:01Z</time>
      </trkpt>
      <trkpt lat="43.62253" lon="6.62572">
        <ele>447.4</ele>
        <time>2023-11-26T13:22:02Z</time>
      </trkpt>
      <trkpt lat="43.62253" lon="6.62571">
        <ele>447.2</ele>
        <time>2023-11-26T13:22:03Z</time>
      </trkpt>
      <trkpt lat="43.62252" lon="6.6257">
        <ele>447.1</ele>
        <time>2023-11-26T13:22:04Z</time>
      </trkpt>
      <trkpt lat="43.62253" lon="6.62569">
        <ele>446.9</ele>
        <time>2023-11-26T13:22:05Z</time>
      </trkpt>
      <trkpt lat="43.62253" lon="6.62567">
        <ele>446.8</ele>
        <time>2023-11-26T13:22:06Z</time>
      </trkpt>
      <trkpt lat="43.62252" lon="6.62566">
        <ele>446.6</ele>
        <time>2023-11-26T13:22:07Z</time>
      </trkpt>
      <trkpt lat="43.62252" lon="6.62565">
        <ele>446.4</ele>
        <time>2023-11-26T13:22:08Z</time>
      </trkpt>
      <trkpt lat="43.62252" lon="6.62564">
        <ele>446.3</ele>
        <time>2023-11-26T13:22:09Z</time>
      </trkpt>
      <trkpt lat="43.62251" lon="6.62562">
        <ele>446.2</ele>
        <time>2023-11-26T13:22:10Z</time>
      </trkpt>
      <trkpt lat="43.62251" lon="6.62561">
        <ele>446.1</ele>
        <time>2023-11-26T13:22:11Z</time>
      </trkpt>
      <trkpt lat="43.6225" lon="6.6256">
        <ele>446</ele>
        <time>2023-11-26T13:22:12Z</time>
      </trkpt>
      <trkpt lat="43.6225" lon="6.6256">
        <ele>445.9</ele>
        <time>2023-11-26T13:22:13Z</time>
      </trkpt>
      <trkpt lat="43.6225" lon="6.62559">
        <ele>445.9</ele>
        <time>2023-11-26T13:22:14Z</time>
      </trkpt>
      <trkpt lat="43.62249" lon="6.62558">
        <ele>445.8</ele>
        <time>2023-11-26T13:22:15Z</time>
      </trkpt>
      <trkpt lat="43.62249" lon="6.62557">
        <ele>445.7</ele>
        <time>2023-11-26T13:22:16Z</time>
      </trkpt>
      <trkpt lat="43.62249" lon="6.62556">
        <ele>445.6</ele>
        <time>2023-11-26T13:22:17Z</time>
      </trkpt>
      <trkpt lat="43.6225" lon="6.62554">
        <ele>445.4</ele>
        <time>2023-11-26T13:22:18Z</time>
      </trkpt>
      <trkpt lat="43.62251" lon="6.62553">
        <ele>445.2</ele>
        <time>2023-11-26T13:22:19Z</time>
      </trkpt>
      <trkpt lat="43.6225" lon="6.62552">
        <ele>445.1</ele>
        <time>2023-11-26T13:22:20Z</time>
      </trkpt>
      <trkpt lat="43.62251" lon="6.6255">
        <ele>444.9</ele>
        <time>2023-11-26T13:22:21Z</time>
      </trkpt>
      <trkpt lat="43.62251" lon="6.62549">
        <ele>444.7</ele>
        <time>2023-11-26T13:22:22Z</time>
      </trkpt>
      <trkpt lat="43.62251" lon="6.62548">
        <ele>444.6</ele>
        <time>2023-11-26T13:22:23Z</time>
      </trkpt>
      <trkpt lat="43.62251" lon="6.62547">
        <ele>444.4</ele>
        <time>2023-11-26T13:22:24Z</time>
      </trkpt>
      <trkpt lat="43.6225" lon="6.62545">
        <ele>444.2</ele>
        <time>2023-11-26T13:22:25Z</time>
      </trkpt>
      <trkpt lat="43.62251" lon="6.62544">
        <ele>444.1</ele>
        <time>2023-11-26T13:22:26Z</time>
      </trkpt>
      <trkpt lat="43.62251" lon="6.62542">
        <ele>444</ele>
        <time>2023-11-26T13:22:27Z</time>
      </trkpt>
      <trkpt lat="43.6225" lon="6.62541">
        <ele>443.9</ele>
        <time>2023-11-26T13:22:28Z</time>
      </trkpt>
      <trkpt lat="43.6225" lon="6.6254">
        <ele>443.7</ele>
        <time>2023-11-26T13:22:29Z</time>
      </trkpt>
      <trkpt lat="43.6225" lon="6.62539">
        <ele>443.4</ele>
        <time>2023-11-26T13:22:30Z</time>
      </trkpt>
      <trkpt lat="43.6225" lon="6.62538">
        <ele>443.3</ele>
        <time>2023-11-26T13:22:31Z</time>
      </trkpt>
      <trkpt lat="43.6225" lon="6.62537">
        <ele>443.1</ele>
        <time>2023-11-26T13:22:32Z</time>
      </trkpt>
      <trkpt lat="43.62252" lon="6.62536">
        <ele>443</ele>
        <time>2023-11-26T13:22:33Z</time>
      </trkpt>
      <trkpt lat="43.62252" lon="6.62534">
        <ele>442.9</ele>
        <time>2023-11-26T13:22:34Z</time>
      </trkpt>
      <trkpt lat="43.62251" lon="6.62533">
        <ele>442.7</ele>
        <time>2023-11-26T13:22:35Z</time>
      </trkpt>
      <trkpt lat="43.62252" lon="6.62532">
        <ele>442.6</ele>
        <time>2023-11-26T13:22:36Z</time>
      </trkpt>
      <trkpt lat="43.62252" lon="6.62532">
        <ele>442.5</ele>
        <time>2023-11-26T13:22:37Z</time>
      </trkpt>
      <trkpt lat="43.62252" lon="6.6253">
        <ele>442.5</ele>
        <time>2023-11-26T13:22:38Z</time>
      </trkpt>
      <trkpt lat="43.62253" lon="6.6253">
        <ele>442.3</ele>
        <time>2023-11-26T13:22:39Z</time>
      </trkpt>
      <trkpt lat="43.62253" lon="6.62529">
        <ele>442.1</ele>
        <time>2023-11-26T13:22:40Z</time>
      </trkpt>
      <trkpt lat="43.62254" lon="6.62527">
        <ele>441.9</ele>
        <time>2023-11-26T13:22:41Z</time>
      </trkpt>
      <trkpt lat="43.62255" lon="6.62526">
        <ele>441.8</ele>
        <time>2023-11-26T13:22:42Z</time>
      </trkpt>
      <trkpt lat="43.62255" lon="6.62525">
        <ele>441.7</ele>
        <time>2023-11-26T13:22:43Z</time>
      </trkpt>
      <trkpt lat="43.62255" lon="6.62523">
        <ele>441.5</ele>
        <time>2023-11-26T13:22:44Z</time>
      </trkpt>
      <trkpt lat="43.62256" lon="6.62522">
        <ele>441.3</ele>
        <time>2023-11-26T13:22:45Z</time>
      </trkpt>
      <trkpt lat="43.62257" lon="6.6252">
        <ele>441.1</ele>
        <time>2023-11-26T13:22:46Z</time>
      </trkpt>
      <trkpt lat="43.62257" lon="6.62519">
        <ele>441</ele>
        <time>2023-11-26T13:22:47Z</time>
      </trkpt>
      <trkpt lat="43.62258" lon="6.62518">
        <ele>440.9</ele>
        <time>2023-11-26T13:22:48Z</time>
      </trkpt>
      <trkpt lat="43.62258" lon="6.62516">
        <ele>440.8</ele>
        <time>2023-11-26T13:22:49Z</time>
      </trkpt>
      <trkpt lat="43.62259" lon="6.62515">
        <ele>440.6</ele>
        <time>2023-11-26T13:22:50Z</time>
      </trkpt>
      <trkpt lat="43.62259" lon="6.62513">
        <ele>440.5</ele>
        <time>2023-11-26T13:22:51Z</time>
      </trkpt>
      <trkpt lat="43.62259" lon="6.62512">
        <ele>440.4</ele>
        <time>2023-11-26T13:22:52Z</time>
      </trkpt>
      <trkpt lat="43.6226" lon="6.6251">
        <ele>440.1</ele>
        <time>2023-11-26T13:22:53Z</time>
      </trkpt>
      <trkpt lat="43.6226" lon="6.62509">
        <ele>440</ele>
        <time>2023-11-26T13:22:54Z</time>
      </trkpt>
      <trkpt lat="43.6226" lon="6.62508">
        <ele>439.8</ele>
        <time>2023-11-26T13:22:55Z</time>
      </trkpt>
      <trkpt lat="43.62261" lon="6.62506">
        <ele>439.8</ele>
        <time>2023-11-26T13:22:56Z</time>
      </trkpt>
      <trkpt lat="43.62261" lon="6.62504">
        <ele>439.7</ele>
        <time>2023-11-26T13:22:57Z</time>
      </trkpt>
      <trkpt lat="43.62261" lon="6.62503">
        <ele>439.6</ele>
        <time>2023-11-26T13:22:58Z</time>
      </trkpt>
      <trkpt lat="43.62262" lon="6.62502">
        <ele>439.4</ele>
        <time>2023-11-26T13:22:59Z</time>
      </trkpt>
      <trkpt lat="43.62262" lon="6.625">
        <ele>439.3</ele>
        <time>2023-11-26T13:23:00Z</time>
      </trkpt>
      <trkpt lat="43.62262" lon="6.62499">
        <ele>439.1</ele>
        <time>2023-11-26T13:23:01Z</time>
      </trkpt>
      <trkpt lat="43.62263" lon="6.62499">
        <ele>438.9</ele>
        <time>2023-11-26T13:23:02Z</time>
      </trkpt>
      <trkpt lat="43.62263" lon="6.62497">
        <ele>438.7</ele>
        <time>2023-11-26T13:23:03Z</time>
      </trkpt>
      <trkpt lat="43.62264" lon="6.62495">
        <ele>438.6</ele>
        <time>2023-11-26T13:23:04Z</time>
      </trkpt>
      <trkpt lat="43.62265" lon="6.62494">
        <ele>438.4</ele>
        <time>2023-11-26T13:23:05Z</time>
      </trkpt>
      <trkpt lat="43.62264" lon="6.62493">
        <ele>438.3</ele>
        <time>2023-11-26T13:23:06Z</time>
      </trkpt>
      <trkpt lat="43.62265" lon="6.62492">
        <ele>438.2</ele>
        <time>2023-11-26T13:23:07Z</time>
      </trkpt>
      <trkpt lat="43.62265" lon="6.62491">
        <ele>438</ele>
        <time>2023-11-26T13:23:08Z</time>
      </trkpt>
      <trkpt lat="43.62265" lon="6.6249">
        <ele>437.8</ele>
        <time>2023-11-26T13:23:09Z</time>
      </trkpt>
      <trkpt lat="43.62265" lon="6.62489">
        <ele>437.7</ele>
        <time>2023-11-26T13:23:10Z</time>
      </trkpt>
      <trkpt lat="43.62266" lon="6.62489">
        <ele>437.5</ele>
        <time>2023-11-26T13:23:11Z</time>
      </trkpt>
      <trkpt lat="43.62266" lon="6.62488">
        <ele>437.5</ele>
        <time>2023-11-26T13:23:12Z</time>
      </trkpt>
      <trkpt lat="43.62267" lon="6.62488">
        <ele>437.3</ele>
        <time>2023-11-26T13:23:13Z</time>
      </trkpt>
      <trkpt lat="43.62267" lon="6.62487">
        <ele>437.1</ele>
        <time>2023-11-26T13:23:14Z</time>
      </trkpt>
      <trkpt lat="43.62268" lon="6.62487">
        <ele>437</ele>
        <time>2023-11-26T13:23:15Z</time>
      </trkpt>
      <trkpt lat="43.62268" lon="6.62486">
        <ele>436.8</ele>
        <time>2023-11-26T13:23:16Z</time>
      </trkpt>
      <trkpt lat="43.62267" lon="6.62485">
        <ele>436.6</ele>
        <time>2023-11-26T13:23:17Z</time>
      </trkpt>
      <trkpt lat="43.62268" lon="6.62484">
        <ele>436.5</ele>
        <time>2023-11-26T13:23:18Z</time>
      </trkpt>
      <trkpt lat="43.62268" lon="6.62483">
        <ele>436.4</ele>
        <time>2023-11-26T13:23:19Z</time>
      </trkpt>
      <trkpt lat="43.62268" lon="6.62482">
        <ele>436.2</ele>
        <time>2023-11-26T13:23:20Z</time>
      </trkpt>
      <trkpt lat="43.62268" lon="6.62481">
        <ele>435.9</ele>
        <time>2023-11-26T13:23:21Z</time>
      </trkpt>
      <trkpt lat="43.62268" lon="6.6248">
        <ele>435.6</ele>
        <time>2023-11-26T13:23:22Z</time>
      </trkpt>
      <trkpt lat="43.62268" lon="6.62478">
        <ele>435.3</ele>
        <time>2023-11-26T13:23:23Z</time>
      </trkpt>
      <trkpt lat="43.62269" lon="6.62477">
        <ele>435.1</ele>
        <time>2023-11-26T13:23:24Z</time>
      </trkpt>
      <trkpt lat="43.62269" lon="6.62476">
        <ele>434.9</ele>
        <time>2023-11-26T13:23:25Z</time>
      </trkpt>
      <trkpt lat="43.6227" lon="6.62475">
        <ele>434.7</ele>
        <time>2023-11-26T13:23:26Z</time>
      </trkpt>
      <trkpt lat="43.62268" lon="6.62473">
        <ele>434.5</ele>
        <time>2023-11-26T13:23:27Z</time>
      </trkpt>
      <trkpt lat="43.62268" lon="6.62472">
        <ele>434.4</ele>
        <time>2023-11-26T13:23:28Z</time>
      </trkpt>
      <trkpt lat="43.62267" lon="6.62471">
        <ele>434.3</ele>
        <time>2023-11-26T13:23:29Z</time>
      </trkpt>
      <trkpt lat="43.62267" lon="6.6247">
        <ele>434.3</ele>
        <time>2023-11-26T13:23:30Z</time>
      </trkpt>
      <trkpt lat="43.62267" lon="6.6247">
        <ele>434.1</ele>
        <time>2023-11-26T13:23:31Z</time>
      </trkpt>
      <trkpt lat="43.62269" lon="6.62469">
        <ele>434</ele>
        <time>2023-11-26T13:23:32Z</time>
      </trkpt>
      <trkpt lat="43.62268" lon="6.62468">
        <ele>434</ele>
        <time>2023-11-26T13:23:33Z</time>
      </trkpt>
      <trkpt lat="43.62268" lon="6.62467">
        <ele>433.9</ele>
        <time>2023-11-26T13:23:34Z</time>
      </trkpt>
      <trkpt lat="43.62268" lon="6.62466">
        <ele>433.7</ele>
        <time>2023-11-26T13:23:35Z</time>
      </trkpt>
      <trkpt lat="43.62268" lon="6.62464">
        <ele>433.6</ele>
        <time>2023-11-26T13:23:36Z</time>
      </trkpt>
      <trkpt lat="43.62268" lon="6.62463">
        <ele>433.4</ele>
        <time>2023-11-26T13:23:37Z</time>
      </trkpt>
      <trkpt lat="43.62268" lon="6.62461">
        <ele>433.3</ele>
        <time>2023-11-26T13:23:38Z</time>
      </trkpt>
      <trkpt lat="43.62267" lon="6.62461">
        <ele>433.1</ele>
        <time>2023-11-26T13:23:39Z</time>
      </trkpt>
      <trkpt lat="43.62266" lon="6.62459">
        <ele>432.9</ele>
        <time>2023-11-26T13:23:40Z</time>
      </trkpt>
      <trkpt lat="43.62266" lon="6.62458">
        <ele>432.7</ele>
        <time>2023-11-26T13:23:41Z</time>
      </trkpt>
      <trkpt lat="43.62265" lon="6.62457">
        <ele>432.6</ele>
        <time>2023-11-26T13:23:42Z</time>
      </trkpt>
      <trkpt lat="43.62265" lon="6.62456">
        <ele>432.5</ele>
        <time>2023-11-26T13:23:43Z</time>
      </trkpt>
      <trkpt lat="43.62265" lon="6.62455">
        <ele>432.3</ele>
        <time>2023-11-26T13:23:44Z</time>
      </trkpt>
      <trkpt lat="43.62265" lon="6.62454">
        <ele>432.1</ele>
        <time>2023-11-26T13:23:45Z</time>
      </trkpt>
      <trkpt lat="43.62266" lon="6.62453">
        <ele>431.9</ele>
        <time>2023-11-26T13:23:46Z</time>
      </trkpt>
      <trkpt lat="43.62265" lon="6.62452">
        <ele>431.8</ele>
        <time>2023-11-26T13:23:47Z</time>
      </trkpt>
      <trkpt lat="43.62265" lon="6.62452">
        <ele>431.6</ele>
        <time>2023-11-26T13:23:48Z</time>
      </trkpt>
      <trkpt lat="43.62265" lon="6.62451">
        <ele>431.5</ele>
        <time>2023-11-26T13:23:49Z</time>
      </trkpt>
      <trkpt lat="43.62264" lon="6.62451">
        <ele>431.3</ele>
        <time>2023-11-26T13:23:50Z</time>
      </trkpt>
      <trkpt lat="43.62265" lon="6.6245">
        <ele>431.1</ele>
        <time>2023-11-26T13:23:51Z</time>
      </trkpt>
      <trkpt lat="43.62265" lon="6.62449">
        <ele>430.9</ele>
        <time>2023-11-26T13:23:52Z</time>
      </trkpt>
      <trkpt lat="43.62266" lon="6.62449">
        <ele>430.7</ele>
        <time>2023-11-26T13:23:53Z</time>
      </trkpt>
      <trkpt lat="43.62267" lon="6.62448">
        <ele>430.5</ele>
        <time>2023-11-26T13:23:54Z</time>
      </trkpt>
      <trkpt lat="43.62267" lon="6.62448">
        <ele>430.4</ele>
        <time>2023-11-26T13:23:55Z</time>
      </trkpt>
      <trkpt lat="43.62267" lon="6.62447">
        <ele>430.2</ele>
        <time>2023-11-26T13:23:56Z</time>
      </trkpt>
      <trkpt lat="43.62267" lon="6.62446">
        <ele>430</ele>
        <time>2023-11-26T13:23:57Z</time>
      </trkpt>
      <trkpt lat="43.62266" lon="6.62445">
        <ele>429.8</ele>
        <time>2023-11-26T13:23:58Z</time>
      </trkpt>
      <trkpt lat="43.62266" lon="6.62445">
        <ele>429.6</ele>
        <time>2023-11-26T13:23:59Z</time>
      </trkpt>
      <trkpt lat="43.62266" lon="6.62444">
        <ele>429.4</ele>
        <time>2023-11-26T13:24:00Z</time>
      </trkpt>
      <trkpt lat="43.62266" lon="6.62443">
        <ele>429.2</ele>
        <time>2023-11-26T13:24:01Z</time>
      </trkpt>
      <trkpt lat="43.62265" lon="6.62443">
        <ele>429</ele>
        <time>2023-11-26T13:24:02Z</time>
      </trkpt>
      <trkpt lat="43.62265" lon="6.62442">
        <ele>428.8</ele>
        <time>2023-11-26T13:24:03Z</time>
      </trkpt>
      <trkpt lat="43.62265" lon="6.62442">
        <ele>428.7</ele>
        <time>2023-11-26T13:24:04Z</time>
      </trkpt>
      <trkpt lat="43.62265" lon="6.62441">
        <ele>428.5</ele>
        <time>2023-11-26T13:24:05Z</time>
      </trkpt>
      <trkpt lat="43.62264" lon="6.62441">
        <ele>428.3</ele>
        <time>2023-11-26T13:24:06Z</time>
      </trkpt>
      <trkpt lat="43.62263" lon="6.62441">
        <ele>428.1</ele>
        <time>2023-11-26T13:24:07Z</time>
      </trkpt>
      <trkpt lat="43.62264" lon="6.6244">
        <ele>428</ele>
        <time>2023-11-26T13:24:08Z</time>
      </trkpt>
      <trkpt lat="43.62264" lon="6.6244">
        <ele>427.8</ele>
        <time>2023-11-26T13:24:09Z</time>
      </trkpt>
      <trkpt lat="43.62264" lon="6.6244">
        <ele>427.7</ele>
        <time>2023-11-26T13:24:10Z</time>
      </trkpt>
      <trkpt lat="43.62264" lon="6.62439">
        <ele>427.5</ele>
        <time>2023-11-26T13:24:11Z</time>
      </trkpt>
      <trkpt lat="43.62264" lon="6.62439">
        <ele>427.3</ele>
        <time>2023-11-26T13:24:12Z</time>
      </trkpt>
      <trkpt lat="43.62265" lon="6.62438">
        <ele>427.1</ele>
        <time>2023-11-26T13:24:13Z</time>
      </trkpt>
      <trkpt lat="43.62266" lon="6.62438">
        <ele>426.9</ele>
        <time>2023-11-26T13:24:14Z</time>
      </trkpt>
      <trkpt lat="43.62266" lon="6.62438">
        <ele>426.7</ele>
        <time>2023-11-26T13:24:15Z</time>
      </trkpt>
      <trkpt lat="43.62267" lon="6.62438">
        <ele>426.5</ele>
        <time>2023-11-26T13:24:16Z</time>
      </trkpt>
      <trkpt lat="43.62268" lon="6.62438">
        <ele>426.3</ele>
        <time>2023-11-26T13:24:17Z</time>
      </trkpt>
      <trkpt lat="43.62268" lon="6.62438">
        <ele>426.2</ele>
        <time>2023-11-26T13:24:18Z</time>
      </trkpt>
      <trkpt lat="43.62269" lon="6.62439">
        <ele>425.9</ele>
        <time>2023-11-26T13:24:19Z</time>
      </trkpt>
      <trkpt lat="43.62269" lon="6.62439">
        <ele>425.7</ele>
        <time>2023-11-26T13:24:20Z</time>
      </trkpt>
      <trkpt lat="43.62268" lon="6.62439">
        <ele>425.4</ele>
        <time>2023-11-26T13:24:21Z</time>
      </trkpt>
      <trkpt lat="43.62268" lon="6.62439">
        <ele>425.2</ele>
        <time>2023-11-26T13:24:22Z</time>
      </trkpt>
      <trkpt lat="43.62268" lon="6.6244">
        <ele>425</ele>
        <time>2023-11-26T13:24:23Z</time>
      </trkpt>
      <trkpt lat="43.62268" lon="6.6244">
        <ele>424.9</ele>
        <time>2023-11-26T13:24:24Z</time>
      </trkpt>
      <trkpt lat="43.62269" lon="6.6244">
        <ele>424.7</ele>
        <time>2023-11-26T13:24:25Z</time>
      </trkpt>
      <trkpt lat="43.62269" lon="6.62441">
        <ele>424.6</ele>
        <time>2023-11-26T13:24:26Z</time>
      </trkpt>
      <trkpt lat="43.62269" lon="6.62441">
        <ele>424.4</ele>
        <time>2023-11-26T13:24:27Z</time>
      </trkpt>
      <trkpt lat="43.62269" lon="6.62442">
        <ele>424.2</ele>
        <time>2023-11-26T13:24:28Z</time>
      </trkpt>
      <trkpt lat="43.62269" lon="6.62443">
        <ele>424.1</ele>
        <time>2023-11-26T13:24:29Z</time>
      </trkpt>
      <trkpt lat="43.62269" lon="6.62444">
        <ele>424</ele>
        <time>2023-11-26T13:24:30Z</time>
      </trkpt>
      <trkpt lat="43.62269" lon="6.62444">
        <ele>423.7</ele>
        <time>2023-11-26T13:24:31Z</time>
      </trkpt>
      <trkpt lat="43.6227" lon="6.62444">
        <ele>423.5</ele>
        <time>2023-11-26T13:24:32Z</time>
      </trkpt>
      <trkpt lat="43.6227" lon="6.62444">
        <ele>423.3</ele>
        <time>2023-11-26T13:24:33Z</time>
      </trkpt>
      <trkpt lat="43.6227" lon="6.62445">
        <ele>423.1</ele>
        <time>2023-11-26T13:24:34Z</time>
      </trkpt>
      <trkpt lat="43.62271" lon="6.62445">
        <ele>423</ele>
        <time>2023-11-26T13:24:35Z</time>
      </trkpt>
      <trkpt lat="43.62271" lon="6.62445">
        <ele>422.8</ele>
        <time>2023-11-26T13:24:36Z</time>
      </trkpt>
      <trkpt lat="43.62271" lon="6.62446">
        <ele>422.5</ele>
        <time>2023-11-26T13:24:37Z</time>
      </trkpt>
      <trkpt lat="43.62271" lon="6.62446">
        <ele>422.3</ele>
        <time>2023-11-26T13:24:38Z</time>
      </trkpt>
      <trkpt lat="43.62271" lon="6.62445">
        <ele>422.1</ele>
        <time>2023-11-26T13:24:39Z</time>
      </trkpt>
      <trkpt lat="43.62272" lon="6.62446">
        <ele>421.8</ele>
        <time>2023-11-26T13:24:40Z</time>
      </trkpt>
      <trkpt lat="43.62273" lon="6.62446">
        <ele>421.6</ele>
        <time>2023-11-26T13:24:41Z</time>
      </trkpt>
      <trkpt lat="43.62273" lon="6.62446">
        <ele>421.3</ele>
        <time>2023-11-26T13:24:42Z</time>
      </trkpt>
      <trkpt lat="43.62273" lon="6.62446">
        <ele>421.1</ele>
        <time>2023-11-26T13:24:43Z</time>
      </trkpt>
      <trkpt lat="43.62273" lon="6.62447">
        <ele>420.9</ele>
        <time>2023-11-26T13:24:44Z</time>
      </trkpt>
      <trkpt lat="43.62274" lon="6.62447">
        <ele>420.8</ele>
        <time>2023-11-26T13:24:45Z</time>
      </trkpt>
      <trkpt lat="43.62274" lon="6.62448">
        <ele>420.5</ele>
        <time>2023-11-26T13:24:46Z</time>
      </trkpt>
      <trkpt lat="43.62274" lon="6.62448">
        <ele>420.3</ele>
        <time>2023-11-26T13:24:47Z</time>
      </trkpt>
      <trkpt lat="43.62275" lon="6.62448">
        <ele>420.1</ele>
        <time>2023-11-26T13:24:48Z</time>
      </trkpt>
      <trkpt lat="43.62275" lon="6.62449">
        <ele>419.9</ele>
        <time>2023-11-26T13:24:49Z</time>
      </trkpt>
      <trkpt lat="43.62276" lon="6.62449">
        <ele>419.9</ele>
        <time>2023-11-26T13:24:50Z</time>
      </trkpt>
      <trkpt lat="43.62277" lon="6.6245">
        <ele>419.8</ele>
        <time>2023-11-26T13:24:51Z</time>
      </trkpt>
      <trkpt lat="43.62277" lon="6.6245">
        <ele>419.7</ele>
        <time>2023-11-26T13:24:52Z</time>
      </trkpt>
      <trkpt lat="43.62278" lon="6.62451">
        <ele>419.6</ele>
        <time>2023-11-26T13:24:53Z</time>
      </trkpt>
      <trkpt lat="43.62277" lon="6.62451">
        <ele>419.4</ele>
        <time>2023-11-26T13:24:54Z</time>
      </trkpt>
      <trkpt lat="43.62278" lon="6.62451">
        <ele>419.2</ele>
        <time>2023-11-26T13:24:55Z</time>
      </trkpt>
      <trkpt lat="43.62278" lon="6.62451">
        <ele>419.1</ele>
        <time>2023-11-26T13:24:56Z</time>
      </trkpt>
      <trkpt lat="43.62278" lon="6.62451">
        <ele>418.9</ele>
        <time>2023-11-26T13:24:57Z</time>
      </trkpt>
      <trkpt lat="43.62278" lon="6.62451">
        <ele>418.7</ele>
        <time>2023-11-26T13:24:58Z</time>
      </trkpt>
      <trkpt lat="43.62278" lon="6.62451">
        <ele>418.6</ele>
        <time>2023-11-26T13:24:59Z</time>
      </trkpt>
      <trkpt lat="43.62278" lon="6.6245">
        <ele>418.6</ele>
        <time>2023-11-26T13:25:00Z</time>
      </trkpt>
      <trkpt lat="43.62278" lon="6.6245">
        <ele>418.6</ele>
        <time>2023-11-26T13:25:01Z</time>
      </trkpt>
      <trkpt lat="43.62279" lon="6.6245">
        <ele>418.6</ele>
        <time>2023-11-26T13:25:02Z</time>
      </trkpt>
      <trkpt lat="43.62279" lon="6.6245">
        <ele>418.6</ele>
        <time>2023-11-26T13:25:03Z</time>
      </trkpt>
      <trkpt lat="43.62279" lon="6.6245">
        <ele>418.5</ele>
        <time>2023-11-26T13:25:04Z</time>
      </trkpt>
      <trkpt lat="43.62279" lon="6.6245">
        <ele>418.5</ele>
        <time>2023-11-26T13:25:05Z</time>
      </trkpt>
      <trkpt lat="43.6228" lon="6.6245">
        <ele>418.5</ele>
        <time>2023-11-26T13:25:06Z</time>
      </trkpt>
      <trkpt lat="43.62279" lon="6.6245">
        <ele>418.5</ele>
        <time>2023-11-26T13:25:07Z</time>
      </trkpt>
      <trkpt lat="43.62279" lon="6.6245">
        <ele>418.3</ele>
        <time>2023-11-26T13:25:08Z</time>
      </trkpt>
      <trkpt lat="43.62279" lon="6.6245">
        <ele>418.3</ele>
        <time>2023-11-26T13:25:09Z</time>
      </trkpt>
      <trkpt lat="43.62279" lon="6.6245">
        <ele>418.3</ele>
        <time>2023-11-26T13:25:10Z</time>
      </trkpt>
      <trkpt lat="43.62279" lon="6.62449">
        <ele>418.3</ele>
        <time>2023-11-26T13:25:11Z</time>
      </trkpt>
      <trkpt lat="43.6228" lon="6.62449">
        <ele>418.3</ele>
        <time>2023-11-26T13:25:12Z</time>
      </trkpt>
      <trkpt lat="43.6228" lon="6.62449">
        <ele>418.3</ele>
        <time>2023-11-26T13:25:13Z</time>
      </trkpt>
      <trkpt lat="43.6228" lon="6.62449">
        <ele>418.3</ele>
        <time>2023-11-26T13:25:14Z</time>
      </trkpt>
      <trkpt lat="43.6228" lon="6.62448">
        <ele>418.2</ele>
        <time>2023-11-26T13:25:15Z</time>
      </trkpt>
      <trkpt lat="43.6228" lon="6.62447">
        <ele>418.3</ele>
        <time>2023-11-26T13:25:16Z</time>
      </trkpt>
      <trkpt lat="43.6228" lon="6.62445">
        <ele>418.4</ele>
        <time>2023-11-26T13:25:17Z</time>
      </trkpt>
      <trkpt lat="43.6228" lon="6.62445">
        <ele>418.4</ele>
        <time>2023-11-26T13:25:18Z</time>
      </trkpt>
      <trkpt lat="43.6228" lon="6.62444">
        <ele>418.5</ele>
        <time>2023-11-26T13:25:19Z</time>
      </trkpt>
      <trkpt lat="43.6228" lon="6.62443">
        <ele>418.6</ele>
        <time>2023-11-26T13:25:20Z</time>
      </trkpt>
      <trkpt lat="43.62279" lon="6.62442">
        <ele>418.7</ele>
        <time>2023-11-26T13:25:21Z</time>
      </trkpt>
      <trkpt lat="43.62279" lon="6.62441">
        <ele>418.9</ele>
        <time>2023-11-26T13:25:22Z</time>
      </trkpt>
      <trkpt lat="43.62279" lon="6.6244">
        <ele>419.1</ele>
        <time>2023-11-26T13:25:23Z</time>
      </trkpt>
      <trkpt lat="43.62278" lon="6.62439">
        <ele>419.2</ele>
        <time>2023-11-26T13:25:24Z</time>
      </trkpt>
      <trkpt lat="43.62278" lon="6.62439">
        <ele>419.2</ele>
        <time>2023-11-26T13:25:25Z</time>
      </trkpt>
      <trkpt lat="43.62279" lon="6.62439">
        <ele>419.3</ele>
        <time>2023-11-26T13:25:26Z</time>
      </trkpt>
      <trkpt lat="43.62279" lon="6.62438">
        <ele>419.4</ele>
        <time>2023-11-26T13:25:27Z</time>
      </trkpt>
      <trkpt lat="43.62279" lon="6.62438">
        <ele>419.4</ele>
        <time>2023-11-26T13:25:28Z</time>
      </trkpt>
      <trkpt lat="43.62279" lon="6.62438">
        <ele>419.5</ele>
        <time>2023-11-26T13:25:29Z</time>
      </trkpt>
      <trkpt lat="43.62279" lon="6.62438">
        <ele>419.5</ele>
        <time>2023-11-26T13:25:30Z</time>
      </trkpt>
      <trkpt lat="43.62279" lon="6.62438">
        <ele>419.5</ele>
        <time>2023-11-26T13:25:31Z</time>
      </trkpt>
      <trkpt lat="43.62279" lon="6.62437">
        <ele>419.4</ele>
        <time>2023-11-26T13:25:32Z</time>
      </trkpt>
      <trkpt lat="43.62278" lon="6.62437">
        <ele>419.3</ele>
        <time>2023-11-26T13:25:33Z</time>
      </trkpt>
      <trkpt lat="43.62278" lon="6.62437">
        <ele>419.3</ele>
        <time>2023-11-26T13:25:34Z</time>
      </trkpt>
      <trkpt lat="43.62278" lon="6.62436">
        <ele>419.3</ele>
        <time>2023-11-26T13:25:35Z</time>
      </trkpt>
      <trkpt lat="43.62279" lon="6.62436">
        <ele>419.4</ele>
        <time>2023-11-26T13:25:36Z</time>
      </trkpt>
      <trkpt lat="43.62279" lon="6.62436">
        <ele>419.4</ele>
        <time>2023-11-26T13:25:37Z</time>
      </trkpt>
      <trkpt lat="43.62278" lon="6.62436">
        <ele>419.4</ele>
        <time>2023-11-26T13:25:38Z</time>
      </trkpt>
      <trkpt lat="43.62278" lon="6.62434">
        <ele>419.5</ele>
        <time>2023-11-26T13:25:39Z</time>
      </trkpt>
      <trkpt lat="43.62278" lon="6.62434">
        <ele>419.6</ele>
        <time>2023-11-26T13:25:40Z</time>
      </trkpt>
      <trkpt lat="43.62278" lon="6.62433">
        <ele>419.8</ele>
        <time>2023-11-26T13:25:41Z</time>
      </trkpt>
      <trkpt lat="43.62278" lon="6.62432">
        <ele>419.9</ele>
        <time>2023-11-26T13:25:42Z</time>
      </trkpt>
      <trkpt lat="43.62278" lon="6.6243">
        <ele>420</ele>
        <time>2023-11-26T13:25:43Z</time>
      </trkpt>
      <trkpt lat="43.62278" lon="6.62429">
        <ele>420.1</ele>
        <time>2023-11-26T13:25:44Z</time>
      </trkpt>
      <trkpt lat="43.62278" lon="6.62427">
        <ele>420.2</ele>
        <time>2023-11-26T13:25:45Z</time>
      </trkpt>
      <trkpt lat="43.62277" lon="6.62426">
        <ele>420.2</ele>
        <time>2023-11-26T13:25:46Z</time>
      </trkpt>
      <trkpt lat="43.62276" lon="6.62424">
        <ele>420.4</ele>
        <time>2023-11-26T13:25:47Z</time>
      </trkpt>
      <trkpt lat="43.62276" lon="6.62423">
        <ele>420.5</ele>
        <time>2023-11-26T13:25:48Z</time>
      </trkpt>
      <trkpt lat="43.62276" lon="6.62422">
        <ele>420.6</ele>
        <time>2023-11-26T13:25:49Z</time>
      </trkpt>
      <trkpt lat="43.62275" lon="6.6242">
        <ele>420.7</ele>
        <time>2023-11-26T13:25:50Z</time>
      </trkpt>
      <trkpt lat="43.62274" lon="6.6242">
        <ele>420.8</ele>
        <time>2023-11-26T13:25:51Z</time>
      </trkpt>
      <trkpt lat="43.62273" lon="6.62419">
        <ele>420.9</ele>
        <time>2023-11-26T13:25:52Z</time>
      </trkpt>
      <trkpt lat="43.62272" lon="6.62418">
        <ele>420.9</ele>
        <time>2023-11-26T13:25:53Z</time>
      </trkpt>
      <trkpt lat="43.62271" lon="6.62417">
        <ele>421</ele>
        <time>2023-11-26T13:25:54Z</time>
      </trkpt>
      <trkpt lat="43.62271" lon="6.62415">
        <ele>421</ele>
        <time>2023-11-26T13:25:55Z</time>
      </trkpt>
      <trkpt lat="43.62271" lon="6.62414">
        <ele>421</ele>
        <time>2023-11-26T13:25:56Z</time>
      </trkpt>
      <trkpt lat="43.6227" lon="6.62412">
        <ele>421.1</ele>
        <time>2023-11-26T13:25:57Z</time>
      </trkpt>
      <trkpt lat="43.62271" lon="6.62411">
        <ele>421.1</ele>
        <time>2023-11-26T13:25:58Z</time>
      </trkpt>
      <trkpt lat="43.6227" lon="6.6241">
        <ele>421.1</ele>
        <time>2023-11-26T13:25:59Z</time>
      </trkpt>
      <trkpt lat="43.62269" lon="6.62408">
        <ele>421.2</ele>
        <time>2023-11-26T13:26:00Z</time>
      </trkpt>
      <trkpt lat="43.62269" lon="6.62406">
        <ele>421.2</ele>
        <time>2023-11-26T13:26:01Z</time>
      </trkpt>
      <trkpt lat="43.62269" lon="6.62405">
        <ele>421.2</ele>
        <time>2023-11-26T13:26:02Z</time>
      </trkpt>
      <trkpt lat="43.62269" lon="6.62404">
        <ele>421.2</ele>
        <time>2023-11-26T13:26:03Z</time>
      </trkpt>
      <trkpt lat="43.62268" lon="6.62403">
        <ele>421.2</ele>
        <time>2023-11-26T13:26:04Z</time>
      </trkpt>
      <trkpt lat="43.62267" lon="6.62401">
        <ele>421.2</ele>
        <time>2023-11-26T13:26:05Z</time>
      </trkpt>
      <trkpt lat="43.62267" lon="6.624">
        <ele>421.2</ele>
        <time>2023-11-26T13:26:06Z</time>
      </trkpt>
      <trkpt lat="43.62267" lon="6.62398">
        <ele>421.2</ele>
        <time>2023-11-26T13:26:07Z</time>
      </trkpt>
      <trkpt lat="43.62266" lon="6.62397">
        <ele>421.3</ele>
        <time>2023-11-26T13:26:08Z</time>
      </trkpt>
      <trkpt lat="43.62266" lon="6.62395">
        <ele>421.3</ele>
        <time>2023-11-26T13:26:09Z</time>
      </trkpt>
      <trkpt lat="43.62265" lon="6.62393">
        <ele>421.4</ele>
        <time>2023-11-26T13:26:10Z</time>
      </trkpt>
      <trkpt lat="43.62265" lon="6.62393">
        <ele>421.5</ele>
        <time>2023-11-26T13:26:11Z</time>
      </trkpt>
      <trkpt lat="43.62265" lon="6.62391">
        <ele>421.6</ele>
        <time>2023-11-26T13:26:12Z</time>
      </trkpt>
      <trkpt lat="43.62264" lon="6.62389">
        <ele>421.7</ele>
        <time>2023-11-26T13:26:13Z</time>
      </trkpt>
      <trkpt lat="43.62264" lon="6.62388">
        <ele>421.7</ele>
        <time>2023-11-26T13:26:14Z</time>
      </trkpt>
      <trkpt lat="43.62264" lon="6.62387">
        <ele>421.8</ele>
        <time>2023-11-26T13:26:15Z</time>
      </trkpt>
      <trkpt lat="43.62263" lon="6.62386">
        <ele>421.8</ele>
        <time>2023-11-26T13:26:16Z</time>
      </trkpt>
      <trkpt lat="43.62263" lon="6.62385">
        <ele>421.9</ele>
        <time>2023-11-26T13:26:17Z</time>
      </trkpt>
      <trkpt lat="43.62262" lon="6.62384">
        <ele>422</ele>
        <time>2023-11-26T13:26:18Z</time>
      </trkpt>
      <trkpt lat="43.62262" lon="6.62383">
        <ele>422.1</ele>
        <time>2023-11-26T13:26:19Z</time>
      </trkpt>
      <trkpt lat="43.62262" lon="6.62382">
        <ele>422.1</ele>
        <time>2023-11-26T13:26:20Z</time>
      </trkpt>
      <trkpt lat="43.62262" lon="6.6238">
        <ele>422.2</ele>
        <time>2023-11-26T13:26:21Z</time>
      </trkpt>
      <trkpt lat="43.62262" lon="6.62379">
        <ele>422.3</ele>
        <time>2023-11-26T13:26:22Z</time>
      </trkpt>
      <trkpt lat="43.62262" lon="6.62378">
        <ele>422.4</ele>
        <time>2023-11-26T13:26:23Z</time>
      </trkpt>
      <trkpt lat="43.62262" lon="6.62376">
        <ele>422.4</ele>
        <time>2023-11-26T13:26:24Z</time>
      </trkpt>
      <trkpt lat="43.62262" lon="6.62375">
        <ele>422.6</ele>
        <time>2023-11-26T13:26:25Z</time>
      </trkpt>
      <trkpt lat="43.62263" lon="6.62374">
        <ele>422.7</ele>
        <time>2023-11-26T13:26:26Z</time>
      </trkpt>
      <trkpt lat="43.62263" lon="6.62373">
        <ele>422.8</ele>
        <time>2023-11-26T13:26:27Z</time>
      </trkpt>
      <trkpt lat="43.62263" lon="6.62371">
        <ele>423</ele>
        <time>2023-11-26T13:26:28Z</time>
      </trkpt>
      <trkpt lat="43.62263" lon="6.6237">
        <ele>423.1</ele>
        <time>2023-11-26T13:26:29Z</time>
      </trkpt>
      <trkpt lat="43.62263" lon="6.62369">
        <ele>423.3</ele>
        <time>2023-11-26T13:26:30Z</time>
      </trkpt>
      <trkpt lat="43.62263" lon="6.62368">
        <ele>423.4</ele>
        <time>2023-11-26T13:26:31Z</time>
      </trkpt>
      <trkpt lat="43.62263" lon="6.62367">
        <ele>423.5</ele>
        <time>2023-11-26T13:26:32Z</time>
      </trkpt>
      <trkpt lat="43.62263" lon="6.62366">
        <ele>423.6</ele>
        <time>2023-11-26T13:26:33Z</time>
      </trkpt>
      <trkpt lat="43.62264" lon="6.62365">
        <ele>423.6</ele>
        <time>2023-11-26T13:26:34Z</time>
      </trkpt>
      <trkpt lat="43.62264" lon="6.62364">
        <ele>423.7</ele>
        <time>2023-11-26T13:26:35Z</time>
      </trkpt>
      <trkpt lat="43.62264" lon="6.62362">
        <ele>423.7</ele>
        <time>2023-11-26T13:26:36Z</time>
      </trkpt>
      <trkpt lat="43.62265" lon="6.62361">
        <ele>423.8</ele>
        <time>2023-11-26T13:26:37Z</time>
      </trkpt>
      <trkpt lat="43.62265" lon="6.6236">
        <ele>424</ele>
        <time>2023-11-26T13:26:38Z</time>
      </trkpt>
      <trkpt lat="43.62265" lon="6.62359">
        <ele>424.2</ele>
        <time>2023-11-26T13:26:39Z</time>
      </trkpt>
      <trkpt lat="43.62265" lon="6.62357">
        <ele>424.3</ele>
        <time>2023-11-26T13:26:40Z</time>
      </trkpt>
      <trkpt lat="43.62265" lon="6.62355">
        <ele>424.5</ele>
        <time>2023-11-26T13:26:41Z</time>
      </trkpt>
      <trkpt lat="43.62266" lon="6.62354">
        <ele>424.5</ele>
        <time>2023-11-26T13:26:42Z</time>
      </trkpt>
      <trkpt lat="43.62266" lon="6.62353">
        <ele>424.6</ele>
        <time>2023-11-26T13:26:43Z</time>
      </trkpt>
      <trkpt lat="43.62266" lon="6.62351">
        <ele>424.8</ele>
        <time>2023-11-26T13:26:44Z</time>
      </trkpt>
      <trkpt lat="43.62266" lon="6.6235">
        <ele>425</ele>
        <time>2023-11-26T13:26:45Z</time>
      </trkpt>
      <trkpt lat="43.62266" lon="6.62349">
        <ele>425.2</ele>
        <time>2023-11-26T13:26:46Z</time>
      </trkpt>
      <trkpt lat="43.62266" lon="6.62348">
        <ele>425.4</ele>
        <time>2023-11-26T13:26:47Z</time>
      </trkpt>
      <trkpt lat="43.62267" lon="6.62349">
        <ele>425.4</ele>
        <time>2023-11-26T13:26:48Z</time>
      </trkpt>
      <trkpt lat="43.62267" lon="6.62348">
        <ele>425.5</ele>
        <time>2023-11-26T13:26:49Z</time>
      </trkpt>
      <trkpt lat="43.62268" lon="6.62347">
        <ele>425.5</ele>
        <time>2023-11-26T13:26:50Z</time>
      </trkpt>
      <trkpt lat="43.62268" lon="6.62345">
        <ele>425.5</ele>
        <time>2023-11-26T13:26:51Z</time>
      </trkpt>
      <trkpt lat="43.62268" lon="6.62343">
        <ele>425.7</ele>
        <time>2023-11-26T13:26:52Z</time>
      </trkpt>
      <trkpt lat="43.62269" lon="6.62342">
        <ele>425.8</ele>
        <time>2023-11-26T13:26:53Z</time>
      </trkpt>
      <trkpt lat="43.62269" lon="6.62341">
        <ele>425.9</ele>
        <time>2023-11-26T13:26:54Z</time>
      </trkpt>
      <trkpt lat="43.62269" lon="6.6234">
        <ele>426</ele>
        <time>2023-11-26T13:26:55Z</time>
      </trkpt>
      <trkpt lat="43.6227" lon="6.62338">
        <ele>426.1</ele>
        <time>2023-11-26T13:26:56Z</time>
      </trkpt>
      <trkpt lat="43.62269" lon="6.62337">
        <ele>426.2</ele>
        <time>2023-11-26T13:26:57Z</time>
      </trkpt>
      <trkpt lat="43.6227" lon="6.62335">
        <ele>426.4</ele>
        <time>2023-11-26T13:26:58Z</time>
      </trkpt>
      <trkpt lat="43.6227" lon="6.62334">
        <ele>426.5</ele>
        <time>2023-11-26T13:26:59Z</time>
      </trkpt>
      <trkpt lat="43.62271" lon="6.62332">
        <ele>426.6</ele>
        <time>2023-11-26T13:27:00Z</time>
      </trkpt>
      <trkpt lat="43.62271" lon="6.62331">
        <ele>426.6</ele>
        <time>2023-11-26T13:27:01Z</time>
      </trkpt>
      <trkpt lat="43.62272" lon="6.62329">
        <ele>426.6</ele>
        <time>2023-11-26T13:27:02Z</time>
      </trkpt>
      <trkpt lat="43.62272" lon="6.62328">
        <ele>426.7</ele>
        <time>2023-11-26T13:27:03Z</time>
      </trkpt>
      <trkpt lat="43.62272" lon="6.62327">
        <ele>426.8</ele>
        <time>2023-11-26T13:27:04Z</time>
      </trkpt>
      <trkpt lat="43.62272" lon="6.62325">
        <ele>426.8</ele>
        <time>2023-11-26T13:27:05Z</time>
      </trkpt>
      <trkpt lat="43.62273" lon="6.62324">
        <ele>426.9</ele>
        <time>2023-11-26T13:27:06Z</time>
      </trkpt>
      <trkpt lat="43.62273" lon="6.62323">
        <ele>426.9</ele>
        <time>2023-11-26T13:27:07Z</time>
      </trkpt>
      <trkpt lat="43.62274" lon="6.62322">
        <ele>427</ele>
        <time>2023-11-26T13:27:08Z</time>
      </trkpt>
      <trkpt lat="43.62275" lon="6.62321">
        <ele>427.1</ele>
        <time>2023-11-26T13:27:09Z</time>
      </trkpt>
      <trkpt lat="43.62275" lon="6.62321">
        <ele>427.2</ele>
        <time>2023-11-26T13:27:10Z</time>
      </trkpt>
      <trkpt lat="43.62276" lon="6.62321">
        <ele>427.4</ele>
        <time>2023-11-26T13:27:11Z</time>
      </trkpt>
      <trkpt lat="43.62277" lon="6.62321">
        <ele>427.6</ele>
        <time>2023-11-26T13:27:12Z</time>
      </trkpt>
      <trkpt lat="43.62276" lon="6.62322">
        <ele>427.7</ele>
        <time>2023-11-26T13:27:13Z</time>
      </trkpt>
      <trkpt lat="43.62277" lon="6.62322">
        <ele>427.8</ele>
        <time>2023-11-26T13:27:14Z</time>
      </trkpt>
      <trkpt lat="43.62277" lon="6.62322">
        <ele>427.9</ele>
        <time>2023-11-26T13:27:15Z</time>
      </trkpt>
      <trkpt lat="43.62276" lon="6.62323">
        <ele>428</ele>
        <time>2023-11-26T13:27:16Z</time>
      </trkpt>
      <trkpt lat="43.62275" lon="6.62323">
        <ele>428</ele>
        <time>2023-11-26T13:27:17Z</time>
      </trkpt>
      <trkpt lat="43.62275" lon="6.62323">
        <ele>428.1</ele>
        <time>2023-11-26T13:27:18Z</time>
      </trkpt>
      <trkpt lat="43.62274" lon="6.62324">
        <ele>428.2</ele>
        <time>2023-11-26T13:27:19Z</time>
      </trkpt>
      <trkpt lat="43.62274" lon="6.62325">
        <ele>428.3</ele>
        <time>2023-11-26T13:27:20Z</time>
      </trkpt>
      <trkpt lat="43.62275" lon="6.62325">
        <ele>428.3</ele>
        <time>2023-11-26T13:27:21Z</time>
      </trkpt>
      <trkpt lat="43.62274" lon="6.62326">
        <ele>428.4</ele>
        <time>2023-11-26T13:27:22Z</time>
      </trkpt>
      <trkpt lat="43.62274" lon="6.62327">
        <ele>428.5</ele>
        <time>2023-11-26T13:27:23Z</time>
      </trkpt>
      <trkpt lat="43.62273" lon="6.62328">
        <ele>428.7</ele>
        <time>2023-11-26T13:27:24Z</time>
      </trkpt>
      <trkpt lat="43.62273" lon="6.62328">
        <ele>428.8</ele>
        <time>2023-11-26T13:27:25Z</time>
      </trkpt>
      <trkpt lat="43.62272" lon="6.62329">
        <ele>428.9</ele>
        <time>2023-11-26T13:27:26Z</time>
      </trkpt>
      <trkpt lat="43.62273" lon="6.6233">
        <ele>429.1</ele>
        <time>2023-11-26T13:27:27Z</time>
      </trkpt>
      <trkpt lat="43.62272" lon="6.62331">
        <ele>429.2</ele>
        <time>2023-11-26T13:27:28Z</time>
      </trkpt>
      <trkpt lat="43.62272" lon="6.62332">
        <ele>429.3</ele>
        <time>2023-11-26T13:27:29Z</time>
      </trkpt>
      <trkpt lat="43.62271" lon="6.62332">
        <ele>429.5</ele>
        <time>2023-11-26T13:27:30Z</time>
      </trkpt>
      <trkpt lat="43.62271" lon="6.62333">
        <ele>429.6</ele>
        <time>2023-11-26T13:27:31Z</time>
      </trkpt>
      <trkpt lat="43.62271" lon="6.62334">
        <ele>429.7</ele>
        <time>2023-11-26T13:27:32Z</time>
      </trkpt>
      <trkpt lat="43.6227" lon="6.62336">
        <ele>429.9</ele>
        <time>2023-11-26T13:27:33Z</time>
      </trkpt>
      <trkpt lat="43.6227" lon="6.62337">
        <ele>429.9</ele>
        <time>2023-11-26T13:27:34Z</time>
      </trkpt>
      <trkpt lat="43.6227" lon="6.62338">
        <ele>430</ele>
        <time>2023-11-26T13:27:35Z</time>
      </trkpt>
      <trkpt lat="43.6227" lon="6.62338">
        <ele>430.1</ele>
        <time>2023-11-26T13:27:36Z</time>
      </trkpt>
      <trkpt lat="43.6227" lon="6.62339">
        <ele>430.1</ele>
        <time>2023-11-26T13:27:37Z</time>
      </trkpt>
      <trkpt lat="43.62271" lon="6.62341">
        <ele>430.2</ele>
        <time>2023-11-26T13:27:38Z</time>
      </trkpt>
      <trkpt lat="43.6227" lon="6.62342">
        <ele>430.3</ele>
        <time>2023-11-26T13:27:39Z</time>
      </trkpt>
      <trkpt lat="43.62271" lon="6.62344">
        <ele>430.5</ele>
        <time>2023-11-26T13:27:40Z</time>
      </trkpt>
      <trkpt lat="43.6227" lon="6.62345">
        <ele>430.6</ele>
        <time>2023-11-26T13:27:41Z</time>
      </trkpt>
      <trkpt lat="43.6227" lon="6.62346">
        <ele>430.7</ele>
        <time>2023-11-26T13:27:42Z</time>
      </trkpt>
      <trkpt lat="43.6227" lon="6.62348">
        <ele>430.7</ele>
        <time>2023-11-26T13:27:43Z</time>
      </trkpt>
      <trkpt lat="43.6227" lon="6.62348">
        <ele>430.8</ele>
        <time>2023-11-26T13:27:44Z</time>
      </trkpt>
      <trkpt lat="43.6227" lon="6.6235">
        <ele>430.8</ele>
        <time>2023-11-26T13:27:45Z</time>
      </trkpt>
      <trkpt lat="43.6227" lon="6.62351">
        <ele>430.9</ele>
        <time>2023-11-26T13:27:46Z</time>
      </trkpt>
      <trkpt lat="43.62271" lon="6.62352">
        <ele>431</ele>
        <time>2023-11-26T13:27:47Z</time>
      </trkpt>
      <trkpt lat="43.6227" lon="6.62353">
        <ele>431.1</ele>
        <time>2023-11-26T13:27:48Z</time>
      </trkpt>
      <trkpt lat="43.6227" lon="6.62354">
        <ele>431.1</ele>
        <time>2023-11-26T13:27:49Z</time>
      </trkpt>
      <trkpt lat="43.6227" lon="6.62355">
        <ele>431.2</ele>
        <time>2023-11-26T13:27:50Z</time>
      </trkpt>
      <trkpt lat="43.62271" lon="6.62356">
        <ele>431.3</ele>
        <time>2023-11-26T13:27:51Z</time>
      </trkpt>
      <trkpt lat="43.62272" lon="6.62358">
        <ele>431.3</ele>
        <time>2023-11-26T13:27:52Z</time>
      </trkpt>
      <trkpt lat="43.62272" lon="6.62359">
        <ele>431.4</ele>
        <time>2023-11-26T13:27:53Z</time>
      </trkpt>
      <trkpt lat="43.62272" lon="6.62359">
        <ele>431.4</ele>
        <time>2023-11-26T13:27:54Z</time>
      </trkpt>
      <trkpt lat="43.62273" lon="6.6236">
        <ele>431.5</ele>
        <time>2023-11-26T13:27:55Z</time>
      </trkpt>
      <trkpt lat="43.62273" lon="6.62361">
        <ele>431.5</ele>
        <time>2023-11-26T13:27:56Z</time>
      </trkpt>
      <trkpt lat="43.62273" lon="6.62361">
        <ele>431.6</ele>
        <time>2023-11-26T13:27:57Z</time>
      </trkpt>
      <trkpt lat="43.62273" lon="6.62361">
        <ele>431.7</ele>
        <time>2023-11-26T13:27:58Z</time>
      </trkpt>
      <trkpt lat="43.62273" lon="6.62361">
        <ele>431.7</ele>
        <time>2023-11-26T13:27:59Z</time>
      </trkpt>
      <trkpt lat="43.62273" lon="6.62361">
        <ele>431.6</ele>
        <time>2023-11-26T13:28:00Z</time>
      </trkpt>
      <trkpt lat="43.62274" lon="6.62362">
        <ele>431.6</ele>
        <time>2023-11-26T13:28:01Z</time>
      </trkpt>
      <trkpt lat="43.62274" lon="6.62362">
        <ele>431.6</ele>
        <time>2023-11-26T13:28:02Z</time>
      </trkpt>
      <trkpt lat="43.62274" lon="6.62362">
        <ele>431.6</ele>
        <time>2023-11-26T13:28:03Z</time>
      </trkpt>
      <trkpt lat="43.62274" lon="6.62362">
        <ele>431.6</ele>
        <time>2023-11-26T13:28:04Z</time>
      </trkpt>
      <trkpt lat="43.62274" lon="6.62362">
        <ele>431.7</ele>
        <time>2023-11-26T13:28:05Z</time>
      </trkpt>
      <trkpt lat="43.62274" lon="6.62362">
        <ele>431.7</ele>
        <time>2023-11-26T13:28:06Z</time>
      </trkpt>
      <trkpt lat="43.62274" lon="6.62363">
        <ele>431.8</ele>
        <time>2023-11-26T13:28:07Z</time>
      </trkpt>
      <trkpt lat="43.62274" lon="6.62363">
        <ele>431.8</ele>
        <time>2023-11-26T13:28:08Z</time>
      </trkpt>
      <trkpt lat="43.62275" lon="6.62363">
        <ele>431.8</ele>
        <time>2023-11-26T13:28:09Z</time>
      </trkpt>
      <trkpt lat="43.62275" lon="6.62363">
        <ele>431.8</ele>
        <time>2023-11-26T13:28:10Z</time>
      </trkpt>
      <trkpt lat="43.62275" lon="6.62364">
        <ele>431.8</ele>
        <time>2023-11-26T13:28:11Z</time>
      </trkpt>
      <trkpt lat="43.62275" lon="6.62364">
        <ele>431.7</ele>
        <time>2023-11-26T13:28:12Z</time>
      </trkpt>
      <trkpt lat="43.62275" lon="6.62364">
        <ele>431.7</ele>
        <time>2023-11-26T13:28:13Z</time>
      </trkpt>
      <trkpt lat="43.62275" lon="6.62364">
        <ele>431.8</ele>
        <time>2023-11-26T13:28:14Z</time>
      </trkpt>
      <trkpt lat="43.62275" lon="6.62364">
        <ele>431.7</ele>
        <time>2023-11-26T13:28:15Z</time>
      </trkpt>
      <trkpt lat="43.62275" lon="6.62364">
        <ele>431.6</ele>
        <time>2023-11-26T13:28:16Z</time>
      </trkpt>
      <trkpt lat="43.62275" lon="6.62364">
        <ele>431.7</ele>
        <time>2023-11-26T13:28:17Z</time>
      </trkpt>
      <trkpt lat="43.62275" lon="6.62364">
        <ele>431.8</ele>
        <time>2023-11-26T13:28:18Z</time>
      </trkpt>
      <trkpt lat="43.62275" lon="6.62364">
        <ele>431.7</ele>
        <time>2023-11-26T13:28:19Z</time>
      </trkpt>
      <trkpt lat="43.62275" lon="6.62364">
        <ele>431.7</ele>
        <time>2023-11-26T13:28:20Z</time>
      </trkpt>
      <trkpt lat="43.62275" lon="6.62364">
        <ele>431.8</ele>
        <time>2023-11-26T13:28:21Z</time>
      </trkpt>
      <trkpt lat="43.62275" lon="6.62364">
        <ele>431.7</ele>
        <time>2023-11-26T13:28:22Z</time>
      </trkpt>
      <trkpt lat="43.62275" lon="6.62364">
        <ele>431.7</ele>
        <time>2023-11-26T13:28:23Z</time>
      </trkpt>
      <trkpt lat="43.62275" lon="6.62364">
        <ele>431.7</ele>
        <time>2023-11-26T13:28:24Z</time>
      </trkpt>
      <trkpt lat="43.62275" lon="6.62364">
        <ele>431.7</ele>
        <time>2023-11-26T13:28:25Z</time>
      </trkpt>
      <trkpt lat="43.62275" lon="6.62364">
        <ele>431.7</ele>
        <time>2023-11-26T13:28:26Z</time>
      </trkpt>
      <trkpt lat="43.62275" lon="6.62364">
        <ele>431.7</ele>
        <time>2023-11-26T13:28:27Z</time>
      </trkpt>
      <trkpt lat="43.62275" lon="6.62364">
        <ele>431.7</ele>
        <time>2023-11-26T13:28:28Z</time>
      </trkpt>
      <trkpt lat="43.62275" lon="6.62364">
        <ele>431.7</ele>
        <time>2023-11-26T13:28:29Z</time>
      </trkpt>
      <trkpt lat="43.62275" lon="6.62365">
        <ele>431.7</ele>
        <time>2023-11-26T13:28:30Z</time>
      </trkpt>
      <trkpt lat="43.62276" lon="6.62365">
        <ele>431.7</ele>
        <time>2023-11-26T13:28:31Z</time>
      </trkpt>
      <trkpt lat="43.62276" lon="6.62365">
        <ele>431.7</ele>
        <time>2023-11-26T13:28:32Z</time>
      </trkpt>
      <trkpt lat="43.62276" lon="6.62365">
        <ele>431.7</ele>
        <time>2023-11-26T13:28:33Z</time>
      </trkpt>
      <trkpt lat="43.62276" lon="6.62365">
        <ele>431.7</ele>
        <time>2023-11-26T13:28:34Z</time>
      </trkpt>
      <trkpt lat="43.62276" lon="6.62365">
        <ele>431.7</ele>
        <time>2023-11-26T13:28:35Z</time>
      </trkpt>
      <trkpt lat="43.62276" lon="6.62365">
        <ele>431.7</ele>
        <time>2023-11-26T13:28:36Z</time>
      </trkpt>
      <trkpt lat="43.62276" lon="6.62365">
        <ele>431.7</ele>
        <time>2023-11-26T13:28:37Z</time>
      </trkpt>
      <trkpt lat="43.62276" lon="6.62365">
        <ele>431.7</ele>
        <time>2023-11-26T13:28:38Z</time>
      </trkpt>
      <trkpt lat="43.62277" lon="6.62366">
        <ele>431.9</ele>
        <time>2023-11-26T13:28:39Z</time>
      </trkpt>
      <trkpt lat="43.62277" lon="6.62366">
        <ele>431.9</ele>
        <time>2023-11-26T13:28:40Z</time>
      </trkpt>
      <trkpt lat="43.62277" lon="6.62366">
        <ele>431.9</ele>
        <time>2023-11-26T13:28:41Z</time>
      </trkpt>
      <trkpt lat="43.62277" lon="6.62366">
        <ele>432</ele>
        <time>2023-11-26T13:28:42Z</time>
      </trkpt>
      <trkpt lat="43.62277" lon="6.62366">
        <ele>432</ele>
        <time>2023-11-26T13:28:43Z</time>
      </trkpt>
      <trkpt lat="43.62277" lon="6.62367">
        <ele>432</ele>
        <time>2023-11-26T13:28:44Z</time>
      </trkpt>
      <trkpt lat="43.62277" lon="6.62367">
        <ele>432.1</ele>
        <time>2023-11-26T13:28:45Z</time>
      </trkpt>
      <trkpt lat="43.62277" lon="6.62367">
        <ele>432.1</ele>
        <time>2023-11-26T13:28:46Z</time>
      </trkpt>
      <trkpt lat="43.62277" lon="6.62367">
        <ele>432.1</ele>
        <time>2023-11-26T13:28:47Z</time>
      </trkpt>
      <trkpt lat="43.62277" lon="6.62367">
        <ele>432.1</ele>
        <time>2023-11-26T13:28:48Z</time>
      </trkpt>
      <trkpt lat="43.62277" lon="6.62368">
        <ele>432</ele>
        <time>2023-11-26T13:28:49Z</time>
      </trkpt>
      <trkpt lat="43.62277" lon="6.62368">
        <ele>432</ele>
        <time>2023-11-26T13:28:50Z</time>
      </trkpt>
      <trkpt lat="43.62277" lon="6.62368">
        <ele>432</ele>
        <time>2023-11-26T13:28:51Z</time>
      </trkpt>
      <trkpt lat="43.62277" lon="6.62368">
        <ele>432</ele>
        <time>2023-11-26T13:28:52Z</time>
      </trkpt>
      <trkpt lat="43.62277" lon="6.62369">
        <ele>431.9</ele>
        <time>2023-11-26T13:28:53Z</time>
      </trkpt>
      <trkpt lat="43.62277" lon="6.62369">
        <ele>431.9</ele>
        <time>2023-11-26T13:28:54Z</time>
      </trkpt>
      <trkpt lat="43.62277" lon="6.62369">
        <ele>431.9</ele>
        <time>2023-11-26T13:28:55Z</time>
      </trkpt>
      <trkpt lat="43.62278" lon="6.62369">
        <ele>431.9</ele>
        <time>2023-11-26T13:28:56Z</time>
      </trkpt>
      <trkpt lat="43.62278" lon="6.62369">
        <ele>431.9</ele>
        <time>2023-11-26T13:28:57Z</time>
      </trkpt>
      <trkpt lat="43.62278" lon="6.6237">
        <ele>431.9</ele>
        <time>2023-11-26T13:28:58Z</time>
      </trkpt>
      <trkpt lat="43.62277" lon="6.6237">
        <ele>431.9</ele>
        <time>2023-11-26T13:28:59Z</time>
      </trkpt>
      <trkpt lat="43.62277" lon="6.6237">
        <ele>431.9</ele>
        <time>2023-11-26T13:29:00Z</time>
      </trkpt>
      <trkpt lat="43.62277" lon="6.6237">
        <ele>431.8</ele>
        <time>2023-11-26T13:29:01Z</time>
      </trkpt>
      <trkpt lat="43.62277" lon="6.6237">
        <ele>431.8</ele>
        <time>2023-11-26T13:29:02Z</time>
      </trkpt>
      <trkpt lat="43.62277" lon="6.6237">
        <ele>431.8</ele>
        <time>2023-11-26T13:29:03Z</time>
      </trkpt>
      <trkpt lat="43.62277" lon="6.62371">
        <ele>431.8</ele>
        <time>2023-11-26T13:29:04Z</time>
      </trkpt>
      <trkpt lat="43.62277" lon="6.62371">
        <ele>431.8</ele>
        <time>2023-11-26T13:29:05Z</time>
      </trkpt>
      <trkpt lat="43.62277" lon="6.62371">
        <ele>431.7</ele>
        <time>2023-11-26T13:29:06Z</time>
      </trkpt>
      <trkpt lat="43.62277" lon="6.62371">
        <ele>431.6</ele>
        <time>2023-11-26T13:29:07Z</time>
      </trkpt>
      <trkpt lat="43.62277" lon="6.62371">
        <ele>431.5</ele>
        <time>2023-11-26T13:29:08Z</time>
      </trkpt>
      <trkpt lat="43.62278" lon="6.62371">
        <ele>431.4</ele>
        <time>2023-11-26T13:29:09Z</time>
      </trkpt>
      <trkpt lat="43.62278" lon="6.62372">
        <ele>431.4</ele>
        <time>2023-11-26T13:29:10Z</time>
      </trkpt>
      <trkpt lat="43.62278" lon="6.62372">
        <ele>431.4</ele>
        <time>2023-11-26T13:29:11Z</time>
      </trkpt>
      <trkpt lat="43.62278" lon="6.62373">
        <ele>431.5</ele>
        <time>2023-11-26T13:29:12Z</time>
      </trkpt>
      <trkpt lat="43.62278" lon="6.62373">
        <ele>431.5</ele>
        <time>2023-11-26T13:29:13Z</time>
      </trkpt>
      <trkpt lat="43.62278" lon="6.62373">
        <ele>431.6</ele>
        <time>2023-11-26T13:29:14Z</time>
      </trkpt>
      <trkpt lat="43.62279" lon="6.62374">
        <ele>431.6</ele>
        <time>2023-11-26T13:29:15Z</time>
      </trkpt>
      <trkpt lat="43.62279" lon="6.62374">
        <ele>431.6</ele>
        <time>2023-11-26T13:29:16Z</time>
      </trkpt>
      <trkpt lat="43.62279" lon="6.62374">
        <ele>431.6</ele>
        <time>2023-11-26T13:29:17Z</time>
      </trkpt>
      <trkpt lat="43.62279" lon="6.62374">
        <ele>431.6</ele>
        <time>2023-11-26T13:29:18Z</time>
      </trkpt>
      <trkpt lat="43.62279" lon="6.62374">
        <ele>431.6</ele>
        <time>2023-11-26T13:29:19Z</time>
      </trkpt>
      <trkpt lat="43.62279" lon="6.62374">
        <ele>431.7</ele>
        <time>2023-11-26T13:29:20Z</time>
      </trkpt>
      <trkpt lat="43.62279" lon="6.62374">
        <ele>431.7</ele>
        <time>2023-11-26T13:29:21Z</time>
      </trkpt>
      <trkpt lat="43.62279" lon="6.62374">
        <ele>431.7</ele>
        <time>2023-11-26T13:29:22Z</time>
      </trkpt>
      <trkpt lat="43.62279" lon="6.62374">
        <ele>431.8</ele>
        <time>2023-11-26T13:29:23Z</time>
      </trkpt>
      <trkpt lat="43.62279" lon="6.62374">
        <ele>431.7</ele>
        <time>2023-11-26T13:29:24Z</time>
      </trkpt>
      <trkpt lat="43.6228" lon="6.62374">
        <ele>431.7</ele>
        <time>2023-11-26T13:29:25Z</time>
      </trkpt>
      <trkpt lat="43.6228" lon="6.62374">
        <ele>431.7</ele>
        <time>2023-11-26T13:29:26Z</time>
      </trkpt>
      <trkpt lat="43.6228" lon="6.62374">
        <ele>431.7</ele>
        <time>2023-11-26T13:29:27Z</time>
      </trkpt>
      <trkpt lat="43.6228" lon="6.62374">
        <ele>431.7</ele>
        <time>2023-11-26T13:29:28Z</time>
      </trkpt>
      <trkpt lat="43.62279" lon="6.62374">
        <ele>431.8</ele>
        <time>2023-11-26T13:29:29Z</time>
      </trkpt>
      <trkpt lat="43.6228" lon="6.62374">
        <ele>431.9</ele>
        <time>2023-11-26T13:29:30Z</time>
      </trkpt>
      <trkpt lat="43.6228" lon="6.62374">
        <ele>431.9</ele>
        <time>2023-11-26T13:29:31Z</time>
      </trkpt>
      <trkpt lat="43.6228" lon="6.62374">
        <ele>431.9</ele>
        <time>2023-11-26T13:29:32Z</time>
      </trkpt>
      <trkpt lat="43.6228" lon="6.62374">
        <ele>431.9</ele>
        <time>2023-11-26T13:29:33Z</time>
      </trkpt>
      <trkpt lat="43.62279" lon="6.62374">
        <ele>431.9</ele>
        <time>2023-11-26T13:29:34Z</time>
      </trkpt>
      <trkpt lat="43.62279" lon="6.62373">
        <ele>431.9</ele>
        <time>2023-11-26T13:29:35Z</time>
      </trkpt>
      <trkpt lat="43.62279" lon="6.62374">
        <ele>431.9</ele>
        <time>2023-11-26T13:29:36Z</time>
      </trkpt>
      <trkpt lat="43.62278" lon="6.62374">
        <ele>431.9</ele>
        <time>2023-11-26T13:29:37Z</time>
      </trkpt>
      <trkpt lat="43.62277" lon="6.62373">
        <ele>431.5</ele>
        <time>2023-11-26T13:29:38Z</time>
      </trkpt>
      <trkpt lat="43.62277" lon="6.62374">
        <ele>431.5</ele>
        <time>2023-11-26T13:29:39Z</time>
      </trkpt>
      <trkpt lat="43.62277" lon="6.62374">
        <ele>431.6</ele>
        <time>2023-11-26T13:29:40Z</time>
      </trkpt>
      <trkpt lat="43.62278" lon="6.62374">
        <ele>431.6</ele>
        <time>2023-11-26T13:29:41Z</time>
      </trkpt>
      <trkpt lat="43.62278" lon="6.62374">
        <ele>431.6</ele>
        <time>2023-11-26T13:29:42Z</time>
      </trkpt>
      <trkpt lat="43.62278" lon="6.62374">
        <ele>431.6</ele>
        <time>2023-11-26T13:29:43Z</time>
      </trkpt>
      <trkpt lat="43.62278" lon="6.62374">
        <ele>431.6</ele>
        <time>2023-11-26T13:29:44Z</time>
      </trkpt>
      <trkpt lat="43.62278" lon="6.62374">
        <ele>431.8</ele>
        <time>2023-11-26T13:29:45Z</time>
      </trkpt>
      <trkpt lat="43.62279" lon="6.62374">
        <ele>431.8</ele>
        <time>2023-11-26T13:29:46Z</time>
      </trkpt>
      <trkpt lat="43.62279" lon="6.62374">
        <ele>431.8</ele>
        <time>2023-11-26T13:29:47Z</time>
      </trkpt>
      <trkpt lat="43.62279" lon="6.62374">
        <ele>431.8</ele>
        <time>2023-11-26T13:29:48Z</time>
      </trkpt>
      <trkpt lat="43.62279" lon="6.62373">
        <ele>431.7</ele>
        <time>2023-11-26T13:29:49Z</time>
      </trkpt>
      <trkpt lat="43.62279" lon="6.62373">
        <ele>431.7</ele>
        <time>2023-11-26T13:29:50Z</time>
      </trkpt>
      <trkpt lat="43.62279" lon="6.62373">
        <ele>431.7</ele>
        <time>2023-11-26T13:29:51Z</time>
      </trkpt>
      <trkpt lat="43.62279" lon="6.62373">
        <ele>431.7</ele>
        <time>2023-11-26T13:29:52Z</time>
      </trkpt>
      <trkpt lat="43.62279" lon="6.62373">
        <ele>431.7</ele>
        <time>2023-11-26T13:29:53Z</time>
      </trkpt>
      <trkpt lat="43.62279" lon="6.62372">
        <ele>431.6</ele>
        <time>2023-11-26T13:29:54Z</time>
      </trkpt>
      <trkpt lat="43.6228" lon="6.62372">
        <ele>431.7</ele>
        <time>2023-11-26T13:29:55Z</time>
      </trkpt>
      <trkpt lat="43.6228" lon="6.62372">
        <ele>431.7</ele>
        <time>2023-11-26T13:29:56Z</time>
      </trkpt>
      <trkpt lat="43.6228" lon="6.62372">
        <ele>431.7</ele>
        <time>2023-11-26T13:29:57Z</time>
      </trkpt>
      <trkpt lat="43.6228" lon="6.62372">
        <ele>431.8</ele>
        <time>2023-11-26T13:29:58Z</time>
      </trkpt>
      <trkpt lat="43.6228" lon="6.62372">
        <ele>431.7</ele>
        <time>2023-11-26T13:29:59Z</time>
      </trkpt>
      <trkpt lat="43.62281" lon="6.62372">
        <ele>431.7</ele>
        <time>2023-11-26T13:30:00Z</time>
      </trkpt>
      <trkpt lat="43.6228" lon="6.62372">
        <ele>431.7</ele>
        <time>2023-11-26T13:30:01Z</time>
      </trkpt>
      <trkpt lat="43.6228" lon="6.62372">
        <ele>431.7</ele>
        <time>2023-11-26T13:30:02Z</time>
      </trkpt>
      <trkpt lat="43.6228" lon="6.62372">
        <ele>431.6</ele>
        <time>2023-11-26T13:30:03Z</time>
      </trkpt>
      <trkpt lat="43.6228" lon="6.62371">
        <ele>431.6</ele>
        <time>2023-11-26T13:30:04Z</time>
      </trkpt>
      <trkpt lat="43.6228" lon="6.62371">
        <ele>431.6</ele>
        <time>2023-11-26T13:30:05Z</time>
      </trkpt>
      <trkpt lat="43.6228" lon="6.62371">
        <ele>431.6</ele>
        <time>2023-11-26T13:30:06Z</time>
      </trkpt>
      <trkpt lat="43.6228" lon="6.62371">
        <ele>431.6</ele>
        <time>2023-11-26T13:30:07Z</time>
      </trkpt>
      <trkpt lat="43.62281" lon="6.62371">
        <ele>431.5</ele>
        <time>2023-11-26T13:30:08Z</time>
      </trkpt>
      <trkpt lat="43.62281" lon="6.62371">
        <ele>431.5</ele>
        <time>2023-11-26T13:30:09Z</time>
      </trkpt>
      <trkpt lat="43.6228" lon="6.62371">
        <ele>431.6</ele>
        <time>2023-11-26T13:30:10Z</time>
      </trkpt>
      <trkpt lat="43.6228" lon="6.62371">
        <ele>431.7</ele>
        <time>2023-11-26T13:30:11Z</time>
      </trkpt>
      <trkpt lat="43.6228" lon="6.62371">
        <ele>431.8</ele>
        <time>2023-11-26T13:30:12Z</time>
      </trkpt>
      <trkpt lat="43.6228" lon="6.62371">
        <ele>431.8</ele>
        <time>2023-11-26T13:30:13Z</time>
      </trkpt>
      <trkpt lat="43.6228" lon="6.62371">
        <ele>431.8</ele>
        <time>2023-11-26T13:30:14Z</time>
      </trkpt>
      <trkpt lat="43.6228" lon="6.6237">
        <ele>431.8</ele>
        <time>2023-11-26T13:30:15Z</time>
      </trkpt>
      <trkpt lat="43.6228" lon="6.6237">
        <ele>431.9</ele>
        <time>2023-11-26T13:30:16Z</time>
      </trkpt>
      <trkpt lat="43.6228" lon="6.6237">
        <ele>431.9</ele>
        <time>2023-11-26T13:30:17Z</time>
      </trkpt>
      <trkpt lat="43.6228" lon="6.6237">
        <ele>431.9</ele>
        <time>2023-11-26T13:30:18Z</time>
      </trkpt>
      <trkpt lat="43.6228" lon="6.6237">
        <ele>431.9</ele>
        <time>2023-11-26T13:30:19Z</time>
      </trkpt>
      <trkpt lat="43.6228" lon="6.6237">
        <ele>431.9</ele>
        <time>2023-11-26T13:30:20Z</time>
      </trkpt>
      <trkpt lat="43.6228" lon="6.6237">
        <ele>431.9</ele>
        <time>2023-11-26T13:30:21Z</time>
      </trkpt>
      <trkpt lat="43.6228" lon="6.6237">
        <ele>431.8</ele>
        <time>2023-11-26T13:30:22Z</time>
      </trkpt>
      <trkpt lat="43.62279" lon="6.6237">
        <ele>431.8</ele>
        <time>2023-11-26T13:30:23Z</time>
      </trkpt>
      <trkpt lat="43.62279" lon="6.6237">
        <ele>431.8</ele>
        <time>2023-11-26T13:30:24Z</time>
      </trkpt>
      <trkpt lat="43.62279" lon="6.62369">
        <ele>431.7</ele>
        <time>2023-11-26T13:30:25Z</time>
      </trkpt>
      <trkpt lat="43.62279" lon="6.62369">
        <ele>431.7</ele>
        <time>2023-11-26T13:30:26Z</time>
      </trkpt>
      <trkpt lat="43.62279" lon="6.62369">
        <ele>431.8</ele>
        <time>2023-11-26T13:30:27Z</time>
      </trkpt>
      <trkpt lat="43.62279" lon="6.62369">
        <ele>431.8</ele>
        <time>2023-11-26T13:30:28Z</time>
      </trkpt>
      <trkpt lat="43.62279" lon="6.62369">
        <ele>432</ele>
        <time>2023-11-26T13:30:29Z</time>
      </trkpt>
      <trkpt lat="43.6228" lon="6.62369">
        <ele>432</ele>
        <time>2023-11-26T13:30:30Z</time>
      </trkpt>
      <trkpt lat="43.62279" lon="6.62369">
        <ele>432</ele>
        <time>2023-11-26T13:30:31Z</time>
      </trkpt>
      <trkpt lat="43.62279" lon="6.62369">
        <ele>431.9</ele>
        <time>2023-11-26T13:30:32Z</time>
      </trkpt>
      <trkpt lat="43.62279" lon="6.62369">
        <ele>431.9</ele>
        <time>2023-11-26T13:30:33Z</time>
      </trkpt>
      <trkpt lat="43.62279" lon="6.62369">
        <ele>432</ele>
        <time>2023-11-26T13:30:34Z</time>
      </trkpt>
      <trkpt lat="43.62279" lon="6.6237">
        <ele>432</ele>
        <time>2023-11-26T13:30:35Z</time>
      </trkpt>
      <trkpt lat="43.62279" lon="6.6237">
        <ele>432</ele>
        <time>2023-11-26T13:30:36Z</time>
      </trkpt>
      <trkpt lat="43.62278" lon="6.6237">
        <ele>431.9</ele>
        <time>2023-11-26T13:30:37Z</time>
      </trkpt>
      <trkpt lat="43.62278" lon="6.6237">
        <ele>431.9</ele>
        <time>2023-11-26T13:30:38Z</time>
      </trkpt>
      <trkpt lat="43.62278" lon="6.6237">
        <ele>431.9</ele>
        <time>2023-11-26T13:30:39Z</time>
      </trkpt>
      <trkpt lat="43.62278" lon="6.6237">
        <ele>431.8</ele>
        <time>2023-11-26T13:30:40Z</time>
      </trkpt>
      <trkpt lat="43.62278" lon="6.6237">
        <ele>431.7</ele>
        <time>2023-11-26T13:30:41Z</time>
      </trkpt>
      <trkpt lat="43.62278" lon="6.6237">
        <ele>431.7</ele>
        <time>2023-11-26T13:30:42Z</time>
      </trkpt>
      <trkpt lat="43.62279" lon="6.62369">
        <ele>431.6</ele>
        <time>2023-11-26T13:30:43Z</time>
      </trkpt>
      <trkpt lat="43.62279" lon="6.62369">
        <ele>431.6</ele>
        <time>2023-11-26T13:30:44Z</time>
      </trkpt>
      <trkpt lat="43.62278" lon="6.62369">
        <ele>431.6</ele>
        <time>2023-11-26T13:30:45Z</time>
      </trkpt>
      <trkpt lat="43.62278" lon="6.62369">
        <ele>431.6</ele>
        <time>2023-11-26T13:30:46Z</time>
      </trkpt>
      <trkpt lat="43.62278" lon="6.6237">
        <ele>431.7</ele>
        <time>2023-11-26T13:30:47Z</time>
      </trkpt>
      <trkpt lat="43.62278" lon="6.62371">
        <ele>431.8</ele>
        <time>2023-11-26T13:30:48Z</time>
      </trkpt>
      <trkpt lat="43.62278" lon="6.62372">
        <ele>431.8</ele>
        <time>2023-11-26T13:30:49Z</time>
      </trkpt>
      <trkpt lat="43.62279" lon="6.62373">
        <ele>431.8</ele>
        <time>2023-11-26T13:30:50Z</time>
      </trkpt>
      <trkpt lat="43.6228" lon="6.62374">
        <ele>431.9</ele>
        <time>2023-11-26T13:30:51Z</time>
      </trkpt>
      <trkpt lat="43.62281" lon="6.62374">
        <ele>431.7</ele>
        <time>2023-11-26T13:30:52Z</time>
      </trkpt>
      <trkpt lat="43.62282" lon="6.62375">
        <ele>431.6</ele>
        <time>2023-11-26T13:30:53Z</time>
      </trkpt>
      <trkpt lat="43.62282" lon="6.62377">
        <ele>431.7</ele>
        <time>2023-11-26T13:30:54Z</time>
      </trkpt>
      <trkpt lat="43.62283" lon="6.62379">
        <ele>431.8</ele>
        <time>2023-11-26T13:30:55Z</time>
      </trkpt>
      <trkpt lat="43.62284" lon="6.6238">
        <ele>431.9</ele>
        <time>2023-11-26T13:30:56Z</time>
      </trkpt>
      <trkpt lat="43.62284" lon="6.62382">
        <ele>432</ele>
        <time>2023-11-26T13:30:57Z</time>
      </trkpt>
      <trkpt lat="43.62285" lon="6.62383">
        <ele>432</ele>
        <time>2023-11-26T13:30:58Z</time>
      </trkpt>
      <trkpt lat="43.62286" lon="6.62385">
        <ele>432</ele>
        <time>2023-11-26T13:30:59Z</time>
      </trkpt>
      <trkpt lat="43.62287" lon="6.62386">
        <ele>432.1</ele>
        <time>2023-11-26T13:31:00Z</time>
      </trkpt>
      <trkpt lat="43.62288" lon="6.62387">
        <ele>432.1</ele>
        <time>2023-11-26T13:31:01Z</time>
      </trkpt>
      <trkpt lat="43.62288" lon="6.62388">
        <ele>432.1</ele>
        <time>2023-11-26T13:31:02Z</time>
      </trkpt>
      <trkpt lat="43.62289" lon="6.62389">
        <ele>432.2</ele>
        <time>2023-11-26T13:31:03Z</time>
      </trkpt>
      <trkpt lat="43.62289" lon="6.6239">
        <ele>432.2</ele>
        <time>2023-11-26T13:31:04Z</time>
      </trkpt>
      <trkpt lat="43.6229" lon="6.6239">
        <ele>432.2</ele>
        <time>2023-11-26T13:31:05Z</time>
      </trkpt>
      <trkpt lat="43.6229" lon="6.62391">
        <ele>432.2</ele>
        <time>2023-11-26T13:31:06Z</time>
      </trkpt>
      <trkpt lat="43.62291" lon="6.62392">
        <ele>432.3</ele>
        <time>2023-11-26T13:31:07Z</time>
      </trkpt>
      <trkpt lat="43.62292" lon="6.62393">
        <ele>432.4</ele>
        <time>2023-11-26T13:31:08Z</time>
      </trkpt>
      <trkpt lat="43.62293" lon="6.62394">
        <ele>432.5</ele>
        <time>2023-11-26T13:31:09Z</time>
      </trkpt>
      <trkpt lat="43.62293" lon="6.62396">
        <ele>432.5</ele>
        <time>2023-11-26T13:31:10Z</time>
      </trkpt>
      <trkpt lat="43.62294" lon="6.62397">
        <ele>432.6</ele>
        <time>2023-11-26T13:31:11Z</time>
      </trkpt>
      <trkpt lat="43.62295" lon="6.62398">
        <ele>432.6</ele>
        <time>2023-11-26T13:31:12Z</time>
      </trkpt>
      <trkpt lat="43.62295" lon="6.62399">
        <ele>432.6</ele>
        <time>2023-11-26T13:31:13Z</time>
      </trkpt>
      <trkpt lat="43.62296" lon="6.624">
        <ele>432.7</ele>
        <time>2023-11-26T13:31:14Z</time>
      </trkpt>
      <trkpt lat="43.62296" lon="6.62401">
        <ele>432.7</ele>
        <time>2023-11-26T13:31:15Z</time>
      </trkpt>
      <trkpt lat="43.62298" lon="6.62402">
        <ele>432.8</ele>
        <time>2023-11-26T13:31:16Z</time>
      </trkpt>
      <trkpt lat="43.62299" lon="6.62403">
        <ele>432.8</ele>
        <time>2023-11-26T13:31:17Z</time>
      </trkpt>
      <trkpt lat="43.623" lon="6.62403">
        <ele>433</ele>
        <time>2023-11-26T13:31:18Z</time>
      </trkpt>
      <trkpt lat="43.62301" lon="6.62404">
        <ele>433</ele>
        <time>2023-11-26T13:31:19Z</time>
      </trkpt>
      <trkpt lat="43.62301" lon="6.62405">
        <ele>433.1</ele>
        <time>2023-11-26T13:31:20Z</time>
      </trkpt>
      <trkpt lat="43.62302" lon="6.62406">
        <ele>432.8</ele>
        <time>2023-11-26T13:31:21Z</time>
      </trkpt>
      <trkpt lat="43.62303" lon="6.62407">
        <ele>432.9</ele>
        <time>2023-11-26T13:31:22Z</time>
      </trkpt>
      <trkpt lat="43.62304" lon="6.62408">
        <ele>433</ele>
        <time>2023-11-26T13:31:23Z</time>
      </trkpt>
      <trkpt lat="43.62306" lon="6.62408">
        <ele>433.2</ele>
        <time>2023-11-26T13:31:24Z</time>
      </trkpt>
      <trkpt lat="43.62306" lon="6.62409">
        <ele>434.1</ele>
        <time>2023-11-26T13:31:25Z</time>
      </trkpt>
      <trkpt lat="43.62307" lon="6.6241">
        <ele>434.1</ele>
        <time>2023-11-26T13:31:26Z</time>
      </trkpt>
      <trkpt lat="43.62308" lon="6.6241">
        <ele>434.1</ele>
        <time>2023-11-26T13:31:27Z</time>
      </trkpt>
      <trkpt lat="43.62309" lon="6.62411">
        <ele>434.1</ele>
        <time>2023-11-26T13:31:28Z</time>
      </trkpt>
      <trkpt lat="43.62311" lon="6.62412">
        <ele>434.1</ele>
        <time>2023-11-26T13:31:29Z</time>
      </trkpt>
      <trkpt lat="43.62312" lon="6.62413">
        <ele>434.1</ele>
        <time>2023-11-26T13:31:30Z</time>
      </trkpt>
      <trkpt lat="43.62312" lon="6.62413">
        <ele>434</ele>
        <time>2023-11-26T13:31:31Z</time>
      </trkpt>
      <trkpt lat="43.62313" lon="6.62414">
        <ele>434</ele>
        <time>2023-11-26T13:31:32Z</time>
      </trkpt>
      <trkpt lat="43.62315" lon="6.62414">
        <ele>434.1</ele>
        <time>2023-11-26T13:31:33Z</time>
      </trkpt>
      <trkpt lat="43.62316" lon="6.62415">
        <ele>434.1</ele>
        <time>2023-11-26T13:31:34Z</time>
      </trkpt>
      <trkpt lat="43.62317" lon="6.62416">
        <ele>434.1</ele>
        <time>2023-11-26T13:31:35Z</time>
      </trkpt>
      <trkpt lat="43.62318" lon="6.62416">
        <ele>434.2</ele>
        <time>2023-11-26T13:31:36Z</time>
      </trkpt>
      <trkpt lat="43.62319" lon="6.62417">
        <ele>434.2</ele>
        <time>2023-11-26T13:31:37Z</time>
      </trkpt>
      <trkpt lat="43.62321" lon="6.62417">
        <ele>434.2</ele>
        <time>2023-11-26T13:31:38Z</time>
      </trkpt>
      <trkpt lat="43.62321" lon="6.62419">
        <ele>434.3</ele>
        <time>2023-11-26T13:31:39Z</time>
      </trkpt>
      <trkpt lat="43.62322" lon="6.62419">
        <ele>434.4</ele>
        <time>2023-11-26T13:31:40Z</time>
      </trkpt>
      <trkpt lat="43.62323" lon="6.6242">
        <ele>434.5</ele>
        <time>2023-11-26T13:31:41Z</time>
      </trkpt>
      <trkpt lat="43.62324" lon="6.6242">
        <ele>434.6</ele>
        <time>2023-11-26T13:31:42Z</time>
      </trkpt>
      <trkpt lat="43.62326" lon="6.6242">
        <ele>434.7</ele>
        <time>2023-11-26T13:31:43Z</time>
      </trkpt>
      <trkpt lat="43.62327" lon="6.6242">
        <ele>434.7</ele>
        <time>2023-11-26T13:31:44Z</time>
      </trkpt>
      <trkpt lat="43.62328" lon="6.62421">
        <ele>434.8</ele>
        <time>2023-11-26T13:31:45Z</time>
      </trkpt>
      <trkpt lat="43.62329" lon="6.62421">
        <ele>435</ele>
        <time>2023-11-26T13:31:46Z</time>
      </trkpt>
      <trkpt lat="43.6233" lon="6.62422">
        <ele>435.1</ele>
        <time>2023-11-26T13:31:47Z</time>
      </trkpt>
      <trkpt lat="43.62332" lon="6.62423">
        <ele>435.1</ele>
        <time>2023-11-26T13:31:48Z</time>
      </trkpt>
      <trkpt lat="43.62333" lon="6.62424">
        <ele>435.2</ele>
        <time>2023-11-26T13:31:49Z</time>
      </trkpt>
      <trkpt lat="43.62334" lon="6.62425">
        <ele>435.2</ele>
        <time>2023-11-26T13:31:50Z</time>
      </trkpt>
      <trkpt lat="43.62335" lon="6.62426">
        <ele>435.2</ele>
        <time>2023-11-26T13:31:51Z</time>
      </trkpt>
      <trkpt lat="43.62336" lon="6.62426">
        <ele>435.2</ele>
        <time>2023-11-26T13:31:52Z</time>
      </trkpt>
      <trkpt lat="43.62337" lon="6.62427">
        <ele>435.1</ele>
        <time>2023-11-26T13:31:53Z</time>
      </trkpt>
      <trkpt lat="43.62338" lon="6.62428">
        <ele>435.1</ele>
        <time>2023-11-26T13:31:54Z</time>
      </trkpt>
      <trkpt lat="43.62339" lon="6.62429">
        <ele>435</ele>
        <time>2023-11-26T13:31:55Z</time>
      </trkpt>
      <trkpt lat="43.6234" lon="6.6243">
        <ele>434.9</ele>
        <time>2023-11-26T13:31:56Z</time>
      </trkpt>
      <trkpt lat="43.6234" lon="6.62431">
        <ele>434.9</ele>
        <time>2023-11-26T13:31:57Z</time>
      </trkpt>
      <trkpt lat="43.62342" lon="6.62431">
        <ele>434.8</ele>
        <time>2023-11-26T13:31:58Z</time>
      </trkpt>
      <trkpt lat="43.62343" lon="6.62432">
        <ele>434.8</ele>
        <time>2023-11-26T13:31:59Z</time>
      </trkpt>
      <trkpt lat="43.62344" lon="6.62433">
        <ele>434.8</ele>
        <time>2023-11-26T13:32:00Z</time>
      </trkpt>
      <trkpt lat="43.62344" lon="6.62433">
        <ele>434.7</ele>
        <time>2023-11-26T13:32:01Z</time>
      </trkpt>
      <trkpt lat="43.62345" lon="6.62434">
        <ele>434.6</ele>
        <time>2023-11-26T13:32:02Z</time>
      </trkpt>
      <trkpt lat="43.62346" lon="6.62435">
        <ele>434.6</ele>
        <time>2023-11-26T13:32:03Z</time>
      </trkpt>
      <trkpt lat="43.62346" lon="6.62435">
        <ele>434.6</ele>
        <time>2023-11-26T13:32:04Z</time>
      </trkpt>
      <trkpt lat="43.62347" lon="6.62436">
        <ele>434.6</ele>
        <time>2023-11-26T13:32:05Z</time>
      </trkpt>
      <trkpt lat="43.62347" lon="6.62437">
        <ele>434.6</ele>
        <time>2023-11-26T13:32:06Z</time>
      </trkpt>
      <trkpt lat="43.62348" lon="6.62438">
        <ele>434.6</ele>
        <time>2023-11-26T13:32:07Z</time>
      </trkpt>
      <trkpt lat="43.62348" lon="6.6244">
        <ele>434.6</ele>
        <time>2023-11-26T13:32:08Z</time>
      </trkpt>
      <trkpt lat="43.62348" lon="6.62441">
        <ele>434.6</ele>
        <time>2023-11-26T13:32:09Z</time>
      </trkpt>
      <trkpt lat="43.62348" lon="6.62441">
        <ele>434.6</ele>
        <time>2023-11-26T13:32:10Z</time>
      </trkpt>
      <trkpt lat="43.62348" lon="6.62443">
        <ele>434.7</ele>
        <time>2023-11-26T13:32:11Z</time>
      </trkpt>
      <trkpt lat="43.62348" lon="6.62444">
        <ele>434.7</ele>
        <time>2023-11-26T13:32:12Z</time>
      </trkpt>
      <trkpt lat="43.62349" lon="6.62444">
        <ele>434.8</ele>
        <time>2023-11-26T13:32:13Z</time>
      </trkpt>
      <trkpt lat="43.62349" lon="6.62446">
        <ele>434.8</ele>
        <time>2023-11-26T13:32:14Z</time>
      </trkpt>
      <trkpt lat="43.62349" lon="6.62447">
        <ele>435</ele>
        <time>2023-11-26T13:32:15Z</time>
      </trkpt>
      <trkpt lat="43.62349" lon="6.62448">
        <ele>435.2</ele>
        <time>2023-11-26T13:32:16Z</time>
      </trkpt>
      <trkpt lat="43.62349" lon="6.62449">
        <ele>435.3</ele>
        <time>2023-11-26T13:32:17Z</time>
      </trkpt>
      <trkpt lat="43.62349" lon="6.62451">
        <ele>435.3</ele>
        <time>2023-11-26T13:32:18Z</time>
      </trkpt>
      <trkpt lat="43.62349" lon="6.62453">
        <ele>435.4</ele>
        <time>2023-11-26T13:32:19Z</time>
      </trkpt>
      <trkpt lat="43.6235" lon="6.62454">
        <ele>435.4</ele>
        <time>2023-11-26T13:32:20Z</time>
      </trkpt>
      <trkpt lat="43.6235" lon="6.62455">
        <ele>435.4</ele>
        <time>2023-11-26T13:32:21Z</time>
      </trkpt>
      <trkpt lat="43.62351" lon="6.62457">
        <ele>435.4</ele>
        <time>2023-11-26T13:32:22Z</time>
      </trkpt>
      <trkpt lat="43.62351" lon="6.62458">
        <ele>435.4</ele>
        <time>2023-11-26T13:32:23Z</time>
      </trkpt>
      <trkpt lat="43.62351" lon="6.6246">
        <ele>435.3</ele>
        <time>2023-11-26T13:32:24Z</time>
      </trkpt>
      <trkpt lat="43.62352" lon="6.62461">
        <ele>435.3</ele>
        <time>2023-11-26T13:32:25Z</time>
      </trkpt>
      <trkpt lat="43.62352" lon="6.62462">
        <ele>435.4</ele>
        <time>2023-11-26T13:32:26Z</time>
      </trkpt>
      <trkpt lat="43.62352" lon="6.62463">
        <ele>435.4</ele>
        <time>2023-11-26T13:32:27Z</time>
      </trkpt>
      <trkpt lat="43.62352" lon="6.62464">
        <ele>435.4</ele>
        <time>2023-11-26T13:32:28Z</time>
      </trkpt>
      <trkpt lat="43.62353" lon="6.62466">
        <ele>435.4</ele>
        <time>2023-11-26T13:32:29Z</time>
      </trkpt>
      <trkpt lat="43.62353" lon="6.62466">
        <ele>435.5</ele>
        <time>2023-11-26T13:32:30Z</time>
      </trkpt>
      <trkpt lat="43.62353" lon="6.62468">
        <ele>435.6</ele>
        <time>2023-11-26T13:32:31Z</time>
      </trkpt>
      <trkpt lat="43.62353" lon="6.6247">
        <ele>435.6</ele>
        <time>2023-11-26T13:32:32Z</time>
      </trkpt>
      <trkpt lat="43.62354" lon="6.62472">
        <ele>435.7</ele>
        <time>2023-11-26T13:32:33Z</time>
      </trkpt>
      <trkpt lat="43.62354" lon="6.62473">
        <ele>435.7</ele>
        <time>2023-11-26T13:32:34Z</time>
      </trkpt>
      <trkpt lat="43.62354" lon="6.62475">
        <ele>435.8</ele>
        <time>2023-11-26T13:32:35Z</time>
      </trkpt>
      <trkpt lat="43.62355" lon="6.62476">
        <ele>435.9</ele>
        <time>2023-11-26T13:32:36Z</time>
      </trkpt>
      <trkpt lat="43.62355" lon="6.62478">
        <ele>436</ele>
        <time>2023-11-26T13:32:37Z</time>
      </trkpt>
      <trkpt lat="43.62355" lon="6.62479">
        <ele>436.1</ele>
        <time>2023-11-26T13:32:38Z</time>
      </trkpt>
      <trkpt lat="43.62356" lon="6.62481">
        <ele>436.2</ele>
        <time>2023-11-26T13:32:39Z</time>
      </trkpt>
      <trkpt lat="43.62356" lon="6.62482">
        <ele>436.3</ele>
        <time>2023-11-26T13:32:40Z</time>
      </trkpt>
      <trkpt lat="43.62356" lon="6.62484">
        <ele>436.3</ele>
        <time>2023-11-26T13:32:41Z</time>
      </trkpt>
      <trkpt lat="43.62356" lon="6.62486">
        <ele>436.3</ele>
        <time>2023-11-26T13:32:42Z</time>
      </trkpt>
      <trkpt lat="43.62357" lon="6.62487">
        <ele>436.4</ele>
        <time>2023-11-26T13:32:43Z</time>
      </trkpt>
      <trkpt lat="43.62357" lon="6.62489">
        <ele>436.4</ele>
        <time>2023-11-26T13:32:44Z</time>
      </trkpt>
      <trkpt lat="43.62358" lon="6.6249">
        <ele>436.5</ele>
        <time>2023-11-26T13:32:45Z</time>
      </trkpt>
      <trkpt lat="43.62358" lon="6.62492">
        <ele>436.6</ele>
        <time>2023-11-26T13:32:46Z</time>
      </trkpt>
      <trkpt lat="43.62359" lon="6.62494">
        <ele>436.7</ele>
        <time>2023-11-26T13:32:47Z</time>
      </trkpt>
      <trkpt lat="43.6236" lon="6.62495">
        <ele>436.8</ele>
        <time>2023-11-26T13:32:48Z</time>
      </trkpt>
      <trkpt lat="43.62361" lon="6.62497">
        <ele>436.9</ele>
        <time>2023-11-26T13:32:49Z</time>
      </trkpt>
      <trkpt lat="43.62361" lon="6.62499">
        <ele>437</ele>
        <time>2023-11-26T13:32:50Z</time>
      </trkpt>
      <trkpt lat="43.62361" lon="6.62501">
        <ele>437</ele>
        <time>2023-11-26T13:32:51Z</time>
      </trkpt>
      <trkpt lat="43.62361" lon="6.62502">
        <ele>437.1</ele>
        <time>2023-11-26T13:32:52Z</time>
      </trkpt>
      <trkpt lat="43.62361" lon="6.62503">
        <ele>437.2</ele>
        <time>2023-11-26T13:32:53Z</time>
      </trkpt>
      <trkpt lat="43.62361" lon="6.62505">
        <ele>437.3</ele>
        <time>2023-11-26T13:32:54Z</time>
      </trkpt>
      <trkpt lat="43.62361" lon="6.62506">
        <ele>437.4</ele>
        <time>2023-11-26T13:32:55Z</time>
      </trkpt>
      <trkpt lat="43.62362" lon="6.62507">
        <ele>437.5</ele>
        <time>2023-11-26T13:32:56Z</time>
      </trkpt>
      <trkpt lat="43.62362" lon="6.62508">
        <ele>437.5</ele>
        <time>2023-11-26T13:32:57Z</time>
      </trkpt>
      <trkpt lat="43.62362" lon="6.62509">
        <ele>437.5</ele>
        <time>2023-11-26T13:32:58Z</time>
      </trkpt>
      <trkpt lat="43.62362" lon="6.62511">
        <ele>437.6</ele>
        <time>2023-11-26T13:32:59Z</time>
      </trkpt>
      <trkpt lat="43.62363" lon="6.62512">
        <ele>437.6</ele>
        <time>2023-11-26T13:33:00Z</time>
      </trkpt>
      <trkpt lat="43.62363" lon="6.62514">
        <ele>437.8</ele>
        <time>2023-11-26T13:33:01Z</time>
      </trkpt>
      <trkpt lat="43.62363" lon="6.62516">
        <ele>438</ele>
        <time>2023-11-26T13:33:02Z</time>
      </trkpt>
      <trkpt lat="43.62364" lon="6.62517">
        <ele>438.1</ele>
        <time>2023-11-26T13:33:03Z</time>
      </trkpt>
      <trkpt lat="43.62364" lon="6.62519">
        <ele>438.3</ele>
        <time>2023-11-26T13:33:04Z</time>
      </trkpt>
      <trkpt lat="43.62364" lon="6.62521">
        <ele>438.5</ele>
        <time>2023-11-26T13:33:05Z</time>
      </trkpt>
      <trkpt lat="43.62364" lon="6.62522">
        <ele>438.7</ele>
        <time>2023-11-26T13:33:06Z</time>
      </trkpt>
      <trkpt lat="43.62365" lon="6.62524">
        <ele>438.9</ele>
        <time>2023-11-26T13:33:07Z</time>
      </trkpt>
      <trkpt lat="43.62366" lon="6.62525">
        <ele>439.1</ele>
        <time>2023-11-26T13:33:08Z</time>
      </trkpt>
      <trkpt lat="43.62367" lon="6.62526">
        <ele>439.3</ele>
        <time>2023-11-26T13:33:09Z</time>
      </trkpt>
      <trkpt lat="43.62369" lon="6.62527">
        <ele>439.4</ele>
        <time>2023-11-26T13:33:10Z</time>
      </trkpt>
      <trkpt lat="43.6237" lon="6.62528">
        <ele>439.5</ele>
        <time>2023-11-26T13:33:11Z</time>
      </trkpt>
      <trkpt lat="43.6237" lon="6.6253">
        <ele>439.6</ele>
        <time>2023-11-26T13:33:12Z</time>
      </trkpt>
      <trkpt lat="43.6237" lon="6.62532">
        <ele>439.7</ele>
        <time>2023-11-26T13:33:13Z</time>
      </trkpt>
      <trkpt lat="43.62371" lon="6.62534">
        <ele>439.8</ele>
        <time>2023-11-26T13:33:14Z</time>
      </trkpt>
      <trkpt lat="43.62372" lon="6.62535">
        <ele>439.9</ele>
        <time>2023-11-26T13:33:15Z</time>
      </trkpt>
      <trkpt lat="43.62372" lon="6.62536">
        <ele>440.1</ele>
        <time>2023-11-26T13:33:16Z</time>
      </trkpt>
      <trkpt lat="43.62373" lon="6.62537">
        <ele>440.2</ele>
        <time>2023-11-26T13:33:17Z</time>
      </trkpt>
      <trkpt lat="43.62374" lon="6.62538">
        <ele>440.3</ele>
        <time>2023-11-26T13:33:18Z</time>
      </trkpt>
      <trkpt lat="43.62375" lon="6.62539">
        <ele>440.5</ele>
        <time>2023-11-26T13:33:19Z</time>
      </trkpt>
      <trkpt lat="43.62376" lon="6.62541">
        <ele>440.8</ele>
        <time>2023-11-26T13:33:20Z</time>
      </trkpt>
      <trkpt lat="43.62377" lon="6.62542">
        <ele>441</ele>
        <time>2023-11-26T13:33:21Z</time>
      </trkpt>
      <trkpt lat="43.62377" lon="6.62544">
        <ele>441.1</ele>
        <time>2023-11-26T13:33:22Z</time>
      </trkpt>
      <trkpt lat="43.62378" lon="6.62545">
        <ele>441.3</ele>
        <time>2023-11-26T13:33:23Z</time>
      </trkpt>
      <trkpt lat="43.62379" lon="6.62546">
        <ele>441.5</ele>
        <time>2023-11-26T13:33:24Z</time>
      </trkpt>
      <trkpt lat="43.6238" lon="6.62547">
        <ele>441.6</ele>
        <time>2023-11-26T13:33:25Z</time>
      </trkpt>
      <trkpt lat="43.62381" lon="6.62548">
        <ele>441.7</ele>
        <time>2023-11-26T13:33:26Z</time>
      </trkpt>
      <trkpt lat="43.62382" lon="6.62548">
        <ele>441.7</ele>
        <time>2023-11-26T13:33:27Z</time>
      </trkpt>
      <trkpt lat="43.62383" lon="6.6255">
        <ele>441.7</ele>
        <time>2023-11-26T13:33:28Z</time>
      </trkpt>
      <trkpt lat="43.62384" lon="6.62551">
        <ele>441.7</ele>
        <time>2023-11-26T13:33:29Z</time>
      </trkpt>
      <trkpt lat="43.62384" lon="6.62552">
        <ele>441.7</ele>
        <time>2023-11-26T13:33:30Z</time>
      </trkpt>
      <trkpt lat="43.62385" lon="6.62554">
        <ele>441.7</ele>
        <time>2023-11-26T13:33:31Z</time>
      </trkpt>
      <trkpt lat="43.62386" lon="6.62555">
        <ele>441.6</ele>
        <time>2023-11-26T13:33:32Z</time>
      </trkpt>
      <trkpt lat="43.62387" lon="6.62557">
        <ele>441.5</ele>
        <time>2023-11-26T13:33:33Z</time>
      </trkpt>
      <trkpt lat="43.62388" lon="6.62558">
        <ele>441.6</ele>
        <time>2023-11-26T13:33:34Z</time>
      </trkpt>
      <trkpt lat="43.62389" lon="6.62559">
        <ele>441.4</ele>
        <time>2023-11-26T13:33:35Z</time>
      </trkpt>
      <trkpt lat="43.62389" lon="6.6256">
        <ele>441.4</ele>
        <time>2023-11-26T13:33:36Z</time>
      </trkpt>
      <trkpt lat="43.6239" lon="6.62562">
        <ele>441.3</ele>
        <time>2023-11-26T13:33:37Z</time>
      </trkpt>
      <trkpt lat="43.62391" lon="6.62563">
        <ele>441.2</ele>
        <time>2023-11-26T13:33:38Z</time>
      </trkpt>
      <trkpt lat="43.62392" lon="6.62564">
        <ele>441.2</ele>
        <time>2023-11-26T13:33:39Z</time>
      </trkpt>
      <trkpt lat="43.62392" lon="6.62565">
        <ele>441.2</ele>
        <time>2023-11-26T13:33:40Z</time>
      </trkpt>
      <trkpt lat="43.62393" lon="6.62567">
        <ele>441.2</ele>
        <time>2023-11-26T13:33:41Z</time>
      </trkpt>
      <trkpt lat="43.62394" lon="6.62568">
        <ele>441.4</ele>
        <time>2023-11-26T13:33:42Z</time>
      </trkpt>
      <trkpt lat="43.62395" lon="6.62569">
        <ele>441.5</ele>
        <time>2023-11-26T13:33:43Z</time>
      </trkpt>
      <trkpt lat="43.62395" lon="6.62571">
        <ele>441.6</ele>
        <time>2023-11-26T13:33:44Z</time>
      </trkpt>
      <trkpt lat="43.62396" lon="6.62572">
        <ele>441.6</ele>
        <time>2023-11-26T13:33:45Z</time>
      </trkpt>
      <trkpt lat="43.62397" lon="6.62573">
        <ele>441.7</ele>
        <time>2023-11-26T13:33:46Z</time>
      </trkpt>
      <trkpt lat="43.62398" lon="6.62575">
        <ele>441.9</ele>
        <time>2023-11-26T13:33:47Z</time>
      </trkpt>
      <trkpt lat="43.62398" lon="6.62576">
        <ele>442</ele>
        <time>2023-11-26T13:33:48Z</time>
      </trkpt>
      <trkpt lat="43.62399" lon="6.62577">
        <ele>442.1</ele>
        <time>2023-11-26T13:33:49Z</time>
      </trkpt>
      <trkpt lat="43.62399" lon="6.62579">
        <ele>442.1</ele>
        <time>2023-11-26T13:33:50Z</time>
      </trkpt>
      <trkpt lat="43.624" lon="6.6258">
        <ele>442.2</ele>
        <time>2023-11-26T13:33:51Z</time>
      </trkpt>
      <trkpt lat="43.62401" lon="6.62581">
        <ele>442.2</ele>
        <time>2023-11-26T13:33:52Z</time>
      </trkpt>
      <trkpt lat="43.62402" lon="6.62582">
        <ele>442.3</ele>
        <time>2023-11-26T13:33:53Z</time>
      </trkpt>
      <trkpt lat="43.62403" lon="6.62584">
        <ele>442.3</ele>
        <time>2023-11-26T13:33:54Z</time>
      </trkpt>
      <trkpt lat="43.62403" lon="6.62585">
        <ele>442.3</ele>
        <time>2023-11-26T13:33:55Z</time>
      </trkpt>
      <trkpt lat="43.62404" lon="6.62587">
        <ele>442.3</ele>
        <time>2023-11-26T13:33:56Z</time>
      </trkpt>
      <trkpt lat="43.62405" lon="6.62588">
        <ele>442.4</ele>
        <time>2023-11-26T13:33:57Z</time>
      </trkpt>
      <trkpt lat="43.62405" lon="6.62589">
        <ele>442.4</ele>
        <time>2023-11-26T13:33:58Z</time>
      </trkpt>
      <trkpt lat="43.62406" lon="6.6259">
        <ele>442.4</ele>
        <time>2023-11-26T13:33:59Z</time>
      </trkpt>
      <trkpt lat="43.62407" lon="6.62592">
        <ele>442.6</ele>
        <time>2023-11-26T13:34:00Z</time>
      </trkpt>
      <trkpt lat="43.62407" lon="6.62594">
        <ele>442.6</ele>
        <time>2023-11-26T13:34:01Z</time>
      </trkpt>
      <trkpt lat="43.62408" lon="6.62596">
        <ele>442.7</ele>
        <time>2023-11-26T13:34:02Z</time>
      </trkpt>
      <trkpt lat="43.62409" lon="6.62597">
        <ele>442.8</ele>
        <time>2023-11-26T13:34:03Z</time>
      </trkpt>
      <trkpt lat="43.62409" lon="6.62598">
        <ele>442.9</ele>
        <time>2023-11-26T13:34:04Z</time>
      </trkpt>
      <trkpt lat="43.6241" lon="6.626">
        <ele>442.9</ele>
        <time>2023-11-26T13:34:05Z</time>
      </trkpt>
      <trkpt lat="43.6241" lon="6.62601">
        <ele>443.1</ele>
        <time>2023-11-26T13:34:06Z</time>
      </trkpt>
      <trkpt lat="43.62411" lon="6.62602">
        <ele>443.3</ele>
        <time>2023-11-26T13:34:07Z</time>
      </trkpt>
      <trkpt lat="43.62411" lon="6.62604">
        <ele>443.4</ele>
        <time>2023-11-26T13:34:08Z</time>
      </trkpt>
      <trkpt lat="43.62412" lon="6.62605">
        <ele>443.6</ele>
        <time>2023-11-26T13:34:09Z</time>
      </trkpt>
      <trkpt lat="43.62413" lon="6.62606">
        <ele>443.7</ele>
        <time>2023-11-26T13:34:10Z</time>
      </trkpt>
      <trkpt lat="43.62414" lon="6.62607">
        <ele>443.8</ele>
        <time>2023-11-26T13:34:11Z</time>
      </trkpt>
      <trkpt lat="43.62415" lon="6.62609">
        <ele>444</ele>
        <time>2023-11-26T13:34:12Z</time>
      </trkpt>
      <trkpt lat="43.62415" lon="6.6261">
        <ele>444.2</ele>
        <time>2023-11-26T13:34:13Z</time>
      </trkpt>
      <trkpt lat="43.62416" lon="6.62611">
        <ele>444.2</ele>
        <time>2023-11-26T13:34:14Z</time>
      </trkpt>
      <trkpt lat="43.62416" lon="6.62613">
        <ele>444.3</ele>
        <time>2023-11-26T13:34:15Z</time>
      </trkpt>
      <trkpt lat="43.62417" lon="6.62614">
        <ele>444.4</ele>
        <time>2023-11-26T13:34:16Z</time>
      </trkpt>
      <trkpt lat="43.62417" lon="6.62615">
        <ele>444.6</ele>
        <time>2023-11-26T13:34:17Z</time>
      </trkpt>
      <trkpt lat="43.62418" lon="6.62616">
        <ele>444.7</ele>
        <time>2023-11-26T13:34:18Z</time>
      </trkpt>
      <trkpt lat="43.62418" lon="6.62618">
        <ele>444.9</ele>
        <time>2023-11-26T13:34:19Z</time>
      </trkpt>
      <trkpt lat="43.62419" lon="6.62619">
        <ele>445</ele>
        <time>2023-11-26T13:34:20Z</time>
      </trkpt>
      <trkpt lat="43.62419" lon="6.62621">
        <ele>445.1</ele>
        <time>2023-11-26T13:34:21Z</time>
      </trkpt>
      <trkpt lat="43.6242" lon="6.62622">
        <ele>445.2</ele>
        <time>2023-11-26T13:34:22Z</time>
      </trkpt>
      <trkpt lat="43.6242" lon="6.62624">
        <ele>445.4</ele>
        <time>2023-11-26T13:34:23Z</time>
      </trkpt>
      <trkpt lat="43.62421" lon="6.62625">
        <ele>445.6</ele>
        <time>2023-11-26T13:34:24Z</time>
      </trkpt>
      <trkpt lat="43.62421" lon="6.62627">
        <ele>445.7</ele>
        <time>2023-11-26T13:34:25Z</time>
      </trkpt>
      <trkpt lat="43.62422" lon="6.62628">
        <ele>445.8</ele>
        <time>2023-11-26T13:34:26Z</time>
      </trkpt>
      <trkpt lat="43.62422" lon="6.62629">
        <ele>446.1</ele>
        <time>2023-11-26T13:34:27Z</time>
      </trkpt>
      <trkpt lat="43.62423" lon="6.6263">
        <ele>446.3</ele>
        <time>2023-11-26T13:34:28Z</time>
      </trkpt>
      <trkpt lat="43.62424" lon="6.62632">
        <ele>446.4</ele>
        <time>2023-11-26T13:34:29Z</time>
      </trkpt>
      <trkpt lat="43.62425" lon="6.62633">
        <ele>446.6</ele>
        <time>2023-11-26T13:34:30Z</time>
      </trkpt>
      <trkpt lat="43.62426" lon="6.62634">
        <ele>446.7</ele>
        <time>2023-11-26T13:34:31Z</time>
      </trkpt>
      <trkpt lat="43.62427" lon="6.62635">
        <ele>446.6</ele>
        <time>2023-11-26T13:34:32Z</time>
      </trkpt>
      <trkpt lat="43.62428" lon="6.62636">
        <ele>446.6</ele>
        <time>2023-11-26T13:34:33Z</time>
      </trkpt>
      <trkpt lat="43.6243" lon="6.62637">
        <ele>446.7</ele>
        <time>2023-11-26T13:34:34Z</time>
      </trkpt>
      <trkpt lat="43.6243" lon="6.62639">
        <ele>446.7</ele>
        <time>2023-11-26T13:34:35Z</time>
      </trkpt>
      <trkpt lat="43.62431" lon="6.6264">
        <ele>446.8</ele>
        <time>2023-11-26T13:34:36Z</time>
      </trkpt>
      <trkpt lat="43.62432" lon="6.62641">
        <ele>446.9</ele>
        <time>2023-11-26T13:34:37Z</time>
      </trkpt>
      <trkpt lat="43.62432" lon="6.62642">
        <ele>447</ele>
        <time>2023-11-26T13:34:38Z</time>
      </trkpt>
      <trkpt lat="43.62433" lon="6.62643">
        <ele>447</ele>
        <time>2023-11-26T13:34:39Z</time>
      </trkpt>
      <trkpt lat="43.62433" lon="6.62644">
        <ele>447.1</ele>
        <time>2023-11-26T13:34:40Z</time>
      </trkpt>
      <trkpt lat="43.62434" lon="6.62645">
        <ele>447</ele>
        <time>2023-11-26T13:34:41Z</time>
      </trkpt>
      <trkpt lat="43.62435" lon="6.62646">
        <ele>447</ele>
        <time>2023-11-26T13:34:42Z</time>
      </trkpt>
      <trkpt lat="43.62436" lon="6.62646">
        <ele>447</ele>
        <time>2023-11-26T13:34:43Z</time>
      </trkpt>
      <trkpt lat="43.62437" lon="6.62646">
        <ele>447</ele>
        <time>2023-11-26T13:34:44Z</time>
      </trkpt>
      <trkpt lat="43.62439" lon="6.62647">
        <ele>447</ele>
        <time>2023-11-26T13:34:45Z</time>
      </trkpt>
      <trkpt lat="43.6244" lon="6.62647">
        <ele>447</ele>
        <time>2023-11-26T13:34:46Z</time>
      </trkpt>
      <trkpt lat="43.62441" lon="6.62648">
        <ele>447</ele>
        <time>2023-11-26T13:34:47Z</time>
      </trkpt>
      <trkpt lat="43.62443" lon="6.62648">
        <ele>447</ele>
        <time>2023-11-26T13:34:48Z</time>
      </trkpt>
      <trkpt lat="43.62444" lon="6.62648">
        <ele>447</ele>
        <time>2023-11-26T13:34:49Z</time>
      </trkpt>
      <trkpt lat="43.62445" lon="6.62648">
        <ele>447.2</ele>
        <time>2023-11-26T13:34:50Z</time>
      </trkpt>
      <trkpt lat="43.62446" lon="6.62648">
        <ele>447.3</ele>
        <time>2023-11-26T13:34:51Z</time>
      </trkpt>
      <trkpt lat="43.62447" lon="6.62649">
        <ele>447.4</ele>
        <time>2023-11-26T13:34:52Z</time>
      </trkpt>
      <trkpt lat="43.62449" lon="6.62649">
        <ele>447.5</ele>
        <time>2023-11-26T13:34:53Z</time>
      </trkpt>
      <trkpt lat="43.6245" lon="6.62649">
        <ele>447.6</ele>
        <time>2023-11-26T13:34:54Z</time>
      </trkpt>
      <trkpt lat="43.62451" lon="6.62649">
        <ele>447.6</ele>
        <time>2023-11-26T13:34:55Z</time>
      </trkpt>
      <trkpt lat="43.62452" lon="6.62649">
        <ele>447.7</ele>
        <time>2023-11-26T13:34:56Z</time>
      </trkpt>
      <trkpt lat="43.62454" lon="6.62649">
        <ele>447.8</ele>
        <time>2023-11-26T13:34:57Z</time>
      </trkpt>
      <trkpt lat="43.62455" lon="6.62649">
        <ele>447.8</ele>
        <time>2023-11-26T13:34:58Z</time>
      </trkpt>
      <trkpt lat="43.62456" lon="6.62649">
        <ele>447.9</ele>
        <time>2023-11-26T13:34:59Z</time>
      </trkpt>
      <trkpt lat="43.62458" lon="6.62649">
        <ele>447.9</ele>
        <time>2023-11-26T13:35:00Z</time>
      </trkpt>
      <trkpt lat="43.62459" lon="6.62649">
        <ele>448</ele>
        <time>2023-11-26T13:35:01Z</time>
      </trkpt>
      <trkpt lat="43.6246" lon="6.62649">
        <ele>448.1</ele>
        <time>2023-11-26T13:35:02Z</time>
      </trkpt>
      <trkpt lat="43.62461" lon="6.62648">
        <ele>448.2</ele>
        <time>2023-11-26T13:35:03Z</time>
      </trkpt>
      <trkpt lat="43.62462" lon="6.62648">
        <ele>448.2</ele>
        <time>2023-11-26T13:35:04Z</time>
      </trkpt>
      <trkpt lat="43.62464" lon="6.62647">
        <ele>448.3</ele>
        <time>2023-11-26T13:35:05Z</time>
      </trkpt>
      <trkpt lat="43.62465" lon="6.62646">
        <ele>448.4</ele>
        <time>2023-11-26T13:35:06Z</time>
      </trkpt>
      <trkpt lat="43.62466" lon="6.62645">
        <ele>448.5</ele>
        <time>2023-11-26T13:35:07Z</time>
      </trkpt>
      <trkpt lat="43.62468" lon="6.62643">
        <ele>448.5</ele>
        <time>2023-11-26T13:35:08Z</time>
      </trkpt>
      <trkpt lat="43.62469" lon="6.62642">
        <ele>448.5</ele>
        <time>2023-11-26T13:35:09Z</time>
      </trkpt>
      <trkpt lat="43.6247" lon="6.62641">
        <ele>448.5</ele>
        <time>2023-11-26T13:35:10Z</time>
      </trkpt>
      <trkpt lat="43.62471" lon="6.6264">
        <ele>448.5</ele>
        <time>2023-11-26T13:35:11Z</time>
      </trkpt>
      <trkpt lat="43.62472" lon="6.62639">
        <ele>448.5</ele>
        <time>2023-11-26T13:35:12Z</time>
      </trkpt>
      <trkpt lat="43.62473" lon="6.62639">
        <ele>448.7</ele>
        <time>2023-11-26T13:35:13Z</time>
      </trkpt>
      <trkpt lat="43.62474" lon="6.62637">
        <ele>448.7</ele>
        <time>2023-11-26T13:35:14Z</time>
      </trkpt>
      <trkpt lat="43.62475" lon="6.62636">
        <ele>448.6</ele>
        <time>2023-11-26T13:35:15Z</time>
      </trkpt>
      <trkpt lat="43.62476" lon="6.62635">
        <ele>448.6</ele>
        <time>2023-11-26T13:35:16Z</time>
      </trkpt>
      <trkpt lat="43.62478" lon="6.62634">
        <ele>448.6</ele>
        <time>2023-11-26T13:35:17Z</time>
      </trkpt>
      <trkpt lat="43.62479" lon="6.62633">
        <ele>448.5</ele>
        <time>2023-11-26T13:35:18Z</time>
      </trkpt>
      <trkpt lat="43.6248" lon="6.62632">
        <ele>448.4</ele>
        <time>2023-11-26T13:35:19Z</time>
      </trkpt>
      <trkpt lat="43.62481" lon="6.62631">
        <ele>448.4</ele>
        <time>2023-11-26T13:35:20Z</time>
      </trkpt>
      <trkpt lat="43.62482" lon="6.62631">
        <ele>448.4</ele>
        <time>2023-11-26T13:35:21Z</time>
      </trkpt>
      <trkpt lat="43.62483" lon="6.6263">
        <ele>448.4</ele>
        <time>2023-11-26T13:35:22Z</time>
      </trkpt>
      <trkpt lat="43.62484" lon="6.6263">
        <ele>448.4</ele>
        <time>2023-11-26T13:35:23Z</time>
      </trkpt>
      <trkpt lat="43.62485" lon="6.62629">
        <ele>448.5</ele>
        <time>2023-11-26T13:35:24Z</time>
      </trkpt>
      <trkpt lat="43.62486" lon="6.62629">
        <ele>448.6</ele>
        <time>2023-11-26T13:35:25Z</time>
      </trkpt>
      <trkpt lat="43.62487" lon="6.62628">
        <ele>448.7</ele>
        <time>2023-11-26T13:35:26Z</time>
      </trkpt>
      <trkpt lat="43.62489" lon="6.62628">
        <ele>448.6</ele>
        <time>2023-11-26T13:35:27Z</time>
      </trkpt>
      <trkpt lat="43.6249" lon="6.62628">
        <ele>448.6</ele>
        <time>2023-11-26T13:35:28Z</time>
      </trkpt>
      <trkpt lat="43.62491" lon="6.62628">
        <ele>448.7</ele>
        <time>2023-11-26T13:35:29Z</time>
      </trkpt>
      <trkpt lat="43.62492" lon="6.62628">
        <ele>448.7</ele>
        <time>2023-11-26T13:35:30Z</time>
      </trkpt>
      <trkpt lat="43.62493" lon="6.62628">
        <ele>448.8</ele>
        <time>2023-11-26T13:35:31Z</time>
      </trkpt>
      <trkpt lat="43.62494" lon="6.62628">
        <ele>448.9</ele>
        <time>2023-11-26T13:35:32Z</time>
      </trkpt>
      <trkpt lat="43.62495" lon="6.62628">
        <ele>448.9</ele>
        <time>2023-11-26T13:35:33Z</time>
      </trkpt>
      <trkpt lat="43.62496" lon="6.62627">
        <ele>449</ele>
        <time>2023-11-26T13:35:34Z</time>
      </trkpt>
      <trkpt lat="43.62497" lon="6.62626">
        <ele>449.1</ele>
        <time>2023-11-26T13:35:35Z</time>
      </trkpt>
      <trkpt lat="43.62498" lon="6.62626">
        <ele>449.3</ele>
        <time>2023-11-26T13:35:36Z</time>
      </trkpt>
      <trkpt lat="43.62499" lon="6.62626">
        <ele>449.6</ele>
        <time>2023-11-26T13:35:37Z</time>
      </trkpt>
      <trkpt lat="43.625" lon="6.62625">
        <ele>449.9</ele>
        <time>2023-11-26T13:35:38Z</time>
      </trkpt>
      <trkpt lat="43.62501" lon="6.62625">
        <ele>450</ele>
        <time>2023-11-26T13:35:39Z</time>
      </trkpt>
      <trkpt lat="43.62502" lon="6.62624">
        <ele>450.2</ele>
        <time>2023-11-26T13:35:40Z</time>
      </trkpt>
      <trkpt lat="43.62503" lon="6.62623">
        <ele>450.3</ele>
        <time>2023-11-26T13:35:41Z</time>
      </trkpt>
      <trkpt lat="43.62504" lon="6.62623">
        <ele>450.3</ele>
        <time>2023-11-26T13:35:42Z</time>
      </trkpt>
      <trkpt lat="43.62505" lon="6.62622">
        <ele>450.5</ele>
        <time>2023-11-26T13:35:43Z</time>
      </trkpt>
      <trkpt lat="43.62506" lon="6.62621">
        <ele>450.6</ele>
        <time>2023-11-26T13:35:44Z</time>
      </trkpt>
      <trkpt lat="43.62508" lon="6.62619">
        <ele>450.7</ele>
        <time>2023-11-26T13:35:45Z</time>
      </trkpt>
      <trkpt lat="43.62509" lon="6.62617">
        <ele>450.8</ele>
        <time>2023-11-26T13:35:46Z</time>
      </trkpt>
      <trkpt lat="43.62509" lon="6.62615">
        <ele>450.9</ele>
        <time>2023-11-26T13:35:47Z</time>
      </trkpt>
      <trkpt lat="43.6251" lon="6.62614">
        <ele>451</ele>
        <time>2023-11-26T13:35:48Z</time>
      </trkpt>
      <trkpt lat="43.62511" lon="6.62612">
        <ele>451</ele>
        <time>2023-11-26T13:35:49Z</time>
      </trkpt>
      <trkpt lat="43.62512" lon="6.62609">
        <ele>451.1</ele>
        <time>2023-11-26T13:35:50Z</time>
      </trkpt>
      <trkpt lat="43.62513" lon="6.62608">
        <ele>451</ele>
        <time>2023-11-26T13:35:51Z</time>
      </trkpt>
      <trkpt lat="43.62513" lon="6.62607">
        <ele>451.1</ele>
        <time>2023-11-26T13:35:52Z</time>
      </trkpt>
      <trkpt lat="43.62514" lon="6.62606">
        <ele>451.1</ele>
        <time>2023-11-26T13:35:53Z</time>
      </trkpt>
      <trkpt lat="43.62514" lon="6.62604">
        <ele>451.2</ele>
        <time>2023-11-26T13:35:54Z</time>
      </trkpt>
      <trkpt lat="43.62515" lon="6.62603">
        <ele>451.3</ele>
        <time>2023-11-26T13:35:55Z</time>
      </trkpt>
      <trkpt lat="43.62516" lon="6.62602">
        <ele>451.4</ele>
        <time>2023-11-26T13:35:56Z</time>
      </trkpt>
      <trkpt lat="43.62517" lon="6.626">
        <ele>451.7</ele>
        <time>2023-11-26T13:35:57Z</time>
      </trkpt>
      <trkpt lat="43.62518" lon="6.62598">
        <ele>451.9</ele>
        <time>2023-11-26T13:35:58Z</time>
      </trkpt>
      <trkpt lat="43.62519" lon="6.62597">
        <ele>452.1</ele>
        <time>2023-11-26T13:35:59Z</time>
      </trkpt>
      <trkpt lat="43.6252" lon="6.62596">
        <ele>452.1</ele>
        <time>2023-11-26T13:36:00Z</time>
      </trkpt>
      <trkpt lat="43.62521" lon="6.62595">
        <ele>452.2</ele>
        <time>2023-11-26T13:36:01Z</time>
      </trkpt>
      <trkpt lat="43.62522" lon="6.62594">
        <ele>452.3</ele>
        <time>2023-11-26T13:36:02Z</time>
      </trkpt>
      <trkpt lat="43.62523" lon="6.62593">
        <ele>452.4</ele>
        <time>2023-11-26T13:36:03Z</time>
      </trkpt>
      <trkpt lat="43.62524" lon="6.62591">
        <ele>452.5</ele>
        <time>2023-11-26T13:36:04Z</time>
      </trkpt>
      <trkpt lat="43.62525" lon="6.6259">
        <ele>452.7</ele>
        <time>2023-11-26T13:36:05Z</time>
      </trkpt>
      <trkpt lat="43.62526" lon="6.62589">
        <ele>452.8</ele>
        <time>2023-11-26T13:36:06Z</time>
      </trkpt>
      <trkpt lat="43.62527" lon="6.62588">
        <ele>452.9</ele>
        <time>2023-11-26T13:36:07Z</time>
      </trkpt>
      <trkpt lat="43.62528" lon="6.62586">
        <ele>453</ele>
        <time>2023-11-26T13:36:08Z</time>
      </trkpt>
      <trkpt lat="43.62529" lon="6.62585">
        <ele>453.1</ele>
        <time>2023-11-26T13:36:09Z</time>
      </trkpt>
      <trkpt lat="43.6253" lon="6.62584">
        <ele>453.1</ele>
        <time>2023-11-26T13:36:10Z</time>
      </trkpt>
      <trkpt lat="43.62531" lon="6.62583">
        <ele>453.1</ele>
        <time>2023-11-26T13:36:11Z</time>
      </trkpt>
      <trkpt lat="43.62532" lon="6.62582">
        <ele>453.1</ele>
        <time>2023-11-26T13:36:12Z</time>
      </trkpt>
      <trkpt lat="43.62532" lon="6.62581">
        <ele>453.2</ele>
        <time>2023-11-26T13:36:13Z</time>
      </trkpt>
      <trkpt lat="43.62533" lon="6.6258">
        <ele>453.2</ele>
        <time>2023-11-26T13:36:14Z</time>
      </trkpt>
      <trkpt lat="43.62534" lon="6.62579">
        <ele>453.2</ele>
        <time>2023-11-26T13:36:15Z</time>
      </trkpt>
      <trkpt lat="43.62535" lon="6.62578">
        <ele>453.2</ele>
        <time>2023-11-26T13:36:16Z</time>
      </trkpt>
      <trkpt lat="43.62535" lon="6.62577">
        <ele>453.2</ele>
        <time>2023-11-26T13:36:17Z</time>
      </trkpt>
      <trkpt lat="43.62536" lon="6.62575">
        <ele>453.2</ele>
        <time>2023-11-26T13:36:18Z</time>
      </trkpt>
      <trkpt lat="43.62537" lon="6.62574">
        <ele>453.2</ele>
        <time>2023-11-26T13:36:19Z</time>
      </trkpt>
      <trkpt lat="43.62538" lon="6.62571">
        <ele>453.2</ele>
        <time>2023-11-26T13:36:20Z</time>
      </trkpt>
      <trkpt lat="43.62539" lon="6.6257">
        <ele>453.2</ele>
        <time>2023-11-26T13:36:21Z</time>
      </trkpt>
      <trkpt lat="43.6254" lon="6.62569">
        <ele>453.2</ele>
        <time>2023-11-26T13:36:22Z</time>
      </trkpt>
      <trkpt lat="43.62541" lon="6.62568">
        <ele>453.4</ele>
        <time>2023-11-26T13:36:23Z</time>
      </trkpt>
      <trkpt lat="43.62541" lon="6.62566">
        <ele>453.5</ele>
        <time>2023-11-26T13:36:24Z</time>
      </trkpt>
      <trkpt lat="43.62542" lon="6.62565">
        <ele>453.6</ele>
        <time>2023-11-26T13:36:25Z</time>
      </trkpt>
      <trkpt lat="43.62542" lon="6.62564">
        <ele>453.6</ele>
        <time>2023-11-26T13:36:26Z</time>
      </trkpt>
      <trkpt lat="43.62543" lon="6.62564">
        <ele>453.6</ele>
        <time>2023-11-26T13:36:27Z</time>
      </trkpt>
      <trkpt lat="43.62543" lon="6.62562">
        <ele>453.7</ele>
        <time>2023-11-26T13:36:28Z</time>
      </trkpt>
      <trkpt lat="43.62544" lon="6.62561">
        <ele>453.7</ele>
        <time>2023-11-26T13:36:29Z</time>
      </trkpt>
      <trkpt lat="43.62544" lon="6.6256">
        <ele>453.8</ele>
        <time>2023-11-26T13:36:30Z</time>
      </trkpt>
      <trkpt lat="43.62544" lon="6.6256">
        <ele>453.9</ele>
        <time>2023-11-26T13:36:31Z</time>
      </trkpt>
      <trkpt lat="43.62544" lon="6.62559">
        <ele>453.9</ele>
        <time>2023-11-26T13:36:32Z</time>
      </trkpt>
      <trkpt lat="43.62545" lon="6.62559">
        <ele>454</ele>
        <time>2023-11-26T13:36:33Z</time>
      </trkpt>
      <trkpt lat="43.62546" lon="6.62559">
        <ele>454</ele>
        <time>2023-11-26T13:36:34Z</time>
      </trkpt>
      <trkpt lat="43.62546" lon="6.62559">
        <ele>454.1</ele>
        <time>2023-11-26T13:36:35Z</time>
      </trkpt>
      <trkpt lat="43.62546" lon="6.62558">
        <ele>454</ele>
        <time>2023-11-26T13:36:36Z</time>
      </trkpt>
      <trkpt lat="43.62546" lon="6.62557">
        <ele>454.2</ele>
        <time>2023-11-26T13:36:37Z</time>
      </trkpt>
      <trkpt lat="43.62546" lon="6.62556">
        <ele>454.2</ele>
        <time>2023-11-26T13:36:38Z</time>
      </trkpt>
      <trkpt lat="43.62546" lon="6.62555">
        <ele>454.2</ele>
        <time>2023-11-26T13:36:39Z</time>
      </trkpt>
      <trkpt lat="43.62547" lon="6.62555">
        <ele>454.3</ele>
        <time>2023-11-26T13:36:40Z</time>
      </trkpt>
      <trkpt lat="43.62547" lon="6.62555">
        <ele>454.3</ele>
        <time>2023-11-26T13:36:41Z</time>
      </trkpt>
      <trkpt lat="43.62547" lon="6.62555">
        <ele>454.3</ele>
        <time>2023-11-26T13:36:42Z</time>
      </trkpt>
      <trkpt lat="43.62547" lon="6.62556">
        <ele>454.3</ele>
        <time>2023-11-26T13:36:43Z</time>
      </trkpt>
      <trkpt lat="43.62547" lon="6.62556">
        <ele>454.3</ele>
        <time>2023-11-26T13:36:44Z</time>
      </trkpt>
      <trkpt lat="43.62548" lon="6.62556">
        <ele>454.3</ele>
        <time>2023-11-26T13:36:45Z</time>
      </trkpt>
      <trkpt lat="43.62548" lon="6.62556">
        <ele>454.2</ele>
        <time>2023-11-26T13:36:46Z</time>
      </trkpt>
      <trkpt lat="43.62548" lon="6.62556">
        <ele>454.3</ele>
        <time>2023-11-26T13:36:47Z</time>
      </trkpt>
      <trkpt lat="43.62547" lon="6.62556">
        <ele>454.5</ele>
        <time>2023-11-26T13:36:48Z</time>
      </trkpt>
      <trkpt lat="43.62547" lon="6.62556">
        <ele>454.3</ele>
        <time>2023-11-26T13:36:49Z</time>
      </trkpt>
      <trkpt lat="43.62548" lon="6.62555">
        <ele>454.3</ele>
        <time>2023-11-26T13:36:50Z</time>
      </trkpt>
      <trkpt lat="43.62548" lon="6.62555">
        <ele>454.2</ele>
        <time>2023-11-26T13:36:51Z</time>
      </trkpt>
      <trkpt lat="43.62548" lon="6.62554">
        <ele>454.1</ele>
        <time>2023-11-26T13:36:52Z</time>
      </trkpt>
      <trkpt lat="43.62549" lon="6.62554">
        <ele>454.1</ele>
        <time>2023-11-26T13:36:53Z</time>
      </trkpt>
      <trkpt lat="43.62549" lon="6.62554">
        <ele>454.1</ele>
        <time>2023-11-26T13:36:54Z</time>
      </trkpt>
      <trkpt lat="43.62549" lon="6.62553">
        <ele>454.2</ele>
        <time>2023-11-26T13:36:55Z</time>
      </trkpt>
      <trkpt lat="43.62549" lon="6.62553">
        <ele>454.2</ele>
        <time>2023-11-26T13:36:56Z</time>
      </trkpt>
      <trkpt lat="43.6255" lon="6.62552">
        <ele>454.2</ele>
        <time>2023-11-26T13:36:57Z</time>
      </trkpt>
      <trkpt lat="43.6255" lon="6.62552">
        <ele>454.2</ele>
        <time>2023-11-26T13:36:58Z</time>
      </trkpt>
      <trkpt lat="43.6255" lon="6.62551">
        <ele>454.3</ele>
        <time>2023-11-26T13:36:59Z</time>
      </trkpt>
      <trkpt lat="43.62551" lon="6.62551">
        <ele>454.4</ele>
        <time>2023-11-26T13:37:00Z</time>
      </trkpt>
      <trkpt lat="43.62551" lon="6.62551">
        <ele>454.4</ele>
        <time>2023-11-26T13:37:01Z</time>
      </trkpt>
      <trkpt lat="43.62551" lon="6.62551">
        <ele>454.5</ele>
        <time>2023-11-26T13:37:02Z</time>
      </trkpt>
      <trkpt lat="43.62551" lon="6.62551">
        <ele>454.5</ele>
        <time>2023-11-26T13:37:03Z</time>
      </trkpt>
      <trkpt lat="43.62551" lon="6.62551">
        <ele>454.6</ele>
        <time>2023-11-26T13:37:04Z</time>
      </trkpt>
      <trkpt lat="43.62551" lon="6.6255">
        <ele>454.6</ele>
        <time>2023-11-26T13:37:05Z</time>
      </trkpt>
      <trkpt lat="43.62551" lon="6.6255">
        <ele>454.6</ele>
        <time>2023-11-26T13:37:06Z</time>
      </trkpt>
      <trkpt lat="43.62551" lon="6.6255">
        <ele>454.5</ele>
        <time>2023-11-26T13:37:07Z</time>
      </trkpt>
      <trkpt lat="43.62551" lon="6.6255">
        <ele>454.5</ele>
        <time>2023-11-26T13:37:08Z</time>
      </trkpt>
      <trkpt lat="43.62551" lon="6.6255">
        <ele>454.5</ele>
        <time>2023-11-26T13:37:09Z</time>
      </trkpt>
      <trkpt lat="43.62551" lon="6.6255">
        <ele>454.5</ele>
        <time>2023-11-26T13:37:10Z</time>
      </trkpt>
      <trkpt lat="43.62551" lon="6.6255">
        <ele>454.5</ele>
        <time>2023-11-26T13:37:11Z</time>
      </trkpt>
      <trkpt lat="43.62551" lon="6.6255">
        <ele>454.5</ele>
        <time>2023-11-26T13:37:12Z</time>
      </trkpt>
      <trkpt lat="43.62551" lon="6.6255">
        <ele>454.5</ele>
        <time>2023-11-26T13:37:13Z</time>
      </trkpt>
      <trkpt lat="43.62551" lon="6.62549">
        <ele>454.4</ele>
        <time>2023-11-26T13:37:14Z</time>
      </trkpt>
      <trkpt lat="43.62552" lon="6.62549">
        <ele>454.4</ele>
        <time>2023-11-26T13:37:15Z</time>
      </trkpt>
      <trkpt lat="43.62551" lon="6.62549">
        <ele>454.4</ele>
        <time>2023-11-26T13:37:16Z</time>
      </trkpt>
      <trkpt lat="43.62552" lon="6.62549">
        <ele>454.3</ele>
        <time>2023-11-26T13:37:17Z</time>
      </trkpt>
      <trkpt lat="43.62551" lon="6.62549">
        <ele>454.3</ele>
        <time>2023-11-26T13:37:18Z</time>
      </trkpt>
      <trkpt lat="43.62551" lon="6.62549">
        <ele>454.3</ele>
        <time>2023-11-26T13:37:19Z</time>
      </trkpt>
      <trkpt lat="43.62551" lon="6.62549">
        <ele>454.3</ele>
        <time>2023-11-26T13:37:20Z</time>
      </trkpt>
      <trkpt lat="43.62551" lon="6.62549">
        <ele>454.3</ele>
        <time>2023-11-26T13:37:21Z</time>
      </trkpt>
      <trkpt lat="43.62551" lon="6.62549">
        <ele>454.3</ele>
        <time>2023-11-26T13:37:22Z</time>
      </trkpt>
      <trkpt lat="43.62551" lon="6.62549">
        <ele>454.2</ele>
        <time>2023-11-26T13:37:23Z</time>
      </trkpt>
      <trkpt lat="43.62551" lon="6.6255">
        <ele>454.2</ele>
        <time>2023-11-26T13:37:24Z</time>
      </trkpt>
      <trkpt lat="43.6255" lon="6.6255">
        <ele>454.2</ele>
        <time>2023-11-26T13:37:25Z</time>
      </trkpt>
      <trkpt lat="43.6255" lon="6.6255">
        <ele>454.2</ele>
        <time>2023-11-26T13:37:26Z</time>
      </trkpt>
      <trkpt lat="43.6255" lon="6.6255">
        <ele>454.3</ele>
        <time>2023-11-26T13:37:27Z</time>
      </trkpt>
      <trkpt lat="43.62549" lon="6.6255">
        <ele>454.3</ele>
        <time>2023-11-26T13:37:28Z</time>
      </trkpt>
      <trkpt lat="43.62549" lon="6.62549">
        <ele>454.3</ele>
        <time>2023-11-26T13:37:29Z</time>
      </trkpt>
      <trkpt lat="43.62549" lon="6.62549">
        <ele>454.3</ele>
        <time>2023-11-26T13:37:30Z</time>
      </trkpt>
      <trkpt lat="43.62549" lon="6.62549">
        <ele>454.3</ele>
        <time>2023-11-26T13:37:31Z</time>
      </trkpt>
      <trkpt lat="43.62549" lon="6.6255">
        <ele>454.3</ele>
        <time>2023-11-26T13:37:32Z</time>
      </trkpt>
      <trkpt lat="43.62549" lon="6.6255">
        <ele>454.3</ele>
        <time>2023-11-26T13:37:33Z</time>
      </trkpt>
      <trkpt lat="43.62548" lon="6.6255">
        <ele>454.4</ele>
        <time>2023-11-26T13:37:34Z</time>
      </trkpt>
      <trkpt lat="43.62548" lon="6.6255">
        <ele>454.4</ele>
        <time>2023-11-26T13:37:35Z</time>
      </trkpt>
      <trkpt lat="43.62548" lon="6.6255">
        <ele>454.5</ele>
        <time>2023-11-26T13:37:36Z</time>
      </trkpt>
      <trkpt lat="43.62548" lon="6.6255">
        <ele>454.4</ele>
        <time>2023-11-26T13:37:37Z</time>
      </trkpt>
      <trkpt lat="43.62548" lon="6.6255">
        <ele>454.3</ele>
        <time>2023-11-26T13:37:38Z</time>
      </trkpt>
      <trkpt lat="43.62548" lon="6.6255">
        <ele>454.2</ele>
        <time>2023-11-26T13:37:39Z</time>
      </trkpt>
      <trkpt lat="43.62548" lon="6.62549">
        <ele>454.3</ele>
        <time>2023-11-26T13:37:40Z</time>
      </trkpt>
      <trkpt lat="43.62548" lon="6.6255">
        <ele>454.3</ele>
        <time>2023-11-26T13:37:41Z</time>
      </trkpt>
      <trkpt lat="43.62548" lon="6.6255">
        <ele>454.3</ele>
        <time>2023-11-26T13:37:42Z</time>
      </trkpt>
      <trkpt lat="43.62548" lon="6.62549">
        <ele>454.3</ele>
        <time>2023-11-26T13:37:43Z</time>
      </trkpt>
      <trkpt lat="43.62548" lon="6.62549">
        <ele>454.3</ele>
        <time>2023-11-26T13:37:44Z</time>
      </trkpt>
      <trkpt lat="43.62548" lon="6.62549">
        <ele>454.2</ele>
        <time>2023-11-26T13:37:45Z</time>
      </trkpt>
      <trkpt lat="43.62548" lon="6.62549">
        <ele>454.2</ele>
        <time>2023-11-26T13:37:46Z</time>
      </trkpt>
      <trkpt lat="43.62548" lon="6.62549">
        <ele>454.1</ele>
        <time>2023-11-26T13:37:47Z</time>
      </trkpt>
      <trkpt lat="43.62548" lon="6.62549">
        <ele>454.1</ele>
        <time>2023-11-26T13:37:48Z</time>
      </trkpt>
      <trkpt lat="43.62547" lon="6.62549">
        <ele>454.2</ele>
        <time>2023-11-26T13:37:49Z</time>
      </trkpt>
      <trkpt lat="43.62547" lon="6.62549">
        <ele>454.2</ele>
        <time>2023-11-26T13:37:50Z</time>
      </trkpt>
      <trkpt lat="43.62547" lon="6.62549">
        <ele>454.3</ele>
        <time>2023-11-26T13:37:51Z</time>
      </trkpt>
      <trkpt lat="43.62546" lon="6.62549">
        <ele>454.2</ele>
        <time>2023-11-26T13:37:52Z</time>
      </trkpt>
      <trkpt lat="43.62546" lon="6.62549">
        <ele>454.2</ele>
        <time>2023-11-26T13:37:53Z</time>
      </trkpt>
      <trkpt lat="43.62545" lon="6.62549">
        <ele>454.2</ele>
        <time>2023-11-26T13:37:54Z</time>
      </trkpt>
      <trkpt lat="43.62545" lon="6.62549">
        <ele>454.1</ele>
        <time>2023-11-26T13:37:55Z</time>
      </trkpt>
      <trkpt lat="43.62545" lon="6.62549">
        <ele>454.1</ele>
        <time>2023-11-26T13:37:56Z</time>
      </trkpt>
      <trkpt lat="43.62545" lon="6.62549">
        <ele>454.1</ele>
        <time>2023-11-26T13:37:57Z</time>
      </trkpt>
      <trkpt lat="43.62545" lon="6.6255">
        <ele>454.1</ele>
        <time>2023-11-26T13:37:58Z</time>
      </trkpt>
      <trkpt lat="43.62545" lon="6.6255">
        <ele>454.1</ele>
        <time>2023-11-26T13:37:59Z</time>
      </trkpt>
      <trkpt lat="43.62545" lon="6.6255">
        <ele>454.1</ele>
        <time>2023-11-26T13:38:00Z</time>
      </trkpt>
      <trkpt lat="43.62545" lon="6.6255">
        <ele>454.1</ele>
        <time>2023-11-26T13:38:01Z</time>
      </trkpt>
      <trkpt lat="43.62546" lon="6.62551">
        <ele>454.1</ele>
        <time>2023-11-26T13:38:02Z</time>
      </trkpt>
      <trkpt lat="43.62547" lon="6.62551">
        <ele>454.2</ele>
        <time>2023-11-26T13:38:03Z</time>
      </trkpt>
      <trkpt lat="43.62547" lon="6.62553">
        <ele>454.2</ele>
        <time>2023-11-26T13:38:04Z</time>
      </trkpt>
      <trkpt lat="43.62548" lon="6.62554">
        <ele>454.3</ele>
        <time>2023-11-26T13:38:05Z</time>
      </trkpt>
      <trkpt lat="43.62548" lon="6.62554">
        <ele>454.3</ele>
        <time>2023-11-26T13:38:06Z</time>
      </trkpt>
      <trkpt lat="43.62549" lon="6.62555">
        <ele>454.4</ele>
        <time>2023-11-26T13:38:07Z</time>
      </trkpt>
      <trkpt lat="43.62549" lon="6.62556">
        <ele>454.4</ele>
        <time>2023-11-26T13:38:08Z</time>
      </trkpt>
      <trkpt lat="43.6255" lon="6.62557">
        <ele>454.5</ele>
        <time>2023-11-26T13:38:09Z</time>
      </trkpt>
      <trkpt lat="43.62551" lon="6.62558">
        <ele>454.5</ele>
        <time>2023-11-26T13:38:10Z</time>
      </trkpt>
      <trkpt lat="43.62552" lon="6.62559">
        <ele>454.5</ele>
        <time>2023-11-26T13:38:11Z</time>
      </trkpt>
      <trkpt lat="43.62553" lon="6.62561">
        <ele>454.5</ele>
        <time>2023-11-26T13:38:12Z</time>
      </trkpt>
      <trkpt lat="43.62553" lon="6.62562">
        <ele>454.5</ele>
        <time>2023-11-26T13:38:13Z</time>
      </trkpt>
      <trkpt lat="43.62554" lon="6.62563">
        <ele>454.5</ele>
        <time>2023-11-26T13:38:14Z</time>
      </trkpt>
      <trkpt lat="43.62555" lon="6.62565">
        <ele>454.4</ele>
        <time>2023-11-26T13:38:15Z</time>
      </trkpt>
      <trkpt lat="43.62555" lon="6.62567">
        <ele>454.4</ele>
        <time>2023-11-26T13:38:16Z</time>
      </trkpt>
      <trkpt lat="43.62555" lon="6.62568">
        <ele>454.3</ele>
        <time>2023-11-26T13:38:17Z</time>
      </trkpt>
      <trkpt lat="43.62555" lon="6.62569">
        <ele>454.3</ele>
        <time>2023-11-26T13:38:18Z</time>
      </trkpt>
      <trkpt lat="43.62556" lon="6.6257">
        <ele>454.3</ele>
        <time>2023-11-26T13:38:19Z</time>
      </trkpt>
      <trkpt lat="43.62556" lon="6.62572">
        <ele>454.3</ele>
        <time>2023-11-26T13:38:20Z</time>
      </trkpt>
      <trkpt lat="43.62557" lon="6.62574">
        <ele>454.3</ele>
        <time>2023-11-26T13:38:21Z</time>
      </trkpt>
      <trkpt lat="43.62557" lon="6.62576">
        <ele>454.4</ele>
        <time>2023-11-26T13:38:22Z</time>
      </trkpt>
      <trkpt lat="43.62558" lon="6.62577">
        <ele>454.5</ele>
        <time>2023-11-26T13:38:23Z</time>
      </trkpt>
      <trkpt lat="43.62558" lon="6.62578">
        <ele>454.5</ele>
        <time>2023-11-26T13:38:24Z</time>
      </trkpt>
      <trkpt lat="43.62559" lon="6.6258">
        <ele>454.5</ele>
        <time>2023-11-26T13:38:25Z</time>
      </trkpt>
      <trkpt lat="43.62559" lon="6.62581">
        <ele>454.5</ele>
        <time>2023-11-26T13:38:26Z</time>
      </trkpt>
      <trkpt lat="43.6256" lon="6.62583">
        <ele>454.6</ele>
        <time>2023-11-26T13:38:27Z</time>
      </trkpt>
      <trkpt lat="43.6256" lon="6.62585">
        <ele>454.6</ele>
        <time>2023-11-26T13:38:28Z</time>
      </trkpt>
      <trkpt lat="43.6256" lon="6.62586">
        <ele>454.6</ele>
        <time>2023-11-26T13:38:29Z</time>
      </trkpt>
      <trkpt lat="43.62559" lon="6.62588">
        <ele>454.5</ele>
        <time>2023-11-26T13:38:30Z</time>
      </trkpt>
      <trkpt lat="43.6256" lon="6.62589">
        <ele>454.6</ele>
        <time>2023-11-26T13:38:31Z</time>
      </trkpt>
      <trkpt lat="43.6256" lon="6.62591">
        <ele>454.6</ele>
        <time>2023-11-26T13:38:32Z</time>
      </trkpt>
      <trkpt lat="43.6256" lon="6.62593">
        <ele>454.8</ele>
        <time>2023-11-26T13:38:33Z</time>
      </trkpt>
      <trkpt lat="43.62561" lon="6.62595">
        <ele>454.8</ele>
        <time>2023-11-26T13:38:34Z</time>
      </trkpt>
      <trkpt lat="43.62561" lon="6.62597">
        <ele>454.8</ele>
        <time>2023-11-26T13:38:35Z</time>
      </trkpt>
      <trkpt lat="43.62561" lon="6.62598">
        <ele>454.8</ele>
        <time>2023-11-26T13:38:36Z</time>
      </trkpt>
      <trkpt lat="43.62562" lon="6.626">
        <ele>454.9</ele>
        <time>2023-11-26T13:38:37Z</time>
      </trkpt>
      <trkpt lat="43.62561" lon="6.62602">
        <ele>454.9</ele>
        <time>2023-11-26T13:38:38Z</time>
      </trkpt>
      <trkpt lat="43.62562" lon="6.62603">
        <ele>454.9</ele>
        <time>2023-11-26T13:38:39Z</time>
      </trkpt>
      <trkpt lat="43.62562" lon="6.62605">
        <ele>454.9</ele>
        <time>2023-11-26T13:38:40Z</time>
      </trkpt>
      <trkpt lat="43.62563" lon="6.62606">
        <ele>454.9</ele>
        <time>2023-11-26T13:38:41Z</time>
      </trkpt>
      <trkpt lat="43.62564" lon="6.62608">
        <ele>455</ele>
        <time>2023-11-26T13:38:42Z</time>
      </trkpt>
      <trkpt lat="43.62565" lon="6.62609">
        <ele>454.8</ele>
        <time>2023-11-26T13:38:43Z</time>
      </trkpt>
      <trkpt lat="43.62565" lon="6.6261">
        <ele>454.8</ele>
        <time>2023-11-26T13:38:44Z</time>
      </trkpt>
      <trkpt lat="43.62566" lon="6.62611">
        <ele>454.8</ele>
        <time>2023-11-26T13:38:45Z</time>
      </trkpt>
      <trkpt lat="43.62566" lon="6.62613">
        <ele>454.9</ele>
        <time>2023-11-26T13:38:46Z</time>
      </trkpt>
      <trkpt lat="43.62567" lon="6.62614">
        <ele>454.9</ele>
        <time>2023-11-26T13:38:47Z</time>
      </trkpt>
      <trkpt lat="43.62568" lon="6.62616">
        <ele>455</ele>
        <time>2023-11-26T13:38:48Z</time>
      </trkpt>
      <trkpt lat="43.62568" lon="6.62617">
        <ele>455.1</ele>
        <time>2023-11-26T13:38:49Z</time>
      </trkpt>
      <trkpt lat="43.62569" lon="6.62618">
        <ele>455.2</ele>
        <time>2023-11-26T13:38:50Z</time>
      </trkpt>
      <trkpt lat="43.6257" lon="6.6262">
        <ele>455.3</ele>
        <time>2023-11-26T13:38:51Z</time>
      </trkpt>
      <trkpt lat="43.62571" lon="6.62621">
        <ele>455.4</ele>
        <time>2023-11-26T13:38:52Z</time>
      </trkpt>
      <trkpt lat="43.62571" lon="6.62622">
        <ele>455.5</ele>
        <time>2023-11-26T13:38:53Z</time>
      </trkpt>
      <trkpt lat="43.62572" lon="6.62624">
        <ele>455.5</ele>
        <time>2023-11-26T13:38:54Z</time>
      </trkpt>
      <trkpt lat="43.62573" lon="6.62625">
        <ele>455.7</ele>
        <time>2023-11-26T13:38:55Z</time>
      </trkpt>
      <trkpt lat="43.62573" lon="6.62626">
        <ele>455.8</ele>
        <time>2023-11-26T13:38:56Z</time>
      </trkpt>
      <trkpt lat="43.62574" lon="6.62627">
        <ele>455.8</ele>
        <time>2023-11-26T13:38:57Z</time>
      </trkpt>
      <trkpt lat="43.62574" lon="6.62629">
        <ele>455.8</ele>
        <time>2023-11-26T13:38:58Z</time>
      </trkpt>
      <trkpt lat="43.62575" lon="6.6263">
        <ele>455.9</ele>
        <time>2023-11-26T13:38:59Z</time>
      </trkpt>
      <trkpt lat="43.62576" lon="6.62631">
        <ele>456</ele>
        <time>2023-11-26T13:39:00Z</time>
      </trkpt>
      <trkpt lat="43.62576" lon="6.62633">
        <ele>456.1</ele>
        <time>2023-11-26T13:39:01Z</time>
      </trkpt>
      <trkpt lat="43.62577" lon="6.62634">
        <ele>456.2</ele>
        <time>2023-11-26T13:39:02Z</time>
      </trkpt>
      <trkpt lat="43.62578" lon="6.62636">
        <ele>456.4</ele>
        <time>2023-11-26T13:39:03Z</time>
      </trkpt>
      <trkpt lat="43.62578" lon="6.62637">
        <ele>456.6</ele>
        <time>2023-11-26T13:39:04Z</time>
      </trkpt>
      <trkpt lat="43.62579" lon="6.62638">
        <ele>456.7</ele>
        <time>2023-11-26T13:39:05Z</time>
      </trkpt>
      <trkpt lat="43.6258" lon="6.62639">
        <ele>456.9</ele>
        <time>2023-11-26T13:39:06Z</time>
      </trkpt>
      <trkpt lat="43.62581" lon="6.6264">
        <ele>457</ele>
        <time>2023-11-26T13:39:07Z</time>
      </trkpt>
      <trkpt lat="43.62582" lon="6.62642">
        <ele>457</ele>
        <time>2023-11-26T13:39:08Z</time>
      </trkpt>
      <trkpt lat="43.62582" lon="6.62643">
        <ele>457.1</ele>
        <time>2023-11-26T13:39:09Z</time>
      </trkpt>
      <trkpt lat="43.62583" lon="6.62644">
        <ele>457.1</ele>
        <time>2023-11-26T13:39:10Z</time>
      </trkpt>
      <trkpt lat="43.62584" lon="6.62645">
        <ele>457.3</ele>
        <time>2023-11-26T13:39:11Z</time>
      </trkpt>
      <trkpt lat="43.62585" lon="6.62646">
        <ele>457.4</ele>
        <time>2023-11-26T13:39:12Z</time>
      </trkpt>
      <trkpt lat="43.62586" lon="6.62647">
        <ele>457.5</ele>
        <time>2023-11-26T13:39:13Z</time>
      </trkpt>
      <trkpt lat="43.62587" lon="6.62648">
        <ele>457.5</ele>
        <time>2023-11-26T13:39:14Z</time>
      </trkpt>
      <trkpt lat="43.62587" lon="6.62649">
        <ele>457.7</ele>
        <time>2023-11-26T13:39:15Z</time>
      </trkpt>
      <trkpt lat="43.62588" lon="6.6265">
        <ele>457.8</ele>
        <time>2023-11-26T13:39:16Z</time>
      </trkpt>
      <trkpt lat="43.62589" lon="6.62651">
        <ele>457.9</ele>
        <time>2023-11-26T13:39:17Z</time>
      </trkpt>
      <trkpt lat="43.6259" lon="6.62652">
        <ele>458</ele>
        <time>2023-11-26T13:39:18Z</time>
      </trkpt>
      <trkpt lat="43.6259" lon="6.62653">
        <ele>458</ele>
        <time>2023-11-26T13:39:19Z</time>
      </trkpt>
      <trkpt lat="43.62591" lon="6.62654">
        <ele>458.1</ele>
        <time>2023-11-26T13:39:20Z</time>
      </trkpt>
      <trkpt lat="43.62591" lon="6.62655">
        <ele>458.2</ele>
        <time>2023-11-26T13:39:21Z</time>
      </trkpt>
      <trkpt lat="43.62592" lon="6.62656">
        <ele>458.3</ele>
        <time>2023-11-26T13:39:22Z</time>
      </trkpt>
      <trkpt lat="43.62592" lon="6.62657">
        <ele>458.3</ele>
        <time>2023-11-26T13:39:23Z</time>
      </trkpt>
      <trkpt lat="43.62593" lon="6.62658">
        <ele>458.4</ele>
        <time>2023-11-26T13:39:24Z</time>
      </trkpt>
      <trkpt lat="43.62595" lon="6.62659">
        <ele>458.5</ele>
        <time>2023-11-26T13:39:25Z</time>
      </trkpt>
      <trkpt lat="43.62595" lon="6.62661">
        <ele>458.5</ele>
        <time>2023-11-26T13:39:26Z</time>
      </trkpt>
      <trkpt lat="43.62596" lon="6.62661">
        <ele>458.6</ele>
        <time>2023-11-26T13:39:27Z</time>
      </trkpt>
      <trkpt lat="43.62597" lon="6.62662">
        <ele>458.6</ele>
        <time>2023-11-26T13:39:28Z</time>
      </trkpt>
      <trkpt lat="43.62598" lon="6.62663">
        <ele>458.7</ele>
        <time>2023-11-26T13:39:29Z</time>
      </trkpt>
      <trkpt lat="43.62599" lon="6.62664">
        <ele>458.8</ele>
        <time>2023-11-26T13:39:30Z</time>
      </trkpt>
      <trkpt lat="43.62601" lon="6.62664">
        <ele>458.9</ele>
        <time>2023-11-26T13:39:31Z</time>
      </trkpt>
      <trkpt lat="43.62602" lon="6.62664">
        <ele>459</ele>
        <time>2023-11-26T13:39:32Z</time>
      </trkpt>
      <trkpt lat="43.62603" lon="6.62664">
        <ele>459</ele>
        <time>2023-11-26T13:39:33Z</time>
      </trkpt>
      <trkpt lat="43.62604" lon="6.62664">
        <ele>459</ele>
        <time>2023-11-26T13:39:34Z</time>
      </trkpt>
      <trkpt lat="43.62606" lon="6.62665">
        <ele>459.1</ele>
        <time>2023-11-26T13:39:35Z</time>
      </trkpt>
      <trkpt lat="43.62607" lon="6.62664">
        <ele>459.2</ele>
        <time>2023-11-26T13:39:36Z</time>
      </trkpt>
      <trkpt lat="43.62608" lon="6.62664">
        <ele>459.3</ele>
        <time>2023-11-26T13:39:37Z</time>
      </trkpt>
      <trkpt lat="43.62609" lon="6.62664">
        <ele>459.3</ele>
        <time>2023-11-26T13:39:38Z</time>
      </trkpt>
      <trkpt lat="43.62611" lon="6.62663">
        <ele>459.4</ele>
        <time>2023-11-26T13:39:39Z</time>
      </trkpt>
      <trkpt lat="43.62612" lon="6.62663">
        <ele>459.6</ele>
        <time>2023-11-26T13:39:40Z</time>
      </trkpt>
      <trkpt lat="43.62613" lon="6.62663">
        <ele>459.7</ele>
        <time>2023-11-26T13:39:41Z</time>
      </trkpt>
      <trkpt lat="43.62614" lon="6.62662">
        <ele>459.6</ele>
        <time>2023-11-26T13:39:42Z</time>
      </trkpt>
      <trkpt lat="43.62615" lon="6.62662">
        <ele>459.6</ele>
        <time>2023-11-26T13:39:43Z</time>
      </trkpt>
      <trkpt lat="43.62616" lon="6.62662">
        <ele>459.7</ele>
        <time>2023-11-26T13:39:44Z</time>
      </trkpt>
      <trkpt lat="43.62617" lon="6.62662">
        <ele>459.7</ele>
        <time>2023-11-26T13:39:45Z</time>
      </trkpt>
      <trkpt lat="43.62618" lon="6.62662">
        <ele>459.8</ele>
        <time>2023-11-26T13:39:46Z</time>
      </trkpt>
      <trkpt lat="43.62619" lon="6.62663">
        <ele>459.9</ele>
        <time>2023-11-26T13:39:47Z</time>
      </trkpt>
      <trkpt lat="43.6262" lon="6.62662">
        <ele>460</ele>
        <time>2023-11-26T13:39:48Z</time>
      </trkpt>
      <trkpt lat="43.62621" lon="6.62663">
        <ele>460.1</ele>
        <time>2023-11-26T13:39:49Z</time>
      </trkpt>
      <trkpt lat="43.62622" lon="6.62663">
        <ele>460.2</ele>
        <time>2023-11-26T13:39:50Z</time>
      </trkpt>
      <trkpt lat="43.62623" lon="6.62664">
        <ele>460.3</ele>
        <time>2023-11-26T13:39:51Z</time>
      </trkpt>
      <trkpt lat="43.62623" lon="6.62665">
        <ele>460.3</ele>
        <time>2023-11-26T13:39:52Z</time>
      </trkpt>
      <trkpt lat="43.62624" lon="6.62666">
        <ele>460.4</ele>
        <time>2023-11-26T13:39:53Z</time>
      </trkpt>
      <trkpt lat="43.62625" lon="6.62667">
        <ele>460.4</ele>
        <time>2023-11-26T13:39:54Z</time>
      </trkpt>
      <trkpt lat="43.62625" lon="6.62668">
        <ele>460.6</ele>
        <time>2023-11-26T13:39:55Z</time>
      </trkpt>
      <trkpt lat="43.62627" lon="6.62668">
        <ele>460.7</ele>
        <time>2023-11-26T13:39:56Z</time>
      </trkpt>
      <trkpt lat="43.62628" lon="6.62669">
        <ele>460.8</ele>
        <time>2023-11-26T13:39:57Z</time>
      </trkpt>
      <trkpt lat="43.62629" lon="6.6267">
        <ele>461</ele>
        <time>2023-11-26T13:39:58Z</time>
      </trkpt>
      <trkpt lat="43.62629" lon="6.62672">
        <ele>461.1</ele>
        <time>2023-11-26T13:39:59Z</time>
      </trkpt>
      <trkpt lat="43.6263" lon="6.62673">
        <ele>461.1</ele>
        <time>2023-11-26T13:40:00Z</time>
      </trkpt>
      <trkpt lat="43.62631" lon="6.62674">
        <ele>461.2</ele>
        <time>2023-11-26T13:40:01Z</time>
      </trkpt>
      <trkpt lat="43.62631" lon="6.62675">
        <ele>461.2</ele>
        <time>2023-11-26T13:40:02Z</time>
      </trkpt>
      <trkpt lat="43.62632" lon="6.62676">
        <ele>461.1</ele>
        <time>2023-11-26T13:40:03Z</time>
      </trkpt>
      <trkpt lat="43.62633" lon="6.62678">
        <ele>461.2</ele>
        <time>2023-11-26T13:40:04Z</time>
      </trkpt>
      <trkpt lat="43.62633" lon="6.62679">
        <ele>461.3</ele>
        <time>2023-11-26T13:40:05Z</time>
      </trkpt>
      <trkpt lat="43.62634" lon="6.6268">
        <ele>461.4</ele>
        <time>2023-11-26T13:40:06Z</time>
      </trkpt>
      <trkpt lat="43.62635" lon="6.62682">
        <ele>461.5</ele>
        <time>2023-11-26T13:40:07Z</time>
      </trkpt>
      <trkpt lat="43.62635" lon="6.62682">
        <ele>461.5</ele>
        <time>2023-11-26T13:40:08Z</time>
      </trkpt>
      <trkpt lat="43.62636" lon="6.62683">
        <ele>461.5</ele>
        <time>2023-11-26T13:40:09Z</time>
      </trkpt>
      <trkpt lat="43.62636" lon="6.62684">
        <ele>461.6</ele>
        <time>2023-11-26T13:40:10Z</time>
      </trkpt>
      <trkpt lat="43.62636" lon="6.62684">
        <ele>461.6</ele>
        <time>2023-11-26T13:40:11Z</time>
      </trkpt>
      <trkpt lat="43.62636" lon="6.62686">
        <ele>461.7</ele>
        <time>2023-11-26T13:40:12Z</time>
      </trkpt>
      <trkpt lat="43.62636" lon="6.62687">
        <ele>461.7</ele>
        <time>2023-11-26T13:40:13Z</time>
      </trkpt>
      <trkpt lat="43.62636" lon="6.62688">
        <ele>461.7</ele>
        <time>2023-11-26T13:40:14Z</time>
      </trkpt>
      <trkpt lat="43.62637" lon="6.6269">
        <ele>461.7</ele>
        <time>2023-11-26T13:40:15Z</time>
      </trkpt>
      <trkpt lat="43.62636" lon="6.62691">
        <ele>461.7</ele>
        <time>2023-11-26T13:40:16Z</time>
      </trkpt>
      <trkpt lat="43.62635" lon="6.62693">
        <ele>461.8</ele>
        <time>2023-11-26T13:40:17Z</time>
      </trkpt>
      <trkpt lat="43.62635" lon="6.62694">
        <ele>461.8</ele>
        <time>2023-11-26T13:40:18Z</time>
      </trkpt>
      <trkpt lat="43.62635" lon="6.62696">
        <ele>461.8</ele>
        <time>2023-11-26T13:40:19Z</time>
      </trkpt>
      <trkpt lat="43.62634" lon="6.62697">
        <ele>461.7</ele>
        <time>2023-11-26T13:40:20Z</time>
      </trkpt>
      <trkpt lat="43.62634" lon="6.62699">
        <ele>461.7</ele>
        <time>2023-11-26T13:40:21Z</time>
      </trkpt>
      <trkpt lat="43.62634" lon="6.627">
        <ele>461.8</ele>
        <time>2023-11-26T13:40:22Z</time>
      </trkpt>
      <trkpt lat="43.62633" lon="6.62702">
        <ele>461.8</ele>
        <time>2023-11-26T13:40:23Z</time>
      </trkpt>
      <trkpt lat="43.62633" lon="6.62703">
        <ele>461.8</ele>
        <time>2023-11-26T13:40:24Z</time>
      </trkpt>
      <trkpt lat="43.62632" lon="6.62705">
        <ele>461.8</ele>
        <time>2023-11-26T13:40:25Z</time>
      </trkpt>
      <trkpt lat="43.62632" lon="6.62706">
        <ele>461.8</ele>
        <time>2023-11-26T13:40:26Z</time>
      </trkpt>
      <trkpt lat="43.62632" lon="6.62708">
        <ele>461.8</ele>
        <time>2023-11-26T13:40:27Z</time>
      </trkpt>
      <trkpt lat="43.62632" lon="6.62709">
        <ele>461.9</ele>
        <time>2023-11-26T13:40:28Z</time>
      </trkpt>
      <trkpt lat="43.62632" lon="6.62711">
        <ele>461.9</ele>
        <time>2023-11-26T13:40:29Z</time>
      </trkpt>
      <trkpt lat="43.62632" lon="6.62712">
        <ele>462</ele>
        <time>2023-11-26T13:40:30Z</time>
      </trkpt>
      <trkpt lat="43.62632" lon="6.62713">
        <ele>462.1</ele>
        <time>2023-11-26T13:40:31Z</time>
      </trkpt>
      <trkpt lat="43.62632" lon="6.62715">
        <ele>462.1</ele>
        <time>2023-11-26T13:40:32Z</time>
      </trkpt>
      <trkpt lat="43.62632" lon="6.62716">
        <ele>462.3</ele>
        <time>2023-11-26T13:40:33Z</time>
      </trkpt>
      <trkpt lat="43.62633" lon="6.62717">
        <ele>462.5</ele>
        <time>2023-11-26T13:40:34Z</time>
      </trkpt>
      <trkpt lat="43.62633" lon="6.62719">
        <ele>462.6</ele>
        <time>2023-11-26T13:40:35Z</time>
      </trkpt>
      <trkpt lat="43.62634" lon="6.6272">
        <ele>462.7</ele>
        <time>2023-11-26T13:40:36Z</time>
      </trkpt>
      <trkpt lat="43.62635" lon="6.62722">
        <ele>462.8</ele>
        <time>2023-11-26T13:40:37Z</time>
      </trkpt>
      <trkpt lat="43.62636" lon="6.62724">
        <ele>462.9</ele>
        <time>2023-11-26T13:40:38Z</time>
      </trkpt>
      <trkpt lat="43.62637" lon="6.62725">
        <ele>463.2</ele>
        <time>2023-11-26T13:40:39Z</time>
      </trkpt>
      <trkpt lat="43.62638" lon="6.62727">
        <ele>463.3</ele>
        <time>2023-11-26T13:40:40Z</time>
      </trkpt>
      <trkpt lat="43.62638" lon="6.62728">
        <ele>463.4</ele>
        <time>2023-11-26T13:40:41Z</time>
      </trkpt>
      <trkpt lat="43.62639" lon="6.62729">
        <ele>463.6</ele>
        <time>2023-11-26T13:40:42Z</time>
      </trkpt>
      <trkpt lat="43.6264" lon="6.6273">
        <ele>463.8</ele>
        <time>2023-11-26T13:40:43Z</time>
      </trkpt>
      <trkpt lat="43.62641" lon="6.62731">
        <ele>464</ele>
        <time>2023-11-26T13:40:44Z</time>
      </trkpt>
      <trkpt lat="43.62641" lon="6.62733">
        <ele>464.1</ele>
        <time>2023-11-26T13:40:45Z</time>
      </trkpt>
      <trkpt lat="43.62642" lon="6.62734">
        <ele>464.3</ele>
        <time>2023-11-26T13:40:46Z</time>
      </trkpt>
      <trkpt lat="43.62643" lon="6.62736">
        <ele>464.4</ele>
        <time>2023-11-26T13:40:47Z</time>
      </trkpt>
      <trkpt lat="43.62644" lon="6.62737">
        <ele>464.5</ele>
        <time>2023-11-26T13:40:48Z</time>
      </trkpt>
      <trkpt lat="43.62644" lon="6.62738">
        <ele>464.7</ele>
        <time>2023-11-26T13:40:49Z</time>
      </trkpt>
      <trkpt lat="43.62645" lon="6.62739">
        <ele>464.8</ele>
        <time>2023-11-26T13:40:50Z</time>
      </trkpt>
      <trkpt lat="43.62645" lon="6.62741">
        <ele>464.9</ele>
        <time>2023-11-26T13:40:51Z</time>
      </trkpt>
      <trkpt lat="43.62646" lon="6.62742">
        <ele>465.1</ele>
        <time>2023-11-26T13:40:52Z</time>
      </trkpt>
      <trkpt lat="43.62647" lon="6.62743">
        <ele>465.2</ele>
        <time>2023-11-26T13:40:53Z</time>
      </trkpt>
      <trkpt lat="43.62648" lon="6.62744">
        <ele>465.2</ele>
        <time>2023-11-26T13:40:54Z</time>
      </trkpt>
      <trkpt lat="43.62648" lon="6.62745">
        <ele>465.4</ele>
        <time>2023-11-26T13:40:55Z</time>
      </trkpt>
      <trkpt lat="43.62649" lon="6.62747">
        <ele>465.6</ele>
        <time>2023-11-26T13:40:56Z</time>
      </trkpt>
      <trkpt lat="43.6265" lon="6.62748">
        <ele>465.7</ele>
        <time>2023-11-26T13:40:57Z</time>
      </trkpt>
      <trkpt lat="43.62651" lon="6.62749">
        <ele>465.8</ele>
        <time>2023-11-26T13:40:58Z</time>
      </trkpt>
      <trkpt lat="43.62651" lon="6.6275">
        <ele>465.9</ele>
        <time>2023-11-26T13:40:59Z</time>
      </trkpt>
      <trkpt lat="43.62652" lon="6.62751">
        <ele>466</ele>
        <time>2023-11-26T13:41:00Z</time>
      </trkpt>
      <trkpt lat="43.62653" lon="6.62753">
        <ele>466.1</ele>
        <time>2023-11-26T13:41:01Z</time>
      </trkpt>
      <trkpt lat="43.62653" lon="6.62754">
        <ele>466.2</ele>
        <time>2023-11-26T13:41:02Z</time>
      </trkpt>
      <trkpt lat="43.62654" lon="6.62755">
        <ele>466.3</ele>
        <time>2023-11-26T13:41:03Z</time>
      </trkpt>
      <trkpt lat="43.62655" lon="6.62756">
        <ele>466.5</ele>
        <time>2023-11-26T13:41:04Z</time>
      </trkpt>
      <trkpt lat="43.62656" lon="6.62757">
        <ele>466.7</ele>
        <time>2023-11-26T13:41:05Z</time>
      </trkpt>
      <trkpt lat="43.62657" lon="6.62758">
        <ele>466.8</ele>
        <time>2023-11-26T13:41:06Z</time>
      </trkpt>
      <trkpt lat="43.62657" lon="6.62759">
        <ele>466.9</ele>
        <time>2023-11-26T13:41:07Z</time>
      </trkpt>
      <trkpt lat="43.62658" lon="6.62759">
        <ele>467</ele>
        <time>2023-11-26T13:41:08Z</time>
      </trkpt>
      <trkpt lat="43.62659" lon="6.6276">
        <ele>467.1</ele>
        <time>2023-11-26T13:41:09Z</time>
      </trkpt>
      <trkpt lat="43.6266" lon="6.62761">
        <ele>467.1</ele>
        <time>2023-11-26T13:41:10Z</time>
      </trkpt>
      <trkpt lat="43.62661" lon="6.62762">
        <ele>467.2</ele>
        <time>2023-11-26T13:41:11Z</time>
      </trkpt>
      <trkpt lat="43.62662" lon="6.62763">
        <ele>467.2</ele>
        <time>2023-11-26T13:41:12Z</time>
      </trkpt>
      <trkpt lat="43.62662" lon="6.62764">
        <ele>467.3</ele>
        <time>2023-11-26T13:41:13Z</time>
      </trkpt>
      <trkpt lat="43.62663" lon="6.62766">
        <ele>467.3</ele>
        <time>2023-11-26T13:41:14Z</time>
      </trkpt>
      <trkpt lat="43.62664" lon="6.62766">
        <ele>467.3</ele>
        <time>2023-11-26T13:41:15Z</time>
      </trkpt>
      <trkpt lat="43.62665" lon="6.62767">
        <ele>467.5</ele>
        <time>2023-11-26T13:41:16Z</time>
      </trkpt>
      <trkpt lat="43.62666" lon="6.62768">
        <ele>467.7</ele>
        <time>2023-11-26T13:41:17Z</time>
      </trkpt>
      <trkpt lat="43.62667" lon="6.62769">
        <ele>467.8</ele>
        <time>2023-11-26T13:41:18Z</time>
      </trkpt>
      <trkpt lat="43.62667" lon="6.6277">
        <ele>467.9</ele>
        <time>2023-11-26T13:41:19Z</time>
      </trkpt>
      <trkpt lat="43.62668" lon="6.62771">
        <ele>468</ele>
        <time>2023-11-26T13:41:20Z</time>
      </trkpt>
      <trkpt lat="43.62669" lon="6.62772">
        <ele>468.1</ele>
        <time>2023-11-26T13:41:21Z</time>
      </trkpt>
      <trkpt lat="43.6267" lon="6.62773">
        <ele>468.1</ele>
        <time>2023-11-26T13:41:22Z</time>
      </trkpt>
      <trkpt lat="43.6267" lon="6.62774">
        <ele>468.3</ele>
        <time>2023-11-26T13:41:23Z</time>
      </trkpt>
      <trkpt lat="43.62671" lon="6.62775">
        <ele>468.4</ele>
        <time>2023-11-26T13:41:24Z</time>
      </trkpt>
      <trkpt lat="43.62672" lon="6.62776">
        <ele>468.7</ele>
        <time>2023-11-26T13:41:25Z</time>
      </trkpt>
      <trkpt lat="43.62672" lon="6.62777">
        <ele>468.9</ele>
        <time>2023-11-26T13:41:26Z</time>
      </trkpt>
      <trkpt lat="43.62673" lon="6.62778">
        <ele>469</ele>
        <time>2023-11-26T13:41:27Z</time>
      </trkpt>
      <trkpt lat="43.62673" lon="6.6278">
        <ele>469.1</ele>
        <time>2023-11-26T13:41:28Z</time>
      </trkpt>
      <trkpt lat="43.62674" lon="6.62781">
        <ele>469.3</ele>
        <time>2023-11-26T13:41:29Z</time>
      </trkpt>
      <trkpt lat="43.62675" lon="6.62782">
        <ele>469.4</ele>
        <time>2023-11-26T13:41:30Z</time>
      </trkpt>
      <trkpt lat="43.62675" lon="6.62783">
        <ele>469.6</ele>
        <time>2023-11-26T13:41:31Z</time>
      </trkpt>
      <trkpt lat="43.62676" lon="6.62784">
        <ele>469.8</ele>
        <time>2023-11-26T13:41:32Z</time>
      </trkpt>
      <trkpt lat="43.62677" lon="6.62785">
        <ele>469.9</ele>
        <time>2023-11-26T13:41:33Z</time>
      </trkpt>
      <trkpt lat="43.62677" lon="6.62786">
        <ele>470.1</ele>
        <time>2023-11-26T13:41:34Z</time>
      </trkpt>
      <trkpt lat="43.62678" lon="6.62788">
        <ele>470.2</ele>
        <time>2023-11-26T13:41:35Z</time>
      </trkpt>
      <trkpt lat="43.62679" lon="6.62789">
        <ele>470.3</ele>
        <time>2023-11-26T13:41:36Z</time>
      </trkpt>
      <trkpt lat="43.62679" lon="6.6279">
        <ele>470.5</ele>
        <time>2023-11-26T13:41:37Z</time>
      </trkpt>
      <trkpt lat="43.6268" lon="6.62791">
        <ele>470.6</ele>
        <time>2023-11-26T13:41:38Z</time>
      </trkpt>
      <trkpt lat="43.62681" lon="6.62792">
        <ele>470.6</ele>
        <time>2023-11-26T13:41:39Z</time>
      </trkpt>
      <trkpt lat="43.62681" lon="6.62794">
        <ele>470.7</ele>
        <time>2023-11-26T13:41:40Z</time>
      </trkpt>
      <trkpt lat="43.62682" lon="6.62795">
        <ele>470.8</ele>
        <time>2023-11-26T13:41:41Z</time>
      </trkpt>
      <trkpt lat="43.62682" lon="6.62797">
        <ele>471</ele>
        <time>2023-11-26T13:41:42Z</time>
      </trkpt>
      <trkpt lat="43.62683" lon="6.62798">
        <ele>471.1</ele>
        <time>2023-11-26T13:41:43Z</time>
      </trkpt>
      <trkpt lat="43.62683" lon="6.62799">
        <ele>471.3</ele>
        <time>2023-11-26T13:41:44Z</time>
      </trkpt>
      <trkpt lat="43.62684" lon="6.628">
        <ele>471.6</ele>
        <time>2023-11-26T13:41:45Z</time>
      </trkpt>
      <trkpt lat="43.62684" lon="6.62801">
        <ele>471.9</ele>
        <time>2023-11-26T13:41:46Z</time>
      </trkpt>
      <trkpt lat="43.62685" lon="6.62802">
        <ele>472.1</ele>
        <time>2023-11-26T13:41:47Z</time>
      </trkpt>
      <trkpt lat="43.62686" lon="6.62804">
        <ele>472.2</ele>
        <time>2023-11-26T13:41:48Z</time>
      </trkpt>
      <trkpt lat="43.62687" lon="6.62804">
        <ele>472.4</ele>
        <time>2023-11-26T13:41:49Z</time>
      </trkpt>
      <trkpt lat="43.62688" lon="6.62805">
        <ele>472.6</ele>
        <time>2023-11-26T13:41:50Z</time>
      </trkpt>
      <trkpt lat="43.62688" lon="6.62806">
        <ele>472.8</ele>
        <time>2023-11-26T13:41:51Z</time>
      </trkpt>
      <trkpt lat="43.62689" lon="6.62807">
        <ele>472.9</ele>
        <time>2023-11-26T13:41:52Z</time>
      </trkpt>
      <trkpt lat="43.62691" lon="6.62807">
        <ele>473.1</ele>
        <time>2023-11-26T13:41:53Z</time>
      </trkpt>
      <trkpt lat="43.62692" lon="6.62808">
        <ele>473.2</ele>
        <time>2023-11-26T13:41:54Z</time>
      </trkpt>
      <trkpt lat="43.62693" lon="6.62808">
        <ele>473.2</ele>
        <time>2023-11-26T13:41:55Z</time>
      </trkpt>
      <trkpt lat="43.62694" lon="6.62808">
        <ele>473.3</ele>
        <time>2023-11-26T13:41:56Z</time>
      </trkpt>
      <trkpt lat="43.62695" lon="6.62809">
        <ele>473.4</ele>
        <time>2023-11-26T13:41:57Z</time>
      </trkpt>
      <trkpt lat="43.62696" lon="6.62809">
        <ele>473.5</ele>
        <time>2023-11-26T13:41:58Z</time>
      </trkpt>
      <trkpt lat="43.62697" lon="6.62809">
        <ele>473.6</ele>
        <time>2023-11-26T13:41:59Z</time>
      </trkpt>
      <trkpt lat="43.62698" lon="6.6281">
        <ele>473.8</ele>
        <time>2023-11-26T13:42:00Z</time>
      </trkpt>
      <trkpt lat="43.62699" lon="6.6281">
        <ele>474.1</ele>
        <time>2023-11-26T13:42:01Z</time>
      </trkpt>
      <trkpt lat="43.627" lon="6.62811">
        <ele>474.3</ele>
        <time>2023-11-26T13:42:02Z</time>
      </trkpt>
      <trkpt lat="43.62701" lon="6.62811">
        <ele>474.5</ele>
        <time>2023-11-26T13:42:03Z</time>
      </trkpt>
      <trkpt lat="43.62702" lon="6.62811">
        <ele>474.7</ele>
        <time>2023-11-26T13:42:04Z</time>
      </trkpt>
      <trkpt lat="43.62703" lon="6.62811">
        <ele>474.8</ele>
        <time>2023-11-26T13:42:05Z</time>
      </trkpt>
      <trkpt lat="43.62704" lon="6.62811">
        <ele>475</ele>
        <time>2023-11-26T13:42:06Z</time>
      </trkpt>
      <trkpt lat="43.62706" lon="6.62811">
        <ele>475.2</ele>
        <time>2023-11-26T13:42:07Z</time>
      </trkpt>
      <trkpt lat="43.62707" lon="6.6281">
        <ele>475.4</ele>
        <time>2023-11-26T13:42:08Z</time>
      </trkpt>
      <trkpt lat="43.62707" lon="6.62811">
        <ele>475.6</ele>
        <time>2023-11-26T13:42:09Z</time>
      </trkpt>
      <trkpt lat="43.62708" lon="6.62811">
        <ele>475.7</ele>
        <time>2023-11-26T13:42:10Z</time>
      </trkpt>
      <trkpt lat="43.62709" lon="6.62811">
        <ele>475.8</ele>
        <time>2023-11-26T13:42:11Z</time>
      </trkpt>
      <trkpt lat="43.62711" lon="6.62812">
        <ele>476</ele>
        <time>2023-11-26T13:42:12Z</time>
      </trkpt>
      <trkpt lat="43.62712" lon="6.62813">
        <ele>476.1</ele>
        <time>2023-11-26T13:42:13Z</time>
      </trkpt>
      <trkpt lat="43.62713" lon="6.62814">
        <ele>476.1</ele>
        <time>2023-11-26T13:42:14Z</time>
      </trkpt>
      <trkpt lat="43.62714" lon="6.62814">
        <ele>476.2</ele>
        <time>2023-11-26T13:42:15Z</time>
      </trkpt>
      <trkpt lat="43.62714" lon="6.62815">
        <ele>476.3</ele>
        <time>2023-11-26T13:42:16Z</time>
      </trkpt>
      <trkpt lat="43.62715" lon="6.62816">
        <ele>476.4</ele>
        <time>2023-11-26T13:42:17Z</time>
      </trkpt>
      <trkpt lat="43.62715" lon="6.62817">
        <ele>476.6</ele>
        <time>2023-11-26T13:42:18Z</time>
      </trkpt>
      <trkpt lat="43.62716" lon="6.62818">
        <ele>476.7</ele>
        <time>2023-11-26T13:42:19Z</time>
      </trkpt>
      <trkpt lat="43.62716" lon="6.62819">
        <ele>476.8</ele>
        <time>2023-11-26T13:42:20Z</time>
      </trkpt>
      <trkpt lat="43.62717" lon="6.62821">
        <ele>477</ele>
        <time>2023-11-26T13:42:21Z</time>
      </trkpt>
      <trkpt lat="43.62717" lon="6.62822">
        <ele>477.2</ele>
        <time>2023-11-26T13:42:22Z</time>
      </trkpt>
      <trkpt lat="43.62717" lon="6.62824">
        <ele>477.3</ele>
        <time>2023-11-26T13:42:23Z</time>
      </trkpt>
      <trkpt lat="43.62717" lon="6.62825">
        <ele>477.5</ele>
        <time>2023-11-26T13:42:24Z</time>
      </trkpt>
      <trkpt lat="43.62717" lon="6.62827">
        <ele>477.7</ele>
        <time>2023-11-26T13:42:25Z</time>
      </trkpt>
      <trkpt lat="43.62716" lon="6.62828">
        <ele>477.9</ele>
        <time>2023-11-26T13:42:26Z</time>
      </trkpt>
      <trkpt lat="43.62716" lon="6.62829">
        <ele>478.1</ele>
        <time>2023-11-26T13:42:27Z</time>
      </trkpt>
      <trkpt lat="43.62715" lon="6.62831">
        <ele>478.2</ele>
        <time>2023-11-26T13:42:28Z</time>
      </trkpt>
      <trkpt lat="43.62715" lon="6.62832">
        <ele>478.3</ele>
        <time>2023-11-26T13:42:29Z</time>
      </trkpt>
      <trkpt lat="43.62715" lon="6.62833">
        <ele>478.5</ele>
        <time>2023-11-26T13:42:30Z</time>
      </trkpt>
      <trkpt lat="43.62714" lon="6.62835">
        <ele>478.7</ele>
        <time>2023-11-26T13:42:31Z</time>
      </trkpt>
      <trkpt lat="43.62714" lon="6.62836">
        <ele>478.7</ele>
        <time>2023-11-26T13:42:32Z</time>
      </trkpt>
      <trkpt lat="43.62714" lon="6.62837">
        <ele>478.9</ele>
        <time>2023-11-26T13:42:33Z</time>
      </trkpt>
      <trkpt lat="43.62714" lon="6.62839">
        <ele>479.1</ele>
        <time>2023-11-26T13:42:34Z</time>
      </trkpt>
      <trkpt lat="43.62714" lon="6.6284">
        <ele>479.2</ele>
        <time>2023-11-26T13:42:35Z</time>
      </trkpt>
      <trkpt lat="43.62713" lon="6.62842">
        <ele>479.3</ele>
        <time>2023-11-26T13:42:36Z</time>
      </trkpt>
      <trkpt lat="43.62713" lon="6.62843">
        <ele>479.4</ele>
        <time>2023-11-26T13:42:37Z</time>
      </trkpt>
      <trkpt lat="43.62713" lon="6.62845">
        <ele>479.5</ele>
        <time>2023-11-26T13:42:38Z</time>
      </trkpt>
      <trkpt lat="43.62713" lon="6.62846">
        <ele>479.6</ele>
        <time>2023-11-26T13:42:39Z</time>
      </trkpt>
      <trkpt lat="43.62713" lon="6.62848">
        <ele>479.7</ele>
        <time>2023-11-26T13:42:40Z</time>
      </trkpt>
      <trkpt lat="43.62713" lon="6.62849">
        <ele>479.7</ele>
        <time>2023-11-26T13:42:41Z</time>
      </trkpt>
      <trkpt lat="43.62713" lon="6.6285">
        <ele>479.8</ele>
        <time>2023-11-26T13:42:42Z</time>
      </trkpt>
      <trkpt lat="43.62713" lon="6.62852">
        <ele>479.9</ele>
        <time>2023-11-26T13:42:43Z</time>
      </trkpt>
      <trkpt lat="43.62713" lon="6.62854">
        <ele>479.9</ele>
        <time>2023-11-26T13:42:44Z</time>
      </trkpt>
      <trkpt lat="43.62714" lon="6.62855">
        <ele>480</ele>
        <time>2023-11-26T13:42:45Z</time>
      </trkpt>
      <trkpt lat="43.62714" lon="6.62856">
        <ele>480.1</ele>
        <time>2023-11-26T13:42:46Z</time>
      </trkpt>
      <trkpt lat="43.62714" lon="6.62858">
        <ele>480.2</ele>
        <time>2023-11-26T13:42:47Z</time>
      </trkpt>
      <trkpt lat="43.62714" lon="6.62859">
        <ele>480.3</ele>
        <time>2023-11-26T13:42:48Z</time>
      </trkpt>
      <trkpt lat="43.62714" lon="6.62861">
        <ele>480.5</ele>
        <time>2023-11-26T13:42:49Z</time>
      </trkpt>
      <trkpt lat="43.62715" lon="6.62862">
        <ele>480.6</ele>
        <time>2023-11-26T13:42:50Z</time>
      </trkpt>
      <trkpt lat="43.62715" lon="6.62864">
        <ele>480.7</ele>
        <time>2023-11-26T13:42:51Z</time>
      </trkpt>
      <trkpt lat="43.62715" lon="6.62865">
        <ele>480.8</ele>
        <time>2023-11-26T13:42:52Z</time>
      </trkpt>
      <trkpt lat="43.62716" lon="6.62867">
        <ele>480.9</ele>
        <time>2023-11-26T13:42:53Z</time>
      </trkpt>
      <trkpt lat="43.62717" lon="6.62868">
        <ele>481</ele>
        <time>2023-11-26T13:42:54Z</time>
      </trkpt>
      <trkpt lat="43.62717" lon="6.62869">
        <ele>481.1</ele>
        <time>2023-11-26T13:42:55Z</time>
      </trkpt>
      <trkpt lat="43.62718" lon="6.62871">
        <ele>481.2</ele>
        <time>2023-11-26T13:42:56Z</time>
      </trkpt>
      <trkpt lat="43.62718" lon="6.62872">
        <ele>481.2</ele>
        <time>2023-11-26T13:42:57Z</time>
      </trkpt>
      <trkpt lat="43.62718" lon="6.62874">
        <ele>481.3</ele>
        <time>2023-11-26T13:42:58Z</time>
      </trkpt>
      <trkpt lat="43.62719" lon="6.62875">
        <ele>481.4</ele>
        <time>2023-11-26T13:42:59Z</time>
      </trkpt>
      <trkpt lat="43.62719" lon="6.62876">
        <ele>481.5</ele>
        <time>2023-11-26T13:43:00Z</time>
      </trkpt>
      <trkpt lat="43.6272" lon="6.62877">
        <ele>481.6</ele>
        <time>2023-11-26T13:43:01Z</time>
      </trkpt>
      <trkpt lat="43.62721" lon="6.62878">
        <ele>481.7</ele>
        <time>2023-11-26T13:43:02Z</time>
      </trkpt>
      <trkpt lat="43.62722" lon="6.6288">
        <ele>481.8</ele>
        <time>2023-11-26T13:43:03Z</time>
      </trkpt>
      <trkpt lat="43.62722" lon="6.62881">
        <ele>481.8</ele>
        <time>2023-11-26T13:43:04Z</time>
      </trkpt>
      <trkpt lat="43.62723" lon="6.62883">
        <ele>481.8</ele>
        <time>2023-11-26T13:43:05Z</time>
      </trkpt>
      <trkpt lat="43.62723" lon="6.62884">
        <ele>481.8</ele>
        <time>2023-11-26T13:43:06Z</time>
      </trkpt>
      <trkpt lat="43.62724" lon="6.62885">
        <ele>481.8</ele>
        <time>2023-11-26T13:43:07Z</time>
      </trkpt>
      <trkpt lat="43.62725" lon="6.62887">
        <ele>481.9</ele>
        <time>2023-11-26T13:43:08Z</time>
      </trkpt>
      <trkpt lat="43.62725" lon="6.62888">
        <ele>481.9</ele>
        <time>2023-11-26T13:43:09Z</time>
      </trkpt>
      <trkpt lat="43.62726" lon="6.6289">
        <ele>481.9</ele>
        <time>2023-11-26T13:43:10Z</time>
      </trkpt>
      <trkpt lat="43.62727" lon="6.62891">
        <ele>481.9</ele>
        <time>2023-11-26T13:43:11Z</time>
      </trkpt>
      <trkpt lat="43.62728" lon="6.62892">
        <ele>481.9</ele>
        <time>2023-11-26T13:43:12Z</time>
      </trkpt>
      <trkpt lat="43.62729" lon="6.62894">
        <ele>481.8</ele>
        <time>2023-11-26T13:43:13Z</time>
      </trkpt>
      <trkpt lat="43.6273" lon="6.62895">
        <ele>481.9</ele>
        <time>2023-11-26T13:43:14Z</time>
      </trkpt>
      <trkpt lat="43.62731" lon="6.62895">
        <ele>481.8</ele>
        <time>2023-11-26T13:43:15Z</time>
      </trkpt>
      <trkpt lat="43.62732" lon="6.62897">
        <ele>482</ele>
        <time>2023-11-26T13:43:16Z</time>
      </trkpt>
      <trkpt lat="43.62733" lon="6.62898">
        <ele>482</ele>
        <time>2023-11-26T13:43:17Z</time>
      </trkpt>
      <trkpt lat="43.62733" lon="6.62899">
        <ele>482.1</ele>
        <time>2023-11-26T13:43:18Z</time>
      </trkpt>
      <trkpt lat="43.62734" lon="6.62899">
        <ele>482.1</ele>
        <time>2023-11-26T13:43:19Z</time>
      </trkpt>
      <trkpt lat="43.62735" lon="6.62901">
        <ele>482.2</ele>
        <time>2023-11-26T13:43:20Z</time>
      </trkpt>
      <trkpt lat="43.62736" lon="6.62902">
        <ele>482.3</ele>
        <time>2023-11-26T13:43:21Z</time>
      </trkpt>
      <trkpt lat="43.62737" lon="6.62903">
        <ele>482.3</ele>
        <time>2023-11-26T13:43:22Z</time>
      </trkpt>
      <trkpt lat="43.62737" lon="6.62904">
        <ele>482.4</ele>
        <time>2023-11-26T13:43:23Z</time>
      </trkpt>
      <trkpt lat="43.62737" lon="6.62905">
        <ele>482.5</ele>
        <time>2023-11-26T13:43:24Z</time>
      </trkpt>
      <trkpt lat="43.62738" lon="6.62907">
        <ele>482.6</ele>
        <time>2023-11-26T13:43:25Z</time>
      </trkpt>
      <trkpt lat="43.62739" lon="6.62908">
        <ele>482.7</ele>
        <time>2023-11-26T13:43:26Z</time>
      </trkpt>
      <trkpt lat="43.62739" lon="6.6291">
        <ele>482.8</ele>
        <time>2023-11-26T13:43:27Z</time>
      </trkpt>
      <trkpt lat="43.6274" lon="6.62911">
        <ele>482.8</ele>
        <time>2023-11-26T13:43:28Z</time>
      </trkpt>
      <trkpt lat="43.62741" lon="6.62913">
        <ele>482.8</ele>
        <time>2023-11-26T13:43:29Z</time>
      </trkpt>
      <trkpt lat="43.62741" lon="6.62914">
        <ele>482.8</ele>
        <time>2023-11-26T13:43:30Z</time>
      </trkpt>
      <trkpt lat="43.62742" lon="6.62915">
        <ele>482.9</ele>
        <time>2023-11-26T13:43:31Z</time>
      </trkpt>
      <trkpt lat="43.62742" lon="6.62917">
        <ele>482.9</ele>
        <time>2023-11-26T13:43:32Z</time>
      </trkpt>
      <trkpt lat="43.62743" lon="6.62918">
        <ele>483</ele>
        <time>2023-11-26T13:43:33Z</time>
      </trkpt>
      <trkpt lat="43.62743" lon="6.6292">
        <ele>483.1</ele>
        <time>2023-11-26T13:43:34Z</time>
      </trkpt>
      <trkpt lat="43.62744" lon="6.62921">
        <ele>483.2</ele>
        <time>2023-11-26T13:43:35Z</time>
      </trkpt>
      <trkpt lat="43.62744" lon="6.62923">
        <ele>483.2</ele>
        <time>2023-11-26T13:43:36Z</time>
      </trkpt>
      <trkpt lat="43.62745" lon="6.62924">
        <ele>483.3</ele>
        <time>2023-11-26T13:43:37Z</time>
      </trkpt>
      <trkpt lat="43.62746" lon="6.62925">
        <ele>483.4</ele>
        <time>2023-11-26T13:43:38Z</time>
      </trkpt>
      <trkpt lat="43.62746" lon="6.62927">
        <ele>483.5</ele>
        <time>2023-11-26T13:43:39Z</time>
      </trkpt>
      <trkpt lat="43.62746" lon="6.62928">
        <ele>483.4</ele>
        <time>2023-11-26T13:43:40Z</time>
      </trkpt>
      <trkpt lat="43.62747" lon="6.6293">
        <ele>483.5</ele>
        <time>2023-11-26T13:43:41Z</time>
      </trkpt>
      <trkpt lat="43.62747" lon="6.62931">
        <ele>483.6</ele>
        <time>2023-11-26T13:43:42Z</time>
      </trkpt>
      <trkpt lat="43.62748" lon="6.62933">
        <ele>483.6</ele>
        <time>2023-11-26T13:43:43Z</time>
      </trkpt>
      <trkpt lat="43.62748" lon="6.62935">
        <ele>483.7</ele>
        <time>2023-11-26T13:43:44Z</time>
      </trkpt>
      <trkpt lat="43.62748" lon="6.62936">
        <ele>483.7</ele>
        <time>2023-11-26T13:43:45Z</time>
      </trkpt>
      <trkpt lat="43.62748" lon="6.62937">
        <ele>483.7</ele>
        <time>2023-11-26T13:43:46Z</time>
      </trkpt>
      <trkpt lat="43.62748" lon="6.62939">
        <ele>483.9</ele>
        <time>2023-11-26T13:43:47Z</time>
      </trkpt>
      <trkpt lat="43.62748" lon="6.6294">
        <ele>484</ele>
        <time>2023-11-26T13:43:48Z</time>
      </trkpt>
      <trkpt lat="43.62748" lon="6.62941">
        <ele>484.2</ele>
        <time>2023-11-26T13:43:49Z</time>
      </trkpt>
      <trkpt lat="43.62748" lon="6.62942">
        <ele>484.3</ele>
        <time>2023-11-26T13:43:50Z</time>
      </trkpt>
      <trkpt lat="43.62748" lon="6.62943">
        <ele>484.4</ele>
        <time>2023-11-26T13:43:51Z</time>
      </trkpt>
      <trkpt lat="43.62748" lon="6.62944">
        <ele>484.5</ele>
        <time>2023-11-26T13:43:52Z</time>
      </trkpt>
      <trkpt lat="43.62748" lon="6.62946">
        <ele>484.7</ele>
        <time>2023-11-26T13:43:53Z</time>
      </trkpt>
      <trkpt lat="43.62747" lon="6.62947">
        <ele>484.8</ele>
        <time>2023-11-26T13:43:54Z</time>
      </trkpt>
      <trkpt lat="43.62747" lon="6.62949">
        <ele>484.9</ele>
        <time>2023-11-26T13:43:55Z</time>
      </trkpt>
      <trkpt lat="43.62746" lon="6.6295">
        <ele>485</ele>
        <time>2023-11-26T13:43:56Z</time>
      </trkpt>
      <trkpt lat="43.62746" lon="6.62952">
        <ele>485.1</ele>
        <time>2023-11-26T13:43:57Z</time>
      </trkpt>
      <trkpt lat="43.62745" lon="6.62953">
        <ele>485.2</ele>
        <time>2023-11-26T13:43:58Z</time>
      </trkpt>
      <trkpt lat="43.62745" lon="6.62954">
        <ele>485.3</ele>
        <time>2023-11-26T13:43:59Z</time>
      </trkpt>
      <trkpt lat="43.62745" lon="6.62955">
        <ele>485.4</ele>
        <time>2023-11-26T13:44:00Z</time>
      </trkpt>
      <trkpt lat="43.62744" lon="6.62957">
        <ele>485.4</ele>
        <time>2023-11-26T13:44:01Z</time>
      </trkpt>
      <trkpt lat="43.62744" lon="6.62958">
        <ele>485.5</ele>
        <time>2023-11-26T13:44:02Z</time>
      </trkpt>
      <trkpt lat="43.62744" lon="6.62959">
        <ele>485.6</ele>
        <time>2023-11-26T13:44:03Z</time>
      </trkpt>
      <trkpt lat="43.62743" lon="6.62961">
        <ele>485.7</ele>
        <time>2023-11-26T13:44:04Z</time>
      </trkpt>
      <trkpt lat="43.62742" lon="6.62962">
        <ele>485.6</ele>
        <time>2023-11-26T13:44:05Z</time>
      </trkpt>
      <trkpt lat="43.62742" lon="6.62964">
        <ele>485.6</ele>
        <time>2023-11-26T13:44:06Z</time>
      </trkpt>
      <trkpt lat="43.62741" lon="6.62965">
        <ele>485.7</ele>
        <time>2023-11-26T13:44:07Z</time>
      </trkpt>
      <trkpt lat="43.62741" lon="6.62966">
        <ele>485.9</ele>
        <time>2023-11-26T13:44:08Z</time>
      </trkpt>
      <trkpt lat="43.6274" lon="6.62968">
        <ele>486</ele>
        <time>2023-11-26T13:44:09Z</time>
      </trkpt>
      <trkpt lat="43.6274" lon="6.6297">
        <ele>486.2</ele>
        <time>2023-11-26T13:44:10Z</time>
      </trkpt>
      <trkpt lat="43.62739" lon="6.62971">
        <ele>486.3</ele>
        <time>2023-11-26T13:44:11Z</time>
      </trkpt>
      <trkpt lat="43.62739" lon="6.62972">
        <ele>486.3</ele>
        <time>2023-11-26T13:44:12Z</time>
      </trkpt>
      <trkpt lat="43.62738" lon="6.62973">
        <ele>486.5</ele>
        <time>2023-11-26T13:44:13Z</time>
      </trkpt>
      <trkpt lat="43.62737" lon="6.62975">
        <ele>486.6</ele>
        <time>2023-11-26T13:44:14Z</time>
      </trkpt>
      <trkpt lat="43.62737" lon="6.62976">
        <ele>486.7</ele>
        <time>2023-11-26T13:44:15Z</time>
      </trkpt>
      <trkpt lat="43.62736" lon="6.62978">
        <ele>486.8</ele>
        <time>2023-11-26T13:44:16Z</time>
      </trkpt>
      <trkpt lat="43.62735" lon="6.62979">
        <ele>486.8</ele>
        <time>2023-11-26T13:44:17Z</time>
      </trkpt>
      <trkpt lat="43.62735" lon="6.6298">
        <ele>486.8</ele>
        <time>2023-11-26T13:44:18Z</time>
      </trkpt>
      <trkpt lat="43.62734" lon="6.62982">
        <ele>486.8</ele>
        <time>2023-11-26T13:44:19Z</time>
      </trkpt>
      <trkpt lat="43.62733" lon="6.62983">
        <ele>486.8</ele>
        <time>2023-11-26T13:44:20Z</time>
      </trkpt>
      <trkpt lat="43.62733" lon="6.62984">
        <ele>486.9</ele>
        <time>2023-11-26T13:44:21Z</time>
      </trkpt>
      <trkpt lat="43.62733" lon="6.62985">
        <ele>486.9</ele>
        <time>2023-11-26T13:44:22Z</time>
      </trkpt>
      <trkpt lat="43.62732" lon="6.62987">
        <ele>487</ele>
        <time>2023-11-26T13:44:23Z</time>
      </trkpt>
      <trkpt lat="43.62732" lon="6.62988">
        <ele>487.1</ele>
        <time>2023-11-26T13:44:24Z</time>
      </trkpt>
      <trkpt lat="43.62731" lon="6.62989">
        <ele>487.2</ele>
        <time>2023-11-26T13:44:25Z</time>
      </trkpt>
      <trkpt lat="43.62731" lon="6.6299">
        <ele>487.3</ele>
        <time>2023-11-26T13:44:26Z</time>
      </trkpt>
      <trkpt lat="43.6273" lon="6.62991">
        <ele>487.2</ele>
        <time>2023-11-26T13:44:27Z</time>
      </trkpt>
      <trkpt lat="43.6273" lon="6.62993">
        <ele>487.2</ele>
        <time>2023-11-26T13:44:28Z</time>
      </trkpt>
      <trkpt lat="43.6273" lon="6.62994">
        <ele>487.2</ele>
        <time>2023-11-26T13:44:29Z</time>
      </trkpt>
      <trkpt lat="43.62729" lon="6.62996">
        <ele>487.4</ele>
        <time>2023-11-26T13:44:30Z</time>
      </trkpt>
      <trkpt lat="43.62729" lon="6.62997">
        <ele>487.5</ele>
        <time>2023-11-26T13:44:31Z</time>
      </trkpt>
      <trkpt lat="43.62728" lon="6.62999">
        <ele>487.6</ele>
        <time>2023-11-26T13:44:32Z</time>
      </trkpt>
      <trkpt lat="43.62728" lon="6.63001">
        <ele>487.7</ele>
        <time>2023-11-26T13:44:33Z</time>
      </trkpt>
      <trkpt lat="43.62727" lon="6.63003">
        <ele>487.7</ele>
        <time>2023-11-26T13:44:34Z</time>
      </trkpt>
      <trkpt lat="43.62727" lon="6.63004">
        <ele>487.8</ele>
        <time>2023-11-26T13:44:35Z</time>
      </trkpt>
      <trkpt lat="43.62727" lon="6.63006">
        <ele>488</ele>
        <time>2023-11-26T13:44:36Z</time>
      </trkpt>
      <trkpt lat="43.62726" lon="6.63008">
        <ele>488.1</ele>
        <time>2023-11-26T13:44:37Z</time>
      </trkpt>
      <trkpt lat="43.62726" lon="6.63009">
        <ele>488.2</ele>
        <time>2023-11-26T13:44:38Z</time>
      </trkpt>
      <trkpt lat="43.62726" lon="6.63011">
        <ele>488.4</ele>
        <time>2023-11-26T13:44:39Z</time>
      </trkpt>
      <trkpt lat="43.62725" lon="6.63013">
        <ele>488.4</ele>
        <time>2023-11-26T13:44:40Z</time>
      </trkpt>
      <trkpt lat="43.62724" lon="6.63015">
        <ele>488.5</ele>
        <time>2023-11-26T13:44:41Z</time>
      </trkpt>
      <trkpt lat="43.62723" lon="6.63017">
        <ele>488.6</ele>
        <time>2023-11-26T13:44:42Z</time>
      </trkpt>
      <trkpt lat="43.62724" lon="6.63018">
        <ele>488.6</ele>
        <time>2023-11-26T13:44:43Z</time>
      </trkpt>
      <trkpt lat="43.62723" lon="6.63019">
        <ele>488.7</ele>
        <time>2023-11-26T13:44:44Z</time>
      </trkpt>
      <trkpt lat="43.62723" lon="6.6302">
        <ele>488.8</ele>
        <time>2023-11-26T13:44:45Z</time>
      </trkpt>
      <trkpt lat="43.62723" lon="6.63022">
        <ele>488.8</ele>
        <time>2023-11-26T13:44:46Z</time>
      </trkpt>
      <trkpt lat="43.62723" lon="6.63024">
        <ele>488.9</ele>
        <time>2023-11-26T13:44:47Z</time>
      </trkpt>
      <trkpt lat="43.62723" lon="6.63025">
        <ele>489.1</ele>
        <time>2023-11-26T13:44:48Z</time>
      </trkpt>
      <trkpt lat="43.62723" lon="6.63027">
        <ele>489.2</ele>
        <time>2023-11-26T13:44:49Z</time>
      </trkpt>
      <trkpt lat="43.62723" lon="6.63028">
        <ele>489.4</ele>
        <time>2023-11-26T13:44:50Z</time>
      </trkpt>
      <trkpt lat="43.62723" lon="6.6303">
        <ele>489.5</ele>
        <time>2023-11-26T13:44:51Z</time>
      </trkpt>
      <trkpt lat="43.62723" lon="6.63031">
        <ele>489.6</ele>
        <time>2023-11-26T13:44:52Z</time>
      </trkpt>
      <trkpt lat="43.62723" lon="6.63032">
        <ele>489.6</ele>
        <time>2023-11-26T13:44:53Z</time>
      </trkpt>
      <trkpt lat="43.62722" lon="6.63034">
        <ele>489.7</ele>
        <time>2023-11-26T13:44:54Z</time>
      </trkpt>
      <trkpt lat="43.62721" lon="6.63035">
        <ele>489.8</ele>
        <time>2023-11-26T13:44:55Z</time>
      </trkpt>
      <trkpt lat="43.62721" lon="6.63037">
        <ele>489.9</ele>
        <time>2023-11-26T13:44:56Z</time>
      </trkpt>
      <trkpt lat="43.6272" lon="6.63038">
        <ele>490.1</ele>
        <time>2023-11-26T13:44:57Z</time>
      </trkpt>
      <trkpt lat="43.6272" lon="6.6304">
        <ele>490.3</ele>
        <time>2023-11-26T13:44:58Z</time>
      </trkpt>
      <trkpt lat="43.62719" lon="6.63042">
        <ele>490.4</ele>
        <time>2023-11-26T13:44:59Z</time>
      </trkpt>
      <trkpt lat="43.62719" lon="6.63043">
        <ele>490.5</ele>
        <time>2023-11-26T13:45:00Z</time>
      </trkpt>
      <trkpt lat="43.62719" lon="6.63045">
        <ele>490.5</ele>
        <time>2023-11-26T13:45:01Z</time>
      </trkpt>
      <trkpt lat="43.6272" lon="6.63046">
        <ele>490.8</ele>
        <time>2023-11-26T13:45:02Z</time>
      </trkpt>
      <trkpt lat="43.6272" lon="6.63048">
        <ele>490.9</ele>
        <time>2023-11-26T13:45:03Z</time>
      </trkpt>
      <trkpt lat="43.62719" lon="6.6305">
        <ele>491</ele>
        <time>2023-11-26T13:45:04Z</time>
      </trkpt>
      <trkpt lat="43.62719" lon="6.63052">
        <ele>491.2</ele>
        <time>2023-11-26T13:45:05Z</time>
      </trkpt>
      <trkpt lat="43.62719" lon="6.63053">
        <ele>491.5</ele>
        <time>2023-11-26T13:45:06Z</time>
      </trkpt>
      <trkpt lat="43.62719" lon="6.63055">
        <ele>491.7</ele>
        <time>2023-11-26T13:45:07Z</time>
      </trkpt>
      <trkpt lat="43.62719" lon="6.63057">
        <ele>491.9</ele>
        <time>2023-11-26T13:45:08Z</time>
      </trkpt>
      <trkpt lat="43.62719" lon="6.63059">
        <ele>492</ele>
        <time>2023-11-26T13:45:09Z</time>
      </trkpt>
      <trkpt lat="43.62719" lon="6.63061">
        <ele>492.1</ele>
        <time>2023-11-26T13:45:10Z</time>
      </trkpt>
      <trkpt lat="43.62719" lon="6.63063">
        <ele>492.3</ele>
        <time>2023-11-26T13:45:11Z</time>
      </trkpt>
      <trkpt lat="43.62719" lon="6.63065">
        <ele>492.4</ele>
        <time>2023-11-26T13:45:12Z</time>
      </trkpt>
      <trkpt lat="43.62719" lon="6.63067">
        <ele>492.7</ele>
        <time>2023-11-26T13:45:13Z</time>
      </trkpt>
      <trkpt lat="43.62719" lon="6.63069">
        <ele>492.8</ele>
        <time>2023-11-26T13:45:14Z</time>
      </trkpt>
      <trkpt lat="43.6272" lon="6.63071">
        <ele>492.9</ele>
        <time>2023-11-26T13:45:15Z</time>
      </trkpt>
      <trkpt lat="43.6272" lon="6.63073">
        <ele>492.9</ele>
        <time>2023-11-26T13:45:16Z</time>
      </trkpt>
      <trkpt lat="43.62719" lon="6.63075">
        <ele>492.9</ele>
        <time>2023-11-26T13:45:17Z</time>
      </trkpt>
      <trkpt lat="43.62719" lon="6.63076">
        <ele>493</ele>
        <time>2023-11-26T13:45:18Z</time>
      </trkpt>
      <trkpt lat="43.62719" lon="6.63078">
        <ele>493</ele>
        <time>2023-11-26T13:45:19Z</time>
      </trkpt>
      <trkpt lat="43.62719" lon="6.6308">
        <ele>493.1</ele>
        <time>2023-11-26T13:45:20Z</time>
      </trkpt>
      <trkpt lat="43.62719" lon="6.63082">
        <ele>493.2</ele>
        <time>2023-11-26T13:45:21Z</time>
      </trkpt>
      <trkpt lat="43.62719" lon="6.63084">
        <ele>493.3</ele>
        <time>2023-11-26T13:45:22Z</time>
      </trkpt>
      <trkpt lat="43.62719" lon="6.63086">
        <ele>493.4</ele>
        <time>2023-11-26T13:45:23Z</time>
      </trkpt>
      <trkpt lat="43.62718" lon="6.63088">
        <ele>493.5</ele>
        <time>2023-11-26T13:45:24Z</time>
      </trkpt>
      <trkpt lat="43.62718" lon="6.6309">
        <ele>493.5</ele>
        <time>2023-11-26T13:45:25Z</time>
      </trkpt>
      <trkpt lat="43.62719" lon="6.63092">
        <ele>493.6</ele>
        <time>2023-11-26T13:45:26Z</time>
      </trkpt>
      <trkpt lat="43.62719" lon="6.63094">
        <ele>493.7</ele>
        <time>2023-11-26T13:45:27Z</time>
      </trkpt>
      <trkpt lat="43.62719" lon="6.63095">
        <ele>493.7</ele>
        <time>2023-11-26T13:45:28Z</time>
      </trkpt>
      <trkpt lat="43.62719" lon="6.63097">
        <ele>493.8</ele>
        <time>2023-11-26T13:45:29Z</time>
      </trkpt>
      <trkpt lat="43.62719" lon="6.63099">
        <ele>493.8</ele>
        <time>2023-11-26T13:45:30Z</time>
      </trkpt>
      <trkpt lat="43.62719" lon="6.63101">
        <ele>493.8</ele>
        <time>2023-11-26T13:45:31Z</time>
      </trkpt>
      <trkpt lat="43.6272" lon="6.63103">
        <ele>493.8</ele>
        <time>2023-11-26T13:45:32Z</time>
      </trkpt>
      <trkpt lat="43.6272" lon="6.63105">
        <ele>493.8</ele>
        <time>2023-11-26T13:45:33Z</time>
      </trkpt>
      <trkpt lat="43.6272" lon="6.63107">
        <ele>493.8</ele>
        <time>2023-11-26T13:45:34Z</time>
      </trkpt>
      <trkpt lat="43.6272" lon="6.63108">
        <ele>493.7</ele>
        <time>2023-11-26T13:45:35Z</time>
      </trkpt>
      <trkpt lat="43.6272" lon="6.6311">
        <ele>493.7</ele>
        <time>2023-11-26T13:45:36Z</time>
      </trkpt>
      <trkpt lat="43.6272" lon="6.63111">
        <ele>493.7</ele>
        <time>2023-11-26T13:45:37Z</time>
      </trkpt>
      <trkpt lat="43.6272" lon="6.63113">
        <ele>493.7</ele>
        <time>2023-11-26T13:45:38Z</time>
      </trkpt>
      <trkpt lat="43.6272" lon="6.63114">
        <ele>493.7</ele>
        <time>2023-11-26T13:45:39Z</time>
      </trkpt>
      <trkpt lat="43.6272" lon="6.63116">
        <ele>493.7</ele>
        <time>2023-11-26T13:45:40Z</time>
      </trkpt>
      <trkpt lat="43.6272" lon="6.63117">
        <ele>493.7</ele>
        <time>2023-11-26T13:45:41Z</time>
      </trkpt>
      <trkpt lat="43.62721" lon="6.63118">
        <ele>493.7</ele>
        <time>2023-11-26T13:45:42Z</time>
      </trkpt>
      <trkpt lat="43.62721" lon="6.63118">
        <ele>493.6</ele>
        <time>2023-11-26T13:45:43Z</time>
      </trkpt>
      <trkpt lat="43.62721" lon="6.63119">
        <ele>493.5</ele>
        <time>2023-11-26T13:45:44Z</time>
      </trkpt>
      <trkpt lat="43.62721" lon="6.63121">
        <ele>493.4</ele>
        <time>2023-11-26T13:45:45Z</time>
      </trkpt>
      <trkpt lat="43.62721" lon="6.63122">
        <ele>493.4</ele>
        <time>2023-11-26T13:45:46Z</time>
      </trkpt>
      <trkpt lat="43.62721" lon="6.63123">
        <ele>493.4</ele>
        <time>2023-11-26T13:45:47Z</time>
      </trkpt>
      <trkpt lat="43.62721" lon="6.63125">
        <ele>493.4</ele>
        <time>2023-11-26T13:45:48Z</time>
      </trkpt>
      <trkpt lat="43.62721" lon="6.63127">
        <ele>493.4</ele>
        <time>2023-11-26T13:45:49Z</time>
      </trkpt>
      <trkpt lat="43.62721" lon="6.63128">
        <ele>493.5</ele>
        <time>2023-11-26T13:45:50Z</time>
      </trkpt>
      <trkpt lat="43.62721" lon="6.6313">
        <ele>493.7</ele>
        <time>2023-11-26T13:45:51Z</time>
      </trkpt>
      <trkpt lat="43.62721" lon="6.63132">
        <ele>493.7</ele>
        <time>2023-11-26T13:45:52Z</time>
      </trkpt>
      <trkpt lat="43.62721" lon="6.63133">
        <ele>493.8</ele>
        <time>2023-11-26T13:45:53Z</time>
      </trkpt>
      <trkpt lat="43.62721" lon="6.63135">
        <ele>493.8</ele>
        <time>2023-11-26T13:45:54Z</time>
      </trkpt>
      <trkpt lat="43.62721" lon="6.63137">
        <ele>493.8</ele>
        <time>2023-11-26T13:45:55Z</time>
      </trkpt>
      <trkpt lat="43.62721" lon="6.63139">
        <ele>493.8</ele>
        <time>2023-11-26T13:45:56Z</time>
      </trkpt>
      <trkpt lat="43.6272" lon="6.6314">
        <ele>493.8</ele>
        <time>2023-11-26T13:45:57Z</time>
      </trkpt>
      <trkpt lat="43.6272" lon="6.63142">
        <ele>493.7</ele>
        <time>2023-11-26T13:45:58Z</time>
      </trkpt>
      <trkpt lat="43.6272" lon="6.63144">
        <ele>493.7</ele>
        <time>2023-11-26T13:45:59Z</time>
      </trkpt>
      <trkpt lat="43.6272" lon="6.63145">
        <ele>493.6</ele>
        <time>2023-11-26T13:46:00Z</time>
      </trkpt>
      <trkpt lat="43.6272" lon="6.63147">
        <ele>493.7</ele>
        <time>2023-11-26T13:46:01Z</time>
      </trkpt>
      <trkpt lat="43.6272" lon="6.63148">
        <ele>493.7</ele>
        <time>2023-11-26T13:46:02Z</time>
      </trkpt>
      <trkpt lat="43.6272" lon="6.6315">
        <ele>493.7</ele>
        <time>2023-11-26T13:46:03Z</time>
      </trkpt>
      <trkpt lat="43.6272" lon="6.63152">
        <ele>493.7</ele>
        <time>2023-11-26T13:46:04Z</time>
      </trkpt>
      <trkpt lat="43.6272" lon="6.63153">
        <ele>493.7</ele>
        <time>2023-11-26T13:46:05Z</time>
      </trkpt>
      <trkpt lat="43.6272" lon="6.63155">
        <ele>493.7</ele>
        <time>2023-11-26T13:46:06Z</time>
      </trkpt>
      <trkpt lat="43.62721" lon="6.63156">
        <ele>493.7</ele>
        <time>2023-11-26T13:46:07Z</time>
      </trkpt>
      <trkpt lat="43.62721" lon="6.63157">
        <ele>493.7</ele>
        <time>2023-11-26T13:46:08Z</time>
      </trkpt>
      <trkpt lat="43.62721" lon="6.63158">
        <ele>493.7</ele>
        <time>2023-11-26T13:46:09Z</time>
      </trkpt>
      <trkpt lat="43.62721" lon="6.63158">
        <ele>493.8</ele>
        <time>2023-11-26T13:46:10Z</time>
      </trkpt>
      <trkpt lat="43.62721" lon="6.63159">
        <ele>493.8</ele>
        <time>2023-11-26T13:46:11Z</time>
      </trkpt>
      <trkpt lat="43.62721" lon="6.6316">
        <ele>493.9</ele>
        <time>2023-11-26T13:46:12Z</time>
      </trkpt>
      <trkpt lat="43.62721" lon="6.63162">
        <ele>493.9</ele>
        <time>2023-11-26T13:46:13Z</time>
      </trkpt>
      <trkpt lat="43.62721" lon="6.63163">
        <ele>493.8</ele>
        <time>2023-11-26T13:46:14Z</time>
      </trkpt>
      <trkpt lat="43.62721" lon="6.63164">
        <ele>493.8</ele>
        <time>2023-11-26T13:46:15Z</time>
      </trkpt>
      <trkpt lat="43.62721" lon="6.63165">
        <ele>493.8</ele>
        <time>2023-11-26T13:46:16Z</time>
      </trkpt>
      <trkpt lat="43.62721" lon="6.63167">
        <ele>493.8</ele>
        <time>2023-11-26T13:46:17Z</time>
      </trkpt>
      <trkpt lat="43.62721" lon="6.63168">
        <ele>493.8</ele>
        <time>2023-11-26T13:46:18Z</time>
      </trkpt>
      <trkpt lat="43.62721" lon="6.6317">
        <ele>493.8</ele>
        <time>2023-11-26T13:46:19Z</time>
      </trkpt>
      <trkpt lat="43.62721" lon="6.63172">
        <ele>493.7</ele>
        <time>2023-11-26T13:46:20Z</time>
      </trkpt>
      <trkpt lat="43.62721" lon="6.63173">
        <ele>493.7</ele>
        <time>2023-11-26T13:46:21Z</time>
      </trkpt>
      <trkpt lat="43.62721" lon="6.63174">
        <ele>493.6</ele>
        <time>2023-11-26T13:46:22Z</time>
      </trkpt>
      <trkpt lat="43.62721" lon="6.63176">
        <ele>493.6</ele>
        <time>2023-11-26T13:46:23Z</time>
      </trkpt>
      <trkpt lat="43.62721" lon="6.63178">
        <ele>493.5</ele>
        <time>2023-11-26T13:46:24Z</time>
      </trkpt>
      <trkpt lat="43.62721" lon="6.63179">
        <ele>493.5</ele>
        <time>2023-11-26T13:46:25Z</time>
      </trkpt>
      <trkpt lat="43.62721" lon="6.63181">
        <ele>493.4</ele>
        <time>2023-11-26T13:46:26Z</time>
      </trkpt>
      <trkpt lat="43.62721" lon="6.63183">
        <ele>493.4</ele>
        <time>2023-11-26T13:46:27Z</time>
      </trkpt>
      <trkpt lat="43.62721" lon="6.63184">
        <ele>493.4</ele>
        <time>2023-11-26T13:46:28Z</time>
      </trkpt>
      <trkpt lat="43.6272" lon="6.63186">
        <ele>493.5</ele>
        <time>2023-11-26T13:46:29Z</time>
      </trkpt>
      <trkpt lat="43.6272" lon="6.63187">
        <ele>493.5</ele>
        <time>2023-11-26T13:46:30Z</time>
      </trkpt>
      <trkpt lat="43.62721" lon="6.63188">
        <ele>493.4</ele>
        <time>2023-11-26T13:46:31Z</time>
      </trkpt>
      <trkpt lat="43.6272" lon="6.6319">
        <ele>493.5</ele>
        <time>2023-11-26T13:46:32Z</time>
      </trkpt>
      <trkpt lat="43.62719" lon="6.63191">
        <ele>493.5</ele>
        <time>2023-11-26T13:46:33Z</time>
      </trkpt>
      <trkpt lat="43.62719" lon="6.63192">
        <ele>493.5</ele>
        <time>2023-11-26T13:46:34Z</time>
      </trkpt>
      <trkpt lat="43.62719" lon="6.63194">
        <ele>493.5</ele>
        <time>2023-11-26T13:46:35Z</time>
      </trkpt>
      <trkpt lat="43.62718" lon="6.63196">
        <ele>493.6</ele>
        <time>2023-11-26T13:46:36Z</time>
      </trkpt>
      <trkpt lat="43.62718" lon="6.63197">
        <ele>493.6</ele>
        <time>2023-11-26T13:46:37Z</time>
      </trkpt>
      <trkpt lat="43.62718" lon="6.63198">
        <ele>493.7</ele>
        <time>2023-11-26T13:46:38Z</time>
      </trkpt>
      <trkpt lat="43.62718" lon="6.632">
        <ele>493.8</ele>
        <time>2023-11-26T13:46:39Z</time>
      </trkpt>
      <trkpt lat="43.62717" lon="6.63201">
        <ele>493.8</ele>
        <time>2023-11-26T13:46:40Z</time>
      </trkpt>
      <trkpt lat="43.62717" lon="6.63202">
        <ele>493.9</ele>
        <time>2023-11-26T13:46:41Z</time>
      </trkpt>
      <trkpt lat="43.62716" lon="6.63203">
        <ele>493.8</ele>
        <time>2023-11-26T13:46:42Z</time>
      </trkpt>
      <trkpt lat="43.62716" lon="6.63205">
        <ele>493.8</ele>
        <time>2023-11-26T13:46:43Z</time>
      </trkpt>
      <trkpt lat="43.62716" lon="6.63206">
        <ele>493.8</ele>
        <time>2023-11-26T13:46:44Z</time>
      </trkpt>
      <trkpt lat="43.62715" lon="6.63208">
        <ele>493.8</ele>
        <time>2023-11-26T13:46:45Z</time>
      </trkpt>
      <trkpt lat="43.62714" lon="6.63209">
        <ele>493.8</ele>
        <time>2023-11-26T13:46:46Z</time>
      </trkpt>
      <trkpt lat="43.62713" lon="6.63211">
        <ele>493.8</ele>
        <time>2023-11-26T13:46:47Z</time>
      </trkpt>
      <trkpt lat="43.62713" lon="6.63212">
        <ele>493.8</ele>
        <time>2023-11-26T13:46:48Z</time>
      </trkpt>
      <trkpt lat="43.62712" lon="6.63213">
        <ele>493.8</ele>
        <time>2023-11-26T13:46:49Z</time>
      </trkpt>
      <trkpt lat="43.62711" lon="6.63214">
        <ele>493.9</ele>
        <time>2023-11-26T13:46:50Z</time>
      </trkpt>
      <trkpt lat="43.62711" lon="6.63216">
        <ele>493.9</ele>
        <time>2023-11-26T13:46:51Z</time>
      </trkpt>
      <trkpt lat="43.6271" lon="6.63217">
        <ele>493.9</ele>
        <time>2023-11-26T13:46:52Z</time>
      </trkpt>
      <trkpt lat="43.62709" lon="6.63218">
        <ele>494</ele>
        <time>2023-11-26T13:46:53Z</time>
      </trkpt>
      <trkpt lat="43.62708" lon="6.63219">
        <ele>493.9</ele>
        <time>2023-11-26T13:46:54Z</time>
      </trkpt>
      <trkpt lat="43.62708" lon="6.6322">
        <ele>493.9</ele>
        <time>2023-11-26T13:46:55Z</time>
      </trkpt>
      <trkpt lat="43.62707" lon="6.63221">
        <ele>493.9</ele>
        <time>2023-11-26T13:46:56Z</time>
      </trkpt>
      <trkpt lat="43.62707" lon="6.63223">
        <ele>494</ele>
        <time>2023-11-26T13:46:57Z</time>
      </trkpt>
      <trkpt lat="43.62707" lon="6.63224">
        <ele>494.1</ele>
        <time>2023-11-26T13:46:58Z</time>
      </trkpt>
      <trkpt lat="43.62706" lon="6.63226">
        <ele>494.1</ele>
        <time>2023-11-26T13:46:59Z</time>
      </trkpt>
      <trkpt lat="43.62706" lon="6.63228">
        <ele>494.3</ele>
        <time>2023-11-26T13:47:00Z</time>
      </trkpt>
      <trkpt lat="43.62706" lon="6.63229">
        <ele>494.3</ele>
        <time>2023-11-26T13:47:01Z</time>
      </trkpt>
      <trkpt lat="43.62705" lon="6.63231">
        <ele>494.4</ele>
        <time>2023-11-26T13:47:02Z</time>
      </trkpt>
      <trkpt lat="43.62705" lon="6.63232">
        <ele>494.4</ele>
        <time>2023-11-26T13:47:03Z</time>
      </trkpt>
      <trkpt lat="43.62704" lon="6.63233">
        <ele>494.4</ele>
        <time>2023-11-26T13:47:04Z</time>
      </trkpt>
      <trkpt lat="43.62704" lon="6.63234">
        <ele>494.4</ele>
        <time>2023-11-26T13:47:05Z</time>
      </trkpt>
      <trkpt lat="43.62704" lon="6.63235">
        <ele>494.4</ele>
        <time>2023-11-26T13:47:06Z</time>
      </trkpt>
      <trkpt lat="43.62704" lon="6.63235">
        <ele>494.4</ele>
        <time>2023-11-26T13:47:07Z</time>
      </trkpt>
      <trkpt lat="43.62703" lon="6.63237">
        <ele>494.4</ele>
        <time>2023-11-26T13:47:08Z</time>
      </trkpt>
      <trkpt lat="43.62703" lon="6.63238">
        <ele>494.2</ele>
        <time>2023-11-26T13:47:09Z</time>
      </trkpt>
      <trkpt lat="43.62702" lon="6.6324">
        <ele>494.1</ele>
        <time>2023-11-26T13:47:10Z</time>
      </trkpt>
      <trkpt lat="43.62702" lon="6.63241">
        <ele>494.1</ele>
        <time>2023-11-26T13:47:11Z</time>
      </trkpt>
      <trkpt lat="43.62702" lon="6.63243">
        <ele>494</ele>
        <time>2023-11-26T13:47:12Z</time>
      </trkpt>
      <trkpt lat="43.62702" lon="6.63244">
        <ele>493.9</ele>
        <time>2023-11-26T13:47:13Z</time>
      </trkpt>
      <trkpt lat="43.62702" lon="6.63244">
        <ele>493.9</ele>
        <time>2023-11-26T13:47:14Z</time>
      </trkpt>
      <trkpt lat="43.62701" lon="6.63247">
        <ele>493.8</ele>
        <time>2023-11-26T13:47:15Z</time>
      </trkpt>
      <trkpt lat="43.62701" lon="6.63249">
        <ele>493.8</ele>
        <time>2023-11-26T13:47:16Z</time>
      </trkpt>
      <trkpt lat="43.62701" lon="6.6325">
        <ele>493.7</ele>
        <time>2023-11-26T13:47:17Z</time>
      </trkpt>
      <trkpt lat="43.627" lon="6.63251">
        <ele>493.6</ele>
        <time>2023-11-26T13:47:18Z</time>
      </trkpt>
      <trkpt lat="43.627" lon="6.63253">
        <ele>493.5</ele>
        <time>2023-11-26T13:47:19Z</time>
      </trkpt>
      <trkpt lat="43.62699" lon="6.63254">
        <ele>493.4</ele>
        <time>2023-11-26T13:47:20Z</time>
      </trkpt>
      <trkpt lat="43.62699" lon="6.63255">
        <ele>493.4</ele>
        <time>2023-11-26T13:47:21Z</time>
      </trkpt>
      <trkpt lat="43.62698" lon="6.63256">
        <ele>493.3</ele>
        <time>2023-11-26T13:47:22Z</time>
      </trkpt>
      <trkpt lat="43.62697" lon="6.63259">
        <ele>493.3</ele>
        <time>2023-11-26T13:47:23Z</time>
      </trkpt>
      <trkpt lat="43.62697" lon="6.6326">
        <ele>493.2</ele>
        <time>2023-11-26T13:47:24Z</time>
      </trkpt>
      <trkpt lat="43.62697" lon="6.63261">
        <ele>493.2</ele>
        <time>2023-11-26T13:47:25Z</time>
      </trkpt>
      <trkpt lat="43.62697" lon="6.63263">
        <ele>493.1</ele>
        <time>2023-11-26T13:47:26Z</time>
      </trkpt>
      <trkpt lat="43.62697" lon="6.63264">
        <ele>493.1</ele>
        <time>2023-11-26T13:47:27Z</time>
      </trkpt>
      <trkpt lat="43.62696" lon="6.63265">
        <ele>493.1</ele>
        <time>2023-11-26T13:47:28Z</time>
      </trkpt>
      <trkpt lat="43.62696" lon="6.63266">
        <ele>493</ele>
        <time>2023-11-26T13:47:29Z</time>
      </trkpt>
      <trkpt lat="43.62695" lon="6.63269">
        <ele>492.9</ele>
        <time>2023-11-26T13:47:30Z</time>
      </trkpt>
      <trkpt lat="43.62694" lon="6.6327">
        <ele>492.8</ele>
        <time>2023-11-26T13:47:31Z</time>
      </trkpt>
      <trkpt lat="43.62694" lon="6.63272">
        <ele>492.8</ele>
        <time>2023-11-26T13:47:32Z</time>
      </trkpt>
      <trkpt lat="43.62694" lon="6.63274">
        <ele>492.7</ele>
        <time>2023-11-26T13:47:33Z</time>
      </trkpt>
      <trkpt lat="43.62693" lon="6.63275">
        <ele>492.6</ele>
        <time>2023-11-26T13:47:34Z</time>
      </trkpt>
      <trkpt lat="43.62693" lon="6.63277">
        <ele>492.5</ele>
        <time>2023-11-26T13:47:35Z</time>
      </trkpt>
      <trkpt lat="43.62693" lon="6.63279">
        <ele>492.6</ele>
        <time>2023-11-26T13:47:36Z</time>
      </trkpt>
      <trkpt lat="43.62692" lon="6.6328">
        <ele>492.6</ele>
        <time>2023-11-26T13:47:37Z</time>
      </trkpt>
      <trkpt lat="43.62692" lon="6.63282">
        <ele>492.4</ele>
        <time>2023-11-26T13:47:38Z</time>
      </trkpt>
      <trkpt lat="43.62691" lon="6.63283">
        <ele>492.3</ele>
        <time>2023-11-26T13:47:39Z</time>
      </trkpt>
      <trkpt lat="43.62691" lon="6.63285">
        <ele>492.3</ele>
        <time>2023-11-26T13:47:40Z</time>
      </trkpt>
      <trkpt lat="43.62691" lon="6.63286">
        <ele>492.2</ele>
        <time>2023-11-26T13:47:41Z</time>
      </trkpt>
      <trkpt lat="43.62691" lon="6.63288">
        <ele>492.1</ele>
        <time>2023-11-26T13:47:42Z</time>
      </trkpt>
      <trkpt lat="43.62691" lon="6.6329">
        <ele>492.1</ele>
        <time>2023-11-26T13:47:43Z</time>
      </trkpt>
      <trkpt lat="43.62691" lon="6.63292">
        <ele>492.1</ele>
        <time>2023-11-26T13:47:44Z</time>
      </trkpt>
      <trkpt lat="43.6269" lon="6.63294">
        <ele>492</ele>
        <time>2023-11-26T13:47:45Z</time>
      </trkpt>
      <trkpt lat="43.6269" lon="6.63297">
        <ele>492</ele>
        <time>2023-11-26T13:47:46Z</time>
      </trkpt>
      <trkpt lat="43.62689" lon="6.63299">
        <ele>491.9</ele>
        <time>2023-11-26T13:47:47Z</time>
      </trkpt>
      <trkpt lat="43.62688" lon="6.63301">
        <ele>491.9</ele>
        <time>2023-11-26T13:47:48Z</time>
      </trkpt>
      <trkpt lat="43.62688" lon="6.63303">
        <ele>491.9</ele>
        <time>2023-11-26T13:47:49Z</time>
      </trkpt>
      <trkpt lat="43.62687" lon="6.63304">
        <ele>491.8</ele>
        <time>2023-11-26T13:47:50Z</time>
      </trkpt>
      <trkpt lat="43.62686" lon="6.63306">
        <ele>491.8</ele>
        <time>2023-11-26T13:47:51Z</time>
      </trkpt>
      <trkpt lat="43.62685" lon="6.63307">
        <ele>491.7</ele>
        <time>2023-11-26T13:47:52Z</time>
      </trkpt>
      <trkpt lat="43.62685" lon="6.63309">
        <ele>491.8</ele>
        <time>2023-11-26T13:47:53Z</time>
      </trkpt>
      <trkpt lat="43.62684" lon="6.6331">
        <ele>491.8</ele>
        <time>2023-11-26T13:47:54Z</time>
      </trkpt>
      <trkpt lat="43.62683" lon="6.63312">
        <ele>491.8</ele>
        <time>2023-11-26T13:47:55Z</time>
      </trkpt>
      <trkpt lat="43.62682" lon="6.63313">
        <ele>491.8</ele>
        <time>2023-11-26T13:47:56Z</time>
      </trkpt>
      <trkpt lat="43.62682" lon="6.63315">
        <ele>491.8</ele>
        <time>2023-11-26T13:47:57Z</time>
      </trkpt>
      <trkpt lat="43.62681" lon="6.63317">
        <ele>491.8</ele>
        <time>2023-11-26T13:47:58Z</time>
      </trkpt>
      <trkpt lat="43.62681" lon="6.63319">
        <ele>491.7</ele>
        <time>2023-11-26T13:47:59Z</time>
      </trkpt>
      <trkpt lat="43.62681" lon="6.6332">
        <ele>491.7</ele>
        <time>2023-11-26T13:48:00Z</time>
      </trkpt>
      <trkpt lat="43.6268" lon="6.63322">
        <ele>491.7</ele>
        <time>2023-11-26T13:48:01Z</time>
      </trkpt>
      <trkpt lat="43.6268" lon="6.63324">
        <ele>491.7</ele>
        <time>2023-11-26T13:48:02Z</time>
      </trkpt>
      <trkpt lat="43.62679" lon="6.63326">
        <ele>491.7</ele>
        <time>2023-11-26T13:48:03Z</time>
      </trkpt>
      <trkpt lat="43.62679" lon="6.63327">
        <ele>491.7</ele>
        <time>2023-11-26T13:48:04Z</time>
      </trkpt>
      <trkpt lat="43.62679" lon="6.63329">
        <ele>491.6</ele>
        <time>2023-11-26T13:48:05Z</time>
      </trkpt>
      <trkpt lat="43.62678" lon="6.63331">
        <ele>491.6</ele>
        <time>2023-11-26T13:48:06Z</time>
      </trkpt>
      <trkpt lat="43.62678" lon="6.63333">
        <ele>491.7</ele>
        <time>2023-11-26T13:48:07Z</time>
      </trkpt>
      <trkpt lat="43.62677" lon="6.63334">
        <ele>491.7</ele>
        <time>2023-11-26T13:48:08Z</time>
      </trkpt>
      <trkpt lat="43.62677" lon="6.63336">
        <ele>491.8</ele>
        <time>2023-11-26T13:48:09Z</time>
      </trkpt>
      <trkpt lat="43.62676" lon="6.63338">
        <ele>491.7</ele>
        <time>2023-11-26T13:48:10Z</time>
      </trkpt>
      <trkpt lat="43.62676" lon="6.6334">
        <ele>491.6</ele>
        <time>2023-11-26T13:48:11Z</time>
      </trkpt>
      <trkpt lat="43.62676" lon="6.63341">
        <ele>491.5</ele>
        <time>2023-11-26T13:48:12Z</time>
      </trkpt>
      <trkpt lat="43.62674" lon="6.63343">
        <ele>491.6</ele>
        <time>2023-11-26T13:48:13Z</time>
      </trkpt>
      <trkpt lat="43.62673" lon="6.63344">
        <ele>491.6</ele>
        <time>2023-11-26T13:48:14Z</time>
      </trkpt>
      <trkpt lat="43.62672" lon="6.63346">
        <ele>491.6</ele>
        <time>2023-11-26T13:48:15Z</time>
      </trkpt>
      <trkpt lat="43.62672" lon="6.63348">
        <ele>491.6</ele>
        <time>2023-11-26T13:48:16Z</time>
      </trkpt>
      <trkpt lat="43.62672" lon="6.6335">
        <ele>491.6</ele>
        <time>2023-11-26T13:48:17Z</time>
      </trkpt>
      <trkpt lat="43.62672" lon="6.63352">
        <ele>491.6</ele>
        <time>2023-11-26T13:48:18Z</time>
      </trkpt>
      <trkpt lat="43.62672" lon="6.63354">
        <ele>491.5</ele>
        <time>2023-11-26T13:48:19Z</time>
      </trkpt>
      <trkpt lat="43.62672" lon="6.63355">
        <ele>491.4</ele>
        <time>2023-11-26T13:48:20Z</time>
      </trkpt>
      <trkpt lat="43.62671" lon="6.63357">
        <ele>491.4</ele>
        <time>2023-11-26T13:48:21Z</time>
      </trkpt>
      <trkpt lat="43.62672" lon="6.63359">
        <ele>491.3</ele>
        <time>2023-11-26T13:48:22Z</time>
      </trkpt>
      <trkpt lat="43.62672" lon="6.63361">
        <ele>491.3</ele>
        <time>2023-11-26T13:48:23Z</time>
      </trkpt>
      <trkpt lat="43.62673" lon="6.63364">
        <ele>491.3</ele>
        <time>2023-11-26T13:48:24Z</time>
      </trkpt>
      <trkpt lat="43.62673" lon="6.63366">
        <ele>491.3</ele>
        <time>2023-11-26T13:48:25Z</time>
      </trkpt>
      <trkpt lat="43.62673" lon="6.63368">
        <ele>491.3</ele>
        <time>2023-11-26T13:48:26Z</time>
      </trkpt>
      <trkpt lat="43.62673" lon="6.6337">
        <ele>491.3</ele>
        <time>2023-11-26T13:48:27Z</time>
      </trkpt>
      <trkpt lat="43.62674" lon="6.63372">
        <ele>491.3</ele>
        <time>2023-11-26T13:48:28Z</time>
      </trkpt>
      <trkpt lat="43.62674" lon="6.63374">
        <ele>491.3</ele>
        <time>2023-11-26T13:48:29Z</time>
      </trkpt>
      <trkpt lat="43.62674" lon="6.63376">
        <ele>491.3</ele>
        <time>2023-11-26T13:48:30Z</time>
      </trkpt>
      <trkpt lat="43.62674" lon="6.63378">
        <ele>491.3</ele>
        <time>2023-11-26T13:48:31Z</time>
      </trkpt>
      <trkpt lat="43.62674" lon="6.6338">
        <ele>491.3</ele>
        <time>2023-11-26T13:48:32Z</time>
      </trkpt>
      <trkpt lat="43.62674" lon="6.63382">
        <ele>491.3</ele>
        <time>2023-11-26T13:48:33Z</time>
      </trkpt>
      <trkpt lat="43.62674" lon="6.63384">
        <ele>491.4</ele>
        <time>2023-11-26T13:48:34Z</time>
      </trkpt>
      <trkpt lat="43.62674" lon="6.63386">
        <ele>491.3</ele>
        <time>2023-11-26T13:48:35Z</time>
      </trkpt>
      <trkpt lat="43.62675" lon="6.63388">
        <ele>491.3</ele>
        <time>2023-11-26T13:48:36Z</time>
      </trkpt>
      <trkpt lat="43.62675" lon="6.63389">
        <ele>491.4</ele>
        <time>2023-11-26T13:48:37Z</time>
      </trkpt>
      <trkpt lat="43.62676" lon="6.63391">
        <ele>491.3</ele>
        <time>2023-11-26T13:48:38Z</time>
      </trkpt>
      <trkpt lat="43.62676" lon="6.63393">
        <ele>491.4</ele>
        <time>2023-11-26T13:48:39Z</time>
      </trkpt>
      <trkpt lat="43.62677" lon="6.63394">
        <ele>491.4</ele>
        <time>2023-11-26T13:48:40Z</time>
      </trkpt>
      <trkpt lat="43.62677" lon="6.63395">
        <ele>491.4</ele>
        <time>2023-11-26T13:48:41Z</time>
      </trkpt>
      <trkpt lat="43.62678" lon="6.63397">
        <ele>491.5</ele>
        <time>2023-11-26T13:48:42Z</time>
      </trkpt>
      <trkpt lat="43.62678" lon="6.63399">
        <ele>491.4</ele>
        <time>2023-11-26T13:48:43Z</time>
      </trkpt>
      <trkpt lat="43.62679" lon="6.63401">
        <ele>491.4</ele>
        <time>2023-11-26T13:48:44Z</time>
      </trkpt>
      <trkpt lat="43.62679" lon="6.63403">
        <ele>491.4</ele>
        <time>2023-11-26T13:48:45Z</time>
      </trkpt>
      <trkpt lat="43.6268" lon="6.63404">
        <ele>491.4</ele>
        <time>2023-11-26T13:48:46Z</time>
      </trkpt>
      <trkpt lat="43.6268" lon="6.63406">
        <ele>491.4</ele>
        <time>2023-11-26T13:48:47Z</time>
      </trkpt>
      <trkpt lat="43.62681" lon="6.63408">
        <ele>491.4</ele>
        <time>2023-11-26T13:48:48Z</time>
      </trkpt>
      <trkpt lat="43.62681" lon="6.63409">
        <ele>491.3</ele>
        <time>2023-11-26T13:48:49Z</time>
      </trkpt>
      <trkpt lat="43.62682" lon="6.6341">
        <ele>491.3</ele>
        <time>2023-11-26T13:48:50Z</time>
      </trkpt>
      <trkpt lat="43.62683" lon="6.63412">
        <ele>491.4</ele>
        <time>2023-11-26T13:48:51Z</time>
      </trkpt>
      <trkpt lat="43.62683" lon="6.63414">
        <ele>491.5</ele>
        <time>2023-11-26T13:48:52Z</time>
      </trkpt>
      <trkpt lat="43.62684" lon="6.63415">
        <ele>491.5</ele>
        <time>2023-11-26T13:48:53Z</time>
      </trkpt>
      <trkpt lat="43.62684" lon="6.63417">
        <ele>491.5</ele>
        <time>2023-11-26T13:48:54Z</time>
      </trkpt>
      <trkpt lat="43.62685" lon="6.63418">
        <ele>491.6</ele>
        <time>2023-11-26T13:48:55Z</time>
      </trkpt>
      <trkpt lat="43.62686" lon="6.6342">
        <ele>491.6</ele>
        <time>2023-11-26T13:48:56Z</time>
      </trkpt>
      <trkpt lat="43.62686" lon="6.6342">
        <ele>491.7</ele>
        <time>2023-11-26T13:48:57Z</time>
      </trkpt>
      <trkpt lat="43.62686" lon="6.63422">
        <ele>491.8</ele>
        <time>2023-11-26T13:48:58Z</time>
      </trkpt>
      <trkpt lat="43.62687" lon="6.63424">
        <ele>491.8</ele>
        <time>2023-11-26T13:48:59Z</time>
      </trkpt>
      <trkpt lat="43.62687" lon="6.63425">
        <ele>491.9</ele>
        <time>2023-11-26T13:49:00Z</time>
      </trkpt>
      <trkpt lat="43.62688" lon="6.63426">
        <ele>492</ele>
        <time>2023-11-26T13:49:01Z</time>
      </trkpt>
      <trkpt lat="43.62689" lon="6.63427">
        <ele>492</ele>
        <time>2023-11-26T13:49:02Z</time>
      </trkpt>
      <trkpt lat="43.6269" lon="6.63428">
        <ele>492.1</ele>
        <time>2023-11-26T13:49:03Z</time>
      </trkpt>
      <trkpt lat="43.6269" lon="6.6343">
        <ele>492.2</ele>
        <time>2023-11-26T13:49:04Z</time>
      </trkpt>
      <trkpt lat="43.62691" lon="6.63432">
        <ele>492.2</ele>
        <time>2023-11-26T13:49:05Z</time>
      </trkpt>
      <trkpt lat="43.62692" lon="6.63433">
        <ele>492.2</ele>
        <time>2023-11-26T13:49:06Z</time>
      </trkpt>
      <trkpt lat="43.62693" lon="6.63434">
        <ele>492.4</ele>
        <time>2023-11-26T13:49:07Z</time>
      </trkpt>
      <trkpt lat="43.62693" lon="6.63435">
        <ele>492.4</ele>
        <time>2023-11-26T13:49:08Z</time>
      </trkpt>
      <trkpt lat="43.62694" lon="6.63436">
        <ele>492.5</ele>
        <time>2023-11-26T13:49:09Z</time>
      </trkpt>
      <trkpt lat="43.62694" lon="6.63438">
        <ele>492.5</ele>
        <time>2023-11-26T13:49:10Z</time>
      </trkpt>
      <trkpt lat="43.62695" lon="6.63439">
        <ele>492.4</ele>
        <time>2023-11-26T13:49:11Z</time>
      </trkpt>
      <trkpt lat="43.62696" lon="6.6344">
        <ele>492.4</ele>
        <time>2023-11-26T13:49:12Z</time>
      </trkpt>
      <trkpt lat="43.62697" lon="6.63441">
        <ele>492.4</ele>
        <time>2023-11-26T13:49:13Z</time>
      </trkpt>
      <trkpt lat="43.62698" lon="6.63442">
        <ele>492.4</ele>
        <time>2023-11-26T13:49:14Z</time>
      </trkpt>
      <trkpt lat="43.62698" lon="6.63444">
        <ele>492.4</ele>
        <time>2023-11-26T13:49:15Z</time>
      </trkpt>
      <trkpt lat="43.62699" lon="6.63445">
        <ele>492.6</ele>
        <time>2023-11-26T13:49:16Z</time>
      </trkpt>
      <trkpt lat="43.627" lon="6.63446">
        <ele>492.7</ele>
        <time>2023-11-26T13:49:17Z</time>
      </trkpt>
      <trkpt lat="43.627" lon="6.63447">
        <ele>492.8</ele>
        <time>2023-11-26T13:49:18Z</time>
      </trkpt>
      <trkpt lat="43.62701" lon="6.63449">
        <ele>492.9</ele>
        <time>2023-11-26T13:49:19Z</time>
      </trkpt>
      <trkpt lat="43.62702" lon="6.6345">
        <ele>492.9</ele>
        <time>2023-11-26T13:49:20Z</time>
      </trkpt>
      <trkpt lat="43.62702" lon="6.63451">
        <ele>493</ele>
        <time>2023-11-26T13:49:21Z</time>
      </trkpt>
      <trkpt lat="43.62702" lon="6.63453">
        <ele>493</ele>
        <time>2023-11-26T13:49:22Z</time>
      </trkpt>
      <trkpt lat="43.62702" lon="6.63455">
        <ele>493.1</ele>
        <time>2023-11-26T13:49:23Z</time>
      </trkpt>
      <trkpt lat="43.62703" lon="6.63457">
        <ele>493.1</ele>
        <time>2023-11-26T13:49:24Z</time>
      </trkpt>
      <trkpt lat="43.62704" lon="6.63458">
        <ele>493</ele>
        <time>2023-11-26T13:49:25Z</time>
      </trkpt>
      <trkpt lat="43.62704" lon="6.6346">
        <ele>492.9</ele>
        <time>2023-11-26T13:49:26Z</time>
      </trkpt>
      <trkpt lat="43.62705" lon="6.63461">
        <ele>492.8</ele>
        <time>2023-11-26T13:49:27Z</time>
      </trkpt>
      <trkpt lat="43.62705" lon="6.63462">
        <ele>492.7</ele>
        <time>2023-11-26T13:49:28Z</time>
      </trkpt>
      <trkpt lat="43.62706" lon="6.63462">
        <ele>492.7</ele>
        <time>2023-11-26T13:49:29Z</time>
      </trkpt>
      <trkpt lat="43.62706" lon="6.63462">
        <ele>492.7</ele>
        <time>2023-11-26T13:49:30Z</time>
      </trkpt>
      <trkpt lat="43.62706" lon="6.63462">
        <ele>492.6</ele>
        <time>2023-11-26T13:49:31Z</time>
      </trkpt>
      <trkpt lat="43.62707" lon="6.63463">
        <ele>492.7</ele>
        <time>2023-11-26T13:49:32Z</time>
      </trkpt>
      <trkpt lat="43.62707" lon="6.63463">
        <ele>492.6</ele>
        <time>2023-11-26T13:49:33Z</time>
      </trkpt>
      <trkpt lat="43.62707" lon="6.63463">
        <ele>492.6</ele>
        <time>2023-11-26T13:49:34Z</time>
      </trkpt>
      <trkpt lat="43.62707" lon="6.63463">
        <ele>492.6</ele>
        <time>2023-11-26T13:49:35Z</time>
      </trkpt>
      <trkpt lat="43.62707" lon="6.63463">
        <ele>492.6</ele>
        <time>2023-11-26T13:49:36Z</time>
      </trkpt>
      <trkpt lat="43.62707" lon="6.63463">
        <ele>492.6</ele>
        <time>2023-11-26T13:49:37Z</time>
      </trkpt>
      <trkpt lat="43.62708" lon="6.63463">
        <ele>492.6</ele>
        <time>2023-11-26T13:49:38Z</time>
      </trkpt>
      <trkpt lat="43.62708" lon="6.63463">
        <ele>492.5</ele>
        <time>2023-11-26T13:49:39Z</time>
      </trkpt>
      <trkpt lat="43.62708" lon="6.63463">
        <ele>492.5</ele>
        <time>2023-11-26T13:49:40Z</time>
      </trkpt>
      <trkpt lat="43.62707" lon="6.63463">
        <ele>492.5</ele>
        <time>2023-11-26T13:49:41Z</time>
      </trkpt>
      <trkpt lat="43.62707" lon="6.63463">
        <ele>492.6</ele>
        <time>2023-11-26T13:49:42Z</time>
      </trkpt>
      <trkpt lat="43.62707" lon="6.63464">
        <ele>492.5</ele>
        <time>2023-11-26T13:49:43Z</time>
      </trkpt>
      <trkpt lat="43.62707" lon="6.63465">
        <ele>492.6</ele>
        <time>2023-11-26T13:49:44Z</time>
      </trkpt>
      <trkpt lat="43.62708" lon="6.63464">
        <ele>492.6</ele>
        <time>2023-11-26T13:49:45Z</time>
      </trkpt>
      <trkpt lat="43.62708" lon="6.63464">
        <ele>492.6</ele>
        <time>2023-11-26T13:49:46Z</time>
      </trkpt>
      <trkpt lat="43.62708" lon="6.63464">
        <ele>492.7</ele>
        <time>2023-11-26T13:49:47Z</time>
      </trkpt>
      <trkpt lat="43.62708" lon="6.63464">
        <ele>492.7</ele>
        <time>2023-11-26T13:49:48Z</time>
      </trkpt>
      <trkpt lat="43.62708" lon="6.63464">
        <ele>492.8</ele>
        <time>2023-11-26T13:49:49Z</time>
      </trkpt>
      <trkpt lat="43.62708" lon="6.63464">
        <ele>492.8</ele>
        <time>2023-11-26T13:49:50Z</time>
      </trkpt>
      <trkpt lat="43.62708" lon="6.63464">
        <ele>492.8</ele>
        <time>2023-11-26T13:49:51Z</time>
      </trkpt>
      <trkpt lat="43.62708" lon="6.63464">
        <ele>492.9</ele>
        <time>2023-11-26T13:49:52Z</time>
      </trkpt>
      <trkpt lat="43.62708" lon="6.63464">
        <ele>492.9</ele>
        <time>2023-11-26T13:49:53Z</time>
      </trkpt>
      <trkpt lat="43.62708" lon="6.63464">
        <ele>492.9</ele>
        <time>2023-11-26T13:49:54Z</time>
      </trkpt>
      <trkpt lat="43.62708" lon="6.63465">
        <ele>492.9</ele>
        <time>2023-11-26T13:49:55Z</time>
      </trkpt>
      <trkpt lat="43.62708" lon="6.63465">
        <ele>492.9</ele>
        <time>2023-11-26T13:49:56Z</time>
      </trkpt>
      <trkpt lat="43.62707" lon="6.63466">
        <ele>492.9</ele>
        <time>2023-11-26T13:49:57Z</time>
      </trkpt>
      <trkpt lat="43.62708" lon="6.63466">
        <ele>492.8</ele>
        <time>2023-11-26T13:49:58Z</time>
      </trkpt>
      <trkpt lat="43.62708" lon="6.63466">
        <ele>492.8</ele>
        <time>2023-11-26T13:49:59Z</time>
      </trkpt>
      <trkpt lat="43.62708" lon="6.63465">
        <ele>492.8</ele>
        <time>2023-11-26T13:50:00Z</time>
      </trkpt>
      <trkpt lat="43.62708" lon="6.63465">
        <ele>492.7</ele>
        <time>2023-11-26T13:50:01Z</time>
      </trkpt>
      <trkpt lat="43.62708" lon="6.63465">
        <ele>492.7</ele>
        <time>2023-11-26T13:50:02Z</time>
      </trkpt>
      <trkpt lat="43.62708" lon="6.63465">
        <ele>492.7</ele>
        <time>2023-11-26T13:50:03Z</time>
      </trkpt>
      <trkpt lat="43.62708" lon="6.63465">
        <ele>492.6</ele>
        <time>2023-11-26T13:50:04Z</time>
      </trkpt>
      <trkpt lat="43.62709" lon="6.63466">
        <ele>492.7</ele>
        <time>2023-11-26T13:50:05Z</time>
      </trkpt>
      <trkpt lat="43.62709" lon="6.63466">
        <ele>492.7</ele>
        <time>2023-11-26T13:50:06Z</time>
      </trkpt>
      <trkpt lat="43.62709" lon="6.63466">
        <ele>492.6</ele>
        <time>2023-11-26T13:50:07Z</time>
      </trkpt>
      <trkpt lat="43.62709" lon="6.63466">
        <ele>492.6</ele>
        <time>2023-11-26T13:50:08Z</time>
      </trkpt>
      <trkpt lat="43.62709" lon="6.63466">
        <ele>492.6</ele>
        <time>2023-11-26T13:50:09Z</time>
      </trkpt>
      <trkpt lat="43.62709" lon="6.63466">
        <ele>492.6</ele>
        <time>2023-11-26T13:50:10Z</time>
      </trkpt>
      <trkpt lat="43.62709" lon="6.63466">
        <ele>492.6</ele>
        <time>2023-11-26T13:50:11Z</time>
      </trkpt>
      <trkpt lat="43.62709" lon="6.63466">
        <ele>492.7</ele>
        <time>2023-11-26T13:50:12Z</time>
      </trkpt>
      <trkpt lat="43.62709" lon="6.63466">
        <ele>492.6</ele>
        <time>2023-11-26T13:50:13Z</time>
      </trkpt>
      <trkpt lat="43.62709" lon="6.63467">
        <ele>492.6</ele>
        <time>2023-11-26T13:50:14Z</time>
      </trkpt>
      <trkpt lat="43.62709" lon="6.63467">
        <ele>492.6</ele>
        <time>2023-11-26T13:50:15Z</time>
      </trkpt>
      <trkpt lat="43.62709" lon="6.63467">
        <ele>492.6</ele>
        <time>2023-11-26T13:50:16Z</time>
      </trkpt>
      <trkpt lat="43.6271" lon="6.63467">
        <ele>492.7</ele>
        <time>2023-11-26T13:50:17Z</time>
      </trkpt>
      <trkpt lat="43.6271" lon="6.63468">
        <ele>492.7</ele>
        <time>2023-11-26T13:50:18Z</time>
      </trkpt>
      <trkpt lat="43.6271" lon="6.63469">
        <ele>492.7</ele>
        <time>2023-11-26T13:50:19Z</time>
      </trkpt>
      <trkpt lat="43.62711" lon="6.6347">
        <ele>492.8</ele>
        <time>2023-11-26T13:50:20Z</time>
      </trkpt>
      <trkpt lat="43.62712" lon="6.63471">
        <ele>492.8</ele>
        <time>2023-11-26T13:50:21Z</time>
      </trkpt>
      <trkpt lat="43.62712" lon="6.63472">
        <ele>492.9</ele>
        <time>2023-11-26T13:50:22Z</time>
      </trkpt>
      <trkpt lat="43.62713" lon="6.63473">
        <ele>492.9</ele>
        <time>2023-11-26T13:50:23Z</time>
      </trkpt>
      <trkpt lat="43.62714" lon="6.63474">
        <ele>492.9</ele>
        <time>2023-11-26T13:50:24Z</time>
      </trkpt>
      <trkpt lat="43.62715" lon="6.63475">
        <ele>493</ele>
        <time>2023-11-26T13:50:25Z</time>
      </trkpt>
      <trkpt lat="43.62715" lon="6.63476">
        <ele>493</ele>
        <time>2023-11-26T13:50:26Z</time>
      </trkpt>
      <trkpt lat="43.62715" lon="6.63476">
        <ele>493</ele>
        <time>2023-11-26T13:50:27Z</time>
      </trkpt>
      <trkpt lat="43.62716" lon="6.63478">
        <ele>493</ele>
        <time>2023-11-26T13:50:28Z</time>
      </trkpt>
      <trkpt lat="43.62717" lon="6.63479">
        <ele>493</ele>
        <time>2023-11-26T13:50:29Z</time>
      </trkpt>
      <trkpt lat="43.62717" lon="6.63479">
        <ele>493.1</ele>
        <time>2023-11-26T13:50:30Z</time>
      </trkpt>
      <trkpt lat="43.62718" lon="6.63481">
        <ele>493.1</ele>
        <time>2023-11-26T13:50:31Z</time>
      </trkpt>
      <trkpt lat="43.62718" lon="6.63482">
        <ele>493.2</ele>
        <time>2023-11-26T13:50:32Z</time>
      </trkpt>
      <trkpt lat="43.62719" lon="6.63483">
        <ele>493.3</ele>
        <time>2023-11-26T13:50:33Z</time>
      </trkpt>
      <trkpt lat="43.6272" lon="6.63484">
        <ele>493.4</ele>
        <time>2023-11-26T13:50:34Z</time>
      </trkpt>
      <trkpt lat="43.6272" lon="6.63485">
        <ele>493.3</ele>
        <time>2023-11-26T13:50:35Z</time>
      </trkpt>
      <trkpt lat="43.62721" lon="6.63486">
        <ele>493.3</ele>
        <time>2023-11-26T13:50:36Z</time>
      </trkpt>
      <trkpt lat="43.62722" lon="6.63487">
        <ele>493.4</ele>
        <time>2023-11-26T13:50:37Z</time>
      </trkpt>
      <trkpt lat="43.62723" lon="6.63488">
        <ele>493.4</ele>
        <time>2023-11-26T13:50:38Z</time>
      </trkpt>
      <trkpt lat="43.62723" lon="6.63489">
        <ele>493.4</ele>
        <time>2023-11-26T13:50:39Z</time>
      </trkpt>
      <trkpt lat="43.62724" lon="6.63491">
        <ele>493.5</ele>
        <time>2023-11-26T13:50:40Z</time>
      </trkpt>
      <trkpt lat="43.62725" lon="6.63492">
        <ele>493.5</ele>
        <time>2023-11-26T13:50:41Z</time>
      </trkpt>
      <trkpt lat="43.62725" lon="6.63492">
        <ele>493.5</ele>
        <time>2023-11-26T13:50:42Z</time>
      </trkpt>
      <trkpt lat="43.62726" lon="6.63494">
        <ele>493.6</ele>
        <time>2023-11-26T13:50:43Z</time>
      </trkpt>
      <trkpt lat="43.62726" lon="6.63495">
        <ele>493.7</ele>
        <time>2023-11-26T13:50:44Z</time>
      </trkpt>
      <trkpt lat="43.62727" lon="6.63496">
        <ele>493.8</ele>
        <time>2023-11-26T13:50:45Z</time>
      </trkpt>
      <trkpt lat="43.62727" lon="6.63497">
        <ele>493.8</ele>
        <time>2023-11-26T13:50:46Z</time>
      </trkpt>
      <trkpt lat="43.62728" lon="6.63499">
        <ele>493.9</ele>
        <time>2023-11-26T13:50:47Z</time>
      </trkpt>
      <trkpt lat="43.62729" lon="6.635">
        <ele>494</ele>
        <time>2023-11-26T13:50:48Z</time>
      </trkpt>
      <trkpt lat="43.62729" lon="6.63501">
        <ele>494.1</ele>
        <time>2023-11-26T13:50:49Z</time>
      </trkpt>
      <trkpt lat="43.6273" lon="6.63502">
        <ele>494.2</ele>
        <time>2023-11-26T13:50:50Z</time>
      </trkpt>
      <trkpt lat="43.62731" lon="6.63503">
        <ele>494.2</ele>
        <time>2023-11-26T13:50:51Z</time>
      </trkpt>
      <trkpt lat="43.62732" lon="6.63504">
        <ele>494.3</ele>
        <time>2023-11-26T13:50:52Z</time>
      </trkpt>
      <trkpt lat="43.62732" lon="6.63504">
        <ele>494.4</ele>
        <time>2023-11-26T13:50:53Z</time>
      </trkpt>
      <trkpt lat="43.62732" lon="6.63505">
        <ele>494.5</ele>
        <time>2023-11-26T13:50:54Z</time>
      </trkpt>
      <trkpt lat="43.62733" lon="6.63506">
        <ele>494.5</ele>
        <time>2023-11-26T13:50:55Z</time>
      </trkpt>
      <trkpt lat="43.62733" lon="6.63507">
        <ele>494.5</ele>
        <time>2023-11-26T13:50:56Z</time>
      </trkpt>
      <trkpt lat="43.62734" lon="6.63508">
        <ele>494.5</ele>
        <time>2023-11-26T13:50:57Z</time>
      </trkpt>
      <trkpt lat="43.62735" lon="6.63509">
        <ele>494.6</ele>
        <time>2023-11-26T13:50:58Z</time>
      </trkpt>
      <trkpt lat="43.62735" lon="6.6351">
        <ele>494.8</ele>
        <time>2023-11-26T13:50:59Z</time>
      </trkpt>
      <trkpt lat="43.62736" lon="6.63512">
        <ele>494.9</ele>
        <time>2023-11-26T13:51:00Z</time>
      </trkpt>
      <trkpt lat="43.62737" lon="6.63513">
        <ele>495</ele>
        <time>2023-11-26T13:51:01Z</time>
      </trkpt>
      <trkpt lat="43.62737" lon="6.63514">
        <ele>495</ele>
        <time>2023-11-26T13:51:02Z</time>
      </trkpt>
      <trkpt lat="43.62738" lon="6.63515">
        <ele>495.1</ele>
        <time>2023-11-26T13:51:03Z</time>
      </trkpt>
      <trkpt lat="43.62739" lon="6.63516">
        <ele>495.1</ele>
        <time>2023-11-26T13:51:04Z</time>
      </trkpt>
      <trkpt lat="43.62739" lon="6.63517">
        <ele>495.1</ele>
        <time>2023-11-26T13:51:05Z</time>
      </trkpt>
      <trkpt lat="43.6274" lon="6.63518">
        <ele>495.2</ele>
        <time>2023-11-26T13:51:06Z</time>
      </trkpt>
      <trkpt lat="43.62741" lon="6.6352">
        <ele>495.3</ele>
        <time>2023-11-26T13:51:07Z</time>
      </trkpt>
      <trkpt lat="43.62742" lon="6.63521">
        <ele>495.3</ele>
        <time>2023-11-26T13:51:08Z</time>
      </trkpt>
      <trkpt lat="43.62743" lon="6.63522">
        <ele>495.4</ele>
        <time>2023-11-26T13:51:09Z</time>
      </trkpt>
      <trkpt lat="43.62744" lon="6.63523">
        <ele>495.5</ele>
        <time>2023-11-26T13:51:10Z</time>
      </trkpt>
      <trkpt lat="43.62744" lon="6.63524">
        <ele>495.6</ele>
        <time>2023-11-26T13:51:11Z</time>
      </trkpt>
      <trkpt lat="43.62745" lon="6.63525">
        <ele>495.7</ele>
        <time>2023-11-26T13:51:12Z</time>
      </trkpt>
      <trkpt lat="43.62746" lon="6.63526">
        <ele>495.8</ele>
        <time>2023-11-26T13:51:13Z</time>
      </trkpt>
      <trkpt lat="43.62747" lon="6.63527">
        <ele>495.9</ele>
        <time>2023-11-26T13:51:14Z</time>
      </trkpt>
      <trkpt lat="43.62748" lon="6.63528">
        <ele>496</ele>
        <time>2023-11-26T13:51:15Z</time>
      </trkpt>
      <trkpt lat="43.62749" lon="6.63529">
        <ele>496</ele>
        <time>2023-11-26T13:51:16Z</time>
      </trkpt>
      <trkpt lat="43.6275" lon="6.6353">
        <ele>496.1</ele>
        <time>2023-11-26T13:51:17Z</time>
      </trkpt>
      <trkpt lat="43.62751" lon="6.63531">
        <ele>496.1</ele>
        <time>2023-11-26T13:51:18Z</time>
      </trkpt>
      <trkpt lat="43.62751" lon="6.63531">
        <ele>496.1</ele>
        <time>2023-11-26T13:51:19Z</time>
      </trkpt>
      <trkpt lat="43.62752" lon="6.63532">
        <ele>496.2</ele>
        <time>2023-11-26T13:51:20Z</time>
      </trkpt>
      <trkpt lat="43.62753" lon="6.63533">
        <ele>496.2</ele>
        <time>2023-11-26T13:51:21Z</time>
      </trkpt>
      <trkpt lat="43.62754" lon="6.63534">
        <ele>496.2</ele>
        <time>2023-11-26T13:51:22Z</time>
      </trkpt>
      <trkpt lat="43.62755" lon="6.63535">
        <ele>496.2</ele>
        <time>2023-11-26T13:51:23Z</time>
      </trkpt>
      <trkpt lat="43.62756" lon="6.63536">
        <ele>496.2</ele>
        <time>2023-11-26T13:51:24Z</time>
      </trkpt>
      <trkpt lat="43.62756" lon="6.63537">
        <ele>496.2</ele>
        <time>2023-11-26T13:51:25Z</time>
      </trkpt>
      <trkpt lat="43.62757" lon="6.63538">
        <ele>496.1</ele>
        <time>2023-11-26T13:51:26Z</time>
      </trkpt>
      <trkpt lat="43.62758" lon="6.63539">
        <ele>496.2</ele>
        <time>2023-11-26T13:51:27Z</time>
      </trkpt>
      <trkpt lat="43.62759" lon="6.6354">
        <ele>496.2</ele>
        <time>2023-11-26T13:51:28Z</time>
      </trkpt>
      <trkpt lat="43.6276" lon="6.63541">
        <ele>496.1</ele>
        <time>2023-11-26T13:51:29Z</time>
      </trkpt>
      <trkpt lat="43.62761" lon="6.63542">
        <ele>496.1</ele>
        <time>2023-11-26T13:51:30Z</time>
      </trkpt>
      <trkpt lat="43.62762" lon="6.63542">
        <ele>496</ele>
        <time>2023-11-26T13:51:31Z</time>
      </trkpt>
      <trkpt lat="43.62763" lon="6.63542">
        <ele>496</ele>
        <time>2023-11-26T13:51:32Z</time>
      </trkpt>
      <trkpt lat="43.62764" lon="6.63543">
        <ele>496</ele>
        <time>2023-11-26T13:51:33Z</time>
      </trkpt>
      <trkpt lat="43.62765" lon="6.63544">
        <ele>496</ele>
        <time>2023-11-26T13:51:34Z</time>
      </trkpt>
      <trkpt lat="43.62767" lon="6.63545">
        <ele>495.9</ele>
        <time>2023-11-26T13:51:35Z</time>
      </trkpt>
      <trkpt lat="43.62768" lon="6.63545">
        <ele>495.9</ele>
        <time>2023-11-26T13:51:36Z</time>
      </trkpt>
      <trkpt lat="43.62768" lon="6.63546">
        <ele>495.9</ele>
        <time>2023-11-26T13:51:37Z</time>
      </trkpt>
      <trkpt lat="43.62769" lon="6.63546">
        <ele>495.8</ele>
        <time>2023-11-26T13:51:38Z</time>
      </trkpt>
      <trkpt lat="43.6277" lon="6.63547">
        <ele>495.7</ele>
        <time>2023-11-26T13:51:39Z</time>
      </trkpt>
      <trkpt lat="43.62771" lon="6.63548">
        <ele>495.6</ele>
        <time>2023-11-26T13:51:40Z</time>
      </trkpt>
      <trkpt lat="43.62773" lon="6.63549">
        <ele>495.5</ele>
        <time>2023-11-26T13:51:41Z</time>
      </trkpt>
      <trkpt lat="43.62774" lon="6.6355">
        <ele>495.3</ele>
        <time>2023-11-26T13:51:42Z</time>
      </trkpt>
      <trkpt lat="43.62775" lon="6.63551">
        <ele>495.3</ele>
        <time>2023-11-26T13:51:43Z</time>
      </trkpt>
      <trkpt lat="43.62776" lon="6.63551">
        <ele>495.4</ele>
        <time>2023-11-26T13:51:44Z</time>
      </trkpt>
      <trkpt lat="43.62777" lon="6.63552">
        <ele>495.1</ele>
        <time>2023-11-26T13:51:45Z</time>
      </trkpt>
      <trkpt lat="43.62778" lon="6.63552">
        <ele>495.1</ele>
        <time>2023-11-26T13:51:46Z</time>
      </trkpt>
      <trkpt lat="43.62779" lon="6.63553">
        <ele>495</ele>
        <time>2023-11-26T13:51:47Z</time>
      </trkpt>
      <trkpt lat="43.6278" lon="6.63554">
        <ele>495</ele>
        <time>2023-11-26T13:51:48Z</time>
      </trkpt>
      <trkpt lat="43.62781" lon="6.63554">
        <ele>494.9</ele>
        <time>2023-11-26T13:51:49Z</time>
      </trkpt>
      <trkpt lat="43.62782" lon="6.63555">
        <ele>494.8</ele>
        <time>2023-11-26T13:51:50Z</time>
      </trkpt>
      <trkpt lat="43.62783" lon="6.63556">
        <ele>494.7</ele>
        <time>2023-11-26T13:51:51Z</time>
      </trkpt>
      <trkpt lat="43.62784" lon="6.63556">
        <ele>494.6</ele>
        <time>2023-11-26T13:51:52Z</time>
      </trkpt>
      <trkpt lat="43.62785" lon="6.63557">
        <ele>494.5</ele>
        <time>2023-11-26T13:51:53Z</time>
      </trkpt>
      <trkpt lat="43.62787" lon="6.63558">
        <ele>494.4</ele>
        <time>2023-11-26T13:51:54Z</time>
      </trkpt>
      <trkpt lat="43.62788" lon="6.63559">
        <ele>494.3</ele>
        <time>2023-11-26T13:51:55Z</time>
      </trkpt>
      <trkpt lat="43.6279" lon="6.6356">
        <ele>494.3</ele>
        <time>2023-11-26T13:51:56Z</time>
      </trkpt>
      <trkpt lat="43.62791" lon="6.63561">
        <ele>494.2</ele>
        <time>2023-11-26T13:51:57Z</time>
      </trkpt>
      <trkpt lat="43.62792" lon="6.63561">
        <ele>494.2</ele>
        <time>2023-11-26T13:51:58Z</time>
      </trkpt>
      <trkpt lat="43.62793" lon="6.63562">
        <ele>494</ele>
        <time>2023-11-26T13:51:59Z</time>
      </trkpt>
      <trkpt lat="43.62794" lon="6.63563">
        <ele>493.8</ele>
        <time>2023-11-26T13:52:00Z</time>
      </trkpt>
      <trkpt lat="43.62795" lon="6.63563">
        <ele>493.7</ele>
        <time>2023-11-26T13:52:01Z</time>
      </trkpt>
      <trkpt lat="43.62796" lon="6.63564">
        <ele>493.6</ele>
        <time>2023-11-26T13:52:02Z</time>
      </trkpt>
      <trkpt lat="43.62797" lon="6.63564">
        <ele>493.4</ele>
        <time>2023-11-26T13:52:03Z</time>
      </trkpt>
      <trkpt lat="43.62798" lon="6.63565">
        <ele>493.3</ele>
        <time>2023-11-26T13:52:04Z</time>
      </trkpt>
      <trkpt lat="43.62799" lon="6.63566">
        <ele>493.1</ele>
        <time>2023-11-26T13:52:05Z</time>
      </trkpt>
      <trkpt lat="43.628" lon="6.63566">
        <ele>492.8</ele>
        <time>2023-11-26T13:52:06Z</time>
      </trkpt>
      <trkpt lat="43.62801" lon="6.63567">
        <ele>492.7</ele>
        <time>2023-11-26T13:52:07Z</time>
      </trkpt>
      <trkpt lat="43.62802" lon="6.63567">
        <ele>492.5</ele>
        <time>2023-11-26T13:52:08Z</time>
      </trkpt>
      <trkpt lat="43.62803" lon="6.63568">
        <ele>492.3</ele>
        <time>2023-11-26T13:52:09Z</time>
      </trkpt>
      <trkpt lat="43.62804" lon="6.63568">
        <ele>492.1</ele>
        <time>2023-11-26T13:52:10Z</time>
      </trkpt>
      <trkpt lat="43.62805" lon="6.63569">
        <ele>492</ele>
        <time>2023-11-26T13:52:11Z</time>
      </trkpt>
      <trkpt lat="43.62806" lon="6.6357">
        <ele>491.9</ele>
        <time>2023-11-26T13:52:12Z</time>
      </trkpt>
      <trkpt lat="43.62807" lon="6.6357">
        <ele>491.8</ele>
        <time>2023-11-26T13:52:13Z</time>
      </trkpt>
      <trkpt lat="43.62808" lon="6.63571">
        <ele>491.7</ele>
        <time>2023-11-26T13:52:14Z</time>
      </trkpt>
      <trkpt lat="43.62809" lon="6.63572">
        <ele>491.6</ele>
        <time>2023-11-26T13:52:15Z</time>
      </trkpt>
      <trkpt lat="43.6281" lon="6.63573">
        <ele>491.6</ele>
        <time>2023-11-26T13:52:16Z</time>
      </trkpt>
      <trkpt lat="43.62811" lon="6.63573">
        <ele>491.6</ele>
        <time>2023-11-26T13:52:17Z</time>
      </trkpt>
      <trkpt lat="43.62812" lon="6.63574">
        <ele>491.4</ele>
        <time>2023-11-26T13:52:18Z</time>
      </trkpt>
      <trkpt lat="43.62813" lon="6.63575">
        <ele>491.3</ele>
        <time>2023-11-26T13:52:19Z</time>
      </trkpt>
      <trkpt lat="43.62814" lon="6.63576">
        <ele>491.1</ele>
        <time>2023-11-26T13:52:20Z</time>
      </trkpt>
      <trkpt lat="43.62815" lon="6.63577">
        <ele>491</ele>
        <time>2023-11-26T13:52:21Z</time>
      </trkpt>
      <trkpt lat="43.62817" lon="6.63577">
        <ele>490.9</ele>
        <time>2023-11-26T13:52:22Z</time>
      </trkpt>
      <trkpt lat="43.62818" lon="6.63578">
        <ele>490.9</ele>
        <time>2023-11-26T13:52:23Z</time>
      </trkpt>
      <trkpt lat="43.62819" lon="6.63578">
        <ele>490.8</ele>
        <time>2023-11-26T13:52:24Z</time>
      </trkpt>
      <trkpt lat="43.6282" lon="6.63578">
        <ele>490.6</ele>
        <time>2023-11-26T13:52:25Z</time>
      </trkpt>
      <trkpt lat="43.62821" lon="6.63579">
        <ele>490.4</ele>
        <time>2023-11-26T13:52:26Z</time>
      </trkpt>
      <trkpt lat="43.62822" lon="6.63579">
        <ele>490.3</ele>
        <time>2023-11-26T13:52:27Z</time>
      </trkpt>
      <trkpt lat="43.62822" lon="6.63579">
        <ele>490.2</ele>
        <time>2023-11-26T13:52:28Z</time>
      </trkpt>
      <trkpt lat="43.62823" lon="6.63579">
        <ele>490.2</ele>
        <time>2023-11-26T13:52:29Z</time>
      </trkpt>
      <trkpt lat="43.62824" lon="6.63579">
        <ele>490.1</ele>
        <time>2023-11-26T13:52:30Z</time>
      </trkpt>
      <trkpt lat="43.62825" lon="6.6358">
        <ele>490</ele>
        <time>2023-11-26T13:52:31Z</time>
      </trkpt>
      <trkpt lat="43.62826" lon="6.63579">
        <ele>490</ele>
        <time>2023-11-26T13:52:32Z</time>
      </trkpt>
      <trkpt lat="43.62827" lon="6.6358">
        <ele>489.7</ele>
        <time>2023-11-26T13:52:33Z</time>
      </trkpt>
      <trkpt lat="43.62829" lon="6.6358">
        <ele>489.6</ele>
        <time>2023-11-26T13:52:34Z</time>
      </trkpt>
      <trkpt lat="43.6283" lon="6.63581">
        <ele>489.5</ele>
        <time>2023-11-26T13:52:35Z</time>
      </trkpt>
      <trkpt lat="43.62831" lon="6.63581">
        <ele>489.3</ele>
        <time>2023-11-26T13:52:36Z</time>
      </trkpt>
      <trkpt lat="43.62832" lon="6.63582">
        <ele>489.1</ele>
        <time>2023-11-26T13:52:37Z</time>
      </trkpt>
      <trkpt lat="43.62833" lon="6.63582">
        <ele>489</ele>
        <time>2023-11-26T13:52:38Z</time>
      </trkpt>
      <trkpt lat="43.62835" lon="6.63582">
        <ele>488.8</ele>
        <time>2023-11-26T13:52:39Z</time>
      </trkpt>
      <trkpt lat="43.62836" lon="6.63583">
        <ele>488.7</ele>
        <time>2023-11-26T13:52:40Z</time>
      </trkpt>
      <trkpt lat="43.62837" lon="6.63583">
        <ele>488.6</ele>
        <time>2023-11-26T13:52:41Z</time>
      </trkpt>
      <trkpt lat="43.62838" lon="6.63583">
        <ele>488.5</ele>
        <time>2023-11-26T13:52:42Z</time>
      </trkpt>
      <trkpt lat="43.6284" lon="6.63583">
        <ele>488.4</ele>
        <time>2023-11-26T13:52:43Z</time>
      </trkpt>
      <trkpt lat="43.62841" lon="6.63583">
        <ele>488.4</ele>
        <time>2023-11-26T13:52:44Z</time>
      </trkpt>
      <trkpt lat="43.62842" lon="6.63582">
        <ele>488.3</ele>
        <time>2023-11-26T13:52:45Z</time>
      </trkpt>
      <trkpt lat="43.62843" lon="6.63582">
        <ele>488.3</ele>
        <time>2023-11-26T13:52:46Z</time>
      </trkpt>
      <trkpt lat="43.62844" lon="6.63583">
        <ele>488.2</ele>
        <time>2023-11-26T13:52:47Z</time>
      </trkpt>
      <trkpt lat="43.62845" lon="6.63583">
        <ele>488.1</ele>
        <time>2023-11-26T13:52:48Z</time>
      </trkpt>
      <trkpt lat="43.62847" lon="6.63584">
        <ele>488.1</ele>
        <time>2023-11-26T13:52:49Z</time>
      </trkpt>
      <trkpt lat="43.62848" lon="6.63584">
        <ele>487.9</ele>
        <time>2023-11-26T13:52:50Z</time>
      </trkpt>
      <trkpt lat="43.62849" lon="6.63585">
        <ele>487.8</ele>
        <time>2023-11-26T13:52:51Z</time>
      </trkpt>
      <trkpt lat="43.62851" lon="6.63585">
        <ele>487.7</ele>
        <time>2023-11-26T13:52:52Z</time>
      </trkpt>
      <trkpt lat="43.62852" lon="6.63585">
        <ele>487.6</ele>
        <time>2023-11-26T13:52:53Z</time>
      </trkpt>
      <trkpt lat="43.62853" lon="6.63586">
        <ele>487.5</ele>
        <time>2023-11-26T13:52:54Z</time>
      </trkpt>
      <trkpt lat="43.62854" lon="6.63586">
        <ele>487.4</ele>
        <time>2023-11-26T13:52:55Z</time>
      </trkpt>
      <trkpt lat="43.62856" lon="6.63587">
        <ele>487.3</ele>
        <time>2023-11-26T13:52:56Z</time>
      </trkpt>
      <trkpt lat="43.62857" lon="6.63587">
        <ele>487.2</ele>
        <time>2023-11-26T13:52:57Z</time>
      </trkpt>
      <trkpt lat="43.62858" lon="6.63587">
        <ele>487.1</ele>
        <time>2023-11-26T13:52:58Z</time>
      </trkpt>
      <trkpt lat="43.62859" lon="6.63588">
        <ele>487</ele>
        <time>2023-11-26T13:52:59Z</time>
      </trkpt>
      <trkpt lat="43.6286" lon="6.63588">
        <ele>486.9</ele>
        <time>2023-11-26T13:53:00Z</time>
      </trkpt>
      <trkpt lat="43.62862" lon="6.63588">
        <ele>486.7</ele>
        <time>2023-11-26T13:53:01Z</time>
      </trkpt>
      <trkpt lat="43.62863" lon="6.63589">
        <ele>486.6</ele>
        <time>2023-11-26T13:53:02Z</time>
      </trkpt>
      <trkpt lat="43.62864" lon="6.6359">
        <ele>486.5</ele>
        <time>2023-11-26T13:53:03Z</time>
      </trkpt>
      <trkpt lat="43.62865" lon="6.6359">
        <ele>486.2</ele>
        <time>2023-11-26T13:53:04Z</time>
      </trkpt>
      <trkpt lat="43.62867" lon="6.63591">
        <ele>486.2</ele>
        <time>2023-11-26T13:53:05Z</time>
      </trkpt>
      <trkpt lat="43.62868" lon="6.63591">
        <ele>486</ele>
        <time>2023-11-26T13:53:06Z</time>
      </trkpt>
      <trkpt lat="43.62869" lon="6.63592">
        <ele>485.9</ele>
        <time>2023-11-26T13:53:07Z</time>
      </trkpt>
      <trkpt lat="43.6287" lon="6.63592">
        <ele>485.8</ele>
        <time>2023-11-26T13:53:08Z</time>
      </trkpt>
      <trkpt lat="43.62872" lon="6.63593">
        <ele>485.7</ele>
        <time>2023-11-26T13:53:09Z</time>
      </trkpt>
      <trkpt lat="43.62873" lon="6.63594">
        <ele>485.7</ele>
        <time>2023-11-26T13:53:10Z</time>
      </trkpt>
      <trkpt lat="43.62874" lon="6.63594">
        <ele>485.5</ele>
        <time>2023-11-26T13:53:11Z</time>
      </trkpt>
      <trkpt lat="43.62875" lon="6.63595">
        <ele>485.3</ele>
        <time>2023-11-26T13:53:12Z</time>
      </trkpt>
      <trkpt lat="43.62877" lon="6.63595">
        <ele>485.2</ele>
        <time>2023-11-26T13:53:13Z</time>
      </trkpt>
      <trkpt lat="43.62878" lon="6.63595">
        <ele>485.1</ele>
        <time>2023-11-26T13:53:14Z</time>
      </trkpt>
      <trkpt lat="43.62879" lon="6.63596">
        <ele>485</ele>
        <time>2023-11-26T13:53:15Z</time>
      </trkpt>
      <trkpt lat="43.6288" lon="6.63596">
        <ele>484.8</ele>
        <time>2023-11-26T13:53:16Z</time>
      </trkpt>
      <trkpt lat="43.62881" lon="6.63597">
        <ele>484.7</ele>
        <time>2023-11-26T13:53:17Z</time>
      </trkpt>
      <trkpt lat="43.62882" lon="6.63598">
        <ele>484.6</ele>
        <time>2023-11-26T13:53:18Z</time>
      </trkpt>
      <trkpt lat="43.62883" lon="6.63598">
        <ele>484.5</ele>
        <time>2023-11-26T13:53:19Z</time>
      </trkpt>
      <trkpt lat="43.62884" lon="6.63599">
        <ele>484.4</ele>
        <time>2023-11-26T13:53:20Z</time>
      </trkpt>
      <trkpt lat="43.62885" lon="6.636">
        <ele>484.3</ele>
        <time>2023-11-26T13:53:21Z</time>
      </trkpt>
      <trkpt lat="43.62886" lon="6.63601">
        <ele>484.3</ele>
        <time>2023-11-26T13:53:22Z</time>
      </trkpt>
      <trkpt lat="43.62887" lon="6.63601">
        <ele>484.2</ele>
        <time>2023-11-26T13:53:23Z</time>
      </trkpt>
      <trkpt lat="43.62888" lon="6.63603">
        <ele>484.1</ele>
        <time>2023-11-26T13:53:24Z</time>
      </trkpt>
      <trkpt lat="43.62888" lon="6.63603">
        <ele>484.1</ele>
        <time>2023-11-26T13:53:25Z</time>
      </trkpt>
      <trkpt lat="43.62889" lon="6.63603">
        <ele>484</ele>
        <time>2023-11-26T13:53:26Z</time>
      </trkpt>
      <trkpt lat="43.62889" lon="6.63604">
        <ele>483.8</ele>
        <time>2023-11-26T13:53:27Z</time>
      </trkpt>
      <trkpt lat="43.62889" lon="6.63604">
        <ele>483.8</ele>
        <time>2023-11-26T13:53:28Z</time>
      </trkpt>
      <trkpt lat="43.6289" lon="6.63604">
        <ele>483.8</ele>
        <time>2023-11-26T13:53:29Z</time>
      </trkpt>
      <trkpt lat="43.62891" lon="6.63605">
        <ele>483.8</ele>
        <time>2023-11-26T13:53:30Z</time>
      </trkpt>
      <trkpt lat="43.62892" lon="6.63606">
        <ele>483.7</ele>
        <time>2023-11-26T13:53:31Z</time>
      </trkpt>
      <trkpt lat="43.62893" lon="6.63606">
        <ele>483.8</ele>
        <time>2023-11-26T13:53:32Z</time>
      </trkpt>
      <trkpt lat="43.62894" lon="6.63607">
        <ele>483.8</ele>
        <time>2023-11-26T13:53:33Z</time>
      </trkpt>
      <trkpt lat="43.62895" lon="6.63608">
        <ele>483.7</ele>
        <time>2023-11-26T13:53:34Z</time>
      </trkpt>
      <trkpt lat="43.62896" lon="6.63609">
        <ele>483.7</ele>
        <time>2023-11-26T13:53:35Z</time>
      </trkpt>
      <trkpt lat="43.62897" lon="6.6361">
        <ele>483.6</ele>
        <time>2023-11-26T13:53:36Z</time>
      </trkpt>
      <trkpt lat="43.62898" lon="6.63611">
        <ele>483.6</ele>
        <time>2023-11-26T13:53:37Z</time>
      </trkpt>
      <trkpt lat="43.62899" lon="6.63613">
        <ele>483.6</ele>
        <time>2023-11-26T13:53:38Z</time>
      </trkpt>
      <trkpt lat="43.62901" lon="6.63614">
        <ele>483.5</ele>
        <time>2023-11-26T13:53:39Z</time>
      </trkpt>
      <trkpt lat="43.62902" lon="6.63615">
        <ele>483.4</ele>
        <time>2023-11-26T13:53:40Z</time>
      </trkpt>
      <trkpt lat="43.62903" lon="6.63615">
        <ele>483.3</ele>
        <time>2023-11-26T13:53:41Z</time>
      </trkpt>
      <trkpt lat="43.62903" lon="6.63616">
        <ele>483.3</ele>
        <time>2023-11-26T13:53:42Z</time>
      </trkpt>
      <trkpt lat="43.62903" lon="6.63616">
        <ele>483.2</ele>
        <time>2023-11-26T13:53:43Z</time>
      </trkpt>
      <trkpt lat="43.62903" lon="6.63616">
        <ele>483.2</ele>
        <time>2023-11-26T13:53:44Z</time>
      </trkpt>
      <trkpt lat="43.62903" lon="6.63616">
        <ele>483.1</ele>
        <time>2023-11-26T13:53:45Z</time>
      </trkpt>
      <trkpt lat="43.62903" lon="6.63616">
        <ele>483.1</ele>
        <time>2023-11-26T13:53:46Z</time>
      </trkpt>
      <trkpt lat="43.62903" lon="6.63615">
        <ele>483.1</ele>
        <time>2023-11-26T13:53:47Z</time>
      </trkpt>
      <trkpt lat="43.62903" lon="6.63615">
        <ele>483.1</ele>
        <time>2023-11-26T13:53:48Z</time>
      </trkpt>
      <trkpt lat="43.62903" lon="6.63615">
        <ele>483.2</ele>
        <time>2023-11-26T13:53:49Z</time>
      </trkpt>
      <trkpt lat="43.62903" lon="6.63615">
        <ele>483.2</ele>
        <time>2023-11-26T13:53:50Z</time>
      </trkpt>
      <trkpt lat="43.62903" lon="6.63615">
        <ele>483.2</ele>
        <time>2023-11-26T13:53:51Z</time>
      </trkpt>
      <trkpt lat="43.62902" lon="6.63614">
        <ele>483.2</ele>
        <time>2023-11-26T13:53:52Z</time>
      </trkpt>
      <trkpt lat="43.62903" lon="6.63614">
        <ele>483.2</ele>
        <time>2023-11-26T13:53:53Z</time>
      </trkpt>
      <trkpt lat="43.62903" lon="6.63615">
        <ele>483.2</ele>
        <time>2023-11-26T13:53:54Z</time>
      </trkpt>
      <trkpt lat="43.62904" lon="6.63616">
        <ele>483.2</ele>
        <time>2023-11-26T13:53:55Z</time>
      </trkpt>
      <trkpt lat="43.62905" lon="6.63617">
        <ele>483.2</ele>
        <time>2023-11-26T13:53:56Z</time>
      </trkpt>
      <trkpt lat="43.62905" lon="6.63618">
        <ele>483.2</ele>
        <time>2023-11-26T13:53:57Z</time>
      </trkpt>
      <trkpt lat="43.62906" lon="6.63619">
        <ele>483.2</ele>
        <time>2023-11-26T13:53:58Z</time>
      </trkpt>
      <trkpt lat="43.62907" lon="6.6362">
        <ele>483.1</ele>
        <time>2023-11-26T13:53:59Z</time>
      </trkpt>
      <trkpt lat="43.62908" lon="6.6362">
        <ele>483.1</ele>
        <time>2023-11-26T13:54:00Z</time>
      </trkpt>
      <trkpt lat="43.62909" lon="6.63621">
        <ele>483</ele>
        <time>2023-11-26T13:54:01Z</time>
      </trkpt>
      <trkpt lat="43.6291" lon="6.63623">
        <ele>482.9</ele>
        <time>2023-11-26T13:54:02Z</time>
      </trkpt>
      <trkpt lat="43.62911" lon="6.63624">
        <ele>482.8</ele>
        <time>2023-11-26T13:54:03Z</time>
      </trkpt>
      <trkpt lat="43.62912" lon="6.63625">
        <ele>482.7</ele>
        <time>2023-11-26T13:54:04Z</time>
      </trkpt>
      <trkpt lat="43.62913" lon="6.63626">
        <ele>482.6</ele>
        <time>2023-11-26T13:54:05Z</time>
      </trkpt>
      <trkpt lat="43.62914" lon="6.63627">
        <ele>482.7</ele>
        <time>2023-11-26T13:54:06Z</time>
      </trkpt>
      <trkpt lat="43.62915" lon="6.63629">
        <ele>482.7</ele>
        <time>2023-11-26T13:54:07Z</time>
      </trkpt>
      <trkpt lat="43.62916" lon="6.63629">
        <ele>482.8</ele>
        <time>2023-11-26T13:54:08Z</time>
      </trkpt>
      <trkpt lat="43.62917" lon="6.6363">
        <ele>482.7</ele>
        <time>2023-11-26T13:54:09Z</time>
      </trkpt>
      <trkpt lat="43.62918" lon="6.63632">
        <ele>482.7</ele>
        <time>2023-11-26T13:54:10Z</time>
      </trkpt>
      <trkpt lat="43.62919" lon="6.63633">
        <ele>482.7</ele>
        <time>2023-11-26T13:54:11Z</time>
      </trkpt>
      <trkpt lat="43.6292" lon="6.63634">
        <ele>482.8</ele>
        <time>2023-11-26T13:54:12Z</time>
      </trkpt>
      <trkpt lat="43.62921" lon="6.63635">
        <ele>482.8</ele>
        <time>2023-11-26T13:54:13Z</time>
      </trkpt>
      <trkpt lat="43.62922" lon="6.63636">
        <ele>482.8</ele>
        <time>2023-11-26T13:54:14Z</time>
      </trkpt>
      <trkpt lat="43.62924" lon="6.63637">
        <ele>482.8</ele>
        <time>2023-11-26T13:54:15Z</time>
      </trkpt>
      <trkpt lat="43.62925" lon="6.63638">
        <ele>482.9</ele>
        <time>2023-11-26T13:54:16Z</time>
      </trkpt>
      <trkpt lat="43.62926" lon="6.63639">
        <ele>482.8</ele>
        <time>2023-11-26T13:54:17Z</time>
      </trkpt>
      <trkpt lat="43.62927" lon="6.6364">
        <ele>482.8</ele>
        <time>2023-11-26T13:54:18Z</time>
      </trkpt>
      <trkpt lat="43.62928" lon="6.6364">
        <ele>482.8</ele>
        <time>2023-11-26T13:54:19Z</time>
      </trkpt>
      <trkpt lat="43.62929" lon="6.63641">
        <ele>482.8</ele>
        <time>2023-11-26T13:54:20Z</time>
      </trkpt>
      <trkpt lat="43.6293" lon="6.63642">
        <ele>482.8</ele>
        <time>2023-11-26T13:54:21Z</time>
      </trkpt>
      <trkpt lat="43.62932" lon="6.63643">
        <ele>482.8</ele>
        <time>2023-11-26T13:54:22Z</time>
      </trkpt>
      <trkpt lat="43.62933" lon="6.63644">
        <ele>482.9</ele>
        <time>2023-11-26T13:54:23Z</time>
      </trkpt>
      <trkpt lat="43.62934" lon="6.63644">
        <ele>483</ele>
        <time>2023-11-26T13:54:24Z</time>
      </trkpt>
      <trkpt lat="43.62936" lon="6.63645">
        <ele>483.2</ele>
        <time>2023-11-26T13:54:25Z</time>
      </trkpt>
      <trkpt lat="43.62937" lon="6.63646">
        <ele>483.3</ele>
        <time>2023-11-26T13:54:26Z</time>
      </trkpt>
      <trkpt lat="43.62938" lon="6.63647">
        <ele>483.4</ele>
        <time>2023-11-26T13:54:27Z</time>
      </trkpt>
      <trkpt lat="43.62939" lon="6.63647">
        <ele>483.5</ele>
        <time>2023-11-26T13:54:28Z</time>
      </trkpt>
      <trkpt lat="43.6294" lon="6.63648">
        <ele>483.6</ele>
        <time>2023-11-26T13:54:29Z</time>
      </trkpt>
      <trkpt lat="43.62941" lon="6.63649">
        <ele>483.8</ele>
        <time>2023-11-26T13:54:30Z</time>
      </trkpt>
      <trkpt lat="43.62942" lon="6.63649">
        <ele>483.9</ele>
        <time>2023-11-26T13:54:31Z</time>
      </trkpt>
      <trkpt lat="43.62944" lon="6.6365">
        <ele>484</ele>
        <time>2023-11-26T13:54:32Z</time>
      </trkpt>
      <trkpt lat="43.62945" lon="6.6365">
        <ele>484.2</ele>
        <time>2023-11-26T13:54:33Z</time>
      </trkpt>
      <trkpt lat="43.62947" lon="6.63651">
        <ele>484.4</ele>
        <time>2023-11-26T13:54:34Z</time>
      </trkpt>
      <trkpt lat="43.62948" lon="6.63651">
        <ele>484.4</ele>
        <time>2023-11-26T13:54:35Z</time>
      </trkpt>
      <trkpt lat="43.62949" lon="6.63651">
        <ele>484.6</ele>
        <time>2023-11-26T13:54:36Z</time>
      </trkpt>
      <trkpt lat="43.6295" lon="6.63652">
        <ele>484.7</ele>
        <time>2023-11-26T13:54:37Z</time>
      </trkpt>
      <trkpt lat="43.62951" lon="6.63652">
        <ele>484.9</ele>
        <time>2023-11-26T13:54:38Z</time>
      </trkpt>
      <trkpt lat="43.62952" lon="6.63652">
        <ele>485</ele>
        <time>2023-11-26T13:54:39Z</time>
      </trkpt>
      <trkpt lat="43.62954" lon="6.63653">
        <ele>485.1</ele>
        <time>2023-11-26T13:54:40Z</time>
      </trkpt>
      <trkpt lat="43.62955" lon="6.63654">
        <ele>485.2</ele>
        <time>2023-11-26T13:54:41Z</time>
      </trkpt>
      <trkpt lat="43.62956" lon="6.63654">
        <ele>485.3</ele>
        <time>2023-11-26T13:54:42Z</time>
      </trkpt>
      <trkpt lat="43.62957" lon="6.63655">
        <ele>485.5</ele>
        <time>2023-11-26T13:54:43Z</time>
      </trkpt>
      <trkpt lat="43.62959" lon="6.63656">
        <ele>485.7</ele>
        <time>2023-11-26T13:54:44Z</time>
      </trkpt>
      <trkpt lat="43.6296" lon="6.63657">
        <ele>485.9</ele>
        <time>2023-11-26T13:54:45Z</time>
      </trkpt>
      <trkpt lat="43.62961" lon="6.63657">
        <ele>485.9</ele>
        <time>2023-11-26T13:54:46Z</time>
      </trkpt>
      <trkpt lat="43.62962" lon="6.63658">
        <ele>486</ele>
        <time>2023-11-26T13:54:47Z</time>
      </trkpt>
      <trkpt lat="43.62963" lon="6.63659">
        <ele>486.2</ele>
        <time>2023-11-26T13:54:48Z</time>
      </trkpt>
      <trkpt lat="43.62964" lon="6.63659">
        <ele>486.4</ele>
        <time>2023-11-26T13:54:49Z</time>
      </trkpt>
      <trkpt lat="43.62965" lon="6.6366">
        <ele>486.5</ele>
        <time>2023-11-26T13:54:50Z</time>
      </trkpt>
      <trkpt lat="43.62966" lon="6.63661">
        <ele>486.5</ele>
        <time>2023-11-26T13:54:51Z</time>
      </trkpt>
      <trkpt lat="43.62967" lon="6.63661">
        <ele>486.6</ele>
        <time>2023-11-26T13:54:52Z</time>
      </trkpt>
      <trkpt lat="43.62968" lon="6.63661">
        <ele>486.6</ele>
        <time>2023-11-26T13:54:53Z</time>
      </trkpt>
      <trkpt lat="43.6297" lon="6.63662">
        <ele>486.7</ele>
        <time>2023-11-26T13:54:54Z</time>
      </trkpt>
      <trkpt lat="43.62971" lon="6.63663">
        <ele>486.8</ele>
        <time>2023-11-26T13:54:55Z</time>
      </trkpt>
      <trkpt lat="43.62972" lon="6.63663">
        <ele>487</ele>
        <time>2023-11-26T13:54:56Z</time>
      </trkpt>
      <trkpt lat="43.62973" lon="6.63664">
        <ele>487.1</ele>
        <time>2023-11-26T13:54:57Z</time>
      </trkpt>
      <trkpt lat="43.62974" lon="6.63664">
        <ele>487.2</ele>
        <time>2023-11-26T13:54:58Z</time>
      </trkpt>
      <trkpt lat="43.62976" lon="6.63665">
        <ele>487.3</ele>
        <time>2023-11-26T13:54:59Z</time>
      </trkpt>
      <trkpt lat="43.62977" lon="6.63665">
        <ele>487.3</ele>
        <time>2023-11-26T13:55:00Z</time>
      </trkpt>
      <trkpt lat="43.62978" lon="6.63666">
        <ele>487.2</ele>
        <time>2023-11-26T13:55:01Z</time>
      </trkpt>
      <trkpt lat="43.62979" lon="6.63667">
        <ele>487.3</ele>
        <time>2023-11-26T13:55:02Z</time>
      </trkpt>
      <trkpt lat="43.62981" lon="6.63668">
        <ele>487.4</ele>
        <time>2023-11-26T13:55:03Z</time>
      </trkpt>
      <trkpt lat="43.62982" lon="6.63668">
        <ele>487.5</ele>
        <time>2023-11-26T13:55:04Z</time>
      </trkpt>
      <trkpt lat="43.62983" lon="6.63669">
        <ele>487.5</ele>
        <time>2023-11-26T13:55:05Z</time>
      </trkpt>
      <trkpt lat="43.62984" lon="6.6367">
        <ele>487.5</ele>
        <time>2023-11-26T13:55:06Z</time>
      </trkpt>
      <trkpt lat="43.62985" lon="6.63671">
        <ele>487.4</ele>
        <time>2023-11-26T13:55:07Z</time>
      </trkpt>
      <trkpt lat="43.62986" lon="6.63672">
        <ele>487.5</ele>
        <time>2023-11-26T13:55:08Z</time>
      </trkpt>
      <trkpt lat="43.62988" lon="6.63672">
        <ele>487.4</ele>
        <time>2023-11-26T13:55:09Z</time>
      </trkpt>
      <trkpt lat="43.62989" lon="6.63673">
        <ele>487.3</ele>
        <time>2023-11-26T13:55:10Z</time>
      </trkpt>
      <trkpt lat="43.6299" lon="6.63673">
        <ele>487.2</ele>
        <time>2023-11-26T13:55:11Z</time>
      </trkpt>
      <trkpt lat="43.62991" lon="6.63673">
        <ele>487.2</ele>
        <time>2023-11-26T13:55:12Z</time>
      </trkpt>
      <trkpt lat="43.62992" lon="6.63674">
        <ele>487.2</ele>
        <time>2023-11-26T13:55:13Z</time>
      </trkpt>
      <trkpt lat="43.62993" lon="6.63675">
        <ele>487.2</ele>
        <time>2023-11-26T13:55:14Z</time>
      </trkpt>
      <trkpt lat="43.62994" lon="6.63676">
        <ele>487.1</ele>
        <time>2023-11-26T13:55:15Z</time>
      </trkpt>
      <trkpt lat="43.62996" lon="6.63677">
        <ele>487.1</ele>
        <time>2023-11-26T13:55:16Z</time>
      </trkpt>
      <trkpt lat="43.62997" lon="6.63678">
        <ele>487</ele>
        <time>2023-11-26T13:55:17Z</time>
      </trkpt>
      <trkpt lat="43.62998" lon="6.63679">
        <ele>486.9</ele>
        <time>2023-11-26T13:55:18Z</time>
      </trkpt>
      <trkpt lat="43.62999" lon="6.6368">
        <ele>486.7</ele>
        <time>2023-11-26T13:55:19Z</time>
      </trkpt>
      <trkpt lat="43.63" lon="6.6368">
        <ele>486.6</ele>
        <time>2023-11-26T13:55:20Z</time>
      </trkpt>
      <trkpt lat="43.63001" lon="6.63681">
        <ele>486.4</ele>
        <time>2023-11-26T13:55:21Z</time>
      </trkpt>
      <trkpt lat="43.63002" lon="6.63681">
        <ele>486.2</ele>
        <time>2023-11-26T13:55:22Z</time>
      </trkpt>
      <trkpt lat="43.63003" lon="6.63682">
        <ele>486.1</ele>
        <time>2023-11-26T13:55:23Z</time>
      </trkpt>
      <trkpt lat="43.63004" lon="6.63683">
        <ele>486</ele>
        <time>2023-11-26T13:55:24Z</time>
      </trkpt>
      <trkpt lat="43.63004" lon="6.63684">
        <ele>486</ele>
        <time>2023-11-26T13:55:25Z</time>
      </trkpt>
      <trkpt lat="43.63005" lon="6.63685">
        <ele>485.9</ele>
        <time>2023-11-26T13:55:26Z</time>
      </trkpt>
      <trkpt lat="43.63006" lon="6.63685">
        <ele>485.9</ele>
        <time>2023-11-26T13:55:27Z</time>
      </trkpt>
      <trkpt lat="43.63007" lon="6.63686">
        <ele>485.7</ele>
        <time>2023-11-26T13:55:28Z</time>
      </trkpt>
      <trkpt lat="43.63009" lon="6.63686">
        <ele>485.6</ele>
        <time>2023-11-26T13:55:29Z</time>
      </trkpt>
      <trkpt lat="43.6301" lon="6.63687">
        <ele>485.5</ele>
        <time>2023-11-26T13:55:30Z</time>
      </trkpt>
      <trkpt lat="43.63011" lon="6.63688">
        <ele>485.3</ele>
        <time>2023-11-26T13:55:31Z</time>
      </trkpt>
      <trkpt lat="43.63012" lon="6.63688">
        <ele>485.2</ele>
        <time>2023-11-26T13:55:32Z</time>
      </trkpt>
      <trkpt lat="43.63012" lon="6.63689">
        <ele>485.1</ele>
        <time>2023-11-26T13:55:33Z</time>
      </trkpt>
      <trkpt lat="43.63013" lon="6.6369">
        <ele>484.9</ele>
        <time>2023-11-26T13:55:34Z</time>
      </trkpt>
      <trkpt lat="43.63014" lon="6.63691">
        <ele>484.8</ele>
        <time>2023-11-26T13:55:35Z</time>
      </trkpt>
      <trkpt lat="43.63015" lon="6.63692">
        <ele>484.8</ele>
        <time>2023-11-26T13:55:36Z</time>
      </trkpt>
      <trkpt lat="43.63015" lon="6.63692">
        <ele>484.7</ele>
        <time>2023-11-26T13:55:37Z</time>
      </trkpt>
      <trkpt lat="43.63016" lon="6.63693">
        <ele>484.6</ele>
        <time>2023-11-26T13:55:38Z</time>
      </trkpt>
      <trkpt lat="43.63017" lon="6.63693">
        <ele>484.5</ele>
        <time>2023-11-26T13:55:39Z</time>
      </trkpt>
      <trkpt lat="43.63018" lon="6.63694">
        <ele>484.4</ele>
        <time>2023-11-26T13:55:40Z</time>
      </trkpt>
      <trkpt lat="43.63019" lon="6.63694">
        <ele>484.2</ele>
        <time>2023-11-26T13:55:41Z</time>
      </trkpt>
      <trkpt lat="43.6302" lon="6.63695">
        <ele>484</ele>
        <time>2023-11-26T13:55:42Z</time>
      </trkpt>
      <trkpt lat="43.63021" lon="6.63696">
        <ele>483.7</ele>
        <time>2023-11-26T13:55:43Z</time>
      </trkpt>
      <trkpt lat="43.63022" lon="6.63697">
        <ele>483.6</ele>
        <time>2023-11-26T13:55:44Z</time>
      </trkpt>
      <trkpt lat="43.63023" lon="6.63698">
        <ele>483.4</ele>
        <time>2023-11-26T13:55:45Z</time>
      </trkpt>
      <trkpt lat="43.63024" lon="6.63698">
        <ele>483.2</ele>
        <time>2023-11-26T13:55:46Z</time>
      </trkpt>
      <trkpt lat="43.63025" lon="6.63699">
        <ele>483</ele>
        <time>2023-11-26T13:55:47Z</time>
      </trkpt>
      <trkpt lat="43.63026" lon="6.63699">
        <ele>482.7</ele>
        <time>2023-11-26T13:55:48Z</time>
      </trkpt>
      <trkpt lat="43.63027" lon="6.637">
        <ele>482.6</ele>
        <time>2023-11-26T13:55:49Z</time>
      </trkpt>
      <trkpt lat="43.63028" lon="6.637">
        <ele>482.4</ele>
        <time>2023-11-26T13:55:50Z</time>
      </trkpt>
      <trkpt lat="43.63028" lon="6.637">
        <ele>482.3</ele>
        <time>2023-11-26T13:55:51Z</time>
      </trkpt>
      <trkpt lat="43.63029" lon="6.637">
        <ele>482.2</ele>
        <time>2023-11-26T13:55:52Z</time>
      </trkpt>
      <trkpt lat="43.63029" lon="6.63701">
        <ele>482</ele>
        <time>2023-11-26T13:55:53Z</time>
      </trkpt>
      <trkpt lat="43.63029" lon="6.63701">
        <ele>481.8</ele>
        <time>2023-11-26T13:55:54Z</time>
      </trkpt>
      <trkpt lat="43.6303" lon="6.63702">
        <ele>481.7</ele>
        <time>2023-11-26T13:55:55Z</time>
      </trkpt>
      <trkpt lat="43.63031" lon="6.63702">
        <ele>481.6</ele>
        <time>2023-11-26T13:55:56Z</time>
      </trkpt>
      <trkpt lat="43.63032" lon="6.63703">
        <ele>481.5</ele>
        <time>2023-11-26T13:55:57Z</time>
      </trkpt>
      <trkpt lat="43.63033" lon="6.63704">
        <ele>481.2</ele>
        <time>2023-11-26T13:55:58Z</time>
      </trkpt>
      <trkpt lat="43.63035" lon="6.63704">
        <ele>481.1</ele>
        <time>2023-11-26T13:55:59Z</time>
      </trkpt>
      <trkpt lat="43.63035" lon="6.63705">
        <ele>480.9</ele>
        <time>2023-11-26T13:56:00Z</time>
      </trkpt>
      <trkpt lat="43.63036" lon="6.63705">
        <ele>480.8</ele>
        <time>2023-11-26T13:56:01Z</time>
      </trkpt>
      <trkpt lat="43.63037" lon="6.63705">
        <ele>480.6</ele>
        <time>2023-11-26T13:56:02Z</time>
      </trkpt>
      <trkpt lat="43.63038" lon="6.63706">
        <ele>480.5</ele>
        <time>2023-11-26T13:56:03Z</time>
      </trkpt>
      <trkpt lat="43.63039" lon="6.63706">
        <ele>480.3</ele>
        <time>2023-11-26T13:56:04Z</time>
      </trkpt>
      <trkpt lat="43.63041" lon="6.63707">
        <ele>480.2</ele>
        <time>2023-11-26T13:56:05Z</time>
      </trkpt>
      <trkpt lat="43.63042" lon="6.63707">
        <ele>480.1</ele>
        <time>2023-11-26T13:56:06Z</time>
      </trkpt>
      <trkpt lat="43.63043" lon="6.63708">
        <ele>480</ele>
        <time>2023-11-26T13:56:07Z</time>
      </trkpt>
      <trkpt lat="43.63045" lon="6.63709">
        <ele>479.9</ele>
        <time>2023-11-26T13:56:08Z</time>
      </trkpt>
      <trkpt lat="43.63046" lon="6.63711">
        <ele>479.8</ele>
        <time>2023-11-26T13:56:09Z</time>
      </trkpt>
      <trkpt lat="43.63047" lon="6.63711">
        <ele>479.6</ele>
        <time>2023-11-26T13:56:10Z</time>
      </trkpt>
      <trkpt lat="43.63048" lon="6.63711">
        <ele>479.5</ele>
        <time>2023-11-26T13:56:11Z</time>
      </trkpt>
      <trkpt lat="43.63048" lon="6.63712">
        <ele>479.3</ele>
        <time>2023-11-26T13:56:12Z</time>
      </trkpt>
      <trkpt lat="43.63049" lon="6.63713">
        <ele>479</ele>
        <time>2023-11-26T13:56:13Z</time>
      </trkpt>
      <trkpt lat="43.6305" lon="6.63714">
        <ele>479</ele>
        <time>2023-11-26T13:56:14Z</time>
      </trkpt>
      <trkpt lat="43.63051" lon="6.63715">
        <ele>478.8</ele>
        <time>2023-11-26T13:56:15Z</time>
      </trkpt>
      <trkpt lat="43.63052" lon="6.63716">
        <ele>478.6</ele>
        <time>2023-11-26T13:56:16Z</time>
      </trkpt>
      <trkpt lat="43.63053" lon="6.63716">
        <ele>478.5</ele>
        <time>2023-11-26T13:56:17Z</time>
      </trkpt>
      <trkpt lat="43.63054" lon="6.63717">
        <ele>478.3</ele>
        <time>2023-11-26T13:56:18Z</time>
      </trkpt>
      <trkpt lat="43.63055" lon="6.63719">
        <ele>478.2</ele>
        <time>2023-11-26T13:56:19Z</time>
      </trkpt>
      <trkpt lat="43.63055" lon="6.6372">
        <ele>478</ele>
        <time>2023-11-26T13:56:20Z</time>
      </trkpt>
      <trkpt lat="43.63056" lon="6.6372">
        <ele>477.9</ele>
        <time>2023-11-26T13:56:21Z</time>
      </trkpt>
      <trkpt lat="43.63057" lon="6.63722">
        <ele>477.7</ele>
        <time>2023-11-26T13:56:22Z</time>
      </trkpt>
      <trkpt lat="43.63058" lon="6.63723">
        <ele>477.6</ele>
        <time>2023-11-26T13:56:23Z</time>
      </trkpt>
      <trkpt lat="43.63058" lon="6.63725">
        <ele>477.4</ele>
        <time>2023-11-26T13:56:24Z</time>
      </trkpt>
      <trkpt lat="43.63059" lon="6.63726">
        <ele>477.2</ele>
        <time>2023-11-26T13:56:25Z</time>
      </trkpt>
      <trkpt lat="43.6306" lon="6.63727">
        <ele>477</ele>
        <time>2023-11-26T13:56:26Z</time>
      </trkpt>
      <trkpt lat="43.63061" lon="6.63728">
        <ele>476.8</ele>
        <time>2023-11-26T13:56:27Z</time>
      </trkpt>
      <trkpt lat="43.63061" lon="6.63729">
        <ele>476.7</ele>
        <time>2023-11-26T13:56:28Z</time>
      </trkpt>
      <trkpt lat="43.63062" lon="6.63731">
        <ele>476.5</ele>
        <time>2023-11-26T13:56:29Z</time>
      </trkpt>
      <trkpt lat="43.63063" lon="6.63732">
        <ele>476.3</ele>
        <time>2023-11-26T13:56:30Z</time>
      </trkpt>
      <trkpt lat="43.63064" lon="6.63733">
        <ele>475.9</ele>
        <time>2023-11-26T13:56:31Z</time>
      </trkpt>
      <trkpt lat="43.63064" lon="6.63734">
        <ele>475.7</ele>
        <time>2023-11-26T13:56:32Z</time>
      </trkpt>
      <trkpt lat="43.63065" lon="6.63736">
        <ele>475.5</ele>
        <time>2023-11-26T13:56:33Z</time>
      </trkpt>
      <trkpt lat="43.63065" lon="6.63737">
        <ele>475.4</ele>
        <time>2023-11-26T13:56:34Z</time>
      </trkpt>
      <trkpt lat="43.63066" lon="6.63738">
        <ele>475.3</ele>
        <time>2023-11-26T13:56:35Z</time>
      </trkpt>
      <trkpt lat="43.63067" lon="6.63739">
        <ele>475.1</ele>
        <time>2023-11-26T13:56:36Z</time>
      </trkpt>
      <trkpt lat="43.63068" lon="6.63741">
        <ele>475</ele>
        <time>2023-11-26T13:56:37Z</time>
      </trkpt>
      <trkpt lat="43.63069" lon="6.63742">
        <ele>474.8</ele>
        <time>2023-11-26T13:56:38Z</time>
      </trkpt>
      <trkpt lat="43.63069" lon="6.63743">
        <ele>474.7</ele>
        <time>2023-11-26T13:56:39Z</time>
      </trkpt>
      <trkpt lat="43.6307" lon="6.63743">
        <ele>474.6</ele>
        <time>2023-11-26T13:56:40Z</time>
      </trkpt>
      <trkpt lat="43.63071" lon="6.63744">
        <ele>474.3</ele>
        <time>2023-11-26T13:56:41Z</time>
      </trkpt>
      <trkpt lat="43.63072" lon="6.63745">
        <ele>474.2</ele>
        <time>2023-11-26T13:56:42Z</time>
      </trkpt>
      <trkpt lat="43.63073" lon="6.63747">
        <ele>474.1</ele>
        <time>2023-11-26T13:56:43Z</time>
      </trkpt>
      <trkpt lat="43.63074" lon="6.63748">
        <ele>473.9</ele>
        <time>2023-11-26T13:56:44Z</time>
      </trkpt>
      <trkpt lat="43.63075" lon="6.63748">
        <ele>473.8</ele>
        <time>2023-11-26T13:56:45Z</time>
      </trkpt>
      <trkpt lat="43.63077" lon="6.63749">
        <ele>473.6</ele>
        <time>2023-11-26T13:56:46Z</time>
      </trkpt>
      <trkpt lat="43.63078" lon="6.6375">
        <ele>473.5</ele>
        <time>2023-11-26T13:56:47Z</time>
      </trkpt>
      <trkpt lat="43.63079" lon="6.63752">
        <ele>473.4</ele>
        <time>2023-11-26T13:56:48Z</time>
      </trkpt>
      <trkpt lat="43.6308" lon="6.63753">
        <ele>473.3</ele>
        <time>2023-11-26T13:56:49Z</time>
      </trkpt>
      <trkpt lat="43.63081" lon="6.63754">
        <ele>473.2</ele>
        <time>2023-11-26T13:56:50Z</time>
      </trkpt>
      <trkpt lat="43.63082" lon="6.63755">
        <ele>473.1</ele>
        <time>2023-11-26T13:56:51Z</time>
      </trkpt>
      <trkpt lat="43.63083" lon="6.63756">
        <ele>473</ele>
        <time>2023-11-26T13:56:52Z</time>
      </trkpt>
      <trkpt lat="43.63084" lon="6.63757">
        <ele>472.9</ele>
        <time>2023-11-26T13:56:53Z</time>
      </trkpt>
      <trkpt lat="43.63085" lon="6.63759">
        <ele>472.8</ele>
        <time>2023-11-26T13:56:54Z</time>
      </trkpt>
      <trkpt lat="43.63085" lon="6.6376">
        <ele>472.7</ele>
        <time>2023-11-26T13:56:55Z</time>
      </trkpt>
      <trkpt lat="43.63086" lon="6.63761">
        <ele>472.7</ele>
        <time>2023-11-26T13:56:56Z</time>
      </trkpt>
      <trkpt lat="43.63087" lon="6.63762">
        <ele>472.6</ele>
        <time>2023-11-26T13:56:57Z</time>
      </trkpt>
      <trkpt lat="43.63088" lon="6.63763">
        <ele>472.6</ele>
        <time>2023-11-26T13:56:58Z</time>
      </trkpt>
      <trkpt lat="43.63089" lon="6.63765">
        <ele>472.5</ele>
        <time>2023-11-26T13:56:59Z</time>
      </trkpt>
      <trkpt lat="43.6309" lon="6.63766">
        <ele>472.4</ele>
        <time>2023-11-26T13:57:00Z</time>
      </trkpt>
      <trkpt lat="43.6309" lon="6.63767">
        <ele>472.4</ele>
        <time>2023-11-26T13:57:01Z</time>
      </trkpt>
      <trkpt lat="43.63091" lon="6.63769">
        <ele>472.3</ele>
        <time>2023-11-26T13:57:02Z</time>
      </trkpt>
      <trkpt lat="43.63091" lon="6.6377">
        <ele>472.3</ele>
        <time>2023-11-26T13:57:03Z</time>
      </trkpt>
      <trkpt lat="43.63092" lon="6.63772">
        <ele>472.1</ele>
        <time>2023-11-26T13:57:04Z</time>
      </trkpt>
      <trkpt lat="43.63093" lon="6.63774">
        <ele>472</ele>
        <time>2023-11-26T13:57:05Z</time>
      </trkpt>
      <trkpt lat="43.63094" lon="6.63775">
        <ele>471.9</ele>
        <time>2023-11-26T13:57:06Z</time>
      </trkpt>
      <trkpt lat="43.63094" lon="6.63775">
        <ele>471.7</ele>
        <time>2023-11-26T13:57:07Z</time>
      </trkpt>
      <trkpt lat="43.63096" lon="6.63775">
        <ele>471.6</ele>
        <time>2023-11-26T13:57:08Z</time>
      </trkpt>
      <trkpt lat="43.63097" lon="6.63776">
        <ele>471.4</ele>
        <time>2023-11-26T13:57:09Z</time>
      </trkpt>
      <trkpt lat="43.63098" lon="6.63777">
        <ele>471.3</ele>
        <time>2023-11-26T13:57:10Z</time>
      </trkpt>
      <trkpt lat="43.63098" lon="6.63778">
        <ele>471.2</ele>
        <time>2023-11-26T13:57:11Z</time>
      </trkpt>
      <trkpt lat="43.63099" lon="6.63779">
        <ele>471</ele>
        <time>2023-11-26T13:57:12Z</time>
      </trkpt>
      <trkpt lat="43.63099" lon="6.6378">
        <ele>470.9</ele>
        <time>2023-11-26T13:57:13Z</time>
      </trkpt>
      <trkpt lat="43.631" lon="6.6378">
        <ele>470.8</ele>
        <time>2023-11-26T13:57:14Z</time>
      </trkpt>
      <trkpt lat="43.631" lon="6.63781">
        <ele>470.7</ele>
        <time>2023-11-26T13:57:15Z</time>
      </trkpt>
      <trkpt lat="43.631" lon="6.63782">
        <ele>470.6</ele>
        <time>2023-11-26T13:57:16Z</time>
      </trkpt>
      <trkpt lat="43.631" lon="6.63782">
        <ele>470.5</ele>
        <time>2023-11-26T13:57:17Z</time>
      </trkpt>
      <trkpt lat="43.631" lon="6.63783">
        <ele>470.6</ele>
        <time>2023-11-26T13:57:18Z</time>
      </trkpt>
      <trkpt lat="43.631" lon="6.63784">
        <ele>470.6</ele>
        <time>2023-11-26T13:57:19Z</time>
      </trkpt>
      <trkpt lat="43.631" lon="6.63784">
        <ele>470.6</ele>
        <time>2023-11-26T13:57:20Z</time>
      </trkpt>
      <trkpt lat="43.631" lon="6.63785">
        <ele>470.7</ele>
        <time>2023-11-26T13:57:21Z</time>
      </trkpt>
      <trkpt lat="43.63101" lon="6.63785">
        <ele>470.7</ele>
        <time>2023-11-26T13:57:22Z</time>
      </trkpt>
      <trkpt lat="43.63101" lon="6.63785">
        <ele>470.6</ele>
        <time>2023-11-26T13:57:23Z</time>
      </trkpt>
      <trkpt lat="43.63101" lon="6.63785">
        <ele>470.6</ele>
        <time>2023-11-26T13:57:24Z</time>
      </trkpt>
      <trkpt lat="43.63101" lon="6.63786">
        <ele>470.6</ele>
        <time>2023-11-26T13:57:25Z</time>
      </trkpt>
      <trkpt lat="43.63102" lon="6.63787">
        <ele>470.6</ele>
        <time>2023-11-26T13:57:26Z</time>
      </trkpt>
      <trkpt lat="43.63102" lon="6.63787">
        <ele>470.6</ele>
        <time>2023-11-26T13:57:27Z</time>
      </trkpt>
      <trkpt lat="43.63102" lon="6.63787">
        <ele>470.6</ele>
        <time>2023-11-26T13:57:28Z</time>
      </trkpt>
      <trkpt lat="43.63103" lon="6.63787">
        <ele>470.6</ele>
        <time>2023-11-26T13:57:29Z</time>
      </trkpt>
      <trkpt lat="43.63103" lon="6.63787">
        <ele>470.6</ele>
        <time>2023-11-26T13:57:30Z</time>
      </trkpt>
      <trkpt lat="43.63104" lon="6.63787">
        <ele>470.6</ele>
        <time>2023-11-26T13:57:31Z</time>
      </trkpt>
      <trkpt lat="43.63104" lon="6.63787">
        <ele>470.6</ele>
        <time>2023-11-26T13:57:32Z</time>
      </trkpt>
      <trkpt lat="43.63104" lon="6.63787">
        <ele>470.6</ele>
        <time>2023-11-26T13:57:33Z</time>
      </trkpt>
      <trkpt lat="43.63104" lon="6.63787">
        <ele>470.6</ele>
        <time>2023-11-26T13:57:34Z</time>
      </trkpt>
      <trkpt lat="43.63105" lon="6.63787">
        <ele>470.5</ele>
        <time>2023-11-26T13:57:35Z</time>
      </trkpt>
      <trkpt lat="43.63105" lon="6.63788">
        <ele>470.5</ele>
        <time>2023-11-26T13:57:36Z</time>
      </trkpt>
      <trkpt lat="43.63105" lon="6.63788">
        <ele>470.5</ele>
        <time>2023-11-26T13:57:37Z</time>
      </trkpt>
      <trkpt lat="43.63105" lon="6.63789">
        <ele>470.6</ele>
        <time>2023-11-26T13:57:38Z</time>
      </trkpt>
      <trkpt lat="43.63105" lon="6.63789">
        <ele>470.5</ele>
        <time>2023-11-26T13:57:39Z</time>
      </trkpt>
      <trkpt lat="43.63105" lon="6.63789">
        <ele>470.5</ele>
        <time>2023-11-26T13:57:40Z</time>
      </trkpt>
      <trkpt lat="43.63105" lon="6.63789">
        <ele>470.5</ele>
        <time>2023-11-26T13:57:41Z</time>
      </trkpt>
      <trkpt lat="43.63104" lon="6.6379">
        <ele>470.5</ele>
        <time>2023-11-26T13:57:42Z</time>
      </trkpt>
      <trkpt lat="43.63104" lon="6.6379">
        <ele>470.5</ele>
        <time>2023-11-26T13:57:43Z</time>
      </trkpt>
      <trkpt lat="43.63104" lon="6.63791">
        <ele>470.6</ele>
        <time>2023-11-26T13:57:44Z</time>
      </trkpt>
      <trkpt lat="43.63104" lon="6.63791">
        <ele>470.6</ele>
        <time>2023-11-26T13:57:45Z</time>
      </trkpt>
      <trkpt lat="43.63104" lon="6.63791">
        <ele>470.7</ele>
        <time>2023-11-26T13:57:46Z</time>
      </trkpt>
      <trkpt lat="43.63104" lon="6.63791">
        <ele>470.7</ele>
        <time>2023-11-26T13:57:47Z</time>
      </trkpt>
      <trkpt lat="43.63104" lon="6.63791">
        <ele>470.7</ele>
        <time>2023-11-26T13:57:48Z</time>
      </trkpt>
      <trkpt lat="43.63104" lon="6.63791">
        <ele>470.7</ele>
        <time>2023-11-26T13:57:49Z</time>
      </trkpt>
      <trkpt lat="43.63103" lon="6.6379">
        <ele>470.7</ele>
        <time>2023-11-26T13:57:50Z</time>
      </trkpt>
      <trkpt lat="43.63103" lon="6.6379">
        <ele>470.6</ele>
        <time>2023-11-26T13:57:51Z</time>
      </trkpt>
      <trkpt lat="43.63103" lon="6.6379">
        <ele>470.6</ele>
        <time>2023-11-26T13:57:52Z</time>
      </trkpt>
      <trkpt lat="43.63103" lon="6.6379">
        <ele>470.5</ele>
        <time>2023-11-26T13:57:53Z</time>
      </trkpt>
      <trkpt lat="43.63103" lon="6.6379">
        <ele>470.5</ele>
        <time>2023-11-26T13:57:54Z</time>
      </trkpt>
      <trkpt lat="43.63103" lon="6.6379">
        <ele>470.5</ele>
        <time>2023-11-26T13:57:55Z</time>
      </trkpt>
      <trkpt lat="43.63103" lon="6.63789">
        <ele>470.4</ele>
        <time>2023-11-26T13:57:56Z</time>
      </trkpt>
      <trkpt lat="43.63103" lon="6.63789">
        <ele>470.4</ele>
        <time>2023-11-26T13:57:57Z</time>
      </trkpt>
      <trkpt lat="43.63103" lon="6.63789">
        <ele>470.4</ele>
        <time>2023-11-26T13:57:58Z</time>
      </trkpt>
      <trkpt lat="43.63103" lon="6.6379">
        <ele>470.4</ele>
        <time>2023-11-26T13:57:59Z</time>
      </trkpt>
      <trkpt lat="43.63104" lon="6.6379">
        <ele>470.4</ele>
        <time>2023-11-26T13:58:00Z</time>
      </trkpt>
      <trkpt lat="43.63104" lon="6.6379">
        <ele>470.4</ele>
        <time>2023-11-26T13:58:01Z</time>
      </trkpt>
      <trkpt lat="43.63104" lon="6.63791">
        <ele>470.3</ele>
        <time>2023-11-26T13:58:02Z</time>
      </trkpt>
      <trkpt lat="43.63104" lon="6.63791">
        <ele>470.3</ele>
        <time>2023-11-26T13:58:03Z</time>
      </trkpt>
      <trkpt lat="43.63105" lon="6.63791">
        <ele>470.3</ele>
        <time>2023-11-26T13:58:04Z</time>
      </trkpt>
      <trkpt lat="43.63105" lon="6.63791">
        <ele>470.4</ele>
        <time>2023-11-26T13:58:05Z</time>
      </trkpt>
      <trkpt lat="43.63105" lon="6.63791">
        <ele>470.4</ele>
        <time>2023-11-26T13:58:06Z</time>
      </trkpt>
      <trkpt lat="43.63105" lon="6.63791">
        <ele>470.4</ele>
        <time>2023-11-26T13:58:07Z</time>
      </trkpt>
      <trkpt lat="43.63106" lon="6.63791">
        <ele>470.4</ele>
        <time>2023-11-26T13:58:08Z</time>
      </trkpt>
      <trkpt lat="43.63106" lon="6.63792">
        <ele>470.5</ele>
        <time>2023-11-26T13:58:09Z</time>
      </trkpt>
      <trkpt lat="43.63107" lon="6.63792">
        <ele>470.5</ele>
        <time>2023-11-26T13:58:10Z</time>
      </trkpt>
      <trkpt lat="43.63107" lon="6.63792">
        <ele>470.5</ele>
        <time>2023-11-26T13:58:11Z</time>
      </trkpt>
      <trkpt lat="43.63108" lon="6.63792">
        <ele>470.5</ele>
        <time>2023-11-26T13:58:12Z</time>
      </trkpt>
      <trkpt lat="43.63108" lon="6.63793">
        <ele>470.4</ele>
        <time>2023-11-26T13:58:13Z</time>
      </trkpt>
      <trkpt lat="43.63109" lon="6.63794">
        <ele>470.3</ele>
        <time>2023-11-26T13:58:14Z</time>
      </trkpt>
      <trkpt lat="43.6311" lon="6.63794">
        <ele>470.2</ele>
        <time>2023-11-26T13:58:15Z</time>
      </trkpt>
      <trkpt lat="43.63111" lon="6.63794">
        <ele>470.1</ele>
        <time>2023-11-26T13:58:16Z</time>
      </trkpt>
      <trkpt lat="43.63112" lon="6.63794">
        <ele>470.1</ele>
        <time>2023-11-26T13:58:17Z</time>
      </trkpt>
      <trkpt lat="43.63113" lon="6.63794">
        <ele>470</ele>
        <time>2023-11-26T13:58:18Z</time>
      </trkpt>
      <trkpt lat="43.63113" lon="6.63794">
        <ele>470</ele>
        <time>2023-11-26T13:58:19Z</time>
      </trkpt>
      <trkpt lat="43.63114" lon="6.63795">
        <ele>469.8</ele>
        <time>2023-11-26T13:58:20Z</time>
      </trkpt>
      <trkpt lat="43.63115" lon="6.63797">
        <ele>469.8</ele>
        <time>2023-11-26T13:58:21Z</time>
      </trkpt>
      <trkpt lat="43.63115" lon="6.63798">
        <ele>469.8</ele>
        <time>2023-11-26T13:58:22Z</time>
      </trkpt>
      <trkpt lat="43.63115" lon="6.63798">
        <ele>469.7</ele>
        <time>2023-11-26T13:58:23Z</time>
      </trkpt>
      <trkpt lat="43.63115" lon="6.63798">
        <ele>469.7</ele>
        <time>2023-11-26T13:58:24Z</time>
      </trkpt>
      <trkpt lat="43.63115" lon="6.63798">
        <ele>469.8</ele>
        <time>2023-11-26T13:58:25Z</time>
      </trkpt>
      <trkpt lat="43.63116" lon="6.63798">
        <ele>469.8</ele>
        <time>2023-11-26T13:58:26Z</time>
      </trkpt>
      <trkpt lat="43.63116" lon="6.63798">
        <ele>469.8</ele>
        <time>2023-11-26T13:58:27Z</time>
      </trkpt>
      <trkpt lat="43.63116" lon="6.63799">
        <ele>469.7</ele>
        <time>2023-11-26T13:58:28Z</time>
      </trkpt>
      <trkpt lat="43.63116" lon="6.63799">
        <ele>469.7</ele>
        <time>2023-11-26T13:58:29Z</time>
      </trkpt>
      <trkpt lat="43.63116" lon="6.63799">
        <ele>469.6</ele>
        <time>2023-11-26T13:58:30Z</time>
      </trkpt>
      <trkpt lat="43.63117" lon="6.63799">
        <ele>469.5</ele>
        <time>2023-11-26T13:58:31Z</time>
      </trkpt>
      <trkpt lat="43.63117" lon="6.63799">
        <ele>469.4</ele>
        <time>2023-11-26T13:58:32Z</time>
      </trkpt>
      <trkpt lat="43.63117" lon="6.638">
        <ele>469.4</ele>
        <time>2023-11-26T13:58:33Z</time>
      </trkpt>
      <trkpt lat="43.63117" lon="6.63799">
        <ele>469.3</ele>
        <time>2023-11-26T13:58:34Z</time>
      </trkpt>
      <trkpt lat="43.63117" lon="6.63799">
        <ele>469.6</ele>
        <time>2023-11-26T13:58:35Z</time>
      </trkpt>
      <trkpt lat="43.63117" lon="6.63799">
        <ele>469.5</ele>
        <time>2023-11-26T13:58:36Z</time>
      </trkpt>
      <trkpt lat="43.63117" lon="6.638">
        <ele>469.5</ele>
        <time>2023-11-26T13:58:37Z</time>
      </trkpt>
      <trkpt lat="43.63118" lon="6.638">
        <ele>469.4</ele>
        <time>2023-11-26T13:58:38Z</time>
      </trkpt>
      <trkpt lat="43.63119" lon="6.638">
        <ele>469.4</ele>
        <time>2023-11-26T13:58:39Z</time>
      </trkpt>
      <trkpt lat="43.6312" lon="6.63799">
        <ele>469.2</ele>
        <time>2023-11-26T13:58:40Z</time>
      </trkpt>
      <trkpt lat="43.63121" lon="6.63799">
        <ele>469.1</ele>
        <time>2023-11-26T13:58:41Z</time>
      </trkpt>
      <trkpt lat="43.63122" lon="6.63799">
        <ele>469</ele>
        <time>2023-11-26T13:58:42Z</time>
      </trkpt>
      <trkpt lat="43.63122" lon="6.63799">
        <ele>468.9</ele>
        <time>2023-11-26T13:58:43Z</time>
      </trkpt>
      <trkpt lat="43.63122" lon="6.63799">
        <ele>468.8</ele>
        <time>2023-11-26T13:58:44Z</time>
      </trkpt>
      <trkpt lat="43.63122" lon="6.63799">
        <ele>468.8</ele>
        <time>2023-11-26T13:58:45Z</time>
      </trkpt>
      <trkpt lat="43.63122" lon="6.63799">
        <ele>468.7</ele>
        <time>2023-11-26T13:58:46Z</time>
      </trkpt>
      <trkpt lat="43.63122" lon="6.63799">
        <ele>468.6</ele>
        <time>2023-11-26T13:58:47Z</time>
      </trkpt>
      <trkpt lat="43.63122" lon="6.63799">
        <ele>468.6</ele>
        <time>2023-11-26T13:58:48Z</time>
      </trkpt>
      <trkpt lat="43.63122" lon="6.63798">
        <ele>468.7</ele>
        <time>2023-11-26T13:58:49Z</time>
      </trkpt>
      <trkpt lat="43.63122" lon="6.63798">
        <ele>468.7</ele>
        <time>2023-11-26T13:58:50Z</time>
      </trkpt>
      <trkpt lat="43.63122" lon="6.63797">
        <ele>468.7</ele>
        <time>2023-11-26T13:58:51Z</time>
      </trkpt>
      <trkpt lat="43.63122" lon="6.63797">
        <ele>468.6</ele>
        <time>2023-11-26T13:58:52Z</time>
      </trkpt>
      <trkpt lat="43.63122" lon="6.63797">
        <ele>468.6</ele>
        <time>2023-11-26T13:58:53Z</time>
      </trkpt>
      <trkpt lat="43.63122" lon="6.63797">
        <ele>468.6</ele>
        <time>2023-11-26T13:58:54Z</time>
      </trkpt>
      <trkpt lat="43.63122" lon="6.63796">
        <ele>468.6</ele>
        <time>2023-11-26T13:58:55Z</time>
      </trkpt>
      <trkpt lat="43.63122" lon="6.63795">
        <ele>468.6</ele>
        <time>2023-11-26T13:58:56Z</time>
      </trkpt>
      <trkpt lat="43.63122" lon="6.63795">
        <ele>468.6</ele>
        <time>2023-11-26T13:58:57Z</time>
      </trkpt>
      <trkpt lat="43.63122" lon="6.63794">
        <ele>468.5</ele>
        <time>2023-11-26T13:58:58Z</time>
      </trkpt>
      <trkpt lat="43.63122" lon="6.63794">
        <ele>468.5</ele>
        <time>2023-11-26T13:58:59Z</time>
      </trkpt>
      <trkpt lat="43.63122" lon="6.63794">
        <ele>468.5</ele>
        <time>2023-11-26T13:59:00Z</time>
      </trkpt>
      <trkpt lat="43.63122" lon="6.63793">
        <ele>468.6</ele>
        <time>2023-11-26T13:59:01Z</time>
      </trkpt>
      <trkpt lat="43.63122" lon="6.63794">
        <ele>469.1</ele>
        <time>2023-11-26T13:59:02Z</time>
      </trkpt>
      <trkpt lat="43.63122" lon="6.63794">
        <ele>469.2</ele>
        <time>2023-11-26T13:59:03Z</time>
      </trkpt>
      <trkpt lat="43.63122" lon="6.63794">
        <ele>469.1</ele>
        <time>2023-11-26T13:59:04Z</time>
      </trkpt>
      <trkpt lat="43.63122" lon="6.63794">
        <ele>469.1</ele>
        <time>2023-11-26T13:59:05Z</time>
      </trkpt>
      <trkpt lat="43.63122" lon="6.63794">
        <ele>469</ele>
        <time>2023-11-26T13:59:06Z</time>
      </trkpt>
      <trkpt lat="43.63122" lon="6.63793">
        <ele>468.9</ele>
        <time>2023-11-26T13:59:07Z</time>
      </trkpt>
      <trkpt lat="43.63122" lon="6.63793">
        <ele>468.8</ele>
        <time>2023-11-26T13:59:08Z</time>
      </trkpt>
      <trkpt lat="43.63122" lon="6.63794">
        <ele>468.8</ele>
        <time>2023-11-26T13:59:09Z</time>
      </trkpt>
      <trkpt lat="43.63122" lon="6.63795">
        <ele>468.7</ele>
        <time>2023-11-26T13:59:10Z</time>
      </trkpt>
      <trkpt lat="43.63121" lon="6.63796">
        <ele>468.6</ele>
        <time>2023-11-26T13:59:11Z</time>
      </trkpt>
      <trkpt lat="43.63121" lon="6.63796">
        <ele>468.6</ele>
        <time>2023-11-26T13:59:12Z</time>
      </trkpt>
      <trkpt lat="43.63121" lon="6.63795">
        <ele>468.6</ele>
        <time>2023-11-26T13:59:13Z</time>
      </trkpt>
      <trkpt lat="43.63122" lon="6.63795">
        <ele>468.5</ele>
        <time>2023-11-26T13:59:14Z</time>
      </trkpt>
      <trkpt lat="43.63122" lon="6.63796">
        <ele>468.4</ele>
        <time>2023-11-26T13:59:15Z</time>
      </trkpt>
      <trkpt lat="43.63123" lon="6.63796">
        <ele>468.3</ele>
        <time>2023-11-26T13:59:16Z</time>
      </trkpt>
      <trkpt lat="43.63123" lon="6.63797">
        <ele>468.3</ele>
        <time>2023-11-26T13:59:17Z</time>
      </trkpt>
      <trkpt lat="43.63125" lon="6.63797">
        <ele>468.2</ele>
        <time>2023-11-26T13:59:18Z</time>
      </trkpt>
      <trkpt lat="43.63125" lon="6.63798">
        <ele>468.1</ele>
        <time>2023-11-26T13:59:19Z</time>
      </trkpt>
      <trkpt lat="43.63126" lon="6.63799">
        <ele>468.1</ele>
        <time>2023-11-26T13:59:20Z</time>
      </trkpt>
      <trkpt lat="43.63126" lon="6.63799">
        <ele>468</ele>
        <time>2023-11-26T13:59:21Z</time>
      </trkpt>
      <trkpt lat="43.63126" lon="6.63799">
        <ele>467.9</ele>
        <time>2023-11-26T13:59:22Z</time>
      </trkpt>
      <trkpt lat="43.63127" lon="6.638">
        <ele>467.8</ele>
        <time>2023-11-26T13:59:23Z</time>
      </trkpt>
      <trkpt lat="43.63127" lon="6.638">
        <ele>467.7</ele>
        <time>2023-11-26T13:59:24Z</time>
      </trkpt>
      <trkpt lat="43.63128" lon="6.638">
        <ele>467.6</ele>
        <time>2023-11-26T13:59:25Z</time>
      </trkpt>
      <trkpt lat="43.63128" lon="6.63801">
        <ele>467.4</ele>
        <time>2023-11-26T13:59:26Z</time>
      </trkpt>
      <trkpt lat="43.63128" lon="6.63802">
        <ele>467.3</ele>
        <time>2023-11-26T13:59:27Z</time>
      </trkpt>
      <trkpt lat="43.63129" lon="6.63802">
        <ele>467.2</ele>
        <time>2023-11-26T13:59:28Z</time>
      </trkpt>
      <trkpt lat="43.6313" lon="6.63803">
        <ele>467.1</ele>
        <time>2023-11-26T13:59:29Z</time>
      </trkpt>
      <trkpt lat="43.6313" lon="6.63804">
        <ele>467</ele>
        <time>2023-11-26T13:59:30Z</time>
      </trkpt>
      <trkpt lat="43.63131" lon="6.63805">
        <ele>466.9</ele>
        <time>2023-11-26T13:59:31Z</time>
      </trkpt>
      <trkpt lat="43.63131" lon="6.63806">
        <ele>466.7</ele>
        <time>2023-11-26T13:59:32Z</time>
      </trkpt>
      <trkpt lat="43.63131" lon="6.63807">
        <ele>466.7</ele>
        <time>2023-11-26T13:59:33Z</time>
      </trkpt>
      <trkpt lat="43.63131" lon="6.63809">
        <ele>466.7</ele>
        <time>2023-11-26T13:59:34Z</time>
      </trkpt>
      <trkpt lat="43.63131" lon="6.6381">
        <ele>466.7</ele>
        <time>2023-11-26T13:59:35Z</time>
      </trkpt>
      <trkpt lat="43.63131" lon="6.63811">
        <ele>466.7</ele>
        <time>2023-11-26T13:59:36Z</time>
      </trkpt>
      <trkpt lat="43.63131" lon="6.63812">
        <ele>466.6</ele>
        <time>2023-11-26T13:59:37Z</time>
      </trkpt>
      <trkpt lat="43.63131" lon="6.63814">
        <ele>466.5</ele>
        <time>2023-11-26T13:59:38Z</time>
      </trkpt>
      <trkpt lat="43.63131" lon="6.63815">
        <ele>466.4</ele>
        <time>2023-11-26T13:59:39Z</time>
      </trkpt>
      <trkpt lat="43.63131" lon="6.63816">
        <ele>466.2</ele>
        <time>2023-11-26T13:59:40Z</time>
      </trkpt>
      <trkpt lat="43.63131" lon="6.63817">
        <ele>466.1</ele>
        <time>2023-11-26T13:59:41Z</time>
      </trkpt>
      <trkpt lat="43.63131" lon="6.63818">
        <ele>465.9</ele>
        <time>2023-11-26T13:59:42Z</time>
      </trkpt>
      <trkpt lat="43.63131" lon="6.6382">
        <ele>465.8</ele>
        <time>2023-11-26T13:59:43Z</time>
      </trkpt>
      <trkpt lat="43.6313" lon="6.63821">
        <ele>465.6</ele>
        <time>2023-11-26T13:59:44Z</time>
      </trkpt>
      <trkpt lat="43.6313" lon="6.63823">
        <ele>465.4</ele>
        <time>2023-11-26T13:59:45Z</time>
      </trkpt>
      <trkpt lat="43.63129" lon="6.63825">
        <ele>465.2</ele>
        <time>2023-11-26T13:59:46Z</time>
      </trkpt>
      <trkpt lat="43.63129" lon="6.63826">
        <ele>465</ele>
        <time>2023-11-26T13:59:47Z</time>
      </trkpt>
      <trkpt lat="43.63129" lon="6.63827">
        <ele>464.7</ele>
        <time>2023-11-26T13:59:48Z</time>
      </trkpt>
      <trkpt lat="43.63128" lon="6.63829">
        <ele>464.6</ele>
        <time>2023-11-26T13:59:49Z</time>
      </trkpt>
      <trkpt lat="43.63128" lon="6.63831">
        <ele>464.6</ele>
        <time>2023-11-26T13:59:50Z</time>
      </trkpt>
      <trkpt lat="43.63128" lon="6.63832">
        <ele>464.5</ele>
        <time>2023-11-26T13:59:51Z</time>
      </trkpt>
      <trkpt lat="43.63128" lon="6.63834">
        <ele>464.3</ele>
        <time>2023-11-26T13:59:52Z</time>
      </trkpt>
      <trkpt lat="43.63127" lon="6.63835">
        <ele>464.2</ele>
        <time>2023-11-26T13:59:53Z</time>
      </trkpt>
      <trkpt lat="43.63127" lon="6.63837">
        <ele>463.9</ele>
        <time>2023-11-26T13:59:54Z</time>
      </trkpt>
      <trkpt lat="43.63127" lon="6.63838">
        <ele>463.7</ele>
        <time>2023-11-26T13:59:55Z</time>
      </trkpt>
      <trkpt lat="43.63127" lon="6.6384">
        <ele>463.6</ele>
        <time>2023-11-26T13:59:56Z</time>
      </trkpt>
      <trkpt lat="43.63126" lon="6.63841">
        <ele>463.5</ele>
        <time>2023-11-26T13:59:57Z</time>
      </trkpt>
      <trkpt lat="43.63126" lon="6.63843">
        <ele>463.4</ele>
        <time>2023-11-26T13:59:58Z</time>
      </trkpt>
      <trkpt lat="43.63125" lon="6.63844">
        <ele>463.3</ele>
        <time>2023-11-26T13:59:59Z</time>
      </trkpt>
      <trkpt lat="43.63124" lon="6.63846">
        <ele>463.2</ele>
        <time>2023-11-26T14:00:00Z</time>
      </trkpt>
      <trkpt lat="43.63124" lon="6.63848">
        <ele>463.2</ele>
        <time>2023-11-26T14:00:01Z</time>
      </trkpt>
      <trkpt lat="43.63124" lon="6.6385">
        <ele>463.1</ele>
        <time>2023-11-26T14:00:02Z</time>
      </trkpt>
      <trkpt lat="43.63123" lon="6.63852">
        <ele>462.9</ele>
        <time>2023-11-26T14:00:03Z</time>
      </trkpt>
      <trkpt lat="43.63122" lon="6.63854">
        <ele>462.8</ele>
        <time>2023-11-26T14:00:04Z</time>
      </trkpt>
      <trkpt lat="43.63121" lon="6.63856">
        <ele>462.7</ele>
        <time>2023-11-26T14:00:05Z</time>
      </trkpt>
      <trkpt lat="43.6312" lon="6.63857">
        <ele>462.6</ele>
        <time>2023-11-26T14:00:06Z</time>
      </trkpt>
      <trkpt lat="43.63119" lon="6.63858">
        <ele>462.6</ele>
        <time>2023-11-26T14:00:07Z</time>
      </trkpt>
      <trkpt lat="43.63119" lon="6.63859">
        <ele>462.5</ele>
        <time>2023-11-26T14:00:08Z</time>
      </trkpt>
      <trkpt lat="43.63119" lon="6.63861">
        <ele>462.3</ele>
        <time>2023-11-26T14:00:09Z</time>
      </trkpt>
      <trkpt lat="43.63118" lon="6.63862">
        <ele>462.2</ele>
        <time>2023-11-26T14:00:10Z</time>
      </trkpt>
      <trkpt lat="43.63118" lon="6.63863">
        <ele>462.2</ele>
        <time>2023-11-26T14:00:11Z</time>
      </trkpt>
      <trkpt lat="43.63117" lon="6.63863">
        <ele>462.1</ele>
        <time>2023-11-26T14:00:12Z</time>
      </trkpt>
      <trkpt lat="43.63117" lon="6.63863">
        <ele>462</ele>
        <time>2023-11-26T14:00:13Z</time>
      </trkpt>
      <trkpt lat="43.63117" lon="6.63864">
        <ele>462</ele>
        <time>2023-11-26T14:00:14Z</time>
      </trkpt>
      <trkpt lat="43.63117" lon="6.63864">
        <ele>461.8</ele>
        <time>2023-11-26T14:00:15Z</time>
      </trkpt>
      <trkpt lat="43.63117" lon="6.63866">
        <ele>461.7</ele>
        <time>2023-11-26T14:00:16Z</time>
      </trkpt>
      <trkpt lat="43.63117" lon="6.63867">
        <ele>461.7</ele>
        <time>2023-11-26T14:00:17Z</time>
      </trkpt>
      <trkpt lat="43.63117" lon="6.63869">
        <ele>461.7</ele>
        <time>2023-11-26T14:00:18Z</time>
      </trkpt>
      <trkpt lat="43.63116" lon="6.6387">
        <ele>461.7</ele>
        <time>2023-11-26T14:00:19Z</time>
      </trkpt>
      <trkpt lat="43.63116" lon="6.63871">
        <ele>461.7</ele>
        <time>2023-11-26T14:00:20Z</time>
      </trkpt>
      <trkpt lat="43.63116" lon="6.63873">
        <ele>461.6</ele>
        <time>2023-11-26T14:00:21Z</time>
      </trkpt>
      <trkpt lat="43.63116" lon="6.63875">
        <ele>461.7</ele>
        <time>2023-11-26T14:00:22Z</time>
      </trkpt>
      <trkpt lat="43.63116" lon="6.63877">
        <ele>461.8</ele>
        <time>2023-11-26T14:00:23Z</time>
      </trkpt>
      <trkpt lat="43.63116" lon="6.63879">
        <ele>461.8</ele>
        <time>2023-11-26T14:00:24Z</time>
      </trkpt>
      <trkpt lat="43.63115" lon="6.6388">
        <ele>461.7</ele>
        <time>2023-11-26T14:00:25Z</time>
      </trkpt>
      <trkpt lat="43.63115" lon="6.63882">
        <ele>461.7</ele>
        <time>2023-11-26T14:00:26Z</time>
      </trkpt>
      <trkpt lat="43.63115" lon="6.63883">
        <ele>461.7</ele>
        <time>2023-11-26T14:00:27Z</time>
      </trkpt>
      <trkpt lat="43.63115" lon="6.63885">
        <ele>461.5</ele>
        <time>2023-11-26T14:00:28Z</time>
      </trkpt>
      <trkpt lat="43.63115" lon="6.63886">
        <ele>461.4</ele>
        <time>2023-11-26T14:00:29Z</time>
      </trkpt>
      <trkpt lat="43.63115" lon="6.63888">
        <ele>461.4</ele>
        <time>2023-11-26T14:00:30Z</time>
      </trkpt>
      <trkpt lat="43.63115" lon="6.63889">
        <ele>461.2</ele>
        <time>2023-11-26T14:00:31Z</time>
      </trkpt>
      <trkpt lat="43.63115" lon="6.63891">
        <ele>461</ele>
        <time>2023-11-26T14:00:32Z</time>
      </trkpt>
      <trkpt lat="43.63114" lon="6.63892">
        <ele>460.7</ele>
        <time>2023-11-26T14:00:33Z</time>
      </trkpt>
      <trkpt lat="43.63114" lon="6.63894">
        <ele>460.6</ele>
        <time>2023-11-26T14:00:34Z</time>
      </trkpt>
      <trkpt lat="43.63114" lon="6.63896">
        <ele>460.4</ele>
        <time>2023-11-26T14:00:35Z</time>
      </trkpt>
      <trkpt lat="43.63114" lon="6.63897">
        <ele>460.4</ele>
        <time>2023-11-26T14:00:36Z</time>
      </trkpt>
      <trkpt lat="43.63114" lon="6.63898">
        <ele>460.3</ele>
        <time>2023-11-26T14:00:37Z</time>
      </trkpt>
      <trkpt lat="43.63114" lon="6.639">
        <ele>460.1</ele>
        <time>2023-11-26T14:00:38Z</time>
      </trkpt>
      <trkpt lat="43.63114" lon="6.63901">
        <ele>460</ele>
        <time>2023-11-26T14:00:39Z</time>
      </trkpt>
      <trkpt lat="43.63114" lon="6.63902">
        <ele>459.9</ele>
        <time>2023-11-26T14:00:40Z</time>
      </trkpt>
      <trkpt lat="43.63113" lon="6.63904">
        <ele>459.8</ele>
        <time>2023-11-26T14:00:41Z</time>
      </trkpt>
      <trkpt lat="43.63113" lon="6.63906">
        <ele>459.7</ele>
        <time>2023-11-26T14:00:42Z</time>
      </trkpt>
      <trkpt lat="43.63113" lon="6.63907">
        <ele>459.6</ele>
        <time>2023-11-26T14:00:43Z</time>
      </trkpt>
      <trkpt lat="43.63113" lon="6.63909">
        <ele>459.3</ele>
        <time>2023-11-26T14:00:44Z</time>
      </trkpt>
      <trkpt lat="43.63113" lon="6.63911">
        <ele>459.1</ele>
        <time>2023-11-26T14:00:45Z</time>
      </trkpt>
      <trkpt lat="43.63113" lon="6.63912">
        <ele>458.9</ele>
        <time>2023-11-26T14:00:46Z</time>
      </trkpt>
      <trkpt lat="43.63112" lon="6.63914">
        <ele>458.8</ele>
        <time>2023-11-26T14:00:47Z</time>
      </trkpt>
      <trkpt lat="43.63112" lon="6.63916">
        <ele>458.7</ele>
        <time>2023-11-26T14:00:48Z</time>
      </trkpt>
      <trkpt lat="43.63112" lon="6.63917">
        <ele>458.5</ele>
        <time>2023-11-26T14:00:49Z</time>
      </trkpt>
      <trkpt lat="43.63112" lon="6.63918">
        <ele>458.3</ele>
        <time>2023-11-26T14:00:50Z</time>
      </trkpt>
      <trkpt lat="43.63112" lon="6.6392">
        <ele>457.8</ele>
        <time>2023-11-26T14:00:51Z</time>
      </trkpt>
      <trkpt lat="43.63113" lon="6.63921">
        <ele>457.7</ele>
        <time>2023-11-26T14:00:52Z</time>
      </trkpt>
      <trkpt lat="43.63113" lon="6.63923">
        <ele>457.6</ele>
        <time>2023-11-26T14:00:53Z</time>
      </trkpt>
      <trkpt lat="43.63113" lon="6.63925">
        <ele>457.4</ele>
        <time>2023-11-26T14:00:54Z</time>
      </trkpt>
      <trkpt lat="43.63113" lon="6.63926">
        <ele>457.4</ele>
        <time>2023-11-26T14:00:55Z</time>
      </trkpt>
      <trkpt lat="43.63113" lon="6.63928">
        <ele>457.3</ele>
        <time>2023-11-26T14:00:56Z</time>
      </trkpt>
      <trkpt lat="43.63113" lon="6.63931">
        <ele>457.2</ele>
        <time>2023-11-26T14:00:57Z</time>
      </trkpt>
      <trkpt lat="43.63113" lon="6.63932">
        <ele>457.1</ele>
        <time>2023-11-26T14:00:58Z</time>
      </trkpt>
      <trkpt lat="43.63114" lon="6.63934">
        <ele>457</ele>
        <time>2023-11-26T14:00:59Z</time>
      </trkpt>
      <trkpt lat="43.63114" lon="6.63936">
        <ele>456.9</ele>
        <time>2023-11-26T14:01:00Z</time>
      </trkpt>
      <trkpt lat="43.63114" lon="6.63937">
        <ele>456.7</ele>
        <time>2023-11-26T14:01:01Z</time>
      </trkpt>
      <trkpt lat="43.63114" lon="6.63939">
        <ele>456.6</ele>
        <time>2023-11-26T14:01:02Z</time>
      </trkpt>
      <trkpt lat="43.63114" lon="6.63941">
        <ele>456.5</ele>
        <time>2023-11-26T14:01:03Z</time>
      </trkpt>
      <trkpt lat="43.63114" lon="6.63942">
        <ele>456.5</ele>
        <time>2023-11-26T14:01:04Z</time>
      </trkpt>
      <trkpt lat="43.63114" lon="6.63944">
        <ele>456.3</ele>
        <time>2023-11-26T14:01:05Z</time>
      </trkpt>
      <trkpt lat="43.63114" lon="6.63946">
        <ele>456.2</ele>
        <time>2023-11-26T14:01:06Z</time>
      </trkpt>
      <trkpt lat="43.63113" lon="6.63948">
        <ele>456.1</ele>
        <time>2023-11-26T14:01:07Z</time>
      </trkpt>
      <trkpt lat="43.63114" lon="6.63951">
        <ele>456</ele>
        <time>2023-11-26T14:01:08Z</time>
      </trkpt>
      <trkpt lat="43.63114" lon="6.63953">
        <ele>455.9</ele>
        <time>2023-11-26T14:01:09Z</time>
      </trkpt>
      <trkpt lat="43.63115" lon="6.63955">
        <ele>455.8</ele>
        <time>2023-11-26T14:01:10Z</time>
      </trkpt>
      <trkpt lat="43.63115" lon="6.63956">
        <ele>455.7</ele>
        <time>2023-11-26T14:01:11Z</time>
      </trkpt>
      <trkpt lat="43.63115" lon="6.63958">
        <ele>455.6</ele>
        <time>2023-11-26T14:01:12Z</time>
      </trkpt>
      <trkpt lat="43.63115" lon="6.63959">
        <ele>455.4</ele>
        <time>2023-11-26T14:01:13Z</time>
      </trkpt>
      <trkpt lat="43.63116" lon="6.63961">
        <ele>455.3</ele>
        <time>2023-11-26T14:01:14Z</time>
      </trkpt>
      <trkpt lat="43.63116" lon="6.63963">
        <ele>455.2</ele>
        <time>2023-11-26T14:01:15Z</time>
      </trkpt>
      <trkpt lat="43.63116" lon="6.63965">
        <ele>455.1</ele>
        <time>2023-11-26T14:01:16Z</time>
      </trkpt>
      <trkpt lat="43.63117" lon="6.63967">
        <ele>455</ele>
        <time>2023-11-26T14:01:17Z</time>
      </trkpt>
      <trkpt lat="43.63117" lon="6.63969">
        <ele>454.8</ele>
        <time>2023-11-26T14:01:18Z</time>
      </trkpt>
      <trkpt lat="43.63118" lon="6.63971">
        <ele>454.7</ele>
        <time>2023-11-26T14:01:19Z</time>
      </trkpt>
      <trkpt lat="43.63119" lon="6.63973">
        <ele>454.6</ele>
        <time>2023-11-26T14:01:20Z</time>
      </trkpt>
      <trkpt lat="43.6312" lon="6.63975">
        <ele>454.6</ele>
        <time>2023-11-26T14:01:21Z</time>
      </trkpt>
      <trkpt lat="43.63121" lon="6.63976">
        <ele>454.5</ele>
        <time>2023-11-26T14:01:22Z</time>
      </trkpt>
      <trkpt lat="43.63121" lon="6.63978">
        <ele>454.4</ele>
        <time>2023-11-26T14:01:23Z</time>
      </trkpt>
      <trkpt lat="43.63122" lon="6.63979">
        <ele>454.4</ele>
        <time>2023-11-26T14:01:24Z</time>
      </trkpt>
      <trkpt lat="43.63123" lon="6.6398">
        <ele>454.3</ele>
        <time>2023-11-26T14:01:25Z</time>
      </trkpt>
      <trkpt lat="43.63124" lon="6.63982">
        <ele>454.3</ele>
        <time>2023-11-26T14:01:26Z</time>
      </trkpt>
      <trkpt lat="43.63124" lon="6.63983">
        <ele>454.2</ele>
        <time>2023-11-26T14:01:27Z</time>
      </trkpt>
      <trkpt lat="43.63125" lon="6.63984">
        <ele>454.2</ele>
        <time>2023-11-26T14:01:28Z</time>
      </trkpt>
      <trkpt lat="43.63126" lon="6.63985">
        <ele>454.2</ele>
        <time>2023-11-26T14:01:29Z</time>
      </trkpt>
      <trkpt lat="43.63126" lon="6.63987">
        <ele>454.2</ele>
        <time>2023-11-26T14:01:30Z</time>
      </trkpt>
      <trkpt lat="43.63127" lon="6.63988">
        <ele>454.1</ele>
        <time>2023-11-26T14:01:31Z</time>
      </trkpt>
      <trkpt lat="43.63128" lon="6.63989">
        <ele>454</ele>
        <time>2023-11-26T14:01:32Z</time>
      </trkpt>
      <trkpt lat="43.63128" lon="6.63991">
        <ele>453.9</ele>
        <time>2023-11-26T14:01:33Z</time>
      </trkpt>
      <trkpt lat="43.63129" lon="6.63992">
        <ele>453.9</ele>
        <time>2023-11-26T14:01:34Z</time>
      </trkpt>
      <trkpt lat="43.6313" lon="6.63994">
        <ele>453.7</ele>
        <time>2023-11-26T14:01:35Z</time>
      </trkpt>
      <trkpt lat="43.6313" lon="6.63995">
        <ele>453.6</ele>
        <time>2023-11-26T14:01:36Z</time>
      </trkpt>
      <trkpt lat="43.63132" lon="6.63996">
        <ele>453.6</ele>
        <time>2023-11-26T14:01:37Z</time>
      </trkpt>
      <trkpt lat="43.63133" lon="6.63997">
        <ele>453.4</ele>
        <time>2023-11-26T14:01:38Z</time>
      </trkpt>
      <trkpt lat="43.63134" lon="6.63999">
        <ele>453.3</ele>
        <time>2023-11-26T14:01:39Z</time>
      </trkpt>
      <trkpt lat="43.63135" lon="6.64">
        <ele>453.2</ele>
        <time>2023-11-26T14:01:40Z</time>
      </trkpt>
      <trkpt lat="43.63136" lon="6.64001">
        <ele>453.1</ele>
        <time>2023-11-26T14:01:41Z</time>
      </trkpt>
      <trkpt lat="43.63137" lon="6.64003">
        <ele>453</ele>
        <time>2023-11-26T14:01:42Z</time>
      </trkpt>
      <trkpt lat="43.63138" lon="6.64004">
        <ele>452.9</ele>
        <time>2023-11-26T14:01:43Z</time>
      </trkpt>
      <trkpt lat="43.63139" lon="6.64006">
        <ele>452.8</ele>
        <time>2023-11-26T14:01:44Z</time>
      </trkpt>
      <trkpt lat="43.63141" lon="6.64007">
        <ele>452.8</ele>
        <time>2023-11-26T14:01:45Z</time>
      </trkpt>
      <trkpt lat="43.63142" lon="6.64008">
        <ele>452.8</ele>
        <time>2023-11-26T14:01:46Z</time>
      </trkpt>
      <trkpt lat="43.63143" lon="6.64009">
        <ele>452.7</ele>
        <time>2023-11-26T14:01:47Z</time>
      </trkpt>
      <trkpt lat="43.63144" lon="6.64009">
        <ele>452.7</ele>
        <time>2023-11-26T14:01:48Z</time>
      </trkpt>
      <trkpt lat="43.63145" lon="6.6401">
        <ele>452.6</ele>
        <time>2023-11-26T14:01:49Z</time>
      </trkpt>
      <trkpt lat="43.63146" lon="6.6401">
        <ele>452.6</ele>
        <time>2023-11-26T14:01:50Z</time>
      </trkpt>
      <trkpt lat="43.63148" lon="6.6401">
        <ele>452.5</ele>
        <time>2023-11-26T14:01:51Z</time>
      </trkpt>
      <trkpt lat="43.63148" lon="6.64009">
        <ele>452.3</ele>
        <time>2023-11-26T14:01:52Z</time>
      </trkpt>
      <trkpt lat="43.63149" lon="6.6401">
        <ele>452.2</ele>
        <time>2023-11-26T14:01:53Z</time>
      </trkpt>
      <trkpt lat="43.6315" lon="6.6401">
        <ele>452.1</ele>
        <time>2023-11-26T14:01:54Z</time>
      </trkpt>
      <trkpt lat="43.63152" lon="6.6401">
        <ele>451.8</ele>
        <time>2023-11-26T14:01:55Z</time>
      </trkpt>
      <trkpt lat="43.63153" lon="6.6401">
        <ele>451.7</ele>
        <time>2023-11-26T14:01:56Z</time>
      </trkpt>
      <trkpt lat="43.63154" lon="6.6401">
        <ele>451.6</ele>
        <time>2023-11-26T14:01:57Z</time>
      </trkpt>
      <trkpt lat="43.63155" lon="6.64012">
        <ele>451.6</ele>
        <time>2023-11-26T14:01:58Z</time>
      </trkpt>
      <trkpt lat="43.63156" lon="6.64013">
        <ele>451.4</ele>
        <time>2023-11-26T14:01:59Z</time>
      </trkpt>
      <trkpt lat="43.63157" lon="6.64013">
        <ele>451.3</ele>
        <time>2023-11-26T14:02:00Z</time>
      </trkpt>
      <trkpt lat="43.63159" lon="6.64014">
        <ele>451.1</ele>
        <time>2023-11-26T14:02:01Z</time>
      </trkpt>
      <trkpt lat="43.6316" lon="6.64015">
        <ele>451</ele>
        <time>2023-11-26T14:02:02Z</time>
      </trkpt>
      <trkpt lat="43.63161" lon="6.64015">
        <ele>450.9</ele>
        <time>2023-11-26T14:02:03Z</time>
      </trkpt>
      <trkpt lat="43.63162" lon="6.64016">
        <ele>450.8</ele>
        <time>2023-11-26T14:02:04Z</time>
      </trkpt>
      <trkpt lat="43.63163" lon="6.64016">
        <ele>450.8</ele>
        <time>2023-11-26T14:02:05Z</time>
      </trkpt>
      <trkpt lat="43.63164" lon="6.64017">
        <ele>450.8</ele>
        <time>2023-11-26T14:02:06Z</time>
      </trkpt>
      <trkpt lat="43.63164" lon="6.64018">
        <ele>450.7</ele>
        <time>2023-11-26T14:02:07Z</time>
      </trkpt>
      <trkpt lat="43.63165" lon="6.64018">
        <ele>450.7</ele>
        <time>2023-11-26T14:02:08Z</time>
      </trkpt>
      <trkpt lat="43.63166" lon="6.64019">
        <ele>450.6</ele>
        <time>2023-11-26T14:02:09Z</time>
      </trkpt>
      <trkpt lat="43.63167" lon="6.6402">
        <ele>450.5</ele>
        <time>2023-11-26T14:02:10Z</time>
      </trkpt>
      <trkpt lat="43.63168" lon="6.64021">
        <ele>450.5</ele>
        <time>2023-11-26T14:02:11Z</time>
      </trkpt>
      <trkpt lat="43.63169" lon="6.64022">
        <ele>450.3</ele>
        <time>2023-11-26T14:02:12Z</time>
      </trkpt>
      <trkpt lat="43.6317" lon="6.64024">
        <ele>450.3</ele>
        <time>2023-11-26T14:02:13Z</time>
      </trkpt>
      <trkpt lat="43.63172" lon="6.64025">
        <ele>450.1</ele>
        <time>2023-11-26T14:02:14Z</time>
      </trkpt>
      <trkpt lat="43.63173" lon="6.64027">
        <ele>450</ele>
        <time>2023-11-26T14:02:15Z</time>
      </trkpt>
      <trkpt lat="43.63173" lon="6.64028">
        <ele>450.1</ele>
        <time>2023-11-26T14:02:16Z</time>
      </trkpt>
      <trkpt lat="43.63174" lon="6.64029">
        <ele>450</ele>
        <time>2023-11-26T14:02:17Z</time>
      </trkpt>
      <trkpt lat="43.63175" lon="6.64031">
        <ele>449.9</ele>
        <time>2023-11-26T14:02:18Z</time>
      </trkpt>
      <trkpt lat="43.63176" lon="6.64032">
        <ele>449.9</ele>
        <time>2023-11-26T14:02:19Z</time>
      </trkpt>
      <trkpt lat="43.63177" lon="6.64034">
        <ele>449.8</ele>
        <time>2023-11-26T14:02:20Z</time>
      </trkpt>
      <trkpt lat="43.63178" lon="6.64035">
        <ele>449.7</ele>
        <time>2023-11-26T14:02:21Z</time>
      </trkpt>
      <trkpt lat="43.63179" lon="6.64037">
        <ele>449.7</ele>
        <time>2023-11-26T14:02:22Z</time>
      </trkpt>
      <trkpt lat="43.6318" lon="6.64038">
        <ele>449.7</ele>
        <time>2023-11-26T14:02:23Z</time>
      </trkpt>
      <trkpt lat="43.63181" lon="6.64039">
        <ele>449.6</ele>
        <time>2023-11-26T14:02:24Z</time>
      </trkpt>
      <trkpt lat="43.63182" lon="6.64041">
        <ele>449.5</ele>
        <time>2023-11-26T14:02:25Z</time>
      </trkpt>
      <trkpt lat="43.63183" lon="6.64043">
        <ele>449.5</ele>
        <time>2023-11-26T14:02:26Z</time>
      </trkpt>
      <trkpt lat="43.63184" lon="6.64044">
        <ele>449.4</ele>
        <time>2023-11-26T14:02:27Z</time>
      </trkpt>
      <trkpt lat="43.63185" lon="6.64045">
        <ele>449.4</ele>
        <time>2023-11-26T14:02:28Z</time>
      </trkpt>
      <trkpt lat="43.63185" lon="6.64047">
        <ele>449.3</ele>
        <time>2023-11-26T14:02:29Z</time>
      </trkpt>
      <trkpt lat="43.63187" lon="6.64048">
        <ele>449.3</ele>
        <time>2023-11-26T14:02:30Z</time>
      </trkpt>
      <trkpt lat="43.63187" lon="6.6405">
        <ele>449.4</ele>
        <time>2023-11-26T14:02:31Z</time>
      </trkpt>
      <trkpt lat="43.63188" lon="6.64051">
        <ele>449.3</ele>
        <time>2023-11-26T14:02:32Z</time>
      </trkpt>
      <trkpt lat="43.63189" lon="6.64053">
        <ele>449.3</ele>
        <time>2023-11-26T14:02:33Z</time>
      </trkpt>
      <trkpt lat="43.6319" lon="6.64054">
        <ele>449.2</ele>
        <time>2023-11-26T14:02:34Z</time>
      </trkpt>
      <trkpt lat="43.63191" lon="6.64056">
        <ele>449.1</ele>
        <time>2023-11-26T14:02:35Z</time>
      </trkpt>
      <trkpt lat="43.63191" lon="6.64057">
        <ele>448.9</ele>
        <time>2023-11-26T14:02:36Z</time>
      </trkpt>
      <trkpt lat="43.63192" lon="6.64058">
        <ele>448.8</ele>
        <time>2023-11-26T14:02:37Z</time>
      </trkpt>
      <trkpt lat="43.63193" lon="6.6406">
        <ele>448.7</ele>
        <time>2023-11-26T14:02:38Z</time>
      </trkpt>
      <trkpt lat="43.63194" lon="6.64062">
        <ele>448.7</ele>
        <time>2023-11-26T14:02:39Z</time>
      </trkpt>
      <trkpt lat="43.63194" lon="6.64064">
        <ele>448.6</ele>
        <time>2023-11-26T14:02:40Z</time>
      </trkpt>
      <trkpt lat="43.63195" lon="6.64065">
        <ele>448.5</ele>
        <time>2023-11-26T14:02:41Z</time>
      </trkpt>
      <trkpt lat="43.63196" lon="6.64067">
        <ele>448.4</ele>
        <time>2023-11-26T14:02:42Z</time>
      </trkpt>
      <trkpt lat="43.63196" lon="6.64069">
        <ele>448.3</ele>
        <time>2023-11-26T14:02:43Z</time>
      </trkpt>
      <trkpt lat="43.63197" lon="6.6407">
        <ele>448.2</ele>
        <time>2023-11-26T14:02:44Z</time>
      </trkpt>
      <trkpt lat="43.63197" lon="6.64071">
        <ele>448</ele>
        <time>2023-11-26T14:02:45Z</time>
      </trkpt>
      <trkpt lat="43.63197" lon="6.64072">
        <ele>447.8</ele>
        <time>2023-11-26T14:02:46Z</time>
      </trkpt>
      <trkpt lat="43.63196" lon="6.64073">
        <ele>447.7</ele>
        <time>2023-11-26T14:02:47Z</time>
      </trkpt>
      <trkpt lat="43.63195" lon="6.64075">
        <ele>447.5</ele>
        <time>2023-11-26T14:02:48Z</time>
      </trkpt>
      <trkpt lat="43.63194" lon="6.64076">
        <ele>447.3</ele>
        <time>2023-11-26T14:02:49Z</time>
      </trkpt>
      <trkpt lat="43.63193" lon="6.64077">
        <ele>447.1</ele>
        <time>2023-11-26T14:02:50Z</time>
      </trkpt>
      <trkpt lat="43.63192" lon="6.64078">
        <ele>446.8</ele>
        <time>2023-11-26T14:02:51Z</time>
      </trkpt>
      <trkpt lat="43.63191" lon="6.64079">
        <ele>446.6</ele>
        <time>2023-11-26T14:02:52Z</time>
      </trkpt>
      <trkpt lat="43.6319" lon="6.64079">
        <ele>446.5</ele>
        <time>2023-11-26T14:02:53Z</time>
      </trkpt>
      <trkpt lat="43.63189" lon="6.6408">
        <ele>446.3</ele>
        <time>2023-11-26T14:02:54Z</time>
      </trkpt>
      <trkpt lat="43.63188" lon="6.6408">
        <ele>446.2</ele>
        <time>2023-11-26T14:02:55Z</time>
      </trkpt>
      <trkpt lat="43.63187" lon="6.6408">
        <ele>446.1</ele>
        <time>2023-11-26T14:02:56Z</time>
      </trkpt>
      <trkpt lat="43.63186" lon="6.64081">
        <ele>446</ele>
        <time>2023-11-26T14:02:57Z</time>
      </trkpt>
      <trkpt lat="43.63185" lon="6.64082">
        <ele>445.9</ele>
        <time>2023-11-26T14:02:58Z</time>
      </trkpt>
      <trkpt lat="43.63184" lon="6.64083">
        <ele>445.5</ele>
        <time>2023-11-26T14:02:59Z</time>
      </trkpt>
      <trkpt lat="43.63183" lon="6.64084">
        <ele>445.3</ele>
        <time>2023-11-26T14:03:00Z</time>
      </trkpt>
      <trkpt lat="43.63182" lon="6.64084">
        <ele>445</ele>
        <time>2023-11-26T14:03:01Z</time>
      </trkpt>
      <trkpt lat="43.63181" lon="6.64085">
        <ele>444.9</ele>
        <time>2023-11-26T14:03:02Z</time>
      </trkpt>
      <trkpt lat="43.6318" lon="6.64087">
        <ele>444.7</ele>
        <time>2023-11-26T14:03:03Z</time>
      </trkpt>
      <trkpt lat="43.63179" lon="6.64088">
        <ele>444.5</ele>
        <time>2023-11-26T14:03:04Z</time>
      </trkpt>
      <trkpt lat="43.63179" lon="6.64089">
        <ele>444.3</ele>
        <time>2023-11-26T14:03:05Z</time>
      </trkpt>
      <trkpt lat="43.63179" lon="6.64091">
        <ele>444.1</ele>
        <time>2023-11-26T14:03:06Z</time>
      </trkpt>
      <trkpt lat="43.63178" lon="6.64093">
        <ele>444</ele>
        <time>2023-11-26T14:03:07Z</time>
      </trkpt>
      <trkpt lat="43.63178" lon="6.64094">
        <ele>443.8</ele>
        <time>2023-11-26T14:03:08Z</time>
      </trkpt>
      <trkpt lat="43.63178" lon="6.64096">
        <ele>443.6</ele>
        <time>2023-11-26T14:03:09Z</time>
      </trkpt>
      <trkpt lat="43.63179" lon="6.64098">
        <ele>443.4</ele>
        <time>2023-11-26T14:03:10Z</time>
      </trkpt>
      <trkpt lat="43.63179" lon="6.641">
        <ele>443.3</ele>
        <time>2023-11-26T14:03:11Z</time>
      </trkpt>
      <trkpt lat="43.6318" lon="6.64101">
        <ele>443.1</ele>
        <time>2023-11-26T14:03:12Z</time>
      </trkpt>
      <trkpt lat="43.63181" lon="6.64103">
        <ele>443</ele>
        <time>2023-11-26T14:03:13Z</time>
      </trkpt>
      <trkpt lat="43.63182" lon="6.64104">
        <ele>442.8</ele>
        <time>2023-11-26T14:03:14Z</time>
      </trkpt>
      <trkpt lat="43.63182" lon="6.64105">
        <ele>442.6</ele>
        <time>2023-11-26T14:03:15Z</time>
      </trkpt>
      <trkpt lat="43.63183" lon="6.64107">
        <ele>442.5</ele>
        <time>2023-11-26T14:03:16Z</time>
      </trkpt>
      <trkpt lat="43.63183" lon="6.64108">
        <ele>442.3</ele>
        <time>2023-11-26T14:03:17Z</time>
      </trkpt>
      <trkpt lat="43.63185" lon="6.64109">
        <ele>442</ele>
        <time>2023-11-26T14:03:18Z</time>
      </trkpt>
      <trkpt lat="43.63185" lon="6.64111">
        <ele>441.9</ele>
        <time>2023-11-26T14:03:19Z</time>
      </trkpt>
      <trkpt lat="43.63186" lon="6.64113">
        <ele>441.6</ele>
        <time>2023-11-26T14:03:20Z</time>
      </trkpt>
      <trkpt lat="43.63186" lon="6.64114">
        <ele>441.5</ele>
        <time>2023-11-26T14:03:21Z</time>
      </trkpt>
      <trkpt lat="43.63187" lon="6.64115">
        <ele>441.3</ele>
        <time>2023-11-26T14:03:22Z</time>
      </trkpt>
      <trkpt lat="43.63188" lon="6.64116">
        <ele>441.1</ele>
        <time>2023-11-26T14:03:23Z</time>
      </trkpt>
      <trkpt lat="43.63188" lon="6.64118">
        <ele>440.9</ele>
        <time>2023-11-26T14:03:24Z</time>
      </trkpt>
      <trkpt lat="43.63189" lon="6.64119">
        <ele>440.7</ele>
        <time>2023-11-26T14:03:25Z</time>
      </trkpt>
      <trkpt lat="43.6319" lon="6.6412">
        <ele>440.5</ele>
        <time>2023-11-26T14:03:26Z</time>
      </trkpt>
      <trkpt lat="43.63191" lon="6.64121">
        <ele>440.3</ele>
        <time>2023-11-26T14:03:27Z</time>
      </trkpt>
      <trkpt lat="43.63192" lon="6.64123">
        <ele>440.1</ele>
        <time>2023-11-26T14:03:28Z</time>
      </trkpt>
      <trkpt lat="43.63193" lon="6.64124">
        <ele>440</ele>
        <time>2023-11-26T14:03:29Z</time>
      </trkpt>
      <trkpt lat="43.63193" lon="6.64125">
        <ele>439.7</ele>
        <time>2023-11-26T14:03:30Z</time>
      </trkpt>
      <trkpt lat="43.63194" lon="6.64127">
        <ele>439.6</ele>
        <time>2023-11-26T14:03:31Z</time>
      </trkpt>
      <trkpt lat="43.63195" lon="6.64128">
        <ele>439.4</ele>
        <time>2023-11-26T14:03:32Z</time>
      </trkpt>
      <trkpt lat="43.63196" lon="6.64129">
        <ele>439.3</ele>
        <time>2023-11-26T14:03:33Z</time>
      </trkpt>
      <trkpt lat="43.63197" lon="6.64129">
        <ele>439</ele>
        <time>2023-11-26T14:03:34Z</time>
      </trkpt>
      <trkpt lat="43.63197" lon="6.6413">
        <ele>439</ele>
        <time>2023-11-26T14:03:35Z</time>
      </trkpt>
      <trkpt lat="43.63198" lon="6.64131">
        <ele>438.8</ele>
        <time>2023-11-26T14:03:36Z</time>
      </trkpt>
      <trkpt lat="43.63199" lon="6.64132">
        <ele>438.6</ele>
        <time>2023-11-26T14:03:37Z</time>
      </trkpt>
      <trkpt lat="43.632" lon="6.64132">
        <ele>438.4</ele>
        <time>2023-11-26T14:03:38Z</time>
      </trkpt>
      <trkpt lat="43.63201" lon="6.64133">
        <ele>438.3</ele>
        <time>2023-11-26T14:03:39Z</time>
      </trkpt>
      <trkpt lat="43.63201" lon="6.64134">
        <ele>438.1</ele>
        <time>2023-11-26T14:03:40Z</time>
      </trkpt>
      <trkpt lat="43.63202" lon="6.64136">
        <ele>438</ele>
        <time>2023-11-26T14:03:41Z</time>
      </trkpt>
      <trkpt lat="43.63202" lon="6.64137">
        <ele>437.9</ele>
        <time>2023-11-26T14:03:42Z</time>
      </trkpt>
      <trkpt lat="43.63202" lon="6.64138">
        <ele>437.8</ele>
        <time>2023-11-26T14:03:43Z</time>
      </trkpt>
      <trkpt lat="43.63202" lon="6.6414">
        <ele>437.7</ele>
        <time>2023-11-26T14:03:44Z</time>
      </trkpt>
      <trkpt lat="43.63202" lon="6.6414">
        <ele>437.5</ele>
        <time>2023-11-26T14:03:45Z</time>
      </trkpt>
      <trkpt lat="43.63202" lon="6.6414">
        <ele>437.4</ele>
        <time>2023-11-26T14:03:46Z</time>
      </trkpt>
      <trkpt lat="43.63202" lon="6.6414">
        <ele>437.3</ele>
        <time>2023-11-26T14:03:47Z</time>
      </trkpt>
      <trkpt lat="43.63202" lon="6.6414">
        <ele>437.2</ele>
        <time>2023-11-26T14:03:48Z</time>
      </trkpt>
      <trkpt lat="43.63202" lon="6.6414">
        <ele>437.1</ele>
        <time>2023-11-26T14:03:49Z</time>
      </trkpt>
      <trkpt lat="43.63202" lon="6.6414">
        <ele>437</ele>
        <time>2023-11-26T14:03:50Z</time>
      </trkpt>
      <trkpt lat="43.63202" lon="6.6414">
        <ele>437</ele>
        <time>2023-11-26T14:03:51Z</time>
      </trkpt>
      <trkpt lat="43.63202" lon="6.6414">
        <ele>437</ele>
        <time>2023-11-26T14:03:52Z</time>
      </trkpt>
      <trkpt lat="43.63202" lon="6.6414">
        <ele>436.9</ele>
        <time>2023-11-26T14:03:53Z</time>
      </trkpt>
      <trkpt lat="43.63202" lon="6.6414">
        <ele>436.9</ele>
        <time>2023-11-26T14:03:54Z</time>
      </trkpt>
      <trkpt lat="43.63202" lon="6.6414">
        <ele>436.8</ele>
        <time>2023-11-26T14:03:55Z</time>
      </trkpt>
      <trkpt lat="43.63202" lon="6.6414">
        <ele>436.8</ele>
        <time>2023-11-26T14:03:56Z</time>
      </trkpt>
      <trkpt lat="43.63202" lon="6.64141">
        <ele>436.8</ele>
        <time>2023-11-26T14:03:57Z</time>
      </trkpt>
      <trkpt lat="43.63203" lon="6.64141">
        <ele>436.9</ele>
        <time>2023-11-26T14:03:58Z</time>
      </trkpt>
      <trkpt lat="43.63204" lon="6.64142">
        <ele>436.9</ele>
        <time>2023-11-26T14:03:59Z</time>
      </trkpt>
      <trkpt lat="43.63205" lon="6.64142">
        <ele>436.9</ele>
        <time>2023-11-26T14:04:00Z</time>
      </trkpt>
      <trkpt lat="43.63206" lon="6.64143">
        <ele>436.9</ele>
        <time>2023-11-26T14:04:01Z</time>
      </trkpt>
      <trkpt lat="43.63207" lon="6.64144">
        <ele>436.9</ele>
        <time>2023-11-26T14:04:02Z</time>
      </trkpt>
      <trkpt lat="43.63208" lon="6.64145">
        <ele>436.9</ele>
        <time>2023-11-26T14:04:03Z</time>
      </trkpt>
      <trkpt lat="43.63209" lon="6.64146">
        <ele>436.9</ele>
        <time>2023-11-26T14:04:04Z</time>
      </trkpt>
      <trkpt lat="43.6321" lon="6.64147">
        <ele>436.9</ele>
        <time>2023-11-26T14:04:05Z</time>
      </trkpt>
      <trkpt lat="43.63211" lon="6.64147">
        <ele>436.8</ele>
        <time>2023-11-26T14:04:06Z</time>
      </trkpt>
      <trkpt lat="43.63212" lon="6.64148">
        <ele>436.7</ele>
        <time>2023-11-26T14:04:07Z</time>
      </trkpt>
      <trkpt lat="43.63213" lon="6.64149">
        <ele>436.6</ele>
        <time>2023-11-26T14:04:08Z</time>
      </trkpt>
      <trkpt lat="43.63214" lon="6.6415">
        <ele>436.5</ele>
        <time>2023-11-26T14:04:09Z</time>
      </trkpt>
      <trkpt lat="43.63215" lon="6.64151">
        <ele>436.4</ele>
        <time>2023-11-26T14:04:10Z</time>
      </trkpt>
      <trkpt lat="43.63216" lon="6.64152">
        <ele>436.3</ele>
        <time>2023-11-26T14:04:11Z</time>
      </trkpt>
      <trkpt lat="43.63217" lon="6.64153">
        <ele>436.2</ele>
        <time>2023-11-26T14:04:12Z</time>
      </trkpt>
      <trkpt lat="43.63218" lon="6.64154">
        <ele>436.1</ele>
        <time>2023-11-26T14:04:13Z</time>
      </trkpt>
      <trkpt lat="43.63219" lon="6.64155">
        <ele>436</ele>
        <time>2023-11-26T14:04:14Z</time>
      </trkpt>
      <trkpt lat="43.6322" lon="6.64155">
        <ele>435.8</ele>
        <time>2023-11-26T14:04:15Z</time>
      </trkpt>
      <trkpt lat="43.63221" lon="6.64156">
        <ele>435.6</ele>
        <time>2023-11-26T14:04:16Z</time>
      </trkpt>
      <trkpt lat="43.63222" lon="6.64157">
        <ele>435.5</ele>
        <time>2023-11-26T14:04:17Z</time>
      </trkpt>
      <trkpt lat="43.63223" lon="6.64158">
        <ele>435.3</ele>
        <time>2023-11-26T14:04:18Z</time>
      </trkpt>
      <trkpt lat="43.63224" lon="6.64158">
        <ele>435.3</ele>
        <time>2023-11-26T14:04:19Z</time>
      </trkpt>
      <trkpt lat="43.63225" lon="6.64159">
        <ele>435.1</ele>
        <time>2023-11-26T14:04:20Z</time>
      </trkpt>
      <trkpt lat="43.63226" lon="6.6416">
        <ele>434.9</ele>
        <time>2023-11-26T14:04:21Z</time>
      </trkpt>
      <trkpt lat="43.63227" lon="6.6416">
        <ele>434.7</ele>
        <time>2023-11-26T14:04:22Z</time>
      </trkpt>
      <trkpt lat="43.63228" lon="6.64161">
        <ele>434.5</ele>
        <time>2023-11-26T14:04:23Z</time>
      </trkpt>
      <trkpt lat="43.63229" lon="6.64161">
        <ele>434.3</ele>
        <time>2023-11-26T14:04:24Z</time>
      </trkpt>
      <trkpt lat="43.6323" lon="6.64161">
        <ele>434.1</ele>
        <time>2023-11-26T14:04:25Z</time>
      </trkpt>
      <trkpt lat="43.63231" lon="6.64162">
        <ele>433.8</ele>
        <time>2023-11-26T14:04:26Z</time>
      </trkpt>
      <trkpt lat="43.63232" lon="6.64163">
        <ele>433.6</ele>
        <time>2023-11-26T14:04:27Z</time>
      </trkpt>
      <trkpt lat="43.63232" lon="6.64164">
        <ele>433.5</ele>
        <time>2023-11-26T14:04:28Z</time>
      </trkpt>
      <trkpt lat="43.63233" lon="6.64165">
        <ele>433.3</ele>
        <time>2023-11-26T14:04:29Z</time>
      </trkpt>
      <trkpt lat="43.63234" lon="6.64166">
        <ele>433.2</ele>
        <time>2023-11-26T14:04:30Z</time>
      </trkpt>
      <trkpt lat="43.63235" lon="6.64167">
        <ele>433</ele>
        <time>2023-11-26T14:04:31Z</time>
      </trkpt>
      <trkpt lat="43.63236" lon="6.64168">
        <ele>432.8</ele>
        <time>2023-11-26T14:04:32Z</time>
      </trkpt>
      <trkpt lat="43.63238" lon="6.64168">
        <ele>432.6</ele>
        <time>2023-11-26T14:04:33Z</time>
      </trkpt>
      <trkpt lat="43.63239" lon="6.64168">
        <ele>432.4</ele>
        <time>2023-11-26T14:04:34Z</time>
      </trkpt>
      <trkpt lat="43.6324" lon="6.64169">
        <ele>432.3</ele>
        <time>2023-11-26T14:04:35Z</time>
      </trkpt>
      <trkpt lat="43.63241" lon="6.6417">
        <ele>432.1</ele>
        <time>2023-11-26T14:04:36Z</time>
      </trkpt>
      <trkpt lat="43.63242" lon="6.6417">
        <ele>432</ele>
        <time>2023-11-26T14:04:37Z</time>
      </trkpt>
      <trkpt lat="43.63243" lon="6.6417">
        <ele>431.9</ele>
        <time>2023-11-26T14:04:38Z</time>
      </trkpt>
      <trkpt lat="43.63244" lon="6.6417">
        <ele>431.6</ele>
        <time>2023-11-26T14:04:39Z</time>
      </trkpt>
      <trkpt lat="43.63245" lon="6.6417">
        <ele>431.4</ele>
        <time>2023-11-26T14:04:40Z</time>
      </trkpt>
      <trkpt lat="43.63246" lon="6.6417">
        <ele>431.3</ele>
        <time>2023-11-26T14:04:41Z</time>
      </trkpt>
      <trkpt lat="43.63247" lon="6.64171">
        <ele>431.1</ele>
        <time>2023-11-26T14:04:42Z</time>
      </trkpt>
      <trkpt lat="43.63248" lon="6.64172">
        <ele>430.9</ele>
        <time>2023-11-26T14:04:43Z</time>
      </trkpt>
      <trkpt lat="43.63249" lon="6.64172">
        <ele>430.7</ele>
        <time>2023-11-26T14:04:44Z</time>
      </trkpt>
      <trkpt lat="43.6325" lon="6.64172">
        <ele>430.5</ele>
        <time>2023-11-26T14:04:45Z</time>
      </trkpt>
      <trkpt lat="43.63251" lon="6.64173">
        <ele>430.3</ele>
        <time>2023-11-26T14:04:46Z</time>
      </trkpt>
      <trkpt lat="43.63253" lon="6.64173">
        <ele>430.2</ele>
        <time>2023-11-26T14:04:47Z</time>
      </trkpt>
      <trkpt lat="43.63253" lon="6.64173">
        <ele>429.9</ele>
        <time>2023-11-26T14:04:48Z</time>
      </trkpt>
      <trkpt lat="43.63254" lon="6.64173">
        <ele>429.7</ele>
        <time>2023-11-26T14:04:49Z</time>
      </trkpt>
      <trkpt lat="43.63256" lon="6.64173">
        <ele>429.5</ele>
        <time>2023-11-26T14:04:50Z</time>
      </trkpt>
      <trkpt lat="43.63257" lon="6.64174">
        <ele>429.3</ele>
        <time>2023-11-26T14:04:51Z</time>
      </trkpt>
      <trkpt lat="43.63258" lon="6.64174">
        <ele>429</ele>
        <time>2023-11-26T14:04:52Z</time>
      </trkpt>
      <trkpt lat="43.63259" lon="6.64175">
        <ele>428.8</ele>
        <time>2023-11-26T14:04:53Z</time>
      </trkpt>
      <trkpt lat="43.6326" lon="6.64175">
        <ele>428.6</ele>
        <time>2023-11-26T14:04:54Z</time>
      </trkpt>
      <trkpt lat="43.63261" lon="6.64176">
        <ele>428.5</ele>
        <time>2023-11-26T14:04:55Z</time>
      </trkpt>
      <trkpt lat="43.63262" lon="6.64177">
        <ele>428.3</ele>
        <time>2023-11-26T14:04:56Z</time>
      </trkpt>
      <trkpt lat="43.63263" lon="6.64177">
        <ele>428.1</ele>
        <time>2023-11-26T14:04:57Z</time>
      </trkpt>
      <trkpt lat="43.63264" lon="6.64177">
        <ele>427.9</ele>
        <time>2023-11-26T14:04:58Z</time>
      </trkpt>
      <trkpt lat="43.63265" lon="6.64178">
        <ele>427.7</ele>
        <time>2023-11-26T14:04:59Z</time>
      </trkpt>
      <trkpt lat="43.63266" lon="6.64178">
        <ele>427.5</ele>
        <time>2023-11-26T14:05:00Z</time>
      </trkpt>
      <trkpt lat="43.63268" lon="6.64179">
        <ele>427.4</ele>
        <time>2023-11-26T14:05:01Z</time>
      </trkpt>
      <trkpt lat="43.63269" lon="6.64178">
        <ele>427.2</ele>
        <time>2023-11-26T14:05:02Z</time>
      </trkpt>
      <trkpt lat="43.6327" lon="6.64178">
        <ele>427</ele>
        <time>2023-11-26T14:05:03Z</time>
      </trkpt>
      <trkpt lat="43.63271" lon="6.64179">
        <ele>426.9</ele>
        <time>2023-11-26T14:05:04Z</time>
      </trkpt>
      <trkpt lat="43.63273" lon="6.64179">
        <ele>426.8</ele>
        <time>2023-11-26T14:05:05Z</time>
      </trkpt>
      <trkpt lat="43.63274" lon="6.64179">
        <ele>426.6</ele>
        <time>2023-11-26T14:05:06Z</time>
      </trkpt>
      <trkpt lat="43.63275" lon="6.64179">
        <ele>426.5</ele>
        <time>2023-11-26T14:05:07Z</time>
      </trkpt>
      <trkpt lat="43.63276" lon="6.6418">
        <ele>426.4</ele>
        <time>2023-11-26T14:05:08Z</time>
      </trkpt>
      <trkpt lat="43.63277" lon="6.6418">
        <ele>426.3</ele>
        <time>2023-11-26T14:05:09Z</time>
      </trkpt>
      <trkpt lat="43.63278" lon="6.6418">
        <ele>426.2</ele>
        <time>2023-11-26T14:05:10Z</time>
      </trkpt>
      <trkpt lat="43.63279" lon="6.6418">
        <ele>426.1</ele>
        <time>2023-11-26T14:05:11Z</time>
      </trkpt>
      <trkpt lat="43.6328" lon="6.6418">
        <ele>425.8</ele>
        <time>2023-11-26T14:05:12Z</time>
      </trkpt>
      <trkpt lat="43.63281" lon="6.6418">
        <ele>425.6</ele>
        <time>2023-11-26T14:05:13Z</time>
      </trkpt>
      <trkpt lat="43.63282" lon="6.64181">
        <ele>425.4</ele>
        <time>2023-11-26T14:05:14Z</time>
      </trkpt>
      <trkpt lat="43.63282" lon="6.64181">
        <ele>425.2</ele>
        <time>2023-11-26T14:05:15Z</time>
      </trkpt>
      <trkpt lat="43.63283" lon="6.64181">
        <ele>425</ele>
        <time>2023-11-26T14:05:16Z</time>
      </trkpt>
      <trkpt lat="43.63284" lon="6.64181">
        <ele>424.9</ele>
        <time>2023-11-26T14:05:17Z</time>
      </trkpt>
      <trkpt lat="43.63285" lon="6.64182">
        <ele>424.8</ele>
        <time>2023-11-26T14:05:18Z</time>
      </trkpt>
      <trkpt lat="43.63286" lon="6.64182">
        <ele>424.6</ele>
        <time>2023-11-26T14:05:19Z</time>
      </trkpt>
      <trkpt lat="43.63286" lon="6.64182">
        <ele>424.6</ele>
        <time>2023-11-26T14:05:20Z</time>
      </trkpt>
      <trkpt lat="43.63287" lon="6.64182">
        <ele>424.5</ele>
        <time>2023-11-26T14:05:21Z</time>
      </trkpt>
      <trkpt lat="43.63288" lon="6.64182">
        <ele>424.4</ele>
        <time>2023-11-26T14:05:22Z</time>
      </trkpt>
      <trkpt lat="43.63289" lon="6.64182">
        <ele>424.2</ele>
        <time>2023-11-26T14:05:23Z</time>
      </trkpt>
      <trkpt lat="43.63289" lon="6.64182">
        <ele>424</ele>
        <time>2023-11-26T14:05:24Z</time>
      </trkpt>
      <trkpt lat="43.6329" lon="6.64182">
        <ele>424</ele>
        <time>2023-11-26T14:05:25Z</time>
      </trkpt>
      <trkpt lat="43.63291" lon="6.64182">
        <ele>423.9</ele>
        <time>2023-11-26T14:05:26Z</time>
      </trkpt>
      <trkpt lat="43.63291" lon="6.64182">
        <ele>423.9</ele>
        <time>2023-11-26T14:05:27Z</time>
      </trkpt>
      <trkpt lat="43.63292" lon="6.64182">
        <ele>423.9</ele>
        <time>2023-11-26T14:05:28Z</time>
      </trkpt>
      <trkpt lat="43.63293" lon="6.64182">
        <ele>423.8</ele>
        <time>2023-11-26T14:05:29Z</time>
      </trkpt>
      <trkpt lat="43.63294" lon="6.64182">
        <ele>423.7</ele>
        <time>2023-11-26T14:05:30Z</time>
      </trkpt>
      <trkpt lat="43.63295" lon="6.64182">
        <ele>423.6</ele>
        <time>2023-11-26T14:05:31Z</time>
      </trkpt>
      <trkpt lat="43.63296" lon="6.64182">
        <ele>423.5</ele>
        <time>2023-11-26T14:05:32Z</time>
      </trkpt>
      <trkpt lat="43.63296" lon="6.64182">
        <ele>423.5</ele>
        <time>2023-11-26T14:05:33Z</time>
      </trkpt>
      <trkpt lat="43.63297" lon="6.64183">
        <ele>423.4</ele>
        <time>2023-11-26T14:05:34Z</time>
      </trkpt>
      <trkpt lat="43.63298" lon="6.64183">
        <ele>423.2</ele>
        <time>2023-11-26T14:05:35Z</time>
      </trkpt>
      <trkpt lat="43.63299" lon="6.64182">
        <ele>423</ele>
        <time>2023-11-26T14:05:36Z</time>
      </trkpt>
      <trkpt lat="43.633" lon="6.64182">
        <ele>422.9</ele>
        <time>2023-11-26T14:05:37Z</time>
      </trkpt>
      <trkpt lat="43.63301" lon="6.64182">
        <ele>422.9</ele>
        <time>2023-11-26T14:05:38Z</time>
      </trkpt>
      <trkpt lat="43.63302" lon="6.64181">
        <ele>422.8</ele>
        <time>2023-11-26T14:05:39Z</time>
      </trkpt>
      <trkpt lat="43.63303" lon="6.6418">
        <ele>422.7</ele>
        <time>2023-11-26T14:05:40Z</time>
      </trkpt>
      <trkpt lat="43.63304" lon="6.6418">
        <ele>422.5</ele>
        <time>2023-11-26T14:05:41Z</time>
      </trkpt>
      <trkpt lat="43.63305" lon="6.6418">
        <ele>422.3</ele>
        <time>2023-11-26T14:05:42Z</time>
      </trkpt>
      <trkpt lat="43.63306" lon="6.64179">
        <ele>422.2</ele>
        <time>2023-11-26T14:05:43Z</time>
      </trkpt>
      <trkpt lat="43.63308" lon="6.64179">
        <ele>422</ele>
        <time>2023-11-26T14:05:44Z</time>
      </trkpt>
      <trkpt lat="43.63309" lon="6.64179">
        <ele>421.8</ele>
        <time>2023-11-26T14:05:45Z</time>
      </trkpt>
      <trkpt lat="43.63309" lon="6.64178">
        <ele>421.6</ele>
        <time>2023-11-26T14:05:46Z</time>
      </trkpt>
      <trkpt lat="43.6331" lon="6.64178">
        <ele>421.4</ele>
        <time>2023-11-26T14:05:47Z</time>
      </trkpt>
      <trkpt lat="43.6331" lon="6.64178">
        <ele>421.2</ele>
        <time>2023-11-26T14:05:48Z</time>
      </trkpt>
      <trkpt lat="43.6331" lon="6.64178">
        <ele>421.1</ele>
        <time>2023-11-26T14:05:49Z</time>
      </trkpt>
      <trkpt lat="43.63311" lon="6.64177">
        <ele>421</ele>
        <time>2023-11-26T14:05:50Z</time>
      </trkpt>
      <trkpt lat="43.63312" lon="6.64177">
        <ele>420.8</ele>
        <time>2023-11-26T14:05:51Z</time>
      </trkpt>
      <trkpt lat="43.63312" lon="6.64176">
        <ele>420.7</ele>
        <time>2023-11-26T14:05:52Z</time>
      </trkpt>
      <trkpt lat="43.63313" lon="6.64176">
        <ele>420.5</ele>
        <time>2023-11-26T14:05:53Z</time>
      </trkpt>
      <trkpt lat="43.63314" lon="6.64175">
        <ele>420.3</ele>
        <time>2023-11-26T14:05:54Z</time>
      </trkpt>
      <trkpt lat="43.63315" lon="6.64174">
        <ele>420.1</ele>
        <time>2023-11-26T14:05:55Z</time>
      </trkpt>
      <trkpt lat="43.63316" lon="6.64173">
        <ele>419.9</ele>
        <time>2023-11-26T14:05:56Z</time>
      </trkpt>
      <trkpt lat="43.63316" lon="6.64173">
        <ele>419.8</ele>
        <time>2023-11-26T14:05:57Z</time>
      </trkpt>
      <trkpt lat="43.63318" lon="6.64173">
        <ele>419.6</ele>
        <time>2023-11-26T14:05:58Z</time>
      </trkpt>
      <trkpt lat="43.63319" lon="6.64172">
        <ele>419.4</ele>
        <time>2023-11-26T14:05:59Z</time>
      </trkpt>
      <trkpt lat="43.63319" lon="6.64171">
        <ele>419.1</ele>
        <time>2023-11-26T14:06:00Z</time>
      </trkpt>
      <trkpt lat="43.6332" lon="6.64171">
        <ele>418.9</ele>
        <time>2023-11-26T14:06:01Z</time>
      </trkpt>
      <trkpt lat="43.6332" lon="6.64171">
        <ele>418.8</ele>
        <time>2023-11-26T14:06:02Z</time>
      </trkpt>
      <trkpt lat="43.63321" lon="6.6417">
        <ele>418.7</ele>
        <time>2023-11-26T14:06:03Z</time>
      </trkpt>
      <trkpt lat="43.63322" lon="6.64169">
        <ele>418.6</ele>
        <time>2023-11-26T14:06:04Z</time>
      </trkpt>
      <trkpt lat="43.63323" lon="6.64168">
        <ele>418.4</ele>
        <time>2023-11-26T14:06:05Z</time>
      </trkpt>
      <trkpt lat="43.63324" lon="6.64167">
        <ele>418.3</ele>
        <time>2023-11-26T14:06:06Z</time>
      </trkpt>
      <trkpt lat="43.63324" lon="6.64167">
        <ele>418.2</ele>
        <time>2023-11-26T14:06:07Z</time>
      </trkpt>
      <trkpt lat="43.63325" lon="6.64166">
        <ele>418</ele>
        <time>2023-11-26T14:06:08Z</time>
      </trkpt>
      <trkpt lat="43.63326" lon="6.64166">
        <ele>417.8</ele>
        <time>2023-11-26T14:06:09Z</time>
      </trkpt>
      <trkpt lat="43.63327" lon="6.64165">
        <ele>417.6</ele>
        <time>2023-11-26T14:06:10Z</time>
      </trkpt>
      <trkpt lat="43.63328" lon="6.64165">
        <ele>417.4</ele>
        <time>2023-11-26T14:06:11Z</time>
      </trkpt>
      <trkpt lat="43.63329" lon="6.64165">
        <ele>417.2</ele>
        <time>2023-11-26T14:06:12Z</time>
      </trkpt>
      <trkpt lat="43.6333" lon="6.64165">
        <ele>417.1</ele>
        <time>2023-11-26T14:06:13Z</time>
      </trkpt>
      <trkpt lat="43.63332" lon="6.64166">
        <ele>417</ele>
        <time>2023-11-26T14:06:14Z</time>
      </trkpt>
      <trkpt lat="43.63333" lon="6.64166">
        <ele>416.9</ele>
        <time>2023-11-26T14:06:15Z</time>
      </trkpt>
      <trkpt lat="43.63333" lon="6.64167">
        <ele>416.8</ele>
        <time>2023-11-26T14:06:16Z</time>
      </trkpt>
      <trkpt lat="43.63333" lon="6.64168">
        <ele>416.7</ele>
        <time>2023-11-26T14:06:17Z</time>
      </trkpt>
      <trkpt lat="43.63333" lon="6.64169">
        <ele>416.6</ele>
        <time>2023-11-26T14:06:18Z</time>
      </trkpt>
      <trkpt lat="43.63334" lon="6.6417">
        <ele>416.5</ele>
        <time>2023-11-26T14:06:19Z</time>
      </trkpt>
      <trkpt lat="43.63334" lon="6.64171">
        <ele>416.4</ele>
        <time>2023-11-26T14:06:20Z</time>
      </trkpt>
      <trkpt lat="43.63334" lon="6.64173">
        <ele>416.3</ele>
        <time>2023-11-26T14:06:21Z</time>
      </trkpt>
      <trkpt lat="43.63333" lon="6.64174">
        <ele>416.2</ele>
        <time>2023-11-26T14:06:22Z</time>
      </trkpt>
      <trkpt lat="43.63333" lon="6.64176">
        <ele>416.1</ele>
        <time>2023-11-26T14:06:23Z</time>
      </trkpt>
      <trkpt lat="43.63333" lon="6.64177">
        <ele>416</ele>
        <time>2023-11-26T14:06:24Z</time>
      </trkpt>
      <trkpt lat="43.63333" lon="6.64178">
        <ele>415.8</ele>
        <time>2023-11-26T14:06:25Z</time>
      </trkpt>
      <trkpt lat="43.63334" lon="6.6418">
        <ele>415.7</ele>
        <time>2023-11-26T14:06:26Z</time>
      </trkpt>
      <trkpt lat="43.63334" lon="6.64181">
        <ele>415.5</ele>
        <time>2023-11-26T14:06:27Z</time>
      </trkpt>
      <trkpt lat="43.63334" lon="6.64182">
        <ele>415.4</ele>
        <time>2023-11-26T14:06:28Z</time>
      </trkpt>
      <trkpt lat="43.63334" lon="6.64184">
        <ele>415.2</ele>
        <time>2023-11-26T14:06:29Z</time>
      </trkpt>
      <trkpt lat="43.63333" lon="6.64185">
        <ele>415.1</ele>
        <time>2023-11-26T14:06:30Z</time>
      </trkpt>
      <trkpt lat="43.63333" lon="6.64186">
        <ele>415</ele>
        <time>2023-11-26T14:06:31Z</time>
      </trkpt>
      <trkpt lat="43.63333" lon="6.64187">
        <ele>414.8</ele>
        <time>2023-11-26T14:06:32Z</time>
      </trkpt>
      <trkpt lat="43.63332" lon="6.64189">
        <ele>414.6</ele>
        <time>2023-11-26T14:06:33Z</time>
      </trkpt>
      <trkpt lat="43.63332" lon="6.6419">
        <ele>414.5</ele>
        <time>2023-11-26T14:06:34Z</time>
      </trkpt>
      <trkpt lat="43.63332" lon="6.64191">
        <ele>414.3</ele>
        <time>2023-11-26T14:06:35Z</time>
      </trkpt>
      <trkpt lat="43.63333" lon="6.64192">
        <ele>414.3</ele>
        <time>2023-11-26T14:06:36Z</time>
      </trkpt>
      <trkpt lat="43.63334" lon="6.64192">
        <ele>414.3</ele>
        <time>2023-11-26T14:06:37Z</time>
      </trkpt>
      <trkpt lat="43.63334" lon="6.64192">
        <ele>414.2</ele>
        <time>2023-11-26T14:06:38Z</time>
      </trkpt>
      <trkpt lat="43.63335" lon="6.64191">
        <ele>414</ele>
        <time>2023-11-26T14:06:39Z</time>
      </trkpt>
      <trkpt lat="43.63336" lon="6.64189">
        <ele>413.9</ele>
        <time>2023-11-26T14:06:40Z</time>
      </trkpt>
      <trkpt lat="43.63336" lon="6.64188">
        <ele>413.8</ele>
        <time>2023-11-26T14:06:41Z</time>
      </trkpt>
      <trkpt lat="43.63337" lon="6.64187">
        <ele>413.7</ele>
        <time>2023-11-26T14:06:42Z</time>
      </trkpt>
      <trkpt lat="43.63338" lon="6.64185">
        <ele>413.6</ele>
        <time>2023-11-26T14:06:43Z</time>
      </trkpt>
      <trkpt lat="43.63338" lon="6.64184">
        <ele>413.6</ele>
        <time>2023-11-26T14:06:44Z</time>
      </trkpt>
      <trkpt lat="43.63339" lon="6.64182">
        <ele>413.4</ele>
        <time>2023-11-26T14:06:45Z</time>
      </trkpt>
      <trkpt lat="43.63339" lon="6.6418">
        <ele>413.3</ele>
        <time>2023-11-26T14:06:46Z</time>
      </trkpt>
      <trkpt lat="43.63339" lon="6.64179">
        <ele>413.3</ele>
        <time>2023-11-26T14:06:47Z</time>
      </trkpt>
      <trkpt lat="43.6334" lon="6.64177">
        <ele>413.2</ele>
        <time>2023-11-26T14:06:48Z</time>
      </trkpt>
      <trkpt lat="43.6334" lon="6.64175">
        <ele>413.2</ele>
        <time>2023-11-26T14:06:49Z</time>
      </trkpt>
      <trkpt lat="43.6334" lon="6.64174">
        <ele>413.2</ele>
        <time>2023-11-26T14:06:50Z</time>
      </trkpt>
      <trkpt lat="43.63341" lon="6.64172">
        <ele>413.2</ele>
        <time>2023-11-26T14:06:51Z</time>
      </trkpt>
      <trkpt lat="43.63341" lon="6.64171">
        <ele>413.2</ele>
        <time>2023-11-26T14:06:52Z</time>
      </trkpt>
      <trkpt lat="43.63341" lon="6.64169">
        <ele>413.2</ele>
        <time>2023-11-26T14:06:53Z</time>
      </trkpt>
      <trkpt lat="43.63342" lon="6.64168">
        <ele>413.2</ele>
        <time>2023-11-26T14:06:54Z</time>
      </trkpt>
      <trkpt lat="43.63342" lon="6.64167">
        <ele>413.2</ele>
        <time>2023-11-26T14:06:55Z</time>
      </trkpt>
      <trkpt lat="43.63343" lon="6.64165">
        <ele>413.2</ele>
        <time>2023-11-26T14:06:56Z</time>
      </trkpt>
      <trkpt lat="43.63343" lon="6.64164">
        <ele>413.2</ele>
        <time>2023-11-26T14:06:57Z</time>
      </trkpt>
      <trkpt lat="43.63344" lon="6.64163">
        <ele>413.3</ele>
        <time>2023-11-26T14:06:58Z</time>
      </trkpt>
      <trkpt lat="43.63345" lon="6.64161">
        <ele>413.4</ele>
        <time>2023-11-26T14:06:59Z</time>
      </trkpt>
      <trkpt lat="43.63345" lon="6.6416">
        <ele>413.5</ele>
        <time>2023-11-26T14:07:00Z</time>
      </trkpt>
      <trkpt lat="43.63346" lon="6.64159">
        <ele>413.5</ele>
        <time>2023-11-26T14:07:01Z</time>
      </trkpt>
      <trkpt lat="43.63346" lon="6.64158">
        <ele>413.6</ele>
        <time>2023-11-26T14:07:02Z</time>
      </trkpt>
      <trkpt lat="43.63346" lon="6.64158">
        <ele>413.7</ele>
        <time>2023-11-26T14:07:03Z</time>
      </trkpt>
      <trkpt lat="43.63346" lon="6.64158">
        <ele>413.7</ele>
        <time>2023-11-26T14:07:04Z</time>
      </trkpt>
      <trkpt lat="43.63346" lon="6.64158">
        <ele>413.7</ele>
        <time>2023-11-26T14:07:05Z</time>
      </trkpt>
      <trkpt lat="43.63346" lon="6.64158">
        <ele>413.6</ele>
        <time>2023-11-26T14:07:06Z</time>
      </trkpt>
      <trkpt lat="43.63346" lon="6.64158">
        <ele>413.6</ele>
        <time>2023-11-26T14:07:07Z</time>
      </trkpt>
      <trkpt lat="43.63346" lon="6.64158">
        <ele>413.6</ele>
        <time>2023-11-26T14:07:08Z</time>
      </trkpt>
      <trkpt lat="43.63346" lon="6.64158">
        <ele>413.6</ele>
        <time>2023-11-26T14:07:09Z</time>
      </trkpt>
      <trkpt lat="43.63347" lon="6.64158">
        <ele>413.6</ele>
        <time>2023-11-26T14:07:10Z</time>
      </trkpt>
      <trkpt lat="43.63347" lon="6.64158">
        <ele>413.7</ele>
        <time>2023-11-26T14:07:11Z</time>
      </trkpt>
      <trkpt lat="43.63347" lon="6.64158">
        <ele>413.7</ele>
        <time>2023-11-26T14:07:12Z</time>
      </trkpt>
      <trkpt lat="43.63347" lon="6.64157">
        <ele>413.7</ele>
        <time>2023-11-26T14:07:13Z</time>
      </trkpt>
      <trkpt lat="43.63347" lon="6.64155">
        <ele>413.8</ele>
        <time>2023-11-26T14:07:14Z</time>
      </trkpt>
      <trkpt lat="43.63348" lon="6.64154">
        <ele>413.8</ele>
        <time>2023-11-26T14:07:15Z</time>
      </trkpt>
      <trkpt lat="43.63348" lon="6.64152">
        <ele>413.8</ele>
        <time>2023-11-26T14:07:16Z</time>
      </trkpt>
      <trkpt lat="43.63348" lon="6.64151">
        <ele>413.9</ele>
        <time>2023-11-26T14:07:17Z</time>
      </trkpt>
      <trkpt lat="43.63349" lon="6.64149">
        <ele>413.9</ele>
        <time>2023-11-26T14:07:18Z</time>
      </trkpt>
      <trkpt lat="43.63349" lon="6.64148">
        <ele>414</ele>
        <time>2023-11-26T14:07:19Z</time>
      </trkpt>
      <trkpt lat="43.6335" lon="6.64147">
        <ele>414.1</ele>
        <time>2023-11-26T14:07:20Z</time>
      </trkpt>
      <trkpt lat="43.63351" lon="6.64146">
        <ele>414.2</ele>
        <time>2023-11-26T14:07:21Z</time>
      </trkpt>
      <trkpt lat="43.63351" lon="6.64144">
        <ele>414.2</ele>
        <time>2023-11-26T14:07:22Z</time>
      </trkpt>
      <trkpt lat="43.63352" lon="6.64143">
        <ele>414.3</ele>
        <time>2023-11-26T14:07:23Z</time>
      </trkpt>
      <trkpt lat="43.63352" lon="6.64142">
        <ele>414.4</ele>
        <time>2023-11-26T14:07:24Z</time>
      </trkpt>
      <trkpt lat="43.63353" lon="6.64141">
        <ele>414.4</ele>
        <time>2023-11-26T14:07:25Z</time>
      </trkpt>
      <trkpt lat="43.63353" lon="6.64139">
        <ele>414.4</ele>
        <time>2023-11-26T14:07:26Z</time>
      </trkpt>
      <trkpt lat="43.63353" lon="6.64138">
        <ele>414.5</ele>
        <time>2023-11-26T14:07:27Z</time>
      </trkpt>
      <trkpt lat="43.63354" lon="6.64137">
        <ele>414.5</ele>
        <time>2023-11-26T14:07:28Z</time>
      </trkpt>
      <trkpt lat="43.63354" lon="6.64137">
        <ele>414.5</ele>
        <time>2023-11-26T14:07:29Z</time>
      </trkpt>
      <trkpt lat="43.63354" lon="6.64137">
        <ele>414.6</ele>
        <time>2023-11-26T14:07:30Z</time>
      </trkpt>
      <trkpt lat="43.63354" lon="6.64136">
        <ele>414.6</ele>
        <time>2023-11-26T14:07:31Z</time>
      </trkpt>
      <trkpt lat="43.63354" lon="6.64136">
        <ele>414.6</ele>
        <time>2023-11-26T14:07:32Z</time>
      </trkpt>
      <trkpt lat="43.63354" lon="6.64136">
        <ele>414.5</ele>
        <time>2023-11-26T14:07:33Z</time>
      </trkpt>
      <trkpt lat="43.63354" lon="6.64136">
        <ele>414.5</ele>
        <time>2023-11-26T14:07:34Z</time>
      </trkpt>
      <trkpt lat="43.63354" lon="6.64136">
        <ele>414.5</ele>
        <time>2023-11-26T14:07:35Z</time>
      </trkpt>
      <trkpt lat="43.63354" lon="6.64137">
        <ele>414.5</ele>
        <time>2023-11-26T14:07:36Z</time>
      </trkpt>
      <trkpt lat="43.63354" lon="6.64139">
        <ele>414.5</ele>
        <time>2023-11-26T14:07:37Z</time>
      </trkpt>
      <trkpt lat="43.63353" lon="6.64141">
        <ele>414.5</ele>
        <time>2023-11-26T14:07:38Z</time>
      </trkpt>
      <trkpt lat="43.63353" lon="6.64143">
        <ele>414.4</ele>
        <time>2023-11-26T14:07:39Z</time>
      </trkpt>
      <trkpt lat="43.63353" lon="6.64143">
        <ele>414.4</ele>
        <time>2023-11-26T14:07:40Z</time>
      </trkpt>
      <trkpt lat="43.63352" lon="6.64144">
        <ele>414.3</ele>
        <time>2023-11-26T14:07:41Z</time>
      </trkpt>
      <trkpt lat="43.63352" lon="6.64144">
        <ele>414.3</ele>
        <time>2023-11-26T14:07:42Z</time>
      </trkpt>
      <trkpt lat="43.63352" lon="6.64143">
        <ele>414.2</ele>
        <time>2023-11-26T14:07:43Z</time>
      </trkpt>
      <trkpt lat="43.63352" lon="6.64143">
        <ele>414.2</ele>
        <time>2023-11-26T14:07:44Z</time>
      </trkpt>
      <trkpt lat="43.63352" lon="6.64143">
        <ele>414.2</ele>
        <time>2023-11-26T14:07:45Z</time>
      </trkpt>
      <trkpt lat="43.63352" lon="6.64143">
        <ele>414.2</ele>
        <time>2023-11-26T14:07:46Z</time>
      </trkpt>
      <trkpt lat="43.63352" lon="6.64142">
        <ele>414.3</ele>
        <time>2023-11-26T14:07:47Z</time>
      </trkpt>
      <trkpt lat="43.63352" lon="6.64143">
        <ele>414.4</ele>
        <time>2023-11-26T14:07:48Z</time>
      </trkpt>
      <trkpt lat="43.63352" lon="6.64143">
        <ele>414.4</ele>
        <time>2023-11-26T14:07:49Z</time>
      </trkpt>
      <trkpt lat="43.63352" lon="6.64143">
        <ele>414.4</ele>
        <time>2023-11-26T14:07:50Z</time>
      </trkpt>
      <trkpt lat="43.63353" lon="6.64143">
        <ele>414.4</ele>
        <time>2023-11-26T14:07:51Z</time>
      </trkpt>
      <trkpt lat="43.63353" lon="6.64143">
        <ele>414.3</ele>
        <time>2023-11-26T14:07:52Z</time>
      </trkpt>
      <trkpt lat="43.63353" lon="6.64143">
        <ele>414.3</ele>
        <time>2023-11-26T14:07:53Z</time>
      </trkpt>
      <trkpt lat="43.63353" lon="6.64144">
        <ele>414.2</ele>
        <time>2023-11-26T14:07:54Z</time>
      </trkpt>
      <trkpt lat="43.63353" lon="6.64143">
        <ele>414.2</ele>
        <time>2023-11-26T14:07:55Z</time>
      </trkpt>
      <trkpt lat="43.63353" lon="6.64142">
        <ele>414.1</ele>
        <time>2023-11-26T14:07:56Z</time>
      </trkpt>
      <trkpt lat="43.63353" lon="6.64141">
        <ele>414.2</ele>
        <time>2023-11-26T14:07:57Z</time>
      </trkpt>
      <trkpt lat="43.63354" lon="6.64141">
        <ele>414.2</ele>
        <time>2023-11-26T14:07:58Z</time>
      </trkpt>
      <trkpt lat="43.63354" lon="6.64141">
        <ele>414.2</ele>
        <time>2023-11-26T14:07:59Z</time>
      </trkpt>
      <trkpt lat="43.63354" lon="6.64141">
        <ele>414.2</ele>
        <time>2023-11-26T14:08:00Z</time>
      </trkpt>
      <trkpt lat="43.63354" lon="6.6414">
        <ele>414.2</ele>
        <time>2023-11-26T14:08:01Z</time>
      </trkpt>
      <trkpt lat="43.63355" lon="6.64139">
        <ele>414.1</ele>
        <time>2023-11-26T14:08:02Z</time>
      </trkpt>
      <trkpt lat="43.63355" lon="6.64138">
        <ele>414.1</ele>
        <time>2023-11-26T14:08:03Z</time>
      </trkpt>
      <trkpt lat="43.63355" lon="6.64137">
        <ele>414.2</ele>
        <time>2023-11-26T14:08:04Z</time>
      </trkpt>
      <trkpt lat="43.63355" lon="6.64137">
        <ele>414.3</ele>
        <time>2023-11-26T14:08:05Z</time>
      </trkpt>
      <trkpt lat="43.63355" lon="6.64137">
        <ele>414.2</ele>
        <time>2023-11-26T14:08:06Z</time>
      </trkpt>
      <trkpt lat="43.63355" lon="6.64136">
        <ele>414.3</ele>
        <time>2023-11-26T14:08:07Z</time>
      </trkpt>
      <trkpt lat="43.63355" lon="6.64136">
        <ele>414.3</ele>
        <time>2023-11-26T14:08:08Z</time>
      </trkpt>
      <trkpt lat="43.63355" lon="6.64136">
        <ele>414.3</ele>
        <time>2023-11-26T14:08:09Z</time>
      </trkpt>
      <trkpt lat="43.63355" lon="6.64136">
        <ele>414.3</ele>
        <time>2023-11-26T14:08:10Z</time>
      </trkpt>
      <trkpt lat="43.63355" lon="6.64136">
        <ele>414.3</ele>
        <time>2023-11-26T14:08:11Z</time>
      </trkpt>
      <trkpt lat="43.63355" lon="6.64135">
        <ele>414.3</ele>
        <time>2023-11-26T14:08:12Z</time>
      </trkpt>
      <trkpt lat="43.63355" lon="6.64134">
        <ele>414.3</ele>
        <time>2023-11-26T14:08:13Z</time>
      </trkpt>
      <trkpt lat="43.63355" lon="6.64134">
        <ele>414.3</ele>
        <time>2023-11-26T14:08:14Z</time>
      </trkpt>
      <trkpt lat="43.63355" lon="6.64134">
        <ele>414.3</ele>
        <time>2023-11-26T14:08:15Z</time>
      </trkpt>
      <trkpt lat="43.63355" lon="6.64134">
        <ele>414.3</ele>
        <time>2023-11-26T14:08:16Z</time>
      </trkpt>
      <trkpt lat="43.63355" lon="6.64134">
        <ele>414.3</ele>
        <time>2023-11-26T14:08:17Z</time>
      </trkpt>
      <trkpt lat="43.63355" lon="6.64133">
        <ele>414.3</ele>
        <time>2023-11-26T14:08:18Z</time>
      </trkpt>
      <trkpt lat="43.63355" lon="6.64133">
        <ele>414.3</ele>
        <time>2023-11-26T14:08:19Z</time>
      </trkpt>
      <trkpt lat="43.63355" lon="6.64133">
        <ele>414.3</ele>
        <time>2023-11-26T14:08:20Z</time>
      </trkpt>
      <trkpt lat="43.63356" lon="6.64132">
        <ele>414.3</ele>
        <time>2023-11-26T14:08:21Z</time>
      </trkpt>
      <trkpt lat="43.63356" lon="6.64131">
        <ele>414.4</ele>
        <time>2023-11-26T14:08:22Z</time>
      </trkpt>
      <trkpt lat="43.63357" lon="6.6413">
        <ele>414.3</ele>
        <time>2023-11-26T14:08:23Z</time>
      </trkpt>
      <trkpt lat="43.63358" lon="6.64129">
        <ele>414.3</ele>
        <time>2023-11-26T14:08:24Z</time>
      </trkpt>
      <trkpt lat="43.63359" lon="6.64129">
        <ele>414.2</ele>
        <time>2023-11-26T14:08:25Z</time>
      </trkpt>
      <trkpt lat="43.63359" lon="6.64128">
        <ele>414.2</ele>
        <time>2023-11-26T14:08:26Z</time>
      </trkpt>
      <trkpt lat="43.6336" lon="6.64128">
        <ele>414.2</ele>
        <time>2023-11-26T14:08:27Z</time>
      </trkpt>
      <trkpt lat="43.6336" lon="6.64128">
        <ele>414.2</ele>
        <time>2023-11-26T14:08:28Z</time>
      </trkpt>
      <trkpt lat="43.63361" lon="6.64127">
        <ele>414.3</ele>
        <time>2023-11-26T14:08:29Z</time>
      </trkpt>
      <trkpt lat="43.63362" lon="6.64127">
        <ele>414.3</ele>
        <time>2023-11-26T14:08:30Z</time>
      </trkpt>
      <trkpt lat="43.63362" lon="6.64126">
        <ele>414.3</ele>
        <time>2023-11-26T14:08:31Z</time>
      </trkpt>
      <trkpt lat="43.63362" lon="6.64126">
        <ele>414.3</ele>
        <time>2023-11-26T14:08:32Z</time>
      </trkpt>
      <trkpt lat="43.63362" lon="6.64126">
        <ele>414.4</ele>
        <time>2023-11-26T14:08:33Z</time>
      </trkpt>
      <trkpt lat="43.63363" lon="6.64125">
        <ele>414.4</ele>
        <time>2023-11-26T14:08:34Z</time>
      </trkpt>
      <trkpt lat="43.63363" lon="6.64126">
        <ele>414.4</ele>
        <time>2023-11-26T14:08:35Z</time>
      </trkpt>
      <trkpt lat="43.63364" lon="6.64126">
        <ele>414.5</ele>
        <time>2023-11-26T14:08:36Z</time>
      </trkpt>
      <trkpt lat="43.63365" lon="6.64126">
        <ele>414.5</ele>
        <time>2023-11-26T14:08:37Z</time>
      </trkpt>
      <trkpt lat="43.63366" lon="6.64126">
        <ele>414.6</ele>
        <time>2023-11-26T14:08:38Z</time>
      </trkpt>
      <trkpt lat="43.63367" lon="6.64126">
        <ele>414.7</ele>
        <time>2023-11-26T14:08:39Z</time>
      </trkpt>
      <trkpt lat="43.63368" lon="6.64125">
        <ele>414.6</ele>
        <time>2023-11-26T14:08:40Z</time>
      </trkpt>
      <trkpt lat="43.6337" lon="6.64125">
        <ele>414.7</ele>
        <time>2023-11-26T14:08:41Z</time>
      </trkpt>
      <trkpt lat="43.63371" lon="6.64125">
        <ele>414.8</ele>
        <time>2023-11-26T14:08:42Z</time>
      </trkpt>
      <trkpt lat="43.63372" lon="6.64125">
        <ele>414.9</ele>
        <time>2023-11-26T14:08:43Z</time>
      </trkpt>
      <trkpt lat="43.63373" lon="6.64125">
        <ele>415</ele>
        <time>2023-11-26T14:08:44Z</time>
      </trkpt>
      <trkpt lat="43.63374" lon="6.64125">
        <ele>415.1</ele>
        <time>2023-11-26T14:08:45Z</time>
      </trkpt>
      <trkpt lat="43.63375" lon="6.64126">
        <ele>415.2</ele>
        <time>2023-11-26T14:08:46Z</time>
      </trkpt>
      <trkpt lat="43.63376" lon="6.64126">
        <ele>415.3</ele>
        <time>2023-11-26T14:08:47Z</time>
      </trkpt>
      <trkpt lat="43.63377" lon="6.64126">
        <ele>415.4</ele>
        <time>2023-11-26T14:08:48Z</time>
      </trkpt>
      <trkpt lat="43.63379" lon="6.64126">
        <ele>415.5</ele>
        <time>2023-11-26T14:08:49Z</time>
      </trkpt>
      <trkpt lat="43.6338" lon="6.64127">
        <ele>415.6</ele>
        <time>2023-11-26T14:08:50Z</time>
      </trkpt>
      <trkpt lat="43.6338" lon="6.64127">
        <ele>415.8</ele>
        <time>2023-11-26T14:08:51Z</time>
      </trkpt>
      <trkpt lat="43.63381" lon="6.64127">
        <ele>415.8</ele>
        <time>2023-11-26T14:08:52Z</time>
      </trkpt>
      <trkpt lat="43.63382" lon="6.64128">
        <ele>415.9</ele>
        <time>2023-11-26T14:08:53Z</time>
      </trkpt>
      <trkpt lat="43.63384" lon="6.64128">
        <ele>416</ele>
        <time>2023-11-26T14:08:54Z</time>
      </trkpt>
      <trkpt lat="43.63384" lon="6.64128">
        <ele>416.1</ele>
        <time>2023-11-26T14:08:55Z</time>
      </trkpt>
      <trkpt lat="43.63386" lon="6.64129">
        <ele>416.1</ele>
        <time>2023-11-26T14:08:56Z</time>
      </trkpt>
      <trkpt lat="43.63387" lon="6.64129">
        <ele>416.1</ele>
        <time>2023-11-26T14:08:57Z</time>
      </trkpt>
      <trkpt lat="43.63387" lon="6.64129">
        <ele>416.2</ele>
        <time>2023-11-26T14:08:58Z</time>
      </trkpt>
      <trkpt lat="43.63388" lon="6.64129">
        <ele>416.1</ele>
        <time>2023-11-26T14:08:59Z</time>
      </trkpt>
      <trkpt lat="43.63389" lon="6.64129">
        <ele>416.1</ele>
        <time>2023-11-26T14:09:00Z</time>
      </trkpt>
      <trkpt lat="43.6339" lon="6.6413">
        <ele>416.3</ele>
        <time>2023-11-26T14:09:01Z</time>
      </trkpt>
      <trkpt lat="43.63391" lon="6.6413">
        <ele>416.4</ele>
        <time>2023-11-26T14:09:02Z</time>
      </trkpt>
      <trkpt lat="43.63392" lon="6.6413">
        <ele>416.5</ele>
        <time>2023-11-26T14:09:03Z</time>
      </trkpt>
      <trkpt lat="43.63393" lon="6.64131">
        <ele>416.6</ele>
        <time>2023-11-26T14:09:04Z</time>
      </trkpt>
      <trkpt lat="43.63394" lon="6.64131">
        <ele>416.7</ele>
        <time>2023-11-26T14:09:05Z</time>
      </trkpt>
      <trkpt lat="43.63395" lon="6.64132">
        <ele>416.7</ele>
        <time>2023-11-26T14:09:06Z</time>
      </trkpt>
      <trkpt lat="43.63395" lon="6.64132">
        <ele>416.8</ele>
        <time>2023-11-26T14:09:07Z</time>
      </trkpt>
      <trkpt lat="43.63396" lon="6.64133">
        <ele>416.8</ele>
        <time>2023-11-26T14:09:08Z</time>
      </trkpt>
      <trkpt lat="43.63397" lon="6.64133">
        <ele>416.9</ele>
        <time>2023-11-26T14:09:09Z</time>
      </trkpt>
      <trkpt lat="43.63398" lon="6.64134">
        <ele>417</ele>
        <time>2023-11-26T14:09:10Z</time>
      </trkpt>
      <trkpt lat="43.63398" lon="6.64134">
        <ele>417.1</ele>
        <time>2023-11-26T14:09:11Z</time>
      </trkpt>
      <trkpt lat="43.63399" lon="6.64135">
        <ele>417.2</ele>
        <time>2023-11-26T14:09:12Z</time>
      </trkpt>
      <trkpt lat="43.634" lon="6.64135">
        <ele>417.2</ele>
        <time>2023-11-26T14:09:13Z</time>
      </trkpt>
      <trkpt lat="43.63401" lon="6.64136">
        <ele>417.2</ele>
        <time>2023-11-26T14:09:14Z</time>
      </trkpt>
      <trkpt lat="43.63402" lon="6.64136">
        <ele>417.2</ele>
        <time>2023-11-26T14:09:15Z</time>
      </trkpt>
      <trkpt lat="43.63403" lon="6.64136">
        <ele>417.2</ele>
        <time>2023-11-26T14:09:16Z</time>
      </trkpt>
      <trkpt lat="43.63404" lon="6.64137">
        <ele>417.2</ele>
        <time>2023-11-26T14:09:17Z</time>
      </trkpt>
      <trkpt lat="43.63405" lon="6.64138">
        <ele>417.3</ele>
        <time>2023-11-26T14:09:18Z</time>
      </trkpt>
      <trkpt lat="43.63405" lon="6.64139">
        <ele>417.3</ele>
        <time>2023-11-26T14:09:19Z</time>
      </trkpt>
      <trkpt lat="43.63406" lon="6.64139">
        <ele>417.4</ele>
        <time>2023-11-26T14:09:20Z</time>
      </trkpt>
      <trkpt lat="43.63407" lon="6.6414">
        <ele>417.5</ele>
        <time>2023-11-26T14:09:21Z</time>
      </trkpt>
      <trkpt lat="43.63407" lon="6.64142">
        <ele>417.6</ele>
        <time>2023-11-26T14:09:22Z</time>
      </trkpt>
      <trkpt lat="43.63408" lon="6.64143">
        <ele>417.7</ele>
        <time>2023-11-26T14:09:23Z</time>
      </trkpt>
      <trkpt lat="43.63408" lon="6.64144">
        <ele>417.8</ele>
        <time>2023-11-26T14:09:24Z</time>
      </trkpt>
      <trkpt lat="43.63408" lon="6.64147">
        <ele>417.8</ele>
        <time>2023-11-26T14:09:25Z</time>
      </trkpt>
      <trkpt lat="43.63408" lon="6.64148">
        <ele>417.8</ele>
        <time>2023-11-26T14:09:26Z</time>
      </trkpt>
      <trkpt lat="43.63408" lon="6.6415">
        <ele>417.8</ele>
        <time>2023-11-26T14:09:27Z</time>
      </trkpt>
      <trkpt lat="43.63409" lon="6.64151">
        <ele>417.9</ele>
        <time>2023-11-26T14:09:28Z</time>
      </trkpt>
      <trkpt lat="43.6341" lon="6.64151">
        <ele>418</ele>
        <time>2023-11-26T14:09:29Z</time>
      </trkpt>
      <trkpt lat="43.6341" lon="6.64151">
        <ele>418</ele>
        <time>2023-11-26T14:09:30Z</time>
      </trkpt>
      <trkpt lat="43.63411" lon="6.64151">
        <ele>418</ele>
        <time>2023-11-26T14:09:31Z</time>
      </trkpt>
      <trkpt lat="43.63411" lon="6.64152">
        <ele>418</ele>
        <time>2023-11-26T14:09:32Z</time>
      </trkpt>
      <trkpt lat="43.63412" lon="6.64153">
        <ele>418</ele>
        <time>2023-11-26T14:09:33Z</time>
      </trkpt>
      <trkpt lat="43.63412" lon="6.64154">
        <ele>418</ele>
        <time>2023-11-26T14:09:34Z</time>
      </trkpt>
      <trkpt lat="43.63412" lon="6.64154">
        <ele>418.1</ele>
        <time>2023-11-26T14:09:35Z</time>
      </trkpt>
      <trkpt lat="43.63413" lon="6.64154">
        <ele>418.2</ele>
        <time>2023-11-26T14:09:36Z</time>
      </trkpt>
      <trkpt lat="43.63414" lon="6.64155">
        <ele>418.4</ele>
        <time>2023-11-26T14:09:37Z</time>
      </trkpt>
      <trkpt lat="43.63414" lon="6.64156">
        <ele>418.5</ele>
        <time>2023-11-26T14:09:38Z</time>
      </trkpt>
      <trkpt lat="43.63415" lon="6.64156">
        <ele>418.5</ele>
        <time>2023-11-26T14:09:39Z</time>
      </trkpt>
      <trkpt lat="43.63415" lon="6.64157">
        <ele>418.5</ele>
        <time>2023-11-26T14:09:40Z</time>
      </trkpt>
      <trkpt lat="43.63415" lon="6.64158">
        <ele>418.6</ele>
        <time>2023-11-26T14:09:41Z</time>
      </trkpt>
      <trkpt lat="43.63416" lon="6.64158">
        <ele>418.7</ele>
        <time>2023-11-26T14:09:42Z</time>
      </trkpt>
      <trkpt lat="43.63417" lon="6.64158">
        <ele>418.7</ele>
        <time>2023-11-26T14:09:43Z</time>
      </trkpt>
      <trkpt lat="43.63417" lon="6.64158">
        <ele>418.8</ele>
        <time>2023-11-26T14:09:44Z</time>
      </trkpt>
      <trkpt lat="43.63418" lon="6.64159">
        <ele>418.8</ele>
        <time>2023-11-26T14:09:45Z</time>
      </trkpt>
      <trkpt lat="43.63418" lon="6.64159">
        <ele>418.9</ele>
        <time>2023-11-26T14:09:46Z</time>
      </trkpt>
      <trkpt lat="43.63418" lon="6.64159">
        <ele>419</ele>
        <time>2023-11-26T14:09:47Z</time>
      </trkpt>
      <trkpt lat="43.63418" lon="6.6416">
        <ele>419</ele>
        <time>2023-11-26T14:09:48Z</time>
      </trkpt>
      <trkpt lat="43.63418" lon="6.6416">
        <ele>419.1</ele>
        <time>2023-11-26T14:09:49Z</time>
      </trkpt>
      <trkpt lat="43.63418" lon="6.64161">
        <ele>419.1</ele>
        <time>2023-11-26T14:09:50Z</time>
      </trkpt>
      <trkpt lat="43.63419" lon="6.64162">
        <ele>419.1</ele>
        <time>2023-11-26T14:09:51Z</time>
      </trkpt>
      <trkpt lat="43.63419" lon="6.64163">
        <ele>419.2</ele>
        <time>2023-11-26T14:09:52Z</time>
      </trkpt>
      <trkpt lat="43.63419" lon="6.64164">
        <ele>419.4</ele>
        <time>2023-11-26T14:09:53Z</time>
      </trkpt>
      <trkpt lat="43.6342" lon="6.64164">
        <ele>419.4</ele>
        <time>2023-11-26T14:09:54Z</time>
      </trkpt>
      <trkpt lat="43.63421" lon="6.64164">
        <ele>419.4</ele>
        <time>2023-11-26T14:09:55Z</time>
      </trkpt>
      <trkpt lat="43.63422" lon="6.64165">
        <ele>419.6</ele>
        <time>2023-11-26T14:09:56Z</time>
      </trkpt>
      <trkpt lat="43.63422" lon="6.64166">
        <ele>419.7</ele>
        <time>2023-11-26T14:09:57Z</time>
      </trkpt>
      <trkpt lat="43.63423" lon="6.64167">
        <ele>419.8</ele>
        <time>2023-11-26T14:09:58Z</time>
      </trkpt>
      <trkpt lat="43.63424" lon="6.64168">
        <ele>419.9</ele>
        <time>2023-11-26T14:09:59Z</time>
      </trkpt>
      <trkpt lat="43.63425" lon="6.64169">
        <ele>420</ele>
        <time>2023-11-26T14:10:00Z</time>
      </trkpt>
      <trkpt lat="43.63426" lon="6.64171">
        <ele>420.1</ele>
        <time>2023-11-26T14:10:01Z</time>
      </trkpt>
      <trkpt lat="43.63427" lon="6.64172">
        <ele>420.1</ele>
        <time>2023-11-26T14:10:02Z</time>
      </trkpt>
      <trkpt lat="43.63427" lon="6.64173">
        <ele>420.2</ele>
        <time>2023-11-26T14:10:03Z</time>
      </trkpt>
      <trkpt lat="43.63428" lon="6.64175">
        <ele>420.3</ele>
        <time>2023-11-26T14:10:04Z</time>
      </trkpt>
      <trkpt lat="43.63429" lon="6.64176">
        <ele>420.3</ele>
        <time>2023-11-26T14:10:05Z</time>
      </trkpt>
      <trkpt lat="43.6343" lon="6.64177">
        <ele>420.3</ele>
        <time>2023-11-26T14:10:06Z</time>
      </trkpt>
      <trkpt lat="43.63431" lon="6.64177">
        <ele>420.4</ele>
        <time>2023-11-26T14:10:07Z</time>
      </trkpt>
      <trkpt lat="43.63431" lon="6.64178">
        <ele>420.4</ele>
        <time>2023-11-26T14:10:08Z</time>
      </trkpt>
      <trkpt lat="43.63432" lon="6.6418">
        <ele>420.5</ele>
        <time>2023-11-26T14:10:09Z</time>
      </trkpt>
      <trkpt lat="43.63433" lon="6.64182">
        <ele>420.6</ele>
        <time>2023-11-26T14:10:10Z</time>
      </trkpt>
      <trkpt lat="43.63434" lon="6.64183">
        <ele>420.8</ele>
        <time>2023-11-26T14:10:11Z</time>
      </trkpt>
      <trkpt lat="43.63435" lon="6.64184">
        <ele>420.9</ele>
        <time>2023-11-26T14:10:12Z</time>
      </trkpt>
      <trkpt lat="43.63435" lon="6.64184">
        <ele>421</ele>
        <time>2023-11-26T14:10:13Z</time>
      </trkpt>
      <trkpt lat="43.63436" lon="6.64185">
        <ele>420.9</ele>
        <time>2023-11-26T14:10:14Z</time>
      </trkpt>
      <trkpt lat="43.63436" lon="6.64186">
        <ele>421</ele>
        <time>2023-11-26T14:10:15Z</time>
      </trkpt>
      <trkpt lat="43.63437" lon="6.64188">
        <ele>421.1</ele>
        <time>2023-11-26T14:10:16Z</time>
      </trkpt>
      <trkpt lat="43.63438" lon="6.64189">
        <ele>421.4</ele>
        <time>2023-11-26T14:10:17Z</time>
      </trkpt>
      <trkpt lat="43.63438" lon="6.6419">
        <ele>421.5</ele>
        <time>2023-11-26T14:10:18Z</time>
      </trkpt>
      <trkpt lat="43.63439" lon="6.64191">
        <ele>421.7</ele>
        <time>2023-11-26T14:10:19Z</time>
      </trkpt>
      <trkpt lat="43.63439" lon="6.64191">
        <ele>421.8</ele>
        <time>2023-11-26T14:10:20Z</time>
      </trkpt>
      <trkpt lat="43.6344" lon="6.64192">
        <ele>421.9</ele>
        <time>2023-11-26T14:10:21Z</time>
      </trkpt>
      <trkpt lat="43.63441" lon="6.64193">
        <ele>422</ele>
        <time>2023-11-26T14:10:22Z</time>
      </trkpt>
      <trkpt lat="43.63441" lon="6.64194">
        <ele>422.1</ele>
        <time>2023-11-26T14:10:23Z</time>
      </trkpt>
      <trkpt lat="43.63442" lon="6.64195">
        <ele>422.1</ele>
        <time>2023-11-26T14:10:24Z</time>
      </trkpt>
      <trkpt lat="43.63442" lon="6.64196">
        <ele>422.3</ele>
        <time>2023-11-26T14:10:25Z</time>
      </trkpt>
      <trkpt lat="43.63443" lon="6.64197">
        <ele>422.4</ele>
        <time>2023-11-26T14:10:26Z</time>
      </trkpt>
      <trkpt lat="43.63443" lon="6.64198">
        <ele>422.6</ele>
        <time>2023-11-26T14:10:27Z</time>
      </trkpt>
      <trkpt lat="43.63443" lon="6.64199">
        <ele>422.7</ele>
        <time>2023-11-26T14:10:28Z</time>
      </trkpt>
      <trkpt lat="43.63444" lon="6.642">
        <ele>422.8</ele>
        <time>2023-11-26T14:10:29Z</time>
      </trkpt>
      <trkpt lat="43.63444" lon="6.642">
        <ele>422.9</ele>
        <time>2023-11-26T14:10:30Z</time>
      </trkpt>
      <trkpt lat="43.63445" lon="6.642">
        <ele>422.9</ele>
        <time>2023-11-26T14:10:31Z</time>
      </trkpt>
      <trkpt lat="43.63445" lon="6.64201">
        <ele>423</ele>
        <time>2023-11-26T14:10:32Z</time>
      </trkpt>
      <trkpt lat="43.63445" lon="6.64201">
        <ele>423.1</ele>
        <time>2023-11-26T14:10:33Z</time>
      </trkpt>
      <trkpt lat="43.63445" lon="6.64201">
        <ele>423.1</ele>
        <time>2023-11-26T14:10:34Z</time>
      </trkpt>
      <trkpt lat="43.63445" lon="6.64201">
        <ele>423.3</ele>
        <time>2023-11-26T14:10:35Z</time>
      </trkpt>
      <trkpt lat="43.63445" lon="6.64202">
        <ele>423.3</ele>
        <time>2023-11-26T14:10:36Z</time>
      </trkpt>
      <trkpt lat="43.63445" lon="6.64202">
        <ele>423.4</ele>
        <time>2023-11-26T14:10:37Z</time>
      </trkpt>
      <trkpt lat="43.63445" lon="6.64202">
        <ele>423.4</ele>
        <time>2023-11-26T14:10:38Z</time>
      </trkpt>
      <trkpt lat="43.63445" lon="6.64201">
        <ele>423.5</ele>
        <time>2023-11-26T14:10:39Z</time>
      </trkpt>
      <trkpt lat="43.63445" lon="6.64201">
        <ele>423.5</ele>
        <time>2023-11-26T14:10:40Z</time>
      </trkpt>
      <trkpt lat="43.63445" lon="6.64201">
        <ele>423.5</ele>
        <time>2023-11-26T14:10:41Z</time>
      </trkpt>
      <trkpt lat="43.63445" lon="6.64201">
        <ele>423.5</ele>
        <time>2023-11-26T14:10:42Z</time>
      </trkpt>
      <trkpt lat="43.63445" lon="6.64201">
        <ele>423.5</ele>
        <time>2023-11-26T14:10:43Z</time>
      </trkpt>
      <trkpt lat="43.63445" lon="6.64201">
        <ele>423.4</ele>
        <time>2023-11-26T14:10:44Z</time>
      </trkpt>
      <trkpt lat="43.63445" lon="6.64201">
        <ele>423.4</ele>
        <time>2023-11-26T14:10:45Z</time>
      </trkpt>
      <trkpt lat="43.63444" lon="6.64202">
        <ele>423.4</ele>
        <time>2023-11-26T14:10:46Z</time>
      </trkpt>
      <trkpt lat="43.63444" lon="6.64202">
        <ele>423.5</ele>
        <time>2023-11-26T14:10:47Z</time>
      </trkpt>
      <trkpt lat="43.63444" lon="6.64202">
        <ele>423.5</ele>
        <time>2023-11-26T14:10:48Z</time>
      </trkpt>
      <trkpt lat="43.63444" lon="6.64202">
        <ele>423.4</ele>
        <time>2023-11-26T14:10:49Z</time>
      </trkpt>
      <trkpt lat="43.63444" lon="6.64203">
        <ele>423.4</ele>
        <time>2023-11-26T14:10:50Z</time>
      </trkpt>
      <trkpt lat="43.63444" lon="6.64203">
        <ele>423.5</ele>
        <time>2023-11-26T14:10:51Z</time>
      </trkpt>
      <trkpt lat="43.63444" lon="6.64203">
        <ele>423.5</ele>
        <time>2023-11-26T14:10:52Z</time>
      </trkpt>
      <trkpt lat="43.63444" lon="6.64203">
        <ele>423.5</ele>
        <time>2023-11-26T14:10:53Z</time>
      </trkpt>
      <trkpt lat="43.63444" lon="6.64203">
        <ele>423.6</ele>
        <time>2023-11-26T14:10:54Z</time>
      </trkpt>
      <trkpt lat="43.63444" lon="6.64203">
        <ele>423.6</ele>
        <time>2023-11-26T14:10:55Z</time>
      </trkpt>
      <trkpt lat="43.63444" lon="6.64203">
        <ele>423.5</ele>
        <time>2023-11-26T14:10:56Z</time>
      </trkpt>
      <trkpt lat="43.63444" lon="6.64203">
        <ele>423.5</ele>
        <time>2023-11-26T14:10:57Z</time>
      </trkpt>
      <trkpt lat="43.63444" lon="6.64203">
        <ele>423.4</ele>
        <time>2023-11-26T14:10:58Z</time>
      </trkpt>
      <trkpt lat="43.63444" lon="6.64203">
        <ele>423.4</ele>
        <time>2023-11-26T14:10:59Z</time>
      </trkpt>
      <trkpt lat="43.63444" lon="6.64204">
        <ele>423.4</ele>
        <time>2023-11-26T14:11:00Z</time>
      </trkpt>
      <trkpt lat="43.63445" lon="6.64204">
        <ele>423.4</ele>
        <time>2023-11-26T14:11:01Z</time>
      </trkpt>
      <trkpt lat="43.63445" lon="6.64204">
        <ele>423.4</ele>
        <time>2023-11-26T14:11:02Z</time>
      </trkpt>
      <trkpt lat="43.63445" lon="6.64204">
        <ele>423.4</ele>
        <time>2023-11-26T14:11:03Z</time>
      </trkpt>
      <trkpt lat="43.63445" lon="6.64205">
        <ele>423.4</ele>
        <time>2023-11-26T14:11:04Z</time>
      </trkpt>
      <trkpt lat="43.63445" lon="6.64205">
        <ele>423.4</ele>
        <time>2023-11-26T14:11:05Z</time>
      </trkpt>
      <trkpt lat="43.63445" lon="6.64205">
        <ele>423.4</ele>
        <time>2023-11-26T14:11:06Z</time>
      </trkpt>
      <trkpt lat="43.63445" lon="6.64206">
        <ele>423.4</ele>
        <time>2023-11-26T14:11:07Z</time>
      </trkpt>
      <trkpt lat="43.63445" lon="6.64206">
        <ele>423.4</ele>
        <time>2023-11-26T14:11:08Z</time>
      </trkpt>
      <trkpt lat="43.63445" lon="6.64207">
        <ele>423.4</ele>
        <time>2023-11-26T14:11:09Z</time>
      </trkpt>
      <trkpt lat="43.63445" lon="6.64206">
        <ele>423.4</ele>
        <time>2023-11-26T14:11:10Z</time>
      </trkpt>
      <trkpt lat="43.63446" lon="6.64206">
        <ele>423.4</ele>
        <time>2023-11-26T14:11:11Z</time>
      </trkpt>
      <trkpt lat="43.63446" lon="6.64206">
        <ele>423.5</ele>
        <time>2023-11-26T14:11:12Z</time>
      </trkpt>
      <trkpt lat="43.63446" lon="6.64205">
        <ele>423.5</ele>
        <time>2023-11-26T14:11:13Z</time>
      </trkpt>
      <trkpt lat="43.63446" lon="6.64205">
        <ele>423.5</ele>
        <time>2023-11-26T14:11:14Z</time>
      </trkpt>
      <trkpt lat="43.63446" lon="6.64205">
        <ele>423.5</ele>
        <time>2023-11-26T14:11:15Z</time>
      </trkpt>
      <trkpt lat="43.63446" lon="6.64205">
        <ele>423.6</ele>
        <time>2023-11-26T14:11:16Z</time>
      </trkpt>
      <trkpt lat="43.63446" lon="6.64204">
        <ele>423.6</ele>
        <time>2023-11-26T14:11:17Z</time>
      </trkpt>
      <trkpt lat="43.63446" lon="6.64204">
        <ele>423.6</ele>
        <time>2023-11-26T14:11:18Z</time>
      </trkpt>
      <trkpt lat="43.63446" lon="6.64204">
        <ele>423.6</ele>
        <time>2023-11-26T14:11:19Z</time>
      </trkpt>
      <trkpt lat="43.63446" lon="6.64204">
        <ele>423.7</ele>
        <time>2023-11-26T14:11:20Z</time>
      </trkpt>
      <trkpt lat="43.63446" lon="6.64204">
        <ele>423.7</ele>
        <time>2023-11-26T14:11:21Z</time>
      </trkpt>
      <trkpt lat="43.63446" lon="6.64205">
        <ele>423.7</ele>
        <time>2023-11-26T14:11:22Z</time>
      </trkpt>
      <trkpt lat="43.63445" lon="6.64205">
        <ele>423.7</ele>
        <time>2023-11-26T14:11:23Z</time>
      </trkpt>
      <trkpt lat="43.63445" lon="6.64205">
        <ele>423.6</ele>
        <time>2023-11-26T14:11:24Z</time>
      </trkpt>
      <trkpt lat="43.63445" lon="6.64205">
        <ele>423.6</ele>
        <time>2023-11-26T14:11:25Z</time>
      </trkpt>
      <trkpt lat="43.63445" lon="6.64206">
        <ele>423.6</ele>
        <time>2023-11-26T14:11:26Z</time>
      </trkpt>
      <trkpt lat="43.63446" lon="6.64207">
        <ele>423.6</ele>
        <time>2023-11-26T14:11:27Z</time>
      </trkpt>
      <trkpt lat="43.63446" lon="6.64208">
        <ele>423.6</ele>
        <time>2023-11-26T14:11:28Z</time>
      </trkpt>
      <trkpt lat="43.63447" lon="6.64209">
        <ele>423.5</ele>
        <time>2023-11-26T14:11:29Z</time>
      </trkpt>
      <trkpt lat="43.63447" lon="6.6421">
        <ele>423.5</ele>
        <time>2023-11-26T14:11:30Z</time>
      </trkpt>
      <trkpt lat="43.63448" lon="6.64212">
        <ele>423.5</ele>
        <time>2023-11-26T14:11:31Z</time>
      </trkpt>
      <trkpt lat="43.63448" lon="6.64213">
        <ele>423.5</ele>
        <time>2023-11-26T14:11:32Z</time>
      </trkpt>
      <trkpt lat="43.63448" lon="6.64214">
        <ele>423.4</ele>
        <time>2023-11-26T14:11:33Z</time>
      </trkpt>
      <trkpt lat="43.63449" lon="6.64214">
        <ele>423.5</ele>
        <time>2023-11-26T14:11:34Z</time>
      </trkpt>
      <trkpt lat="43.6345" lon="6.64215">
        <ele>423.5</ele>
        <time>2023-11-26T14:11:35Z</time>
      </trkpt>
      <trkpt lat="43.6345" lon="6.64215">
        <ele>423.5</ele>
        <time>2023-11-26T14:11:36Z</time>
      </trkpt>
      <trkpt lat="43.63451" lon="6.64216">
        <ele>423.5</ele>
        <time>2023-11-26T14:11:37Z</time>
      </trkpt>
      <trkpt lat="43.63451" lon="6.64216">
        <ele>423.5</ele>
        <time>2023-11-26T14:11:38Z</time>
      </trkpt>
      <trkpt lat="43.63452" lon="6.64217">
        <ele>423.5</ele>
        <time>2023-11-26T14:11:39Z</time>
      </trkpt>
      <trkpt lat="43.63452" lon="6.64218">
        <ele>423.4</ele>
        <time>2023-11-26T14:11:40Z</time>
      </trkpt>
      <trkpt lat="43.63453" lon="6.64218">
        <ele>423.4</ele>
        <time>2023-11-26T14:11:41Z</time>
      </trkpt>
      <trkpt lat="43.63453" lon="6.64219">
        <ele>423.4</ele>
        <time>2023-11-26T14:11:42Z</time>
      </trkpt>
      <trkpt lat="43.63453" lon="6.6422">
        <ele>423.4</ele>
        <time>2023-11-26T14:11:43Z</time>
      </trkpt>
      <trkpt lat="43.63454" lon="6.64221">
        <ele>423.4</ele>
        <time>2023-11-26T14:11:44Z</time>
      </trkpt>
      <trkpt lat="43.63454" lon="6.64221">
        <ele>423.4</ele>
        <time>2023-11-26T14:11:45Z</time>
      </trkpt>
      <trkpt lat="43.63455" lon="6.64222">
        <ele>423.3</ele>
        <time>2023-11-26T14:11:46Z</time>
      </trkpt>
      <trkpt lat="43.63456" lon="6.64222">
        <ele>423.4</ele>
        <time>2023-11-26T14:11:47Z</time>
      </trkpt>
      <trkpt lat="43.63456" lon="6.64222">
        <ele>423.4</ele>
        <time>2023-11-26T14:11:48Z</time>
      </trkpt>
      <trkpt lat="43.63456" lon="6.64223">
        <ele>423.4</ele>
        <time>2023-11-26T14:11:49Z</time>
      </trkpt>
      <trkpt lat="43.63455" lon="6.64223">
        <ele>423.5</ele>
        <time>2023-11-26T14:11:50Z</time>
      </trkpt>
      <trkpt lat="43.63455" lon="6.64223">
        <ele>423.4</ele>
        <time>2023-11-26T14:11:51Z</time>
      </trkpt>
      <trkpt lat="43.63455" lon="6.64223">
        <ele>423.4</ele>
        <time>2023-11-26T14:11:52Z</time>
      </trkpt>
      <trkpt lat="43.63456" lon="6.64223">
        <ele>423.4</ele>
        <time>2023-11-26T14:11:53Z</time>
      </trkpt>
      <trkpt lat="43.63456" lon="6.64223">
        <ele>423.5</ele>
        <time>2023-11-26T14:11:54Z</time>
      </trkpt>
      <trkpt lat="43.63457" lon="6.64223">
        <ele>423.5</ele>
        <time>2023-11-26T14:11:55Z</time>
      </trkpt>
      <trkpt lat="43.63458" lon="6.64223">
        <ele>423.5</ele>
        <time>2023-11-26T14:11:56Z</time>
      </trkpt>
      <trkpt lat="43.63458" lon="6.64223">
        <ele>423.6</ele>
        <time>2023-11-26T14:11:57Z</time>
      </trkpt>
      <trkpt lat="43.63459" lon="6.64224">
        <ele>423.6</ele>
        <time>2023-11-26T14:11:58Z</time>
      </trkpt>
      <trkpt lat="43.63459" lon="6.64224">
        <ele>423.6</ele>
        <time>2023-11-26T14:11:59Z</time>
      </trkpt>
      <trkpt lat="43.63459" lon="6.64224">
        <ele>423.5</ele>
        <time>2023-11-26T14:12:00Z</time>
      </trkpt>
      <trkpt lat="43.6346" lon="6.64224">
        <ele>423.5</ele>
        <time>2023-11-26T14:12:01Z</time>
      </trkpt>
      <trkpt lat="43.63461" lon="6.64225">
        <ele>423.6</ele>
        <time>2023-11-26T14:12:02Z</time>
      </trkpt>
      <trkpt lat="43.63462" lon="6.64224">
        <ele>423.7</ele>
        <time>2023-11-26T14:12:03Z</time>
      </trkpt>
      <trkpt lat="43.63462" lon="6.64224">
        <ele>423.8</ele>
        <time>2023-11-26T14:12:04Z</time>
      </trkpt>
      <trkpt lat="43.63462" lon="6.64224">
        <ele>423.8</ele>
        <time>2023-11-26T14:12:05Z</time>
      </trkpt>
      <trkpt lat="43.63462" lon="6.64224">
        <ele>423.8</ele>
        <time>2023-11-26T14:12:06Z</time>
      </trkpt>
      <trkpt lat="43.63463" lon="6.64225">
        <ele>423.8</ele>
        <time>2023-11-26T14:12:07Z</time>
      </trkpt>
      <trkpt lat="43.63463" lon="6.64226">
        <ele>423.8</ele>
        <time>2023-11-26T14:12:08Z</time>
      </trkpt>
      <trkpt lat="43.63464" lon="6.64226">
        <ele>423.8</ele>
        <time>2023-11-26T14:12:09Z</time>
      </trkpt>
      <trkpt lat="43.63464" lon="6.64227">
        <ele>423.6</ele>
        <time>2023-11-26T14:12:10Z</time>
      </trkpt>
      <trkpt lat="43.63464" lon="6.64228">
        <ele>423.6</ele>
        <time>2023-11-26T14:12:11Z</time>
      </trkpt>
      <trkpt lat="43.63464" lon="6.64229">
        <ele>423.6</ele>
        <time>2023-11-26T14:12:12Z</time>
      </trkpt>
      <trkpt lat="43.63465" lon="6.64229">
        <ele>423.6</ele>
        <time>2023-11-26T14:12:13Z</time>
      </trkpt>
      <trkpt lat="43.63465" lon="6.6423">
        <ele>423.6</ele>
        <time>2023-11-26T14:12:14Z</time>
      </trkpt>
      <trkpt lat="43.63465" lon="6.64231">
        <ele>423.6</ele>
        <time>2023-11-26T14:12:15Z</time>
      </trkpt>
      <trkpt lat="43.63466" lon="6.64231">
        <ele>423.7</ele>
        <time>2023-11-26T14:12:16Z</time>
      </trkpt>
      <trkpt lat="43.63466" lon="6.64231">
        <ele>423.6</ele>
        <time>2023-11-26T14:12:17Z</time>
      </trkpt>
      <trkpt lat="43.63466" lon="6.64231">
        <ele>423.6</ele>
        <time>2023-11-26T14:12:18Z</time>
      </trkpt>
      <trkpt lat="43.63466" lon="6.64231">
        <ele>423.6</ele>
        <time>2023-11-26T14:12:19Z</time>
      </trkpt>
      <trkpt lat="43.63466" lon="6.64231">
        <ele>423.6</ele>
        <time>2023-11-26T14:12:20Z</time>
      </trkpt>
      <trkpt lat="43.63466" lon="6.64231">
        <ele>423.6</ele>
        <time>2023-11-26T14:12:21Z</time>
      </trkpt>
      <trkpt lat="43.63466" lon="6.64231">
        <ele>423.5</ele>
        <time>2023-11-26T14:12:22Z</time>
      </trkpt>
      <trkpt lat="43.63466" lon="6.64231">
        <ele>423.5</ele>
        <time>2023-11-26T14:12:23Z</time>
      </trkpt>
      <trkpt lat="43.63466" lon="6.64231">
        <ele>423.5</ele>
        <time>2023-11-26T14:12:24Z</time>
      </trkpt>
      <trkpt lat="43.63466" lon="6.64231">
        <ele>423.5</ele>
        <time>2023-11-26T14:12:25Z</time>
      </trkpt>
      <trkpt lat="43.63466" lon="6.64231">
        <ele>423.6</ele>
        <time>2023-11-26T14:12:26Z</time>
      </trkpt>
      <trkpt lat="43.63466" lon="6.64231">
        <ele>423.6</ele>
        <time>2023-11-26T14:12:27Z</time>
      </trkpt>
      <trkpt lat="43.63466" lon="6.64231">
        <ele>423.5</ele>
        <time>2023-11-26T14:12:28Z</time>
      </trkpt>
      <trkpt lat="43.63466" lon="6.64231">
        <ele>423.5</ele>
        <time>2023-11-26T14:12:29Z</time>
      </trkpt>
      <trkpt lat="43.63467" lon="6.64232">
        <ele>423.6</ele>
        <time>2023-11-26T14:12:30Z</time>
      </trkpt>
      <trkpt lat="43.63467" lon="6.64232">
        <ele>423.6</ele>
        <time>2023-11-26T14:12:31Z</time>
      </trkpt>
      <trkpt lat="43.63467" lon="6.64232">
        <ele>423.7</ele>
        <time>2023-11-26T14:12:32Z</time>
      </trkpt>
      <trkpt lat="43.63468" lon="6.64233">
        <ele>423.7</ele>
        <time>2023-11-26T14:12:33Z</time>
      </trkpt>
      <trkpt lat="43.63468" lon="6.64233">
        <ele>423.7</ele>
        <time>2023-11-26T14:12:34Z</time>
      </trkpt>
      <trkpt lat="43.63469" lon="6.64233">
        <ele>423.7</ele>
        <time>2023-11-26T14:12:35Z</time>
      </trkpt>
      <trkpt lat="43.63469" lon="6.64233">
        <ele>423.7</ele>
        <time>2023-11-26T14:12:36Z</time>
      </trkpt>
      <trkpt lat="43.6347" lon="6.64233">
        <ele>423.7</ele>
        <time>2023-11-26T14:12:37Z</time>
      </trkpt>
      <trkpt lat="43.6347" lon="6.64234">
        <ele>423.7</ele>
        <time>2023-11-26T14:12:38Z</time>
      </trkpt>
      <trkpt lat="43.6347" lon="6.64234">
        <ele>423.7</ele>
        <time>2023-11-26T14:12:39Z</time>
      </trkpt>
      <trkpt lat="43.6347" lon="6.64235">
        <ele>423.7</ele>
        <time>2023-11-26T14:12:40Z</time>
      </trkpt>
      <trkpt lat="43.6347" lon="6.64235">
        <ele>423.6</ele>
        <time>2023-11-26T14:12:41Z</time>
      </trkpt>
      <trkpt lat="43.63471" lon="6.64235">
        <ele>423.6</ele>
        <time>2023-11-26T14:12:42Z</time>
      </trkpt>
      <trkpt lat="43.63471" lon="6.64235">
        <ele>423.5</ele>
        <time>2023-11-26T14:12:43Z</time>
      </trkpt>
      <trkpt lat="43.63471" lon="6.64235">
        <ele>423.5</ele>
        <time>2023-11-26T14:12:44Z</time>
      </trkpt>
      <trkpt lat="43.63471" lon="6.64235">
        <ele>423.5</ele>
        <time>2023-11-26T14:12:45Z</time>
      </trkpt>
      <trkpt lat="43.63471" lon="6.64235">
        <ele>423.4</ele>
        <time>2023-11-26T14:12:46Z</time>
      </trkpt>
      <trkpt lat="43.63471" lon="6.64235">
        <ele>423.5</ele>
        <time>2023-11-26T14:12:47Z</time>
      </trkpt>
      <trkpt lat="43.63471" lon="6.64235">
        <ele>423.5</ele>
        <time>2023-11-26T14:12:48Z</time>
      </trkpt>
      <trkpt lat="43.63472" lon="6.64235">
        <ele>423.5</ele>
        <time>2023-11-26T14:12:49Z</time>
      </trkpt>
      <trkpt lat="43.63472" lon="6.64235">
        <ele>423.6</ele>
        <time>2023-11-26T14:12:50Z</time>
      </trkpt>
      <trkpt lat="43.63472" lon="6.64235">
        <ele>423.5</ele>
        <time>2023-11-26T14:12:51Z</time>
      </trkpt>
      <trkpt lat="43.63472" lon="6.64235">
        <ele>423.4</ele>
        <time>2023-11-26T14:12:52Z</time>
      </trkpt>
      <trkpt lat="43.63472" lon="6.64235">
        <ele>423.5</ele>
        <time>2023-11-26T14:12:53Z</time>
      </trkpt>
      <trkpt lat="43.63472" lon="6.64235">
        <ele>423.5</ele>
        <time>2023-11-26T14:12:54Z</time>
      </trkpt>
      <trkpt lat="43.63472" lon="6.64235">
        <ele>423.5</ele>
        <time>2023-11-26T14:12:55Z</time>
      </trkpt>
      <trkpt lat="43.63472" lon="6.64235">
        <ele>423.5</ele>
        <time>2023-11-26T14:12:56Z</time>
      </trkpt>
      <trkpt lat="43.63472" lon="6.64235">
        <ele>423.5</ele>
        <time>2023-11-26T14:12:57Z</time>
      </trkpt>
      <trkpt lat="43.63472" lon="6.64235">
        <ele>423.5</ele>
        <time>2023-11-26T14:12:58Z</time>
      </trkpt>
      <trkpt lat="43.63472" lon="6.64235">
        <ele>423.6</ele>
        <time>2023-11-26T14:12:59Z</time>
      </trkpt>
      <trkpt lat="43.63473" lon="6.64235">
        <ele>423.7</ele>
        <time>2023-11-26T14:13:00Z</time>
      </trkpt>
      <trkpt lat="43.63473" lon="6.64235">
        <ele>423.7</ele>
        <time>2023-11-26T14:13:01Z</time>
      </trkpt>
      <trkpt lat="43.63473" lon="6.64235">
        <ele>423.6</ele>
        <time>2023-11-26T14:13:02Z</time>
      </trkpt>
      <trkpt lat="43.63473" lon="6.64235">
        <ele>423.6</ele>
        <time>2023-11-26T14:13:03Z</time>
      </trkpt>
      <trkpt lat="43.63473" lon="6.64235">
        <ele>423.6</ele>
        <time>2023-11-26T14:13:04Z</time>
      </trkpt>
      <trkpt lat="43.63473" lon="6.64235">
        <ele>423.5</ele>
        <time>2023-11-26T14:13:05Z</time>
      </trkpt>
      <trkpt lat="43.63473" lon="6.64235">
        <ele>423.5</ele>
        <time>2023-11-26T14:13:06Z</time>
      </trkpt>
      <trkpt lat="43.63473" lon="6.64235">
        <ele>423.5</ele>
        <time>2023-11-26T14:13:07Z</time>
      </trkpt>
      <trkpt lat="43.63473" lon="6.64234">
        <ele>423.4</ele>
        <time>2023-11-26T14:13:08Z</time>
      </trkpt>
      <trkpt lat="43.63473" lon="6.64234">
        <ele>423.4</ele>
        <time>2023-11-26T14:13:09Z</time>
      </trkpt>
      <trkpt lat="43.63473" lon="6.64234">
        <ele>423.4</ele>
        <time>2023-11-26T14:13:10Z</time>
      </trkpt>
      <trkpt lat="43.63473" lon="6.64234">
        <ele>423.3</ele>
        <time>2023-11-26T14:13:11Z</time>
      </trkpt>
      <trkpt lat="43.63473" lon="6.64234">
        <ele>423.3</ele>
        <time>2023-11-26T14:13:12Z</time>
      </trkpt>
      <trkpt lat="43.63473" lon="6.64234">
        <ele>423.3</ele>
        <time>2023-11-26T14:13:13Z</time>
      </trkpt>
      <trkpt lat="43.63473" lon="6.64234">
        <ele>423.3</ele>
        <time>2023-11-26T14:13:14Z</time>
      </trkpt>
      <trkpt lat="43.63473" lon="6.64234">
        <ele>423.3</ele>
        <time>2023-11-26T14:13:15Z</time>
      </trkpt>
      <trkpt lat="43.63473" lon="6.64234">
        <ele>423.3</ele>
        <time>2023-11-26T14:13:16Z</time>
      </trkpt>
      <trkpt lat="43.63473" lon="6.64233">
        <ele>423.3</ele>
        <time>2023-11-26T14:13:17Z</time>
      </trkpt>
      <trkpt lat="43.63473" lon="6.64234">
        <ele>423.4</ele>
        <time>2023-11-26T14:13:18Z</time>
      </trkpt>
      <trkpt lat="43.63472" lon="6.64234">
        <ele>423.4</ele>
        <time>2023-11-26T14:13:19Z</time>
      </trkpt>
      <trkpt lat="43.63472" lon="6.64234">
        <ele>423.5</ele>
        <time>2023-11-26T14:13:20Z</time>
      </trkpt>
      <trkpt lat="43.63471" lon="6.64234">
        <ele>423.5</ele>
        <time>2023-11-26T14:13:21Z</time>
      </trkpt>
      <trkpt lat="43.63471" lon="6.64234">
        <ele>423.5</ele>
        <time>2023-11-26T14:13:22Z</time>
      </trkpt>
      <trkpt lat="43.6347" lon="6.64234">
        <ele>423.4</ele>
        <time>2023-11-26T14:13:23Z</time>
      </trkpt>
      <trkpt lat="43.6347" lon="6.64234">
        <ele>423.4</ele>
        <time>2023-11-26T14:13:24Z</time>
      </trkpt>
      <trkpt lat="43.6347" lon="6.64234">
        <ele>423.4</ele>
        <time>2023-11-26T14:13:25Z</time>
      </trkpt>
      <trkpt lat="43.6347" lon="6.64234">
        <ele>423.4</ele>
        <time>2023-11-26T14:13:26Z</time>
      </trkpt>
      <trkpt lat="43.6347" lon="6.64234">
        <ele>423.4</ele>
        <time>2023-11-26T14:13:27Z</time>
      </trkpt>
      <trkpt lat="43.6347" lon="6.64234">
        <ele>423.5</ele>
        <time>2023-11-26T14:13:28Z</time>
      </trkpt>
      <trkpt lat="43.6347" lon="6.64234">
        <ele>423.4</ele>
        <time>2023-11-26T14:13:29Z</time>
      </trkpt>
      <trkpt lat="43.6347" lon="6.64234">
        <ele>423.3</ele>
        <time>2023-11-26T14:13:30Z</time>
      </trkpt>
      <trkpt lat="43.6347" lon="6.64234">
        <ele>423.3</ele>
        <time>2023-11-26T14:13:31Z</time>
      </trkpt>
      <trkpt lat="43.6347" lon="6.64234">
        <ele>423.3</ele>
        <time>2023-11-26T14:13:32Z</time>
      </trkpt>
      <trkpt lat="43.6347" lon="6.64234">
        <ele>423.3</ele>
        <time>2023-11-26T14:13:33Z</time>
      </trkpt>
      <trkpt lat="43.63469" lon="6.64234">
        <ele>423.3</ele>
        <time>2023-11-26T14:13:34Z</time>
      </trkpt>
      <trkpt lat="43.63469" lon="6.64234">
        <ele>423.3</ele>
        <time>2023-11-26T14:13:35Z</time>
      </trkpt>
      <trkpt lat="43.63469" lon="6.64234">
        <ele>423.3</ele>
        <time>2023-11-26T14:13:36Z</time>
      </trkpt>
      <trkpt lat="43.63469" lon="6.64234">
        <ele>423.3</ele>
        <time>2023-11-26T14:13:37Z</time>
      </trkpt>
      <trkpt lat="43.63469" lon="6.64234">
        <ele>423.3</ele>
        <time>2023-11-26T14:13:38Z</time>
      </trkpt>
      <trkpt lat="43.63469" lon="6.64234">
        <ele>423.3</ele>
        <time>2023-11-26T14:13:39Z</time>
      </trkpt>
      <trkpt lat="43.63469" lon="6.64234">
        <ele>423.2</ele>
        <time>2023-11-26T14:13:40Z</time>
      </trkpt>
      <trkpt lat="43.63469" lon="6.64234">
        <ele>423.2</ele>
        <time>2023-11-26T14:13:41Z</time>
      </trkpt>
      <trkpt lat="43.63469" lon="6.64234">
        <ele>423.2</ele>
        <time>2023-11-26T14:13:42Z</time>
      </trkpt>
      <trkpt lat="43.63469" lon="6.64234">
        <ele>423.2</ele>
        <time>2023-11-26T14:13:43Z</time>
      </trkpt>
      <trkpt lat="43.63469" lon="6.64233">
        <ele>423.2</ele>
        <time>2023-11-26T14:13:44Z</time>
      </trkpt>
      <trkpt lat="43.63469" lon="6.64233">
        <ele>423.1</ele>
        <time>2023-11-26T14:13:45Z</time>
      </trkpt>
      <trkpt lat="43.63469" lon="6.64233">
        <ele>423.2</ele>
        <time>2023-11-26T14:13:46Z</time>
      </trkpt>
      <trkpt lat="43.63469" lon="6.64233">
        <ele>423.2</ele>
        <time>2023-11-26T14:13:47Z</time>
      </trkpt>
      <trkpt lat="43.6347" lon="6.64233">
        <ele>423.2</ele>
        <time>2023-11-26T14:13:48Z</time>
      </trkpt>
      <trkpt lat="43.6347" lon="6.64233">
        <ele>423.2</ele>
        <time>2023-11-26T14:13:49Z</time>
      </trkpt>
      <trkpt lat="43.63469" lon="6.64233">
        <ele>423.2</ele>
        <time>2023-11-26T14:13:50Z</time>
      </trkpt>
      <trkpt lat="43.6347" lon="6.64233">
        <ele>423.2</ele>
        <time>2023-11-26T14:13:51Z</time>
      </trkpt>
      <trkpt lat="43.6347" lon="6.64233">
        <ele>423.2</ele>
        <time>2023-11-26T14:13:52Z</time>
      </trkpt>
      <trkpt lat="43.63469" lon="6.64233">
        <ele>423.3</ele>
        <time>2023-11-26T14:13:53Z</time>
      </trkpt>
      <trkpt lat="43.63469" lon="6.64233">
        <ele>423.3</ele>
        <time>2023-11-26T14:13:54Z</time>
      </trkpt>
      <trkpt lat="43.63468" lon="6.64233">
        <ele>423.3</ele>
        <time>2023-11-26T14:13:55Z</time>
      </trkpt>
      <trkpt lat="43.63468" lon="6.64234">
        <ele>423.3</ele>
        <time>2023-11-26T14:13:56Z</time>
      </trkpt>
      <trkpt lat="43.63468" lon="6.64234">
        <ele>423.4</ele>
        <time>2023-11-26T14:13:57Z</time>
      </trkpt>
      <trkpt lat="43.63468" lon="6.64234">
        <ele>423.4</ele>
        <time>2023-11-26T14:13:58Z</time>
      </trkpt>
      <trkpt lat="43.63468" lon="6.64233">
        <ele>423.3</ele>
        <time>2023-11-26T14:13:59Z</time>
      </trkpt>
      <trkpt lat="43.63468" lon="6.64233">
        <ele>423.2</ele>
        <time>2023-11-26T14:14:00Z</time>
      </trkpt>
      <trkpt lat="43.63468" lon="6.64233">
        <ele>423.2</ele>
        <time>2023-11-26T14:14:01Z</time>
      </trkpt>
      <trkpt lat="43.63468" lon="6.64233">
        <ele>423.2</ele>
        <time>2023-11-26T14:14:02Z</time>
      </trkpt>
      <trkpt lat="43.63468" lon="6.64233">
        <ele>423.2</ele>
        <time>2023-11-26T14:14:03Z</time>
      </trkpt>
      <trkpt lat="43.63468" lon="6.64233">
        <ele>423.2</ele>
        <time>2023-11-26T14:14:04Z</time>
      </trkpt>
      <trkpt lat="43.63468" lon="6.64233">
        <ele>423.3</ele>
        <time>2023-11-26T14:14:05Z</time>
      </trkpt>
      <trkpt lat="43.63468" lon="6.64233">
        <ele>423.3</ele>
        <time>2023-11-26T14:14:06Z</time>
      </trkpt>
      <trkpt lat="43.63468" lon="6.64233">
        <ele>423.3</ele>
        <time>2023-11-26T14:14:07Z</time>
      </trkpt>
      <trkpt lat="43.63468" lon="6.64233">
        <ele>423.3</ele>
        <time>2023-11-26T14:14:08Z</time>
      </trkpt>
      <trkpt lat="43.63468" lon="6.64233">
        <ele>423.3</ele>
        <time>2023-11-26T14:14:09Z</time>
      </trkpt>
      <trkpt lat="43.63469" lon="6.64233">
        <ele>423.2</ele>
        <time>2023-11-26T14:14:10Z</time>
      </trkpt>
      <trkpt lat="43.63469" lon="6.64233">
        <ele>423.1</ele>
        <time>2023-11-26T14:14:11Z</time>
      </trkpt>
      <trkpt lat="43.63469" lon="6.64233">
        <ele>423.1</ele>
        <time>2023-11-26T14:14:12Z</time>
      </trkpt>
      <trkpt lat="43.63469" lon="6.64232">
        <ele>423</ele>
        <time>2023-11-26T14:14:13Z</time>
      </trkpt>
      <trkpt lat="43.63469" lon="6.64232">
        <ele>423</ele>
        <time>2023-11-26T14:14:14Z</time>
      </trkpt>
      <trkpt lat="43.63469" lon="6.64232">
        <ele>422.9</ele>
        <time>2023-11-26T14:14:15Z</time>
      </trkpt>
      <trkpt lat="43.63469" lon="6.64232">
        <ele>422.9</ele>
        <time>2023-11-26T14:14:16Z</time>
      </trkpt>
      <trkpt lat="43.63469" lon="6.64232">
        <ele>422.9</ele>
        <time>2023-11-26T14:14:17Z</time>
      </trkpt>
      <trkpt lat="43.63469" lon="6.64232">
        <ele>422.9</ele>
        <time>2023-11-26T14:14:18Z</time>
      </trkpt>
      <trkpt lat="43.63469" lon="6.64232">
        <ele>422.9</ele>
        <time>2023-11-26T14:14:19Z</time>
      </trkpt>
      <trkpt lat="43.6347" lon="6.64232">
        <ele>423</ele>
        <time>2023-11-26T14:14:20Z</time>
      </trkpt>
      <trkpt lat="43.6347" lon="6.64232">
        <ele>423</ele>
        <time>2023-11-26T14:14:21Z</time>
      </trkpt>
      <trkpt lat="43.6347" lon="6.64231">
        <ele>423.1</ele>
        <time>2023-11-26T14:14:22Z</time>
      </trkpt>
      <trkpt lat="43.6347" lon="6.64232">
        <ele>423.1</ele>
        <time>2023-11-26T14:14:23Z</time>
      </trkpt>
      <trkpt lat="43.6347" lon="6.64231">
        <ele>423.1</ele>
        <time>2023-11-26T14:14:24Z</time>
      </trkpt>
      <trkpt lat="43.6347" lon="6.64231">
        <ele>423.1</ele>
        <time>2023-11-26T14:14:25Z</time>
      </trkpt>
      <trkpt lat="43.6347" lon="6.64231">
        <ele>423.1</ele>
        <time>2023-11-26T14:14:26Z</time>
      </trkpt>
      <trkpt lat="43.6347" lon="6.64231">
        <ele>423</ele>
        <time>2023-11-26T14:14:27Z</time>
      </trkpt>
      <trkpt lat="43.6347" lon="6.64231">
        <ele>423.1</ele>
        <time>2023-11-26T14:14:28Z</time>
      </trkpt>
      <trkpt lat="43.63469" lon="6.64231">
        <ele>423.2</ele>
        <time>2023-11-26T14:14:29Z</time>
      </trkpt>
      <trkpt lat="43.63469" lon="6.64231">
        <ele>423.2</ele>
        <time>2023-11-26T14:14:30Z</time>
      </trkpt>
      <trkpt lat="43.6347" lon="6.64231">
        <ele>423.2</ele>
        <time>2023-11-26T14:14:31Z</time>
      </trkpt>
      <trkpt lat="43.6347" lon="6.64231">
        <ele>423.2</ele>
        <time>2023-11-26T14:14:32Z</time>
      </trkpt>
      <trkpt lat="43.6347" lon="6.64232">
        <ele>423.2</ele>
        <time>2023-11-26T14:14:33Z</time>
      </trkpt>
      <trkpt lat="43.6347" lon="6.64232">
        <ele>423.2</ele>
        <time>2023-11-26T14:14:34Z</time>
      </trkpt>
      <trkpt lat="43.6347" lon="6.64233">
        <ele>423.2</ele>
        <time>2023-11-26T14:14:35Z</time>
      </trkpt>
      <trkpt lat="43.6347" lon="6.64233">
        <ele>423.2</ele>
        <time>2023-11-26T14:14:36Z</time>
      </trkpt>
      <trkpt lat="43.63471" lon="6.64234">
        <ele>423.2</ele>
        <time>2023-11-26T14:14:37Z</time>
      </trkpt>
      <trkpt lat="43.63471" lon="6.64234">
        <ele>423.3</ele>
        <time>2023-11-26T14:14:38Z</time>
      </trkpt>
      <trkpt lat="43.63471" lon="6.64234">
        <ele>423.2</ele>
        <time>2023-11-26T14:14:39Z</time>
      </trkpt>
      <trkpt lat="43.63471" lon="6.64234">
        <ele>423.2</ele>
        <time>2023-11-26T14:14:40Z</time>
      </trkpt>
      <trkpt lat="43.63471" lon="6.64234">
        <ele>423.2</ele>
        <time>2023-11-26T14:14:41Z</time>
      </trkpt>
      <trkpt lat="43.63472" lon="6.64235">
        <ele>423.2</ele>
        <time>2023-11-26T14:14:42Z</time>
      </trkpt>
      <trkpt lat="43.63472" lon="6.64235">
        <ele>423.3</ele>
        <time>2023-11-26T14:14:43Z</time>
      </trkpt>
      <trkpt lat="43.63473" lon="6.64235">
        <ele>423.4</ele>
        <time>2023-11-26T14:14:44Z</time>
      </trkpt>
      <trkpt lat="43.63473" lon="6.64235">
        <ele>423.5</ele>
        <time>2023-11-26T14:14:45Z</time>
      </trkpt>
      <trkpt lat="43.63473" lon="6.64235">
        <ele>423.6</ele>
        <time>2023-11-26T14:14:46Z</time>
      </trkpt>
      <trkpt lat="43.63473" lon="6.64235">
        <ele>423.6</ele>
        <time>2023-11-26T14:14:47Z</time>
      </trkpt>
      <trkpt lat="43.63473" lon="6.64236">
        <ele>423.6</ele>
        <time>2023-11-26T14:14:48Z</time>
      </trkpt>
      <trkpt lat="43.63472" lon="6.64236">
        <ele>423.6</ele>
        <time>2023-11-26T14:14:49Z</time>
      </trkpt>
      <trkpt lat="43.63472" lon="6.64236">
        <ele>423.6</ele>
        <time>2023-11-26T14:14:50Z</time>
      </trkpt>
      <trkpt lat="43.63472" lon="6.64236">
        <ele>423.5</ele>
        <time>2023-11-26T14:14:51Z</time>
      </trkpt>
      <trkpt lat="43.63473" lon="6.64236">
        <ele>423.4</ele>
        <time>2023-11-26T14:14:52Z</time>
      </trkpt>
      <trkpt lat="43.63473" lon="6.64236">
        <ele>423.5</ele>
        <time>2023-11-26T14:14:53Z</time>
      </trkpt>
      <trkpt lat="43.63473" lon="6.64236">
        <ele>423.5</ele>
        <time>2023-11-26T14:14:54Z</time>
      </trkpt>
      <trkpt lat="43.63473" lon="6.64236">
        <ele>423.5</ele>
        <time>2023-11-26T14:14:55Z</time>
      </trkpt>
      <trkpt lat="43.63473" lon="6.64236">
        <ele>423.5</ele>
        <time>2023-11-26T14:14:56Z</time>
      </trkpt>
      <trkpt lat="43.63473" lon="6.64236">
        <ele>423.4</ele>
        <time>2023-11-26T14:14:57Z</time>
      </trkpt>
      <trkpt lat="43.63473" lon="6.64236">
        <ele>423.4</ele>
        <time>2023-11-26T14:14:58Z</time>
      </trkpt>
      <trkpt lat="43.63473" lon="6.64236">
        <ele>423.3</ele>
        <time>2023-11-26T14:14:59Z</time>
      </trkpt>
      <trkpt lat="43.63473" lon="6.64236">
        <ele>423.4</ele>
        <time>2023-11-26T14:15:00Z</time>
      </trkpt>
      <trkpt lat="43.63473" lon="6.64236">
        <ele>423.4</ele>
        <time>2023-11-26T14:15:01Z</time>
      </trkpt>
      <trkpt lat="43.63473" lon="6.64236">
        <ele>423.3</ele>
        <time>2023-11-26T14:15:02Z</time>
      </trkpt>
      <trkpt lat="43.63473" lon="6.64236">
        <ele>423.3</ele>
        <time>2023-11-26T14:15:03Z</time>
      </trkpt>
      <trkpt lat="43.63473" lon="6.64236">
        <ele>423.3</ele>
        <time>2023-11-26T14:15:04Z</time>
      </trkpt>
      <trkpt lat="43.63473" lon="6.64237">
        <ele>423.3</ele>
        <time>2023-11-26T14:15:05Z</time>
      </trkpt>
      <trkpt lat="43.63473" lon="6.64236">
        <ele>423.3</ele>
        <time>2023-11-26T14:15:06Z</time>
      </trkpt>
      <trkpt lat="43.63472" lon="6.64236">
        <ele>423.2</ele>
        <time>2023-11-26T14:15:07Z</time>
      </trkpt>
      <trkpt lat="43.63472" lon="6.64237">
        <ele>423.2</ele>
        <time>2023-11-26T14:15:08Z</time>
      </trkpt>
      <trkpt lat="43.63472" lon="6.64237">
        <ele>423.1</ele>
        <time>2023-11-26T14:15:09Z</time>
      </trkpt>
      <trkpt lat="43.63472" lon="6.64237">
        <ele>423.1</ele>
        <time>2023-11-26T14:15:10Z</time>
      </trkpt>
      <trkpt lat="43.63472" lon="6.64237">
        <ele>423.1</ele>
        <time>2023-11-26T14:15:11Z</time>
      </trkpt>
      <trkpt lat="43.63472" lon="6.64237">
        <ele>423.1</ele>
        <time>2023-11-26T14:15:12Z</time>
      </trkpt>
      <trkpt lat="43.63473" lon="6.64237">
        <ele>423.1</ele>
        <time>2023-11-26T14:15:13Z</time>
      </trkpt>
      <trkpt lat="43.63473" lon="6.64237">
        <ele>423.1</ele>
        <time>2023-11-26T14:15:14Z</time>
      </trkpt>
      <trkpt lat="43.63473" lon="6.64237">
        <ele>423.1</ele>
        <time>2023-11-26T14:15:15Z</time>
      </trkpt>
      <trkpt lat="43.63473" lon="6.64237">
        <ele>423.1</ele>
        <time>2023-11-26T14:15:16Z</time>
      </trkpt>
      <trkpt lat="43.63473" lon="6.64237">
        <ele>423.2</ele>
        <time>2023-11-26T14:15:17Z</time>
      </trkpt>
      <trkpt lat="43.63473" lon="6.64237">
        <ele>423.2</ele>
        <time>2023-11-26T14:15:18Z</time>
      </trkpt>
      <trkpt lat="43.63473" lon="6.64237">
        <ele>423.2</ele>
        <time>2023-11-26T14:15:19Z</time>
      </trkpt>
      <trkpt lat="43.63473" lon="6.64237">
        <ele>423.2</ele>
        <time>2023-11-26T14:15:20Z</time>
      </trkpt>
      <trkpt lat="43.63473" lon="6.64237">
        <ele>423.3</ele>
        <time>2023-11-26T14:15:21Z</time>
      </trkpt>
      <trkpt lat="43.63473" lon="6.64237">
        <ele>423.4</ele>
        <time>2023-11-26T14:15:22Z</time>
      </trkpt>
      <trkpt lat="43.63473" lon="6.64237">
        <ele>423.4</ele>
        <time>2023-11-26T14:15:23Z</time>
      </trkpt>
      <trkpt lat="43.63473" lon="6.64237">
        <ele>423.5</ele>
        <time>2023-11-26T14:15:24Z</time>
      </trkpt>
      <trkpt lat="43.63473" lon="6.64237">
        <ele>423.5</ele>
        <time>2023-11-26T14:15:25Z</time>
      </trkpt>
      <trkpt lat="43.63473" lon="6.64237">
        <ele>423.5</ele>
        <time>2023-11-26T14:15:26Z</time>
      </trkpt>
      <trkpt lat="43.63473" lon="6.64237">
        <ele>423.5</ele>
        <time>2023-11-26T14:15:27Z</time>
      </trkpt>
      <trkpt lat="43.63473" lon="6.64237">
        <ele>423.5</ele>
        <time>2023-11-26T14:15:28Z</time>
      </trkpt>
      <trkpt lat="43.63473" lon="6.64238">
        <ele>423.5</ele>
        <time>2023-11-26T14:15:29Z</time>
      </trkpt>
      <trkpt lat="43.63473" lon="6.64238">
        <ele>423.5</ele>
        <time>2023-11-26T14:15:30Z</time>
      </trkpt>
      <trkpt lat="43.63473" lon="6.64238">
        <ele>423.4</ele>
        <time>2023-11-26T14:15:31Z</time>
      </trkpt>
      <trkpt lat="43.63474" lon="6.64238">
        <ele>423.4</ele>
        <time>2023-11-26T14:15:32Z</time>
      </trkpt>
      <trkpt lat="43.63473" lon="6.64239">
        <ele>423.3</ele>
        <time>2023-11-26T14:15:33Z</time>
      </trkpt>
      <trkpt lat="43.63473" lon="6.64239">
        <ele>423.3</ele>
        <time>2023-11-26T14:15:34Z</time>
      </trkpt>
      <trkpt lat="43.63473" lon="6.64239">
        <ele>423.3</ele>
        <time>2023-11-26T14:15:35Z</time>
      </trkpt>
      <trkpt lat="43.63473" lon="6.64239">
        <ele>423.3</ele>
        <time>2023-11-26T14:15:36Z</time>
      </trkpt>
      <trkpt lat="43.63473" lon="6.64239">
        <ele>423.3</ele>
        <time>2023-11-26T14:15:37Z</time>
      </trkpt>
      <trkpt lat="43.63473" lon="6.64239">
        <ele>423.3</ele>
        <time>2023-11-26T14:15:38Z</time>
      </trkpt>
      <trkpt lat="43.63473" lon="6.64238">
        <ele>423.4</ele>
        <time>2023-11-26T14:15:39Z</time>
      </trkpt>
      <trkpt lat="43.63473" lon="6.64238">
        <ele>423.4</ele>
        <time>2023-11-26T14:15:40Z</time>
      </trkpt>
      <trkpt lat="43.63473" lon="6.64238">
        <ele>423.4</ele>
        <time>2023-11-26T14:15:41Z</time>
      </trkpt>
      <trkpt lat="43.63473" lon="6.64238">
        <ele>423.4</ele>
        <time>2023-11-26T14:15:42Z</time>
      </trkpt>
      <trkpt lat="43.63473" lon="6.64238">
        <ele>423.5</ele>
        <time>2023-11-26T14:15:43Z</time>
      </trkpt>
      <trkpt lat="43.63473" lon="6.64238">
        <ele>423.4</ele>
        <time>2023-11-26T14:15:44Z</time>
      </trkpt>
      <trkpt lat="43.63473" lon="6.64238">
        <ele>423.4</ele>
        <time>2023-11-26T14:15:45Z</time>
      </trkpt>
      <trkpt lat="43.63473" lon="6.64238">
        <ele>423.4</ele>
        <time>2023-11-26T14:15:46Z</time>
      </trkpt>
      <trkpt lat="43.63473" lon="6.64237">
        <ele>423.4</ele>
        <time>2023-11-26T14:15:47Z</time>
      </trkpt>
      <trkpt lat="43.63473" lon="6.64237">
        <ele>423.4</ele>
        <time>2023-11-26T14:15:48Z</time>
      </trkpt>
      <trkpt lat="43.63473" lon="6.64238">
        <ele>423.3</ele>
        <time>2023-11-26T14:15:49Z</time>
      </trkpt>
      <trkpt lat="43.63473" lon="6.64238">
        <ele>423.2</ele>
        <time>2023-11-26T14:15:50Z</time>
      </trkpt>
      <trkpt lat="43.63473" lon="6.64238">
        <ele>423.2</ele>
        <time>2023-11-26T14:15:51Z</time>
      </trkpt>
      <trkpt lat="43.63473" lon="6.64238">
        <ele>423.2</ele>
        <time>2023-11-26T14:15:52Z</time>
      </trkpt>
      <trkpt lat="43.63473" lon="6.64238">
        <ele>423.3</ele>
        <time>2023-11-26T14:15:53Z</time>
      </trkpt>
      <trkpt lat="43.63473" lon="6.64238">
        <ele>423.4</ele>
        <time>2023-11-26T14:15:54Z</time>
      </trkpt>
      <trkpt lat="43.63473" lon="6.64238">
        <ele>423.4</ele>
        <time>2023-11-26T14:15:55Z</time>
      </trkpt>
      <trkpt lat="43.63473" lon="6.64238">
        <ele>423.4</ele>
        <time>2023-11-26T14:15:56Z</time>
      </trkpt>
      <trkpt lat="43.63473" lon="6.64238">
        <ele>423.5</ele>
        <time>2023-11-26T14:15:57Z</time>
      </trkpt>
      <trkpt lat="43.63473" lon="6.64238">
        <ele>423.5</ele>
        <time>2023-11-26T14:15:58Z</time>
      </trkpt>
      <trkpt lat="43.63473" lon="6.64238">
        <ele>423.6</ele>
        <time>2023-11-26T14:15:59Z</time>
      </trkpt>
      <trkpt lat="43.63473" lon="6.64238">
        <ele>423.6</ele>
        <time>2023-11-26T14:16:00Z</time>
      </trkpt>
      <trkpt lat="43.63474" lon="6.64238">
        <ele>423.6</ele>
        <time>2023-11-26T14:16:01Z</time>
      </trkpt>
      <trkpt lat="43.63474" lon="6.64238">
        <ele>423.6</ele>
        <time>2023-11-26T14:16:02Z</time>
      </trkpt>
      <trkpt lat="43.63474" lon="6.64238">
        <ele>423.5</ele>
        <time>2023-11-26T14:16:03Z</time>
      </trkpt>
      <trkpt lat="43.63474" lon="6.64238">
        <ele>423.5</ele>
        <time>2023-11-26T14:16:04Z</time>
      </trkpt>
      <trkpt lat="43.63474" lon="6.64237">
        <ele>423.4</ele>
        <time>2023-11-26T14:16:05Z</time>
      </trkpt>
      <trkpt lat="43.63474" lon="6.64238">
        <ele>423.4</ele>
        <time>2023-11-26T14:16:06Z</time>
      </trkpt>
      <trkpt lat="43.63474" lon="6.64238">
        <ele>423.4</ele>
        <time>2023-11-26T14:16:07Z</time>
      </trkpt>
      <trkpt lat="43.63474" lon="6.64238">
        <ele>423.3</ele>
        <time>2023-11-26T14:16:08Z</time>
      </trkpt>
      <trkpt lat="43.63474" lon="6.64237">
        <ele>423.3</ele>
        <time>2023-11-26T14:16:09Z</time>
      </trkpt>
      <trkpt lat="43.63474" lon="6.64238">
        <ele>423.3</ele>
        <time>2023-11-26T14:16:10Z</time>
      </trkpt>
      <trkpt lat="43.63474" lon="6.64238">
        <ele>423.3</ele>
        <time>2023-11-26T14:16:11Z</time>
      </trkpt>
      <trkpt lat="43.63474" lon="6.64238">
        <ele>423.3</ele>
        <time>2023-11-26T14:16:12Z</time>
      </trkpt>
      <trkpt lat="43.63474" lon="6.64238">
        <ele>423.2</ele>
        <time>2023-11-26T14:16:13Z</time>
      </trkpt>
      <trkpt lat="43.63474" lon="6.64238">
        <ele>423.2</ele>
        <time>2023-11-26T14:16:14Z</time>
      </trkpt>
      <trkpt lat="43.63474" lon="6.64238">
        <ele>423.3</ele>
        <time>2023-11-26T14:16:15Z</time>
      </trkpt>
      <trkpt lat="43.63474" lon="6.64238">
        <ele>423.3</ele>
        <time>2023-11-26T14:16:16Z</time>
      </trkpt>
      <trkpt lat="43.63474" lon="6.64238">
        <ele>423.2</ele>
        <time>2023-11-26T14:16:17Z</time>
      </trkpt>
      <trkpt lat="43.63474" lon="6.64238">
        <ele>423.2</ele>
        <time>2023-11-26T14:16:18Z</time>
      </trkpt>
      <trkpt lat="43.63474" lon="6.64238">
        <ele>423.2</ele>
        <time>2023-11-26T14:16:19Z</time>
      </trkpt>
      <trkpt lat="43.63474" lon="6.64238">
        <ele>423.2</ele>
        <time>2023-11-26T14:16:20Z</time>
      </trkpt>
      <trkpt lat="43.63474" lon="6.64238">
        <ele>423.2</ele>
        <time>2023-11-26T14:16:21Z</time>
      </trkpt>
      <trkpt lat="43.63474" lon="6.64239">
        <ele>423.1</ele>
        <time>2023-11-26T14:16:22Z</time>
      </trkpt>
      <trkpt lat="43.63474" lon="6.64239">
        <ele>423.1</ele>
        <time>2023-11-26T14:16:23Z</time>
      </trkpt>
      <trkpt lat="43.63474" lon="6.64239">
        <ele>423.1</ele>
        <time>2023-11-26T14:16:24Z</time>
      </trkpt>
      <trkpt lat="43.63474" lon="6.64239">
        <ele>423.1</ele>
        <time>2023-11-26T14:16:25Z</time>
      </trkpt>
      <trkpt lat="43.63474" lon="6.64238">
        <ele>423.1</ele>
        <time>2023-11-26T14:16:26Z</time>
      </trkpt>
      <trkpt lat="43.63473" lon="6.64238">
        <ele>423.2</ele>
        <time>2023-11-26T14:16:27Z</time>
      </trkpt>
      <trkpt lat="43.63473" lon="6.64238">
        <ele>423.3</ele>
        <time>2023-11-26T14:16:28Z</time>
      </trkpt>
      <trkpt lat="43.63474" lon="6.64238">
        <ele>423.3</ele>
        <time>2023-11-26T14:16:29Z</time>
      </trkpt>
      <trkpt lat="43.63474" lon="6.64238">
        <ele>423.2</ele>
        <time>2023-11-26T14:16:30Z</time>
      </trkpt>
      <trkpt lat="43.63473" lon="6.64238">
        <ele>423.2</ele>
        <time>2023-11-26T14:16:31Z</time>
      </trkpt>
      <trkpt lat="43.63473" lon="6.64238">
        <ele>423.2</ele>
        <time>2023-11-26T14:16:32Z</time>
      </trkpt>
      <trkpt lat="43.63473" lon="6.64238">
        <ele>423.3</ele>
        <time>2023-11-26T14:16:33Z</time>
      </trkpt>
      <trkpt lat="43.63473" lon="6.64238">
        <ele>423.3</ele>
        <time>2023-11-26T14:16:34Z</time>
      </trkpt>
      <trkpt lat="43.63473" lon="6.64237">
        <ele>423.4</ele>
        <time>2023-11-26T14:16:35Z</time>
      </trkpt>
      <trkpt lat="43.63473" lon="6.64237">
        <ele>423.4</ele>
        <time>2023-11-26T14:16:36Z</time>
      </trkpt>
      <trkpt lat="43.63473" lon="6.64238">
        <ele>423.5</ele>
        <time>2023-11-26T14:16:37Z</time>
      </trkpt>
      <trkpt lat="43.63473" lon="6.64237">
        <ele>423.4</ele>
        <time>2023-11-26T14:16:38Z</time>
      </trkpt>
      <trkpt lat="43.63473" lon="6.64237">
        <ele>423.4</ele>
        <time>2023-11-26T14:16:39Z</time>
      </trkpt>
      <trkpt lat="43.63473" lon="6.64237">
        <ele>423.3</ele>
        <time>2023-11-26T14:16:40Z</time>
      </trkpt>
      <trkpt lat="43.63473" lon="6.64237">
        <ele>423.3</ele>
        <time>2023-11-26T14:16:41Z</time>
      </trkpt>
      <trkpt lat="43.63473" lon="6.64237">
        <ele>423.4</ele>
        <time>2023-11-26T14:16:42Z</time>
      </trkpt>
      <trkpt lat="43.63473" lon="6.64237">
        <ele>423.4</ele>
        <time>2023-11-26T14:16:43Z</time>
      </trkpt>
      <trkpt lat="43.63473" lon="6.64237">
        <ele>423.4</ele>
        <time>2023-11-26T14:16:44Z</time>
      </trkpt>
      <trkpt lat="43.63473" lon="6.64237">
        <ele>423.4</ele>
        <time>2023-11-26T14:16:45Z</time>
      </trkpt>
      <trkpt lat="43.63473" lon="6.64237">
        <ele>423.4</ele>
        <time>2023-11-26T14:16:46Z</time>
      </trkpt>
      <trkpt lat="43.63473" lon="6.64237">
        <ele>423.5</ele>
        <time>2023-11-26T14:16:47Z</time>
      </trkpt>
      <trkpt lat="43.63473" lon="6.64237">
        <ele>423.5</ele>
        <time>2023-11-26T14:16:48Z</time>
      </trkpt>
      <trkpt lat="43.63473" lon="6.64238">
        <ele>423.6</ele>
        <time>2023-11-26T14:16:49Z</time>
      </trkpt>
      <trkpt lat="43.63473" lon="6.64238">
        <ele>423.6</ele>
        <time>2023-11-26T14:16:50Z</time>
      </trkpt>
      <trkpt lat="43.63473" lon="6.64237">
        <ele>423.6</ele>
        <time>2023-11-26T14:16:51Z</time>
      </trkpt>
      <trkpt lat="43.63472" lon="6.64238">
        <ele>423.7</ele>
        <time>2023-11-26T14:16:52Z</time>
      </trkpt>
      <trkpt lat="43.63472" lon="6.64237">
        <ele>423.7</ele>
        <time>2023-11-26T14:16:53Z</time>
      </trkpt>
      <trkpt lat="43.63472" lon="6.64237">
        <ele>423.7</ele>
        <time>2023-11-26T14:16:54Z</time>
      </trkpt>
      <trkpt lat="43.63472" lon="6.64238">
        <ele>423.6</ele>
        <time>2023-11-26T14:16:55Z</time>
      </trkpt>
      <trkpt lat="43.63472" lon="6.64238">
        <ele>423.5</ele>
        <time>2023-11-26T14:16:56Z</time>
      </trkpt>
      <trkpt lat="43.63472" lon="6.64238">
        <ele>423.5</ele>
        <time>2023-11-26T14:16:57Z</time>
      </trkpt>
      <trkpt lat="43.63472" lon="6.64238">
        <ele>423.5</ele>
        <time>2023-11-26T14:16:58Z</time>
      </trkpt>
      <trkpt lat="43.63472" lon="6.64238">
        <ele>423.5</ele>
        <time>2023-11-26T14:16:59Z</time>
      </trkpt>
      <trkpt lat="43.63472" lon="6.64238">
        <ele>423.5</ele>
        <time>2023-11-26T14:17:00Z</time>
      </trkpt>
      <trkpt lat="43.63472" lon="6.64238">
        <ele>423.5</ele>
        <time>2023-11-26T14:17:01Z</time>
      </trkpt>
      <trkpt lat="43.63472" lon="6.64238">
        <ele>423.5</ele>
        <time>2023-11-26T14:17:02Z</time>
      </trkpt>
      <trkpt lat="43.63472" lon="6.64238">
        <ele>423.6</ele>
        <time>2023-11-26T14:17:03Z</time>
      </trkpt>
      <trkpt lat="43.63472" lon="6.64238">
        <ele>423.7</ele>
        <time>2023-11-26T14:17:04Z</time>
      </trkpt>
      <trkpt lat="43.63472" lon="6.64238">
        <ele>423.7</ele>
        <time>2023-11-26T14:17:05Z</time>
      </trkpt>
      <trkpt lat="43.63472" lon="6.64238">
        <ele>423.7</ele>
        <time>2023-11-26T14:17:06Z</time>
      </trkpt>
      <trkpt lat="43.63471" lon="6.64238">
        <ele>423.7</ele>
        <time>2023-11-26T14:17:07Z</time>
      </trkpt>
      <trkpt lat="43.63471" lon="6.64238">
        <ele>423.7</ele>
        <time>2023-11-26T14:17:08Z</time>
      </trkpt>
      <trkpt lat="43.63471" lon="6.64238">
        <ele>423.7</ele>
        <time>2023-11-26T14:17:09Z</time>
      </trkpt>
      <trkpt lat="43.63471" lon="6.64238">
        <ele>423.7</ele>
        <time>2023-11-26T14:17:10Z</time>
      </trkpt>
      <trkpt lat="43.6347" lon="6.64238">
        <ele>423.8</ele>
        <time>2023-11-26T14:17:11Z</time>
      </trkpt>
      <trkpt lat="43.6347" lon="6.64238">
        <ele>423.7</ele>
        <time>2023-11-26T14:17:12Z</time>
      </trkpt>
      <trkpt lat="43.6347" lon="6.64238">
        <ele>423.7</ele>
        <time>2023-11-26T14:17:13Z</time>
      </trkpt>
      <trkpt lat="43.6347" lon="6.64238">
        <ele>423.7</ele>
        <time>2023-11-26T14:17:14Z</time>
      </trkpt>
      <trkpt lat="43.63469" lon="6.64238">
        <ele>423.6</ele>
        <time>2023-11-26T14:17:15Z</time>
      </trkpt>
      <trkpt lat="43.63469" lon="6.64238">
        <ele>423.6</ele>
        <time>2023-11-26T14:17:16Z</time>
      </trkpt>
      <trkpt lat="43.63469" lon="6.64238">
        <ele>423.6</ele>
        <time>2023-11-26T14:17:17Z</time>
      </trkpt>
      <trkpt lat="43.63469" lon="6.64238">
        <ele>423.5</ele>
        <time>2023-11-26T14:17:18Z</time>
      </trkpt>
      <trkpt lat="43.6347" lon="6.64238">
        <ele>423.5</ele>
        <time>2023-11-26T14:17:19Z</time>
      </trkpt>
      <trkpt lat="43.6347" lon="6.64238">
        <ele>423.5</ele>
        <time>2023-11-26T14:17:20Z</time>
      </trkpt>
      <trkpt lat="43.63471" lon="6.64238">
        <ele>423.5</ele>
        <time>2023-11-26T14:17:21Z</time>
      </trkpt>
      <trkpt lat="43.63472" lon="6.64239">
        <ele>423.5</ele>
        <time>2023-11-26T14:17:22Z</time>
      </trkpt>
      <trkpt lat="43.63472" lon="6.64239">
        <ele>423.4</ele>
        <time>2023-11-26T14:17:23Z</time>
      </trkpt>
      <trkpt lat="43.63473" lon="6.6424">
        <ele>423.4</ele>
        <time>2023-11-26T14:17:24Z</time>
      </trkpt>
      <trkpt lat="43.63473" lon="6.6424">
        <ele>423.4</ele>
        <time>2023-11-26T14:17:25Z</time>
      </trkpt>
      <trkpt lat="43.63474" lon="6.6424">
        <ele>423.4</ele>
        <time>2023-11-26T14:17:26Z</time>
      </trkpt>
      <trkpt lat="43.63475" lon="6.64241">
        <ele>423.4</ele>
        <time>2023-11-26T14:17:27Z</time>
      </trkpt>
      <trkpt lat="43.63476" lon="6.64241">
        <ele>423.3</ele>
        <time>2023-11-26T14:17:28Z</time>
      </trkpt>
      <trkpt lat="43.63478" lon="6.64241">
        <ele>423.3</ele>
        <time>2023-11-26T14:17:29Z</time>
      </trkpt>
      <trkpt lat="43.63479" lon="6.64241">
        <ele>423.2</ele>
        <time>2023-11-26T14:17:30Z</time>
      </trkpt>
      <trkpt lat="43.63479" lon="6.64241">
        <ele>423.2</ele>
        <time>2023-11-26T14:17:31Z</time>
      </trkpt>
      <trkpt lat="43.6348" lon="6.6424">
        <ele>423.2</ele>
        <time>2023-11-26T14:17:32Z</time>
      </trkpt>
      <trkpt lat="43.63481" lon="6.64239">
        <ele>423.1</ele>
        <time>2023-11-26T14:17:33Z</time>
      </trkpt>
      <trkpt lat="43.63481" lon="6.64238">
        <ele>423.1</ele>
        <time>2023-11-26T14:17:34Z</time>
      </trkpt>
      <trkpt lat="43.63482" lon="6.64238">
        <ele>423.1</ele>
        <time>2023-11-26T14:17:35Z</time>
      </trkpt>
      <trkpt lat="43.63483" lon="6.64237">
        <ele>423.1</ele>
        <time>2023-11-26T14:17:36Z</time>
      </trkpt>
      <trkpt lat="43.63483" lon="6.64237">
        <ele>423.1</ele>
        <time>2023-11-26T14:17:37Z</time>
      </trkpt>
      <trkpt lat="43.63484" lon="6.64237">
        <ele>423.1</ele>
        <time>2023-11-26T14:17:38Z</time>
      </trkpt>
      <trkpt lat="43.63484" lon="6.64236">
        <ele>423.1</ele>
        <time>2023-11-26T14:17:39Z</time>
      </trkpt>
      <trkpt lat="43.63485" lon="6.64237">
        <ele>423.1</ele>
        <time>2023-11-26T14:17:40Z</time>
      </trkpt>
      <trkpt lat="43.63485" lon="6.64237">
        <ele>423.2</ele>
        <time>2023-11-26T14:17:41Z</time>
      </trkpt>
      <trkpt lat="43.63485" lon="6.64238">
        <ele>423.1</ele>
        <time>2023-11-26T14:17:42Z</time>
      </trkpt>
      <trkpt lat="43.63486" lon="6.64238">
        <ele>423</ele>
        <time>2023-11-26T14:17:43Z</time>
      </trkpt>
      <trkpt lat="43.63486" lon="6.64239">
        <ele>423</ele>
        <time>2023-11-26T14:17:44Z</time>
      </trkpt>
      <trkpt lat="43.63487" lon="6.6424">
        <ele>423</ele>
        <time>2023-11-26T14:17:45Z</time>
      </trkpt>
      <trkpt lat="43.63487" lon="6.6424">
        <ele>423.1</ele>
        <time>2023-11-26T14:17:46Z</time>
      </trkpt>
      <trkpt lat="43.63487" lon="6.6424">
        <ele>423.1</ele>
        <time>2023-11-26T14:17:47Z</time>
      </trkpt>
      <trkpt lat="43.63486" lon="6.6424">
        <ele>423.1</ele>
        <time>2023-11-26T14:17:48Z</time>
      </trkpt>
      <trkpt lat="43.63486" lon="6.64241">
        <ele>423.1</ele>
        <time>2023-11-26T14:17:49Z</time>
      </trkpt>
      <trkpt lat="43.63486" lon="6.6424">
        <ele>423</ele>
        <time>2023-11-26T14:17:50Z</time>
      </trkpt>
      <trkpt lat="43.63486" lon="6.6424">
        <ele>422.9</ele>
        <time>2023-11-26T14:17:51Z</time>
      </trkpt>
      <trkpt lat="43.63486" lon="6.6424">
        <ele>423</ele>
        <time>2023-11-26T14:17:52Z</time>
      </trkpt>
      <trkpt lat="43.63486" lon="6.6424">
        <ele>423</ele>
        <time>2023-11-26T14:17:53Z</time>
      </trkpt>
      <trkpt lat="43.63485" lon="6.6424">
        <ele>422.9</ele>
        <time>2023-11-26T14:17:54Z</time>
      </trkpt>
      <trkpt lat="43.63485" lon="6.64239">
        <ele>423</ele>
        <time>2023-11-26T14:17:55Z</time>
      </trkpt>
      <trkpt lat="43.63485" lon="6.64239">
        <ele>423</ele>
        <time>2023-11-26T14:17:56Z</time>
      </trkpt>
      <trkpt lat="43.63485" lon="6.64239">
        <ele>423</ele>
        <time>2023-11-26T14:17:57Z</time>
      </trkpt>
      <trkpt lat="43.63484" lon="6.64238">
        <ele>423</ele>
        <time>2023-11-26T14:17:58Z</time>
      </trkpt>
      <trkpt lat="43.63484" lon="6.64238">
        <ele>422.9</ele>
        <time>2023-11-26T14:17:59Z</time>
      </trkpt>
      <trkpt lat="43.63483" lon="6.64238">
        <ele>422.9</ele>
        <time>2023-11-26T14:18:00Z</time>
      </trkpt>
      <trkpt lat="43.63482" lon="6.64237">
        <ele>422.9</ele>
        <time>2023-11-26T14:18:01Z</time>
      </trkpt>
      <trkpt lat="43.63482" lon="6.64237">
        <ele>423</ele>
        <time>2023-11-26T14:18:02Z</time>
      </trkpt>
      <trkpt lat="43.63481" lon="6.64237">
        <ele>423</ele>
        <time>2023-11-26T14:18:03Z</time>
      </trkpt>
      <trkpt lat="43.63481" lon="6.64237">
        <ele>423</ele>
        <time>2023-11-26T14:18:04Z</time>
      </trkpt>
      <trkpt lat="43.6348" lon="6.64236">
        <ele>423</ele>
        <time>2023-11-26T14:18:05Z</time>
      </trkpt>
      <trkpt lat="43.63479" lon="6.64236">
        <ele>423.1</ele>
        <time>2023-11-26T14:18:06Z</time>
      </trkpt>
      <trkpt lat="43.63479" lon="6.64236">
        <ele>423.2</ele>
        <time>2023-11-26T14:18:07Z</time>
      </trkpt>
      <trkpt lat="43.63478" lon="6.64236">
        <ele>423.2</ele>
        <time>2023-11-26T14:18:08Z</time>
      </trkpt>
      <trkpt lat="43.63478" lon="6.64235">
        <ele>423.2</ele>
        <time>2023-11-26T14:18:09Z</time>
      </trkpt>
      <trkpt lat="43.63477" lon="6.64235">
        <ele>423.2</ele>
        <time>2023-11-26T14:18:10Z</time>
      </trkpt>
      <trkpt lat="43.63477" lon="6.64235">
        <ele>423.2</ele>
        <time>2023-11-26T14:18:11Z</time>
      </trkpt>
      <trkpt lat="43.63477" lon="6.64235">
        <ele>423.2</ele>
        <time>2023-11-26T14:18:12Z</time>
      </trkpt>
      <trkpt lat="43.63477" lon="6.64235">
        <ele>423.2</ele>
        <time>2023-11-26T14:18:13Z</time>
      </trkpt>
      <trkpt lat="43.63477" lon="6.64236">
        <ele>423.2</ele>
        <time>2023-11-26T14:18:14Z</time>
      </trkpt>
      <trkpt lat="43.63477" lon="6.64237">
        <ele>423.2</ele>
        <time>2023-11-26T14:18:15Z</time>
      </trkpt>
      <trkpt lat="43.63477" lon="6.64237">
        <ele>423.1</ele>
        <time>2023-11-26T14:18:16Z</time>
      </trkpt>
      <trkpt lat="43.63477" lon="6.64236">
        <ele>423.1</ele>
        <time>2023-11-26T14:18:17Z</time>
      </trkpt>
      <trkpt lat="43.63477" lon="6.64237">
        <ele>423.1</ele>
        <time>2023-11-26T14:18:18Z</time>
      </trkpt>
      <trkpt lat="43.63477" lon="6.64237">
        <ele>423.1</ele>
        <time>2023-11-26T14:18:19Z</time>
      </trkpt>
      <trkpt lat="43.63477" lon="6.64237">
        <ele>423.1</ele>
        <time>2023-11-26T14:18:20Z</time>
      </trkpt>
      <trkpt lat="43.63477" lon="6.64237">
        <ele>423.1</ele>
        <time>2023-11-26T14:18:21Z</time>
      </trkpt>
      <trkpt lat="43.63477" lon="6.64237">
        <ele>423</ele>
        <time>2023-11-26T14:18:22Z</time>
      </trkpt>
      <trkpt lat="43.63477" lon="6.64237">
        <ele>422.9</ele>
        <time>2023-11-26T14:18:23Z</time>
      </trkpt>
      <trkpt lat="43.63477" lon="6.64238">
        <ele>422.8</ele>
        <time>2023-11-26T14:18:24Z</time>
      </trkpt>
      <trkpt lat="43.63477" lon="6.64238">
        <ele>422.8</ele>
        <time>2023-11-26T14:18:25Z</time>
      </trkpt>
      <trkpt lat="43.63477" lon="6.64238">
        <ele>422.8</ele>
        <time>2023-11-26T14:18:26Z</time>
      </trkpt>
      <trkpt lat="43.63477" lon="6.64238">
        <ele>422.8</ele>
        <time>2023-11-26T14:18:27Z</time>
      </trkpt>
      <trkpt lat="43.63477" lon="6.64238">
        <ele>422.9</ele>
        <time>2023-11-26T14:18:28Z</time>
      </trkpt>
      <trkpt lat="43.63477" lon="6.64238">
        <ele>423</ele>
        <time>2023-11-26T14:18:29Z</time>
      </trkpt>
      <trkpt lat="43.63477" lon="6.64239">
        <ele>423</ele>
        <time>2023-11-26T14:18:30Z</time>
      </trkpt>
      <trkpt lat="43.63477" lon="6.64239">
        <ele>423</ele>
        <time>2023-11-26T14:18:31Z</time>
      </trkpt>
      <trkpt lat="43.63476" lon="6.64239">
        <ele>423</ele>
        <time>2023-11-26T14:18:32Z</time>
      </trkpt>
      <trkpt lat="43.63476" lon="6.64239">
        <ele>423.1</ele>
        <time>2023-11-26T14:18:33Z</time>
      </trkpt>
      <trkpt lat="43.63476" lon="6.64239">
        <ele>423.1</ele>
        <time>2023-11-26T14:18:34Z</time>
      </trkpt>
      <trkpt lat="43.63476" lon="6.64239">
        <ele>423.1</ele>
        <time>2023-11-26T14:18:35Z</time>
      </trkpt>
      <trkpt lat="43.63476" lon="6.64239">
        <ele>423.1</ele>
        <time>2023-11-26T14:18:36Z</time>
      </trkpt>
      <trkpt lat="43.63476" lon="6.64239">
        <ele>423.2</ele>
        <time>2023-11-26T14:18:37Z</time>
      </trkpt>
      <trkpt lat="43.63476" lon="6.64239">
        <ele>423.2</ele>
        <time>2023-11-26T14:18:38Z</time>
      </trkpt>
      <trkpt lat="43.63476" lon="6.64239">
        <ele>423.2</ele>
        <time>2023-11-26T14:18:39Z</time>
      </trkpt>
      <trkpt lat="43.63476" lon="6.64239">
        <ele>423.2</ele>
        <time>2023-11-26T14:18:40Z</time>
      </trkpt>
      <trkpt lat="43.63476" lon="6.64239">
        <ele>423.3</ele>
        <time>2023-11-26T14:18:41Z</time>
      </trkpt>
      <trkpt lat="43.63476" lon="6.6424">
        <ele>423.3</ele>
        <time>2023-11-26T14:18:42Z</time>
      </trkpt>
      <trkpt lat="43.63476" lon="6.6424">
        <ele>423.3</ele>
        <time>2023-11-26T14:18:43Z</time>
      </trkpt>
      <trkpt lat="43.63476" lon="6.6424">
        <ele>423.3</ele>
        <time>2023-11-26T14:18:44Z</time>
      </trkpt>
      <trkpt lat="43.63476" lon="6.6424">
        <ele>423.3</ele>
        <time>2023-11-26T14:18:45Z</time>
      </trkpt>
      <trkpt lat="43.63476" lon="6.6424">
        <ele>423.3</ele>
        <time>2023-11-26T14:18:46Z</time>
      </trkpt>
      <trkpt lat="43.63476" lon="6.6424">
        <ele>423.3</ele>
        <time>2023-11-26T14:18:47Z</time>
      </trkpt>
      <trkpt lat="43.63476" lon="6.6424">
        <ele>423.3</ele>
        <time>2023-11-26T14:18:48Z</time>
      </trkpt>
      <trkpt lat="43.63476" lon="6.6424">
        <ele>423.3</ele>
        <time>2023-11-26T14:18:49Z</time>
      </trkpt>
      <trkpt lat="43.63476" lon="6.6424">
        <ele>423.4</ele>
        <time>2023-11-26T14:18:50Z</time>
      </trkpt>
      <trkpt lat="43.63476" lon="6.6424">
        <ele>423.4</ele>
        <time>2023-11-26T14:18:51Z</time>
      </trkpt>
      <trkpt lat="43.63476" lon="6.6424">
        <ele>423.4</ele>
        <time>2023-11-26T14:18:52Z</time>
      </trkpt>
      <trkpt lat="43.63476" lon="6.64241">
        <ele>423.4</ele>
        <time>2023-11-26T14:18:53Z</time>
      </trkpt>
      <trkpt lat="43.63476" lon="6.64241">
        <ele>423.4</ele>
        <time>2023-11-26T14:18:54Z</time>
      </trkpt>
      <trkpt lat="43.63476" lon="6.64241">
        <ele>423.4</ele>
        <time>2023-11-26T14:18:55Z</time>
      </trkpt>
      <trkpt lat="43.63476" lon="6.64241">
        <ele>423.3</ele>
        <time>2023-11-26T14:18:56Z</time>
      </trkpt>
      <trkpt lat="43.63476" lon="6.64241">
        <ele>423.2</ele>
        <time>2023-11-26T14:18:57Z</time>
      </trkpt>
      <trkpt lat="43.63476" lon="6.64241">
        <ele>423.2</ele>
        <time>2023-11-26T14:18:58Z</time>
      </trkpt>
      <trkpt lat="43.63476" lon="6.64241">
        <ele>423.2</ele>
        <time>2023-11-26T14:18:59Z</time>
      </trkpt>
      <trkpt lat="43.63476" lon="6.64241">
        <ele>423.2</ele>
        <time>2023-11-26T14:19:00Z</time>
      </trkpt>
      <trkpt lat="43.63476" lon="6.64241">
        <ele>423.2</ele>
        <time>2023-11-26T14:19:01Z</time>
      </trkpt>
      <trkpt lat="43.63476" lon="6.64241">
        <ele>423.2</ele>
        <time>2023-11-26T14:19:02Z</time>
      </trkpt>
      <trkpt lat="43.63476" lon="6.64241">
        <ele>423.2</ele>
        <time>2023-11-26T14:19:03Z</time>
      </trkpt>
      <trkpt lat="43.63476" lon="6.64241">
        <ele>423.3</ele>
        <time>2023-11-26T14:19:04Z</time>
      </trkpt>
      <trkpt lat="43.63476" lon="6.64241">
        <ele>423.2</ele>
        <time>2023-11-26T14:19:05Z</time>
      </trkpt>
      <trkpt lat="43.63476" lon="6.64241">
        <ele>423.2</ele>
        <time>2023-11-26T14:19:06Z</time>
      </trkpt>
      <trkpt lat="43.63476" lon="6.64241">
        <ele>423.2</ele>
        <time>2023-11-26T14:19:07Z</time>
      </trkpt>
      <trkpt lat="43.63476" lon="6.64241">
        <ele>423.2</ele>
        <time>2023-11-26T14:19:08Z</time>
      </trkpt>
      <trkpt lat="43.63476" lon="6.64241">
        <ele>423.2</ele>
        <time>2023-11-26T14:19:09Z</time>
      </trkpt>
      <trkpt lat="43.63476" lon="6.64241">
        <ele>423.2</ele>
        <time>2023-11-26T14:19:10Z</time>
      </trkpt>
      <trkpt lat="43.63476" lon="6.64241">
        <ele>423.2</ele>
        <time>2023-11-26T14:19:11Z</time>
      </trkpt>
      <trkpt lat="43.63476" lon="6.64241">
        <ele>423.2</ele>
        <time>2023-11-26T14:19:12Z</time>
      </trkpt>
      <trkpt lat="43.63476" lon="6.64241">
        <ele>423.2</ele>
        <time>2023-11-26T14:19:13Z</time>
      </trkpt>
      <trkpt lat="43.63476" lon="6.64242">
        <ele>423.2</ele>
        <time>2023-11-26T14:19:14Z</time>
      </trkpt>
      <trkpt lat="43.63476" lon="6.64242">
        <ele>423.1</ele>
        <time>2023-11-26T14:19:15Z</time>
      </trkpt>
      <trkpt lat="43.63476" lon="6.64242">
        <ele>423.1</ele>
        <time>2023-11-26T14:19:16Z</time>
      </trkpt>
      <trkpt lat="43.63476" lon="6.64242">
        <ele>423.1</ele>
        <time>2023-11-26T14:19:17Z</time>
      </trkpt>
      <trkpt lat="43.63476" lon="6.64242">
        <ele>423.1</ele>
        <time>2023-11-26T14:19:18Z</time>
      </trkpt>
      <trkpt lat="43.63476" lon="6.64242">
        <ele>423.1</ele>
        <time>2023-11-26T14:19:19Z</time>
      </trkpt>
      <trkpt lat="43.63476" lon="6.64242">
        <ele>423.1</ele>
        <time>2023-11-26T14:19:20Z</time>
      </trkpt>
      <trkpt lat="43.63476" lon="6.64242">
        <ele>423.1</ele>
        <time>2023-11-26T14:19:21Z</time>
      </trkpt>
      <trkpt lat="43.63476" lon="6.64242">
        <ele>423.1</ele>
        <time>2023-11-26T14:19:22Z</time>
      </trkpt>
      <trkpt lat="43.63476" lon="6.64242">
        <ele>423.1</ele>
        <time>2023-11-26T14:19:23Z</time>
      </trkpt>
      <trkpt lat="43.63476" lon="6.64242">
        <ele>423.1</ele>
        <time>2023-11-26T14:19:24Z</time>
      </trkpt>
      <trkpt lat="43.63476" lon="6.64242">
        <ele>423.1</ele>
        <time>2023-11-26T14:19:25Z</time>
      </trkpt>
      <trkpt lat="43.63476" lon="6.64242">
        <ele>423.1</ele>
        <time>2023-11-26T14:19:26Z</time>
      </trkpt>
      <trkpt lat="43.63476" lon="6.64242">
        <ele>423.3</ele>
        <time>2023-11-26T14:19:27Z</time>
      </trkpt>
      <trkpt lat="43.63476" lon="6.64242">
        <ele>423.3</ele>
        <time>2023-11-26T14:19:28Z</time>
      </trkpt>
      <trkpt lat="43.63476" lon="6.64242">
        <ele>423.3</ele>
        <time>2023-11-26T14:19:29Z</time>
      </trkpt>
      <trkpt lat="43.63476" lon="6.64242">
        <ele>423.3</ele>
        <time>2023-11-26T14:19:30Z</time>
      </trkpt>
      <trkpt lat="43.63476" lon="6.64242">
        <ele>423.3</ele>
        <time>2023-11-26T14:19:31Z</time>
      </trkpt>
      <trkpt lat="43.63476" lon="6.64242">
        <ele>423.3</ele>
        <time>2023-11-26T14:19:32Z</time>
      </trkpt>
      <trkpt lat="43.63476" lon="6.64242">
        <ele>423.3</ele>
        <time>2023-11-26T14:19:33Z</time>
      </trkpt>
      <trkpt lat="43.63476" lon="6.64242">
        <ele>423.2</ele>
        <time>2023-11-26T14:19:34Z</time>
      </trkpt>
      <trkpt lat="43.63476" lon="6.64242">
        <ele>423.2</ele>
        <time>2023-11-26T14:19:35Z</time>
      </trkpt>
      <trkpt lat="43.63476" lon="6.64242">
        <ele>423.2</ele>
        <time>2023-11-26T14:19:36Z</time>
      </trkpt>
      <trkpt lat="43.63476" lon="6.64241">
        <ele>423.2</ele>
        <time>2023-11-26T14:19:37Z</time>
      </trkpt>
      <trkpt lat="43.63476" lon="6.64241">
        <ele>423.1</ele>
        <time>2023-11-26T14:19:38Z</time>
      </trkpt>
      <trkpt lat="43.63476" lon="6.64241">
        <ele>423.1</ele>
        <time>2023-11-26T14:19:39Z</time>
      </trkpt>
      <trkpt lat="43.63476" lon="6.64241">
        <ele>423.2</ele>
        <time>2023-11-26T14:19:40Z</time>
      </trkpt>
      <trkpt lat="43.63476" lon="6.64241">
        <ele>423.2</ele>
        <time>2023-11-26T14:19:41Z</time>
      </trkpt>
      <trkpt lat="43.63476" lon="6.64241">
        <ele>423.2</ele>
        <time>2023-11-26T14:19:42Z</time>
      </trkpt>
      <trkpt lat="43.63475" lon="6.64241">
        <ele>423.2</ele>
        <time>2023-11-26T14:19:43Z</time>
      </trkpt>
      <trkpt lat="43.63475" lon="6.64241">
        <ele>423.3</ele>
        <time>2023-11-26T14:19:44Z</time>
      </trkpt>
      <trkpt lat="43.63475" lon="6.64241">
        <ele>423.3</ele>
        <time>2023-11-26T14:19:45Z</time>
      </trkpt>
      <trkpt lat="43.63475" lon="6.64241">
        <ele>423.2</ele>
        <time>2023-11-26T14:19:46Z</time>
      </trkpt>
      <trkpt lat="43.63475" lon="6.64241">
        <ele>423.2</ele>
        <time>2023-11-26T14:19:47Z</time>
      </trkpt>
      <trkpt lat="43.63475" lon="6.64241">
        <ele>423.2</ele>
        <time>2023-11-26T14:19:48Z</time>
      </trkpt>
      <trkpt lat="43.63475" lon="6.64242">
        <ele>423.2</ele>
        <time>2023-11-26T14:19:49Z</time>
      </trkpt>
      <trkpt lat="43.63475" lon="6.64242">
        <ele>423.1</ele>
        <time>2023-11-26T14:19:50Z</time>
      </trkpt>
      <trkpt lat="43.63475" lon="6.64242">
        <ele>423.1</ele>
        <time>2023-11-26T14:19:51Z</time>
      </trkpt>
      <trkpt lat="43.63475" lon="6.64242">
        <ele>423.1</ele>
        <time>2023-11-26T14:19:52Z</time>
      </trkpt>
      <trkpt lat="43.63475" lon="6.64242">
        <ele>423.2</ele>
        <time>2023-11-26T14:19:53Z</time>
      </trkpt>
      <trkpt lat="43.63475" lon="6.64242">
        <ele>423.1</ele>
        <time>2023-11-26T14:19:54Z</time>
      </trkpt>
      <trkpt lat="43.63475" lon="6.64242">
        <ele>423.1</ele>
        <time>2023-11-26T14:19:55Z</time>
      </trkpt>
      <trkpt lat="43.63475" lon="6.64242">
        <ele>423.1</ele>
        <time>2023-11-26T14:19:56Z</time>
      </trkpt>
      <trkpt lat="43.63475" lon="6.64242">
        <ele>423.1</ele>
        <time>2023-11-26T14:19:57Z</time>
      </trkpt>
      <trkpt lat="43.63475" lon="6.64242">
        <ele>423.1</ele>
        <time>2023-11-26T14:19:58Z</time>
      </trkpt>
      <trkpt lat="43.63475" lon="6.64242">
        <ele>423.1</ele>
        <time>2023-11-26T14:19:59Z</time>
      </trkpt>
      <trkpt lat="43.63475" lon="6.64242">
        <ele>423.2</ele>
        <time>2023-11-26T14:20:00Z</time>
      </trkpt>
      <trkpt lat="43.63475" lon="6.64242">
        <ele>423.3</ele>
        <time>2023-11-26T14:20:01Z</time>
      </trkpt>
      <trkpt lat="43.63475" lon="6.64242">
        <ele>423.3</ele>
        <time>2023-11-26T14:20:02Z</time>
      </trkpt>
      <trkpt lat="43.63475" lon="6.64242">
        <ele>423.4</ele>
        <time>2023-11-26T14:20:03Z</time>
      </trkpt>
      <trkpt lat="43.63475" lon="6.64242">
        <ele>423.3</ele>
        <time>2023-11-26T14:20:04Z</time>
      </trkpt>
      <trkpt lat="43.63475" lon="6.64242">
        <ele>423.3</ele>
        <time>2023-11-26T14:20:05Z</time>
      </trkpt>
      <trkpt lat="43.63475" lon="6.64242">
        <ele>423.3</ele>
        <time>2023-11-26T14:20:06Z</time>
      </trkpt>
      <trkpt lat="43.63475" lon="6.64242">
        <ele>423.3</ele>
        <time>2023-11-26T14:20:07Z</time>
      </trkpt>
      <trkpt lat="43.63475" lon="6.64242">
        <ele>423.4</ele>
        <time>2023-11-26T14:20:08Z</time>
      </trkpt>
      <trkpt lat="43.63475" lon="6.64241">
        <ele>423.3</ele>
        <time>2023-11-26T14:20:09Z</time>
      </trkpt>
      <trkpt lat="43.63475" lon="6.64241">
        <ele>423.3</ele>
        <time>2023-11-26T14:20:10Z</time>
      </trkpt>
      <trkpt lat="43.63475" lon="6.64241">
        <ele>423.2</ele>
        <time>2023-11-26T14:20:11Z</time>
      </trkpt>
      <trkpt lat="43.63475" lon="6.64241">
        <ele>423.2</ele>
        <time>2023-11-26T14:20:12Z</time>
      </trkpt>
      <trkpt lat="43.63475" lon="6.64241">
        <ele>423.2</ele>
        <time>2023-11-26T14:20:13Z</time>
      </trkpt>
      <trkpt lat="43.63475" lon="6.64241">
        <ele>423.2</ele>
        <time>2023-11-26T14:20:14Z</time>
      </trkpt>
      <trkpt lat="43.63475" lon="6.64241">
        <ele>423.2</ele>
        <time>2023-11-26T14:20:15Z</time>
      </trkpt>
      <trkpt lat="43.63475" lon="6.64241">
        <ele>423.2</ele>
        <time>2023-11-26T14:20:16Z</time>
      </trkpt>
      <trkpt lat="43.63475" lon="6.64241">
        <ele>423.3</ele>
        <time>2023-11-26T14:20:17Z</time>
      </trkpt>
      <trkpt lat="43.63475" lon="6.64241">
        <ele>423.3</ele>
        <time>2023-11-26T14:20:18Z</time>
      </trkpt>
      <trkpt lat="43.63475" lon="6.6424">
        <ele>423.2</ele>
        <time>2023-11-26T14:20:19Z</time>
      </trkpt>
      <trkpt lat="43.63475" lon="6.6424">
        <ele>423.3</ele>
        <time>2023-11-26T14:20:20Z</time>
      </trkpt>
      <trkpt lat="43.63475" lon="6.6424">
        <ele>423.3</ele>
        <time>2023-11-26T14:20:21Z</time>
      </trkpt>
      <trkpt lat="43.63475" lon="6.6424">
        <ele>423.3</ele>
        <time>2023-11-26T14:20:22Z</time>
      </trkpt>
      <trkpt lat="43.63475" lon="6.6424">
        <ele>423.3</ele>
        <time>2023-11-26T14:20:23Z</time>
      </trkpt>
      <trkpt lat="43.63475" lon="6.6424">
        <ele>423.3</ele>
        <time>2023-11-26T14:20:24Z</time>
      </trkpt>
      <trkpt lat="43.63475" lon="6.6424">
        <ele>423.4</ele>
        <time>2023-11-26T14:20:25Z</time>
      </trkpt>
      <trkpt lat="43.63475" lon="6.6424">
        <ele>423.3</ele>
        <time>2023-11-26T14:20:26Z</time>
      </trkpt>
      <trkpt lat="43.63475" lon="6.6424">
        <ele>423.3</ele>
        <time>2023-11-26T14:20:27Z</time>
      </trkpt>
      <trkpt lat="43.63475" lon="6.6424">
        <ele>423.3</ele>
        <time>2023-11-26T14:20:28Z</time>
      </trkpt>
      <trkpt lat="43.63475" lon="6.6424">
        <ele>423.3</ele>
        <time>2023-11-26T14:20:29Z</time>
      </trkpt>
      <trkpt lat="43.63475" lon="6.6424">
        <ele>423.3</ele>
        <time>2023-11-26T14:20:30Z</time>
      </trkpt>
      <trkpt lat="43.63475" lon="6.6424">
        <ele>423.3</ele>
        <time>2023-11-26T14:20:31Z</time>
      </trkpt>
      <trkpt lat="43.63475" lon="6.6424">
        <ele>423.3</ele>
        <time>2023-11-26T14:20:32Z</time>
      </trkpt>
      <trkpt lat="43.63475" lon="6.6424">
        <ele>423.3</ele>
        <time>2023-11-26T14:20:33Z</time>
      </trkpt>
      <trkpt lat="43.63475" lon="6.6424">
        <ele>423.3</ele>
        <time>2023-11-26T14:20:34Z</time>
      </trkpt>
      <trkpt lat="43.63475" lon="6.6424">
        <ele>423.3</ele>
        <time>2023-11-26T14:20:35Z</time>
      </trkpt>
      <trkpt lat="43.63475" lon="6.6424">
        <ele>423.3</ele>
        <time>2023-11-26T14:20:36Z</time>
      </trkpt>
      <trkpt lat="43.63475" lon="6.6424">
        <ele>423.2</ele>
        <time>2023-11-26T14:20:37Z</time>
      </trkpt>
      <trkpt lat="43.63474" lon="6.6424">
        <ele>423.2</ele>
        <time>2023-11-26T14:20:38Z</time>
      </trkpt>
      <trkpt lat="43.63473" lon="6.6424">
        <ele>423.2</ele>
        <time>2023-11-26T14:20:39Z</time>
      </trkpt>
      <trkpt lat="43.63472" lon="6.6424">
        <ele>423.2</ele>
        <time>2023-11-26T14:20:40Z</time>
      </trkpt>
      <trkpt lat="43.63473" lon="6.64239">
        <ele>423.1</ele>
        <time>2023-11-26T14:20:41Z</time>
      </trkpt>
      <trkpt lat="43.63473" lon="6.64239">
        <ele>423.1</ele>
        <time>2023-11-26T14:20:42Z</time>
      </trkpt>
      <trkpt lat="43.63472" lon="6.6424">
        <ele>423.1</ele>
        <time>2023-11-26T14:20:43Z</time>
      </trkpt>
      <trkpt lat="43.63471" lon="6.64239">
        <ele>423.2</ele>
        <time>2023-11-26T14:20:44Z</time>
      </trkpt>
      <trkpt lat="43.6347" lon="6.64239">
        <ele>423.3</ele>
        <time>2023-11-26T14:20:45Z</time>
      </trkpt>
      <trkpt lat="43.63469" lon="6.64238">
        <ele>423.2</ele>
        <time>2023-11-26T14:20:46Z</time>
      </trkpt>
      <trkpt lat="43.63468" lon="6.64238">
        <ele>423.1</ele>
        <time>2023-11-26T14:20:47Z</time>
      </trkpt>
      <trkpt lat="43.63467" lon="6.64237">
        <ele>423</ele>
        <time>2023-11-26T14:20:48Z</time>
      </trkpt>
      <trkpt lat="43.63467" lon="6.64237">
        <ele>423</ele>
        <time>2023-11-26T14:20:49Z</time>
      </trkpt>
      <trkpt lat="43.63467" lon="6.64236">
        <ele>423</ele>
        <time>2023-11-26T14:20:50Z</time>
      </trkpt>
      <trkpt lat="43.63468" lon="6.64236">
        <ele>422.9</ele>
        <time>2023-11-26T14:20:51Z</time>
      </trkpt>
      <trkpt lat="43.63468" lon="6.64236">
        <ele>422.9</ele>
        <time>2023-11-26T14:20:52Z</time>
      </trkpt>
      <trkpt lat="43.63469" lon="6.64236">
        <ele>422.9</ele>
        <time>2023-11-26T14:20:53Z</time>
      </trkpt>
      <trkpt lat="43.6347" lon="6.64236">
        <ele>422.9</ele>
        <time>2023-11-26T14:20:54Z</time>
      </trkpt>
      <trkpt lat="43.63471" lon="6.64236">
        <ele>423</ele>
        <time>2023-11-26T14:20:55Z</time>
      </trkpt>
      <trkpt lat="43.63471" lon="6.64236">
        <ele>423</ele>
        <time>2023-11-26T14:20:56Z</time>
      </trkpt>
      <trkpt lat="43.63471" lon="6.64236">
        <ele>423</ele>
        <time>2023-11-26T14:20:57Z</time>
      </trkpt>
      <trkpt lat="43.63472" lon="6.64236">
        <ele>423</ele>
        <time>2023-11-26T14:20:58Z</time>
      </trkpt>
      <trkpt lat="43.63472" lon="6.64236">
        <ele>423</ele>
        <time>2023-11-26T14:20:59Z</time>
      </trkpt>
      <trkpt lat="43.63473" lon="6.64236">
        <ele>423</ele>
        <time>2023-11-26T14:21:00Z</time>
      </trkpt>
      <trkpt lat="43.63473" lon="6.64236">
        <ele>423</ele>
        <time>2023-11-26T14:21:01Z</time>
      </trkpt>
      <trkpt lat="43.63473" lon="6.64236">
        <ele>423</ele>
        <time>2023-11-26T14:21:02Z</time>
      </trkpt>
      <trkpt lat="43.63473" lon="6.64236">
        <ele>423</ele>
        <time>2023-11-26T14:21:03Z</time>
      </trkpt>
      <trkpt lat="43.63473" lon="6.64236">
        <ele>423</ele>
        <time>2023-11-26T14:21:04Z</time>
      </trkpt>
      <trkpt lat="43.63473" lon="6.64236">
        <ele>423</ele>
        <time>2023-11-26T14:21:05Z</time>
      </trkpt>
      <trkpt lat="43.63473" lon="6.64236">
        <ele>423</ele>
        <time>2023-11-26T14:21:06Z</time>
      </trkpt>
      <trkpt lat="43.63472" lon="6.64236">
        <ele>423</ele>
        <time>2023-11-26T14:21:07Z</time>
      </trkpt>
      <trkpt lat="43.63472" lon="6.64236">
        <ele>423</ele>
        <time>2023-11-26T14:21:08Z</time>
      </trkpt>
      <trkpt lat="43.63472" lon="6.64236">
        <ele>423</ele>
        <time>2023-11-26T14:21:09Z</time>
      </trkpt>
      <trkpt lat="43.63472" lon="6.64235">
        <ele>422.9</ele>
        <time>2023-11-26T14:21:10Z</time>
      </trkpt>
      <trkpt lat="43.63472" lon="6.64236">
        <ele>422.9</ele>
        <time>2023-11-26T14:21:11Z</time>
      </trkpt>
      <trkpt lat="43.63472" lon="6.64236">
        <ele>422.9</ele>
        <time>2023-11-26T14:21:12Z</time>
      </trkpt>
      <trkpt lat="43.63472" lon="6.64236">
        <ele>422.9</ele>
        <time>2023-11-26T14:21:13Z</time>
      </trkpt>
      <trkpt lat="43.63472" lon="6.64236">
        <ele>422.9</ele>
        <time>2023-11-26T14:21:14Z</time>
      </trkpt>
      <trkpt lat="43.63472" lon="6.64236">
        <ele>422.9</ele>
        <time>2023-11-26T14:21:15Z</time>
      </trkpt>
      <trkpt lat="43.63472" lon="6.64236">
        <ele>422.9</ele>
        <time>2023-11-26T14:21:16Z</time>
      </trkpt>
      <trkpt lat="43.63472" lon="6.64236">
        <ele>422.9</ele>
        <time>2023-11-26T14:21:17Z</time>
      </trkpt>
      <trkpt lat="43.63472" lon="6.64236">
        <ele>422.9</ele>
        <time>2023-11-26T14:21:18Z</time>
      </trkpt>
      <trkpt lat="43.63472" lon="6.64236">
        <ele>422.9</ele>
        <time>2023-11-26T14:21:19Z</time>
      </trkpt>
      <trkpt lat="43.63472" lon="6.64236">
        <ele>423</ele>
        <time>2023-11-26T14:21:20Z</time>
      </trkpt>
      <trkpt lat="43.63472" lon="6.64235">
        <ele>423</ele>
        <time>2023-11-26T14:21:21Z</time>
      </trkpt>
      <trkpt lat="43.63472" lon="6.64236">
        <ele>423</ele>
        <time>2023-11-26T14:21:22Z</time>
      </trkpt>
      <trkpt lat="43.63472" lon="6.64236">
        <ele>423</ele>
        <time>2023-11-26T14:21:23Z</time>
      </trkpt>
      <trkpt lat="43.63473" lon="6.64236">
        <ele>423</ele>
        <time>2023-11-26T14:21:24Z</time>
      </trkpt>
      <trkpt lat="43.63473" lon="6.64236">
        <ele>423</ele>
        <time>2023-11-26T14:21:25Z</time>
      </trkpt>
      <trkpt lat="43.63473" lon="6.64236">
        <ele>423</ele>
        <time>2023-11-26T14:21:26Z</time>
      </trkpt>
      <trkpt lat="43.63473" lon="6.64236">
        <ele>423</ele>
        <time>2023-11-26T14:21:27Z</time>
      </trkpt>
      <trkpt lat="43.63473" lon="6.64236">
        <ele>423.1</ele>
        <time>2023-11-26T14:21:28Z</time>
      </trkpt>
      <trkpt lat="43.63473" lon="6.64236">
        <ele>423.2</ele>
        <time>2023-11-26T14:21:29Z</time>
      </trkpt>
      <trkpt lat="43.63473" lon="6.64236">
        <ele>423.3</ele>
        <time>2023-11-26T14:21:30Z</time>
      </trkpt>
      <trkpt lat="43.63473" lon="6.64236">
        <ele>423.3</ele>
        <time>2023-11-26T14:21:31Z</time>
      </trkpt>
      <trkpt lat="43.63473" lon="6.64236">
        <ele>423.2</ele>
        <time>2023-11-26T14:21:32Z</time>
      </trkpt>
      <trkpt lat="43.63473" lon="6.64236">
        <ele>423.3</ele>
        <time>2023-11-26T14:21:33Z</time>
      </trkpt>
      <trkpt lat="43.63474" lon="6.64236">
        <ele>423.3</ele>
        <time>2023-11-26T14:21:34Z</time>
      </trkpt>
      <trkpt lat="43.63474" lon="6.64235">
        <ele>423.3</ele>
        <time>2023-11-26T14:21:35Z</time>
      </trkpt>
      <trkpt lat="43.63474" lon="6.64236">
        <ele>423.3</ele>
        <time>2023-11-26T14:21:36Z</time>
      </trkpt>
      <trkpt lat="43.63475" lon="6.64235">
        <ele>423.3</ele>
        <time>2023-11-26T14:21:37Z</time>
      </trkpt>
      <trkpt lat="43.63475" lon="6.64235">
        <ele>423.2</ele>
        <time>2023-11-26T14:21:38Z</time>
      </trkpt>
      <trkpt lat="43.63475" lon="6.64235">
        <ele>423.2</ele>
        <time>2023-11-26T14:21:39Z</time>
      </trkpt>
      <trkpt lat="43.63475" lon="6.64235">
        <ele>423.2</ele>
        <time>2023-11-26T14:21:40Z</time>
      </trkpt>
      <trkpt lat="43.63475" lon="6.64235">
        <ele>423.3</ele>
        <time>2023-11-26T14:21:41Z</time>
      </trkpt>
      <trkpt lat="43.63475" lon="6.64235">
        <ele>423.3</ele>
        <time>2023-11-26T14:21:42Z</time>
      </trkpt>
      <trkpt lat="43.63475" lon="6.64235">
        <ele>423.3</ele>
        <time>2023-11-26T14:21:43Z</time>
      </trkpt>
      <trkpt lat="43.63476" lon="6.64235">
        <ele>423.3</ele>
        <time>2023-11-26T14:21:44Z</time>
      </trkpt>
      <trkpt lat="43.63476" lon="6.64235">
        <ele>423.2</ele>
        <time>2023-11-26T14:21:45Z</time>
      </trkpt>
      <trkpt lat="43.63475" lon="6.64235">
        <ele>423.2</ele>
        <time>2023-11-26T14:21:46Z</time>
      </trkpt>
      <trkpt lat="43.63475" lon="6.64235">
        <ele>423.2</ele>
        <time>2023-11-26T14:21:47Z</time>
      </trkpt>
      <trkpt lat="43.63475" lon="6.64235">
        <ele>423.2</ele>
        <time>2023-11-26T14:21:48Z</time>
      </trkpt>
      <trkpt lat="43.63475" lon="6.64235">
        <ele>423.2</ele>
        <time>2023-11-26T14:21:49Z</time>
      </trkpt>
      <trkpt lat="43.63475" lon="6.64235">
        <ele>423.2</ele>
        <time>2023-11-26T14:21:50Z</time>
      </trkpt>
      <trkpt lat="43.63475" lon="6.64235">
        <ele>423.2</ele>
        <time>2023-11-26T14:21:51Z</time>
      </trkpt>
      <trkpt lat="43.63475" lon="6.64235">
        <ele>423.2</ele>
        <time>2023-11-26T14:21:52Z</time>
      </trkpt>
      <trkpt lat="43.63475" lon="6.64235">
        <ele>423.2</ele>
        <time>2023-11-26T14:21:53Z</time>
      </trkpt>
      <trkpt lat="43.63475" lon="6.64234">
        <ele>423.2</ele>
        <time>2023-11-26T14:21:54Z</time>
      </trkpt>
      <trkpt lat="43.63475" lon="6.64234">
        <ele>423.2</ele>
        <time>2023-11-26T14:21:55Z</time>
      </trkpt>
      <trkpt lat="43.63475" lon="6.64234">
        <ele>423.2</ele>
        <time>2023-11-26T14:21:56Z</time>
      </trkpt>
      <trkpt lat="43.63475" lon="6.64234">
        <ele>423.2</ele>
        <time>2023-11-26T14:21:57Z</time>
      </trkpt>
      <trkpt lat="43.63475" lon="6.64234">
        <ele>423.2</ele>
        <time>2023-11-26T14:21:58Z</time>
      </trkpt>
      <trkpt lat="43.63475" lon="6.64234">
        <ele>423.2</ele>
        <time>2023-11-26T14:21:59Z</time>
      </trkpt>
      <trkpt lat="43.63475" lon="6.64234">
        <ele>423.2</ele>
        <time>2023-11-26T14:22:00Z</time>
      </trkpt>
      <trkpt lat="43.63475" lon="6.64234">
        <ele>423.3</ele>
        <time>2023-11-26T14:22:01Z</time>
      </trkpt>
      <trkpt lat="43.63474" lon="6.64234">
        <ele>423.3</ele>
        <time>2023-11-26T14:22:02Z</time>
      </trkpt>
      <trkpt lat="43.63474" lon="6.64234">
        <ele>423.3</ele>
        <time>2023-11-26T14:22:03Z</time>
      </trkpt>
      <trkpt lat="43.63474" lon="6.64234">
        <ele>423.3</ele>
        <time>2023-11-26T14:22:04Z</time>
      </trkpt>
      <trkpt lat="43.63474" lon="6.64234">
        <ele>423.3</ele>
        <time>2023-11-26T14:22:05Z</time>
      </trkpt>
      <trkpt lat="43.63473" lon="6.64234">
        <ele>423.3</ele>
        <time>2023-11-26T14:22:06Z</time>
      </trkpt>
      <trkpt lat="43.63473" lon="6.64234">
        <ele>423.3</ele>
        <time>2023-11-26T14:22:07Z</time>
      </trkpt>
      <trkpt lat="43.63473" lon="6.64234">
        <ele>423.3</ele>
        <time>2023-11-26T14:22:08Z</time>
      </trkpt>
      <trkpt lat="43.63473" lon="6.64234">
        <ele>423.3</ele>
        <time>2023-11-26T14:22:09Z</time>
      </trkpt>
      <trkpt lat="43.63473" lon="6.64233">
        <ele>423.3</ele>
        <time>2023-11-26T14:22:10Z</time>
      </trkpt>
      <trkpt lat="43.63473" lon="6.64234">
        <ele>423.3</ele>
        <time>2023-11-26T14:22:11Z</time>
      </trkpt>
      <trkpt lat="43.63473" lon="6.64234">
        <ele>423.2</ele>
        <time>2023-11-26T14:22:12Z</time>
      </trkpt>
      <trkpt lat="43.63472" lon="6.64234">
        <ele>423.1</ele>
        <time>2023-11-26T14:22:13Z</time>
      </trkpt>
      <trkpt lat="43.63472" lon="6.64234">
        <ele>423.1</ele>
        <time>2023-11-26T14:22:14Z</time>
      </trkpt>
      <trkpt lat="43.63472" lon="6.64234">
        <ele>423.1</ele>
        <time>2023-11-26T14:22:15Z</time>
      </trkpt>
      <trkpt lat="43.63472" lon="6.64234">
        <ele>423.1</ele>
        <time>2023-11-26T14:22:16Z</time>
      </trkpt>
      <trkpt lat="43.63472" lon="6.64234">
        <ele>423.1</ele>
        <time>2023-11-26T14:22:17Z</time>
      </trkpt>
      <trkpt lat="43.63472" lon="6.64234">
        <ele>423.1</ele>
        <time>2023-11-26T14:22:18Z</time>
      </trkpt>
      <trkpt lat="43.63472" lon="6.64234">
        <ele>423.2</ele>
        <time>2023-11-26T14:22:19Z</time>
      </trkpt>
      <trkpt lat="43.63472" lon="6.64234">
        <ele>423.2</ele>
        <time>2023-11-26T14:22:20Z</time>
      </trkpt>
      <trkpt lat="43.63472" lon="6.64234">
        <ele>423.3</ele>
        <time>2023-11-26T14:22:21Z</time>
      </trkpt>
      <trkpt lat="43.63472" lon="6.64234">
        <ele>423.2</ele>
        <time>2023-11-26T14:22:22Z</time>
      </trkpt>
      <trkpt lat="43.63472" lon="6.64234">
        <ele>423.2</ele>
        <time>2023-11-26T14:22:23Z</time>
      </trkpt>
      <trkpt lat="43.63472" lon="6.64234">
        <ele>423.2</ele>
        <time>2023-11-26T14:22:24Z</time>
      </trkpt>
      <trkpt lat="43.63472" lon="6.64234">
        <ele>423.2</ele>
        <time>2023-11-26T14:22:25Z</time>
      </trkpt>
      <trkpt lat="43.63472" lon="6.64234">
        <ele>423.2</ele>
        <time>2023-11-26T14:22:26Z</time>
      </trkpt>
      <trkpt lat="43.63473" lon="6.64234">
        <ele>423.2</ele>
        <time>2023-11-26T14:22:27Z</time>
      </trkpt>
      <trkpt lat="43.63473" lon="6.64234">
        <ele>423.2</ele>
        <time>2023-11-26T14:22:28Z</time>
      </trkpt>
      <trkpt lat="43.63472" lon="6.64234">
        <ele>423.2</ele>
        <time>2023-11-26T14:22:29Z</time>
      </trkpt>
      <trkpt lat="43.63472" lon="6.64234">
        <ele>423.2</ele>
        <time>2023-11-26T14:22:30Z</time>
      </trkpt>
      <trkpt lat="43.63473" lon="6.64234">
        <ele>423.2</ele>
        <time>2023-11-26T14:22:31Z</time>
      </trkpt>
      <trkpt lat="43.63473" lon="6.64234">
        <ele>423.2</ele>
        <time>2023-11-26T14:22:32Z</time>
      </trkpt>
      <trkpt lat="43.63472" lon="6.64234">
        <ele>423.2</ele>
        <time>2023-11-26T14:22:33Z</time>
      </trkpt>
      <trkpt lat="43.63472" lon="6.64233">
        <ele>423.2</ele>
        <time>2023-11-26T14:22:34Z</time>
      </trkpt>
      <trkpt lat="43.63472" lon="6.64233">
        <ele>423.1</ele>
        <time>2023-11-26T14:22:35Z</time>
      </trkpt>
      <trkpt lat="43.63472" lon="6.64233">
        <ele>423.1</ele>
        <time>2023-11-26T14:22:36Z</time>
      </trkpt>
      <trkpt lat="43.63472" lon="6.64233">
        <ele>423.1</ele>
        <time>2023-11-26T14:22:37Z</time>
      </trkpt>
      <trkpt lat="43.63472" lon="6.64233">
        <ele>423.1</ele>
        <time>2023-11-26T14:22:38Z</time>
      </trkpt>
      <trkpt lat="43.63472" lon="6.64233">
        <ele>423.1</ele>
        <time>2023-11-26T14:22:39Z</time>
      </trkpt>
      <trkpt lat="43.63472" lon="6.64233">
        <ele>423.1</ele>
        <time>2023-11-26T14:22:40Z</time>
      </trkpt>
      <trkpt lat="43.63472" lon="6.64233">
        <ele>423.1</ele>
        <time>2023-11-26T14:22:41Z</time>
      </trkpt>
      <trkpt lat="43.63472" lon="6.64233">
        <ele>423.1</ele>
        <time>2023-11-26T14:22:42Z</time>
      </trkpt>
      <trkpt lat="43.63472" lon="6.64233">
        <ele>423</ele>
        <time>2023-11-26T14:22:43Z</time>
      </trkpt>
      <trkpt lat="43.63473" lon="6.64234">
        <ele>423</ele>
        <time>2023-11-26T14:22:44Z</time>
      </trkpt>
      <trkpt lat="43.63473" lon="6.64234">
        <ele>423</ele>
        <time>2023-11-26T14:22:45Z</time>
      </trkpt>
      <trkpt lat="43.63473" lon="6.64234">
        <ele>423</ele>
        <time>2023-11-26T14:22:46Z</time>
      </trkpt>
      <trkpt lat="43.63474" lon="6.64234">
        <ele>423</ele>
        <time>2023-11-26T14:22:47Z</time>
      </trkpt>
      <trkpt lat="43.63474" lon="6.64234">
        <ele>423</ele>
        <time>2023-11-26T14:22:48Z</time>
      </trkpt>
      <trkpt lat="43.63474" lon="6.64234">
        <ele>423.1</ele>
        <time>2023-11-26T14:22:49Z</time>
      </trkpt>
      <trkpt lat="43.63474" lon="6.64234">
        <ele>423.1</ele>
        <time>2023-11-26T14:22:50Z</time>
      </trkpt>
      <trkpt lat="43.63474" lon="6.64234">
        <ele>423</ele>
        <time>2023-11-26T14:22:51Z</time>
      </trkpt>
      <trkpt lat="43.63474" lon="6.64234">
        <ele>422.9</ele>
        <time>2023-11-26T14:22:52Z</time>
      </trkpt>
      <trkpt lat="43.63474" lon="6.64234">
        <ele>422.9</ele>
        <time>2023-11-26T14:22:53Z</time>
      </trkpt>
      <trkpt lat="43.63474" lon="6.64234">
        <ele>422.9</ele>
        <time>2023-11-26T14:22:54Z</time>
      </trkpt>
      <trkpt lat="43.63474" lon="6.64234">
        <ele>422.9</ele>
        <time>2023-11-26T14:22:55Z</time>
      </trkpt>
      <trkpt lat="43.63474" lon="6.64234">
        <ele>422.9</ele>
        <time>2023-11-26T14:22:56Z</time>
      </trkpt>
      <trkpt lat="43.63475" lon="6.64234">
        <ele>423</ele>
        <time>2023-11-26T14:22:57Z</time>
      </trkpt>
      <trkpt lat="43.63475" lon="6.64234">
        <ele>423.1</ele>
        <time>2023-11-26T14:22:58Z</time>
      </trkpt>
      <trkpt lat="43.63476" lon="6.64234">
        <ele>423</ele>
        <time>2023-11-26T14:22:59Z</time>
      </trkpt>
      <trkpt lat="43.63476" lon="6.64234">
        <ele>423</ele>
        <time>2023-11-26T14:23:00Z</time>
      </trkpt>
      <trkpt lat="43.63477" lon="6.64234">
        <ele>423</ele>
        <time>2023-11-26T14:23:01Z</time>
      </trkpt>
      <trkpt lat="43.63478" lon="6.64234">
        <ele>423.1</ele>
        <time>2023-11-26T14:23:02Z</time>
      </trkpt>
      <trkpt lat="43.63478" lon="6.64234">
        <ele>423.2</ele>
        <time>2023-11-26T14:23:03Z</time>
      </trkpt>
      <trkpt lat="43.63478" lon="6.64234">
        <ele>423.3</ele>
        <time>2023-11-26T14:23:04Z</time>
      </trkpt>
      <trkpt lat="43.63479" lon="6.64234">
        <ele>423.3</ele>
        <time>2023-11-26T14:23:05Z</time>
      </trkpt>
      <trkpt lat="43.6348" lon="6.64234">
        <ele>423.3</ele>
        <time>2023-11-26T14:23:06Z</time>
      </trkpt>
      <trkpt lat="43.6348" lon="6.64235">
        <ele>423.3</ele>
        <time>2023-11-26T14:23:07Z</time>
      </trkpt>
      <trkpt lat="43.6348" lon="6.64235">
        <ele>423.3</ele>
        <time>2023-11-26T14:23:08Z</time>
      </trkpt>
      <trkpt lat="43.63481" lon="6.64235">
        <ele>423.2</ele>
        <time>2023-11-26T14:23:09Z</time>
      </trkpt>
      <trkpt lat="43.63482" lon="6.64235">
        <ele>423.2</ele>
        <time>2023-11-26T14:23:10Z</time>
      </trkpt>
      <trkpt lat="43.63482" lon="6.64236">
        <ele>423.1</ele>
        <time>2023-11-26T14:23:11Z</time>
      </trkpt>
      <trkpt lat="43.63483" lon="6.64236">
        <ele>423.1</ele>
        <time>2023-11-26T14:23:12Z</time>
      </trkpt>
      <trkpt lat="43.63483" lon="6.64237">
        <ele>423.1</ele>
        <time>2023-11-26T14:23:13Z</time>
      </trkpt>
      <trkpt lat="43.63484" lon="6.64237">
        <ele>423</ele>
        <time>2023-11-26T14:23:14Z</time>
      </trkpt>
      <trkpt lat="43.63484" lon="6.64238">
        <ele>422.9</ele>
        <time>2023-11-26T14:23:15Z</time>
      </trkpt>
      <trkpt lat="43.63485" lon="6.64238">
        <ele>422.8</ele>
        <time>2023-11-26T14:23:16Z</time>
      </trkpt>
      <trkpt lat="43.63485" lon="6.64238">
        <ele>422.8</ele>
        <time>2023-11-26T14:23:17Z</time>
      </trkpt>
      <trkpt lat="43.63486" lon="6.64239">
        <ele>422.7</ele>
        <time>2023-11-26T14:23:18Z</time>
      </trkpt>
      <trkpt lat="43.63487" lon="6.64239">
        <ele>422.7</ele>
        <time>2023-11-26T14:23:19Z</time>
      </trkpt>
      <trkpt lat="43.63487" lon="6.64239">
        <ele>422.7</ele>
        <time>2023-11-26T14:23:20Z</time>
      </trkpt>
      <trkpt lat="43.63487" lon="6.64239">
        <ele>422.7</ele>
        <time>2023-11-26T14:23:21Z</time>
      </trkpt>
      <trkpt lat="43.63488" lon="6.6424">
        <ele>422.7</ele>
        <time>2023-11-26T14:23:22Z</time>
      </trkpt>
      <trkpt lat="43.63489" lon="6.64241">
        <ele>422.7</ele>
        <time>2023-11-26T14:23:23Z</time>
      </trkpt>
      <trkpt lat="43.6349" lon="6.64241">
        <ele>422.7</ele>
        <time>2023-11-26T14:23:24Z</time>
      </trkpt>
      <trkpt lat="43.6349" lon="6.64242">
        <ele>422.7</ele>
        <time>2023-11-26T14:23:25Z</time>
      </trkpt>
      <trkpt lat="43.63491" lon="6.64243">
        <ele>422.6</ele>
        <time>2023-11-26T14:23:26Z</time>
      </trkpt>
      <trkpt lat="43.63491" lon="6.64243">
        <ele>422.7</ele>
        <time>2023-11-26T14:23:27Z</time>
      </trkpt>
      <trkpt lat="43.63492" lon="6.64243">
        <ele>422.7</ele>
        <time>2023-11-26T14:23:28Z</time>
      </trkpt>
      <trkpt lat="43.63492" lon="6.64244">
        <ele>422.8</ele>
        <time>2023-11-26T14:23:29Z</time>
      </trkpt>
      <trkpt lat="43.63493" lon="6.64245">
        <ele>422.7</ele>
        <time>2023-11-26T14:23:30Z</time>
      </trkpt>
      <trkpt lat="43.63493" lon="6.64245">
        <ele>422.7</ele>
        <time>2023-11-26T14:23:31Z</time>
      </trkpt>
      <trkpt lat="43.63493" lon="6.64246">
        <ele>422.6</ele>
        <time>2023-11-26T14:23:32Z</time>
      </trkpt>
      <trkpt lat="43.63492" lon="6.64246">
        <ele>422.6</ele>
        <time>2023-11-26T14:23:33Z</time>
      </trkpt>
      <trkpt lat="43.63492" lon="6.64246">
        <ele>422.6</ele>
        <time>2023-11-26T14:23:34Z</time>
      </trkpt>
      <trkpt lat="43.63492" lon="6.64246">
        <ele>422.5</ele>
        <time>2023-11-26T14:23:35Z</time>
      </trkpt>
      <trkpt lat="43.63492" lon="6.64246">
        <ele>422.5</ele>
        <time>2023-11-26T14:23:36Z</time>
      </trkpt>
      <trkpt lat="43.63492" lon="6.64246">
        <ele>422.5</ele>
        <time>2023-11-26T14:23:37Z</time>
      </trkpt>
      <trkpt lat="43.63493" lon="6.64246">
        <ele>422.5</ele>
        <time>2023-11-26T14:23:38Z</time>
      </trkpt>
      <trkpt lat="43.63493" lon="6.64246">
        <ele>422.5</ele>
        <time>2023-11-26T14:23:39Z</time>
      </trkpt>
      <trkpt lat="43.63494" lon="6.64246">
        <ele>422.5</ele>
        <time>2023-11-26T14:23:40Z</time>
      </trkpt>
      <trkpt lat="43.63494" lon="6.64246">
        <ele>422.5</ele>
        <time>2023-11-26T14:23:41Z</time>
      </trkpt>
      <trkpt lat="43.63495" lon="6.64247">
        <ele>422.5</ele>
        <time>2023-11-26T14:23:42Z</time>
      </trkpt>
      <trkpt lat="43.63496" lon="6.64247">
        <ele>422.4</ele>
        <time>2023-11-26T14:23:43Z</time>
      </trkpt>
      <trkpt lat="43.63497" lon="6.64248">
        <ele>422.4</ele>
        <time>2023-11-26T14:23:44Z</time>
      </trkpt>
      <trkpt lat="43.63497" lon="6.64248">
        <ele>422.5</ele>
        <time>2023-11-26T14:23:45Z</time>
      </trkpt>
      <trkpt lat="43.63498" lon="6.64249">
        <ele>422.5</ele>
        <time>2023-11-26T14:23:46Z</time>
      </trkpt>
      <trkpt lat="43.63498" lon="6.6425">
        <ele>422.5</ele>
        <time>2023-11-26T14:23:47Z</time>
      </trkpt>
      <trkpt lat="43.63499" lon="6.6425">
        <ele>422.5</ele>
        <time>2023-11-26T14:23:48Z</time>
      </trkpt>
      <trkpt lat="43.63499" lon="6.64251">
        <ele>422.4</ele>
        <time>2023-11-26T14:23:49Z</time>
      </trkpt>
      <trkpt lat="43.635" lon="6.64251">
        <ele>422.4</ele>
        <time>2023-11-26T14:23:50Z</time>
      </trkpt>
      <trkpt lat="43.635" lon="6.64252">
        <ele>422.4</ele>
        <time>2023-11-26T14:23:51Z</time>
      </trkpt>
      <trkpt lat="43.63501" lon="6.64252">
        <ele>422.3</ele>
        <time>2023-11-26T14:23:52Z</time>
      </trkpt>
      <trkpt lat="43.63501" lon="6.64253">
        <ele>422.4</ele>
        <time>2023-11-26T14:23:53Z</time>
      </trkpt>
      <trkpt lat="43.63502" lon="6.64253">
        <ele>422.3</ele>
        <time>2023-11-26T14:23:54Z</time>
      </trkpt>
      <trkpt lat="43.63502" lon="6.64253">
        <ele>422.3</ele>
        <time>2023-11-26T14:23:55Z</time>
      </trkpt>
      <trkpt lat="43.63503" lon="6.64254">
        <ele>422.3</ele>
        <time>2023-11-26T14:23:56Z</time>
      </trkpt>
      <trkpt lat="43.63504" lon="6.64254">
        <ele>422.2</ele>
        <time>2023-11-26T14:23:57Z</time>
      </trkpt>
      <trkpt lat="43.63504" lon="6.64255">
        <ele>422.2</ele>
        <time>2023-11-26T14:23:58Z</time>
      </trkpt>
      <trkpt lat="43.63505" lon="6.64256">
        <ele>422.1</ele>
        <time>2023-11-26T14:23:59Z</time>
      </trkpt>
      <trkpt lat="43.63505" lon="6.64256">
        <ele>422.2</ele>
        <time>2023-11-26T14:24:00Z</time>
      </trkpt>
      <trkpt lat="43.63506" lon="6.64257">
        <ele>422.3</ele>
        <time>2023-11-26T14:24:01Z</time>
      </trkpt>
      <trkpt lat="43.63507" lon="6.64258">
        <ele>422.2</ele>
        <time>2023-11-26T14:24:02Z</time>
      </trkpt>
      <trkpt lat="43.63507" lon="6.64259">
        <ele>422.2</ele>
        <time>2023-11-26T14:24:03Z</time>
      </trkpt>
      <trkpt lat="43.63508" lon="6.64259">
        <ele>422.2</ele>
        <time>2023-11-26T14:24:04Z</time>
      </trkpt>
      <trkpt lat="43.63509" lon="6.64259">
        <ele>422.2</ele>
        <time>2023-11-26T14:24:05Z</time>
      </trkpt>
      <trkpt lat="43.63509" lon="6.6426">
        <ele>422.1</ele>
        <time>2023-11-26T14:24:06Z</time>
      </trkpt>
      <trkpt lat="43.6351" lon="6.6426">
        <ele>422</ele>
        <time>2023-11-26T14:24:07Z</time>
      </trkpt>
      <trkpt lat="43.6351" lon="6.64261">
        <ele>421.9</ele>
        <time>2023-11-26T14:24:08Z</time>
      </trkpt>
      <trkpt lat="43.63511" lon="6.64262">
        <ele>422</ele>
        <time>2023-11-26T14:24:09Z</time>
      </trkpt>
      <trkpt lat="43.63511" lon="6.64262">
        <ele>421.9</ele>
        <time>2023-11-26T14:24:10Z</time>
      </trkpt>
      <trkpt lat="43.63512" lon="6.64263">
        <ele>421.9</ele>
        <time>2023-11-26T14:24:11Z</time>
      </trkpt>
      <trkpt lat="43.63512" lon="6.64263">
        <ele>422</ele>
        <time>2023-11-26T14:24:12Z</time>
      </trkpt>
      <trkpt lat="43.63513" lon="6.64264">
        <ele>422</ele>
        <time>2023-11-26T14:24:13Z</time>
      </trkpt>
      <trkpt lat="43.63513" lon="6.64265">
        <ele>422</ele>
        <time>2023-11-26T14:24:14Z</time>
      </trkpt>
      <trkpt lat="43.63513" lon="6.64266">
        <ele>421.9</ele>
        <time>2023-11-26T14:24:15Z</time>
      </trkpt>
      <trkpt lat="43.63514" lon="6.64266">
        <ele>421.8</ele>
        <time>2023-11-26T14:24:16Z</time>
      </trkpt>
      <trkpt lat="43.63514" lon="6.64267">
        <ele>421.9</ele>
        <time>2023-11-26T14:24:17Z</time>
      </trkpt>
      <trkpt lat="43.63515" lon="6.64267">
        <ele>421.8</ele>
        <time>2023-11-26T14:24:18Z</time>
      </trkpt>
      <trkpt lat="43.63516" lon="6.64268">
        <ele>421.8</ele>
        <time>2023-11-26T14:24:19Z</time>
      </trkpt>
      <trkpt lat="43.63516" lon="6.64268">
        <ele>421.8</ele>
        <time>2023-11-26T14:24:20Z</time>
      </trkpt>
      <trkpt lat="43.63517" lon="6.64269">
        <ele>421.8</ele>
        <time>2023-11-26T14:24:21Z</time>
      </trkpt>
      <trkpt lat="43.63518" lon="6.64269">
        <ele>421.9</ele>
        <time>2023-11-26T14:24:22Z</time>
      </trkpt>
      <trkpt lat="43.63518" lon="6.64269">
        <ele>421.9</ele>
        <time>2023-11-26T14:24:23Z</time>
      </trkpt>
      <trkpt lat="43.63518" lon="6.64269">
        <ele>421.9</ele>
        <time>2023-11-26T14:24:24Z</time>
      </trkpt>
      <trkpt lat="43.63518" lon="6.64269">
        <ele>421.8</ele>
        <time>2023-11-26T14:24:25Z</time>
      </trkpt>
      <trkpt lat="43.63519" lon="6.64269">
        <ele>421.8</ele>
        <time>2023-11-26T14:24:26Z</time>
      </trkpt>
      <trkpt lat="43.63518" lon="6.64269">
        <ele>421.8</ele>
        <time>2023-11-26T14:24:27Z</time>
      </trkpt>
      <trkpt lat="43.63519" lon="6.64269">
        <ele>421.9</ele>
        <time>2023-11-26T14:24:28Z</time>
      </trkpt>
      <trkpt lat="43.63519" lon="6.6427">
        <ele>421.9</ele>
        <time>2023-11-26T14:24:29Z</time>
      </trkpt>
      <trkpt lat="43.63519" lon="6.64271">
        <ele>422</ele>
        <time>2023-11-26T14:24:30Z</time>
      </trkpt>
      <trkpt lat="43.6352" lon="6.64271">
        <ele>422</ele>
        <time>2023-11-26T14:24:31Z</time>
      </trkpt>
      <trkpt lat="43.6352" lon="6.64272">
        <ele>422</ele>
        <time>2023-11-26T14:24:32Z</time>
      </trkpt>
      <trkpt lat="43.63521" lon="6.64272">
        <ele>422</ele>
        <time>2023-11-26T14:24:33Z</time>
      </trkpt>
      <trkpt lat="43.63521" lon="6.64273">
        <ele>421.9</ele>
        <time>2023-11-26T14:24:34Z</time>
      </trkpt>
      <trkpt lat="43.63522" lon="6.64273">
        <ele>421.9</ele>
        <time>2023-11-26T14:24:35Z</time>
      </trkpt>
      <trkpt lat="43.63522" lon="6.64274">
        <ele>421.9</ele>
        <time>2023-11-26T14:24:36Z</time>
      </trkpt>
      <trkpt lat="43.63523" lon="6.64274">
        <ele>421.9</ele>
        <time>2023-11-26T14:24:37Z</time>
      </trkpt>
      <trkpt lat="43.63524" lon="6.64275">
        <ele>421.9</ele>
        <time>2023-11-26T14:24:38Z</time>
      </trkpt>
      <trkpt lat="43.63524" lon="6.64275">
        <ele>421.9</ele>
        <time>2023-11-26T14:24:39Z</time>
      </trkpt>
      <trkpt lat="43.63525" lon="6.64275">
        <ele>421.9</ele>
        <time>2023-11-26T14:24:40Z</time>
      </trkpt>
      <trkpt lat="43.63525" lon="6.64275">
        <ele>421.9</ele>
        <time>2023-11-26T14:24:41Z</time>
      </trkpt>
      <trkpt lat="43.63526" lon="6.64275">
        <ele>421.8</ele>
        <time>2023-11-26T14:24:42Z</time>
      </trkpt>
      <trkpt lat="43.63527" lon="6.64275">
        <ele>421.8</ele>
        <time>2023-11-26T14:24:43Z</time>
      </trkpt>
      <trkpt lat="43.63527" lon="6.64275">
        <ele>421.8</ele>
        <time>2023-11-26T14:24:44Z</time>
      </trkpt>
      <trkpt lat="43.63527" lon="6.64275">
        <ele>421.8</ele>
        <time>2023-11-26T14:24:45Z</time>
      </trkpt>
      <trkpt lat="43.63528" lon="6.64275">
        <ele>421.8</ele>
        <time>2023-11-26T14:24:46Z</time>
      </trkpt>
      <trkpt lat="43.63528" lon="6.64275">
        <ele>421.7</ele>
        <time>2023-11-26T14:24:47Z</time>
      </trkpt>
      <trkpt lat="43.63529" lon="6.64274">
        <ele>421.7</ele>
        <time>2023-11-26T14:24:48Z</time>
      </trkpt>
      <trkpt lat="43.63529" lon="6.64273">
        <ele>421.7</ele>
        <time>2023-11-26T14:24:49Z</time>
      </trkpt>
      <trkpt lat="43.6353" lon="6.64272">
        <ele>421.7</ele>
        <time>2023-11-26T14:24:50Z</time>
      </trkpt>
      <trkpt lat="43.6353" lon="6.64272">
        <ele>421.7</ele>
        <time>2023-11-26T14:24:51Z</time>
      </trkpt>
      <trkpt lat="43.63531" lon="6.64271">
        <ele>421.7</ele>
        <time>2023-11-26T14:24:52Z</time>
      </trkpt>
      <trkpt lat="43.63532" lon="6.64271">
        <ele>421.7</ele>
        <time>2023-11-26T14:24:53Z</time>
      </trkpt>
      <trkpt lat="43.63533" lon="6.6427">
        <ele>421.6</ele>
        <time>2023-11-26T14:24:54Z</time>
      </trkpt>
      <trkpt lat="43.63533" lon="6.6427">
        <ele>421.6</ele>
        <time>2023-11-26T14:24:55Z</time>
      </trkpt>
      <trkpt lat="43.63534" lon="6.6427">
        <ele>421.7</ele>
        <time>2023-11-26T14:24:56Z</time>
      </trkpt>
      <trkpt lat="43.63534" lon="6.6427">
        <ele>421.7</ele>
        <time>2023-11-26T14:24:57Z</time>
      </trkpt>
      <trkpt lat="43.63534" lon="6.6427">
        <ele>421.6</ele>
        <time>2023-11-26T14:24:58Z</time>
      </trkpt>
      <trkpt lat="43.63535" lon="6.64271">
        <ele>421.5</ele>
        <time>2023-11-26T14:24:59Z</time>
      </trkpt>
      <trkpt lat="43.63535" lon="6.64271">
        <ele>421.6</ele>
        <time>2023-11-26T14:25:00Z</time>
      </trkpt>
      <trkpt lat="43.63536" lon="6.64272">
        <ele>421.6</ele>
        <time>2023-11-26T14:25:01Z</time>
      </trkpt>
      <trkpt lat="43.63536" lon="6.64272">
        <ele>421.6</ele>
        <time>2023-11-26T14:25:02Z</time>
      </trkpt>
      <trkpt lat="43.63537" lon="6.64272">
        <ele>421.5</ele>
        <time>2023-11-26T14:25:03Z</time>
      </trkpt>
      <trkpt lat="43.63537" lon="6.64272">
        <ele>421.5</ele>
        <time>2023-11-26T14:25:04Z</time>
      </trkpt>
      <trkpt lat="43.63537" lon="6.64271">
        <ele>421.6</ele>
        <time>2023-11-26T14:25:05Z</time>
      </trkpt>
      <trkpt lat="43.63537" lon="6.64272">
        <ele>421.7</ele>
        <time>2023-11-26T14:25:06Z</time>
      </trkpt>
      <trkpt lat="43.63538" lon="6.64272">
        <ele>421.6</ele>
        <time>2023-11-26T14:25:07Z</time>
      </trkpt>
      <trkpt lat="43.63538" lon="6.64272">
        <ele>421.6</ele>
        <time>2023-11-26T14:25:08Z</time>
      </trkpt>
      <trkpt lat="43.63538" lon="6.64273">
        <ele>421.6</ele>
        <time>2023-11-26T14:25:09Z</time>
      </trkpt>
      <trkpt lat="43.63539" lon="6.64273">
        <ele>421.6</ele>
        <time>2023-11-26T14:25:10Z</time>
      </trkpt>
      <trkpt lat="43.63539" lon="6.64273">
        <ele>421.4</ele>
        <time>2023-11-26T14:25:11Z</time>
      </trkpt>
      <trkpt lat="43.63539" lon="6.64273">
        <ele>421.3</ele>
        <time>2023-11-26T14:25:12Z</time>
      </trkpt>
      <trkpt lat="43.6354" lon="6.64274">
        <ele>421.3</ele>
        <time>2023-11-26T14:25:13Z</time>
      </trkpt>
      <trkpt lat="43.6354" lon="6.64274">
        <ele>421.2</ele>
        <time>2023-11-26T14:25:14Z</time>
      </trkpt>
      <trkpt lat="43.63541" lon="6.64274">
        <ele>421.2</ele>
        <time>2023-11-26T14:25:15Z</time>
      </trkpt>
      <trkpt lat="43.63541" lon="6.64274">
        <ele>421.1</ele>
        <time>2023-11-26T14:25:16Z</time>
      </trkpt>
      <trkpt lat="43.63542" lon="6.64275">
        <ele>421.1</ele>
        <time>2023-11-26T14:25:17Z</time>
      </trkpt>
      <trkpt lat="43.63542" lon="6.64275">
        <ele>421</ele>
        <time>2023-11-26T14:25:18Z</time>
      </trkpt>
      <trkpt lat="43.63543" lon="6.64275">
        <ele>420.9</ele>
        <time>2023-11-26T14:25:19Z</time>
      </trkpt>
      <trkpt lat="43.63543" lon="6.64276">
        <ele>420.9</ele>
        <time>2023-11-26T14:25:20Z</time>
      </trkpt>
      <trkpt lat="43.63544" lon="6.64276">
        <ele>420.9</ele>
        <time>2023-11-26T14:25:21Z</time>
      </trkpt>
      <trkpt lat="43.63545" lon="6.64276">
        <ele>420.6</ele>
        <time>2023-11-26T14:25:22Z</time>
      </trkpt>
      <trkpt lat="43.63545" lon="6.64276">
        <ele>420.5</ele>
        <time>2023-11-26T14:25:23Z</time>
      </trkpt>
      <trkpt lat="43.63546" lon="6.64276">
        <ele>420.6</ele>
        <time>2023-11-26T14:25:24Z</time>
      </trkpt>
      <trkpt lat="43.63546" lon="6.64277">
        <ele>420.5</ele>
        <time>2023-11-26T14:25:25Z</time>
      </trkpt>
      <trkpt lat="43.63547" lon="6.64277">
        <ele>420.4</ele>
        <time>2023-11-26T14:25:26Z</time>
      </trkpt>
      <trkpt lat="43.63547" lon="6.64277">
        <ele>420.2</ele>
        <time>2023-11-26T14:25:27Z</time>
      </trkpt>
      <trkpt lat="43.63548" lon="6.64277">
        <ele>420.1</ele>
        <time>2023-11-26T14:25:28Z</time>
      </trkpt>
      <trkpt lat="43.63548" lon="6.64277">
        <ele>420</ele>
        <time>2023-11-26T14:25:29Z</time>
      </trkpt>
      <trkpt lat="43.63549" lon="6.64277">
        <ele>420</ele>
        <time>2023-11-26T14:25:30Z</time>
      </trkpt>
      <trkpt lat="43.63549" lon="6.64278">
        <ele>420</ele>
        <time>2023-11-26T14:25:31Z</time>
      </trkpt>
      <trkpt lat="43.6355" lon="6.64278">
        <ele>420</ele>
        <time>2023-11-26T14:25:32Z</time>
      </trkpt>
      <trkpt lat="43.6355" lon="6.64278">
        <ele>419.9</ele>
        <time>2023-11-26T14:25:33Z</time>
      </trkpt>
      <trkpt lat="43.6355" lon="6.64278">
        <ele>420</ele>
        <time>2023-11-26T14:25:34Z</time>
      </trkpt>
      <trkpt lat="43.6355" lon="6.64278">
        <ele>419.9</ele>
        <time>2023-11-26T14:25:35Z</time>
      </trkpt>
      <trkpt lat="43.6355" lon="6.64278">
        <ele>419.7</ele>
        <time>2023-11-26T14:25:36Z</time>
      </trkpt>
      <trkpt lat="43.6355" lon="6.64278">
        <ele>419.7</ele>
        <time>2023-11-26T14:25:37Z</time>
      </trkpt>
      <trkpt lat="43.6355" lon="6.64278">
        <ele>419.6</ele>
        <time>2023-11-26T14:25:38Z</time>
      </trkpt>
      <trkpt lat="43.63551" lon="6.64278">
        <ele>419.5</ele>
        <time>2023-11-26T14:25:39Z</time>
      </trkpt>
      <trkpt lat="43.63551" lon="6.64278">
        <ele>419.5</ele>
        <time>2023-11-26T14:25:40Z</time>
      </trkpt>
      <trkpt lat="43.63551" lon="6.64278">
        <ele>419.5</ele>
        <time>2023-11-26T14:25:41Z</time>
      </trkpt>
      <trkpt lat="43.63551" lon="6.64278">
        <ele>419.5</ele>
        <time>2023-11-26T14:25:42Z</time>
      </trkpt>
      <trkpt lat="43.63551" lon="6.64277">
        <ele>419.5</ele>
        <time>2023-11-26T14:25:43Z</time>
      </trkpt>
      <trkpt lat="43.63551" lon="6.64278">
        <ele>419.5</ele>
        <time>2023-11-26T14:25:44Z</time>
      </trkpt>
      <trkpt lat="43.63551" lon="6.64278">
        <ele>419.4</ele>
        <time>2023-11-26T14:25:45Z</time>
      </trkpt>
      <trkpt lat="43.63551" lon="6.64278">
        <ele>419.4</ele>
        <time>2023-11-26T14:25:46Z</time>
      </trkpt>
      <trkpt lat="43.63551" lon="6.64279">
        <ele>419.4</ele>
        <time>2023-11-26T14:25:47Z</time>
      </trkpt>
      <trkpt lat="43.63551" lon="6.64279">
        <ele>419.3</ele>
        <time>2023-11-26T14:25:48Z</time>
      </trkpt>
      <trkpt lat="43.63551" lon="6.64279">
        <ele>419.3</ele>
        <time>2023-11-26T14:25:49Z</time>
      </trkpt>
      <trkpt lat="43.63551" lon="6.64279">
        <ele>419.4</ele>
        <time>2023-11-26T14:25:50Z</time>
      </trkpt>
      <trkpt lat="43.63551" lon="6.64279">
        <ele>419.4</ele>
        <time>2023-11-26T14:25:51Z</time>
      </trkpt>
      <trkpt lat="43.63551" lon="6.64279">
        <ele>419.3</ele>
        <time>2023-11-26T14:25:52Z</time>
      </trkpt>
      <trkpt lat="43.63551" lon="6.64279">
        <ele>419.3</ele>
        <time>2023-11-26T14:25:53Z</time>
      </trkpt>
      <trkpt lat="43.63551" lon="6.64279">
        <ele>419.3</ele>
        <time>2023-11-26T14:25:54Z</time>
      </trkpt>
      <trkpt lat="43.63551" lon="6.64279">
        <ele>419.4</ele>
        <time>2023-11-26T14:25:55Z</time>
      </trkpt>
      <trkpt lat="43.63551" lon="6.6428">
        <ele>419.3</ele>
        <time>2023-11-26T14:25:56Z</time>
      </trkpt>
      <trkpt lat="43.63552" lon="6.6428">
        <ele>419.4</ele>
        <time>2023-11-26T14:25:57Z</time>
      </trkpt>
      <trkpt lat="43.63552" lon="6.6428">
        <ele>419.4</ele>
        <time>2023-11-26T14:25:58Z</time>
      </trkpt>
      <trkpt lat="43.63552" lon="6.6428">
        <ele>419.3</ele>
        <time>2023-11-26T14:25:59Z</time>
      </trkpt>
      <trkpt lat="43.63552" lon="6.6428">
        <ele>419.3</ele>
        <time>2023-11-26T14:26:00Z</time>
      </trkpt>
      <trkpt lat="43.63552" lon="6.6428">
        <ele>419.4</ele>
        <time>2023-11-26T14:26:01Z</time>
      </trkpt>
      <trkpt lat="43.63552" lon="6.6428">
        <ele>419.3</ele>
        <time>2023-11-26T14:26:02Z</time>
      </trkpt>
      <trkpt lat="43.63552" lon="6.6428">
        <ele>419.2</ele>
        <time>2023-11-26T14:26:03Z</time>
      </trkpt>
      <trkpt lat="43.63552" lon="6.64281">
        <ele>419.3</ele>
        <time>2023-11-26T14:26:04Z</time>
      </trkpt>
      <trkpt lat="43.63552" lon="6.64281">
        <ele>419.3</ele>
        <time>2023-11-26T14:26:05Z</time>
      </trkpt>
      <trkpt lat="43.63552" lon="6.64281">
        <ele>419.3</ele>
        <time>2023-11-26T14:26:06Z</time>
      </trkpt>
      <trkpt lat="43.63552" lon="6.64281">
        <ele>419.4</ele>
        <time>2023-11-26T14:26:07Z</time>
      </trkpt>
      <trkpt lat="43.63552" lon="6.64281">
        <ele>419.5</ele>
        <time>2023-11-26T14:26:08Z</time>
      </trkpt>
      <trkpt lat="43.63552" lon="6.64281">
        <ele>419.6</ele>
        <time>2023-11-26T14:26:09Z</time>
      </trkpt>
      <trkpt lat="43.63552" lon="6.64281">
        <ele>419.6</ele>
        <time>2023-11-26T14:26:10Z</time>
      </trkpt>
      <trkpt lat="43.63552" lon="6.6428">
        <ele>419.6</ele>
        <time>2023-11-26T14:26:11Z</time>
      </trkpt>
      <trkpt lat="43.63552" lon="6.6428">
        <ele>419.5</ele>
        <time>2023-11-26T14:26:12Z</time>
      </trkpt>
      <trkpt lat="43.63552" lon="6.6428">
        <ele>419.4</ele>
        <time>2023-11-26T14:26:13Z</time>
      </trkpt>
      <trkpt lat="43.63552" lon="6.6428">
        <ele>419.4</ele>
        <time>2023-11-26T14:26:14Z</time>
      </trkpt>
      <trkpt lat="43.63552" lon="6.6428">
        <ele>419.4</ele>
        <time>2023-11-26T14:26:15Z</time>
      </trkpt>
      <trkpt lat="43.63552" lon="6.64281">
        <ele>419.4</ele>
        <time>2023-11-26T14:26:16Z</time>
      </trkpt>
      <trkpt lat="43.63552" lon="6.64281">
        <ele>419.3</ele>
        <time>2023-11-26T14:26:17Z</time>
      </trkpt>
      <trkpt lat="43.63552" lon="6.6428">
        <ele>419.4</ele>
        <time>2023-11-26T14:26:18Z</time>
      </trkpt>
      <trkpt lat="43.63552" lon="6.6428">
        <ele>419.4</ele>
        <time>2023-11-26T14:26:19Z</time>
      </trkpt>
      <trkpt lat="43.63552" lon="6.6428">
        <ele>419.4</ele>
        <time>2023-11-26T14:26:20Z</time>
      </trkpt>
      <trkpt lat="43.63552" lon="6.64279">
        <ele>419.4</ele>
        <time>2023-11-26T14:26:21Z</time>
      </trkpt>
      <trkpt lat="43.63551" lon="6.64279">
        <ele>419.4</ele>
        <time>2023-11-26T14:26:22Z</time>
      </trkpt>
      <trkpt lat="43.63551" lon="6.64279">
        <ele>419.4</ele>
        <time>2023-11-26T14:26:23Z</time>
      </trkpt>
      <trkpt lat="43.63552" lon="6.64279">
        <ele>419.4</ele>
        <time>2023-11-26T14:26:24Z</time>
      </trkpt>
      <trkpt lat="43.63552" lon="6.64279">
        <ele>419.4</ele>
        <time>2023-11-26T14:26:25Z</time>
      </trkpt>
      <trkpt lat="43.63553" lon="6.6428">
        <ele>419.3</ele>
        <time>2023-11-26T14:26:26Z</time>
      </trkpt>
      <trkpt lat="43.63553" lon="6.6428">
        <ele>419.3</ele>
        <time>2023-11-26T14:26:27Z</time>
      </trkpt>
      <trkpt lat="43.63553" lon="6.6428">
        <ele>419.2</ele>
        <time>2023-11-26T14:26:28Z</time>
      </trkpt>
      <trkpt lat="43.63553" lon="6.64281">
        <ele>419.2</ele>
        <time>2023-11-26T14:26:29Z</time>
      </trkpt>
      <trkpt lat="43.63553" lon="6.64281">
        <ele>419.1</ele>
        <time>2023-11-26T14:26:30Z</time>
      </trkpt>
      <trkpt lat="43.63553" lon="6.64281">
        <ele>419.1</ele>
        <time>2023-11-26T14:26:31Z</time>
      </trkpt>
      <trkpt lat="43.63553" lon="6.64282">
        <ele>419</ele>
        <time>2023-11-26T14:26:32Z</time>
      </trkpt>
      <trkpt lat="43.63553" lon="6.64281">
        <ele>419</ele>
        <time>2023-11-26T14:26:33Z</time>
      </trkpt>
      <trkpt lat="43.63553" lon="6.64281">
        <ele>419</ele>
        <time>2023-11-26T14:26:34Z</time>
      </trkpt>
      <trkpt lat="43.63553" lon="6.64282">
        <ele>419.1</ele>
        <time>2023-11-26T14:26:35Z</time>
      </trkpt>
      <trkpt lat="43.63553" lon="6.64282">
        <ele>419.1</ele>
        <time>2023-11-26T14:26:36Z</time>
      </trkpt>
      <trkpt lat="43.63553" lon="6.64282">
        <ele>419</ele>
        <time>2023-11-26T14:26:37Z</time>
      </trkpt>
      <trkpt lat="43.63553" lon="6.64282">
        <ele>419</ele>
        <time>2023-11-26T14:26:38Z</time>
      </trkpt>
      <trkpt lat="43.63553" lon="6.64282">
        <ele>419</ele>
        <time>2023-11-26T14:26:39Z</time>
      </trkpt>
      <trkpt lat="43.63553" lon="6.64282">
        <ele>419</ele>
        <time>2023-11-26T14:26:40Z</time>
      </trkpt>
      <trkpt lat="43.63554" lon="6.64282">
        <ele>419</ele>
        <time>2023-11-26T14:26:41Z</time>
      </trkpt>
      <trkpt lat="43.63553" lon="6.64282">
        <ele>419.1</ele>
        <time>2023-11-26T14:26:42Z</time>
      </trkpt>
      <trkpt lat="43.63554" lon="6.64282">
        <ele>419.1</ele>
        <time>2023-11-26T14:26:43Z</time>
      </trkpt>
      <trkpt lat="43.63554" lon="6.64282">
        <ele>419.1</ele>
        <time>2023-11-26T14:26:44Z</time>
      </trkpt>
      <trkpt lat="43.63554" lon="6.64282">
        <ele>419.1</ele>
        <time>2023-11-26T14:26:45Z</time>
      </trkpt>
      <trkpt lat="43.63554" lon="6.64282">
        <ele>419</ele>
        <time>2023-11-26T14:26:46Z</time>
      </trkpt>
      <trkpt lat="43.63553" lon="6.64282">
        <ele>419</ele>
        <time>2023-11-26T14:26:47Z</time>
      </trkpt>
      <trkpt lat="43.63553" lon="6.64283">
        <ele>419.1</ele>
        <time>2023-11-26T14:26:48Z</time>
      </trkpt>
      <trkpt lat="43.63552" lon="6.64283">
        <ele>419.1</ele>
        <time>2023-11-26T14:26:49Z</time>
      </trkpt>
      <trkpt lat="43.63552" lon="6.64284">
        <ele>419.1</ele>
        <time>2023-11-26T14:26:50Z</time>
      </trkpt>
      <trkpt lat="43.63552" lon="6.64284">
        <ele>419.2</ele>
        <time>2023-11-26T14:26:51Z</time>
      </trkpt>
      <trkpt lat="43.63552" lon="6.64285">
        <ele>419.4</ele>
        <time>2023-11-26T14:26:52Z</time>
      </trkpt>
      <trkpt lat="43.63552" lon="6.64285">
        <ele>419.5</ele>
        <time>2023-11-26T14:26:53Z</time>
      </trkpt>
      <trkpt lat="43.63552" lon="6.64285">
        <ele>419.5</ele>
        <time>2023-11-26T14:26:54Z</time>
      </trkpt>
      <trkpt lat="43.63552" lon="6.64285">
        <ele>419.6</ele>
        <time>2023-11-26T14:26:55Z</time>
      </trkpt>
      <trkpt lat="43.63552" lon="6.64286">
        <ele>419.8</ele>
        <time>2023-11-26T14:26:56Z</time>
      </trkpt>
      <trkpt lat="43.63551" lon="6.64286">
        <ele>419.9</ele>
        <time>2023-11-26T14:26:57Z</time>
      </trkpt>
      <trkpt lat="43.63551" lon="6.64286">
        <ele>420</ele>
        <time>2023-11-26T14:26:58Z</time>
      </trkpt>
      <trkpt lat="43.63551" lon="6.64286">
        <ele>420.2</ele>
        <time>2023-11-26T14:26:59Z</time>
      </trkpt>
      <trkpt lat="43.6355" lon="6.64286">
        <ele>420.4</ele>
        <time>2023-11-26T14:27:00Z</time>
      </trkpt>
      <trkpt lat="43.6355" lon="6.64287">
        <ele>420.5</ele>
        <time>2023-11-26T14:27:01Z</time>
      </trkpt>
      <trkpt lat="43.63549" lon="6.64287">
        <ele>420.7</ele>
        <time>2023-11-26T14:27:02Z</time>
      </trkpt>
      <trkpt lat="43.63549" lon="6.64287">
        <ele>420.9</ele>
        <time>2023-11-26T14:27:03Z</time>
      </trkpt>
      <trkpt lat="43.63549" lon="6.64288">
        <ele>421</ele>
        <time>2023-11-26T14:27:04Z</time>
      </trkpt>
      <trkpt lat="43.63549" lon="6.64287">
        <ele>421.1</ele>
        <time>2023-11-26T14:27:05Z</time>
      </trkpt>
      <trkpt lat="43.63549" lon="6.64287">
        <ele>421.2</ele>
        <time>2023-11-26T14:27:06Z</time>
      </trkpt>
      <trkpt lat="43.63549" lon="6.64287">
        <ele>421.2</ele>
        <time>2023-11-26T14:27:07Z</time>
      </trkpt>
      <trkpt lat="43.6355" lon="6.64287">
        <ele>421.2</ele>
        <time>2023-11-26T14:27:08Z</time>
      </trkpt>
      <trkpt lat="43.6355" lon="6.64287">
        <ele>421.3</ele>
        <time>2023-11-26T14:27:09Z</time>
      </trkpt>
      <trkpt lat="43.6355" lon="6.64287">
        <ele>421.3</ele>
        <time>2023-11-26T14:27:10Z</time>
      </trkpt>
      <trkpt lat="43.6355" lon="6.64287">
        <ele>421.3</ele>
        <time>2023-11-26T14:27:11Z</time>
      </trkpt>
      <trkpt lat="43.63549" lon="6.64287">
        <ele>421.3</ele>
        <time>2023-11-26T14:27:12Z</time>
      </trkpt>
      <trkpt lat="43.63549" lon="6.64287">
        <ele>421.4</ele>
        <time>2023-11-26T14:27:13Z</time>
      </trkpt>
      <trkpt lat="43.63548" lon="6.64288">
        <ele>421.4</ele>
        <time>2023-11-26T14:27:14Z</time>
      </trkpt>
      <trkpt lat="43.63548" lon="6.64288">
        <ele>421.4</ele>
        <time>2023-11-26T14:27:15Z</time>
      </trkpt>
      <trkpt lat="43.63548" lon="6.64288">
        <ele>421.4</ele>
        <time>2023-11-26T14:27:16Z</time>
      </trkpt>
      <trkpt lat="43.63548" lon="6.64288">
        <ele>421.4</ele>
        <time>2023-11-26T14:27:17Z</time>
      </trkpt>
      <trkpt lat="43.63548" lon="6.64288">
        <ele>421.4</ele>
        <time>2023-11-26T14:27:18Z</time>
      </trkpt>
      <trkpt lat="43.63549" lon="6.64287">
        <ele>421.4</ele>
        <time>2023-11-26T14:27:19Z</time>
      </trkpt>
      <trkpt lat="43.63549" lon="6.64287">
        <ele>421.4</ele>
        <time>2023-11-26T14:27:20Z</time>
      </trkpt>
      <trkpt lat="43.63548" lon="6.64287">
        <ele>421.4</ele>
        <time>2023-11-26T14:27:21Z</time>
      </trkpt>
      <trkpt lat="43.63548" lon="6.64287">
        <ele>421.4</ele>
        <time>2023-11-26T14:27:22Z</time>
      </trkpt>
      <trkpt lat="43.63549" lon="6.64287">
        <ele>421.4</ele>
        <time>2023-11-26T14:27:23Z</time>
      </trkpt>
      <trkpt lat="43.63549" lon="6.64287">
        <ele>421.4</ele>
        <time>2023-11-26T14:27:24Z</time>
      </trkpt>
      <trkpt lat="43.63549" lon="6.64286">
        <ele>421.4</ele>
        <time>2023-11-26T14:27:25Z</time>
      </trkpt>
      <trkpt lat="43.63549" lon="6.64287">
        <ele>421.4</ele>
        <time>2023-11-26T14:27:26Z</time>
      </trkpt>
      <trkpt lat="43.63549" lon="6.64287">
        <ele>421.4</ele>
        <time>2023-11-26T14:27:27Z</time>
      </trkpt>
      <trkpt lat="43.63549" lon="6.64287">
        <ele>421.4</ele>
        <time>2023-11-26T14:27:28Z</time>
      </trkpt>
      <trkpt lat="43.63549" lon="6.64287">
        <ele>421.4</ele>
        <time>2023-11-26T14:27:29Z</time>
      </trkpt>
      <trkpt lat="43.63549" lon="6.64287">
        <ele>421.4</ele>
        <time>2023-11-26T14:27:30Z</time>
      </trkpt>
      <trkpt lat="43.63549" lon="6.64287">
        <ele>421.2</ele>
        <time>2023-11-26T14:27:31Z</time>
      </trkpt>
      <trkpt lat="43.6355" lon="6.64287">
        <ele>421.2</ele>
        <time>2023-11-26T14:27:32Z</time>
      </trkpt>
      <trkpt lat="43.6355" lon="6.64287">
        <ele>421.3</ele>
        <time>2023-11-26T14:27:33Z</time>
      </trkpt>
      <trkpt lat="43.6355" lon="6.64287">
        <ele>421.3</ele>
        <time>2023-11-26T14:27:34Z</time>
      </trkpt>
      <trkpt lat="43.6355" lon="6.64288">
        <ele>421.2</ele>
        <time>2023-11-26T14:27:35Z</time>
      </trkpt>
      <trkpt lat="43.6355" lon="6.64288">
        <ele>421.3</ele>
        <time>2023-11-26T14:27:36Z</time>
      </trkpt>
      <trkpt lat="43.63551" lon="6.64287">
        <ele>421.3</ele>
        <time>2023-11-26T14:27:37Z</time>
      </trkpt>
      <trkpt lat="43.63552" lon="6.64287">
        <ele>421.2</ele>
        <time>2023-11-26T14:27:38Z</time>
      </trkpt>
      <trkpt lat="43.63552" lon="6.64286">
        <ele>421.1</ele>
        <time>2023-11-26T14:27:39Z</time>
      </trkpt>
      <trkpt lat="43.63553" lon="6.64285">
        <ele>421</ele>
        <time>2023-11-26T14:27:40Z</time>
      </trkpt>
      <trkpt lat="43.63553" lon="6.64285">
        <ele>420.8</ele>
        <time>2023-11-26T14:27:41Z</time>
      </trkpt>
      <trkpt lat="43.63553" lon="6.64284">
        <ele>420.7</ele>
        <time>2023-11-26T14:27:42Z</time>
      </trkpt>
      <trkpt lat="43.63554" lon="6.64284">
        <ele>420.4</ele>
        <time>2023-11-26T14:27:43Z</time>
      </trkpt>
      <trkpt lat="43.63554" lon="6.64283">
        <ele>420.1</ele>
        <time>2023-11-26T14:27:44Z</time>
      </trkpt>
      <trkpt lat="43.63554" lon="6.64281">
        <ele>419.9</ele>
        <time>2023-11-26T14:27:45Z</time>
      </trkpt>
      <trkpt lat="43.63553" lon="6.64281">
        <ele>419.9</ele>
        <time>2023-11-26T14:27:46Z</time>
      </trkpt>
      <trkpt lat="43.63552" lon="6.64279">
        <ele>419.8</ele>
        <time>2023-11-26T14:27:47Z</time>
      </trkpt>
      <trkpt lat="43.63551" lon="6.64278">
        <ele>419.8</ele>
        <time>2023-11-26T14:27:48Z</time>
      </trkpt>
      <trkpt lat="43.63551" lon="6.64277">
        <ele>419.8</ele>
        <time>2023-11-26T14:27:49Z</time>
      </trkpt>
      <trkpt lat="43.6355" lon="6.64277">
        <ele>419.9</ele>
        <time>2023-11-26T14:27:50Z</time>
      </trkpt>
      <trkpt lat="43.63549" lon="6.64277">
        <ele>419.9</ele>
        <time>2023-11-26T14:27:51Z</time>
      </trkpt>
      <trkpt lat="43.63549" lon="6.64276">
        <ele>420</ele>
        <time>2023-11-26T14:27:52Z</time>
      </trkpt>
      <trkpt lat="43.63548" lon="6.64275">
        <ele>420.1</ele>
        <time>2023-11-26T14:27:53Z</time>
      </trkpt>
      <trkpt lat="43.63547" lon="6.64275">
        <ele>420.2</ele>
        <time>2023-11-26T14:27:54Z</time>
      </trkpt>
      <trkpt lat="43.63546" lon="6.64275">
        <ele>420.3</ele>
        <time>2023-11-26T14:27:55Z</time>
      </trkpt>
      <trkpt lat="43.63545" lon="6.64274">
        <ele>420.4</ele>
        <time>2023-11-26T14:27:56Z</time>
      </trkpt>
      <trkpt lat="43.63545" lon="6.64274">
        <ele>420.5</ele>
        <time>2023-11-26T14:27:57Z</time>
      </trkpt>
      <trkpt lat="43.63544" lon="6.64273">
        <ele>420.6</ele>
        <time>2023-11-26T14:27:58Z</time>
      </trkpt>
      <trkpt lat="43.63543" lon="6.64272">
        <ele>420.7</ele>
        <time>2023-11-26T14:27:59Z</time>
      </trkpt>
      <trkpt lat="43.63542" lon="6.64271">
        <ele>420.8</ele>
        <time>2023-11-26T14:28:00Z</time>
      </trkpt>
      <trkpt lat="43.63542" lon="6.64271">
        <ele>420.8</ele>
        <time>2023-11-26T14:28:01Z</time>
      </trkpt>
      <trkpt lat="43.63541" lon="6.6427">
        <ele>420.9</ele>
        <time>2023-11-26T14:28:02Z</time>
      </trkpt>
      <trkpt lat="43.6354" lon="6.64269">
        <ele>421</ele>
        <time>2023-11-26T14:28:03Z</time>
      </trkpt>
      <trkpt lat="43.63539" lon="6.64269">
        <ele>421.1</ele>
        <time>2023-11-26T14:28:04Z</time>
      </trkpt>
      <trkpt lat="43.63539" lon="6.64269">
        <ele>421.2</ele>
        <time>2023-11-26T14:28:05Z</time>
      </trkpt>
      <trkpt lat="43.63538" lon="6.64269">
        <ele>421.3</ele>
        <time>2023-11-26T14:28:06Z</time>
      </trkpt>
      <trkpt lat="43.63537" lon="6.6427">
        <ele>421.4</ele>
        <time>2023-11-26T14:28:07Z</time>
      </trkpt>
      <trkpt lat="43.63536" lon="6.64271">
        <ele>421.5</ele>
        <time>2023-11-26T14:28:08Z</time>
      </trkpt>
      <trkpt lat="43.63535" lon="6.64272">
        <ele>421.5</ele>
        <time>2023-11-26T14:28:09Z</time>
      </trkpt>
      <trkpt lat="43.63535" lon="6.64273">
        <ele>421.5</ele>
        <time>2023-11-26T14:28:10Z</time>
      </trkpt>
      <trkpt lat="43.63534" lon="6.64274">
        <ele>421.6</ele>
        <time>2023-11-26T14:28:11Z</time>
      </trkpt>
      <trkpt lat="43.63534" lon="6.64276">
        <ele>421.6</ele>
        <time>2023-11-26T14:28:12Z</time>
      </trkpt>
      <trkpt lat="43.63534" lon="6.64277">
        <ele>421.5</ele>
        <time>2023-11-26T14:28:13Z</time>
      </trkpt>
      <trkpt lat="43.63534" lon="6.64278">
        <ele>421.5</ele>
        <time>2023-11-26T14:28:14Z</time>
      </trkpt>
      <trkpt lat="43.63534" lon="6.64279">
        <ele>421.5</ele>
        <time>2023-11-26T14:28:15Z</time>
      </trkpt>
      <trkpt lat="43.63534" lon="6.6428">
        <ele>421.5</ele>
        <time>2023-11-26T14:28:16Z</time>
      </trkpt>
      <trkpt lat="43.63535" lon="6.64281">
        <ele>421.5</ele>
        <time>2023-11-26T14:28:17Z</time>
      </trkpt>
      <trkpt lat="43.63535" lon="6.64282">
        <ele>421.5</ele>
        <time>2023-11-26T14:28:18Z</time>
      </trkpt>
      <trkpt lat="43.63536" lon="6.64283">
        <ele>421.5</ele>
        <time>2023-11-26T14:28:19Z</time>
      </trkpt>
      <trkpt lat="43.63537" lon="6.64283">
        <ele>421.5</ele>
        <time>2023-11-26T14:28:20Z</time>
      </trkpt>
      <trkpt lat="43.63537" lon="6.64284">
        <ele>421.6</ele>
        <time>2023-11-26T14:28:21Z</time>
      </trkpt>
      <trkpt lat="43.63538" lon="6.64284">
        <ele>421.6</ele>
        <time>2023-11-26T14:28:22Z</time>
      </trkpt>
      <trkpt lat="43.63539" lon="6.64285">
        <ele>421.6</ele>
        <time>2023-11-26T14:28:23Z</time>
      </trkpt>
      <trkpt lat="43.63539" lon="6.64285">
        <ele>421.7</ele>
        <time>2023-11-26T14:28:24Z</time>
      </trkpt>
      <trkpt lat="43.6354" lon="6.64286">
        <ele>421.8</ele>
        <time>2023-11-26T14:28:25Z</time>
      </trkpt>
      <trkpt lat="43.63541" lon="6.64286">
        <ele>421.8</ele>
        <time>2023-11-26T14:28:26Z</time>
      </trkpt>
      <trkpt lat="43.63542" lon="6.64286">
        <ele>421.7</ele>
        <time>2023-11-26T14:28:27Z</time>
      </trkpt>
      <trkpt lat="43.63543" lon="6.64286">
        <ele>421.7</ele>
        <time>2023-11-26T14:28:28Z</time>
      </trkpt>
      <trkpt lat="43.63543" lon="6.64286">
        <ele>421.7</ele>
        <time>2023-11-26T14:28:29Z</time>
      </trkpt>
      <trkpt lat="43.63543" lon="6.64286">
        <ele>421.7</ele>
        <time>2023-11-26T14:28:30Z</time>
      </trkpt>
      <trkpt lat="43.63543" lon="6.64286">
        <ele>421.7</ele>
        <time>2023-11-26T14:28:31Z</time>
      </trkpt>
      <trkpt lat="43.63543" lon="6.64287">
        <ele>421.7</ele>
        <time>2023-11-26T14:28:32Z</time>
      </trkpt>
      <trkpt lat="43.63544" lon="6.64287">
        <ele>421.7</ele>
        <time>2023-11-26T14:28:33Z</time>
      </trkpt>
      <trkpt lat="43.63544" lon="6.64287">
        <ele>421.7</ele>
        <time>2023-11-26T14:28:34Z</time>
      </trkpt>
      <trkpt lat="43.63544" lon="6.64287">
        <ele>421.6</ele>
        <time>2023-11-26T14:28:35Z</time>
      </trkpt>
      <trkpt lat="43.63545" lon="6.64287">
        <ele>421.5</ele>
        <time>2023-11-26T14:28:36Z</time>
      </trkpt>
      <trkpt lat="43.63545" lon="6.64287">
        <ele>421.4</ele>
        <time>2023-11-26T14:28:37Z</time>
      </trkpt>
      <trkpt lat="43.63546" lon="6.64288">
        <ele>421.3</ele>
        <time>2023-11-26T14:28:38Z</time>
      </trkpt>
      <trkpt lat="43.63547" lon="6.64288">
        <ele>421.2</ele>
        <time>2023-11-26T14:28:39Z</time>
      </trkpt>
      <trkpt lat="43.63548" lon="6.64287">
        <ele>421.2</ele>
        <time>2023-11-26T14:28:40Z</time>
      </trkpt>
      <trkpt lat="43.63548" lon="6.64286">
        <ele>421.2</ele>
        <time>2023-11-26T14:28:41Z</time>
      </trkpt>
      <trkpt lat="43.63548" lon="6.64286">
        <ele>421.2</ele>
        <time>2023-11-26T14:28:42Z</time>
      </trkpt>
      <trkpt lat="43.63548" lon="6.64286">
        <ele>421.1</ele>
        <time>2023-11-26T14:28:43Z</time>
      </trkpt>
      <trkpt lat="43.63548" lon="6.64286">
        <ele>421</ele>
        <time>2023-11-26T14:28:44Z</time>
      </trkpt>
      <trkpt lat="43.63548" lon="6.64286">
        <ele>420.8</ele>
        <time>2023-11-26T14:28:45Z</time>
      </trkpt>
      <trkpt lat="43.63549" lon="6.64286">
        <ele>420.7</ele>
        <time>2023-11-26T14:28:46Z</time>
      </trkpt>
      <trkpt lat="43.6355" lon="6.64286">
        <ele>420.4</ele>
        <time>2023-11-26T14:28:47Z</time>
      </trkpt>
      <trkpt lat="43.6355" lon="6.64285">
        <ele>420.1</ele>
        <time>2023-11-26T14:28:48Z</time>
      </trkpt>
      <trkpt lat="43.63551" lon="6.64285">
        <ele>419.9</ele>
        <time>2023-11-26T14:28:49Z</time>
      </trkpt>
      <trkpt lat="43.63551" lon="6.64284">
        <ele>419.7</ele>
        <time>2023-11-26T14:28:50Z</time>
      </trkpt>
      <trkpt lat="43.63552" lon="6.64283">
        <ele>419.6</ele>
        <time>2023-11-26T14:28:51Z</time>
      </trkpt>
      <trkpt lat="43.63552" lon="6.64283">
        <ele>419.4</ele>
        <time>2023-11-26T14:28:52Z</time>
      </trkpt>
      <trkpt lat="43.63553" lon="6.64283">
        <ele>419.2</ele>
        <time>2023-11-26T14:28:53Z</time>
      </trkpt>
      <trkpt lat="43.63553" lon="6.64283">
        <ele>419.1</ele>
        <time>2023-11-26T14:28:54Z</time>
      </trkpt>
      <trkpt lat="43.63554" lon="6.64283">
        <ele>418.9</ele>
        <time>2023-11-26T14:28:55Z</time>
      </trkpt>
      <trkpt lat="43.63554" lon="6.64282">
        <ele>418.8</ele>
        <time>2023-11-26T14:28:56Z</time>
      </trkpt>
      <trkpt lat="43.63555" lon="6.64282">
        <ele>418.7</ele>
        <time>2023-11-26T14:28:57Z</time>
      </trkpt>
      <trkpt lat="43.63555" lon="6.64283">
        <ele>418.6</ele>
        <time>2023-11-26T14:28:58Z</time>
      </trkpt>
      <trkpt lat="43.63555" lon="6.64282">
        <ele>418.5</ele>
        <time>2023-11-26T14:28:59Z</time>
      </trkpt>
      <trkpt lat="43.63555" lon="6.64283">
        <ele>418.5</ele>
        <time>2023-11-26T14:29:00Z</time>
      </trkpt>
      <trkpt lat="43.63555" lon="6.64283">
        <ele>418.5</ele>
        <time>2023-11-26T14:29:01Z</time>
      </trkpt>
      <trkpt lat="43.63556" lon="6.64283">
        <ele>418.4</ele>
        <time>2023-11-26T14:29:02Z</time>
      </trkpt>
      <trkpt lat="43.63556" lon="6.64282">
        <ele>418.4</ele>
        <time>2023-11-26T14:29:03Z</time>
      </trkpt>
      <trkpt lat="43.63557" lon="6.64282">
        <ele>418.4</ele>
        <time>2023-11-26T14:29:04Z</time>
      </trkpt>
      <trkpt lat="43.63557" lon="6.64281">
        <ele>418.3</ele>
        <time>2023-11-26T14:29:05Z</time>
      </trkpt>
      <trkpt lat="43.63558" lon="6.64281">
        <ele>418.3</ele>
        <time>2023-11-26T14:29:06Z</time>
      </trkpt>
      <trkpt lat="43.63558" lon="6.64281">
        <ele>418.2</ele>
        <time>2023-11-26T14:29:07Z</time>
      </trkpt>
      <trkpt lat="43.63558" lon="6.6428">
        <ele>418.1</ele>
        <time>2023-11-26T14:29:08Z</time>
      </trkpt>
      <trkpt lat="43.63559" lon="6.6428">
        <ele>418</ele>
        <time>2023-11-26T14:29:09Z</time>
      </trkpt>
      <trkpt lat="43.63559" lon="6.64279">
        <ele>418</ele>
        <time>2023-11-26T14:29:10Z</time>
      </trkpt>
      <trkpt lat="43.63559" lon="6.64279">
        <ele>417.9</ele>
        <time>2023-11-26T14:29:11Z</time>
      </trkpt>
      <trkpt lat="43.6356" lon="6.64278">
        <ele>417.8</ele>
        <time>2023-11-26T14:29:12Z</time>
      </trkpt>
      <trkpt lat="43.6356" lon="6.64279">
        <ele>417.7</ele>
        <time>2023-11-26T14:29:13Z</time>
      </trkpt>
      <trkpt lat="43.6356" lon="6.64279">
        <ele>417.7</ele>
        <time>2023-11-26T14:29:14Z</time>
      </trkpt>
      <trkpt lat="43.6356" lon="6.64279">
        <ele>417.7</ele>
        <time>2023-11-26T14:29:15Z</time>
      </trkpt>
      <trkpt lat="43.6356" lon="6.64279">
        <ele>417.7</ele>
        <time>2023-11-26T14:29:16Z</time>
      </trkpt>
      <trkpt lat="43.6356" lon="6.64279">
        <ele>417.7</ele>
        <time>2023-11-26T14:29:17Z</time>
      </trkpt>
      <trkpt lat="43.6356" lon="6.64279">
        <ele>417.7</ele>
        <time>2023-11-26T14:29:18Z</time>
      </trkpt>
      <trkpt lat="43.6356" lon="6.6428">
        <ele>417.6</ele>
        <time>2023-11-26T14:29:19Z</time>
      </trkpt>
      <trkpt lat="43.6356" lon="6.6428">
        <ele>417.6</ele>
        <time>2023-11-26T14:29:20Z</time>
      </trkpt>
      <trkpt lat="43.6356" lon="6.6428">
        <ele>417.6</ele>
        <time>2023-11-26T14:29:21Z</time>
      </trkpt>
      <trkpt lat="43.6356" lon="6.6428">
        <ele>417.6</ele>
        <time>2023-11-26T14:29:22Z</time>
      </trkpt>
      <trkpt lat="43.6356" lon="6.6428">
        <ele>417.5</ele>
        <time>2023-11-26T14:29:23Z</time>
      </trkpt>
      <trkpt lat="43.6356" lon="6.6428">
        <ele>417.5</ele>
        <time>2023-11-26T14:29:24Z</time>
      </trkpt>
      <trkpt lat="43.6356" lon="6.64281">
        <ele>417.5</ele>
        <time>2023-11-26T14:29:25Z</time>
      </trkpt>
      <trkpt lat="43.6356" lon="6.64281">
        <ele>417.5</ele>
        <time>2023-11-26T14:29:26Z</time>
      </trkpt>
      <trkpt lat="43.6356" lon="6.64281">
        <ele>417.5</ele>
        <time>2023-11-26T14:29:27Z</time>
      </trkpt>
      <trkpt lat="43.63561" lon="6.6428">
        <ele>417.4</ele>
        <time>2023-11-26T14:29:28Z</time>
      </trkpt>
      <trkpt lat="43.63561" lon="6.6428">
        <ele>417.4</ele>
        <time>2023-11-26T14:29:29Z</time>
      </trkpt>
      <trkpt lat="43.63562" lon="6.64279">
        <ele>417.4</ele>
        <time>2023-11-26T14:29:30Z</time>
      </trkpt>
      <trkpt lat="43.63562" lon="6.64278">
        <ele>417.3</ele>
        <time>2023-11-26T14:29:31Z</time>
      </trkpt>
      <trkpt lat="43.63562" lon="6.64278">
        <ele>417.3</ele>
        <time>2023-11-26T14:29:32Z</time>
      </trkpt>
      <trkpt lat="43.63563" lon="6.64277">
        <ele>417.1</ele>
        <time>2023-11-26T14:29:33Z</time>
      </trkpt>
      <trkpt lat="43.63563" lon="6.64277">
        <ele>416.9</ele>
        <time>2023-11-26T14:29:34Z</time>
      </trkpt>
      <trkpt lat="43.63563" lon="6.64277">
        <ele>416.8</ele>
        <time>2023-11-26T14:29:35Z</time>
      </trkpt>
      <trkpt lat="43.63563" lon="6.64276">
        <ele>416.7</ele>
        <time>2023-11-26T14:29:36Z</time>
      </trkpt>
      <trkpt lat="43.63564" lon="6.64276">
        <ele>416.6</ele>
        <time>2023-11-26T14:29:37Z</time>
      </trkpt>
      <trkpt lat="43.63565" lon="6.64275">
        <ele>416.5</ele>
        <time>2023-11-26T14:29:38Z</time>
      </trkpt>
      <trkpt lat="43.63565" lon="6.64275">
        <ele>416.5</ele>
        <time>2023-11-26T14:29:39Z</time>
      </trkpt>
      <trkpt lat="43.63565" lon="6.64274">
        <ele>416.4</ele>
        <time>2023-11-26T14:29:40Z</time>
      </trkpt>
      <trkpt lat="43.63566" lon="6.64274">
        <ele>416.4</ele>
        <time>2023-11-26T14:29:41Z</time>
      </trkpt>
      <trkpt lat="43.63566" lon="6.64274">
        <ele>416.3</ele>
        <time>2023-11-26T14:29:42Z</time>
      </trkpt>
      <trkpt lat="43.63567" lon="6.64273">
        <ele>416.2</ele>
        <time>2023-11-26T14:29:43Z</time>
      </trkpt>
      <trkpt lat="43.63568" lon="6.64273">
        <ele>416.2</ele>
        <time>2023-11-26T14:29:44Z</time>
      </trkpt>
      <trkpt lat="43.63568" lon="6.64272">
        <ele>416.1</ele>
        <time>2023-11-26T14:29:45Z</time>
      </trkpt>
      <trkpt lat="43.63568" lon="6.64272">
        <ele>416.1</ele>
        <time>2023-11-26T14:29:46Z</time>
      </trkpt>
      <trkpt lat="43.63569" lon="6.64272">
        <ele>415.9</ele>
        <time>2023-11-26T14:29:47Z</time>
      </trkpt>
      <trkpt lat="43.63569" lon="6.64271">
        <ele>415.9</ele>
        <time>2023-11-26T14:29:48Z</time>
      </trkpt>
      <trkpt lat="43.63569" lon="6.64271">
        <ele>415.9</ele>
        <time>2023-11-26T14:29:49Z</time>
      </trkpt>
      <trkpt lat="43.6357" lon="6.64272">
        <ele>415.8</ele>
        <time>2023-11-26T14:29:50Z</time>
      </trkpt>
      <trkpt lat="43.6357" lon="6.64272">
        <ele>415.8</ele>
        <time>2023-11-26T14:29:51Z</time>
      </trkpt>
      <trkpt lat="43.63571" lon="6.64271">
        <ele>415.8</ele>
        <time>2023-11-26T14:29:52Z</time>
      </trkpt>
      <trkpt lat="43.63572" lon="6.64271">
        <ele>415.8</ele>
        <time>2023-11-26T14:29:53Z</time>
      </trkpt>
      <trkpt lat="43.63572" lon="6.64271">
        <ele>415.8</ele>
        <time>2023-11-26T14:29:54Z</time>
      </trkpt>
      <trkpt lat="43.63572" lon="6.64271">
        <ele>415.7</ele>
        <time>2023-11-26T14:29:55Z</time>
      </trkpt>
      <trkpt lat="43.63573" lon="6.64271">
        <ele>415.7</ele>
        <time>2023-11-26T14:29:56Z</time>
      </trkpt>
      <trkpt lat="43.63573" lon="6.6427">
        <ele>415.6</ele>
        <time>2023-11-26T14:29:57Z</time>
      </trkpt>
      <trkpt lat="43.63573" lon="6.64269">
        <ele>415.5</ele>
        <time>2023-11-26T14:29:58Z</time>
      </trkpt>
      <trkpt lat="43.63573" lon="6.64269">
        <ele>415.4</ele>
        <time>2023-11-26T14:29:59Z</time>
      </trkpt>
      <trkpt lat="43.63574" lon="6.64269">
        <ele>415.5</ele>
        <time>2023-11-26T14:30:00Z</time>
      </trkpt>
      <trkpt lat="43.63574" lon="6.64269">
        <ele>415.4</ele>
        <time>2023-11-26T14:30:01Z</time>
      </trkpt>
      <trkpt lat="43.63574" lon="6.64269">
        <ele>415.4</ele>
        <time>2023-11-26T14:30:02Z</time>
      </trkpt>
      <trkpt lat="43.63574" lon="6.64269">
        <ele>415.3</ele>
        <time>2023-11-26T14:30:03Z</time>
      </trkpt>
      <trkpt lat="43.63575" lon="6.64268">
        <ele>415.3</ele>
        <time>2023-11-26T14:30:04Z</time>
      </trkpt>
      <trkpt lat="43.63575" lon="6.64268">
        <ele>415.3</ele>
        <time>2023-11-26T14:30:05Z</time>
      </trkpt>
      <trkpt lat="43.63576" lon="6.64268">
        <ele>415.3</ele>
        <time>2023-11-26T14:30:06Z</time>
      </trkpt>
      <trkpt lat="43.63577" lon="6.64268">
        <ele>415.2</ele>
        <time>2023-11-26T14:30:07Z</time>
      </trkpt>
      <trkpt lat="43.63577" lon="6.64268">
        <ele>415.3</ele>
        <time>2023-11-26T14:30:08Z</time>
      </trkpt>
      <trkpt lat="43.63578" lon="6.64269">
        <ele>415.3</ele>
        <time>2023-11-26T14:30:09Z</time>
      </trkpt>
      <trkpt lat="43.63578" lon="6.64269">
        <ele>415.3</ele>
        <time>2023-11-26T14:30:10Z</time>
      </trkpt>
      <trkpt lat="43.63578" lon="6.64269">
        <ele>415.3</ele>
        <time>2023-11-26T14:30:11Z</time>
      </trkpt>
      <trkpt lat="43.63579" lon="6.64269">
        <ele>415.3</ele>
        <time>2023-11-26T14:30:12Z</time>
      </trkpt>
      <trkpt lat="43.6358" lon="6.6427">
        <ele>415.3</ele>
        <time>2023-11-26T14:30:13Z</time>
      </trkpt>
      <trkpt lat="43.6358" lon="6.64269">
        <ele>415.3</ele>
        <time>2023-11-26T14:30:14Z</time>
      </trkpt>
      <trkpt lat="43.63581" lon="6.64269">
        <ele>415.3</ele>
        <time>2023-11-26T14:30:15Z</time>
      </trkpt>
      <trkpt lat="43.63582" lon="6.64269">
        <ele>415.3</ele>
        <time>2023-11-26T14:30:16Z</time>
      </trkpt>
      <trkpt lat="43.63582" lon="6.64268">
        <ele>415.3</ele>
        <time>2023-11-26T14:30:17Z</time>
      </trkpt>
      <trkpt lat="43.63583" lon="6.64268">
        <ele>415.2</ele>
        <time>2023-11-26T14:30:18Z</time>
      </trkpt>
      <trkpt lat="43.63583" lon="6.64268">
        <ele>415.2</ele>
        <time>2023-11-26T14:30:19Z</time>
      </trkpt>
      <trkpt lat="43.63583" lon="6.64269">
        <ele>415.1</ele>
        <time>2023-11-26T14:30:20Z</time>
      </trkpt>
      <trkpt lat="43.63582" lon="6.64269">
        <ele>415.1</ele>
        <time>2023-11-26T14:30:21Z</time>
      </trkpt>
      <trkpt lat="43.63582" lon="6.6427">
        <ele>415.1</ele>
        <time>2023-11-26T14:30:22Z</time>
      </trkpt>
      <trkpt lat="43.63582" lon="6.64271">
        <ele>415</ele>
        <time>2023-11-26T14:30:23Z</time>
      </trkpt>
      <trkpt lat="43.63582" lon="6.64272">
        <ele>415</ele>
        <time>2023-11-26T14:30:24Z</time>
      </trkpt>
      <trkpt lat="43.63583" lon="6.64272">
        <ele>415</ele>
        <time>2023-11-26T14:30:25Z</time>
      </trkpt>
      <trkpt lat="43.63583" lon="6.64272">
        <ele>414.9</ele>
        <time>2023-11-26T14:30:26Z</time>
      </trkpt>
      <trkpt lat="43.63583" lon="6.64273">
        <ele>414.9</ele>
        <time>2023-11-26T14:30:27Z</time>
      </trkpt>
      <trkpt lat="43.63583" lon="6.64273">
        <ele>414.8</ele>
        <time>2023-11-26T14:30:28Z</time>
      </trkpt>
      <trkpt lat="43.63583" lon="6.64273">
        <ele>415</ele>
        <time>2023-11-26T14:30:29Z</time>
      </trkpt>
      <trkpt lat="43.63583" lon="6.64273">
        <ele>415</ele>
        <time>2023-11-26T14:30:30Z</time>
      </trkpt>
      <trkpt lat="43.63583" lon="6.64273">
        <ele>415</ele>
        <time>2023-11-26T14:30:31Z</time>
      </trkpt>
      <trkpt lat="43.63583" lon="6.64273">
        <ele>415</ele>
        <time>2023-11-26T14:30:32Z</time>
      </trkpt>
      <trkpt lat="43.63583" lon="6.64273">
        <ele>414.9</ele>
        <time>2023-11-26T14:30:33Z</time>
      </trkpt>
      <trkpt lat="43.63584" lon="6.64273">
        <ele>414.8</ele>
        <time>2023-11-26T14:30:34Z</time>
      </trkpt>
      <trkpt lat="43.63584" lon="6.64273">
        <ele>414.8</ele>
        <time>2023-11-26T14:30:35Z</time>
      </trkpt>
      <trkpt lat="43.63585" lon="6.64272">
        <ele>414.8</ele>
        <time>2023-11-26T14:30:36Z</time>
      </trkpt>
      <trkpt lat="43.63585" lon="6.64272">
        <ele>414.8</ele>
        <time>2023-11-26T14:30:37Z</time>
      </trkpt>
      <trkpt lat="43.63585" lon="6.64271">
        <ele>414.7</ele>
        <time>2023-11-26T14:30:38Z</time>
      </trkpt>
      <trkpt lat="43.63585" lon="6.64271">
        <ele>414.8</ele>
        <time>2023-11-26T14:30:39Z</time>
      </trkpt>
      <trkpt lat="43.63585" lon="6.64271">
        <ele>414.8</ele>
        <time>2023-11-26T14:30:40Z</time>
      </trkpt>
      <trkpt lat="43.63585" lon="6.64271">
        <ele>414.7</ele>
        <time>2023-11-26T14:30:41Z</time>
      </trkpt>
      <trkpt lat="43.63585" lon="6.64271">
        <ele>414.6</ele>
        <time>2023-11-26T14:30:42Z</time>
      </trkpt>
      <trkpt lat="43.63584" lon="6.64271">
        <ele>414.6</ele>
        <time>2023-11-26T14:30:43Z</time>
      </trkpt>
      <trkpt lat="43.63584" lon="6.64271">
        <ele>414.5</ele>
        <time>2023-11-26T14:30:44Z</time>
      </trkpt>
      <trkpt lat="43.63584" lon="6.64271">
        <ele>414.5</ele>
        <time>2023-11-26T14:30:45Z</time>
      </trkpt>
      <trkpt lat="43.63584" lon="6.64272">
        <ele>414.5</ele>
        <time>2023-11-26T14:30:46Z</time>
      </trkpt>
      <trkpt lat="43.63584" lon="6.64272">
        <ele>414.5</ele>
        <time>2023-11-26T14:30:47Z</time>
      </trkpt>
      <trkpt lat="43.63585" lon="6.64272">
        <ele>414.5</ele>
        <time>2023-11-26T14:30:48Z</time>
      </trkpt>
      <trkpt lat="43.63585" lon="6.64272">
        <ele>414.6</ele>
        <time>2023-11-26T14:30:49Z</time>
      </trkpt>
      <trkpt lat="43.63585" lon="6.64272">
        <ele>414.7</ele>
        <time>2023-11-26T14:30:50Z</time>
      </trkpt>
      <trkpt lat="43.63586" lon="6.64272">
        <ele>414.7</ele>
        <time>2023-11-26T14:30:51Z</time>
      </trkpt>
      <trkpt lat="43.63586" lon="6.64273">
        <ele>414.8</ele>
        <time>2023-11-26T14:30:52Z</time>
      </trkpt>
      <trkpt lat="43.63585" lon="6.64273">
        <ele>414.8</ele>
        <time>2023-11-26T14:30:53Z</time>
      </trkpt>
      <trkpt lat="43.63586" lon="6.64274">
        <ele>414.9</ele>
        <time>2023-11-26T14:30:54Z</time>
      </trkpt>
      <trkpt lat="43.63586" lon="6.64274">
        <ele>415</ele>
        <time>2023-11-26T14:30:55Z</time>
      </trkpt>
      <trkpt lat="43.63587" lon="6.64275">
        <ele>415.1</ele>
        <time>2023-11-26T14:30:56Z</time>
      </trkpt>
      <trkpt lat="43.63586" lon="6.64275">
        <ele>415.1</ele>
        <time>2023-11-26T14:30:57Z</time>
      </trkpt>
      <trkpt lat="43.63587" lon="6.64275">
        <ele>415.2</ele>
        <time>2023-11-26T14:30:58Z</time>
      </trkpt>
      <trkpt lat="43.63587" lon="6.64275">
        <ele>415.3</ele>
        <time>2023-11-26T14:30:59Z</time>
      </trkpt>
      <trkpt lat="43.63587" lon="6.64276">
        <ele>415.3</ele>
        <time>2023-11-26T14:31:00Z</time>
      </trkpt>
      <trkpt lat="43.63587" lon="6.64276">
        <ele>415.4</ele>
        <time>2023-11-26T14:31:01Z</time>
      </trkpt>
      <trkpt lat="43.63587" lon="6.64276">
        <ele>415.4</ele>
        <time>2023-11-26T14:31:02Z</time>
      </trkpt>
      <trkpt lat="43.63587" lon="6.64276">
        <ele>415.5</ele>
        <time>2023-11-26T14:31:03Z</time>
      </trkpt>
      <trkpt lat="43.63587" lon="6.64275">
        <ele>415.5</ele>
        <time>2023-11-26T14:31:04Z</time>
      </trkpt>
      <trkpt lat="43.63586" lon="6.64274">
        <ele>415.6</ele>
        <time>2023-11-26T14:31:05Z</time>
      </trkpt>
      <trkpt lat="43.63587" lon="6.64274">
        <ele>415.6</ele>
        <time>2023-11-26T14:31:06Z</time>
      </trkpt>
      <trkpt lat="43.63586" lon="6.64274">
        <ele>415.7</ele>
        <time>2023-11-26T14:31:07Z</time>
      </trkpt>
      <trkpt lat="43.63586" lon="6.64274">
        <ele>415.7</ele>
        <time>2023-11-26T14:31:08Z</time>
      </trkpt>
      <trkpt lat="43.63586" lon="6.64274">
        <ele>415.8</ele>
        <time>2023-11-26T14:31:09Z</time>
      </trkpt>
      <trkpt lat="43.63586" lon="6.64274">
        <ele>415.8</ele>
        <time>2023-11-26T14:31:10Z</time>
      </trkpt>
      <trkpt lat="43.63587" lon="6.64274">
        <ele>415.9</ele>
        <time>2023-11-26T14:31:11Z</time>
      </trkpt>
      <trkpt lat="43.63587" lon="6.64275">
        <ele>415.9</ele>
        <time>2023-11-26T14:31:12Z</time>
      </trkpt>
      <trkpt lat="43.63588" lon="6.64275">
        <ele>415.7</ele>
        <time>2023-11-26T14:31:13Z</time>
      </trkpt>
      <trkpt lat="43.63588" lon="6.64275">
        <ele>415.6</ele>
        <time>2023-11-26T14:31:14Z</time>
      </trkpt>
      <trkpt lat="43.63588" lon="6.64275">
        <ele>415.6</ele>
        <time>2023-11-26T14:31:15Z</time>
      </trkpt>
      <trkpt lat="43.63589" lon="6.64275">
        <ele>415.7</ele>
        <time>2023-11-26T14:31:16Z</time>
      </trkpt>
      <trkpt lat="43.63589" lon="6.64274">
        <ele>415.7</ele>
        <time>2023-11-26T14:31:17Z</time>
      </trkpt>
      <trkpt lat="43.63589" lon="6.64274">
        <ele>415.7</ele>
        <time>2023-11-26T14:31:18Z</time>
      </trkpt>
      <trkpt lat="43.63588" lon="6.64274">
        <ele>415.7</ele>
        <time>2023-11-26T14:31:19Z</time>
      </trkpt>
      <trkpt lat="43.63588" lon="6.64274">
        <ele>415.7</ele>
        <time>2023-11-26T14:31:20Z</time>
      </trkpt>
      <trkpt lat="43.63588" lon="6.64274">
        <ele>415.7</ele>
        <time>2023-11-26T14:31:21Z</time>
      </trkpt>
      <trkpt lat="43.63589" lon="6.64274">
        <ele>415.7</ele>
        <time>2023-11-26T14:31:22Z</time>
      </trkpt>
      <trkpt lat="43.63589" lon="6.64275">
        <ele>415.7</ele>
        <time>2023-11-26T14:31:23Z</time>
      </trkpt>
      <trkpt lat="43.63589" lon="6.64275">
        <ele>415.7</ele>
        <time>2023-11-26T14:31:24Z</time>
      </trkpt>
      <trkpt lat="43.63589" lon="6.64275">
        <ele>415.8</ele>
        <time>2023-11-26T14:31:25Z</time>
      </trkpt>
      <trkpt lat="43.63589" lon="6.64274">
        <ele>415.8</ele>
        <time>2023-11-26T14:31:26Z</time>
      </trkpt>
      <trkpt lat="43.63589" lon="6.64275">
        <ele>415.8</ele>
        <time>2023-11-26T14:31:27Z</time>
      </trkpt>
      <trkpt lat="43.63589" lon="6.64274">
        <ele>415.8</ele>
        <time>2023-11-26T14:31:28Z</time>
      </trkpt>
      <trkpt lat="43.63589" lon="6.64274">
        <ele>415.8</ele>
        <time>2023-11-26T14:31:29Z</time>
      </trkpt>
      <trkpt lat="43.63589" lon="6.64274">
        <ele>415.8</ele>
        <time>2023-11-26T14:31:30Z</time>
      </trkpt>
      <trkpt lat="43.63589" lon="6.64274">
        <ele>415.8</ele>
        <time>2023-11-26T14:31:31Z</time>
      </trkpt>
      <trkpt lat="43.63589" lon="6.64274">
        <ele>415.7</ele>
        <time>2023-11-26T14:31:32Z</time>
      </trkpt>
      <trkpt lat="43.6359" lon="6.64274">
        <ele>415.8</ele>
        <time>2023-11-26T14:31:33Z</time>
      </trkpt>
      <trkpt lat="43.6359" lon="6.64274">
        <ele>415.9</ele>
        <time>2023-11-26T14:31:34Z</time>
      </trkpt>
      <trkpt lat="43.6359" lon="6.64274">
        <ele>415.9</ele>
        <time>2023-11-26T14:31:35Z</time>
      </trkpt>
      <trkpt lat="43.6359" lon="6.64274">
        <ele>415.9</ele>
        <time>2023-11-26T14:31:36Z</time>
      </trkpt>
      <trkpt lat="43.6359" lon="6.64274">
        <ele>415.9</ele>
        <time>2023-11-26T14:31:37Z</time>
      </trkpt>
      <trkpt lat="43.6359" lon="6.64274">
        <ele>415.9</ele>
        <time>2023-11-26T14:31:38Z</time>
      </trkpt>
      <trkpt lat="43.6359" lon="6.64274">
        <ele>415.9</ele>
        <time>2023-11-26T14:31:39Z</time>
      </trkpt>
      <trkpt lat="43.6359" lon="6.64274">
        <ele>416.1</ele>
        <time>2023-11-26T14:31:40Z</time>
      </trkpt>
      <trkpt lat="43.6359" lon="6.64274">
        <ele>416.1</ele>
        <time>2023-11-26T14:31:41Z</time>
      </trkpt>
      <trkpt lat="43.6359" lon="6.64274">
        <ele>416.1</ele>
        <time>2023-11-26T14:31:42Z</time>
      </trkpt>
      <trkpt lat="43.63589" lon="6.64274">
        <ele>416</ele>
        <time>2023-11-26T14:31:43Z</time>
      </trkpt>
      <trkpt lat="43.6359" lon="6.64274">
        <ele>415.9</ele>
        <time>2023-11-26T14:31:44Z</time>
      </trkpt>
      <trkpt lat="43.63589" lon="6.64274">
        <ele>415.8</ele>
        <time>2023-11-26T14:31:45Z</time>
      </trkpt>
      <trkpt lat="43.63589" lon="6.64274">
        <ele>415.8</ele>
        <time>2023-11-26T14:31:46Z</time>
      </trkpt>
      <trkpt lat="43.63589" lon="6.64274">
        <ele>415.9</ele>
        <time>2023-11-26T14:31:47Z</time>
      </trkpt>
      <trkpt lat="43.63589" lon="6.64274">
        <ele>416</ele>
        <time>2023-11-26T14:31:48Z</time>
      </trkpt>
      <trkpt lat="43.63589" lon="6.64274">
        <ele>416</ele>
        <time>2023-11-26T14:31:49Z</time>
      </trkpt>
      <trkpt lat="43.63589" lon="6.64274">
        <ele>416.1</ele>
        <time>2023-11-26T14:31:50Z</time>
      </trkpt>
      <trkpt lat="43.63589" lon="6.64274">
        <ele>416.1</ele>
        <time>2023-11-26T14:31:51Z</time>
      </trkpt>
      <trkpt lat="43.63589" lon="6.64274">
        <ele>416.1</ele>
        <time>2023-11-26T14:31:52Z</time>
      </trkpt>
      <trkpt lat="43.63588" lon="6.64274">
        <ele>416.1</ele>
        <time>2023-11-26T14:31:53Z</time>
      </trkpt>
      <trkpt lat="43.63588" lon="6.64274">
        <ele>416.2</ele>
        <time>2023-11-26T14:31:54Z</time>
      </trkpt>
      <trkpt lat="43.63588" lon="6.64275">
        <ele>416.2</ele>
        <time>2023-11-26T14:31:55Z</time>
      </trkpt>
      <trkpt lat="43.63588" lon="6.64275">
        <ele>416.2</ele>
        <time>2023-11-26T14:31:56Z</time>
      </trkpt>
      <trkpt lat="43.63588" lon="6.64275">
        <ele>416.2</ele>
        <time>2023-11-26T14:31:57Z</time>
      </trkpt>
      <trkpt lat="43.63588" lon="6.64276">
        <ele>416.1</ele>
        <time>2023-11-26T14:31:58Z</time>
      </trkpt>
      <trkpt lat="43.63587" lon="6.64276">
        <ele>416</ele>
        <time>2023-11-26T14:31:59Z</time>
      </trkpt>
      <trkpt lat="43.63587" lon="6.64276">
        <ele>416</ele>
        <time>2023-11-26T14:32:00Z</time>
      </trkpt>
      <trkpt lat="43.63587" lon="6.64275">
        <ele>416</ele>
        <time>2023-11-26T14:32:01Z</time>
      </trkpt>
      <trkpt lat="43.63587" lon="6.64275">
        <ele>416</ele>
        <time>2023-11-26T14:32:02Z</time>
      </trkpt>
      <trkpt lat="43.63587" lon="6.64275">
        <ele>416</ele>
        <time>2023-11-26T14:32:03Z</time>
      </trkpt>
      <trkpt lat="43.63587" lon="6.64275">
        <ele>416</ele>
        <time>2023-11-26T14:32:04Z</time>
      </trkpt>
      <trkpt lat="43.63587" lon="6.64275">
        <ele>416</ele>
        <time>2023-11-26T14:32:05Z</time>
      </trkpt>
      <trkpt lat="43.63587" lon="6.64275">
        <ele>416</ele>
        <time>2023-11-26T14:32:06Z</time>
      </trkpt>
      <trkpt lat="43.63587" lon="6.64275">
        <ele>416</ele>
        <time>2023-11-26T14:32:07Z</time>
      </trkpt>
      <trkpt lat="43.63587" lon="6.64275">
        <ele>416</ele>
        <time>2023-11-26T14:32:08Z</time>
      </trkpt>
      <trkpt lat="43.63587" lon="6.64275">
        <ele>416.1</ele>
        <time>2023-11-26T14:32:09Z</time>
      </trkpt>
      <trkpt lat="43.63587" lon="6.64275">
        <ele>416.1</ele>
        <time>2023-11-26T14:32:10Z</time>
      </trkpt>
      <trkpt lat="43.63587" lon="6.64275">
        <ele>416.1</ele>
        <time>2023-11-26T14:32:11Z</time>
      </trkpt>
      <trkpt lat="43.63587" lon="6.64275">
        <ele>416.1</ele>
        <time>2023-11-26T14:32:12Z</time>
      </trkpt>
      <trkpt lat="43.63587" lon="6.64275">
        <ele>416.1</ele>
        <time>2023-11-26T14:32:13Z</time>
      </trkpt>
      <trkpt lat="43.63587" lon="6.64275">
        <ele>416.1</ele>
        <time>2023-11-26T14:32:14Z</time>
      </trkpt>
      <trkpt lat="43.63587" lon="6.64275">
        <ele>416.1</ele>
        <time>2023-11-26T14:32:15Z</time>
      </trkpt>
      <trkpt lat="43.63587" lon="6.64275">
        <ele>416.1</ele>
        <time>2023-11-26T14:32:16Z</time>
      </trkpt>
      <trkpt lat="43.63587" lon="6.64275">
        <ele>416</ele>
        <time>2023-11-26T14:32:17Z</time>
      </trkpt>
      <trkpt lat="43.63587" lon="6.64275">
        <ele>415.9</ele>
        <time>2023-11-26T14:32:18Z</time>
      </trkpt>
      <trkpt lat="43.63588" lon="6.64275">
        <ele>415.9</ele>
        <time>2023-11-26T14:32:19Z</time>
      </trkpt>
      <trkpt lat="43.6359" lon="6.64275">
        <ele>415.9</ele>
        <time>2023-11-26T14:32:20Z</time>
      </trkpt>
      <trkpt lat="43.63589" lon="6.64275">
        <ele>415.9</ele>
        <time>2023-11-26T14:32:21Z</time>
      </trkpt>
      <trkpt lat="43.63589" lon="6.64275">
        <ele>415.8</ele>
        <time>2023-11-26T14:32:22Z</time>
      </trkpt>
      <trkpt lat="43.63589" lon="6.64274">
        <ele>415.8</ele>
        <time>2023-11-26T14:32:23Z</time>
      </trkpt>
      <trkpt lat="43.63588" lon="6.64274">
        <ele>415.8</ele>
        <time>2023-11-26T14:32:24Z</time>
      </trkpt>
      <trkpt lat="43.63588" lon="6.64273">
        <ele>415.7</ele>
        <time>2023-11-26T14:32:25Z</time>
      </trkpt>
      <trkpt lat="43.63588" lon="6.64272">
        <ele>415.7</ele>
        <time>2023-11-26T14:32:26Z</time>
      </trkpt>
      <trkpt lat="43.63587" lon="6.64272">
        <ele>415.7</ele>
        <time>2023-11-26T14:32:27Z</time>
      </trkpt>
      <trkpt lat="43.63588" lon="6.64272">
        <ele>415.7</ele>
        <time>2023-11-26T14:32:28Z</time>
      </trkpt>
      <trkpt lat="43.63588" lon="6.64272">
        <ele>415.8</ele>
        <time>2023-11-26T14:32:29Z</time>
      </trkpt>
      <trkpt lat="43.63588" lon="6.64272">
        <ele>415.6</ele>
        <time>2023-11-26T14:32:30Z</time>
      </trkpt>
      <trkpt lat="43.63587" lon="6.64271">
        <ele>415.5</ele>
        <time>2023-11-26T14:32:31Z</time>
      </trkpt>
      <trkpt lat="43.63586" lon="6.64272">
        <ele>415.4</ele>
        <time>2023-11-26T14:32:32Z</time>
      </trkpt>
      <trkpt lat="43.63586" lon="6.64271">
        <ele>415.2</ele>
        <time>2023-11-26T14:32:33Z</time>
      </trkpt>
      <trkpt lat="43.63586" lon="6.64272">
        <ele>415.1</ele>
        <time>2023-11-26T14:32:34Z</time>
      </trkpt>
      <trkpt lat="43.63584" lon="6.64272">
        <ele>415.1</ele>
        <time>2023-11-26T14:32:35Z</time>
      </trkpt>
      <trkpt lat="43.63583" lon="6.64272">
        <ele>415</ele>
        <time>2023-11-26T14:32:36Z</time>
      </trkpt>
      <trkpt lat="43.63582" lon="6.64273">
        <ele>415</ele>
        <time>2023-11-26T14:32:37Z</time>
      </trkpt>
      <trkpt lat="43.63582" lon="6.64273">
        <ele>415</ele>
        <time>2023-11-26T14:32:38Z</time>
      </trkpt>
      <trkpt lat="43.63581" lon="6.64273">
        <ele>415</ele>
        <time>2023-11-26T14:32:39Z</time>
      </trkpt>
      <trkpt lat="43.63581" lon="6.64275">
        <ele>415</ele>
        <time>2023-11-26T14:32:40Z</time>
      </trkpt>
      <trkpt lat="43.63583" lon="6.64275">
        <ele>415</ele>
        <time>2023-11-26T14:32:41Z</time>
      </trkpt>
      <trkpt lat="43.63584" lon="6.64276">
        <ele>415</ele>
        <time>2023-11-26T14:32:42Z</time>
      </trkpt>
      <trkpt lat="43.63584" lon="6.64281">
        <ele>415</ele>
        <time>2023-11-26T14:32:43Z</time>
      </trkpt>
      <trkpt lat="43.63584" lon="6.64284">
        <ele>415</ele>
        <time>2023-11-26T14:32:44Z</time>
      </trkpt>
      <trkpt lat="43.63586" lon="6.64288">
        <ele>415.1</ele>
        <time>2023-11-26T14:32:45Z</time>
      </trkpt>
      <trkpt lat="43.6358" lon="6.64302">
        <ele>415.1</ele>
        <time>2023-11-26T14:32:46Z</time>
      </trkpt>
      <trkpt lat="43.63582" lon="6.64304">
        <ele>415.2</ele>
        <time>2023-11-26T14:32:47Z</time>
      </trkpt>
      <trkpt lat="43.63583" lon="6.64306">
        <ele>415.2</ele>
        <time>2023-11-26T14:32:48Z</time>
      </trkpt>
      <trkpt lat="43.63583" lon="6.64309">
        <ele>415.1</ele>
        <time>2023-11-26T14:32:49Z</time>
      </trkpt>
      <trkpt lat="43.63585" lon="6.6431">
        <ele>415.1</ele>
        <time>2023-11-26T14:32:50Z</time>
      </trkpt>
      <trkpt lat="43.63587" lon="6.64314">
        <ele>415.1</ele>
        <time>2023-11-26T14:32:51Z</time>
      </trkpt>
      <trkpt lat="43.63587" lon="6.64314">
        <ele>415.2</ele>
        <time>2023-11-26T14:32:52Z</time>
      </trkpt>
      <trkpt lat="43.63587" lon="6.64312">
        <ele>415.2</ele>
        <time>2023-11-26T14:32:53Z</time>
      </trkpt>
      <trkpt lat="43.63587" lon="6.64311">
        <ele>415.3</ele>
        <time>2023-11-26T14:32:54Z</time>
      </trkpt>
      <trkpt lat="43.63588" lon="6.64307">
        <ele>415.2</ele>
        <time>2023-11-26T14:32:55Z</time>
      </trkpt>
      <trkpt lat="43.63589" lon="6.64305">
        <ele>415.2</ele>
        <time>2023-11-26T14:32:56Z</time>
      </trkpt>
      <trkpt lat="43.6359" lon="6.64304">
        <ele>415.2</ele>
        <time>2023-11-26T14:32:57Z</time>
      </trkpt>
      <trkpt lat="43.6359" lon="6.64301">
        <ele>415.1</ele>
        <time>2023-11-26T14:32:58Z</time>
      </trkpt>
      <trkpt lat="43.63593" lon="6.643">
        <ele>415.2</ele>
        <time>2023-11-26T14:32:59Z</time>
      </trkpt>
      <trkpt lat="43.63594" lon="6.64301">
        <ele>415.1</ele>
        <time>2023-11-26T14:33:00Z</time>
      </trkpt>
      <trkpt lat="43.63594" lon="6.643">
        <ele>415</ele>
        <time>2023-11-26T14:33:01Z</time>
      </trkpt>
      <trkpt lat="43.63595" lon="6.64299">
        <ele>415.1</ele>
        <time>2023-11-26T14:33:02Z</time>
      </trkpt>
      <trkpt lat="43.63595" lon="6.64298">
        <ele>415.1</ele>
        <time>2023-11-26T14:33:03Z</time>
      </trkpt>
      <trkpt lat="43.63596" lon="6.64299">
        <ele>415.1</ele>
        <time>2023-11-26T14:33:04Z</time>
      </trkpt>
      <trkpt lat="43.63598" lon="6.64299">
        <ele>415.1</ele>
        <time>2023-11-26T14:33:05Z</time>
      </trkpt>
      <trkpt lat="43.63599" lon="6.643">
        <ele>415.1</ele>
        <time>2023-11-26T14:33:06Z</time>
      </trkpt>
      <trkpt lat="43.63599" lon="6.64302">
        <ele>415.2</ele>
        <time>2023-11-26T14:33:07Z</time>
      </trkpt>
      <trkpt lat="43.63601" lon="6.64303">
        <ele>415.3</ele>
        <time>2023-11-26T14:33:08Z</time>
      </trkpt>
      <trkpt lat="43.63599" lon="6.64305">
        <ele>415.3</ele>
        <time>2023-11-26T14:33:09Z</time>
      </trkpt>
      <trkpt lat="43.63599" lon="6.64305">
        <ele>415.4</ele>
        <time>2023-11-26T14:33:10Z</time>
      </trkpt>
      <trkpt lat="43.636" lon="6.64306">
        <ele>415.4</ele>
        <time>2023-11-26T14:33:11Z</time>
      </trkpt>
      <trkpt lat="43.63601" lon="6.64306">
        <ele>415.4</ele>
        <time>2023-11-26T14:33:12Z</time>
      </trkpt>
      <trkpt lat="43.63599" lon="6.64306">
        <ele>415.4</ele>
        <time>2023-11-26T14:33:13Z</time>
      </trkpt>
      <trkpt lat="43.63597" lon="6.64305">
        <ele>415.4</ele>
        <time>2023-11-26T14:33:14Z</time>
      </trkpt>
      <trkpt lat="43.63597" lon="6.64305">
        <ele>415.4</ele>
        <time>2023-11-26T14:33:15Z</time>
      </trkpt>
      <trkpt lat="43.63597" lon="6.64307">
        <ele>415.4</ele>
        <time>2023-11-26T14:33:16Z</time>
      </trkpt>
      <trkpt lat="43.63598" lon="6.64308">
        <ele>415.3</ele>
        <time>2023-11-26T14:33:17Z</time>
      </trkpt>
      <trkpt lat="43.63599" lon="6.64309">
        <ele>415.3</ele>
        <time>2023-11-26T14:33:18Z</time>
      </trkpt>
      <trkpt lat="43.63599" lon="6.64311">
        <ele>415.3</ele>
        <time>2023-11-26T14:33:19Z</time>
      </trkpt>
      <trkpt lat="43.636" lon="6.64311">
        <ele>415.3</ele>
        <time>2023-11-26T14:33:20Z</time>
      </trkpt>
      <trkpt lat="43.63601" lon="6.64312">
        <ele>415.2</ele>
        <time>2023-11-26T14:33:21Z</time>
      </trkpt>
      <trkpt lat="43.63601" lon="6.64313">
        <ele>415.2</ele>
        <time>2023-11-26T14:33:22Z</time>
      </trkpt>
      <trkpt lat="43.63599" lon="6.64314">
        <ele>415.2</ele>
        <time>2023-11-26T14:33:23Z</time>
      </trkpt>
      <trkpt lat="43.63599" lon="6.64313">
        <ele>415.1</ele>
        <time>2023-11-26T14:33:24Z</time>
      </trkpt>
      <trkpt lat="43.63599" lon="6.64313">
        <ele>415.1</ele>
        <time>2023-11-26T14:33:25Z</time>
      </trkpt>
      <trkpt lat="43.63601" lon="6.64313">
        <ele>415.1</ele>
        <time>2023-11-26T14:33:26Z</time>
      </trkpt>
      <trkpt lat="43.63601" lon="6.64313">
        <ele>415.1</ele>
        <time>2023-11-26T14:33:27Z</time>
      </trkpt>
      <trkpt lat="43.636" lon="6.64312">
        <ele>415.1</ele>
        <time>2023-11-26T14:33:28Z</time>
      </trkpt>
      <trkpt lat="43.636" lon="6.64311">
        <ele>415.1</ele>
        <time>2023-11-26T14:33:29Z</time>
      </trkpt>
      <trkpt lat="43.63598" lon="6.64311">
        <ele>415.1</ele>
        <time>2023-11-26T14:33:30Z</time>
      </trkpt>
      <trkpt lat="43.63598" lon="6.6431">
        <ele>415.1</ele>
        <time>2023-11-26T14:33:31Z</time>
      </trkpt>
      <trkpt lat="43.63598" lon="6.64309">
        <ele>415.1</ele>
        <time>2023-11-26T14:33:32Z</time>
      </trkpt>
      <trkpt lat="43.63598" lon="6.64307">
        <ele>415.1</ele>
        <time>2023-11-26T14:33:33Z</time>
      </trkpt>
      <trkpt lat="43.63598" lon="6.64306">
        <ele>415.2</ele>
        <time>2023-11-26T14:33:34Z</time>
      </trkpt>
      <trkpt lat="43.63598" lon="6.64305">
        <ele>415.3</ele>
        <time>2023-11-26T14:33:35Z</time>
      </trkpt>
      <trkpt lat="43.63599" lon="6.64305">
        <ele>415.3</ele>
        <time>2023-11-26T14:33:36Z</time>
      </trkpt>
      <trkpt lat="43.636" lon="6.64304">
        <ele>415.3</ele>
        <time>2023-11-26T14:33:37Z</time>
      </trkpt>
      <trkpt lat="43.636" lon="6.64304">
        <ele>415.4</ele>
        <time>2023-11-26T14:33:38Z</time>
      </trkpt>
      <trkpt lat="43.636" lon="6.64304">
        <ele>415.3</ele>
        <time>2023-11-26T14:33:39Z</time>
      </trkpt>
      <trkpt lat="43.636" lon="6.64303">
        <ele>415.3</ele>
        <time>2023-11-26T14:33:40Z</time>
      </trkpt>
      <trkpt lat="43.636" lon="6.64304">
        <ele>415.3</ele>
        <time>2023-11-26T14:33:41Z</time>
      </trkpt>
      <trkpt lat="43.636" lon="6.64303">
        <ele>415.3</ele>
        <time>2023-11-26T14:33:42Z</time>
      </trkpt>
      <trkpt lat="43.636" lon="6.64302">
        <ele>415.3</ele>
        <time>2023-11-26T14:33:43Z</time>
      </trkpt>
      <trkpt lat="43.63601" lon="6.64302">
        <ele>415.2</ele>
        <time>2023-11-26T14:33:44Z</time>
      </trkpt>
      <trkpt lat="43.636" lon="6.64301">
        <ele>415.2</ele>
        <time>2023-11-26T14:33:45Z</time>
      </trkpt>
      <trkpt lat="43.636" lon="6.64302">
        <ele>415.3</ele>
        <time>2023-11-26T14:33:46Z</time>
      </trkpt>
      <trkpt lat="43.636" lon="6.64302">
        <ele>415.3</ele>
        <time>2023-11-26T14:33:47Z</time>
      </trkpt>
      <trkpt lat="43.636" lon="6.64304">
        <ele>415.4</ele>
        <time>2023-11-26T14:33:48Z</time>
      </trkpt>
      <trkpt lat="43.63599" lon="6.64303">
        <ele>415.4</ele>
        <time>2023-11-26T14:33:49Z</time>
      </trkpt>
      <trkpt lat="43.63599" lon="6.64302">
        <ele>415.3</ele>
        <time>2023-11-26T14:33:50Z</time>
      </trkpt>
      <trkpt lat="43.636" lon="6.64301">
        <ele>415.2</ele>
        <time>2023-11-26T14:33:51Z</time>
      </trkpt>
      <trkpt lat="43.63601" lon="6.643">
        <ele>415.2</ele>
        <time>2023-11-26T14:33:52Z</time>
      </trkpt>
      <trkpt lat="43.636" lon="6.643">
        <ele>415.1</ele>
        <time>2023-11-26T14:33:53Z</time>
      </trkpt>
      <trkpt lat="43.636" lon="6.643">
        <ele>415.1</ele>
        <time>2023-11-26T14:33:54Z</time>
      </trkpt>
      <trkpt lat="43.636" lon="6.64299">
        <ele>415.1</ele>
        <time>2023-11-26T14:33:55Z</time>
      </trkpt>
      <trkpt lat="43.636" lon="6.64298">
        <ele>415.1</ele>
        <time>2023-11-26T14:33:56Z</time>
      </trkpt>
      <trkpt lat="43.63599" lon="6.64297">
        <ele>415</ele>
        <time>2023-11-26T14:33:57Z</time>
      </trkpt>
      <trkpt lat="43.63599" lon="6.64298">
        <ele>415</ele>
        <time>2023-11-26T14:33:58Z</time>
      </trkpt>
      <trkpt lat="43.636" lon="6.64296">
        <ele>415.1</ele>
        <time>2023-11-26T14:33:59Z</time>
      </trkpt>
      <trkpt lat="43.63599" lon="6.64296">
        <ele>415.1</ele>
        <time>2023-11-26T14:34:00Z</time>
      </trkpt>
      <trkpt lat="43.63598" lon="6.64295">
        <ele>415.2</ele>
        <time>2023-11-26T14:34:01Z</time>
      </trkpt>
      <trkpt lat="43.63597" lon="6.64295">
        <ele>415.1</ele>
        <time>2023-11-26T14:34:02Z</time>
      </trkpt>
      <trkpt lat="43.63596" lon="6.64296">
        <ele>415.1</ele>
        <time>2023-11-26T14:34:03Z</time>
      </trkpt>
      <trkpt lat="43.63595" lon="6.64297">
        <ele>415.1</ele>
        <time>2023-11-26T14:34:04Z</time>
      </trkpt>
      <trkpt lat="43.63595" lon="6.64298">
        <ele>415</ele>
        <time>2023-11-26T14:34:05Z</time>
      </trkpt>
      <trkpt lat="43.63594" lon="6.64298">
        <ele>415</ele>
        <time>2023-11-26T14:34:06Z</time>
      </trkpt>
      <trkpt lat="43.63594" lon="6.64297">
        <ele>415.1</ele>
        <time>2023-11-26T14:34:07Z</time>
      </trkpt>
      <trkpt lat="43.63593" lon="6.64297">
        <ele>415</ele>
        <time>2023-11-26T14:34:08Z</time>
      </trkpt>
      <trkpt lat="43.63593" lon="6.64295">
        <ele>415</ele>
        <time>2023-11-26T14:34:09Z</time>
      </trkpt>
      <trkpt lat="43.63593" lon="6.64295">
        <ele>415</ele>
        <time>2023-11-26T14:34:10Z</time>
      </trkpt>
      <trkpt lat="43.63593" lon="6.64295">
        <ele>415</ele>
        <time>2023-11-26T14:34:11Z</time>
      </trkpt>
      <trkpt lat="43.63593" lon="6.64294">
        <ele>415.1</ele>
        <time>2023-11-26T14:34:12Z</time>
      </trkpt>
      <trkpt lat="43.63593" lon="6.64295">
        <ele>415.1</ele>
        <time>2023-11-26T14:34:13Z</time>
      </trkpt>
      <trkpt lat="43.63593" lon="6.64294">
        <ele>415.1</ele>
        <time>2023-11-26T14:34:14Z</time>
      </trkpt>
      <trkpt lat="43.63592" lon="6.64294">
        <ele>415.2</ele>
        <time>2023-11-26T14:34:15Z</time>
      </trkpt>
      <trkpt lat="43.63593" lon="6.64294">
        <ele>415.1</ele>
        <time>2023-11-26T14:34:16Z</time>
      </trkpt>
      <trkpt lat="43.63595" lon="6.64295">
        <ele>415.1</ele>
        <time>2023-11-26T14:34:17Z</time>
      </trkpt>
      <trkpt lat="43.63596" lon="6.64295">
        <ele>415.1</ele>
        <time>2023-11-26T14:34:18Z</time>
      </trkpt>
      <trkpt lat="43.63596" lon="6.64295">
        <ele>415.1</ele>
        <time>2023-11-26T14:34:19Z</time>
      </trkpt>
      <trkpt lat="43.63596" lon="6.64297">
        <ele>415.1</ele>
        <time>2023-11-26T14:34:20Z</time>
      </trkpt>
      <trkpt lat="43.63596" lon="6.64297">
        <ele>415.1</ele>
        <time>2023-11-26T14:34:21Z</time>
      </trkpt>
      <trkpt lat="43.63596" lon="6.64298">
        <ele>415.1</ele>
        <time>2023-11-26T14:34:22Z</time>
      </trkpt>
      <trkpt lat="43.63597" lon="6.64298">
        <ele>415.1</ele>
        <time>2023-11-26T14:34:23Z</time>
      </trkpt>
      <trkpt lat="43.63597" lon="6.64298">
        <ele>415</ele>
        <time>2023-11-26T14:34:24Z</time>
      </trkpt>
      <trkpt lat="43.63597" lon="6.64299">
        <ele>415</ele>
        <time>2023-11-26T14:34:25Z</time>
      </trkpt>
      <trkpt lat="43.63596" lon="6.64299">
        <ele>415</ele>
        <time>2023-11-26T14:34:26Z</time>
      </trkpt>
      <trkpt lat="43.63596" lon="6.64299">
        <ele>415</ele>
        <time>2023-11-26T14:34:27Z</time>
      </trkpt>
      <trkpt lat="43.63596" lon="6.64299">
        <ele>415</ele>
        <time>2023-11-26T14:34:28Z</time>
      </trkpt>
      <trkpt lat="43.63596" lon="6.64299">
        <ele>414.9</ele>
        <time>2023-11-26T14:34:29Z</time>
      </trkpt>
      <trkpt lat="43.63596" lon="6.64298">
        <ele>414.9</ele>
        <time>2023-11-26T14:34:30Z</time>
      </trkpt>
      <trkpt lat="43.63595" lon="6.64297">
        <ele>414.8</ele>
        <time>2023-11-26T14:34:31Z</time>
      </trkpt>
      <trkpt lat="43.63594" lon="6.64296">
        <ele>414.9</ele>
        <time>2023-11-26T14:34:32Z</time>
      </trkpt>
      <trkpt lat="43.63594" lon="6.64295">
        <ele>415</ele>
        <time>2023-11-26T14:34:33Z</time>
      </trkpt>
      <trkpt lat="43.63596" lon="6.64295">
        <ele>415.1</ele>
        <time>2023-11-26T14:34:34Z</time>
      </trkpt>
      <trkpt lat="43.63597" lon="6.64296">
        <ele>415.1</ele>
        <time>2023-11-26T14:34:35Z</time>
      </trkpt>
      <trkpt lat="43.63598" lon="6.64297">
        <ele>415.3</ele>
        <time>2023-11-26T14:34:36Z</time>
      </trkpt>
      <trkpt lat="43.63599" lon="6.64298">
        <ele>415.3</ele>
        <time>2023-11-26T14:34:37Z</time>
      </trkpt>
      <trkpt lat="43.636" lon="6.643">
        <ele>415.2</ele>
        <time>2023-11-26T14:34:38Z</time>
      </trkpt>
      <trkpt lat="43.636" lon="6.64301">
        <ele>415.2</ele>
        <time>2023-11-26T14:34:39Z</time>
      </trkpt>
      <trkpt lat="43.63601" lon="6.64302">
        <ele>415.1</ele>
        <time>2023-11-26T14:34:40Z</time>
      </trkpt>
      <trkpt lat="43.63601" lon="6.64303">
        <ele>415</ele>
        <time>2023-11-26T14:34:41Z</time>
      </trkpt>
      <trkpt lat="43.636" lon="6.64304">
        <ele>415</ele>
        <time>2023-11-26T14:34:42Z</time>
      </trkpt>
      <trkpt lat="43.63599" lon="6.64306">
        <ele>415.1</ele>
        <time>2023-11-26T14:34:43Z</time>
      </trkpt>
      <trkpt lat="43.63601" lon="6.64307">
        <ele>415.1</ele>
        <time>2023-11-26T14:34:44Z</time>
      </trkpt>
      <trkpt lat="43.63602" lon="6.64307">
        <ele>415.1</ele>
        <time>2023-11-26T14:34:45Z</time>
      </trkpt>
      <trkpt lat="43.63602" lon="6.64308">
        <ele>415.2</ele>
        <time>2023-11-26T14:34:46Z</time>
      </trkpt>
      <trkpt lat="43.63602" lon="6.64309">
        <ele>415.2</ele>
        <time>2023-11-26T14:34:47Z</time>
      </trkpt>
      <trkpt lat="43.63602" lon="6.6431">
        <ele>415.2</ele>
        <time>2023-11-26T14:34:48Z</time>
      </trkpt>
      <trkpt lat="43.63603" lon="6.64309">
        <ele>415.2</ele>
        <time>2023-11-26T14:34:49Z</time>
      </trkpt>
      <trkpt lat="43.63604" lon="6.64309">
        <ele>415.2</ele>
        <time>2023-11-26T14:34:50Z</time>
      </trkpt>
      <trkpt lat="43.63604" lon="6.64308">
        <ele>415.2</ele>
        <time>2023-11-26T14:34:51Z</time>
      </trkpt>
      <trkpt lat="43.63604" lon="6.64308">
        <ele>415.2</ele>
        <time>2023-11-26T14:34:52Z</time>
      </trkpt>
      <trkpt lat="43.63604" lon="6.64307">
        <ele>415.2</ele>
        <time>2023-11-26T14:34:53Z</time>
      </trkpt>
      <trkpt lat="43.63604" lon="6.64305">
        <ele>415.2</ele>
        <time>2023-11-26T14:34:54Z</time>
      </trkpt>
      <trkpt lat="43.63607" lon="6.64304">
        <ele>415.1</ele>
        <time>2023-11-26T14:34:55Z</time>
      </trkpt>
      <trkpt lat="43.63606" lon="6.64305">
        <ele>415.1</ele>
        <time>2023-11-26T14:34:56Z</time>
      </trkpt>
      <trkpt lat="43.63605" lon="6.64305">
        <ele>415.1</ele>
        <time>2023-11-26T14:34:57Z</time>
      </trkpt>
      <trkpt lat="43.63606" lon="6.64305">
        <ele>415.1</ele>
        <time>2023-11-26T14:34:58Z</time>
      </trkpt>
      <trkpt lat="43.63604" lon="6.64306">
        <ele>415</ele>
        <time>2023-11-26T14:34:59Z</time>
      </trkpt>
      <trkpt lat="43.63602" lon="6.64307">
        <ele>415</ele>
        <time>2023-11-26T14:35:00Z</time>
      </trkpt>
      <trkpt lat="43.63601" lon="6.64307">
        <ele>415</ele>
        <time>2023-11-26T14:35:01Z</time>
      </trkpt>
      <trkpt lat="43.63599" lon="6.64308">
        <ele>415</ele>
        <time>2023-11-26T14:35:02Z</time>
      </trkpt>
      <trkpt lat="43.63598" lon="6.64308">
        <ele>414.9</ele>
        <time>2023-11-26T14:35:03Z</time>
      </trkpt>
      <trkpt lat="43.63596" lon="6.64308">
        <ele>414.9</ele>
        <time>2023-11-26T14:35:04Z</time>
      </trkpt>
      <trkpt lat="43.63596" lon="6.64309">
        <ele>414.9</ele>
        <time>2023-11-26T14:35:05Z</time>
      </trkpt>
      <trkpt lat="43.63596" lon="6.64307">
        <ele>414.9</ele>
        <time>2023-11-26T14:35:06Z</time>
      </trkpt>
      <trkpt lat="43.63596" lon="6.64306">
        <ele>415</ele>
        <time>2023-11-26T14:35:07Z</time>
      </trkpt>
      <trkpt lat="43.63597" lon="6.64305">
        <ele>415</ele>
        <time>2023-11-26T14:35:08Z</time>
      </trkpt>
      <trkpt lat="43.63598" lon="6.64304">
        <ele>415</ele>
        <time>2023-11-26T14:35:09Z</time>
      </trkpt>
      <trkpt lat="43.63601" lon="6.64302">
        <ele>414.9</ele>
        <time>2023-11-26T14:35:10Z</time>
      </trkpt>
      <trkpt lat="43.636" lon="6.64306">
        <ele>414.9</ele>
        <time>2023-11-26T14:35:12Z</time>
      </trkpt>
      <trkpt lat="43.636" lon="6.64305">
        <ele>414.9</ele>
        <time>2023-11-26T14:35:13Z</time>
      </trkpt>
      <trkpt lat="43.63601" lon="6.64304">
        <ele>414.9</ele>
        <time>2023-11-26T14:35:14Z</time>
      </trkpt>
      <trkpt lat="43.636" lon="6.64304">
        <ele>414.9</ele>
        <time>2023-11-26T14:35:15Z</time>
      </trkpt>
      <trkpt lat="43.63599" lon="6.64305">
        <ele>415</ele>
        <time>2023-11-26T14:35:16Z</time>
      </trkpt>
      <trkpt lat="43.63599" lon="6.64304">
        <ele>415</ele>
        <time>2023-11-26T14:35:17Z</time>
      </trkpt>
      <trkpt lat="43.63598" lon="6.64304">
        <ele>415.1</ele>
        <time>2023-11-26T14:35:18Z</time>
      </trkpt>
      <trkpt lat="43.63599" lon="6.64304">
        <ele>415.1</ele>
        <time>2023-11-26T14:35:19Z</time>
      </trkpt>
      <trkpt lat="43.636" lon="6.64304">
        <ele>415</ele>
        <time>2023-11-26T14:35:20Z</time>
      </trkpt>
      <trkpt lat="43.636" lon="6.64303">
        <ele>415</ele>
        <time>2023-11-26T14:35:21Z</time>
      </trkpt>
      <trkpt lat="43.63601" lon="6.64303">
        <ele>415</ele>
        <time>2023-11-26T14:35:22Z</time>
      </trkpt>
      <trkpt lat="43.636" lon="6.64302">
        <ele>415</ele>
        <time>2023-11-26T14:35:23Z</time>
      </trkpt>
      <trkpt lat="43.63599" lon="6.64303">
        <ele>414.9</ele>
        <time>2023-11-26T14:35:24Z</time>
      </trkpt>
      <trkpt lat="43.636" lon="6.64301">
        <ele>414.8</ele>
        <time>2023-11-26T14:35:25Z</time>
      </trkpt>
      <trkpt lat="43.63602" lon="6.64299">
        <ele>414.8</ele>
        <time>2023-11-26T14:35:26Z</time>
      </trkpt>
      <trkpt lat="43.63603" lon="6.64298">
        <ele>414.8</ele>
        <time>2023-11-26T14:35:27Z</time>
      </trkpt>
      <trkpt lat="43.63605" lon="6.64296">
        <ele>414.7</ele>
        <time>2023-11-26T14:35:28Z</time>
      </trkpt>
      <trkpt lat="43.63605" lon="6.64296">
        <ele>414.7</ele>
        <time>2023-11-26T14:35:29Z</time>
      </trkpt>
      <trkpt lat="43.63605" lon="6.64294">
        <ele>414.7</ele>
        <time>2023-11-26T14:35:30Z</time>
      </trkpt>
      <trkpt lat="43.63604" lon="6.64294">
        <ele>414.7</ele>
        <time>2023-11-26T14:35:31Z</time>
      </trkpt>
      <trkpt lat="43.63606" lon="6.64293">
        <ele>414.7</ele>
        <time>2023-11-26T14:35:32Z</time>
      </trkpt>
      <trkpt lat="43.63605" lon="6.64292">
        <ele>414.7</ele>
        <time>2023-11-26T14:35:33Z</time>
      </trkpt>
      <trkpt lat="43.63606" lon="6.64292">
        <ele>414.7</ele>
        <time>2023-11-26T14:35:34Z</time>
      </trkpt>
      <trkpt lat="43.63606" lon="6.6429">
        <ele>414.7</ele>
        <time>2023-11-26T14:35:35Z</time>
      </trkpt>
      <trkpt lat="43.63607" lon="6.64289">
        <ele>414.8</ele>
        <time>2023-11-26T14:35:36Z</time>
      </trkpt>
      <trkpt lat="43.63608" lon="6.64289">
        <ele>414.8</ele>
        <time>2023-11-26T14:35:37Z</time>
      </trkpt>
      <trkpt lat="43.63606" lon="6.64288">
        <ele>414.8</ele>
        <time>2023-11-26T14:35:38Z</time>
      </trkpt>
      <trkpt lat="43.63606" lon="6.64288">
        <ele>414.8</ele>
        <time>2023-11-26T14:35:39Z</time>
      </trkpt>
      <trkpt lat="43.63604" lon="6.64287">
        <ele>414.9</ele>
        <time>2023-11-26T14:35:40Z</time>
      </trkpt>
      <trkpt lat="43.63603" lon="6.64287">
        <ele>415</ele>
        <time>2023-11-26T14:35:41Z</time>
      </trkpt>
      <trkpt lat="43.63602" lon="6.64287">
        <ele>415</ele>
        <time>2023-11-26T14:35:42Z</time>
      </trkpt>
      <trkpt lat="43.636" lon="6.64286">
        <ele>415.1</ele>
        <time>2023-11-26T14:35:43Z</time>
      </trkpt>
      <trkpt lat="43.63598" lon="6.64282">
        <ele>415.1</ele>
        <time>2023-11-26T14:35:44Z</time>
      </trkpt>
      <trkpt lat="43.63596" lon="6.64278">
        <ele>415.1</ele>
        <time>2023-11-26T14:35:45Z</time>
      </trkpt>
      <trkpt lat="43.63594" lon="6.64276">
        <ele>415.2</ele>
        <time>2023-11-26T14:35:46Z</time>
      </trkpt>
      <trkpt lat="43.63592" lon="6.64273">
        <ele>415.2</ele>
        <time>2023-11-26T14:35:47Z</time>
      </trkpt>
      <trkpt lat="43.63589" lon="6.64271">
        <ele>415.3</ele>
        <time>2023-11-26T14:35:48Z</time>
      </trkpt>
      <trkpt lat="43.63589" lon="6.64271">
        <ele>415.2</ele>
        <time>2023-11-26T14:35:49Z</time>
      </trkpt>
      <trkpt lat="43.6359" lon="6.6427">
        <ele>415.2</ele>
        <time>2023-11-26T14:35:50Z</time>
      </trkpt>
      <trkpt lat="43.6359" lon="6.64269">
        <ele>415.3</ele>
        <time>2023-11-26T14:35:51Z</time>
      </trkpt>
      <trkpt lat="43.63588" lon="6.64268">
        <ele>415.3</ele>
        <time>2023-11-26T14:35:52Z</time>
      </trkpt>
      <trkpt lat="43.63587" lon="6.64267">
        <ele>415.3</ele>
        <time>2023-11-26T14:35:53Z</time>
      </trkpt>
      <trkpt lat="43.63585" lon="6.64265">
        <ele>415.2</ele>
        <time>2023-11-26T14:35:54Z</time>
      </trkpt>
      <trkpt lat="43.63587" lon="6.64267">
        <ele>415.2</ele>
        <time>2023-11-26T14:35:55Z</time>
      </trkpt>
      <trkpt lat="43.63602" lon="6.64289">
        <ele>415</ele>
        <time>2023-11-26T14:35:56Z</time>
      </trkpt>
      <trkpt lat="43.63612" lon="6.64302">
        <ele>415</ele>
        <time>2023-11-26T14:35:57Z</time>
      </trkpt>
      <trkpt lat="43.63611" lon="6.64301">
        <ele>414.9</ele>
        <time>2023-11-26T14:35:58Z</time>
      </trkpt>
      <trkpt lat="43.63611" lon="6.64301">
        <ele>414.8</ele>
        <time>2023-11-26T14:35:59Z</time>
      </trkpt>
      <trkpt lat="43.6361" lon="6.64301">
        <ele>414.7</ele>
        <time>2023-11-26T14:36:00Z</time>
      </trkpt>
      <trkpt lat="43.63609" lon="6.64295">
        <ele>414.7</ele>
        <time>2023-11-26T14:36:01Z</time>
      </trkpt>
      <trkpt lat="43.63608" lon="6.64296">
        <ele>414.6</ele>
        <time>2023-11-26T14:36:02Z</time>
      </trkpt>
      <trkpt lat="43.63607" lon="6.64297">
        <ele>414.6</ele>
        <time>2023-11-26T14:36:03Z</time>
      </trkpt>
      <trkpt lat="43.63605" lon="6.64297">
        <ele>414.6</ele>
        <time>2023-11-26T14:36:04Z</time>
      </trkpt>
      <trkpt lat="43.63604" lon="6.64298">
        <ele>414.5</ele>
        <time>2023-11-26T14:36:05Z</time>
      </trkpt>
      <trkpt lat="43.63603" lon="6.643">
        <ele>414.7</ele>
        <time>2023-11-26T14:36:06Z</time>
      </trkpt>
      <trkpt lat="43.636" lon="6.64303">
        <ele>414.6</ele>
        <time>2023-11-26T14:36:07Z</time>
      </trkpt>
      <trkpt lat="43.636" lon="6.64303">
        <ele>414.6</ele>
        <time>2023-11-26T14:36:08Z</time>
      </trkpt>
      <trkpt lat="43.63599" lon="6.64304">
        <ele>414.6</ele>
        <time>2023-11-26T14:36:09Z</time>
      </trkpt>
      <trkpt lat="43.63598" lon="6.64302">
        <ele>414.6</ele>
        <time>2023-11-26T14:36:10Z</time>
      </trkpt>
      <trkpt lat="43.63596" lon="6.64301">
        <ele>414.6</ele>
        <time>2023-11-26T14:36:11Z</time>
      </trkpt>
      <trkpt lat="43.63596" lon="6.64301">
        <ele>414.6</ele>
        <time>2023-11-26T14:36:12Z</time>
      </trkpt>
      <trkpt lat="43.63596" lon="6.64301">
        <ele>414.6</ele>
        <time>2023-11-26T14:36:13Z</time>
      </trkpt>
      <trkpt lat="43.63596" lon="6.64302">
        <ele>414.7</ele>
        <time>2023-11-26T14:36:14Z</time>
      </trkpt>
      <trkpt lat="43.63596" lon="6.64302">
        <ele>414.7</ele>
        <time>2023-11-26T14:36:15Z</time>
      </trkpt>
      <trkpt lat="43.63596" lon="6.64304">
        <ele>414.7</ele>
        <time>2023-11-26T14:36:16Z</time>
      </trkpt>
      <trkpt lat="43.63595" lon="6.64304">
        <ele>414.6</ele>
        <time>2023-11-26T14:36:17Z</time>
      </trkpt>
      <trkpt lat="43.63595" lon="6.64304">
        <ele>414.6</ele>
        <time>2023-11-26T14:36:18Z</time>
      </trkpt>
      <trkpt lat="43.63595" lon="6.64304">
        <ele>414.5</ele>
        <time>2023-11-26T14:36:19Z</time>
      </trkpt>
      <trkpt lat="43.63596" lon="6.64304">
        <ele>414.4</ele>
        <time>2023-11-26T14:36:20Z</time>
      </trkpt>
      <trkpt lat="43.63596" lon="6.64303">
        <ele>414.4</ele>
        <time>2023-11-26T14:36:21Z</time>
      </trkpt>
      <trkpt lat="43.63597" lon="6.64303">
        <ele>414.4</ele>
        <time>2023-11-26T14:36:22Z</time>
      </trkpt>
      <trkpt lat="43.63598" lon="6.64304">
        <ele>414.3</ele>
        <time>2023-11-26T14:36:23Z</time>
      </trkpt>
      <trkpt lat="43.63599" lon="6.64304">
        <ele>414.4</ele>
        <time>2023-11-26T14:36:24Z</time>
      </trkpt>
      <trkpt lat="43.63599" lon="6.64305">
        <ele>414.5</ele>
        <time>2023-11-26T14:36:25Z</time>
      </trkpt>
      <trkpt lat="43.63599" lon="6.64306">
        <ele>414.5</ele>
        <time>2023-11-26T14:36:26Z</time>
      </trkpt>
      <trkpt lat="43.63598" lon="6.64307">
        <ele>414.6</ele>
        <time>2023-11-26T14:36:27Z</time>
      </trkpt>
      <trkpt lat="43.63598" lon="6.64307">
        <ele>414.6</ele>
        <time>2023-11-26T14:36:28Z</time>
      </trkpt>
      <trkpt lat="43.63597" lon="6.64307">
        <ele>414.6</ele>
        <time>2023-11-26T14:36:29Z</time>
      </trkpt>
      <trkpt lat="43.63597" lon="6.64308">
        <ele>414.7</ele>
        <time>2023-11-26T14:36:30Z</time>
      </trkpt>
      <trkpt lat="43.63598" lon="6.6431">
        <ele>414.6</ele>
        <time>2023-11-26T14:36:31Z</time>
      </trkpt>
      <trkpt lat="43.63598" lon="6.6431">
        <ele>414.5</ele>
        <time>2023-11-26T14:36:32Z</time>
      </trkpt>
      <trkpt lat="43.63599" lon="6.6431">
        <ele>414.5</ele>
        <time>2023-11-26T14:36:33Z</time>
      </trkpt>
      <trkpt lat="43.63591" lon="6.64311">
        <ele>414.4</ele>
        <time>2023-11-26T14:36:46Z</time>
      </trkpt>
      <trkpt lat="43.6359" lon="6.64311">
        <ele>414.5</ele>
        <time>2023-11-26T14:36:47Z</time>
      </trkpt>
      <trkpt lat="43.63589" lon="6.64311">
        <ele>414.5</ele>
        <time>2023-11-26T14:36:48Z</time>
      </trkpt>
      <trkpt lat="43.63588" lon="6.64311">
        <ele>414.5</ele>
        <time>2023-11-26T14:36:49Z</time>
      </trkpt>
      <trkpt lat="43.63587" lon="6.64311">
        <ele>414.6</ele>
        <time>2023-11-26T14:36:50Z</time>
      </trkpt>
      <trkpt lat="43.63586" lon="6.64312">
        <ele>414.6</ele>
        <time>2023-11-26T14:36:51Z</time>
      </trkpt>
      <trkpt lat="43.63585" lon="6.64311">
        <ele>414.6</ele>
        <time>2023-11-26T14:36:52Z</time>
      </trkpt>
      <trkpt lat="43.63585" lon="6.64311">
        <ele>414.6</ele>
        <time>2023-11-26T14:36:53Z</time>
      </trkpt>
      <trkpt lat="43.63585" lon="6.64311">
        <ele>414.7</ele>
        <time>2023-11-26T14:36:54Z</time>
      </trkpt>
      <trkpt lat="43.63587" lon="6.64309">
        <ele>414.7</ele>
        <time>2023-11-26T14:36:55Z</time>
      </trkpt>
      <trkpt lat="43.63589" lon="6.64309">
        <ele>414.7</ele>
        <time>2023-11-26T14:36:56Z</time>
      </trkpt>
      <trkpt lat="43.63589" lon="6.64307">
        <ele>414.7</ele>
        <time>2023-11-26T14:36:57Z</time>
      </trkpt>
      <trkpt lat="43.63591" lon="6.64306">
        <ele>414.7</ele>
        <time>2023-11-26T14:36:58Z</time>
      </trkpt>
      <trkpt lat="43.63593" lon="6.64304">
        <ele>414.7</ele>
        <time>2023-11-26T14:36:59Z</time>
      </trkpt>
      <trkpt lat="43.63593" lon="6.64303">
        <ele>414.8</ele>
        <time>2023-11-26T14:37:00Z</time>
      </trkpt>
      <trkpt lat="43.63593" lon="6.64303">
        <ele>414.9</ele>
        <time>2023-11-26T14:37:01Z</time>
      </trkpt>
      <trkpt lat="43.63592" lon="6.64303">
        <ele>414.8</ele>
        <time>2023-11-26T14:37:02Z</time>
      </trkpt>
      <trkpt lat="43.63593" lon="6.64302">
        <ele>414.9</ele>
        <time>2023-11-26T14:37:03Z</time>
      </trkpt>
      <trkpt lat="43.63593" lon="6.64303">
        <ele>414.8</ele>
        <time>2023-11-26T14:37:04Z</time>
      </trkpt>
      <trkpt lat="43.63593" lon="6.64302">
        <ele>414.8</ele>
        <time>2023-11-26T14:37:05Z</time>
      </trkpt>
      <trkpt lat="43.63593" lon="6.64301">
        <ele>414.8</ele>
        <time>2023-11-26T14:37:06Z</time>
      </trkpt>
      <trkpt lat="43.63594" lon="6.643">
        <ele>414.7</ele>
        <time>2023-11-26T14:37:07Z</time>
      </trkpt>
      <trkpt lat="43.63596" lon="6.64296">
        <ele>414.7</ele>
        <time>2023-11-26T14:37:08Z</time>
      </trkpt>
      <trkpt lat="43.63597" lon="6.64294">
        <ele>414.8</ele>
        <time>2023-11-26T14:37:09Z</time>
      </trkpt>
      <trkpt lat="43.63597" lon="6.64295">
        <ele>414.9</ele>
        <time>2023-11-26T14:37:14Z</time>
      </trkpt>
      <trkpt lat="43.63597" lon="6.64294">
        <ele>415.1</ele>
        <time>2023-11-26T14:37:15Z</time>
      </trkpt>
      <trkpt lat="43.63598" lon="6.64294">
        <ele>415.1</ele>
        <time>2023-11-26T14:37:16Z</time>
      </trkpt>
      <trkpt lat="43.63599" lon="6.64294">
        <ele>415.1</ele>
        <time>2023-11-26T14:37:17Z</time>
      </trkpt>
      <trkpt lat="43.63602" lon="6.64294">
        <ele>415.2</ele>
        <time>2023-11-26T14:37:18Z</time>
      </trkpt>
      <trkpt lat="43.63602" lon="6.64294">
        <ele>415.2</ele>
        <time>2023-11-26T14:37:19Z</time>
      </trkpt>
      <trkpt lat="43.63603" lon="6.64294">
        <ele>415.2</ele>
        <time>2023-11-26T14:37:20Z</time>
      </trkpt>
      <trkpt lat="43.63605" lon="6.64293">
        <ele>415.1</ele>
        <time>2023-11-26T14:37:21Z</time>
      </trkpt>
      <trkpt lat="43.63604" lon="6.64293">
        <ele>415.1</ele>
        <time>2023-11-26T14:37:22Z</time>
      </trkpt>
      <trkpt lat="43.63604" lon="6.64294">
        <ele>415.1</ele>
        <time>2023-11-26T14:37:23Z</time>
      </trkpt>
      <trkpt lat="43.63603" lon="6.64294">
        <ele>415.1</ele>
        <time>2023-11-26T14:37:24Z</time>
      </trkpt>
      <trkpt lat="43.63603" lon="6.64295">
        <ele>415</ele>
        <time>2023-11-26T14:37:25Z</time>
      </trkpt>
      <trkpt lat="43.63602" lon="6.64296">
        <ele>415</ele>
        <time>2023-11-26T14:37:26Z</time>
      </trkpt>
      <trkpt lat="43.63602" lon="6.64296">
        <ele>415</ele>
        <time>2023-11-26T14:37:27Z</time>
      </trkpt>
      <trkpt lat="43.63603" lon="6.64297">
        <ele>415.1</ele>
        <time>2023-11-26T14:37:28Z</time>
      </trkpt>
      <trkpt lat="43.63602" lon="6.64297">
        <ele>415.1</ele>
        <time>2023-11-26T14:37:29Z</time>
      </trkpt>
      <trkpt lat="43.63602" lon="6.64297">
        <ele>415.1</ele>
        <time>2023-11-26T14:37:30Z</time>
      </trkpt>
      <trkpt lat="43.63601" lon="6.64298">
        <ele>415.1</ele>
        <time>2023-11-26T14:37:31Z</time>
      </trkpt>
      <trkpt lat="43.63602" lon="6.64298">
        <ele>415.1</ele>
        <time>2023-11-26T14:37:32Z</time>
      </trkpt>
      <trkpt lat="43.636" lon="6.64298">
        <ele>415.1</ele>
        <time>2023-11-26T14:37:33Z</time>
      </trkpt>
      <trkpt lat="43.636" lon="6.64298">
        <ele>415.1</ele>
        <time>2023-11-26T14:37:34Z</time>
      </trkpt>
      <trkpt lat="43.63599" lon="6.64297">
        <ele>415.1</ele>
        <time>2023-11-26T14:37:35Z</time>
      </trkpt>
      <trkpt lat="43.63599" lon="6.64297">
        <ele>415.2</ele>
        <time>2023-11-26T14:37:36Z</time>
      </trkpt>
      <trkpt lat="43.63599" lon="6.64297">
        <ele>415.2</ele>
        <time>2023-11-26T14:37:37Z</time>
      </trkpt>
      <trkpt lat="43.63601" lon="6.64297">
        <ele>415.1</ele>
        <time>2023-11-26T14:37:38Z</time>
      </trkpt>
      <trkpt lat="43.63602" lon="6.64297">
        <ele>415</ele>
        <time>2023-11-26T14:37:39Z</time>
      </trkpt>
      <trkpt lat="43.636" lon="6.64298">
        <ele>415</ele>
        <time>2023-11-26T14:37:40Z</time>
      </trkpt>
      <trkpt lat="43.63599" lon="6.643">
        <ele>415</ele>
        <time>2023-11-26T14:37:41Z</time>
      </trkpt>
      <trkpt lat="43.63598" lon="6.64302">
        <ele>414.9</ele>
        <time>2023-11-26T14:37:42Z</time>
      </trkpt>
      <trkpt lat="43.63598" lon="6.64301">
        <ele>414.9</ele>
        <time>2023-11-26T14:37:43Z</time>
      </trkpt>
      <trkpt lat="43.63602" lon="6.64302">
        <ele>415</ele>
        <time>2023-11-26T14:37:44Z</time>
      </trkpt>
      <trkpt lat="43.63606" lon="6.64303">
        <ele>415</ele>
        <time>2023-11-26T14:37:45Z</time>
      </trkpt>
      <trkpt lat="43.63606" lon="6.64302">
        <ele>415.1</ele>
        <time>2023-11-26T14:37:46Z</time>
      </trkpt>
      <trkpt lat="43.63605" lon="6.64301">
        <ele>415</ele>
        <time>2023-11-26T14:37:47Z</time>
      </trkpt>
      <trkpt lat="43.63606" lon="6.643">
        <ele>415</ele>
        <time>2023-11-26T14:37:48Z</time>
      </trkpt>
      <trkpt lat="43.63606" lon="6.64299">
        <ele>415</ele>
        <time>2023-11-26T14:37:49Z</time>
      </trkpt>
      <trkpt lat="43.63606" lon="6.64299">
        <ele>415.1</ele>
        <time>2023-11-26T14:37:50Z</time>
      </trkpt>
      <trkpt lat="43.63607" lon="6.64298">
        <ele>414.9</ele>
        <time>2023-11-26T14:37:51Z</time>
      </trkpt>
      <trkpt lat="43.63607" lon="6.64299">
        <ele>415</ele>
        <time>2023-11-26T14:37:58Z</time>
      </trkpt>
      <trkpt lat="43.63606" lon="6.64303">
        <ele>415.1</ele>
        <time>2023-11-26T14:37:59Z</time>
      </trkpt>
      <trkpt lat="43.63605" lon="6.64305">
        <ele>415.1</ele>
        <time>2023-11-26T14:38:00Z</time>
      </trkpt>
      <trkpt lat="43.63603" lon="6.64305">
        <ele>415.2</ele>
        <time>2023-11-26T14:38:01Z</time>
      </trkpt>
      <trkpt lat="43.63606" lon="6.64306">
        <ele>415.2</ele>
        <time>2023-11-26T14:38:02Z</time>
      </trkpt>
      <trkpt lat="43.63609" lon="6.64308">
        <ele>415.2</ele>
        <time>2023-11-26T14:38:03Z</time>
      </trkpt>
      <trkpt lat="43.63613" lon="6.6431">
        <ele>415.2</ele>
        <time>2023-11-26T14:38:04Z</time>
      </trkpt>
      <trkpt lat="43.63615" lon="6.64311">
        <ele>415.1</ele>
        <time>2023-11-26T14:38:05Z</time>
      </trkpt>
      <trkpt lat="43.63617" lon="6.64312">
        <ele>415.1</ele>
        <time>2023-11-26T14:38:06Z</time>
      </trkpt>
      <trkpt lat="43.63618" lon="6.64314">
        <ele>415.1</ele>
        <time>2023-11-26T14:38:07Z</time>
      </trkpt>
      <trkpt lat="43.63621" lon="6.64315">
        <ele>415.2</ele>
        <time>2023-11-26T14:38:08Z</time>
      </trkpt>
      <trkpt lat="43.63623" lon="6.64316">
        <ele>415.1</ele>
        <time>2023-11-26T14:38:09Z</time>
      </trkpt>
      <trkpt lat="43.63622" lon="6.64313">
        <ele>415</ele>
        <time>2023-11-26T14:38:10Z</time>
      </trkpt>
      <trkpt lat="43.63622" lon="6.6431">
        <ele>415</ele>
        <time>2023-11-26T14:38:11Z</time>
      </trkpt>
      <trkpt lat="43.63623" lon="6.64305">
        <ele>415</ele>
        <time>2023-11-26T14:38:12Z</time>
      </trkpt>
      <trkpt lat="43.63626" lon="6.64302">
        <ele>415</ele>
        <time>2023-11-26T14:38:13Z</time>
      </trkpt>
      <trkpt lat="43.6363" lon="6.643">
        <ele>414.9</ele>
        <time>2023-11-26T14:38:14Z</time>
      </trkpt>
      <trkpt lat="43.63634" lon="6.64297">
        <ele>414.9</ele>
        <time>2023-11-26T14:38:15Z</time>
      </trkpt>
      <trkpt lat="43.63634" lon="6.64293">
        <ele>414.9</ele>
        <time>2023-11-26T14:38:16Z</time>
      </trkpt>
      <trkpt lat="43.63636" lon="6.6429">
        <ele>414.9</ele>
        <time>2023-11-26T14:38:17Z</time>
      </trkpt>
      <trkpt lat="43.63639" lon="6.64288">
        <ele>414.9</ele>
        <time>2023-11-26T14:38:18Z</time>
      </trkpt>
      <trkpt lat="43.63642" lon="6.64284">
        <ele>414.9</ele>
        <time>2023-11-26T14:38:19Z</time>
      </trkpt>
      <trkpt lat="43.63642" lon="6.64281">
        <ele>414.9</ele>
        <time>2023-11-26T14:38:20Z</time>
      </trkpt>
      <trkpt lat="43.63643" lon="6.64279">
        <ele>414.9</ele>
        <time>2023-11-26T14:38:21Z</time>
      </trkpt>
      <trkpt lat="43.63642" lon="6.64278">
        <ele>415</ele>
        <time>2023-11-26T14:38:22Z</time>
      </trkpt>
      <trkpt lat="43.63641" lon="6.64277">
        <ele>415</ele>
        <time>2023-11-26T14:38:23Z</time>
      </trkpt>
      <trkpt lat="43.63639" lon="6.64276">
        <ele>414.9</ele>
        <time>2023-11-26T14:38:24Z</time>
      </trkpt>
      <trkpt lat="43.63639" lon="6.64274">
        <ele>414.9</ele>
        <time>2023-11-26T14:38:25Z</time>
      </trkpt>
      <trkpt lat="43.63639" lon="6.64271">
        <ele>414.9</ele>
        <time>2023-11-26T14:38:26Z</time>
      </trkpt>
      <trkpt lat="43.6364" lon="6.64268">
        <ele>414.8</ele>
        <time>2023-11-26T14:38:27Z</time>
      </trkpt>
      <trkpt lat="43.63641" lon="6.64266">
        <ele>414.9</ele>
        <time>2023-11-26T14:38:28Z</time>
      </trkpt>
      <trkpt lat="43.63641" lon="6.64265">
        <ele>415</ele>
        <time>2023-11-26T14:38:29Z</time>
      </trkpt>
      <trkpt lat="43.63641" lon="6.64263">
        <ele>415</ele>
        <time>2023-11-26T14:38:30Z</time>
      </trkpt>
      <trkpt lat="43.6364" lon="6.64263">
        <ele>415</ele>
        <time>2023-11-26T14:38:31Z</time>
      </trkpt>
      <trkpt lat="43.6364" lon="6.6426">
        <ele>415.1</ele>
        <time>2023-11-26T14:38:32Z</time>
      </trkpt>
      <trkpt lat="43.63639" lon="6.64259">
        <ele>415.1</ele>
        <time>2023-11-26T14:38:33Z</time>
      </trkpt>
      <trkpt lat="43.63639" lon="6.64258">
        <ele>415.1</ele>
        <time>2023-11-26T14:38:34Z</time>
      </trkpt>
      <trkpt lat="43.63637" lon="6.64258">
        <ele>415.1</ele>
        <time>2023-11-26T14:38:35Z</time>
      </trkpt>
      <trkpt lat="43.63636" lon="6.64258">
        <ele>415.1</ele>
        <time>2023-11-26T14:38:36Z</time>
      </trkpt>
      <trkpt lat="43.63634" lon="6.64259">
        <ele>415</ele>
        <time>2023-11-26T14:38:37Z</time>
      </trkpt>
      <trkpt lat="43.63631" lon="6.64259">
        <ele>415</ele>
        <time>2023-11-26T14:38:43Z</time>
      </trkpt>
      <trkpt lat="43.63626" lon="6.64263">
        <ele>415</ele>
        <time>2023-11-26T14:38:44Z</time>
      </trkpt>
      <trkpt lat="43.63617" lon="6.6427">
        <ele>415</ele>
        <time>2023-11-26T14:38:45Z</time>
      </trkpt>
      <trkpt lat="43.63615" lon="6.64269">
        <ele>414.8</ele>
        <time>2023-11-26T14:38:46Z</time>
      </trkpt>
      <trkpt lat="43.63616" lon="6.64267">
        <ele>414.8</ele>
        <time>2023-11-26T14:38:47Z</time>
      </trkpt>
      <trkpt lat="43.63613" lon="6.64268">
        <ele>414.8</ele>
        <time>2023-11-26T14:38:48Z</time>
      </trkpt>
      <trkpt lat="43.63611" lon="6.6427">
        <ele>414.8</ele>
        <time>2023-11-26T14:38:49Z</time>
      </trkpt>
      <trkpt lat="43.63611" lon="6.6427">
        <ele>414.7</ele>
        <time>2023-11-26T14:38:50Z</time>
      </trkpt>
      <trkpt lat="43.63609" lon="6.64272">
        <ele>414.8</ele>
        <time>2023-11-26T14:38:51Z</time>
      </trkpt>
      <trkpt lat="43.63608" lon="6.64274">
        <ele>414.9</ele>
        <time>2023-11-26T14:38:52Z</time>
      </trkpt>
      <trkpt lat="43.63609" lon="6.64275">
        <ele>414.9</ele>
        <time>2023-11-26T14:38:53Z</time>
      </trkpt>
      <trkpt lat="43.63608" lon="6.64278">
        <ele>414.9</ele>
        <time>2023-11-26T14:38:54Z</time>
      </trkpt>
      <trkpt lat="43.63607" lon="6.64279">
        <ele>415</ele>
        <time>2023-11-26T14:38:55Z</time>
      </trkpt>
      <trkpt lat="43.63605" lon="6.64282">
        <ele>415.1</ele>
        <time>2023-11-26T14:38:56Z</time>
      </trkpt>
      <trkpt lat="43.63605" lon="6.64283">
        <ele>414.9</ele>
        <time>2023-11-26T14:38:57Z</time>
      </trkpt>
      <trkpt lat="43.63604" lon="6.64285">
        <ele>414.9</ele>
        <time>2023-11-26T14:38:59Z</time>
      </trkpt>
      <trkpt lat="43.63604" lon="6.64284">
        <ele>414.8</ele>
        <time>2023-11-26T14:39:00Z</time>
      </trkpt>
      <trkpt lat="43.63601" lon="6.64282">
        <ele>414.8</ele>
        <time>2023-11-26T14:39:01Z</time>
      </trkpt>
      <trkpt lat="43.63599" lon="6.64283">
        <ele>414.8</ele>
        <time>2023-11-26T14:39:02Z</time>
      </trkpt>
      <trkpt lat="43.63591" lon="6.64289">
        <ele>414.8</ele>
        <time>2023-11-26T14:39:08Z</time>
      </trkpt>
      <trkpt lat="43.63588" lon="6.64297">
        <ele>414.7</ele>
        <time>2023-11-26T14:39:09Z</time>
      </trkpt>
      <trkpt lat="43.63585" lon="6.64304">
        <ele>414.7</ele>
        <time>2023-11-26T14:39:10Z</time>
      </trkpt>
      <trkpt lat="43.63582" lon="6.64311">
        <ele>414.7</ele>
        <time>2023-11-26T14:39:11Z</time>
      </trkpt>
      <trkpt lat="43.63579" lon="6.64318">
        <ele>414.7</ele>
        <time>2023-11-26T14:39:12Z</time>
      </trkpt>
      <trkpt lat="43.63574" lon="6.64325">
        <ele>414.8</ele>
        <time>2023-11-26T14:39:13Z</time>
      </trkpt>
      <trkpt lat="43.63573" lon="6.64327">
        <ele>414.7</ele>
        <time>2023-11-26T14:39:14Z</time>
      </trkpt>
      <trkpt lat="43.63573" lon="6.64327">
        <ele>414.8</ele>
        <time>2023-11-26T14:39:15Z</time>
      </trkpt>
      <trkpt lat="43.63574" lon="6.64326">
        <ele>414.8</ele>
        <time>2023-11-26T14:39:16Z</time>
      </trkpt>
      <trkpt lat="43.63574" lon="6.64325">
        <ele>414.7</ele>
        <time>2023-11-26T14:39:17Z</time>
      </trkpt>
      <trkpt lat="43.63576" lon="6.64323">
        <ele>414.7</ele>
        <time>2023-11-26T14:39:18Z</time>
      </trkpt>
      <trkpt lat="43.63576" lon="6.64323">
        <ele>414.8</ele>
        <time>2023-11-26T14:39:19Z</time>
      </trkpt>
      <trkpt lat="43.63577" lon="6.64323">
        <ele>414.8</ele>
        <time>2023-11-26T14:39:20Z</time>
      </trkpt>
      <trkpt lat="43.63578" lon="6.64322">
        <ele>414.8</ele>
        <time>2023-11-26T14:39:21Z</time>
      </trkpt>
      <trkpt lat="43.63579" lon="6.64319">
        <ele>414.8</ele>
        <time>2023-11-26T14:39:22Z</time>
      </trkpt>
      <trkpt lat="43.63579" lon="6.64317">
        <ele>414.9</ele>
        <time>2023-11-26T14:39:23Z</time>
      </trkpt>
      <trkpt lat="43.63579" lon="6.64315">
        <ele>414.9</ele>
        <time>2023-11-26T14:39:24Z</time>
      </trkpt>
      <trkpt lat="43.6358" lon="6.64313">
        <ele>414.9</ele>
        <time>2023-11-26T14:39:25Z</time>
      </trkpt>
      <trkpt lat="43.63577" lon="6.64317">
        <ele>414.8</ele>
        <time>2023-11-26T14:39:26Z</time>
      </trkpt>
      <trkpt lat="43.63573" lon="6.6432">
        <ele>414.8</ele>
        <time>2023-11-26T14:39:27Z</time>
      </trkpt>
      <trkpt lat="43.63573" lon="6.64319">
        <ele>414.9</ele>
        <time>2023-11-26T14:39:28Z</time>
      </trkpt>
      <trkpt lat="43.63574" lon="6.64318">
        <ele>414.8</ele>
        <time>2023-11-26T14:39:29Z</time>
      </trkpt>
      <trkpt lat="43.63576" lon="6.64316">
        <ele>414.8</ele>
        <time>2023-11-26T14:39:30Z</time>
      </trkpt>
      <trkpt lat="43.63576" lon="6.64316">
        <ele>414.9</ele>
        <time>2023-11-26T14:39:31Z</time>
      </trkpt>
      <trkpt lat="43.63578" lon="6.64315">
        <ele>415</ele>
        <time>2023-11-26T14:39:32Z</time>
      </trkpt>
      <trkpt lat="43.6358" lon="6.64313">
        <ele>415</ele>
        <time>2023-11-26T14:39:33Z</time>
      </trkpt>
      <trkpt lat="43.63581" lon="6.64312">
        <ele>415.1</ele>
        <time>2023-11-26T14:39:34Z</time>
      </trkpt>
      <trkpt lat="43.63581" lon="6.64311">
        <ele>415.1</ele>
        <time>2023-11-26T14:39:35Z</time>
      </trkpt>
      <trkpt lat="43.63581" lon="6.6431">
        <ele>415.1</ele>
        <time>2023-11-26T14:39:36Z</time>
      </trkpt>
      <trkpt lat="43.63583" lon="6.64309">
        <ele>415</ele>
        <time>2023-11-26T14:39:37Z</time>
      </trkpt>
      <trkpt lat="43.63583" lon="6.64307">
        <ele>415.1</ele>
        <time>2023-11-26T14:39:38Z</time>
      </trkpt>
      <trkpt lat="43.63598" lon="6.64269">
        <ele>415.1</ele>
        <time>2023-11-26T14:39:58Z</time>
      </trkpt>
      <trkpt lat="43.63598" lon="6.64265">
        <ele>415.1</ele>
        <time>2023-11-26T14:39:59Z</time>
      </trkpt>
      <trkpt lat="43.63598" lon="6.64264">
        <ele>415.1</ele>
        <time>2023-11-26T14:40:00Z</time>
      </trkpt>
      <trkpt lat="43.63573" lon="6.64269">
        <ele>414.9</ele>
        <time>2023-11-26T14:41:07Z</time>
      </trkpt>
      <trkpt lat="43.63574" lon="6.6427">
        <ele>414.9</ele>
        <time>2023-11-26T14:41:08Z</time>
      </trkpt>
      <trkpt lat="43.63573" lon="6.64271">
        <ele>414.9</ele>
        <time>2023-11-26T14:41:09Z</time>
      </trkpt>
      <trkpt lat="43.63575" lon="6.64273">
        <ele>415</ele>
        <time>2023-11-26T14:41:10Z</time>
      </trkpt>
      <trkpt lat="43.63576" lon="6.64276">
        <ele>415.1</ele>
        <time>2023-11-26T14:41:11Z</time>
      </trkpt>
      <trkpt lat="43.63575" lon="6.64279">
        <ele>415.1</ele>
        <time>2023-11-26T14:41:12Z</time>
      </trkpt>
      <trkpt lat="43.63576" lon="6.6428">
        <ele>415.1</ele>
        <time>2023-11-26T14:41:13Z</time>
      </trkpt>
      <trkpt lat="43.63576" lon="6.64282">
        <ele>415.1</ele>
        <time>2023-11-26T14:41:14Z</time>
      </trkpt>
      <trkpt lat="43.63576" lon="6.64283">
        <ele>415.1</ele>
        <time>2023-11-26T14:41:15Z</time>
      </trkpt>
      <trkpt lat="43.63575" lon="6.64283">
        <ele>415.1</ele>
        <time>2023-11-26T14:41:16Z</time>
      </trkpt>
      <trkpt lat="43.63575" lon="6.64283">
        <ele>415.1</ele>
        <time>2023-11-26T14:41:17Z</time>
      </trkpt>
      <trkpt lat="43.63573" lon="6.64283">
        <ele>415</ele>
        <time>2023-11-26T14:41:18Z</time>
      </trkpt>
      <trkpt lat="43.63573" lon="6.64284">
        <ele>415</ele>
        <time>2023-11-26T14:41:19Z</time>
      </trkpt>
      <trkpt lat="43.63572" lon="6.64285">
        <ele>415</ele>
        <time>2023-11-26T14:41:20Z</time>
      </trkpt>
      <trkpt lat="43.63571" lon="6.64286">
        <ele>415</ele>
        <time>2023-11-26T14:41:21Z</time>
      </trkpt>
      <trkpt lat="43.63571" lon="6.64287">
        <ele>414.9</ele>
        <time>2023-11-26T14:41:22Z</time>
      </trkpt>
      <trkpt lat="43.6357" lon="6.64287">
        <ele>414.9</ele>
        <time>2023-11-26T14:41:23Z</time>
      </trkpt>
      <trkpt lat="43.63571" lon="6.64286">
        <ele>414.8</ele>
        <time>2023-11-26T14:41:24Z</time>
      </trkpt>
      <trkpt lat="43.63569" lon="6.64285">
        <ele>414.8</ele>
        <time>2023-11-26T14:41:25Z</time>
      </trkpt>
      <trkpt lat="43.63568" lon="6.64285">
        <ele>414.7</ele>
        <time>2023-11-26T14:41:26Z</time>
      </trkpt>
      <trkpt lat="43.63566" lon="6.64286">
        <ele>414.8</ele>
        <time>2023-11-26T14:41:28Z</time>
      </trkpt>
      <trkpt lat="43.63565" lon="6.64287">
        <ele>414.8</ele>
        <time>2023-11-26T14:41:29Z</time>
      </trkpt>
      <trkpt lat="43.63565" lon="6.64288">
        <ele>414.7</ele>
        <time>2023-11-26T14:41:30Z</time>
      </trkpt>
      <trkpt lat="43.63565" lon="6.6429">
        <ele>414.7</ele>
        <time>2023-11-26T14:41:31Z</time>
      </trkpt>
      <trkpt lat="43.63565" lon="6.64293">
        <ele>414.9</ele>
        <time>2023-11-26T14:41:32Z</time>
      </trkpt>
      <trkpt lat="43.63566" lon="6.64294">
        <ele>414.9</ele>
        <time>2023-11-26T14:41:33Z</time>
      </trkpt>
      <trkpt lat="43.63568" lon="6.64296">
        <ele>415</ele>
        <time>2023-11-26T14:41:34Z</time>
      </trkpt>
      <trkpt lat="43.63567" lon="6.64297">
        <ele>415</ele>
        <time>2023-11-26T14:41:35Z</time>
      </trkpt>
      <trkpt lat="43.63568" lon="6.64298">
        <ele>415.1</ele>
        <time>2023-11-26T14:41:36Z</time>
      </trkpt>
      <trkpt lat="43.63568" lon="6.64298">
        <ele>415.1</ele>
        <time>2023-11-26T14:41:37Z</time>
      </trkpt>
      <trkpt lat="43.63569" lon="6.64298">
        <ele>415.1</ele>
        <time>2023-11-26T14:41:38Z</time>
      </trkpt>
      <trkpt lat="43.6357" lon="6.64296">
        <ele>415</ele>
        <time>2023-11-26T14:41:39Z</time>
      </trkpt>
      <trkpt lat="43.63571" lon="6.64297">
        <ele>415</ele>
        <time>2023-11-26T14:41:40Z</time>
      </trkpt>
      <trkpt lat="43.63571" lon="6.64298">
        <ele>415</ele>
        <time>2023-11-26T14:41:41Z</time>
      </trkpt>
      <trkpt lat="43.63572" lon="6.64298">
        <ele>415</ele>
        <time>2023-11-26T14:41:42Z</time>
      </trkpt>
      <trkpt lat="43.63572" lon="6.64297">
        <ele>414.9</ele>
        <time>2023-11-26T14:41:43Z</time>
      </trkpt>
      <trkpt lat="43.63573" lon="6.64296">
        <ele>414.9</ele>
        <time>2023-11-26T14:41:44Z</time>
      </trkpt>
      <trkpt lat="43.63575" lon="6.64298">
        <ele>414.9</ele>
        <time>2023-11-26T14:41:45Z</time>
      </trkpt>
      <trkpt lat="43.63576" lon="6.64293">
        <ele>414.9</ele>
        <time>2023-11-26T14:41:46Z</time>
      </trkpt>
      <trkpt lat="43.63577" lon="6.64289">
        <ele>414.9</ele>
        <time>2023-11-26T14:41:47Z</time>
      </trkpt>
      <trkpt lat="43.6358" lon="6.64285">
        <ele>415</ele>
        <time>2023-11-26T14:41:48Z</time>
      </trkpt>
      <trkpt lat="43.6358" lon="6.64282">
        <ele>414.9</ele>
        <time>2023-11-26T14:41:49Z</time>
      </trkpt>
      <trkpt lat="43.63581" lon="6.64279">
        <ele>414.9</ele>
        <time>2023-11-26T14:41:50Z</time>
      </trkpt>
      <trkpt lat="43.63582" lon="6.64275">
        <ele>414.8</ele>
        <time>2023-11-26T14:41:51Z</time>
      </trkpt>
      <trkpt lat="43.63582" lon="6.64273">
        <ele>414.8</ele>
        <time>2023-11-26T14:41:52Z</time>
      </trkpt>
      <trkpt lat="43.63583" lon="6.64271">
        <ele>414.8</ele>
        <time>2023-11-26T14:41:53Z</time>
      </trkpt>
      <trkpt lat="43.63583" lon="6.64269">
        <ele>414.8</ele>
        <time>2023-11-26T14:41:54Z</time>
      </trkpt>
      <trkpt lat="43.63581" lon="6.64269">
        <ele>414.8</ele>
        <time>2023-11-26T14:41:55Z</time>
      </trkpt>
      <trkpt lat="43.63582" lon="6.64269">
        <ele>414.8</ele>
        <time>2023-11-26T14:41:56Z</time>
      </trkpt>
      <trkpt lat="43.63581" lon="6.6427">
        <ele>414.8</ele>
        <time>2023-11-26T14:41:57Z</time>
      </trkpt>
      <trkpt lat="43.63581" lon="6.6427">
        <ele>414.8</ele>
        <time>2023-11-26T14:41:58Z</time>
      </trkpt>
      <trkpt lat="43.63581" lon="6.6427">
        <ele>414.8</ele>
        <time>2023-11-26T14:41:59Z</time>
      </trkpt>
      <trkpt lat="43.63581" lon="6.64271">
        <ele>414.8</ele>
        <time>2023-11-26T14:42:00Z</time>
      </trkpt>
      <trkpt lat="43.63582" lon="6.64272">
        <ele>414.8</ele>
        <time>2023-11-26T14:42:01Z</time>
      </trkpt>
      <trkpt lat="43.6358" lon="6.64274">
        <ele>414.8</ele>
        <time>2023-11-26T14:42:02Z</time>
      </trkpt>
      <trkpt lat="43.6358" lon="6.64275">
        <ele>414.8</ele>
        <time>2023-11-26T14:42:03Z</time>
      </trkpt>
      <trkpt lat="43.63579" lon="6.64276">
        <ele>414.8</ele>
        <time>2023-11-26T14:42:04Z</time>
      </trkpt>
      <trkpt lat="43.63575" lon="6.64278">
        <ele>414.8</ele>
        <time>2023-11-26T14:42:05Z</time>
      </trkpt>
      <trkpt lat="43.63576" lon="6.64278">
        <ele>414.9</ele>
        <time>2023-11-26T14:42:06Z</time>
      </trkpt>
      <trkpt lat="43.63577" lon="6.64277">
        <ele>415</ele>
        <time>2023-11-26T14:42:07Z</time>
      </trkpt>
      <trkpt lat="43.63575" lon="6.64276">
        <ele>415</ele>
        <time>2023-11-26T14:42:08Z</time>
      </trkpt>
      <trkpt lat="43.63578" lon="6.64275">
        <ele>415.1</ele>
        <time>2023-11-26T14:42:09Z</time>
      </trkpt>
      <trkpt lat="43.63575" lon="6.64274">
        <ele>415.2</ele>
        <time>2023-11-26T14:42:10Z</time>
      </trkpt>
      <trkpt lat="43.63575" lon="6.64273">
        <ele>415.2</ele>
        <time>2023-11-26T14:42:11Z</time>
      </trkpt>
      <trkpt lat="43.63575" lon="6.64272">
        <ele>415.1</ele>
        <time>2023-11-26T14:42:12Z</time>
      </trkpt>
      <trkpt lat="43.63576" lon="6.64271">
        <ele>415.1</ele>
        <time>2023-11-26T14:42:13Z</time>
      </trkpt>
      <trkpt lat="43.63577" lon="6.6427">
        <ele>415.1</ele>
        <time>2023-11-26T14:42:14Z</time>
      </trkpt>
      <trkpt lat="43.63577" lon="6.6427">
        <ele>415.1</ele>
        <time>2023-11-26T14:42:15Z</time>
      </trkpt>
      <trkpt lat="43.63578" lon="6.6427">
        <ele>415.1</ele>
        <time>2023-11-26T14:42:16Z</time>
      </trkpt>
      <trkpt lat="43.63579" lon="6.6427">
        <ele>415.1</ele>
        <time>2023-11-26T14:42:17Z</time>
      </trkpt>
      <trkpt lat="43.63579" lon="6.64269">
        <ele>415</ele>
        <time>2023-11-26T14:42:18Z</time>
      </trkpt>
      <trkpt lat="43.63582" lon="6.64268">
        <ele>415.1</ele>
        <time>2023-11-26T14:42:19Z</time>
      </trkpt>
      <trkpt lat="43.6358" lon="6.64268">
        <ele>415.2</ele>
        <time>2023-11-26T14:42:20Z</time>
      </trkpt>
      <trkpt lat="43.63582" lon="6.64268">
        <ele>415.2</ele>
        <time>2023-11-26T14:42:21Z</time>
      </trkpt>
      <trkpt lat="43.63584" lon="6.64267">
        <ele>415.2</ele>
        <time>2023-11-26T14:42:22Z</time>
      </trkpt>
      <trkpt lat="43.63583" lon="6.64268">
        <ele>415.2</ele>
        <time>2023-11-26T14:42:23Z</time>
      </trkpt>
      <trkpt lat="43.63584" lon="6.64268">
        <ele>415.2</ele>
        <time>2023-11-26T14:42:24Z</time>
      </trkpt>
      <trkpt lat="43.63584" lon="6.6427">
        <ele>415.2</ele>
        <time>2023-11-26T14:42:25Z</time>
      </trkpt>
      <trkpt lat="43.63584" lon="6.64271">
        <ele>415.1</ele>
        <time>2023-11-26T14:42:26Z</time>
      </trkpt>
      <trkpt lat="43.63584" lon="6.64272">
        <ele>415.1</ele>
        <time>2023-11-26T14:42:27Z</time>
      </trkpt>
      <trkpt lat="43.63586" lon="6.64273">
        <ele>415.1</ele>
        <time>2023-11-26T14:42:28Z</time>
      </trkpt>
      <trkpt lat="43.63586" lon="6.64274">
        <ele>415.1</ele>
        <time>2023-11-26T14:42:29Z</time>
      </trkpt>
      <trkpt lat="43.63585" lon="6.64275">
        <ele>415.1</ele>
        <time>2023-11-26T14:42:30Z</time>
      </trkpt>
      <trkpt lat="43.63584" lon="6.64276">
        <ele>415.1</ele>
        <time>2023-11-26T14:42:31Z</time>
      </trkpt>
      <trkpt lat="43.63588" lon="6.64279">
        <ele>415.1</ele>
        <time>2023-11-26T14:42:32Z</time>
      </trkpt>
      <trkpt lat="43.63591" lon="6.64281">
        <ele>415.1</ele>
        <time>2023-11-26T14:42:33Z</time>
      </trkpt>
      <trkpt lat="43.63591" lon="6.64282">
        <ele>415.1</ele>
        <time>2023-11-26T14:42:34Z</time>
      </trkpt>
      <trkpt lat="43.63591" lon="6.64282">
        <ele>415.1</ele>
        <time>2023-11-26T14:42:35Z</time>
      </trkpt>
      <trkpt lat="43.63591" lon="6.64282">
        <ele>415.1</ele>
        <time>2023-11-26T14:42:36Z</time>
      </trkpt>
      <trkpt lat="43.63593" lon="6.64281">
        <ele>415.1</ele>
        <time>2023-11-26T14:42:37Z</time>
      </trkpt>
      <trkpt lat="43.63593" lon="6.6428">
        <ele>415.2</ele>
        <time>2023-11-26T14:42:38Z</time>
      </trkpt>
      <trkpt lat="43.63592" lon="6.6428">
        <ele>415.1</ele>
        <time>2023-11-26T14:42:39Z</time>
      </trkpt>
      <trkpt lat="43.6359" lon="6.6428">
        <ele>415</ele>
        <time>2023-11-26T14:42:40Z</time>
      </trkpt>
      <trkpt lat="43.63591" lon="6.64279">
        <ele>415.1</ele>
        <time>2023-11-26T14:42:41Z</time>
      </trkpt>
      <trkpt lat="43.63591" lon="6.64279">
        <ele>415.2</ele>
        <time>2023-11-26T14:42:42Z</time>
      </trkpt>
      <trkpt lat="43.63591" lon="6.64279">
        <ele>415.2</ele>
        <time>2023-11-26T14:42:43Z</time>
      </trkpt>
      <trkpt lat="43.6359" lon="6.64278">
        <ele>415.2</ele>
        <time>2023-11-26T14:42:44Z</time>
      </trkpt>
      <trkpt lat="43.6359" lon="6.64278">
        <ele>415.2</ele>
        <time>2023-11-26T14:42:45Z</time>
      </trkpt>
      <trkpt lat="43.63588" lon="6.64278">
        <ele>415.2</ele>
        <time>2023-11-26T14:42:46Z</time>
      </trkpt>
      <trkpt lat="43.63589" lon="6.64278">
        <ele>415.2</ele>
        <time>2023-11-26T14:42:47Z</time>
      </trkpt>
      <trkpt lat="43.6359" lon="6.64277">
        <ele>415.1</ele>
        <time>2023-11-26T14:42:48Z</time>
      </trkpt>
      <trkpt lat="43.6359" lon="6.64276">
        <ele>415.1</ele>
        <time>2023-11-26T14:42:49Z</time>
      </trkpt>
      <trkpt lat="43.63591" lon="6.64276">
        <ele>415</ele>
        <time>2023-11-26T14:42:50Z</time>
      </trkpt>
      <trkpt lat="43.63592" lon="6.64274">
        <ele>415.1</ele>
        <time>2023-11-26T14:42:51Z</time>
      </trkpt>
      <trkpt lat="43.63592" lon="6.64274">
        <ele>415.2</ele>
        <time>2023-11-26T14:42:52Z</time>
      </trkpt>
      <trkpt lat="43.63592" lon="6.64274">
        <ele>415.3</ele>
        <time>2023-11-26T14:42:53Z</time>
      </trkpt>
      <trkpt lat="43.63594" lon="6.64274">
        <ele>415.3</ele>
        <time>2023-11-26T14:42:54Z</time>
      </trkpt>
      <trkpt lat="43.63589" lon="6.64286">
        <ele>415.4</ele>
        <time>2023-11-26T14:42:56Z</time>
      </trkpt>
      <trkpt lat="43.63583" lon="6.64292">
        <ele>415.4</ele>
        <time>2023-11-26T14:42:57Z</time>
      </trkpt>
      <trkpt lat="43.63584" lon="6.64293">
        <ele>415.4</ele>
        <time>2023-11-26T14:42:58Z</time>
      </trkpt>
      <trkpt lat="43.63583" lon="6.64293">
        <ele>415.4</ele>
        <time>2023-11-26T14:42:59Z</time>
      </trkpt>
      <trkpt lat="43.63583" lon="6.64294">
        <ele>415.4</ele>
        <time>2023-11-26T14:43:00Z</time>
      </trkpt>
      <trkpt lat="43.63584" lon="6.64296">
        <ele>415.4</ele>
        <time>2023-11-26T14:43:01Z</time>
      </trkpt>
      <trkpt lat="43.63583" lon="6.64296">
        <ele>415.4</ele>
        <time>2023-11-26T14:43:02Z</time>
      </trkpt>
      <trkpt lat="43.63583" lon="6.64302">
        <ele>415.4</ele>
        <time>2023-11-26T14:43:03Z</time>
      </trkpt>
      <trkpt lat="43.63584" lon="6.64302">
        <ele>415.3</ele>
        <time>2023-11-26T14:43:04Z</time>
      </trkpt>
      <trkpt lat="43.63585" lon="6.64301">
        <ele>415.2</ele>
        <time>2023-11-26T14:43:05Z</time>
      </trkpt>
      <trkpt lat="43.63585" lon="6.64301">
        <ele>415.1</ele>
        <time>2023-11-26T14:43:06Z</time>
      </trkpt>
      <trkpt lat="43.63585" lon="6.64301">
        <ele>415.1</ele>
        <time>2023-11-26T14:43:07Z</time>
      </trkpt>
      <trkpt lat="43.63585" lon="6.64302">
        <ele>415</ele>
        <time>2023-11-26T14:43:08Z</time>
      </trkpt>
      <trkpt lat="43.63584" lon="6.64303">
        <ele>415</ele>
        <time>2023-11-26T14:43:09Z</time>
      </trkpt>
      <trkpt lat="43.63583" lon="6.64305">
        <ele>415</ele>
        <time>2023-11-26T14:43:10Z</time>
      </trkpt>
      <trkpt lat="43.63582" lon="6.64306">
        <ele>414.9</ele>
        <time>2023-11-26T14:43:11Z</time>
      </trkpt>
      <trkpt lat="43.6358" lon="6.64308">
        <ele>414.9</ele>
        <time>2023-11-26T14:43:12Z</time>
      </trkpt>
      <trkpt lat="43.6358" lon="6.6431">
        <ele>415</ele>
        <time>2023-11-26T14:43:13Z</time>
      </trkpt>
      <trkpt lat="43.63579" lon="6.64302">
        <ele>415</ele>
        <time>2023-11-26T14:43:20Z</time>
      </trkpt>
      <trkpt lat="43.63571" lon="6.64294">
        <ele>415.1</ele>
        <time>2023-11-26T14:43:21Z</time>
      </trkpt>
      <trkpt lat="43.63569" lon="6.64293">
        <ele>415.1</ele>
        <time>2023-11-26T14:43:23Z</time>
      </trkpt>
      <trkpt lat="43.63568" lon="6.6429">
        <ele>415.1</ele>
        <time>2023-11-26T14:43:24Z</time>
      </trkpt>
      <trkpt lat="43.63568" lon="6.64292">
        <ele>415.1</ele>
        <time>2023-11-26T14:43:25Z</time>
      </trkpt>
      <trkpt lat="43.6357" lon="6.64292">
        <ele>415.1</ele>
        <time>2023-11-26T14:43:26Z</time>
      </trkpt>
      <trkpt lat="43.63569" lon="6.64293">
        <ele>415</ele>
        <time>2023-11-26T14:43:27Z</time>
      </trkpt>
      <trkpt lat="43.63571" lon="6.64298">
        <ele>415</ele>
        <time>2023-11-26T14:43:28Z</time>
      </trkpt>
      <trkpt lat="43.63572" lon="6.64302">
        <ele>415</ele>
        <time>2023-11-26T14:43:29Z</time>
      </trkpt>
      <trkpt lat="43.63574" lon="6.64305">
        <ele>414.9</ele>
        <time>2023-11-26T14:43:30Z</time>
      </trkpt>
      <trkpt lat="43.63572" lon="6.64307">
        <ele>414.9</ele>
        <time>2023-11-26T14:43:31Z</time>
      </trkpt>
      <trkpt lat="43.63569" lon="6.64309">
        <ele>414.9</ele>
        <time>2023-11-26T14:43:32Z</time>
      </trkpt>
      <trkpt lat="43.63568" lon="6.64313">
        <ele>415</ele>
        <time>2023-11-26T14:43:33Z</time>
      </trkpt>
      <trkpt lat="43.63566" lon="6.64314">
        <ele>415</ele>
        <time>2023-11-26T14:43:34Z</time>
      </trkpt>
      <trkpt lat="43.63567" lon="6.64318">
        <ele>415</ele>
        <time>2023-11-26T14:43:35Z</time>
      </trkpt>
      <trkpt lat="43.63567" lon="6.6432">
        <ele>415</ele>
        <time>2023-11-26T14:43:36Z</time>
      </trkpt>
      <trkpt lat="43.63566" lon="6.64321">
        <ele>415</ele>
        <time>2023-11-26T14:43:37Z</time>
      </trkpt>
      <trkpt lat="43.63564" lon="6.64322">
        <ele>415</ele>
        <time>2023-11-26T14:43:38Z</time>
      </trkpt>
      <trkpt lat="43.63563" lon="6.64323">
        <ele>415</ele>
        <time>2023-11-26T14:43:39Z</time>
      </trkpt>
      <trkpt lat="43.63563" lon="6.64322">
        <ele>415.1</ele>
        <time>2023-11-26T14:43:40Z</time>
      </trkpt>
      <trkpt lat="43.63563" lon="6.64321">
        <ele>415.1</ele>
        <time>2023-11-26T14:43:41Z</time>
      </trkpt>
      <trkpt lat="43.63564" lon="6.6432">
        <ele>415.2</ele>
        <time>2023-11-26T14:43:42Z</time>
      </trkpt>
      <trkpt lat="43.63583" lon="6.64277">
        <ele>415.2</ele>
        <time>2023-11-26T14:44:51Z</time>
      </trkpt>
      <trkpt lat="43.63584" lon="6.64277">
        <ele>415.2</ele>
        <time>2023-11-26T14:44:52Z</time>
      </trkpt>
      <trkpt lat="43.63585" lon="6.64278">
        <ele>415.2</ele>
        <time>2023-11-26T14:44:53Z</time>
      </trkpt>
      <trkpt lat="43.63585" lon="6.64283">
        <ele>415.2</ele>
        <time>2023-11-26T14:44:54Z</time>
      </trkpt>
      <trkpt lat="43.63586" lon="6.64282">
        <ele>415.3</ele>
        <time>2023-11-26T14:44:55Z</time>
      </trkpt>
      <trkpt lat="43.63587" lon="6.64288">
        <ele>415.3</ele>
        <time>2023-11-26T14:44:56Z</time>
      </trkpt>
      <trkpt lat="43.63587" lon="6.64292">
        <ele>415.2</ele>
        <time>2023-11-26T14:44:57Z</time>
      </trkpt>
      <trkpt lat="43.63588" lon="6.64297">
        <ele>415.2</ele>
        <time>2023-11-26T14:44:58Z</time>
      </trkpt>
      <trkpt lat="43.63589" lon="6.643">
        <ele>415.1</ele>
        <time>2023-11-26T14:44:59Z</time>
      </trkpt>
      <trkpt lat="43.6359" lon="6.64301">
        <ele>415</ele>
        <time>2023-11-26T14:45:00Z</time>
      </trkpt>
      <trkpt lat="43.63591" lon="6.64303">
        <ele>415</ele>
        <time>2023-11-26T14:45:01Z</time>
      </trkpt>
      <trkpt lat="43.63593" lon="6.64305">
        <ele>414.9</ele>
        <time>2023-11-26T14:45:02Z</time>
      </trkpt>
      <trkpt lat="43.63593" lon="6.64305">
        <ele>415</ele>
        <time>2023-11-26T14:45:03Z</time>
      </trkpt>
      <trkpt lat="43.63595" lon="6.64304">
        <ele>415</ele>
        <time>2023-11-26T14:45:04Z</time>
      </trkpt>
      <trkpt lat="43.63594" lon="6.64307">
        <ele>415</ele>
        <time>2023-11-26T14:45:05Z</time>
      </trkpt>
      <trkpt lat="43.63595" lon="6.64306">
        <ele>415</ele>
        <time>2023-11-26T14:45:06Z</time>
      </trkpt>
      <trkpt lat="43.63593" lon="6.64305">
        <ele>415</ele>
        <time>2023-11-26T14:45:07Z</time>
      </trkpt>
      <trkpt lat="43.63593" lon="6.64303">
        <ele>415.1</ele>
        <time>2023-11-26T14:45:08Z</time>
      </trkpt>
      <trkpt lat="43.63593" lon="6.64301">
        <ele>415</ele>
        <time>2023-11-26T14:45:09Z</time>
      </trkpt>
      <trkpt lat="43.63593" lon="6.64301">
        <ele>414.9</ele>
        <time>2023-11-26T14:45:10Z</time>
      </trkpt>
      <trkpt lat="43.63593" lon="6.64302">
        <ele>414.9</ele>
        <time>2023-11-26T14:45:11Z</time>
      </trkpt>
      <trkpt lat="43.63593" lon="6.64303">
        <ele>414.9</ele>
        <time>2023-11-26T14:45:12Z</time>
      </trkpt>
      <trkpt lat="43.63593" lon="6.64303">
        <ele>414.9</ele>
        <time>2023-11-26T14:45:13Z</time>
      </trkpt>
      <trkpt lat="43.63594" lon="6.64296">
        <ele>414.8</ele>
        <time>2023-11-26T14:45:14Z</time>
      </trkpt>
      <trkpt lat="43.63595" lon="6.64289">
        <ele>414.8</ele>
        <time>2023-11-26T14:45:15Z</time>
      </trkpt>
      <trkpt lat="43.63594" lon="6.6429">
        <ele>414.7</ele>
        <time>2023-11-26T14:45:16Z</time>
      </trkpt>
      <trkpt lat="43.63594" lon="6.64289">
        <ele>414.6</ele>
        <time>2023-11-26T14:45:17Z</time>
      </trkpt>
      <trkpt lat="43.63594" lon="6.6429">
        <ele>414.6</ele>
        <time>2023-11-26T14:45:18Z</time>
      </trkpt>
      <trkpt lat="43.63594" lon="6.6429">
        <ele>414.7</ele>
        <time>2023-11-26T14:45:19Z</time>
      </trkpt>
      <trkpt lat="43.63594" lon="6.64291">
        <ele>414.7</ele>
        <time>2023-11-26T14:45:20Z</time>
      </trkpt>
      <trkpt lat="43.63594" lon="6.64292">
        <ele>414.7</ele>
        <time>2023-11-26T14:45:21Z</time>
      </trkpt>
      <trkpt lat="43.63594" lon="6.64292">
        <ele>414.7</ele>
        <time>2023-11-26T14:45:22Z</time>
      </trkpt>
      <trkpt lat="43.63594" lon="6.64293">
        <ele>414.7</ele>
        <time>2023-11-26T14:45:23Z</time>
      </trkpt>
      <trkpt lat="43.63592" lon="6.64293">
        <ele>414.7</ele>
        <time>2023-11-26T14:45:24Z</time>
      </trkpt>
      <trkpt lat="43.63592" lon="6.64294">
        <ele>414.7</ele>
        <time>2023-11-26T14:45:25Z</time>
      </trkpt>
      <trkpt lat="43.63592" lon="6.64294">
        <ele>414.7</ele>
        <time>2023-11-26T14:45:26Z</time>
      </trkpt>
      <trkpt lat="43.63594" lon="6.64296">
        <ele>414.8</ele>
        <time>2023-11-26T14:45:27Z</time>
      </trkpt>
      <trkpt lat="43.63594" lon="6.64296">
        <ele>414.9</ele>
        <time>2023-11-26T14:45:28Z</time>
      </trkpt>
      <trkpt lat="43.63595" lon="6.64297">
        <ele>414.8</ele>
        <time>2023-11-26T14:45:29Z</time>
      </trkpt>
      <trkpt lat="43.63595" lon="6.64295">
        <ele>414.8</ele>
        <time>2023-11-26T14:45:30Z</time>
      </trkpt>
      <trkpt lat="43.63594" lon="6.64295">
        <ele>414.7</ele>
        <time>2023-11-26T14:45:31Z</time>
      </trkpt>
      <trkpt lat="43.63593" lon="6.64292">
        <ele>414.7</ele>
        <time>2023-11-26T14:45:32Z</time>
      </trkpt>
      <trkpt lat="43.63593" lon="6.64289">
        <ele>414.7</ele>
        <time>2023-11-26T14:45:33Z</time>
      </trkpt>
      <trkpt lat="43.63593" lon="6.64287">
        <ele>414.7</ele>
        <time>2023-11-26T14:45:34Z</time>
      </trkpt>
      <trkpt lat="43.63594" lon="6.64286">
        <ele>414.7</ele>
        <time>2023-11-26T14:45:35Z</time>
      </trkpt>
      <trkpt lat="43.63591" lon="6.64282">
        <ele>414.7</ele>
        <time>2023-11-26T14:45:36Z</time>
      </trkpt>
      <trkpt lat="43.63591" lon="6.64281">
        <ele>414.6</ele>
        <time>2023-11-26T14:45:37Z</time>
      </trkpt>
      <trkpt lat="43.63591" lon="6.64279">
        <ele>414.5</ele>
        <time>2023-11-26T14:45:38Z</time>
      </trkpt>
      <trkpt lat="43.63591" lon="6.64277">
        <ele>414.6</ele>
        <time>2023-11-26T14:45:39Z</time>
      </trkpt>
      <trkpt lat="43.63592" lon="6.64275">
        <ele>414.6</ele>
        <time>2023-11-26T14:45:40Z</time>
      </trkpt>
      <trkpt lat="43.63592" lon="6.64274">
        <ele>414.6</ele>
        <time>2023-11-26T14:45:41Z</time>
      </trkpt>
      <trkpt lat="43.63593" lon="6.64273">
        <ele>414.6</ele>
        <time>2023-11-26T14:45:42Z</time>
      </trkpt>
      <trkpt lat="43.63593" lon="6.64274">
        <ele>414.6</ele>
        <time>2023-11-26T14:45:43Z</time>
      </trkpt>
      <trkpt lat="43.63594" lon="6.64275">
        <ele>414.7</ele>
        <time>2023-11-26T14:45:44Z</time>
      </trkpt>
      <trkpt lat="43.63594" lon="6.64276">
        <ele>414.8</ele>
        <time>2023-11-26T14:45:45Z</time>
      </trkpt>
      <trkpt lat="43.63595" lon="6.64276">
        <ele>414.8</ele>
        <time>2023-11-26T14:45:46Z</time>
      </trkpt>
      <trkpt lat="43.63596" lon="6.64276">
        <ele>414.9</ele>
        <time>2023-11-26T14:45:47Z</time>
      </trkpt>
      <trkpt lat="43.63597" lon="6.64277">
        <ele>414.9</ele>
        <time>2023-11-26T14:45:48Z</time>
      </trkpt>
      <trkpt lat="43.63597" lon="6.64275">
        <ele>414.9</ele>
        <time>2023-11-26T14:45:49Z</time>
      </trkpt>
      <trkpt lat="43.63597" lon="6.64274">
        <ele>414.9</ele>
        <time>2023-11-26T14:45:50Z</time>
      </trkpt>
      <trkpt lat="43.63598" lon="6.64272">
        <ele>414.9</ele>
        <time>2023-11-26T14:45:51Z</time>
      </trkpt>
      <trkpt lat="43.63598" lon="6.64273">
        <ele>414.9</ele>
        <time>2023-11-26T14:45:52Z</time>
      </trkpt>
      <trkpt lat="43.63597" lon="6.64273">
        <ele>414.9</ele>
        <time>2023-11-26T14:45:53Z</time>
      </trkpt>
      <trkpt lat="43.63595" lon="6.64273">
        <ele>414.9</ele>
        <time>2023-11-26T14:45:54Z</time>
      </trkpt>
      <trkpt lat="43.63594" lon="6.64274">
        <ele>414.9</ele>
        <time>2023-11-26T14:45:55Z</time>
      </trkpt>
      <trkpt lat="43.63593" lon="6.64275">
        <ele>414.9</ele>
        <time>2023-11-26T14:45:56Z</time>
      </trkpt>
      <trkpt lat="43.63591" lon="6.64276">
        <ele>414.9</ele>
        <time>2023-11-26T14:45:57Z</time>
      </trkpt>
      <trkpt lat="43.63592" lon="6.64276">
        <ele>414.8</ele>
        <time>2023-11-26T14:45:58Z</time>
      </trkpt>
      <trkpt lat="43.63594" lon="6.64276">
        <ele>414.8</ele>
        <time>2023-11-26T14:45:59Z</time>
      </trkpt>
      <trkpt lat="43.63595" lon="6.64277">
        <ele>414.7</ele>
        <time>2023-11-26T14:46:00Z</time>
      </trkpt>
      <trkpt lat="43.63595" lon="6.64277">
        <ele>414.7</ele>
        <time>2023-11-26T14:46:01Z</time>
      </trkpt>
      <trkpt lat="43.63594" lon="6.64277">
        <ele>414.7</ele>
        <time>2023-11-26T14:46:02Z</time>
      </trkpt>
      <trkpt lat="43.63594" lon="6.64277">
        <ele>414.7</ele>
        <time>2023-11-26T14:46:03Z</time>
      </trkpt>
      <trkpt lat="43.63594" lon="6.64276">
        <ele>414.7</ele>
        <time>2023-11-26T14:46:04Z</time>
      </trkpt>
      <trkpt lat="43.63594" lon="6.64277">
        <ele>414.8</ele>
        <time>2023-11-26T14:46:05Z</time>
      </trkpt>
      <trkpt lat="43.63596" lon="6.64278">
        <ele>414.8</ele>
        <time>2023-11-26T14:46:06Z</time>
      </trkpt>
      <trkpt lat="43.63597" lon="6.64278">
        <ele>414.7</ele>
        <time>2023-11-26T14:46:07Z</time>
      </trkpt>
      <trkpt lat="43.63598" lon="6.64278">
        <ele>414.7</ele>
        <time>2023-11-26T14:46:08Z</time>
      </trkpt>
      <trkpt lat="43.63598" lon="6.64277">
        <ele>414.7</ele>
        <time>2023-11-26T14:46:09Z</time>
      </trkpt>
      <trkpt lat="43.63599" lon="6.64277">
        <ele>414.7</ele>
        <time>2023-11-26T14:46:10Z</time>
      </trkpt>
      <trkpt lat="43.63599" lon="6.64277">
        <ele>414.7</ele>
        <time>2023-11-26T14:46:11Z</time>
      </trkpt>
      <trkpt lat="43.636" lon="6.64276">
        <ele>414.7</ele>
        <time>2023-11-26T14:46:12Z</time>
      </trkpt>
      <trkpt lat="43.636" lon="6.64275">
        <ele>414.7</ele>
        <time>2023-11-26T14:46:13Z</time>
      </trkpt>
      <trkpt lat="43.63601" lon="6.64274">
        <ele>414.8</ele>
        <time>2023-11-26T14:46:14Z</time>
      </trkpt>
      <trkpt lat="43.636" lon="6.64275">
        <ele>414.9</ele>
        <time>2023-11-26T14:46:15Z</time>
      </trkpt>
      <trkpt lat="43.63597" lon="6.64274">
        <ele>415</ele>
        <time>2023-11-26T14:46:16Z</time>
      </trkpt>
      <trkpt lat="43.63593" lon="6.64272">
        <ele>415.1</ele>
        <time>2023-11-26T14:46:17Z</time>
      </trkpt>
      <trkpt lat="43.63593" lon="6.6427">
        <ele>415.2</ele>
        <time>2023-11-26T14:46:18Z</time>
      </trkpt>
      <trkpt lat="43.63593" lon="6.64269">
        <ele>415.2</ele>
        <time>2023-11-26T14:46:19Z</time>
      </trkpt>
      <trkpt lat="43.63592" lon="6.64268">
        <ele>415.2</ele>
        <time>2023-11-26T14:46:20Z</time>
      </trkpt>
      <trkpt lat="43.63592" lon="6.64268">
        <ele>415.3</ele>
        <time>2023-11-26T14:46:21Z</time>
      </trkpt>
      <trkpt lat="43.63591" lon="6.64267">
        <ele>415.3</ele>
        <time>2023-11-26T14:46:22Z</time>
      </trkpt>
      <trkpt lat="43.6359" lon="6.64267">
        <ele>415.3</ele>
        <time>2023-11-26T14:46:23Z</time>
      </trkpt>
      <trkpt lat="43.63589" lon="6.64266">
        <ele>415.3</ele>
        <time>2023-11-26T14:46:24Z</time>
      </trkpt>
      <trkpt lat="43.63588" lon="6.64267">
        <ele>415.3</ele>
        <time>2023-11-26T14:46:25Z</time>
      </trkpt>
      <trkpt lat="43.63587" lon="6.64266">
        <ele>415.3</ele>
        <time>2023-11-26T14:46:26Z</time>
      </trkpt>
      <trkpt lat="43.63588" lon="6.64265">
        <ele>415.3</ele>
        <time>2023-11-26T14:46:27Z</time>
      </trkpt>
      <trkpt lat="43.63586" lon="6.64265">
        <ele>415.2</ele>
        <time>2023-11-26T14:46:28Z</time>
      </trkpt>
      <trkpt lat="43.63585" lon="6.64264">
        <ele>415.2</ele>
        <time>2023-11-26T14:46:29Z</time>
      </trkpt>
      <trkpt lat="43.63585" lon="6.64264">
        <ele>415.2</ele>
        <time>2023-11-26T14:46:30Z</time>
      </trkpt>
      <trkpt lat="43.63586" lon="6.64264">
        <ele>415.2</ele>
        <time>2023-11-26T14:46:31Z</time>
      </trkpt>
      <trkpt lat="43.63586" lon="6.64264">
        <ele>415.2</ele>
        <time>2023-11-26T14:46:32Z</time>
      </trkpt>
      <trkpt lat="43.63586" lon="6.64264">
        <ele>415.3</ele>
        <time>2023-11-26T14:46:33Z</time>
      </trkpt>
      <trkpt lat="43.63587" lon="6.64264">
        <ele>415.3</ele>
        <time>2023-11-26T14:46:34Z</time>
      </trkpt>
      <trkpt lat="43.63587" lon="6.64264">
        <ele>415.4</ele>
        <time>2023-11-26T14:46:35Z</time>
      </trkpt>
      <trkpt lat="43.63587" lon="6.64264">
        <ele>415.4</ele>
        <time>2023-11-26T14:46:36Z</time>
      </trkpt>
      <trkpt lat="43.63588" lon="6.64265">
        <ele>415.5</ele>
        <time>2023-11-26T14:46:37Z</time>
      </trkpt>
      <trkpt lat="43.63588" lon="6.64265">
        <ele>415.5</ele>
        <time>2023-11-26T14:46:38Z</time>
      </trkpt>
      <trkpt lat="43.63589" lon="6.64267">
        <ele>415.6</ele>
        <time>2023-11-26T14:46:39Z</time>
      </trkpt>
      <trkpt lat="43.63589" lon="6.64268">
        <ele>415.7</ele>
        <time>2023-11-26T14:46:40Z</time>
      </trkpt>
      <trkpt lat="43.63589" lon="6.64269">
        <ele>415.8</ele>
        <time>2023-11-26T14:46:41Z</time>
      </trkpt>
      <trkpt lat="43.63589" lon="6.64269">
        <ele>415.9</ele>
        <time>2023-11-26T14:46:42Z</time>
      </trkpt>
      <trkpt lat="43.63589" lon="6.64269">
        <ele>416</ele>
        <time>2023-11-26T14:46:43Z</time>
      </trkpt>
      <trkpt lat="43.63589" lon="6.64269">
        <ele>416.1</ele>
        <time>2023-11-26T14:46:44Z</time>
      </trkpt>
      <trkpt lat="43.63589" lon="6.6427">
        <ele>416.1</ele>
        <time>2023-11-26T14:46:45Z</time>
      </trkpt>
      <trkpt lat="43.63589" lon="6.64271">
        <ele>416.2</ele>
        <time>2023-11-26T14:46:46Z</time>
      </trkpt>
      <trkpt lat="43.63589" lon="6.64272">
        <ele>416.3</ele>
        <time>2023-11-26T14:46:47Z</time>
      </trkpt>
      <trkpt lat="43.63589" lon="6.64272">
        <ele>416.4</ele>
        <time>2023-11-26T14:46:48Z</time>
      </trkpt>
      <trkpt lat="43.63589" lon="6.64273">
        <ele>416.4</ele>
        <time>2023-11-26T14:46:49Z</time>
      </trkpt>
      <trkpt lat="43.63589" lon="6.64274">
        <ele>416.5</ele>
        <time>2023-11-26T14:46:50Z</time>
      </trkpt>
      <trkpt lat="43.63589" lon="6.64274">
        <ele>416.5</ele>
        <time>2023-11-26T14:46:51Z</time>
      </trkpt>
      <trkpt lat="43.63589" lon="6.64275">
        <ele>416.6</ele>
        <time>2023-11-26T14:46:52Z</time>
      </trkpt>
      <trkpt lat="43.63589" lon="6.64275">
        <ele>416.6</ele>
        <time>2023-11-26T14:46:53Z</time>
      </trkpt>
      <trkpt lat="43.63589" lon="6.64274">
        <ele>416.7</ele>
        <time>2023-11-26T14:46:54Z</time>
      </trkpt>
      <trkpt lat="43.63589" lon="6.64274">
        <ele>416.8</ele>
        <time>2023-11-26T14:46:55Z</time>
      </trkpt>
      <trkpt lat="43.63589" lon="6.64274">
        <ele>417</ele>
        <time>2023-11-26T14:46:56Z</time>
      </trkpt>
      <trkpt lat="43.63588" lon="6.64276">
        <ele>417.1</ele>
        <time>2023-11-26T14:46:57Z</time>
      </trkpt>
      <trkpt lat="43.63588" lon="6.64277">
        <ele>417.2</ele>
        <time>2023-11-26T14:46:58Z</time>
      </trkpt>
      <trkpt lat="43.63587" lon="6.64279">
        <ele>417.2</ele>
        <time>2023-11-26T14:46:59Z</time>
      </trkpt>
      <trkpt lat="43.63587" lon="6.64279">
        <ele>417.5</ele>
        <time>2023-11-26T14:47:00Z</time>
      </trkpt>
      <trkpt lat="43.63587" lon="6.64279">
        <ele>417.6</ele>
        <time>2023-11-26T14:47:01Z</time>
      </trkpt>
      <trkpt lat="43.63587" lon="6.6428">
        <ele>417.6</ele>
        <time>2023-11-26T14:47:02Z</time>
      </trkpt>
      <trkpt lat="43.63588" lon="6.64281">
        <ele>417.7</ele>
        <time>2023-11-26T14:47:03Z</time>
      </trkpt>
      <trkpt lat="43.63589" lon="6.64283">
        <ele>417.8</ele>
        <time>2023-11-26T14:47:04Z</time>
      </trkpt>
      <trkpt lat="43.6359" lon="6.64283">
        <ele>417.9</ele>
        <time>2023-11-26T14:47:05Z</time>
      </trkpt>
      <trkpt lat="43.6359" lon="6.64283">
        <ele>418</ele>
        <time>2023-11-26T14:47:06Z</time>
      </trkpt>
      <trkpt lat="43.63591" lon="6.64283">
        <ele>418</ele>
        <time>2023-11-26T14:47:07Z</time>
      </trkpt>
      <trkpt lat="43.63591" lon="6.64284">
        <ele>418.1</ele>
        <time>2023-11-26T14:47:08Z</time>
      </trkpt>
      <trkpt lat="43.63591" lon="6.64284">
        <ele>418.1</ele>
        <time>2023-11-26T14:47:09Z</time>
      </trkpt>
      <trkpt lat="43.63592" lon="6.64284">
        <ele>418.2</ele>
        <time>2023-11-26T14:47:10Z</time>
      </trkpt>
      <trkpt lat="43.63592" lon="6.64285">
        <ele>418.2</ele>
        <time>2023-11-26T14:47:11Z</time>
      </trkpt>
      <trkpt lat="43.63593" lon="6.64286">
        <ele>418.3</ele>
        <time>2023-11-26T14:47:12Z</time>
      </trkpt>
      <trkpt lat="43.63593" lon="6.64286">
        <ele>418.4</ele>
        <time>2023-11-26T14:47:13Z</time>
      </trkpt>
      <trkpt lat="43.63594" lon="6.64287">
        <ele>418.5</ele>
        <time>2023-11-26T14:47:14Z</time>
      </trkpt>
      <trkpt lat="43.63595" lon="6.64286">
        <ele>418.6</ele>
        <time>2023-11-26T14:47:15Z</time>
      </trkpt>
      <trkpt lat="43.63595" lon="6.64285">
        <ele>418.6</ele>
        <time>2023-11-26T14:47:16Z</time>
      </trkpt>
      <trkpt lat="43.63595" lon="6.64286">
        <ele>418.7</ele>
        <time>2023-11-26T14:47:17Z</time>
      </trkpt>
      <trkpt lat="43.63595" lon="6.64287">
        <ele>418.9</ele>
        <time>2023-11-26T14:47:18Z</time>
      </trkpt>
      <trkpt lat="43.63596" lon="6.64288">
        <ele>419</ele>
        <time>2023-11-26T14:47:19Z</time>
      </trkpt>
      <trkpt lat="43.63596" lon="6.64288">
        <ele>419.1</ele>
        <time>2023-11-26T14:47:20Z</time>
      </trkpt>
      <trkpt lat="43.63595" lon="6.64289">
        <ele>419.1</ele>
        <time>2023-11-26T14:47:21Z</time>
      </trkpt>
      <trkpt lat="43.63596" lon="6.6429">
        <ele>419.2</ele>
        <time>2023-11-26T14:47:22Z</time>
      </trkpt>
      <trkpt lat="43.63596" lon="6.64291">
        <ele>419.2</ele>
        <time>2023-11-26T14:47:23Z</time>
      </trkpt>
      <trkpt lat="43.63596" lon="6.64292">
        <ele>419.4</ele>
        <time>2023-11-26T14:47:24Z</time>
      </trkpt>
      <trkpt lat="43.63596" lon="6.64293">
        <ele>419.6</ele>
        <time>2023-11-26T14:47:25Z</time>
      </trkpt>
      <trkpt lat="43.63597" lon="6.64293">
        <ele>419.8</ele>
        <time>2023-11-26T14:47:26Z</time>
      </trkpt>
      <trkpt lat="43.63597" lon="6.64293">
        <ele>419.7</ele>
        <time>2023-11-26T14:47:27Z</time>
      </trkpt>
      <trkpt lat="43.63598" lon="6.64293">
        <ele>419.9</ele>
        <time>2023-11-26T14:47:28Z</time>
      </trkpt>
      <trkpt lat="43.63599" lon="6.64293">
        <ele>419.9</ele>
        <time>2023-11-26T14:47:29Z</time>
      </trkpt>
      <trkpt lat="43.636" lon="6.64294">
        <ele>420.1</ele>
        <time>2023-11-26T14:47:30Z</time>
      </trkpt>
      <trkpt lat="43.636" lon="6.64294">
        <ele>420.2</ele>
        <time>2023-11-26T14:47:31Z</time>
      </trkpt>
      <trkpt lat="43.636" lon="6.64294">
        <ele>420.4</ele>
        <time>2023-11-26T14:47:32Z</time>
      </trkpt>
      <trkpt lat="43.63599" lon="6.64293">
        <ele>420.5</ele>
        <time>2023-11-26T14:47:33Z</time>
      </trkpt>
      <trkpt lat="43.63598" lon="6.64293">
        <ele>420.6</ele>
        <time>2023-11-26T14:47:34Z</time>
      </trkpt>
      <trkpt lat="43.63599" lon="6.64293">
        <ele>420.7</ele>
        <time>2023-11-26T14:47:35Z</time>
      </trkpt>
      <trkpt lat="43.636" lon="6.64294">
        <ele>420.8</ele>
        <time>2023-11-26T14:47:36Z</time>
      </trkpt>
      <trkpt lat="43.636" lon="6.64294">
        <ele>420.8</ele>
        <time>2023-11-26T14:47:37Z</time>
      </trkpt>
      <trkpt lat="43.63599" lon="6.64295">
        <ele>420.9</ele>
        <time>2023-11-26T14:47:38Z</time>
      </trkpt>
      <trkpt lat="43.636" lon="6.64296">
        <ele>420.9</ele>
        <time>2023-11-26T14:47:39Z</time>
      </trkpt>
      <trkpt lat="43.63601" lon="6.64296">
        <ele>421.1</ele>
        <time>2023-11-26T14:47:40Z</time>
      </trkpt>
      <trkpt lat="43.63601" lon="6.64298">
        <ele>421.2</ele>
        <time>2023-11-26T14:47:41Z</time>
      </trkpt>
      <trkpt lat="43.63602" lon="6.643">
        <ele>421.3</ele>
        <time>2023-11-26T14:47:42Z</time>
      </trkpt>
      <trkpt lat="43.63602" lon="6.64301">
        <ele>421.5</ele>
        <time>2023-11-26T14:47:43Z</time>
      </trkpt>
      <trkpt lat="43.63603" lon="6.64302">
        <ele>421.6</ele>
        <time>2023-11-26T14:47:44Z</time>
      </trkpt>
      <trkpt lat="43.63604" lon="6.64303">
        <ele>421.7</ele>
        <time>2023-11-26T14:47:45Z</time>
      </trkpt>
      <trkpt lat="43.63604" lon="6.64304">
        <ele>421.8</ele>
        <time>2023-11-26T14:47:46Z</time>
      </trkpt>
      <trkpt lat="43.63605" lon="6.64305">
        <ele>421.9</ele>
        <time>2023-11-26T14:47:47Z</time>
      </trkpt>
      <trkpt lat="43.63605" lon="6.64306">
        <ele>422</ele>
        <time>2023-11-26T14:47:48Z</time>
      </trkpt>
      <trkpt lat="43.63606" lon="6.64307">
        <ele>422</ele>
        <time>2023-11-26T14:47:49Z</time>
      </trkpt>
      <trkpt lat="43.63606" lon="6.64307">
        <ele>422</ele>
        <time>2023-11-26T14:47:50Z</time>
      </trkpt>
      <trkpt lat="43.63606" lon="6.64307">
        <ele>422.1</ele>
        <time>2023-11-26T14:47:51Z</time>
      </trkpt>
      <trkpt lat="43.63607" lon="6.64308">
        <ele>422.1</ele>
        <time>2023-11-26T14:47:52Z</time>
      </trkpt>
      <trkpt lat="43.63607" lon="6.64309">
        <ele>422.1</ele>
        <time>2023-11-26T14:47:53Z</time>
      </trkpt>
      <trkpt lat="43.63608" lon="6.6431">
        <ele>422.3</ele>
        <time>2023-11-26T14:47:54Z</time>
      </trkpt>
      <trkpt lat="43.63608" lon="6.6431">
        <ele>422.4</ele>
        <time>2023-11-26T14:47:55Z</time>
      </trkpt>
      <trkpt lat="43.63608" lon="6.6431">
        <ele>422.5</ele>
        <time>2023-11-26T14:47:56Z</time>
      </trkpt>
      <trkpt lat="43.63607" lon="6.64311">
        <ele>422.7</ele>
        <time>2023-11-26T14:47:57Z</time>
      </trkpt>
      <trkpt lat="43.63608" lon="6.64312">
        <ele>422.9</ele>
        <time>2023-11-26T14:47:58Z</time>
      </trkpt>
      <trkpt lat="43.63609" lon="6.64312">
        <ele>423.1</ele>
        <time>2023-11-26T14:47:59Z</time>
      </trkpt>
      <trkpt lat="43.63609" lon="6.64312">
        <ele>423.1</ele>
        <time>2023-11-26T14:48:00Z</time>
      </trkpt>
      <trkpt lat="43.6361" lon="6.64313">
        <ele>423.2</ele>
        <time>2023-11-26T14:48:01Z</time>
      </trkpt>
      <trkpt lat="43.6361" lon="6.64313">
        <ele>423.3</ele>
        <time>2023-11-26T14:48:02Z</time>
      </trkpt>
      <trkpt lat="43.6361" lon="6.64313">
        <ele>423.3</ele>
        <time>2023-11-26T14:48:03Z</time>
      </trkpt>
      <trkpt lat="43.63611" lon="6.64312">
        <ele>423.3</ele>
        <time>2023-11-26T14:48:04Z</time>
      </trkpt>
      <trkpt lat="43.63611" lon="6.64312">
        <ele>423.4</ele>
        <time>2023-11-26T14:48:05Z</time>
      </trkpt>
      <trkpt lat="43.63612" lon="6.64312">
        <ele>423.3</ele>
        <time>2023-11-26T14:48:06Z</time>
      </trkpt>
      <trkpt lat="43.63612" lon="6.64312">
        <ele>423.3</ele>
        <time>2023-11-26T14:48:07Z</time>
      </trkpt>
      <trkpt lat="43.63612" lon="6.64312">
        <ele>423.4</ele>
        <time>2023-11-26T14:48:08Z</time>
      </trkpt>
      <trkpt lat="43.63613" lon="6.64313">
        <ele>423.4</ele>
        <time>2023-11-26T14:48:09Z</time>
      </trkpt>
      <trkpt lat="43.63612" lon="6.64314">
        <ele>423.4</ele>
        <time>2023-11-26T14:48:10Z</time>
      </trkpt>
      <trkpt lat="43.63613" lon="6.64314">
        <ele>423.3</ele>
        <time>2023-11-26T14:48:11Z</time>
      </trkpt>
      <trkpt lat="43.63613" lon="6.64315">
        <ele>423.4</ele>
        <time>2023-11-26T14:48:12Z</time>
      </trkpt>
      <trkpt lat="43.63613" lon="6.64315">
        <ele>423.4</ele>
        <time>2023-11-26T14:48:13Z</time>
      </trkpt>
      <trkpt lat="43.63612" lon="6.64315">
        <ele>423.5</ele>
        <time>2023-11-26T14:48:14Z</time>
      </trkpt>
      <trkpt lat="43.63611" lon="6.64316">
        <ele>423.7</ele>
        <time>2023-11-26T14:48:15Z</time>
      </trkpt>
      <trkpt lat="43.63612" lon="6.64316">
        <ele>423.7</ele>
        <time>2023-11-26T14:48:16Z</time>
      </trkpt>
      <trkpt lat="43.63612" lon="6.64317">
        <ele>423.8</ele>
        <time>2023-11-26T14:48:17Z</time>
      </trkpt>
      <trkpt lat="43.63612" lon="6.64318">
        <ele>423.9</ele>
        <time>2023-11-26T14:48:18Z</time>
      </trkpt>
      <trkpt lat="43.63613" lon="6.64318">
        <ele>423.9</ele>
        <time>2023-11-26T14:48:19Z</time>
      </trkpt>
      <trkpt lat="43.63613" lon="6.64318">
        <ele>424</ele>
        <time>2023-11-26T14:48:20Z</time>
      </trkpt>
      <trkpt lat="43.63613" lon="6.64318">
        <ele>424.1</ele>
        <time>2023-11-26T14:48:21Z</time>
      </trkpt>
      <trkpt lat="43.63613" lon="6.64319">
        <ele>424.1</ele>
        <time>2023-11-26T14:48:22Z</time>
      </trkpt>
      <trkpt lat="43.63614" lon="6.6432">
        <ele>424.3</ele>
        <time>2023-11-26T14:48:23Z</time>
      </trkpt>
      <trkpt lat="43.63614" lon="6.6432">
        <ele>424.4</ele>
        <time>2023-11-26T14:48:24Z</time>
      </trkpt>
      <trkpt lat="43.63616" lon="6.64321">
        <ele>424.5</ele>
        <time>2023-11-26T14:48:25Z</time>
      </trkpt>
      <trkpt lat="43.63616" lon="6.64322">
        <ele>424.6</ele>
        <time>2023-11-26T14:48:26Z</time>
      </trkpt>
      <trkpt lat="43.63617" lon="6.64323">
        <ele>424.7</ele>
        <time>2023-11-26T14:48:27Z</time>
      </trkpt>
      <trkpt lat="43.63619" lon="6.64323">
        <ele>424.8</ele>
        <time>2023-11-26T14:48:28Z</time>
      </trkpt>
      <trkpt lat="43.63619" lon="6.6432">
        <ele>425</ele>
        <time>2023-11-26T14:48:29Z</time>
      </trkpt>
      <trkpt lat="43.63619" lon="6.6432">
        <ele>425.1</ele>
        <time>2023-11-26T14:48:30Z</time>
      </trkpt>
      <trkpt lat="43.63618" lon="6.64321">
        <ele>425.2</ele>
        <time>2023-11-26T14:48:31Z</time>
      </trkpt>
      <trkpt lat="43.63617" lon="6.64321">
        <ele>425.2</ele>
        <time>2023-11-26T14:48:32Z</time>
      </trkpt>
      <trkpt lat="43.63617" lon="6.64322">
        <ele>425.3</ele>
        <time>2023-11-26T14:48:33Z</time>
      </trkpt>
      <trkpt lat="43.63617" lon="6.64323">
        <ele>425.3</ele>
        <time>2023-11-26T14:48:34Z</time>
      </trkpt>
      <trkpt lat="43.63617" lon="6.64323">
        <ele>425.3</ele>
        <time>2023-11-26T14:48:35Z</time>
      </trkpt>
      <trkpt lat="43.63618" lon="6.64323">
        <ele>425.4</ele>
        <time>2023-11-26T14:48:36Z</time>
      </trkpt>
      <trkpt lat="43.63618" lon="6.64323">
        <ele>425.4</ele>
        <time>2023-11-26T14:48:37Z</time>
      </trkpt>
      <trkpt lat="43.63618" lon="6.64323">
        <ele>425.4</ele>
        <time>2023-11-26T14:48:38Z</time>
      </trkpt>
      <trkpt lat="43.63618" lon="6.64323">
        <ele>425.4</ele>
        <time>2023-11-26T14:48:39Z</time>
      </trkpt>
      <trkpt lat="43.63618" lon="6.64323">
        <ele>425.4</ele>
        <time>2023-11-26T14:48:40Z</time>
      </trkpt>
      <trkpt lat="43.63619" lon="6.64323">
        <ele>425.4</ele>
        <time>2023-11-26T14:48:41Z</time>
      </trkpt>
      <trkpt lat="43.63619" lon="6.64323">
        <ele>425.4</ele>
        <time>2023-11-26T14:48:42Z</time>
      </trkpt>
      <trkpt lat="43.63618" lon="6.64323">
        <ele>425.4</ele>
        <time>2023-11-26T14:48:43Z</time>
      </trkpt>
      <trkpt lat="43.63619" lon="6.64322">
        <ele>425.4</ele>
        <time>2023-11-26T14:48:44Z</time>
      </trkpt>
      <trkpt lat="43.6362" lon="6.64321">
        <ele>425.4</ele>
        <time>2023-11-26T14:48:45Z</time>
      </trkpt>
      <trkpt lat="43.6362" lon="6.64321">
        <ele>425.3</ele>
        <time>2023-11-26T14:48:46Z</time>
      </trkpt>
      <trkpt lat="43.63621" lon="6.64321">
        <ele>425.3</ele>
        <time>2023-11-26T14:48:47Z</time>
      </trkpt>
      <trkpt lat="43.63621" lon="6.64321">
        <ele>425.3</ele>
        <time>2023-11-26T14:48:48Z</time>
      </trkpt>
      <trkpt lat="43.63621" lon="6.64321">
        <ele>425.2</ele>
        <time>2023-11-26T14:48:49Z</time>
      </trkpt>
      <trkpt lat="43.63621" lon="6.64321">
        <ele>425.3</ele>
        <time>2023-11-26T14:48:50Z</time>
      </trkpt>
      <trkpt lat="43.63621" lon="6.6432">
        <ele>425.4</ele>
        <time>2023-11-26T14:48:51Z</time>
      </trkpt>
      <trkpt lat="43.6362" lon="6.6432">
        <ele>425.4</ele>
        <time>2023-11-26T14:48:52Z</time>
      </trkpt>
      <trkpt lat="43.6362" lon="6.6432">
        <ele>425.5</ele>
        <time>2023-11-26T14:48:53Z</time>
      </trkpt>
      <trkpt lat="43.63621" lon="6.64319">
        <ele>425.5</ele>
        <time>2023-11-26T14:48:54Z</time>
      </trkpt>
      <trkpt lat="43.63621" lon="6.64319">
        <ele>425.5</ele>
        <time>2023-11-26T14:48:55Z</time>
      </trkpt>
      <trkpt lat="43.63622" lon="6.64319">
        <ele>425.4</ele>
        <time>2023-11-26T14:48:56Z</time>
      </trkpt>
      <trkpt lat="43.63622" lon="6.64319">
        <ele>425.4</ele>
        <time>2023-11-26T14:48:57Z</time>
      </trkpt>
      <trkpt lat="43.63623" lon="6.64319">
        <ele>425.5</ele>
        <time>2023-11-26T14:48:58Z</time>
      </trkpt>
      <trkpt lat="43.63623" lon="6.64318">
        <ele>425.5</ele>
        <time>2023-11-26T14:48:59Z</time>
      </trkpt>
      <trkpt lat="43.63623" lon="6.64318">
        <ele>425.5</ele>
        <time>2023-11-26T14:49:00Z</time>
      </trkpt>
      <trkpt lat="43.63623" lon="6.64317">
        <ele>425.5</ele>
        <time>2023-11-26T14:49:01Z</time>
      </trkpt>
      <trkpt lat="43.63622" lon="6.64317">
        <ele>425.5</ele>
        <time>2023-11-26T14:49:02Z</time>
      </trkpt>
      <trkpt lat="43.63622" lon="6.64317">
        <ele>425.5</ele>
        <time>2023-11-26T14:49:03Z</time>
      </trkpt>
      <trkpt lat="43.63622" lon="6.64317">
        <ele>425.5</ele>
        <time>2023-11-26T14:49:04Z</time>
      </trkpt>
      <trkpt lat="43.63622" lon="6.64318">
        <ele>425.5</ele>
        <time>2023-11-26T14:49:05Z</time>
      </trkpt>
      <trkpt lat="43.63621" lon="6.64318">
        <ele>425.5</ele>
        <time>2023-11-26T14:49:06Z</time>
      </trkpt>
      <trkpt lat="43.63621" lon="6.64317">
        <ele>425.6</ele>
        <time>2023-11-26T14:49:07Z</time>
      </trkpt>
      <trkpt lat="43.63621" lon="6.64318">
        <ele>425.6</ele>
        <time>2023-11-26T14:49:08Z</time>
      </trkpt>
      <trkpt lat="43.6362" lon="6.64318">
        <ele>425.6</ele>
        <time>2023-11-26T14:49:09Z</time>
      </trkpt>
      <trkpt lat="43.6362" lon="6.64319">
        <ele>425.6</ele>
        <time>2023-11-26T14:49:10Z</time>
      </trkpt>
      <trkpt lat="43.63619" lon="6.6432">
        <ele>425.6</ele>
        <time>2023-11-26T14:49:11Z</time>
      </trkpt>
      <trkpt lat="43.63619" lon="6.64321">
        <ele>425.6</ele>
        <time>2023-11-26T14:49:12Z</time>
      </trkpt>
      <trkpt lat="43.63619" lon="6.64321">
        <ele>425.6</ele>
        <time>2023-11-26T14:49:13Z</time>
      </trkpt>
      <trkpt lat="43.63619" lon="6.64321">
        <ele>425.6</ele>
        <time>2023-11-26T14:49:14Z</time>
      </trkpt>
      <trkpt lat="43.63618" lon="6.64322">
        <ele>425.6</ele>
        <time>2023-11-26T14:49:15Z</time>
      </trkpt>
      <trkpt lat="43.63617" lon="6.64322">
        <ele>425.6</ele>
        <time>2023-11-26T14:49:16Z</time>
      </trkpt>
      <trkpt lat="43.63617" lon="6.64322">
        <ele>425.6</ele>
        <time>2023-11-26T14:49:17Z</time>
      </trkpt>
      <trkpt lat="43.63616" lon="6.64321">
        <ele>425.6</ele>
        <time>2023-11-26T14:49:18Z</time>
      </trkpt>
      <trkpt lat="43.63616" lon="6.64321">
        <ele>425.6</ele>
        <time>2023-11-26T14:49:19Z</time>
      </trkpt>
      <trkpt lat="43.63616" lon="6.64321">
        <ele>425.6</ele>
        <time>2023-11-26T14:49:20Z</time>
      </trkpt>
      <trkpt lat="43.63616" lon="6.64321">
        <ele>425.6</ele>
        <time>2023-11-26T14:49:21Z</time>
      </trkpt>
      <trkpt lat="43.63616" lon="6.6432">
        <ele>425.6</ele>
        <time>2023-11-26T14:49:22Z</time>
      </trkpt>
      <trkpt lat="43.63616" lon="6.6432">
        <ele>425.6</ele>
        <time>2023-11-26T14:49:23Z</time>
      </trkpt>
      <trkpt lat="43.63615" lon="6.64318">
        <ele>425.7</ele>
        <time>2023-11-26T14:49:24Z</time>
      </trkpt>
      <trkpt lat="43.63614" lon="6.64317">
        <ele>425.7</ele>
        <time>2023-11-26T14:49:25Z</time>
      </trkpt>
      <trkpt lat="43.63614" lon="6.64316">
        <ele>425.7</ele>
        <time>2023-11-26T14:49:26Z</time>
      </trkpt>
      <trkpt lat="43.63614" lon="6.64315">
        <ele>425.7</ele>
        <time>2023-11-26T14:49:27Z</time>
      </trkpt>
      <trkpt lat="43.63614" lon="6.64314">
        <ele>425.7</ele>
        <time>2023-11-26T14:49:28Z</time>
      </trkpt>
      <trkpt lat="43.63614" lon="6.64313">
        <ele>425.7</ele>
        <time>2023-11-26T14:49:29Z</time>
      </trkpt>
      <trkpt lat="43.63614" lon="6.64312">
        <ele>425.8</ele>
        <time>2023-11-26T14:49:30Z</time>
      </trkpt>
      <trkpt lat="43.63614" lon="6.64312">
        <ele>425.8</ele>
        <time>2023-11-26T14:49:31Z</time>
      </trkpt>
      <trkpt lat="43.63614" lon="6.64312">
        <ele>425.7</ele>
        <time>2023-11-26T14:49:32Z</time>
      </trkpt>
      <trkpt lat="43.63612" lon="6.64312">
        <ele>425.7</ele>
        <time>2023-11-26T14:49:33Z</time>
      </trkpt>
      <trkpt lat="43.63612" lon="6.64312">
        <ele>425.7</ele>
        <time>2023-11-26T14:49:34Z</time>
      </trkpt>
      <trkpt lat="43.63611" lon="6.64312">
        <ele>425.7</ele>
        <time>2023-11-26T14:49:35Z</time>
      </trkpt>
      <trkpt lat="43.6361" lon="6.64311">
        <ele>425.7</ele>
        <time>2023-11-26T14:49:36Z</time>
      </trkpt>
      <trkpt lat="43.63611" lon="6.64311">
        <ele>425.6</ele>
        <time>2023-11-26T14:49:37Z</time>
      </trkpt>
      <trkpt lat="43.63611" lon="6.64312">
        <ele>425.6</ele>
        <time>2023-11-26T14:49:38Z</time>
      </trkpt>
      <trkpt lat="43.6361" lon="6.64312">
        <ele>425.6</ele>
        <time>2023-11-26T14:49:39Z</time>
      </trkpt>
      <trkpt lat="43.63611" lon="6.64312">
        <ele>425.6</ele>
        <time>2023-11-26T14:49:40Z</time>
      </trkpt>
      <trkpt lat="43.63611" lon="6.64312">
        <ele>425.6</ele>
        <time>2023-11-26T14:49:41Z</time>
      </trkpt>
      <trkpt lat="43.63611" lon="6.64313">
        <ele>425.6</ele>
        <time>2023-11-26T14:49:42Z</time>
      </trkpt>
      <trkpt lat="43.63611" lon="6.64315">
        <ele>425.7</ele>
        <time>2023-11-26T14:49:43Z</time>
      </trkpt>
      <trkpt lat="43.63611" lon="6.64315">
        <ele>425.7</ele>
        <time>2023-11-26T14:49:44Z</time>
      </trkpt>
      <trkpt lat="43.63611" lon="6.64316">
        <ele>425.7</ele>
        <time>2023-11-26T14:49:45Z</time>
      </trkpt>
      <trkpt lat="43.63612" lon="6.64316">
        <ele>425.7</ele>
        <time>2023-11-26T14:49:46Z</time>
      </trkpt>
      <trkpt lat="43.63612" lon="6.64316">
        <ele>425.7</ele>
        <time>2023-11-26T14:49:47Z</time>
      </trkpt>
      <trkpt lat="43.63612" lon="6.64317">
        <ele>425.7</ele>
        <time>2023-11-26T14:49:48Z</time>
      </trkpt>
      <trkpt lat="43.63613" lon="6.64317">
        <ele>425.7</ele>
        <time>2023-11-26T14:49:49Z</time>
      </trkpt>
      <trkpt lat="43.63612" lon="6.64319">
        <ele>425.7</ele>
        <time>2023-11-26T14:49:50Z</time>
      </trkpt>
      <trkpt lat="43.63612" lon="6.64319">
        <ele>425.7</ele>
        <time>2023-11-26T14:49:51Z</time>
      </trkpt>
      <trkpt lat="43.63612" lon="6.6432">
        <ele>425.7</ele>
        <time>2023-11-26T14:49:52Z</time>
      </trkpt>
      <trkpt lat="43.63613" lon="6.6432">
        <ele>425.7</ele>
        <time>2023-11-26T14:49:53Z</time>
      </trkpt>
      <trkpt lat="43.63613" lon="6.64319">
        <ele>425.7</ele>
        <time>2023-11-26T14:49:54Z</time>
      </trkpt>
      <trkpt lat="43.63613" lon="6.6432">
        <ele>425.8</ele>
        <time>2023-11-26T14:49:55Z</time>
      </trkpt>
      <trkpt lat="43.63614" lon="6.64321">
        <ele>425.8</ele>
        <time>2023-11-26T14:49:56Z</time>
      </trkpt>
      <trkpt lat="43.63614" lon="6.64322">
        <ele>425.8</ele>
        <time>2023-11-26T14:49:57Z</time>
      </trkpt>
      <trkpt lat="43.63615" lon="6.64321">
        <ele>425.7</ele>
        <time>2023-11-26T14:49:58Z</time>
      </trkpt>
      <trkpt lat="43.63615" lon="6.64321">
        <ele>425.7</ele>
        <time>2023-11-26T14:49:59Z</time>
      </trkpt>
      <trkpt lat="43.63615" lon="6.64321">
        <ele>425.7</ele>
        <time>2023-11-26T14:50:00Z</time>
      </trkpt>
      <trkpt lat="43.63616" lon="6.64322">
        <ele>425.7</ele>
        <time>2023-11-26T14:50:01Z</time>
      </trkpt>
      <trkpt lat="43.63615" lon="6.64322">
        <ele>425.6</ele>
        <time>2023-11-26T14:50:02Z</time>
      </trkpt>
      <trkpt lat="43.63615" lon="6.64323">
        <ele>425.6</ele>
        <time>2023-11-26T14:50:03Z</time>
      </trkpt>
      <trkpt lat="43.63615" lon="6.64324">
        <ele>425.5</ele>
        <time>2023-11-26T14:50:04Z</time>
      </trkpt>
      <trkpt lat="43.63615" lon="6.64326">
        <ele>425.5</ele>
        <time>2023-11-26T14:50:05Z</time>
      </trkpt>
      <trkpt lat="43.63614" lon="6.64327">
        <ele>425.6</ele>
        <time>2023-11-26T14:50:06Z</time>
      </trkpt>
      <trkpt lat="43.63615" lon="6.64328">
        <ele>425.5</ele>
        <time>2023-11-26T14:50:07Z</time>
      </trkpt>
      <trkpt lat="43.63616" lon="6.64327">
        <ele>425.4</ele>
        <time>2023-11-26T14:50:08Z</time>
      </trkpt>
      <trkpt lat="43.63616" lon="6.64326">
        <ele>425.5</ele>
        <time>2023-11-26T14:50:09Z</time>
      </trkpt>
      <trkpt lat="43.63618" lon="6.64326">
        <ele>425.6</ele>
        <time>2023-11-26T14:50:10Z</time>
      </trkpt>
      <trkpt lat="43.63619" lon="6.64326">
        <ele>425.4</ele>
        <time>2023-11-26T14:50:11Z</time>
      </trkpt>
      <trkpt lat="43.63619" lon="6.64324">
        <ele>425.3</ele>
        <time>2023-11-26T14:50:12Z</time>
      </trkpt>
      <trkpt lat="43.6362" lon="6.64323">
        <ele>425.2</ele>
        <time>2023-11-26T14:50:13Z</time>
      </trkpt>
      <trkpt lat="43.63622" lon="6.64323">
        <ele>425.2</ele>
        <time>2023-11-26T14:50:14Z</time>
      </trkpt>
      <trkpt lat="43.63622" lon="6.64323">
        <ele>425.2</ele>
        <time>2023-11-26T14:50:15Z</time>
      </trkpt>
      <trkpt lat="43.63622" lon="6.64322">
        <ele>425.3</ele>
        <time>2023-11-26T14:50:16Z</time>
      </trkpt>
      <trkpt lat="43.63623" lon="6.64322">
        <ele>425.3</ele>
        <time>2023-11-26T14:50:17Z</time>
      </trkpt>
      <trkpt lat="43.63623" lon="6.64322">
        <ele>425.4</ele>
        <time>2023-11-26T14:50:18Z</time>
      </trkpt>
      <trkpt lat="43.63623" lon="6.64321">
        <ele>425.4</ele>
        <time>2023-11-26T14:50:19Z</time>
      </trkpt>
      <trkpt lat="43.63623" lon="6.6432">
        <ele>425.4</ele>
        <time>2023-11-26T14:50:20Z</time>
      </trkpt>
      <trkpt lat="43.63623" lon="6.64319">
        <ele>425.4</ele>
        <time>2023-11-26T14:50:21Z</time>
      </trkpt>
      <trkpt lat="43.63624" lon="6.64319">
        <ele>425.5</ele>
        <time>2023-11-26T14:50:22Z</time>
      </trkpt>
      <trkpt lat="43.63624" lon="6.64319">
        <ele>425.5</ele>
        <time>2023-11-26T14:50:23Z</time>
      </trkpt>
      <trkpt lat="43.63624" lon="6.6432">
        <ele>425.5</ele>
        <time>2023-11-26T14:50:24Z</time>
      </trkpt>
      <trkpt lat="43.63625" lon="6.64319">
        <ele>425.6</ele>
        <time>2023-11-26T14:50:25Z</time>
      </trkpt>
      <trkpt lat="43.63626" lon="6.6432">
        <ele>425.5</ele>
        <time>2023-11-26T14:50:26Z</time>
      </trkpt>
      <trkpt lat="43.63627" lon="6.64317">
        <ele>425.5</ele>
        <time>2023-11-26T14:50:27Z</time>
      </trkpt>
      <trkpt lat="43.63628" lon="6.64316">
        <ele>425.4</ele>
        <time>2023-11-26T14:50:28Z</time>
      </trkpt>
      <trkpt lat="43.63628" lon="6.64316">
        <ele>425.3</ele>
        <time>2023-11-26T14:50:29Z</time>
      </trkpt>
      <trkpt lat="43.63628" lon="6.64316">
        <ele>425.3</ele>
        <time>2023-11-26T14:50:30Z</time>
      </trkpt>
      <trkpt lat="43.6363" lon="6.64313">
        <ele>425.3</ele>
        <time>2023-11-26T14:50:31Z</time>
      </trkpt>
      <trkpt lat="43.63632" lon="6.64312">
        <ele>425.3</ele>
        <time>2023-11-26T14:50:32Z</time>
      </trkpt>
      <trkpt lat="43.63632" lon="6.64314">
        <ele>425.3</ele>
        <time>2023-11-26T14:50:33Z</time>
      </trkpt>
      <trkpt lat="43.63633" lon="6.64314">
        <ele>425.3</ele>
        <time>2023-11-26T14:50:34Z</time>
      </trkpt>
      <trkpt lat="43.63634" lon="6.64313">
        <ele>425.3</ele>
        <time>2023-11-26T14:50:35Z</time>
      </trkpt>
      <trkpt lat="43.63635" lon="6.64312">
        <ele>425.2</ele>
        <time>2023-11-26T14:50:36Z</time>
      </trkpt>
      <trkpt lat="43.63636" lon="6.64311">
        <ele>425.2</ele>
        <time>2023-11-26T14:50:37Z</time>
      </trkpt>
      <trkpt lat="43.63636" lon="6.64311">
        <ele>425.3</ele>
        <time>2023-11-26T14:50:38Z</time>
      </trkpt>
      <trkpt lat="43.63638" lon="6.6431">
        <ele>425.4</ele>
        <time>2023-11-26T14:50:39Z</time>
      </trkpt>
      <trkpt lat="43.63638" lon="6.6431">
        <ele>425.5</ele>
        <time>2023-11-26T14:50:40Z</time>
      </trkpt>
      <trkpt lat="43.63638" lon="6.64311">
        <ele>425.6</ele>
        <time>2023-11-26T14:50:41Z</time>
      </trkpt>
      <trkpt lat="43.63639" lon="6.64311">
        <ele>425.6</ele>
        <time>2023-11-26T14:50:42Z</time>
      </trkpt>
      <trkpt lat="43.6364" lon="6.64312">
        <ele>425.7</ele>
        <time>2023-11-26T14:50:43Z</time>
      </trkpt>
      <trkpt lat="43.6364" lon="6.64312">
        <ele>425.8</ele>
        <time>2023-11-26T14:50:44Z</time>
      </trkpt>
      <trkpt lat="43.6364" lon="6.64312">
        <ele>425.8</ele>
        <time>2023-11-26T14:50:45Z</time>
      </trkpt>
      <trkpt lat="43.63641" lon="6.64313">
        <ele>425.8</ele>
        <time>2023-11-26T14:50:46Z</time>
      </trkpt>
      <trkpt lat="43.63641" lon="6.64314">
        <ele>425.8</ele>
        <time>2023-11-26T14:50:47Z</time>
      </trkpt>
      <trkpt lat="43.63641" lon="6.64314">
        <ele>425.8</ele>
        <time>2023-11-26T14:50:48Z</time>
      </trkpt>
      <trkpt lat="43.63642" lon="6.64316">
        <ele>425.8</ele>
        <time>2023-11-26T14:50:49Z</time>
      </trkpt>
      <trkpt lat="43.63642" lon="6.64316">
        <ele>425.7</ele>
        <time>2023-11-26T14:50:50Z</time>
      </trkpt>
      <trkpt lat="43.63643" lon="6.64316">
        <ele>425.6</ele>
        <time>2023-11-26T14:50:51Z</time>
      </trkpt>
      <trkpt lat="43.63644" lon="6.64316">
        <ele>425.6</ele>
        <time>2023-11-26T14:50:52Z</time>
      </trkpt>
      <trkpt lat="43.63644" lon="6.64317">
        <ele>425.6</ele>
        <time>2023-11-26T14:50:53Z</time>
      </trkpt>
      <trkpt lat="43.63644" lon="6.64317">
        <ele>425.7</ele>
        <time>2023-11-26T14:50:54Z</time>
      </trkpt>
      <trkpt lat="43.63644" lon="6.64317">
        <ele>425.7</ele>
        <time>2023-11-26T14:50:55Z</time>
      </trkpt>
      <trkpt lat="43.63643" lon="6.64318">
        <ele>425.8</ele>
        <time>2023-11-26T14:50:56Z</time>
      </trkpt>
      <trkpt lat="43.63643" lon="6.64319">
        <ele>425.8</ele>
        <time>2023-11-26T14:50:57Z</time>
      </trkpt>
      <trkpt lat="43.63642" lon="6.6432">
        <ele>425.8</ele>
        <time>2023-11-26T14:50:58Z</time>
      </trkpt>
      <trkpt lat="43.63642" lon="6.6432">
        <ele>425.8</ele>
        <time>2023-11-26T14:50:59Z</time>
      </trkpt>
      <trkpt lat="43.63641" lon="6.6432">
        <ele>425.8</ele>
        <time>2023-11-26T14:51:00Z</time>
      </trkpt>
      <trkpt lat="43.63641" lon="6.6432">
        <ele>425.8</ele>
        <time>2023-11-26T14:51:01Z</time>
      </trkpt>
      <trkpt lat="43.63641" lon="6.64321">
        <ele>425.9</ele>
        <time>2023-11-26T14:51:02Z</time>
      </trkpt>
      <trkpt lat="43.63642" lon="6.6432">
        <ele>425.9</ele>
        <time>2023-11-26T14:51:03Z</time>
      </trkpt>
      <trkpt lat="43.63642" lon="6.6432">
        <ele>425.9</ele>
        <time>2023-11-26T14:51:04Z</time>
      </trkpt>
      <trkpt lat="43.63641" lon="6.6432">
        <ele>425.9</ele>
        <time>2023-11-26T14:51:05Z</time>
      </trkpt>
      <trkpt lat="43.63642" lon="6.6432">
        <ele>425.7</ele>
        <time>2023-11-26T14:51:06Z</time>
      </trkpt>
      <trkpt lat="43.63643" lon="6.64323">
        <ele>425.7</ele>
        <time>2023-11-26T14:51:07Z</time>
      </trkpt>
      <trkpt lat="43.63645" lon="6.64324">
        <ele>425.6</ele>
        <time>2023-11-26T14:51:08Z</time>
      </trkpt>
      <trkpt lat="43.63645" lon="6.64329">
        <ele>425.5</ele>
        <time>2023-11-26T14:51:09Z</time>
      </trkpt>
      <trkpt lat="43.63644" lon="6.64333">
        <ele>425.3</ele>
        <time>2023-11-26T14:51:10Z</time>
      </trkpt>
      <trkpt lat="43.63646" lon="6.64336">
        <ele>425.1</ele>
        <time>2023-11-26T14:51:11Z</time>
      </trkpt>
      <trkpt lat="43.63647" lon="6.64336">
        <ele>424.8</ele>
        <time>2023-11-26T14:51:12Z</time>
      </trkpt>
      <trkpt lat="43.63648" lon="6.64338">
        <ele>424.7</ele>
        <time>2023-11-26T14:51:13Z</time>
      </trkpt>
      <trkpt lat="43.63648" lon="6.64339">
        <ele>424.6</ele>
        <time>2023-11-26T14:51:14Z</time>
      </trkpt>
      <trkpt lat="43.63647" lon="6.64341">
        <ele>424.4</ele>
        <time>2023-11-26T14:51:15Z</time>
      </trkpt>
      <trkpt lat="43.63647" lon="6.64342">
        <ele>424.1</ele>
        <time>2023-11-26T14:51:16Z</time>
      </trkpt>
      <trkpt lat="43.63647" lon="6.64344">
        <ele>423.8</ele>
        <time>2023-11-26T14:51:17Z</time>
      </trkpt>
      <trkpt lat="43.63646" lon="6.64346">
        <ele>423.6</ele>
        <time>2023-11-26T14:51:18Z</time>
      </trkpt>
      <trkpt lat="43.63647" lon="6.64347">
        <ele>423.3</ele>
        <time>2023-11-26T14:51:19Z</time>
      </trkpt>
      <trkpt lat="43.63647" lon="6.64348">
        <ele>423</ele>
        <time>2023-11-26T14:51:20Z</time>
      </trkpt>
      <trkpt lat="43.63647" lon="6.64349">
        <ele>422.8</ele>
        <time>2023-11-26T14:51:21Z</time>
      </trkpt>
      <trkpt lat="43.63647" lon="6.64349">
        <ele>422.6</ele>
        <time>2023-11-26T14:51:22Z</time>
      </trkpt>
      <trkpt lat="43.63647" lon="6.64349">
        <ele>422.3</ele>
        <time>2023-11-26T14:51:23Z</time>
      </trkpt>
      <trkpt lat="43.63647" lon="6.6435">
        <ele>422</ele>
        <time>2023-11-26T14:51:24Z</time>
      </trkpt>
      <trkpt lat="43.63646" lon="6.6435">
        <ele>421.8</ele>
        <time>2023-11-26T14:51:25Z</time>
      </trkpt>
      <trkpt lat="43.63645" lon="6.6435">
        <ele>421.6</ele>
        <time>2023-11-26T14:51:26Z</time>
      </trkpt>
      <trkpt lat="43.63644" lon="6.64351">
        <ele>421.4</ele>
        <time>2023-11-26T14:51:27Z</time>
      </trkpt>
      <trkpt lat="43.63641" lon="6.64351">
        <ele>421.3</ele>
        <time>2023-11-26T14:51:28Z</time>
      </trkpt>
      <trkpt lat="43.63639" lon="6.64353">
        <ele>421.1</ele>
        <time>2023-11-26T14:51:29Z</time>
      </trkpt>
      <trkpt lat="43.63637" lon="6.64355">
        <ele>420.9</ele>
        <time>2023-11-26T14:51:30Z</time>
      </trkpt>
      <trkpt lat="43.63636" lon="6.64355">
        <ele>420.7</ele>
        <time>2023-11-26T14:51:31Z</time>
      </trkpt>
      <trkpt lat="43.63634" lon="6.64355">
        <ele>420.4</ele>
        <time>2023-11-26T14:51:32Z</time>
      </trkpt>
      <trkpt lat="43.63633" lon="6.64355">
        <ele>420.2</ele>
        <time>2023-11-26T14:51:33Z</time>
      </trkpt>
      <trkpt lat="43.63632" lon="6.64356">
        <ele>419.9</ele>
        <time>2023-11-26T14:51:34Z</time>
      </trkpt>
      <trkpt lat="43.6363" lon="6.64355">
        <ele>419.6</ele>
        <time>2023-11-26T14:51:35Z</time>
      </trkpt>
      <trkpt lat="43.6363" lon="6.64356">
        <ele>419.3</ele>
        <time>2023-11-26T14:51:36Z</time>
      </trkpt>
      <trkpt lat="43.6363" lon="6.64357">
        <ele>419.1</ele>
        <time>2023-11-26T14:51:37Z</time>
      </trkpt>
      <trkpt lat="43.6363" lon="6.64357">
        <ele>418.9</ele>
        <time>2023-11-26T14:51:38Z</time>
      </trkpt>
      <trkpt lat="43.6363" lon="6.64358">
        <ele>418.8</ele>
        <time>2023-11-26T14:51:39Z</time>
      </trkpt>
      <trkpt lat="43.63629" lon="6.64359">
        <ele>418.8</ele>
        <time>2023-11-26T14:51:40Z</time>
      </trkpt>
      <trkpt lat="43.6363" lon="6.64359">
        <ele>418.7</ele>
        <time>2023-11-26T14:51:41Z</time>
      </trkpt>
      <trkpt lat="43.6363" lon="6.64359">
        <ele>418.5</ele>
        <time>2023-11-26T14:51:42Z</time>
      </trkpt>
      <trkpt lat="43.6363" lon="6.64363">
        <ele>418.3</ele>
        <time>2023-11-26T14:51:43Z</time>
      </trkpt>
      <trkpt lat="43.6363" lon="6.64365">
        <ele>418</ele>
        <time>2023-11-26T14:51:44Z</time>
      </trkpt>
      <trkpt lat="43.63631" lon="6.64368">
        <ele>417.8</ele>
        <time>2023-11-26T14:51:45Z</time>
      </trkpt>
      <trkpt lat="43.63631" lon="6.64369">
        <ele>417.6</ele>
        <time>2023-11-26T14:51:46Z</time>
      </trkpt>
      <trkpt lat="43.63631" lon="6.64371">
        <ele>417.4</ele>
        <time>2023-11-26T14:51:47Z</time>
      </trkpt>
      <trkpt lat="43.63632" lon="6.64372">
        <ele>417.1</ele>
        <time>2023-11-26T14:51:48Z</time>
      </trkpt>
      <trkpt lat="43.63632" lon="6.64374">
        <ele>416.8</ele>
        <time>2023-11-26T14:51:49Z</time>
      </trkpt>
      <trkpt lat="43.63632" lon="6.64374">
        <ele>416.6</ele>
        <time>2023-11-26T14:51:50Z</time>
      </trkpt>
      <trkpt lat="43.63633" lon="6.64375">
        <ele>416.4</ele>
        <time>2023-11-26T14:51:51Z</time>
      </trkpt>
      <trkpt lat="43.63634" lon="6.64374">
        <ele>416.3</ele>
        <time>2023-11-26T14:51:52Z</time>
      </trkpt>
      <trkpt lat="43.63635" lon="6.64375">
        <ele>416.1</ele>
        <time>2023-11-26T14:51:53Z</time>
      </trkpt>
      <trkpt lat="43.63635" lon="6.64376">
        <ele>415.8</ele>
        <time>2023-11-26T14:51:54Z</time>
      </trkpt>
      <trkpt lat="43.63634" lon="6.64377">
        <ele>415.6</ele>
        <time>2023-11-26T14:51:55Z</time>
      </trkpt>
      <trkpt lat="43.63635" lon="6.64377">
        <ele>415.3</ele>
        <time>2023-11-26T14:51:56Z</time>
      </trkpt>
      <trkpt lat="43.63635" lon="6.64376">
        <ele>415.1</ele>
        <time>2023-11-26T14:51:57Z</time>
      </trkpt>
      <trkpt lat="43.63636" lon="6.64376">
        <ele>414.8</ele>
        <time>2023-11-26T14:51:58Z</time>
      </trkpt>
      <trkpt lat="43.63637" lon="6.64376">
        <ele>414.6</ele>
        <time>2023-11-26T14:51:59Z</time>
      </trkpt>
      <trkpt lat="43.63637" lon="6.64376">
        <ele>414.4</ele>
        <time>2023-11-26T14:52:00Z</time>
      </trkpt>
      <trkpt lat="43.63638" lon="6.64376">
        <ele>414.2</ele>
        <time>2023-11-26T14:52:01Z</time>
      </trkpt>
      <trkpt lat="43.63638" lon="6.64376">
        <ele>414</ele>
        <time>2023-11-26T14:52:02Z</time>
      </trkpt>
      <trkpt lat="43.63638" lon="6.64376">
        <ele>413.9</ele>
        <time>2023-11-26T14:52:03Z</time>
      </trkpt>
      <trkpt lat="43.63638" lon="6.64377">
        <ele>413.7</ele>
        <time>2023-11-26T14:52:04Z</time>
      </trkpt>
      <trkpt lat="43.63639" lon="6.64377">
        <ele>413.5</ele>
        <time>2023-11-26T14:52:05Z</time>
      </trkpt>
      <trkpt lat="43.63639" lon="6.64377">
        <ele>413.4</ele>
        <time>2023-11-26T14:52:06Z</time>
      </trkpt>
      <trkpt lat="43.63639" lon="6.64377">
        <ele>413.2</ele>
        <time>2023-11-26T14:52:07Z</time>
      </trkpt>
      <trkpt lat="43.6364" lon="6.64377">
        <ele>413</ele>
        <time>2023-11-26T14:52:08Z</time>
      </trkpt>
      <trkpt lat="43.6364" lon="6.64377">
        <ele>412.7</ele>
        <time>2023-11-26T14:52:09Z</time>
      </trkpt>
      <trkpt lat="43.6364" lon="6.64377">
        <ele>412.5</ele>
        <time>2023-11-26T14:52:10Z</time>
      </trkpt>
      <trkpt lat="43.63641" lon="6.64377">
        <ele>412.4</ele>
        <time>2023-11-26T14:52:11Z</time>
      </trkpt>
      <trkpt lat="43.63641" lon="6.64377">
        <ele>412.2</ele>
        <time>2023-11-26T14:52:12Z</time>
      </trkpt>
      <trkpt lat="43.63642" lon="6.64377">
        <ele>412</ele>
        <time>2023-11-26T14:52:13Z</time>
      </trkpt>
      <trkpt lat="43.63642" lon="6.64377">
        <ele>411.9</ele>
        <time>2023-11-26T14:52:14Z</time>
      </trkpt>
      <trkpt lat="43.63643" lon="6.64378">
        <ele>411.6</ele>
        <time>2023-11-26T14:52:15Z</time>
      </trkpt>
      <trkpt lat="43.63644" lon="6.64378">
        <ele>411.4</ele>
        <time>2023-11-26T14:52:16Z</time>
      </trkpt>
      <trkpt lat="43.63643" lon="6.6438">
        <ele>411.2</ele>
        <time>2023-11-26T14:52:17Z</time>
      </trkpt>
      <trkpt lat="43.63644" lon="6.6438">
        <ele>411</ele>
        <time>2023-11-26T14:52:18Z</time>
      </trkpt>
      <trkpt lat="43.63644" lon="6.64381">
        <ele>410.8</ele>
        <time>2023-11-26T14:52:19Z</time>
      </trkpt>
      <trkpt lat="43.63645" lon="6.64381">
        <ele>410.6</ele>
        <time>2023-11-26T14:52:20Z</time>
      </trkpt>
      <trkpt lat="43.63648" lon="6.6438">
        <ele>410.5</ele>
        <time>2023-11-26T14:52:21Z</time>
      </trkpt>
      <trkpt lat="43.63648" lon="6.6438">
        <ele>410.2</ele>
        <time>2023-11-26T14:52:22Z</time>
      </trkpt>
      <trkpt lat="43.63649" lon="6.64382">
        <ele>410.1</ele>
        <time>2023-11-26T14:52:23Z</time>
      </trkpt>
      <trkpt lat="43.63649" lon="6.64383">
        <ele>409.9</ele>
        <time>2023-11-26T14:52:24Z</time>
      </trkpt>
      <trkpt lat="43.6365" lon="6.64384">
        <ele>409.8</ele>
        <time>2023-11-26T14:52:25Z</time>
      </trkpt>
      <trkpt lat="43.63651" lon="6.64385">
        <ele>409.7</ele>
        <time>2023-11-26T14:52:26Z</time>
      </trkpt>
      <trkpt lat="43.63652" lon="6.64385">
        <ele>409.5</ele>
        <time>2023-11-26T14:52:27Z</time>
      </trkpt>
      <trkpt lat="43.63652" lon="6.64386">
        <ele>409.3</ele>
        <time>2023-11-26T14:52:28Z</time>
      </trkpt>
      <trkpt lat="43.63653" lon="6.64387">
        <ele>409</ele>
        <time>2023-11-26T14:52:29Z</time>
      </trkpt>
      <trkpt lat="43.63653" lon="6.64389">
        <ele>408.8</ele>
        <time>2023-11-26T14:52:30Z</time>
      </trkpt>
      <trkpt lat="43.63655" lon="6.64389">
        <ele>408.5</ele>
        <time>2023-11-26T14:52:31Z</time>
      </trkpt>
      <trkpt lat="43.63656" lon="6.6439">
        <ele>408.2</ele>
        <time>2023-11-26T14:52:32Z</time>
      </trkpt>
      <trkpt lat="43.63656" lon="6.6439">
        <ele>408</ele>
        <time>2023-11-26T14:52:33Z</time>
      </trkpt>
      <trkpt lat="43.63656" lon="6.64391">
        <ele>407.8</ele>
        <time>2023-11-26T14:52:34Z</time>
      </trkpt>
      <trkpt lat="43.63656" lon="6.64392">
        <ele>407.2</ele>
        <time>2023-11-26T14:52:35Z</time>
      </trkpt>
      <trkpt lat="43.63656" lon="6.64393">
        <ele>406.2</ele>
        <time>2023-11-26T14:52:36Z</time>
      </trkpt>
      <trkpt lat="43.63656" lon="6.64394">
        <ele>406.1</ele>
        <time>2023-11-26T14:52:37Z</time>
      </trkpt>
      <trkpt lat="43.63656" lon="6.64396">
        <ele>406.1</ele>
        <time>2023-11-26T14:52:38Z</time>
      </trkpt>
      <trkpt lat="43.63656" lon="6.64397">
        <ele>406.1</ele>
        <time>2023-11-26T14:52:39Z</time>
      </trkpt>
      <trkpt lat="43.63656" lon="6.64396">
        <ele>406</ele>
        <time>2023-11-26T14:52:40Z</time>
      </trkpt>
      <trkpt lat="43.63657" lon="6.64396">
        <ele>406</ele>
        <time>2023-11-26T14:52:41Z</time>
      </trkpt>
      <trkpt lat="43.63658" lon="6.64396">
        <ele>406</ele>
        <time>2023-11-26T14:52:42Z</time>
      </trkpt>
      <trkpt lat="43.63659" lon="6.64397">
        <ele>406</ele>
        <time>2023-11-26T14:52:43Z</time>
      </trkpt>
      <trkpt lat="43.6366" lon="6.64397">
        <ele>406.2</ele>
        <time>2023-11-26T14:52:44Z</time>
      </trkpt>
      <trkpt lat="43.63662" lon="6.64394">
        <ele>406.2</ele>
        <time>2023-11-26T14:52:45Z</time>
      </trkpt>
      <trkpt lat="43.63662" lon="6.64394">
        <ele>406.1</ele>
        <time>2023-11-26T14:52:46Z</time>
      </trkpt>
      <trkpt lat="43.63664" lon="6.64393">
        <ele>406.1</ele>
        <time>2023-11-26T14:52:47Z</time>
      </trkpt>
      <trkpt lat="43.63665" lon="6.64393">
        <ele>406</ele>
        <time>2023-11-26T14:52:48Z</time>
      </trkpt>
      <trkpt lat="43.63666" lon="6.64393">
        <ele>405.9</ele>
        <time>2023-11-26T14:52:49Z</time>
      </trkpt>
      <trkpt lat="43.63667" lon="6.64392">
        <ele>406</ele>
        <time>2023-11-26T14:52:50Z</time>
      </trkpt>
      <trkpt lat="43.63668" lon="6.64393">
        <ele>406.1</ele>
        <time>2023-11-26T14:52:51Z</time>
      </trkpt>
      <trkpt lat="43.63668" lon="6.64395">
        <ele>406.1</ele>
        <time>2023-11-26T14:52:52Z</time>
      </trkpt>
      <trkpt lat="43.63669" lon="6.64395">
        <ele>406.1</ele>
        <time>2023-11-26T14:52:53Z</time>
      </trkpt>
      <trkpt lat="43.6367" lon="6.64395">
        <ele>406</ele>
        <time>2023-11-26T14:52:54Z</time>
      </trkpt>
      <trkpt lat="43.6367" lon="6.64394">
        <ele>406</ele>
        <time>2023-11-26T14:52:55Z</time>
      </trkpt>
      <trkpt lat="43.63671" lon="6.64393">
        <ele>406</ele>
        <time>2023-11-26T14:52:56Z</time>
      </trkpt>
      <trkpt lat="43.63671" lon="6.64394">
        <ele>405.9</ele>
        <time>2023-11-26T14:52:57Z</time>
      </trkpt>
      <trkpt lat="43.63671" lon="6.64395">
        <ele>405.9</ele>
        <time>2023-11-26T14:52:58Z</time>
      </trkpt>
      <trkpt lat="43.6367" lon="6.64396">
        <ele>405.9</ele>
        <time>2023-11-26T14:52:59Z</time>
      </trkpt>
      <trkpt lat="43.63669" lon="6.64397">
        <ele>405.8</ele>
        <time>2023-11-26T14:53:00Z</time>
      </trkpt>
      <trkpt lat="43.63668" lon="6.64399">
        <ele>405.8</ele>
        <time>2023-11-26T14:53:01Z</time>
      </trkpt>
      <trkpt lat="43.63667" lon="6.644">
        <ele>405.7</ele>
        <time>2023-11-26T14:53:02Z</time>
      </trkpt>
      <trkpt lat="43.63666" lon="6.64401">
        <ele>405.6</ele>
        <time>2023-11-26T14:53:03Z</time>
      </trkpt>
      <trkpt lat="43.63666" lon="6.64402">
        <ele>405.4</ele>
        <time>2023-11-26T14:53:04Z</time>
      </trkpt>
      <trkpt lat="43.63665" lon="6.64402">
        <ele>405.3</ele>
        <time>2023-11-26T14:53:05Z</time>
      </trkpt>
      <trkpt lat="43.63664" lon="6.64403">
        <ele>405.2</ele>
        <time>2023-11-26T14:53:06Z</time>
      </trkpt>
      <trkpt lat="43.63664" lon="6.64402">
        <ele>405.1</ele>
        <time>2023-11-26T14:53:07Z</time>
      </trkpt>
      <trkpt lat="43.63663" lon="6.64402">
        <ele>405</ele>
        <time>2023-11-26T14:53:08Z</time>
      </trkpt>
      <trkpt lat="43.63662" lon="6.64403">
        <ele>404.8</ele>
        <time>2023-11-26T14:53:09Z</time>
      </trkpt>
      <trkpt lat="43.63661" lon="6.64404">
        <ele>404.6</ele>
        <time>2023-11-26T14:53:10Z</time>
      </trkpt>
      <trkpt lat="43.6366" lon="6.64405">
        <ele>404.4</ele>
        <time>2023-11-26T14:53:11Z</time>
      </trkpt>
      <trkpt lat="43.63659" lon="6.64405">
        <ele>404.2</ele>
        <time>2023-11-26T14:53:12Z</time>
      </trkpt>
      <trkpt lat="43.63658" lon="6.64406">
        <ele>403.9</ele>
        <time>2023-11-26T14:53:13Z</time>
      </trkpt>
      <trkpt lat="43.63658" lon="6.64406">
        <ele>403.8</ele>
        <time>2023-11-26T14:53:14Z</time>
      </trkpt>
      <trkpt lat="43.63657" lon="6.64408">
        <ele>403.6</ele>
        <time>2023-11-26T14:53:15Z</time>
      </trkpt>
      <trkpt lat="43.63656" lon="6.64408">
        <ele>403.5</ele>
        <time>2023-11-26T14:53:16Z</time>
      </trkpt>
      <trkpt lat="43.63655" lon="6.64409">
        <ele>403.3</ele>
        <time>2023-11-26T14:53:17Z</time>
      </trkpt>
      <trkpt lat="43.63654" lon="6.6441">
        <ele>403.1</ele>
        <time>2023-11-26T14:53:18Z</time>
      </trkpt>
      <trkpt lat="43.63653" lon="6.6441">
        <ele>402.8</ele>
        <time>2023-11-26T14:53:19Z</time>
      </trkpt>
      <trkpt lat="43.63652" lon="6.64411">
        <ele>402.6</ele>
        <time>2023-11-26T14:53:20Z</time>
      </trkpt>
      <trkpt lat="43.63652" lon="6.64412">
        <ele>402.3</ele>
        <time>2023-11-26T14:53:21Z</time>
      </trkpt>
      <trkpt lat="43.63652" lon="6.64413">
        <ele>401.9</ele>
        <time>2023-11-26T14:53:22Z</time>
      </trkpt>
      <trkpt lat="43.63651" lon="6.64413">
        <ele>401.5</ele>
        <time>2023-11-26T14:53:23Z</time>
      </trkpt>
      <trkpt lat="43.63651" lon="6.64415">
        <ele>401.2</ele>
        <time>2023-11-26T14:53:24Z</time>
      </trkpt>
      <trkpt lat="43.63652" lon="6.64416">
        <ele>400.9</ele>
        <time>2023-11-26T14:53:25Z</time>
      </trkpt>
      <trkpt lat="43.63652" lon="6.64417">
        <ele>400.7</ele>
        <time>2023-11-26T14:53:26Z</time>
      </trkpt>
      <trkpt lat="43.63652" lon="6.64419">
        <ele>400.5</ele>
        <time>2023-11-26T14:53:27Z</time>
      </trkpt>
      <trkpt lat="43.63652" lon="6.6442">
        <ele>400.4</ele>
        <time>2023-11-26T14:53:28Z</time>
      </trkpt>
      <trkpt lat="43.63652" lon="6.6442">
        <ele>400.2</ele>
        <time>2023-11-26T14:53:29Z</time>
      </trkpt>
      <trkpt lat="43.63652" lon="6.64421">
        <ele>400.1</ele>
        <time>2023-11-26T14:53:30Z</time>
      </trkpt>
      <trkpt lat="43.63652" lon="6.64423">
        <ele>399.9</ele>
        <time>2023-11-26T14:53:31Z</time>
      </trkpt>
      <trkpt lat="43.63653" lon="6.64424">
        <ele>399.8</ele>
        <time>2023-11-26T14:53:32Z</time>
      </trkpt>
      <trkpt lat="43.63654" lon="6.64424">
        <ele>399.8</ele>
        <time>2023-11-26T14:53:33Z</time>
      </trkpt>
      <trkpt lat="43.63654" lon="6.64424">
        <ele>399.7</ele>
        <time>2023-11-26T14:53:34Z</time>
      </trkpt>
      <trkpt lat="43.63655" lon="6.64424">
        <ele>399.7</ele>
        <time>2023-11-26T14:53:35Z</time>
      </trkpt>
      <trkpt lat="43.63655" lon="6.64424">
        <ele>399.7</ele>
        <time>2023-11-26T14:53:36Z</time>
      </trkpt>
      <trkpt lat="43.63656" lon="6.64424">
        <ele>399.6</ele>
        <time>2023-11-26T14:53:37Z</time>
      </trkpt>
      <trkpt lat="43.63658" lon="6.64426">
        <ele>399.4</ele>
        <time>2023-11-26T14:53:38Z</time>
      </trkpt>
      <trkpt lat="43.63659" lon="6.64426">
        <ele>399.3</ele>
        <time>2023-11-26T14:53:39Z</time>
      </trkpt>
      <trkpt lat="43.6366" lon="6.64427">
        <ele>399.1</ele>
        <time>2023-11-26T14:53:40Z</time>
      </trkpt>
      <trkpt lat="43.6366" lon="6.64428">
        <ele>399</ele>
        <time>2023-11-26T14:53:41Z</time>
      </trkpt>
      <trkpt lat="43.63661" lon="6.64429">
        <ele>398.9</ele>
        <time>2023-11-26T14:53:42Z</time>
      </trkpt>
      <trkpt lat="43.63661" lon="6.6443">
        <ele>398.8</ele>
        <time>2023-11-26T14:53:43Z</time>
      </trkpt>
      <trkpt lat="43.63661" lon="6.64431">
        <ele>398.7</ele>
        <time>2023-11-26T14:53:44Z</time>
      </trkpt>
      <trkpt lat="43.63661" lon="6.64433">
        <ele>398.7</ele>
        <time>2023-11-26T14:53:45Z</time>
      </trkpt>
      <trkpt lat="43.63661" lon="6.64434">
        <ele>398.7</ele>
        <time>2023-11-26T14:53:46Z</time>
      </trkpt>
      <trkpt lat="43.63662" lon="6.64435">
        <ele>398.5</ele>
        <time>2023-11-26T14:53:47Z</time>
      </trkpt>
      <trkpt lat="43.63662" lon="6.64437">
        <ele>398.4</ele>
        <time>2023-11-26T14:53:48Z</time>
      </trkpt>
      <trkpt lat="43.63662" lon="6.64438">
        <ele>398.3</ele>
        <time>2023-11-26T14:53:49Z</time>
      </trkpt>
      <trkpt lat="43.63663" lon="6.6444">
        <ele>398.1</ele>
        <time>2023-11-26T14:53:50Z</time>
      </trkpt>
      <trkpt lat="43.63662" lon="6.64442">
        <ele>398</ele>
        <time>2023-11-26T14:53:51Z</time>
      </trkpt>
      <trkpt lat="43.63661" lon="6.64443">
        <ele>397.8</ele>
        <time>2023-11-26T14:53:52Z</time>
      </trkpt>
      <trkpt lat="43.6366" lon="6.64446">
        <ele>397.7</ele>
        <time>2023-11-26T14:53:53Z</time>
      </trkpt>
      <trkpt lat="43.6366" lon="6.64446">
        <ele>397.5</ele>
        <time>2023-11-26T14:53:54Z</time>
      </trkpt>
      <trkpt lat="43.63659" lon="6.64448">
        <ele>397.4</ele>
        <time>2023-11-26T14:53:55Z</time>
      </trkpt>
      <trkpt lat="43.63659" lon="6.64449">
        <ele>397.3</ele>
        <time>2023-11-26T14:53:56Z</time>
      </trkpt>
      <trkpt lat="43.63659" lon="6.6445">
        <ele>397.2</ele>
        <time>2023-11-26T14:53:57Z</time>
      </trkpt>
      <trkpt lat="43.63657" lon="6.64451">
        <ele>397.2</ele>
        <time>2023-11-26T14:53:58Z</time>
      </trkpt>
      <trkpt lat="43.63656" lon="6.64452">
        <ele>397.2</ele>
        <time>2023-11-26T14:53:59Z</time>
      </trkpt>
      <trkpt lat="43.63655" lon="6.64454">
        <ele>397</ele>
        <time>2023-11-26T14:54:00Z</time>
      </trkpt>
      <trkpt lat="43.63654" lon="6.64455">
        <ele>397.1</ele>
        <time>2023-11-26T14:54:01Z</time>
      </trkpt>
      <trkpt lat="43.63654" lon="6.64455">
        <ele>397.1</ele>
        <time>2023-11-26T14:54:02Z</time>
      </trkpt>
      <trkpt lat="43.63653" lon="6.64455">
        <ele>397</ele>
        <time>2023-11-26T14:54:03Z</time>
      </trkpt>
      <trkpt lat="43.63652" lon="6.64456">
        <ele>396.9</ele>
        <time>2023-11-26T14:54:04Z</time>
      </trkpt>
      <trkpt lat="43.63652" lon="6.64457">
        <ele>396.9</ele>
        <time>2023-11-26T14:54:05Z</time>
      </trkpt>
      <trkpt lat="43.63651" lon="6.64458">
        <ele>396.9</ele>
        <time>2023-11-26T14:54:06Z</time>
      </trkpt>
      <trkpt lat="43.63651" lon="6.6446">
        <ele>396.8</ele>
        <time>2023-11-26T14:54:07Z</time>
      </trkpt>
      <trkpt lat="43.6365" lon="6.64464">
        <ele>396.7</ele>
        <time>2023-11-26T14:54:08Z</time>
      </trkpt>
      <trkpt lat="43.6365" lon="6.64466">
        <ele>396.7</ele>
        <time>2023-11-26T14:54:09Z</time>
      </trkpt>
      <trkpt lat="43.6365" lon="6.64468">
        <ele>396.5</ele>
        <time>2023-11-26T14:54:10Z</time>
      </trkpt>
      <trkpt lat="43.6365" lon="6.64469">
        <ele>396.4</ele>
        <time>2023-11-26T14:54:11Z</time>
      </trkpt>
      <trkpt lat="43.63649" lon="6.64471">
        <ele>396.3</ele>
        <time>2023-11-26T14:54:12Z</time>
      </trkpt>
      <trkpt lat="43.63649" lon="6.6447">
        <ele>396.2</ele>
        <time>2023-11-26T14:54:13Z</time>
      </trkpt>
      <trkpt lat="43.63651" lon="6.64469">
        <ele>396.1</ele>
        <time>2023-11-26T14:54:14Z</time>
      </trkpt>
      <trkpt lat="43.63653" lon="6.64469">
        <ele>396</ele>
        <time>2023-11-26T14:54:15Z</time>
      </trkpt>
      <trkpt lat="43.63653" lon="6.6447">
        <ele>395.9</ele>
        <time>2023-11-26T14:54:16Z</time>
      </trkpt>
      <trkpt lat="43.63656" lon="6.64474">
        <ele>395.8</ele>
        <time>2023-11-26T14:54:22Z</time>
      </trkpt>
      <trkpt lat="43.63655" lon="6.64479">
        <ele>395.7</ele>
        <time>2023-11-26T14:54:23Z</time>
      </trkpt>
      <trkpt lat="43.63654" lon="6.64482">
        <ele>395.6</ele>
        <time>2023-11-26T14:54:25Z</time>
      </trkpt>
      <trkpt lat="43.63654" lon="6.64481">
        <ele>395.5</ele>
        <time>2023-11-26T14:54:26Z</time>
      </trkpt>
      <trkpt lat="43.63655" lon="6.64486">
        <ele>395.4</ele>
        <time>2023-11-26T14:54:27Z</time>
      </trkpt>
      <trkpt lat="43.63656" lon="6.64489">
        <ele>395.3</ele>
        <time>2023-11-26T14:54:28Z</time>
      </trkpt>
      <trkpt lat="43.63656" lon="6.6449">
        <ele>395.3</ele>
        <time>2023-11-26T14:54:29Z</time>
      </trkpt>
      <trkpt lat="43.63656" lon="6.64488">
        <ele>395.3</ele>
        <time>2023-11-26T14:54:30Z</time>
      </trkpt>
      <trkpt lat="43.63656" lon="6.64491">
        <ele>395.3</ele>
        <time>2023-11-26T14:54:31Z</time>
      </trkpt>
      <trkpt lat="43.63655" lon="6.64493">
        <ele>395.3</ele>
        <time>2023-11-26T14:54:32Z</time>
      </trkpt>
      <trkpt lat="43.63656" lon="6.64494">
        <ele>395.3</ele>
        <time>2023-11-26T14:54:33Z</time>
      </trkpt>
      <trkpt lat="43.63656" lon="6.64496">
        <ele>395.3</ele>
        <time>2023-11-26T14:54:34Z</time>
      </trkpt>
      <trkpt lat="43.63657" lon="6.64498">
        <ele>395.3</ele>
        <time>2023-11-26T14:54:35Z</time>
      </trkpt>
      <trkpt lat="43.63656" lon="6.645">
        <ele>395.2</ele>
        <time>2023-11-26T14:54:36Z</time>
      </trkpt>
      <trkpt lat="43.63656" lon="6.64503">
        <ele>395.1</ele>
        <time>2023-11-26T14:54:37Z</time>
      </trkpt>
      <trkpt lat="43.63656" lon="6.64507">
        <ele>395.1</ele>
        <time>2023-11-26T14:54:38Z</time>
      </trkpt>
      <trkpt lat="43.63657" lon="6.64509">
        <ele>395</ele>
        <time>2023-11-26T14:54:39Z</time>
      </trkpt>
      <trkpt lat="43.63657" lon="6.64511">
        <ele>394.9</ele>
        <time>2023-11-26T14:54:40Z</time>
      </trkpt>
      <trkpt lat="43.63657" lon="6.64513">
        <ele>394.9</ele>
        <time>2023-11-26T14:54:41Z</time>
      </trkpt>
      <trkpt lat="43.63654" lon="6.64517">
        <ele>394.8</ele>
        <time>2023-11-26T14:54:42Z</time>
      </trkpt>
      <trkpt lat="43.63651" lon="6.64522">
        <ele>394.8</ele>
        <time>2023-11-26T14:54:43Z</time>
      </trkpt>
      <trkpt lat="43.6365" lon="6.64523">
        <ele>394.7</ele>
        <time>2023-11-26T14:54:44Z</time>
      </trkpt>
      <trkpt lat="43.6365" lon="6.64525">
        <ele>394.6</ele>
        <time>2023-11-26T14:54:45Z</time>
      </trkpt>
      <trkpt lat="43.63649" lon="6.64527">
        <ele>394.6</ele>
        <time>2023-11-26T14:54:46Z</time>
      </trkpt>
      <trkpt lat="43.63649" lon="6.6453">
        <ele>394.6</ele>
        <time>2023-11-26T14:54:47Z</time>
      </trkpt>
      <trkpt lat="43.63649" lon="6.64531">
        <ele>394.5</ele>
        <time>2023-11-26T14:54:48Z</time>
      </trkpt>
      <trkpt lat="43.63648" lon="6.64533">
        <ele>394.4</ele>
        <time>2023-11-26T14:54:49Z</time>
      </trkpt>
      <trkpt lat="43.63647" lon="6.64533">
        <ele>394.4</ele>
        <time>2023-11-26T14:54:50Z</time>
      </trkpt>
      <trkpt lat="43.63646" lon="6.64533">
        <ele>394.3</ele>
        <time>2023-11-26T14:54:51Z</time>
      </trkpt>
      <trkpt lat="43.63645" lon="6.64533">
        <ele>394.1</ele>
        <time>2023-11-26T14:54:52Z</time>
      </trkpt>
      <trkpt lat="43.63645" lon="6.64532">
        <ele>394.1</ele>
        <time>2023-11-26T14:54:53Z</time>
      </trkpt>
      <trkpt lat="43.63644" lon="6.64531">
        <ele>393.9</ele>
        <time>2023-11-26T14:54:54Z</time>
      </trkpt>
      <trkpt lat="43.63643" lon="6.6453">
        <ele>393.8</ele>
        <time>2023-11-26T14:54:55Z</time>
      </trkpt>
      <trkpt lat="43.63642" lon="6.64529">
        <ele>393.7</ele>
        <time>2023-11-26T14:54:56Z</time>
      </trkpt>
      <trkpt lat="43.63641" lon="6.64528">
        <ele>393.6</ele>
        <time>2023-11-26T14:54:57Z</time>
      </trkpt>
      <trkpt lat="43.63641" lon="6.64526">
        <ele>393.5</ele>
        <time>2023-11-26T14:54:58Z</time>
      </trkpt>
      <trkpt lat="43.6364" lon="6.64525">
        <ele>393.4</ele>
        <time>2023-11-26T14:54:59Z</time>
      </trkpt>
      <trkpt lat="43.6364" lon="6.64524">
        <ele>393.4</ele>
        <time>2023-11-26T14:55:00Z</time>
      </trkpt>
      <trkpt lat="43.63639" lon="6.64524">
        <ele>393.3</ele>
        <time>2023-11-26T14:55:01Z</time>
      </trkpt>
      <trkpt lat="43.63637" lon="6.64524">
        <ele>393.2</ele>
        <time>2023-11-26T14:55:02Z</time>
      </trkpt>
      <trkpt lat="43.63635" lon="6.64524">
        <ele>393</ele>
        <time>2023-11-26T14:55:03Z</time>
      </trkpt>
      <trkpt lat="43.63634" lon="6.64526">
        <ele>392.8</ele>
        <time>2023-11-26T14:55:04Z</time>
      </trkpt>
      <trkpt lat="43.63632" lon="6.64527">
        <ele>392.7</ele>
        <time>2023-11-26T14:55:05Z</time>
      </trkpt>
      <trkpt lat="43.6363" lon="6.64527">
        <ele>392.5</ele>
        <time>2023-11-26T14:55:06Z</time>
      </trkpt>
      <trkpt lat="43.6363" lon="6.64528">
        <ele>392.4</ele>
        <time>2023-11-26T14:55:07Z</time>
      </trkpt>
      <trkpt lat="43.63629" lon="6.64529">
        <ele>392.4</ele>
        <time>2023-11-26T14:55:08Z</time>
      </trkpt>
      <trkpt lat="43.63628" lon="6.6453">
        <ele>392.4</ele>
        <time>2023-11-26T14:55:09Z</time>
      </trkpt>
      <trkpt lat="43.63627" lon="6.6453">
        <ele>392.4</ele>
        <time>2023-11-26T14:55:10Z</time>
      </trkpt>
      <trkpt lat="43.63627" lon="6.64531">
        <ele>392.3</ele>
        <time>2023-11-26T14:55:11Z</time>
      </trkpt>
      <trkpt lat="43.63626" lon="6.64532">
        <ele>392.3</ele>
        <time>2023-11-26T14:55:12Z</time>
      </trkpt>
      <trkpt lat="43.63625" lon="6.64533">
        <ele>392.2</ele>
        <time>2023-11-26T14:55:13Z</time>
      </trkpt>
      <trkpt lat="43.63624" lon="6.64534">
        <ele>392.2</ele>
        <time>2023-11-26T14:55:14Z</time>
      </trkpt>
      <trkpt lat="43.63624" lon="6.64535">
        <ele>392.2</ele>
        <time>2023-11-26T14:55:15Z</time>
      </trkpt>
      <trkpt lat="43.63624" lon="6.64536">
        <ele>392.1</ele>
        <time>2023-11-26T14:55:16Z</time>
      </trkpt>
      <trkpt lat="43.63624" lon="6.64537">
        <ele>392</ele>
        <time>2023-11-26T14:55:17Z</time>
      </trkpt>
      <trkpt lat="43.63624" lon="6.64538">
        <ele>391.9</ele>
        <time>2023-11-26T14:55:18Z</time>
      </trkpt>
      <trkpt lat="43.63624" lon="6.64538">
        <ele>391.9</ele>
        <time>2023-11-26T14:55:19Z</time>
      </trkpt>
      <trkpt lat="43.63624" lon="6.64538">
        <ele>391.8</ele>
        <time>2023-11-26T14:55:20Z</time>
      </trkpt>
      <trkpt lat="43.63624" lon="6.64538">
        <ele>391.8</ele>
        <time>2023-11-26T14:55:21Z</time>
      </trkpt>
      <trkpt lat="43.63624" lon="6.64538">
        <ele>391.7</ele>
        <time>2023-11-26T14:55:22Z</time>
      </trkpt>
      <trkpt lat="43.63624" lon="6.64538">
        <ele>391.8</ele>
        <time>2023-11-26T14:55:23Z</time>
      </trkpt>
      <trkpt lat="43.63624" lon="6.64538">
        <ele>391.7</ele>
        <time>2023-11-26T14:55:24Z</time>
      </trkpt>
      <trkpt lat="43.63624" lon="6.64538">
        <ele>391.6</ele>
        <time>2023-11-26T14:55:25Z</time>
      </trkpt>
      <trkpt lat="43.63624" lon="6.64538">
        <ele>391.5</ele>
        <time>2023-11-26T14:55:26Z</time>
      </trkpt>
      <trkpt lat="43.63624" lon="6.64538">
        <ele>391.5</ele>
        <time>2023-11-26T14:55:27Z</time>
      </trkpt>
      <trkpt lat="43.63624" lon="6.64538">
        <ele>391.5</ele>
        <time>2023-11-26T14:55:28Z</time>
      </trkpt>
      <trkpt lat="43.63624" lon="6.64538">
        <ele>391.5</ele>
        <time>2023-11-26T14:55:29Z</time>
      </trkpt>
      <trkpt lat="43.63624" lon="6.64538">
        <ele>391.6</ele>
        <time>2023-11-26T14:55:30Z</time>
      </trkpt>
      <trkpt lat="43.63623" lon="6.64538">
        <ele>391.7</ele>
        <time>2023-11-26T14:55:31Z</time>
      </trkpt>
      <trkpt lat="43.63623" lon="6.64538">
        <ele>391.7</ele>
        <time>2023-11-26T14:55:32Z</time>
      </trkpt>
      <trkpt lat="43.63623" lon="6.64538">
        <ele>391.7</ele>
        <time>2023-11-26T14:55:33Z</time>
      </trkpt>
      <trkpt lat="43.63623" lon="6.64538">
        <ele>391.8</ele>
        <time>2023-11-26T14:55:34Z</time>
      </trkpt>
      <trkpt lat="43.63623" lon="6.64538">
        <ele>391.8</ele>
        <time>2023-11-26T14:55:35Z</time>
      </trkpt>
      <trkpt lat="43.63623" lon="6.64538">
        <ele>391.8</ele>
        <time>2023-11-26T14:55:36Z</time>
      </trkpt>
      <trkpt lat="43.63623" lon="6.64538">
        <ele>391.8</ele>
        <time>2023-11-26T14:55:37Z</time>
      </trkpt>
      <trkpt lat="43.63623" lon="6.64539">
        <ele>391.8</ele>
        <time>2023-11-26T14:55:38Z</time>
      </trkpt>
      <trkpt lat="43.63623" lon="6.64539">
        <ele>391.8</ele>
        <time>2023-11-26T14:55:39Z</time>
      </trkpt>
      <trkpt lat="43.63623" lon="6.64539">
        <ele>391.8</ele>
        <time>2023-11-26T14:55:40Z</time>
      </trkpt>
      <trkpt lat="43.63622" lon="6.64539">
        <ele>391.9</ele>
        <time>2023-11-26T14:55:41Z</time>
      </trkpt>
      <trkpt lat="43.63622" lon="6.64539">
        <ele>391.9</ele>
        <time>2023-11-26T14:55:42Z</time>
      </trkpt>
      <trkpt lat="43.63623" lon="6.64539">
        <ele>391.9</ele>
        <time>2023-11-26T14:55:43Z</time>
      </trkpt>
      <trkpt lat="43.63622" lon="6.64539">
        <ele>391.9</ele>
        <time>2023-11-26T14:55:44Z</time>
      </trkpt>
      <trkpt lat="43.63622" lon="6.64539">
        <ele>391.9</ele>
        <time>2023-11-26T14:55:45Z</time>
      </trkpt>
      <trkpt lat="43.63622" lon="6.64539">
        <ele>391.9</ele>
        <time>2023-11-26T14:55:46Z</time>
      </trkpt>
      <trkpt lat="43.63622" lon="6.64539">
        <ele>391.9</ele>
        <time>2023-11-26T14:55:47Z</time>
      </trkpt>
      <trkpt lat="43.63622" lon="6.64539">
        <ele>391.9</ele>
        <time>2023-11-26T14:55:48Z</time>
      </trkpt>
      <trkpt lat="43.63622" lon="6.64539">
        <ele>391.8</ele>
        <time>2023-11-26T14:55:49Z</time>
      </trkpt>
      <trkpt lat="43.63622" lon="6.64539">
        <ele>391.3</ele>
        <time>2023-11-26T14:55:50Z</time>
      </trkpt>
      <trkpt lat="43.63622" lon="6.6454">
        <ele>391.6</ele>
        <time>2023-11-26T14:55:51Z</time>
      </trkpt>
      <trkpt lat="43.63622" lon="6.6454">
        <ele>391.7</ele>
        <time>2023-11-26T14:55:52Z</time>
      </trkpt>
      <trkpt lat="43.63622" lon="6.6454">
        <ele>391.7</ele>
        <time>2023-11-26T14:55:53Z</time>
      </trkpt>
      <trkpt lat="43.63622" lon="6.6454">
        <ele>391.7</ele>
        <time>2023-11-26T14:55:54Z</time>
      </trkpt>
      <trkpt lat="43.63622" lon="6.6454">
        <ele>391.8</ele>
        <time>2023-11-26T14:55:55Z</time>
      </trkpt>
      <trkpt lat="43.63623" lon="6.6454">
        <ele>391.8</ele>
        <time>2023-11-26T14:55:56Z</time>
      </trkpt>
      <trkpt lat="43.63623" lon="6.6454">
        <ele>391.8</ele>
        <time>2023-11-26T14:55:57Z</time>
      </trkpt>
      <trkpt lat="43.63623" lon="6.6454">
        <ele>391.7</ele>
        <time>2023-11-26T14:55:58Z</time>
      </trkpt>
      <trkpt lat="43.63623" lon="6.6454">
        <ele>391.7</ele>
        <time>2023-11-26T14:55:59Z</time>
      </trkpt>
      <trkpt lat="43.63623" lon="6.6454">
        <ele>391.8</ele>
        <time>2023-11-26T14:56:00Z</time>
      </trkpt>
      <trkpt lat="43.63623" lon="6.6454">
        <ele>391.8</ele>
        <time>2023-11-26T14:56:00Z</time>
      </trkpt>
      <trkpt lat="43.63623" lon="6.6454">
        <ele>391.8</ele>
        <time>2023-11-26T14:56:00Z</time>
      </trkpt>
    </trkseg>
  </trk>
</gpx>